<?xml version="1.0" encoding="UTF-8"?>
<gpx version="1.1" creator=" " xmlns="http://www.topografix.com/GPX/1/1" xmlns:xsi="http://www.w3.org/2001/XMLSchema-instance" xsi:schemaLocation="http://www.topografix.com/GPX/1/1 http://www.topografix.com/GPX/1/1/gpx.xsd">
<metadata>
<name>TL 2019 Tour 1 Gaubahnradweg</name>
<desc></desc>
<link href="">
<text>  </text>
</link>
<time>2019-05-30T10:28:10Z</time>
</metadata>
<trk>
<trkseg>
<trkpt lat="49.508522" lon="10.406723">
<ele>326.035</ele>
</trkpt>
<trkpt lat="49.508522" lon="10.406723">
<ele>326.035</ele>
<time>2019-05-30T10:28:10Z</time>
</trkpt>
<trkpt lat="49.508518" lon="10.406816">
<ele>326.1</ele>
<time>2019-05-30T10:28:14Z</time>
</trkpt>
<trkpt lat="49.508526" lon="10.406812">
<ele>326.075</ele>
<time>2019-05-30T10:28:15Z</time>
</trkpt>
<trkpt lat="49.508537" lon="10.406795">
<ele>326.063</ele>
<time>2019-05-30T10:28:16Z</time>
</trkpt>
<trkpt lat="49.508549" lon="10.406792">
<ele>326.057</ele>
<time>2019-05-30T10:28:17Z</time>
</trkpt>
<trkpt lat="49.508556" lon="10.40681">
<ele>326.052</ele>
<time>2019-05-30T10:28:18Z</time>
</trkpt>
<trkpt lat="49.508556" lon="10.406807">
<ele>326.049</ele>
<time>2019-05-30T10:28:19Z</time>
</trkpt>
<trkpt lat="49.50856" lon="10.40681">
<ele>326.047</ele>
<time>2019-05-30T10:28:20Z</time>
</trkpt>
<trkpt lat="49.508564" lon="10.406808">
<ele>326.035</ele>
<time>2019-05-30T10:28:21Z</time>
</trkpt>
<trkpt lat="49.508564" lon="10.406807">
<ele>326.035</ele>
<time>2019-05-30T10:28:22Z</time>
</trkpt>
<trkpt lat="49.508564" lon="10.406801">
<ele>326.035</ele>
<time>2019-05-30T10:28:23Z</time>
</trkpt>
<trkpt lat="49.508564" lon="10.406792">
<ele>326.035</ele>
<time>2019-05-30T10:28:24Z</time>
</trkpt>
<trkpt lat="49.508564" lon="10.406791">
<ele>326.035</ele>
<time>2019-05-30T10:28:25Z</time>
</trkpt>
<trkpt lat="49.508564" lon="10.406787">
<ele>326.035</ele>
<time>2019-05-30T10:28:26Z</time>
</trkpt>
<trkpt lat="49.508568" lon="10.406782">
<ele>326.035</ele>
<time>2019-05-30T10:28:27Z</time>
</trkpt>
<trkpt lat="49.508568" lon="10.406778">
<ele>326.035</ele>
<time>2019-05-30T10:28:28Z</time>
</trkpt>
<trkpt lat="49.508568" lon="10.406774">
<ele>326.035</ele>
<time>2019-05-30T10:28:29Z</time>
</trkpt>
<trkpt lat="49.508572" lon="10.406774">
<ele>326.035</ele>
<time>2019-05-30T10:28:30Z</time>
</trkpt>
<trkpt lat="49.508575" lon="10.406776">
<ele>326.035</ele>
<time>2019-05-30T10:28:31Z</time>
</trkpt>
<trkpt lat="49.508579" lon="10.40678">
<ele>326.035</ele>
<time>2019-05-30T10:28:32Z</time>
</trkpt>
<trkpt lat="49.508583" lon="10.406782">
<ele>326.035</ele>
<time>2019-05-30T10:28:33Z</time>
</trkpt>
<trkpt lat="49.508583" lon="10.406785">
<ele>326.035</ele>
<time>2019-05-30T10:28:34Z</time>
</trkpt>
<trkpt lat="49.508583" lon="10.406787">
<ele>326.035</ele>
<time>2019-05-30T10:28:35Z</time>
</trkpt>
<trkpt lat="49.508579" lon="10.406789">
<ele>326.035</ele>
<time>2019-05-30T10:28:36Z</time>
</trkpt>
<trkpt lat="49.508579" lon="10.406793">
<ele>326.035</ele>
<time>2019-05-30T10:28:37Z</time>
</trkpt>
<trkpt lat="49.508579" lon="10.406796">
<ele>326.035</ele>
<time>2019-05-30T10:28:38Z</time>
</trkpt>
<trkpt lat="49.508575" lon="10.406801">
<ele>326.035</ele>
<time>2019-05-30T10:28:39Z</time>
</trkpt>
<trkpt lat="49.508575" lon="10.406803">
<ele>326.035</ele>
<time>2019-05-30T10:28:40Z</time>
</trkpt>
<trkpt lat="49.508579" lon="10.406807">
<ele>326.035</ele>
<time>2019-05-30T10:28:41Z</time>
</trkpt>
<trkpt lat="49.508579" lon="10.406808">
<ele>326.035</ele>
<time>2019-05-30T10:28:42Z</time>
</trkpt>
<trkpt lat="49.508583" lon="10.406808">
<ele>326.035</ele>
<time>2019-05-30T10:28:43Z</time>
</trkpt>
<trkpt lat="49.508587" lon="10.406808">
<ele>326.035</ele>
<time>2019-05-30T10:28:45Z</time>
</trkpt>
<trkpt lat="49.508579" lon="10.406798">
<ele>326.035</ele>
<time>2019-05-30T10:29:41Z</time>
</trkpt>
<trkpt lat="49.508575" lon="10.40678">
<ele>326.035</ele>
<time>2019-05-30T10:29:42Z</time>
</trkpt>
<trkpt lat="49.508572" lon="10.406759">
<ele>326.035</ele>
<time>2019-05-30T10:29:43Z</time>
</trkpt>
<trkpt lat="49.508568" lon="10.406738">
<ele>326.035</ele>
<time>2019-05-30T10:29:44Z</time>
</trkpt>
<trkpt lat="49.508556" lon="10.406711">
<ele>326.035</ele>
<time>2019-05-30T10:29:45Z</time>
</trkpt>
<trkpt lat="49.508553" lon="10.406684">
<ele>326.035</ele>
<time>2019-05-30T10:29:46Z</time>
</trkpt>
<trkpt lat="49.508541" lon="10.406661">
<ele>326.035</ele>
<time>2019-05-30T10:29:47Z</time>
</trkpt>
<trkpt lat="49.508526" lon="10.406637">
<ele>326.035</ele>
<time>2019-05-30T10:29:48Z</time>
</trkpt>
<trkpt lat="49.508522" lon="10.40661">
<ele>326.035</ele>
<time>2019-05-30T10:29:49Z</time>
</trkpt>
<trkpt lat="49.508511" lon="10.406579">
<ele>326.035</ele>
<time>2019-05-30T10:29:50Z</time>
</trkpt>
<trkpt lat="49.508503" lon="10.406548">
<ele>326.035</ele>
<time>2019-05-30T10:29:51Z</time>
</trkpt>
<trkpt lat="49.508507" lon="10.406507">
<ele>326.035</ele>
<time>2019-05-30T10:29:52Z</time>
</trkpt>
<trkpt lat="49.508499" lon="10.40647">
<ele>326.035</ele>
<time>2019-05-30T10:29:53Z</time>
</trkpt>
<trkpt lat="49.508492" lon="10.406441">
<ele>326.035</ele>
<time>2019-05-30T10:29:54Z</time>
</trkpt>
<trkpt lat="49.508484" lon="10.406409">
<ele>326.035</ele>
<time>2019-05-30T10:29:55Z</time>
</trkpt>
<trkpt lat="49.50848" lon="10.40638">
<ele>326.035</ele>
<time>2019-05-30T10:29:56Z</time>
</trkpt>
<trkpt lat="49.508476" lon="10.40635">
<ele>326.035</ele>
<time>2019-05-30T10:29:57Z</time>
</trkpt>
<trkpt lat="49.508469" lon="10.406322">
<ele>326.035</ele>
<time>2019-05-30T10:29:58Z</time>
</trkpt>
<trkpt lat="49.508457" lon="10.406288">
<ele>326.035</ele>
<time>2019-05-30T10:29:59Z</time>
</trkpt>
<trkpt lat="49.50845" lon="10.40626">
<ele>326.035</ele>
<time>2019-05-30T10:30:00Z</time>
</trkpt>
<trkpt lat="49.508442" lon="10.40623">
<ele>326.035</ele>
<time>2019-05-30T10:30:01Z</time>
</trkpt>
<trkpt lat="49.508438" lon="10.406205">
<ele>326.035</ele>
<time>2019-05-30T10:30:02Z</time>
</trkpt>
<trkpt lat="49.50843" lon="10.406177">
<ele>326.035</ele>
<time>2019-05-30T10:30:03Z</time>
</trkpt>
<trkpt lat="49.508423" lon="10.406152">
<ele>326.035</ele>
<time>2019-05-30T10:30:04Z</time>
</trkpt>
<trkpt lat="49.508411" lon="10.406132">
<ele>326.035</ele>
<time>2019-05-30T10:30:05Z</time>
</trkpt>
<trkpt lat="49.5084" lon="10.406103">
<ele>326.035</ele>
<time>2019-05-30T10:30:06Z</time>
</trkpt>
<trkpt lat="49.508396" lon="10.406075">
<ele>326.035</ele>
<time>2019-05-30T10:30:07Z</time>
</trkpt>
<trkpt lat="49.508392" lon="10.406049">
<ele>326.035</ele>
<time>2019-05-30T10:30:08Z</time>
</trkpt>
<trkpt lat="49.508389" lon="10.406025">
<ele>326.035</ele>
<time>2019-05-30T10:30:09Z</time>
</trkpt>
<trkpt lat="49.508381" lon="10.406001">
<ele>326.035</ele>
<time>2019-05-30T10:30:10Z</time>
</trkpt>
<trkpt lat="49.508377" lon="10.405978">
<ele>326.035</ele>
<time>2019-05-30T10:30:11Z</time>
</trkpt>
<trkpt lat="49.508369" lon="10.405956">
<ele>326.035</ele>
<time>2019-05-30T10:30:12Z</time>
</trkpt>
<trkpt lat="49.508369" lon="10.405936">
<ele>326.035</ele>
<time>2019-05-30T10:30:13Z</time>
</trkpt>
<trkpt lat="49.508369" lon="10.405925">
<ele>326.035</ele>
<time>2019-05-30T10:30:14Z</time>
</trkpt>
<trkpt lat="49.508369" lon="10.405921">
<ele>326.035</ele>
<time>2019-05-30T10:30:15Z</time>
</trkpt>
<trkpt lat="49.508369" lon="10.405917">
<ele>326.035</ele>
<time>2019-05-30T10:30:16Z</time>
</trkpt>
<trkpt lat="49.508381" lon="10.405869">
<ele>326.035</ele>
<time>2019-05-30T10:30:28Z</time>
</trkpt>
<trkpt lat="49.508392" lon="10.405849">
<ele>326.035</ele>
<time>2019-05-30T10:30:29Z</time>
</trkpt>
<trkpt lat="49.5084" lon="10.40583">
<ele>326.035</ele>
<time>2019-05-30T10:30:30Z</time>
</trkpt>
<trkpt lat="49.508415" lon="10.405815">
<ele>326.035</ele>
<time>2019-05-30T10:30:31Z</time>
</trkpt>
<trkpt lat="49.50843" lon="10.405797">
<ele>326.035</ele>
<time>2019-05-30T10:30:32Z</time>
</trkpt>
<trkpt lat="49.50845" lon="10.405777">
<ele>326.035</ele>
<time>2019-05-30T10:30:33Z</time>
</trkpt>
<trkpt lat="49.508469" lon="10.405748">
<ele>326.035</ele>
<time>2019-05-30T10:30:34Z</time>
</trkpt>
<trkpt lat="49.508492" lon="10.40572">
<ele>326.035</ele>
<time>2019-05-30T10:30:35Z</time>
</trkpt>
<trkpt lat="49.508514" lon="10.405693">
<ele>326.035</ele>
<time>2019-05-30T10:30:36Z</time>
</trkpt>
<trkpt lat="49.508537" lon="10.40567">
<ele>326.035</ele>
<time>2019-05-30T10:30:37Z</time>
</trkpt>
<trkpt lat="49.50856" lon="10.40565">
<ele>326.035</ele>
<time>2019-05-30T10:30:38Z</time>
</trkpt>
<trkpt lat="49.508587" lon="10.405632">
<ele>326.035</ele>
<time>2019-05-30T10:30:39Z</time>
</trkpt>
<trkpt lat="49.508614" lon="10.405605">
<ele>326.035</ele>
<time>2019-05-30T10:30:40Z</time>
</trkpt>
<trkpt lat="49.50864" lon="10.405575">
<ele>326.035</ele>
<time>2019-05-30T10:30:41Z</time>
</trkpt>
<trkpt lat="49.508667" lon="10.405546">
<ele>326.035</ele>
<time>2019-05-30T10:30:42Z</time>
</trkpt>
<trkpt lat="49.50869" lon="10.405519">
<ele>326.035</ele>
<time>2019-05-30T10:30:43Z</time>
</trkpt>
<trkpt lat="49.508717" lon="10.40549">
<ele>326.035</ele>
<time>2019-05-30T10:30:44Z</time>
</trkpt>
<trkpt lat="49.508736" lon="10.405462">
<ele>326.035</ele>
<time>2019-05-30T10:30:45Z</time>
</trkpt>
<trkpt lat="49.508759" lon="10.405437">
<ele>326.035</ele>
<time>2019-05-30T10:30:46Z</time>
</trkpt>
<trkpt lat="49.508781" lon="10.405412">
<ele>326.035</ele>
<time>2019-05-30T10:30:47Z</time>
</trkpt>
<trkpt lat="49.508801" lon="10.40539">
<ele>326.035</ele>
<time>2019-05-30T10:30:48Z</time>
</trkpt>
<trkpt lat="49.508827" lon="10.405366">
<ele>326.035</ele>
<time>2019-05-30T10:30:49Z</time>
</trkpt>
<trkpt lat="49.508854" lon="10.40534">
<ele>326.035</ele>
<time>2019-05-30T10:30:50Z</time>
</trkpt>
<trkpt lat="49.508881" lon="10.405313">
<ele>326.035</ele>
<time>2019-05-30T10:30:51Z</time>
</trkpt>
<trkpt lat="49.508904" lon="10.405287">
<ele>326.035</ele>
<time>2019-05-30T10:30:52Z</time>
</trkpt>
<trkpt lat="49.508926" lon="10.405257">
<ele>326.035</ele>
<time>2019-05-30T10:30:53Z</time>
</trkpt>
<trkpt lat="49.508953" lon="10.405227">
<ele>326.035</ele>
<time>2019-05-30T10:30:54Z</time>
</trkpt>
<trkpt lat="49.50898" lon="10.405196">
<ele>326.035</ele>
<time>2019-05-30T10:30:55Z</time>
</trkpt>
<trkpt lat="49.509007" lon="10.405169">
<ele>326.252</ele>
<time>2019-05-30T10:30:56Z</time>
</trkpt>
<trkpt lat="49.509033" lon="10.405146">
<ele>326.419</ele>
<time>2019-05-30T10:30:57Z</time>
</trkpt>
<trkpt lat="49.50906" lon="10.405119">
<ele>326.533</ele>
<time>2019-05-30T10:30:58Z</time>
</trkpt>
<trkpt lat="49.509087" lon="10.405089">
<ele>326.658</ele>
<time>2019-05-30T10:30:59Z</time>
</trkpt>
<trkpt lat="49.509113" lon="10.405058">
<ele>326.753</ele>
<time>2019-05-30T10:31:00Z</time>
</trkpt>
<trkpt lat="49.50914" lon="10.405028">
<ele>326.82</ele>
<time>2019-05-30T10:31:01Z</time>
</trkpt>
<trkpt lat="49.509174" lon="10.404997">
<ele>326.863</ele>
<time>2019-05-30T10:31:02Z</time>
</trkpt>
<trkpt lat="49.509201" lon="10.404965">
<ele>326.884</ele>
<time>2019-05-30T10:31:03Z</time>
</trkpt>
<trkpt lat="49.509232" lon="10.404932">
<ele>326.884</ele>
<time>2019-05-30T10:31:04Z</time>
</trkpt>
<trkpt lat="49.509258" lon="10.404897">
<ele>326.884</ele>
<time>2019-05-30T10:31:05Z</time>
</trkpt>
<trkpt lat="49.509285" lon="10.404861">
<ele>326.884</ele>
<time>2019-05-30T10:31:06Z</time>
</trkpt>
<trkpt lat="49.509315" lon="10.404828">
<ele>326.884</ele>
<time>2019-05-30T10:31:07Z</time>
</trkpt>
<trkpt lat="49.509342" lon="10.404795">
<ele>326.884</ele>
<time>2019-05-30T10:31:08Z</time>
</trkpt>
<trkpt lat="49.509373" lon="10.404762">
<ele>326.884</ele>
<time>2019-05-30T10:31:09Z</time>
</trkpt>
<trkpt lat="49.509403" lon="10.404729">
<ele>326.884</ele>
<time>2019-05-30T10:31:10Z</time>
</trkpt>
<trkpt lat="49.509434" lon="10.404692">
<ele>326.884</ele>
<time>2019-05-30T10:31:11Z</time>
</trkpt>
<trkpt lat="49.509464" lon="10.404658">
<ele>326.884</ele>
<time>2019-05-30T10:31:12Z</time>
</trkpt>
<trkpt lat="49.509495" lon="10.404625">
<ele>327.14</ele>
<time>2019-05-30T10:31:13Z</time>
</trkpt>
<trkpt lat="49.509529" lon="10.404591">
<ele>327.338</ele>
<time>2019-05-30T10:31:14Z</time>
</trkpt>
<trkpt lat="49.50956" lon="10.404557">
<ele>327.489</ele>
<time>2019-05-30T10:31:15Z</time>
</trkpt>
<trkpt lat="49.509594" lon="10.404522">
<ele>327.602</ele>
<time>2019-05-30T10:31:16Z</time>
</trkpt>
<trkpt lat="49.509628" lon="10.404489">
<ele>327.684</ele>
<time>2019-05-30T10:31:17Z</time>
</trkpt>
<trkpt lat="49.509663" lon="10.404455">
<ele>327.742</ele>
<time>2019-05-30T10:31:18Z</time>
</trkpt>
<trkpt lat="49.509697" lon="10.40442">
<ele>327.793</ele>
<time>2019-05-30T10:31:19Z</time>
</trkpt>
<trkpt lat="49.509731" lon="10.404384">
<ele>327.817</ele>
<time>2019-05-30T10:31:20Z</time>
</trkpt>
<trkpt lat="49.509766" lon="10.404348">
<ele>327.817</ele>
<time>2019-05-30T10:31:21Z</time>
</trkpt>
<trkpt lat="49.509808" lon="10.404314">
<ele>327.817</ele>
<time>2019-05-30T10:31:22Z</time>
</trkpt>
<trkpt lat="49.509842" lon="10.404279">
<ele>327.818</ele>
<time>2019-05-30T10:31:23Z</time>
</trkpt>
<trkpt lat="49.50988" lon="10.404242">
<ele>327.817</ele>
<time>2019-05-30T10:31:24Z</time>
</trkpt>
<trkpt lat="49.509918" lon="10.404205">
<ele>327.576</ele>
<time>2019-05-30T10:31:25Z</time>
</trkpt>
<trkpt lat="49.509956" lon="10.40417">
<ele>327.384</ele>
<time>2019-05-30T10:31:26Z</time>
</trkpt>
<trkpt lat="49.509991" lon="10.404134">
<ele>327.241</ele>
<time>2019-05-30T10:31:27Z</time>
</trkpt>
<trkpt lat="49.510033" lon="10.404099">
<ele>327.141</ele>
<time>2019-05-30T10:31:28Z</time>
</trkpt>
<trkpt lat="49.510071" lon="10.404065">
<ele>327.035</ele>
<time>2019-05-30T10:31:29Z</time>
</trkpt>
<trkpt lat="49.510109" lon="10.404032">
<ele>326.958</ele>
<time>2019-05-30T10:31:30Z</time>
</trkpt>
<trkpt lat="49.510136" lon="10.403992">
<ele>326.909</ele>
<time>2019-05-30T10:31:31Z</time>
</trkpt>
<trkpt lat="49.510162" lon="10.403943">
<ele>326.681</ele>
<time>2019-05-30T10:31:32Z</time>
</trkpt>
<trkpt lat="49.510178" lon="10.403887">
<ele>326.466</ele>
<time>2019-05-30T10:31:33Z</time>
</trkpt>
<trkpt lat="49.510185" lon="10.403822">
<ele>326.326</ele>
<time>2019-05-30T10:31:34Z</time>
</trkpt>
<trkpt lat="49.510185" lon="10.403755">
<ele>326.22</ele>
<time>2019-05-30T10:31:35Z</time>
</trkpt>
<trkpt lat="49.510178" lon="10.403688">
<ele>326.145</ele>
<time>2019-05-30T10:31:36Z</time>
</trkpt>
<trkpt lat="49.510174" lon="10.403622">
<ele>326.098</ele>
<time>2019-05-30T10:31:37Z</time>
</trkpt>
<trkpt lat="49.510178" lon="10.403558">
<ele>326.059</ele>
<time>2019-05-30T10:31:38Z</time>
</trkpt>
<trkpt lat="49.510181" lon="10.403499">
<ele>326.042</ele>
<time>2019-05-30T10:31:39Z</time>
</trkpt>
<trkpt lat="49.510181" lon="10.40344">
<ele>326.287</ele>
<time>2019-05-30T10:31:40Z</time>
</trkpt>
<trkpt lat="49.510185" lon="10.403379">
<ele>326.482</ele>
<time>2019-05-30T10:31:41Z</time>
</trkpt>
<trkpt lat="49.510181" lon="10.403323">
<ele>326.626</ele>
<time>2019-05-30T10:31:42Z</time>
</trkpt>
<trkpt lat="49.510181" lon="10.403267">
<ele>326.735</ele>
<time>2019-05-30T10:31:43Z</time>
</trkpt>
<trkpt lat="49.510178" lon="10.40321">
<ele>326.812</ele>
<time>2019-05-30T10:31:44Z</time>
</trkpt>
<trkpt lat="49.510178" lon="10.403155">
<ele>326.861</ele>
<time>2019-05-30T10:31:45Z</time>
</trkpt>
<trkpt lat="49.510174" lon="10.403101">
<ele>326.884</ele>
<time>2019-05-30T10:31:46Z</time>
</trkpt>
<trkpt lat="49.51017" lon="10.403051">
<ele>327.145</ele>
<time>2019-05-30T10:31:47Z</time>
</trkpt>
<trkpt lat="49.510166" lon="10.402995">
<ele>327.336</ele>
<time>2019-05-30T10:31:48Z</time>
</trkpt>
<trkpt lat="49.510162" lon="10.402937">
<ele>327.532</ele>
<time>2019-05-30T10:31:49Z</time>
</trkpt>
<trkpt lat="49.510159" lon="10.402879">
<ele>327.693</ele>
<time>2019-05-30T10:31:50Z</time>
</trkpt>
<trkpt lat="49.510155" lon="10.402821">
<ele>327.815</ele>
<time>2019-05-30T10:31:51Z</time>
</trkpt>
<trkpt lat="49.510151" lon="10.402763">
<ele>327.904</ele>
<time>2019-05-30T10:31:52Z</time>
</trkpt>
<trkpt lat="49.510151" lon="10.402707">
<ele>327.961</ele>
<time>2019-05-30T10:31:53Z</time>
</trkpt>
<trkpt lat="49.510151" lon="10.402652">
<ele>327.987</ele>
<time>2019-05-30T10:31:54Z</time>
</trkpt>
<trkpt lat="49.510151" lon="10.402595">
<ele>327.987</ele>
<time>2019-05-30T10:31:55Z</time>
</trkpt>
<trkpt lat="49.510147" lon="10.402538">
<ele>327.987</ele>
<time>2019-05-30T10:31:56Z</time>
</trkpt>
<trkpt lat="49.510143" lon="10.402478">
<ele>327.987</ele>
<time>2019-05-30T10:31:57Z</time>
</trkpt>
<trkpt lat="49.510139" lon="10.402413">
<ele>327.987</ele>
<time>2019-05-30T10:31:58Z</time>
</trkpt>
<trkpt lat="49.510132" lon="10.402349">
<ele>327.987</ele>
<time>2019-05-30T10:31:59Z</time>
</trkpt>
<trkpt lat="49.510124" lon="10.402287">
<ele>327.987</ele>
<time>2019-05-30T10:32:00Z</time>
</trkpt>
<trkpt lat="49.51012" lon="10.402231">
<ele>327.987</ele>
<time>2019-05-30T10:32:01Z</time>
</trkpt>
<trkpt lat="49.51012" lon="10.402182">
<ele>327.987</ele>
<time>2019-05-30T10:32:02Z</time>
</trkpt>
<trkpt lat="49.51012" lon="10.402138">
<ele>327.987</ele>
<time>2019-05-30T10:32:03Z</time>
</trkpt>
<trkpt lat="49.51012" lon="10.402097">
<ele>327.987</ele>
<time>2019-05-30T10:32:04Z</time>
</trkpt>
<trkpt lat="49.510113" lon="10.402056">
<ele>327.987</ele>
<time>2019-05-30T10:32:05Z</time>
</trkpt>
<trkpt lat="49.510109" lon="10.402001">
<ele>327.987</ele>
<time>2019-05-30T10:32:06Z</time>
</trkpt>
<trkpt lat="49.510101" lon="10.401947">
<ele>327.987</ele>
<time>2019-05-30T10:32:07Z</time>
</trkpt>
<trkpt lat="49.510094" lon="10.401898">
<ele>328.209</ele>
<time>2019-05-30T10:32:08Z</time>
</trkpt>
<trkpt lat="49.510086" lon="10.401847">
<ele>328.432</ele>
<time>2019-05-30T10:32:09Z</time>
</trkpt>
<trkpt lat="49.510082" lon="10.401795">
<ele>328.618</ele>
<time>2019-05-30T10:32:10Z</time>
</trkpt>
<trkpt lat="49.510075" lon="10.401747">
<ele>328.765</ele>
<time>2019-05-30T10:32:11Z</time>
</trkpt>
<trkpt lat="49.510075" lon="10.401693">
<ele>328.868</ele>
<time>2019-05-30T10:32:12Z</time>
</trkpt>
<trkpt lat="49.510071" lon="10.401628">
<ele>328.939</ele>
<time>2019-05-30T10:32:13Z</time>
</trkpt>
<trkpt lat="49.510075" lon="10.401573">
<ele>328.981</ele>
<time>2019-05-30T10:32:14Z</time>
</trkpt>
<trkpt lat="49.510075" lon="10.401511">
<ele>329.006</ele>
<time>2019-05-30T10:32:15Z</time>
</trkpt>
<trkpt lat="49.510075" lon="10.401446">
<ele>329.006</ele>
<time>2019-05-30T10:32:16Z</time>
</trkpt>
<trkpt lat="49.510078" lon="10.401379">
<ele>329.006</ele>
<time>2019-05-30T10:32:17Z</time>
</trkpt>
<trkpt lat="49.510078" lon="10.401317">
<ele>329.006</ele>
<time>2019-05-30T10:32:18Z</time>
</trkpt>
<trkpt lat="49.510086" lon="10.401258">
<ele>329.006</ele>
<time>2019-05-30T10:32:19Z</time>
</trkpt>
<trkpt lat="49.51009" lon="10.401207">
<ele>329.006</ele>
<time>2019-05-30T10:32:20Z</time>
</trkpt>
<trkpt lat="49.510098" lon="10.401153">
<ele>329.006</ele>
<time>2019-05-30T10:32:21Z</time>
</trkpt>
<trkpt lat="49.510101" lon="10.401094">
<ele>329.006</ele>
<time>2019-05-30T10:32:22Z</time>
</trkpt>
<trkpt lat="49.510109" lon="10.40104">
<ele>329.006</ele>
<time>2019-05-30T10:32:23Z</time>
</trkpt>
<trkpt lat="49.510113" lon="10.400991">
<ele>329.006</ele>
<time>2019-05-30T10:32:24Z</time>
</trkpt>
<trkpt lat="49.51012" lon="10.400942">
<ele>329.006</ele>
<time>2019-05-30T10:32:25Z</time>
</trkpt>
<trkpt lat="49.510124" lon="10.400888">
<ele>328.778</ele>
<time>2019-05-30T10:32:26Z</time>
</trkpt>
<trkpt lat="49.510132" lon="10.400839">
<ele>328.595</ele>
<time>2019-05-30T10:32:27Z</time>
</trkpt>
<trkpt lat="49.510143" lon="10.400777">
<ele>328.465</ele>
<time>2019-05-30T10:32:28Z</time>
</trkpt>
<trkpt lat="49.510159" lon="10.400712">
<ele>328.327</ele>
<time>2019-05-30T10:32:29Z</time>
</trkpt>
<trkpt lat="49.51017" lon="10.400655">
<ele>328.221</ele>
<time>2019-05-30T10:32:30Z</time>
</trkpt>
<trkpt lat="49.510181" lon="10.400597">
<ele>328.148</ele>
<time>2019-05-30T10:32:31Z</time>
</trkpt>
<trkpt lat="49.510197" lon="10.40054">
<ele>327.855</ele>
<time>2019-05-30T10:32:32Z</time>
</trkpt>
<trkpt lat="49.51022" lon="10.400487">
<ele>327.64</ele>
<time>2019-05-30T10:32:33Z</time>
</trkpt>
<trkpt lat="49.510242" lon="10.400438">
<ele>327.445</ele>
<time>2019-05-30T10:32:34Z</time>
</trkpt>
<trkpt lat="49.510262" lon="10.400388">
<ele>327.332</ele>
<time>2019-05-30T10:32:35Z</time>
</trkpt>
<trkpt lat="49.510288" lon="10.40034">
<ele>327.264</ele>
<time>2019-05-30T10:32:36Z</time>
</trkpt>
<trkpt lat="49.510315" lon="10.40029">
<ele>327.209</ele>
<time>2019-05-30T10:32:37Z</time>
</trkpt>
<trkpt lat="49.510345" lon="10.400235">
<ele>327.164</ele>
<time>2019-05-30T10:32:38Z</time>
</trkpt>
<trkpt lat="49.510376" lon="10.400182">
<ele>327.138</ele>
<time>2019-05-30T10:32:39Z</time>
</trkpt>
<trkpt lat="49.510403" lon="10.400124">
<ele>327.138</ele>
<time>2019-05-30T10:32:40Z</time>
</trkpt>
<trkpt lat="49.510429" lon="10.400067">
<ele>327.138</ele>
<time>2019-05-30T10:32:41Z</time>
</trkpt>
<trkpt lat="49.510456" lon="10.400011">
<ele>327.138</ele>
<time>2019-05-30T10:32:42Z</time>
</trkpt>
<trkpt lat="49.510479" lon="10.399957">
<ele>327.138</ele>
<time>2019-05-30T10:32:43Z</time>
</trkpt>
<trkpt lat="49.510506" lon="10.399906">
<ele>327.138</ele>
<time>2019-05-30T10:32:44Z</time>
</trkpt>
<trkpt lat="49.510529" lon="10.39986">
<ele>327.138</ele>
<time>2019-05-30T10:32:45Z</time>
</trkpt>
<trkpt lat="49.510548" lon="10.399812">
<ele>327.138</ele>
<time>2019-05-30T10:32:46Z</time>
</trkpt>
<trkpt lat="49.510574" lon="10.399761">
<ele>327.138</ele>
<time>2019-05-30T10:32:47Z</time>
</trkpt>
<trkpt lat="49.510593" lon="10.399714">
<ele>327.138</ele>
<time>2019-05-30T10:32:48Z</time>
</trkpt>
<trkpt lat="49.510616" lon="10.399667">
<ele>327.338</ele>
<time>2019-05-30T10:32:49Z</time>
</trkpt>
<trkpt lat="49.510643" lon="10.399623">
<ele>327.509</ele>
<time>2019-05-30T10:32:50Z</time>
</trkpt>
<trkpt lat="49.510658" lon="10.39958">
<ele>327.652</ele>
<time>2019-05-30T10:32:51Z</time>
</trkpt>
<trkpt lat="49.510677" lon="10.399537">
<ele>327.77</ele>
<time>2019-05-30T10:32:52Z</time>
</trkpt>
<trkpt lat="49.510696" lon="10.399491">
<ele>327.859</ele>
<time>2019-05-30T10:32:53Z</time>
</trkpt>
<trkpt lat="49.510708" lon="10.39944">
<ele>327.925</ele>
<time>2019-05-30T10:32:54Z</time>
</trkpt>
<trkpt lat="49.510719" lon="10.399382">
<ele>327.966</ele>
<time>2019-05-30T10:32:55Z</time>
</trkpt>
<trkpt lat="49.510727" lon="10.399317">
<ele>327.987</ele>
<time>2019-05-30T10:32:56Z</time>
</trkpt>
<trkpt lat="49.510723" lon="10.399253">
<ele>327.987</ele>
<time>2019-05-30T10:32:57Z</time>
</trkpt>
<trkpt lat="49.510708" lon="10.39919">
<ele>327.987</ele>
<time>2019-05-30T10:32:58Z</time>
</trkpt>
<trkpt lat="49.5107" lon="10.399129">
<ele>327.987</ele>
<time>2019-05-30T10:32:59Z</time>
</trkpt>
<trkpt lat="49.510689" lon="10.399074">
<ele>327.987</ele>
<time>2019-05-30T10:33:00Z</time>
</trkpt>
<trkpt lat="49.510677" lon="10.399022">
<ele>327.987</ele>
<time>2019-05-30T10:33:01Z</time>
</trkpt>
<trkpt lat="49.51067" lon="10.398973">
<ele>328.243</ele>
<time>2019-05-30T10:33:02Z</time>
</trkpt>
<trkpt lat="49.510662" lon="10.398927">
<ele>328.437</ele>
<time>2019-05-30T10:33:03Z</time>
</trkpt>
<trkpt lat="49.510651" lon="10.398884">
<ele>328.563</ele>
<time>2019-05-30T10:33:04Z</time>
</trkpt>
<trkpt lat="49.510643" lon="10.398845">
<ele>328.927</ele>
<time>2019-05-30T10:33:05Z</time>
</trkpt>
<trkpt lat="49.510628" lon="10.39881">
<ele>329.179</ele>
<time>2019-05-30T10:33:06Z</time>
</trkpt>
<trkpt lat="49.510612" lon="10.398775">
<ele>329.544</ele>
<time>2019-05-30T10:33:07Z</time>
</trkpt>
<trkpt lat="49.510597" lon="10.398739">
<ele>329.663</ele>
<time>2019-05-30T10:33:08Z</time>
</trkpt>
<trkpt lat="49.510586" lon="10.398699">
<ele>329.891</ele>
<time>2019-05-30T10:33:09Z</time>
</trkpt>
<trkpt lat="49.510574" lon="10.398662">
<ele>330.341</ele>
<time>2019-05-30T10:33:10Z</time>
</trkpt>
<trkpt lat="49.510559" lon="10.398628">
<ele>330.707</ele>
<time>2019-05-30T10:33:11Z</time>
</trkpt>
<trkpt lat="49.510544" lon="10.398593">
<ele>330.991</ele>
<time>2019-05-30T10:33:12Z</time>
</trkpt>
<trkpt lat="49.510532" lon="10.398559">
<ele>331.369</ele>
<time>2019-05-30T10:33:13Z</time>
</trkpt>
<trkpt lat="49.510517" lon="10.398523">
<ele>331.475</ele>
<time>2019-05-30T10:33:14Z</time>
</trkpt>
<trkpt lat="49.510506" lon="10.39849">
<ele>331.515</ele>
<time>2019-05-30T10:33:15Z</time>
</trkpt>
<trkpt lat="49.51049" lon="10.398446">
<ele>331.775</ele>
<time>2019-05-30T10:33:16Z</time>
</trkpt>
<trkpt lat="49.510479" lon="10.398408">
<ele>331.971</ele>
<time>2019-05-30T10:33:17Z</time>
</trkpt>
<trkpt lat="49.510475" lon="10.398372">
<ele>332.102</ele>
<time>2019-05-30T10:33:18Z</time>
</trkpt>
<trkpt lat="49.51046" lon="10.398338">
<ele>332.234</ele>
<time>2019-05-30T10:33:19Z</time>
</trkpt>
<trkpt lat="49.510445" lon="10.398307">
<ele>332.543</ele>
<time>2019-05-30T10:33:20Z</time>
</trkpt>
<trkpt lat="49.510437" lon="10.398272">
<ele>332.788</ele>
<time>2019-05-30T10:33:21Z</time>
</trkpt>
<trkpt lat="49.510429" lon="10.398236">
<ele>332.977</ele>
<time>2019-05-30T10:33:22Z</time>
</trkpt>
<trkpt lat="49.510418" lon="10.398194">
<ele>333.092</ele>
<time>2019-05-30T10:33:23Z</time>
</trkpt>
<trkpt lat="49.510414" lon="10.398153">
<ele>333.511</ele>
<time>2019-05-30T10:33:24Z</time>
</trkpt>
<trkpt lat="49.510399" lon="10.39811">
<ele>333.802</ele>
<time>2019-05-30T10:33:25Z</time>
</trkpt>
<trkpt lat="49.510384" lon="10.398068">
<ele>333.979</ele>
<time>2019-05-30T10:33:26Z</time>
</trkpt>
<trkpt lat="49.510372" lon="10.398028">
<ele>334.114</ele>
<time>2019-05-30T10:33:27Z</time>
</trkpt>
<trkpt lat="49.510361" lon="10.397988">
<ele>334.195</ele>
<time>2019-05-30T10:33:28Z</time>
</trkpt>
<trkpt lat="49.510349" lon="10.397945">
<ele>334.514</ele>
<time>2019-05-30T10:33:29Z</time>
</trkpt>
<trkpt lat="49.510342" lon="10.397903">
<ele>334.758</ele>
<time>2019-05-30T10:33:30Z</time>
</trkpt>
<trkpt lat="49.510334" lon="10.397865">
<ele>334.929</ele>
<time>2019-05-30T10:33:31Z</time>
</trkpt>
<trkpt lat="49.510326" lon="10.397826">
<ele>335.052</ele>
<time>2019-05-30T10:33:32Z</time>
</trkpt>
<trkpt lat="49.510315" lon="10.397785">
<ele>335.128</ele>
<time>2019-05-30T10:33:33Z</time>
</trkpt>
<trkpt lat="49.510315" lon="10.397746">
<ele>335.452</ele>
<time>2019-05-30T10:33:34Z</time>
</trkpt>
<trkpt lat="49.510315" lon="10.397706">
<ele>335.711</ele>
<time>2019-05-30T10:33:35Z</time>
</trkpt>
<trkpt lat="49.510315" lon="10.397662">
<ele>335.908</ele>
<time>2019-05-30T10:33:36Z</time>
</trkpt>
<trkpt lat="49.510315" lon="10.397616">
<ele>336.047</ele>
<time>2019-05-30T10:33:37Z</time>
</trkpt>
<trkpt lat="49.510315" lon="10.397574">
<ele>336.136</ele>
<time>2019-05-30T10:33:38Z</time>
</trkpt>
<trkpt lat="49.510315" lon="10.397532">
<ele>336.228</ele>
<time>2019-05-30T10:33:39Z</time>
</trkpt>
<trkpt lat="49.510315" lon="10.397492">
<ele>336.283</ele>
<time>2019-05-30T10:33:40Z</time>
</trkpt>
<trkpt lat="49.510315" lon="10.397453">
<ele>336.309</ele>
<time>2019-05-30T10:33:41Z</time>
</trkpt>
<trkpt lat="49.510315" lon="10.397419">
<ele>336.308</ele>
<time>2019-05-30T10:33:42Z</time>
</trkpt>
<trkpt lat="49.510315" lon="10.39738">
<ele>336.308</ele>
<time>2019-05-30T10:33:43Z</time>
</trkpt>
<trkpt lat="49.510315" lon="10.39734">
<ele>336.309</ele>
<time>2019-05-30T10:33:44Z</time>
</trkpt>
<trkpt lat="49.510315" lon="10.397291">
<ele>336.309</ele>
<time>2019-05-30T10:33:45Z</time>
</trkpt>
<trkpt lat="49.510315" lon="10.397243">
<ele>336.308</ele>
<time>2019-05-30T10:33:46Z</time>
</trkpt>
<trkpt lat="49.510319" lon="10.397199">
<ele>336.544</ele>
<time>2019-05-30T10:33:47Z</time>
</trkpt>
<trkpt lat="49.510319" lon="10.397155">
<ele>336.713</ele>
<time>2019-05-30T10:33:48Z</time>
</trkpt>
<trkpt lat="49.510319" lon="10.397105">
<ele>336.885</ele>
<time>2019-05-30T10:33:49Z</time>
</trkpt>
<trkpt lat="49.510315" lon="10.397057">
<ele>337.018</ele>
<time>2019-05-30T10:33:50Z</time>
</trkpt>
<trkpt lat="49.510315" lon="10.397">
<ele>337.111</ele>
<time>2019-05-30T10:33:51Z</time>
</trkpt>
<trkpt lat="49.510315" lon="10.396948">
<ele>337.178</ele>
<time>2019-05-30T10:33:52Z</time>
</trkpt>
<trkpt lat="49.510315" lon="10.396895">
<ele>337.22</ele>
<time>2019-05-30T10:33:53Z</time>
</trkpt>
<trkpt lat="49.510315" lon="10.396841">
<ele>337.243</ele>
<time>2019-05-30T10:33:54Z</time>
</trkpt>
<trkpt lat="49.510315" lon="10.396791">
<ele>337.243</ele>
<time>2019-05-30T10:33:55Z</time>
</trkpt>
<trkpt lat="49.510315" lon="10.396743">
<ele>337.243</ele>
<time>2019-05-30T10:33:56Z</time>
</trkpt>
<trkpt lat="49.510315" lon="10.396684">
<ele>337.243</ele>
<time>2019-05-30T10:33:57Z</time>
</trkpt>
<trkpt lat="49.510315" lon="10.396631">
<ele>337.243</ele>
<time>2019-05-30T10:33:58Z</time>
</trkpt>
<trkpt lat="49.510319" lon="10.396582">
<ele>337.243</ele>
<time>2019-05-30T10:33:59Z</time>
</trkpt>
<trkpt lat="49.510323" lon="10.396526">
<ele>337.525</ele>
<time>2019-05-30T10:34:00Z</time>
</trkpt>
<trkpt lat="49.510319" lon="10.396472">
<ele>337.499</ele>
<time>2019-05-30T10:34:01Z</time>
</trkpt>
<trkpt lat="49.510323" lon="10.396416">
<ele>337.674</ele>
<time>2019-05-30T10:34:02Z</time>
</trkpt>
<trkpt lat="49.510319" lon="10.396353">
<ele>337.877</ele>
<time>2019-05-30T10:34:03Z</time>
</trkpt>
<trkpt lat="49.510319" lon="10.396295">
<ele>338.264</ele>
<time>2019-05-30T10:34:04Z</time>
</trkpt>
<trkpt lat="49.510326" lon="10.396237">
<ele>338.548</ele>
<time>2019-05-30T10:34:05Z</time>
</trkpt>
<trkpt lat="49.510326" lon="10.396176">
<ele>338.758</ele>
<time>2019-05-30T10:34:06Z</time>
</trkpt>
<trkpt lat="49.510326" lon="10.396122">
<ele>338.883</ele>
<time>2019-05-30T10:34:07Z</time>
</trkpt>
<trkpt lat="49.510326" lon="10.396064">
<ele>338.615</ele>
<time>2019-05-30T10:34:08Z</time>
</trkpt>
<trkpt lat="49.510326" lon="10.396011">
<ele>338.659</ele>
<time>2019-05-30T10:34:09Z</time>
</trkpt>
<trkpt lat="49.510326" lon="10.395962">
<ele>338.786</ele>
<time>2019-05-30T10:34:10Z</time>
</trkpt>
<trkpt lat="49.510326" lon="10.395913">
<ele>339.396</ele>
<time>2019-05-30T10:34:11Z</time>
</trkpt>
<trkpt lat="49.510323" lon="10.395866">
<ele>339.627</ele>
<time>2019-05-30T10:34:12Z</time>
</trkpt>
<trkpt lat="49.510319" lon="10.395822">
<ele>339.804</ele>
<time>2019-05-30T10:34:13Z</time>
</trkpt>
<trkpt lat="49.510319" lon="10.395782">
<ele>339.93</ele>
<time>2019-05-30T10:34:14Z</time>
</trkpt>
<trkpt lat="49.510315" lon="10.395741">
<ele>340.03</ele>
<time>2019-05-30T10:34:15Z</time>
</trkpt>
<trkpt lat="49.510315" lon="10.395703">
<ele>340.086</ele>
<time>2019-05-30T10:34:16Z</time>
</trkpt>
<trkpt lat="49.510315" lon="10.395665">
<ele>340.325</ele>
<time>2019-05-30T10:34:17Z</time>
</trkpt>
<trkpt lat="49.510315" lon="10.395626">
<ele>340.508</ele>
<time>2019-05-30T10:34:18Z</time>
</trkpt>
<trkpt lat="49.510315" lon="10.395585">
<ele>340.687</ele>
<time>2019-05-30T10:34:19Z</time>
</trkpt>
<trkpt lat="49.510315" lon="10.395545">
<ele>340.808</ele>
<time>2019-05-30T10:34:20Z</time>
</trkpt>
<trkpt lat="49.510315" lon="10.395503">
<ele>340.904</ele>
<time>2019-05-30T10:34:21Z</time>
</trkpt>
<trkpt lat="49.510319" lon="10.395458">
<ele>341.243</ele>
<time>2019-05-30T10:34:22Z</time>
</trkpt>
<trkpt lat="49.510323" lon="10.395413">
<ele>341.508</ele>
<time>2019-05-30T10:34:23Z</time>
</trkpt>
<trkpt lat="49.510326" lon="10.395367">
<ele>341.708</ele>
<time>2019-05-30T10:34:24Z</time>
</trkpt>
<trkpt lat="49.510334" lon="10.39532">
<ele>341.882</ele>
<time>2019-05-30T10:34:25Z</time>
</trkpt>
<trkpt lat="49.510338" lon="10.395273">
<ele>341.947</ele>
<time>2019-05-30T10:34:26Z</time>
</trkpt>
<trkpt lat="49.510342" lon="10.395226">
<ele>342.244</ele>
<time>2019-05-30T10:34:27Z</time>
</trkpt>
<trkpt lat="49.510349" lon="10.395177">
<ele>342.46</ele>
<time>2019-05-30T10:34:28Z</time>
</trkpt>
<trkpt lat="49.510349" lon="10.395128">
<ele>342.651</ele>
<time>2019-05-30T10:34:29Z</time>
</trkpt>
<trkpt lat="49.510349" lon="10.395082">
<ele>342.78</ele>
<time>2019-05-30T10:34:30Z</time>
</trkpt>
<trkpt lat="49.510353" lon="10.395033">
<ele>342.88</ele>
<time>2019-05-30T10:34:31Z</time>
</trkpt>
<trkpt lat="49.510357" lon="10.394985">
<ele>342.952</ele>
<time>2019-05-30T10:34:32Z</time>
</trkpt>
<trkpt lat="49.510365" lon="10.394935">
<ele>342.999</ele>
<time>2019-05-30T10:34:33Z</time>
</trkpt>
<trkpt lat="49.510368" lon="10.394882">
<ele>343.021</ele>
<time>2019-05-30T10:34:34Z</time>
</trkpt>
<trkpt lat="49.510372" lon="10.394832">
<ele>343.243</ele>
<time>2019-05-30T10:34:35Z</time>
</trkpt>
<trkpt lat="49.510376" lon="10.394783">
<ele>343.416</ele>
<time>2019-05-30T10:34:36Z</time>
</trkpt>
<trkpt lat="49.51038" lon="10.394735">
<ele>343.549</ele>
<time>2019-05-30T10:34:37Z</time>
</trkpt>
<trkpt lat="49.51038" lon="10.394685">
<ele>343.64</ele>
<time>2019-05-30T10:34:38Z</time>
</trkpt>
<trkpt lat="49.510384" lon="10.394631">
<ele>343.736</ele>
<time>2019-05-30T10:34:39Z</time>
</trkpt>
<trkpt lat="49.510391" lon="10.394578">
<ele>343.806</ele>
<time>2019-05-30T10:34:40Z</time>
</trkpt>
<trkpt lat="49.510399" lon="10.394528">
<ele>343.85</ele>
<time>2019-05-30T10:34:41Z</time>
</trkpt>
<trkpt lat="49.510406" lon="10.394475">
<ele>343.871</ele>
<time>2019-05-30T10:34:42Z</time>
</trkpt>
<trkpt lat="49.51041" lon="10.394422">
<ele>343.871</ele>
<time>2019-05-30T10:34:43Z</time>
</trkpt>
<trkpt lat="49.510414" lon="10.39437">
<ele>343.871</ele>
<time>2019-05-30T10:34:44Z</time>
</trkpt>
<trkpt lat="49.510414" lon="10.394321">
<ele>343.871</ele>
<time>2019-05-30T10:34:45Z</time>
</trkpt>
<trkpt lat="49.510418" lon="10.394272">
<ele>343.871</ele>
<time>2019-05-30T10:34:46Z</time>
</trkpt>
<trkpt lat="49.510422" lon="10.394222">
<ele>343.871</ele>
<time>2019-05-30T10:34:47Z</time>
</trkpt>
<trkpt lat="49.510426" lon="10.39417">
<ele>343.871</ele>
<time>2019-05-30T10:34:48Z</time>
</trkpt>
<trkpt lat="49.510429" lon="10.394118">
<ele>343.871</ele>
<time>2019-05-30T10:34:49Z</time>
</trkpt>
<trkpt lat="49.510437" lon="10.394067">
<ele>343.871</ele>
<time>2019-05-30T10:34:50Z</time>
</trkpt>
<trkpt lat="49.510441" lon="10.394012">
<ele>343.871</ele>
<time>2019-05-30T10:34:51Z</time>
</trkpt>
<trkpt lat="49.510445" lon="10.393958">
<ele>343.871</ele>
<time>2019-05-30T10:34:52Z</time>
</trkpt>
<trkpt lat="49.510448" lon="10.393904">
<ele>343.871</ele>
<time>2019-05-30T10:34:53Z</time>
</trkpt>
<trkpt lat="49.510452" lon="10.393849">
<ele>343.871</ele>
<time>2019-05-30T10:34:54Z</time>
</trkpt>
<trkpt lat="49.510456" lon="10.3938">
<ele>344.114</ele>
<time>2019-05-30T10:34:55Z</time>
</trkpt>
<trkpt lat="49.510456" lon="10.393748">
<ele>344.299</ele>
<time>2019-05-30T10:34:56Z</time>
</trkpt>
<trkpt lat="49.51046" lon="10.393695">
<ele>344.447</ele>
<time>2019-05-30T10:34:57Z</time>
</trkpt>
<trkpt lat="49.510464" lon="10.393641">
<ele>344.546</ele>
<time>2019-05-30T10:34:58Z</time>
</trkpt>
<trkpt lat="49.510464" lon="10.393587">
<ele>344.652</ele>
<time>2019-05-30T10:34:59Z</time>
</trkpt>
<trkpt lat="49.51046" lon="10.393535">
<ele>344.731</ele>
<time>2019-05-30T10:35:00Z</time>
</trkpt>
<trkpt lat="49.510456" lon="10.393483">
<ele>344.781</ele>
<time>2019-05-30T10:35:01Z</time>
</trkpt>
<trkpt lat="49.510448" lon="10.393432">
<ele>344.806</ele>
<time>2019-05-30T10:35:02Z</time>
</trkpt>
<trkpt lat="49.510448" lon="10.393375">
<ele>344.806</ele>
<time>2019-05-30T10:35:03Z</time>
</trkpt>
<trkpt lat="49.510448" lon="10.393317">
<ele>344.806</ele>
<time>2019-05-30T10:35:04Z</time>
</trkpt>
<trkpt lat="49.510445" lon="10.393256">
<ele>344.806</ele>
<time>2019-05-30T10:35:05Z</time>
</trkpt>
<trkpt lat="49.510445" lon="10.3932">
<ele>344.806</ele>
<time>2019-05-30T10:35:06Z</time>
</trkpt>
<trkpt lat="49.510437" lon="10.393146">
<ele>344.806</ele>
<time>2019-05-30T10:35:07Z</time>
</trkpt>
<trkpt lat="49.510426" lon="10.393091">
<ele>344.807</ele>
<time>2019-05-30T10:35:08Z</time>
</trkpt>
<trkpt lat="49.510414" lon="10.393041">
<ele>344.806</ele>
<time>2019-05-30T10:35:09Z</time>
</trkpt>
<trkpt lat="49.510414" lon="10.392983">
<ele>344.806</ele>
<time>2019-05-30T10:35:10Z</time>
</trkpt>
<trkpt lat="49.510406" lon="10.39293">
<ele>344.806</ele>
<time>2019-05-30T10:35:11Z</time>
</trkpt>
<trkpt lat="49.510391" lon="10.392879">
<ele>344.806</ele>
<time>2019-05-30T10:35:12Z</time>
</trkpt>
<trkpt lat="49.51038" lon="10.392829">
<ele>344.806</ele>
<time>2019-05-30T10:35:13Z</time>
</trkpt>
<trkpt lat="49.510372" lon="10.392775">
<ele>344.806</ele>
<time>2019-05-30T10:35:14Z</time>
</trkpt>
<trkpt lat="49.510365" lon="10.392722">
<ele>344.806</ele>
<time>2019-05-30T10:35:15Z</time>
</trkpt>
<trkpt lat="49.510357" lon="10.392668">
<ele>345.038</ele>
<time>2019-05-30T10:35:16Z</time>
</trkpt>
<trkpt lat="49.510349" lon="10.392613">
<ele>345.225</ele>
<time>2019-05-30T10:35:17Z</time>
</trkpt>
<trkpt lat="49.510338" lon="10.392556">
<ele>345.351</ele>
<time>2019-05-30T10:35:18Z</time>
</trkpt>
<trkpt lat="49.510326" lon="10.3925">
<ele>345.492</ele>
<time>2019-05-30T10:35:19Z</time>
</trkpt>
<trkpt lat="49.510315" lon="10.392447">
<ele>345.597</ele>
<time>2019-05-30T10:35:20Z</time>
</trkpt>
<trkpt lat="49.5103" lon="10.39239">
<ele>345.671</ele>
<time>2019-05-30T10:35:21Z</time>
</trkpt>
<trkpt lat="49.510292" lon="10.392333">
<ele>345.719</ele>
<time>2019-05-30T10:35:22Z</time>
</trkpt>
<trkpt lat="49.510284" lon="10.392276">
<ele>345.742</ele>
<time>2019-05-30T10:35:23Z</time>
</trkpt>
<trkpt lat="49.510273" lon="10.392217">
<ele>345.742</ele>
<time>2019-05-30T10:35:24Z</time>
</trkpt>
<trkpt lat="49.510265" lon="10.392159">
<ele>345.742</ele>
<time>2019-05-30T10:35:25Z</time>
</trkpt>
<trkpt lat="49.510258" lon="10.3921">
<ele>345.742</ele>
<time>2019-05-30T10:35:26Z</time>
</trkpt>
<trkpt lat="49.51025" lon="10.392041">
<ele>345.742</ele>
<time>2019-05-30T10:35:27Z</time>
</trkpt>
<trkpt lat="49.510246" lon="10.391978">
<ele>345.742</ele>
<time>2019-05-30T10:35:28Z</time>
</trkpt>
<trkpt lat="49.510239" lon="10.391917">
<ele>345.742</ele>
<time>2019-05-30T10:35:29Z</time>
</trkpt>
<trkpt lat="49.510231" lon="10.391853">
<ele>345.742</ele>
<time>2019-05-30T10:35:30Z</time>
</trkpt>
<trkpt lat="49.510223" lon="10.391787">
<ele>345.742</ele>
<time>2019-05-30T10:35:31Z</time>
</trkpt>
<trkpt lat="49.510216" lon="10.391722">
<ele>345.742</ele>
<time>2019-05-30T10:35:32Z</time>
</trkpt>
<trkpt lat="49.510216" lon="10.391653">
<ele>345.742</ele>
<time>2019-05-30T10:35:33Z</time>
</trkpt>
<trkpt lat="49.510212" lon="10.39158">
<ele>345.742</ele>
<time>2019-05-30T10:35:34Z</time>
</trkpt>
<trkpt lat="49.510204" lon="10.391507">
<ele>345.742</ele>
<time>2019-05-30T10:35:35Z</time>
</trkpt>
<trkpt lat="49.510201" lon="10.391432">
<ele>345.742</ele>
<time>2019-05-30T10:35:36Z</time>
</trkpt>
<trkpt lat="49.510193" lon="10.391355">
<ele>345.742</ele>
<time>2019-05-30T10:35:37Z</time>
</trkpt>
<trkpt lat="49.510185" lon="10.39128">
<ele>345.741</ele>
<time>2019-05-30T10:35:38Z</time>
</trkpt>
<trkpt lat="49.510181" lon="10.391203">
<ele>345.742</ele>
<time>2019-05-30T10:35:39Z</time>
</trkpt>
<trkpt lat="49.510178" lon="10.391127">
<ele>345.742</ele>
<time>2019-05-30T10:35:40Z</time>
</trkpt>
<trkpt lat="49.510174" lon="10.391047">
<ele>345.415</ele>
<time>2019-05-30T10:35:41Z</time>
</trkpt>
<trkpt lat="49.510166" lon="10.390968">
<ele>345.166</ele>
<time>2019-05-30T10:35:42Z</time>
</trkpt>
<trkpt lat="49.510162" lon="10.39089">
<ele>344.983</ele>
<time>2019-05-30T10:35:43Z</time>
</trkpt>
<trkpt lat="49.510159" lon="10.390815">
<ele>344.843</ele>
<time>2019-05-30T10:35:44Z</time>
</trkpt>
<trkpt lat="49.510151" lon="10.390743">
<ele>344.749</ele>
<time>2019-05-30T10:35:45Z</time>
</trkpt>
<trkpt lat="49.510147" lon="10.390674">
<ele>344.694</ele>
<time>2019-05-30T10:35:46Z</time>
</trkpt>
<trkpt lat="49.510139" lon="10.390605">
<ele>344.662</ele>
<time>2019-05-30T10:35:47Z</time>
</trkpt>
<trkpt lat="49.510128" lon="10.390536">
<ele>344.636</ele>
<time>2019-05-30T10:35:48Z</time>
</trkpt>
<trkpt lat="49.510124" lon="10.390466">
<ele>344.636</ele>
<time>2019-05-30T10:35:49Z</time>
</trkpt>
<trkpt lat="49.51012" lon="10.390393">
<ele>344.636</ele>
<time>2019-05-30T10:35:50Z</time>
</trkpt>
<trkpt lat="49.510117" lon="10.390324">
<ele>344.636</ele>
<time>2019-05-30T10:35:51Z</time>
</trkpt>
<trkpt lat="49.510113" lon="10.390255">
<ele>344.636</ele>
<time>2019-05-30T10:35:52Z</time>
</trkpt>
<trkpt lat="49.510109" lon="10.390188">
<ele>344.636</ele>
<time>2019-05-30T10:35:53Z</time>
</trkpt>
<trkpt lat="49.510105" lon="10.39012">
<ele>344.636</ele>
<time>2019-05-30T10:35:54Z</time>
</trkpt>
<trkpt lat="49.510098" lon="10.390053">
<ele>344.636</ele>
<time>2019-05-30T10:35:55Z</time>
</trkpt>
<trkpt lat="49.510098" lon="10.389986">
<ele>344.636</ele>
<time>2019-05-30T10:35:56Z</time>
</trkpt>
<trkpt lat="49.51009" lon="10.389918">
<ele>344.636</ele>
<time>2019-05-30T10:35:57Z</time>
</trkpt>
<trkpt lat="49.510086" lon="10.38985">
<ele>344.636</ele>
<time>2019-05-30T10:35:58Z</time>
</trkpt>
<trkpt lat="49.510086" lon="10.389782">
<ele>344.636</ele>
<time>2019-05-30T10:35:59Z</time>
</trkpt>
<trkpt lat="49.510082" lon="10.389717">
<ele>344.914</ele>
<time>2019-05-30T10:36:00Z</time>
</trkpt>
<trkpt lat="49.510078" lon="10.38965">
<ele>345.13</ele>
<time>2019-05-30T10:36:01Z</time>
</trkpt>
<trkpt lat="49.510071" lon="10.389584">
<ele>345.1</ele>
<time>2019-05-30T10:36:02Z</time>
</trkpt>
<trkpt lat="49.510063" lon="10.389517">
<ele>344.99</ele>
<time>2019-05-30T10:36:03Z</time>
</trkpt>
<trkpt lat="49.510056" lon="10.38945">
<ele>344.895</ele>
<time>2019-05-30T10:36:04Z</time>
</trkpt>
<trkpt lat="49.510056" lon="10.389385">
<ele>344.813</ele>
<time>2019-05-30T10:36:05Z</time>
</trkpt>
<trkpt lat="49.510048" lon="10.389318">
<ele>344.741</ele>
<time>2019-05-30T10:36:06Z</time>
</trkpt>
<trkpt lat="49.51004" lon="10.389253">
<ele>344.887</ele>
<time>2019-05-30T10:36:07Z</time>
</trkpt>
<trkpt lat="49.510036" lon="10.389188">
<ele>345.002</ele>
<time>2019-05-30T10:36:08Z</time>
</trkpt>
<trkpt lat="49.510029" lon="10.389123">
<ele>345.096</ele>
<time>2019-05-30T10:36:09Z</time>
</trkpt>
<trkpt lat="49.510025" lon="10.389058">
<ele>345.187</ele>
<time>2019-05-30T10:36:10Z</time>
</trkpt>
<trkpt lat="49.510021" lon="10.388991">
<ele>345.245</ele>
<time>2019-05-30T10:36:11Z</time>
</trkpt>
<trkpt lat="49.510014" lon="10.388926">
<ele>345.346</ele>
<time>2019-05-30T10:36:12Z</time>
</trkpt>
<trkpt lat="49.510006" lon="10.388857">
<ele>345.418</ele>
<time>2019-05-30T10:36:13Z</time>
</trkpt>
<trkpt lat="49.509998" lon="10.388785">
<ele>345.464</ele>
<time>2019-05-30T10:36:14Z</time>
</trkpt>
<trkpt lat="49.509991" lon="10.388715">
<ele>345.487</ele>
<time>2019-05-30T10:36:15Z</time>
</trkpt>
<trkpt lat="49.509987" lon="10.388645">
<ele>345.487</ele>
<time>2019-05-30T10:36:16Z</time>
</trkpt>
<trkpt lat="49.509979" lon="10.388576">
<ele>345.487</ele>
<time>2019-05-30T10:36:17Z</time>
</trkpt>
<trkpt lat="49.509972" lon="10.388509">
<ele>345.276</ele>
<time>2019-05-30T10:36:18Z</time>
</trkpt>
<trkpt lat="49.509968" lon="10.388442">
<ele>345.08</ele>
<time>2019-05-30T10:36:19Z</time>
</trkpt>
<trkpt lat="49.509956" lon="10.388377">
<ele>344.92</ele>
<time>2019-05-30T10:36:20Z</time>
</trkpt>
<trkpt lat="49.509953" lon="10.388311">
<ele>344.794</ele>
<time>2019-05-30T10:36:21Z</time>
</trkpt>
<trkpt lat="49.509945" lon="10.388247">
<ele>344.695</ele>
<time>2019-05-30T10:36:22Z</time>
</trkpt>
<trkpt lat="49.509937" lon="10.388182">
<ele>344.622</ele>
<time>2019-05-30T10:36:23Z</time>
</trkpt>
<trkpt lat="49.509933" lon="10.388113">
<ele>344.574</ele>
<time>2019-05-30T10:36:24Z</time>
</trkpt>
<trkpt lat="49.509922" lon="10.388046">
<ele>344.551</ele>
<time>2019-05-30T10:36:25Z</time>
</trkpt>
<trkpt lat="49.509918" lon="10.387981">
<ele>344.551</ele>
<time>2019-05-30T10:36:26Z</time>
</trkpt>
<trkpt lat="49.509914" lon="10.387917">
<ele>344.551</ele>
<time>2019-05-30T10:36:27Z</time>
</trkpt>
<trkpt lat="49.509903" lon="10.387852">
<ele>344.551</ele>
<time>2019-05-30T10:36:28Z</time>
</trkpt>
<trkpt lat="49.509895" lon="10.387785">
<ele>344.551</ele>
<time>2019-05-30T10:36:29Z</time>
</trkpt>
<trkpt lat="49.509892" lon="10.387716">
<ele>344.551</ele>
<time>2019-05-30T10:36:30Z</time>
</trkpt>
<trkpt lat="49.509888" lon="10.387648">
<ele>344.551</ele>
<time>2019-05-30T10:36:31Z</time>
</trkpt>
<trkpt lat="49.50988" lon="10.38758">
<ele>344.551</ele>
<time>2019-05-30T10:36:32Z</time>
</trkpt>
<trkpt lat="49.509872" lon="10.387511">
<ele>344.551</ele>
<time>2019-05-30T10:36:33Z</time>
</trkpt>
<trkpt lat="49.509865" lon="10.387444">
<ele>344.551</ele>
<time>2019-05-30T10:36:34Z</time>
</trkpt>
<trkpt lat="49.509861" lon="10.387377">
<ele>344.551</ele>
<time>2019-05-30T10:36:35Z</time>
</trkpt>
<trkpt lat="49.509857" lon="10.387312">
<ele>344.551</ele>
<time>2019-05-30T10:36:36Z</time>
</trkpt>
<trkpt lat="49.50985" lon="10.387245">
<ele>344.551</ele>
<time>2019-05-30T10:36:37Z</time>
</trkpt>
<trkpt lat="49.509846" lon="10.38718">
<ele>344.551</ele>
<time>2019-05-30T10:36:38Z</time>
</trkpt>
<trkpt lat="49.509838" lon="10.387115">
<ele>344.531</ele>
<time>2019-05-30T10:36:39Z</time>
</trkpt>
<trkpt lat="49.50983" lon="10.387051">
<ele>344.514</ele>
<time>2019-05-30T10:36:40Z</time>
</trkpt>
<trkpt lat="49.509827" lon="10.386984">
<ele>344.304</ele>
<time>2019-05-30T10:36:41Z</time>
</trkpt>
<trkpt lat="49.509819" lon="10.386915">
<ele>344.172</ele>
<time>2019-05-30T10:36:42Z</time>
</trkpt>
<trkpt lat="49.509808" lon="10.386844">
<ele>343.969</ele>
<time>2019-05-30T10:36:43Z</time>
</trkpt>
<trkpt lat="49.509796" lon="10.386772">
<ele>343.804</ele>
<time>2019-05-30T10:36:44Z</time>
</trkpt>
<trkpt lat="49.509789" lon="10.386701">
<ele>343.679</ele>
<time>2019-05-30T10:36:45Z</time>
</trkpt>
<trkpt lat="49.509773" lon="10.386632">
<ele>343.605</ele>
<time>2019-05-30T10:36:46Z</time>
</trkpt>
<trkpt lat="49.509762" lon="10.386563">
<ele>343.493</ele>
<time>2019-05-30T10:36:47Z</time>
</trkpt>
<trkpt lat="49.509747" lon="10.386496">
<ele>343.442</ele>
<time>2019-05-30T10:36:48Z</time>
</trkpt>
<trkpt lat="49.509727" lon="10.386427">
<ele>343.398</ele>
<time>2019-05-30T10:36:49Z</time>
</trkpt>
<trkpt lat="49.509708" lon="10.386359">
<ele>343.382</ele>
<time>2019-05-30T10:36:50Z</time>
</trkpt>
<trkpt lat="49.509693" lon="10.386294">
<ele>343.374</ele>
<time>2019-05-30T10:36:51Z</time>
</trkpt>
<trkpt lat="49.509674" lon="10.386231">
<ele>343.368</ele>
<time>2019-05-30T10:36:52Z</time>
</trkpt>
<trkpt lat="49.509655" lon="10.386165">
<ele>343.364</ele>
<time>2019-05-30T10:36:53Z</time>
</trkpt>
<trkpt lat="49.509632" lon="10.386098">
<ele>343.404</ele>
<time>2019-05-30T10:36:54Z</time>
</trkpt>
<trkpt lat="49.509617" lon="10.386032">
<ele>343.437</ele>
<time>2019-05-30T10:36:55Z</time>
</trkpt>
<trkpt lat="49.509598" lon="10.385965">
<ele>343.446</ele>
<time>2019-05-30T10:36:56Z</time>
</trkpt>
<trkpt lat="49.509579" lon="10.385903">
<ele>343.288</ele>
<time>2019-05-30T10:36:57Z</time>
</trkpt>
<trkpt lat="49.509563" lon="10.385841">
<ele>343.163</ele>
<time>2019-05-30T10:36:58Z</time>
</trkpt>
<trkpt lat="49.509544" lon="10.385781">
<ele>343.067</ele>
<time>2019-05-30T10:36:59Z</time>
</trkpt>
<trkpt lat="49.509533" lon="10.385718">
<ele>342.994</ele>
<time>2019-05-30T10:37:00Z</time>
</trkpt>
<trkpt lat="49.509514" lon="10.385652">
<ele>342.985</ele>
<time>2019-05-30T10:37:01Z</time>
</trkpt>
<trkpt lat="49.509495" lon="10.385584">
<ele>343.16</ele>
<time>2019-05-30T10:37:02Z</time>
</trkpt>
<trkpt lat="49.509476" lon="10.385515">
<ele>343.314</ele>
<time>2019-05-30T10:37:03Z</time>
</trkpt>
<trkpt lat="49.50946" lon="10.385447">
<ele>343.447</ele>
<time>2019-05-30T10:37:04Z</time>
</trkpt>
<trkpt lat="49.509441" lon="10.385386">
<ele>343.56</ele>
<time>2019-05-30T10:37:05Z</time>
</trkpt>
<trkpt lat="49.509422" lon="10.385333">
<ele>343.67</ele>
<time>2019-05-30T10:37:06Z</time>
</trkpt>
<trkpt lat="49.509403" lon="10.385286">
<ele>343.722</ele>
<time>2019-05-30T10:37:07Z</time>
</trkpt>
<trkpt lat="49.50938" lon="10.385248">
<ele>343.761</ele>
<time>2019-05-30T10:37:08Z</time>
</trkpt>
<trkpt lat="49.509365" lon="10.385218">
<ele>343.786</ele>
<time>2019-05-30T10:37:09Z</time>
</trkpt>
<trkpt lat="49.509346" lon="10.385194">
<ele>343.786</ele>
<time>2019-05-30T10:37:10Z</time>
</trkpt>
<trkpt lat="49.509338" lon="10.385183">
<ele>343.786</ele>
<time>2019-05-30T10:37:11Z</time>
</trkpt>
<trkpt lat="49.509338" lon="10.385174">
<ele>343.786</ele>
<time>2019-05-30T10:37:12Z</time>
</trkpt>
<trkpt lat="49.509338" lon="10.385172">
<ele>343.786</ele>
<time>2019-05-30T10:37:13Z</time>
</trkpt>
<trkpt lat="49.509335" lon="10.38517">
<ele>343.786</ele>
<time>2019-05-30T10:37:14Z</time>
</trkpt>
<trkpt lat="49.509335" lon="10.385169">
<ele>343.786</ele>
<time>2019-05-30T10:37:15Z</time>
</trkpt>
<trkpt lat="49.509327" lon="10.385183">
<ele>343.786</ele>
<time>2019-05-30T10:37:39Z</time>
</trkpt>
<trkpt lat="49.509327" lon="10.385188">
<ele>343.786</ele>
<time>2019-05-30T10:37:40Z</time>
</trkpt>
<trkpt lat="49.509323" lon="10.385192">
<ele>343.786</ele>
<time>2019-05-30T10:37:41Z</time>
</trkpt>
<trkpt lat="49.509323" lon="10.385195">
<ele>343.786</ele>
<time>2019-05-30T10:37:42Z</time>
</trkpt>
<trkpt lat="49.509327" lon="10.38518">
<ele>343.786</ele>
<time>2019-05-30T10:38:02Z</time>
</trkpt>
<trkpt lat="49.509331" lon="10.385177">
<ele>343.786</ele>
<time>2019-05-30T10:38:03Z</time>
</trkpt>
<trkpt lat="49.509335" lon="10.385177">
<ele>343.786</ele>
<time>2019-05-30T10:38:04Z</time>
</trkpt>
<trkpt lat="49.509338" lon="10.385176">
<ele>343.786</ele>
<time>2019-05-30T10:38:05Z</time>
</trkpt>
<trkpt lat="49.509338" lon="10.385174">
<ele>343.786</ele>
<time>2019-05-30T10:38:06Z</time>
</trkpt>
<trkpt lat="49.509331" lon="10.385144">
<ele>343.786</ele>
<time>2019-05-30T10:38:19Z</time>
</trkpt>
<trkpt lat="49.509327" lon="10.385123">
<ele>343.786</ele>
<time>2019-05-30T10:38:20Z</time>
</trkpt>
<trkpt lat="49.509323" lon="10.3851">
<ele>343.786</ele>
<time>2019-05-30T10:38:21Z</time>
</trkpt>
<trkpt lat="49.509323" lon="10.385079">
<ele>343.786</ele>
<time>2019-05-30T10:38:22Z</time>
</trkpt>
<trkpt lat="49.509319" lon="10.385055">
<ele>343.786</ele>
<time>2019-05-30T10:38:23Z</time>
</trkpt>
<trkpt lat="49.509315" lon="10.385025">
<ele>343.786</ele>
<time>2019-05-30T10:38:24Z</time>
</trkpt>
<trkpt lat="49.509304" lon="10.384987">
<ele>343.786</ele>
<time>2019-05-30T10:38:25Z</time>
</trkpt>
<trkpt lat="49.509285" lon="10.384949">
<ele>343.786</ele>
<time>2019-05-30T10:38:26Z</time>
</trkpt>
<trkpt lat="49.50927" lon="10.384908">
<ele>343.786</ele>
<time>2019-05-30T10:38:27Z</time>
</trkpt>
<trkpt lat="49.509258" lon="10.384859">
<ele>343.786</ele>
<time>2019-05-30T10:38:28Z</time>
</trkpt>
<trkpt lat="49.509243" lon="10.384811">
<ele>343.786</ele>
<time>2019-05-30T10:38:29Z</time>
</trkpt>
<trkpt lat="49.509232" lon="10.384763">
<ele>343.786</ele>
<time>2019-05-30T10:38:30Z</time>
</trkpt>
<trkpt lat="49.509216" lon="10.384715">
<ele>343.786</ele>
<time>2019-05-30T10:38:31Z</time>
</trkpt>
<trkpt lat="49.509205" lon="10.384672">
<ele>343.786</ele>
<time>2019-05-30T10:38:32Z</time>
</trkpt>
<trkpt lat="49.509186" lon="10.384626">
<ele>343.786</ele>
<time>2019-05-30T10:38:33Z</time>
</trkpt>
<trkpt lat="49.509174" lon="10.384583">
<ele>343.786</ele>
<time>2019-05-30T10:38:34Z</time>
</trkpt>
<trkpt lat="49.509159" lon="10.384541">
<ele>343.786</ele>
<time>2019-05-30T10:38:35Z</time>
</trkpt>
<trkpt lat="49.509148" lon="10.384501">
<ele>343.786</ele>
<time>2019-05-30T10:38:36Z</time>
</trkpt>
<trkpt lat="49.50914" lon="10.384461">
<ele>343.786</ele>
<time>2019-05-30T10:38:37Z</time>
</trkpt>
<trkpt lat="49.509129" lon="10.384425">
<ele>343.786</ele>
<time>2019-05-30T10:38:38Z</time>
</trkpt>
<trkpt lat="49.509113" lon="10.384388">
<ele>343.786</ele>
<time>2019-05-30T10:38:39Z</time>
</trkpt>
<trkpt lat="49.509102" lon="10.384346">
<ele>343.786</ele>
<time>2019-05-30T10:38:40Z</time>
</trkpt>
<trkpt lat="49.509087" lon="10.384304">
<ele>343.786</ele>
<time>2019-05-30T10:38:41Z</time>
</trkpt>
<trkpt lat="49.509075" lon="10.384258">
<ele>343.993</ele>
<time>2019-05-30T10:38:42Z</time>
</trkpt>
<trkpt lat="49.509064" lon="10.384213">
<ele>344.196</ele>
<time>2019-05-30T10:38:43Z</time>
</trkpt>
<trkpt lat="49.509048" lon="10.38417">
<ele>344.364</ele>
<time>2019-05-30T10:38:44Z</time>
</trkpt>
<trkpt lat="49.509037" lon="10.384127">
<ele>344.494</ele>
<time>2019-05-30T10:38:45Z</time>
</trkpt>
<trkpt lat="49.509022" lon="10.384085">
<ele>344.591</ele>
<time>2019-05-30T10:38:46Z</time>
</trkpt>
<trkpt lat="49.50901" lon="10.384042">
<ele>344.658</ele>
<time>2019-05-30T10:38:47Z</time>
</trkpt>
<trkpt lat="49.508999" lon="10.383998">
<ele>344.7</ele>
<time>2019-05-30T10:38:48Z</time>
</trkpt>
<trkpt lat="49.508991" lon="10.383958">
<ele>344.721</ele>
<time>2019-05-30T10:38:49Z</time>
</trkpt>
<trkpt lat="49.50898" lon="10.383917">
<ele>344.948</ele>
<time>2019-05-30T10:38:50Z</time>
</trkpt>
<trkpt lat="49.508968" lon="10.383875">
<ele>345.133</ele>
<time>2019-05-30T10:38:51Z</time>
</trkpt>
<trkpt lat="49.508953" lon="10.383833">
<ele>345.26</ele>
<time>2019-05-30T10:38:52Z</time>
</trkpt>
<trkpt lat="49.508942" lon="10.38379">
<ele>345.397</ele>
<time>2019-05-30T10:38:53Z</time>
</trkpt>
<trkpt lat="49.508926" lon="10.38375">
<ele>345.505</ele>
<time>2019-05-30T10:38:54Z</time>
</trkpt>
<trkpt lat="49.508915" lon="10.38371">
<ele>345.576</ele>
<time>2019-05-30T10:38:55Z</time>
</trkpt>
<trkpt lat="49.508904" lon="10.383672">
<ele>345.837</ele>
<time>2019-05-30T10:38:56Z</time>
</trkpt>
<trkpt lat="49.508892" lon="10.383634">
<ele>346.037</ele>
<time>2019-05-30T10:38:57Z</time>
</trkpt>
<trkpt lat="49.508881" lon="10.383596">
<ele>346.215</ele>
<time>2019-05-30T10:38:58Z</time>
</trkpt>
<trkpt lat="49.508865" lon="10.383558">
<ele>346.318</ele>
<time>2019-05-30T10:38:59Z</time>
</trkpt>
<trkpt lat="49.508854" lon="10.38352">
<ele>346.391</ele>
<time>2019-05-30T10:39:00Z</time>
</trkpt>
<trkpt lat="49.508842" lon="10.38348">
<ele>346.443</ele>
<time>2019-05-30T10:39:01Z</time>
</trkpt>
<trkpt lat="49.508823" lon="10.38344">
<ele>346.483</ele>
<time>2019-05-30T10:39:02Z</time>
</trkpt>
<trkpt lat="49.508812" lon="10.383401">
<ele>346.507</ele>
<time>2019-05-30T10:39:03Z</time>
</trkpt>
<trkpt lat="49.508793" lon="10.383366">
<ele>346.789</ele>
<time>2019-05-30T10:39:04Z</time>
</trkpt>
<trkpt lat="49.508781" lon="10.383331">
<ele>347.009</ele>
<time>2019-05-30T10:39:05Z</time>
</trkpt>
<trkpt lat="49.508766" lon="10.383302">
<ele>347.145</ele>
<time>2019-05-30T10:39:06Z</time>
</trkpt>
<trkpt lat="49.508751" lon="10.383271">
<ele>347.523</ele>
<time>2019-05-30T10:39:07Z</time>
</trkpt>
<trkpt lat="49.508732" lon="10.383238">
<ele>347.805</ele>
<time>2019-05-30T10:39:08Z</time>
</trkpt>
<trkpt lat="49.508717" lon="10.383204">
<ele>347.967</ele>
<time>2019-05-30T10:39:09Z</time>
</trkpt>
<trkpt lat="49.508705" lon="10.383173">
<ele>348.323</ele>
<time>2019-05-30T10:39:10Z</time>
</trkpt>
<trkpt lat="49.50869" lon="10.38314">
<ele>348.595</ele>
<time>2019-05-30T10:39:11Z</time>
</trkpt>
<trkpt lat="49.508678" lon="10.383107">
<ele>348.788</ele>
<time>2019-05-30T10:39:12Z</time>
</trkpt>
<trkpt lat="49.508663" lon="10.383075">
<ele>348.972</ele>
<time>2019-05-30T10:39:13Z</time>
</trkpt>
<trkpt lat="49.508652" lon="10.38304">
<ele>349.095</ele>
<time>2019-05-30T10:39:14Z</time>
</trkpt>
<trkpt lat="49.508644" lon="10.383005">
<ele>349.162</ele>
<time>2019-05-30T10:39:15Z</time>
</trkpt>
<trkpt lat="49.508633" lon="10.382972">
<ele>349.206</ele>
<time>2019-05-30T10:39:16Z</time>
</trkpt>
<trkpt lat="49.508621" lon="10.382936">
<ele>349.228</ele>
<time>2019-05-30T10:39:17Z</time>
</trkpt>
<trkpt lat="49.50861" lon="10.382903">
<ele>349.472</ele>
<time>2019-05-30T10:39:18Z</time>
</trkpt>
<trkpt lat="49.508595" lon="10.382869">
<ele>349.669</ele>
<time>2019-05-30T10:39:19Z</time>
</trkpt>
<trkpt lat="49.508587" lon="10.382837">
<ele>349.818</ele>
<time>2019-05-30T10:39:20Z</time>
</trkpt>
<trkpt lat="49.508575" lon="10.382807">
<ele>349.928</ele>
<time>2019-05-30T10:39:21Z</time>
</trkpt>
<trkpt lat="49.508568" lon="10.382773">
<ele>350.006</ele>
<time>2019-05-30T10:39:22Z</time>
</trkpt>
<trkpt lat="49.508556" lon="10.38274">
<ele>350.087</ele>
<time>2019-05-30T10:39:23Z</time>
</trkpt>
<trkpt lat="49.508545" lon="10.382705">
<ele>350.138</ele>
<time>2019-05-30T10:39:24Z</time>
</trkpt>
<trkpt lat="49.508533" lon="10.382671">
<ele>350.411</ele>
<time>2019-05-30T10:39:25Z</time>
</trkpt>
<trkpt lat="49.508522" lon="10.382636">
<ele>350.684</ele>
<time>2019-05-30T10:39:26Z</time>
</trkpt>
<trkpt lat="49.508511" lon="10.382602">
<ele>350.859</ele>
<time>2019-05-30T10:39:27Z</time>
</trkpt>
<trkpt lat="49.508499" lon="10.382566">
<ele>350.991</ele>
<time>2019-05-30T10:39:28Z</time>
</trkpt>
<trkpt lat="49.508488" lon="10.382535">
<ele>351.085</ele>
<time>2019-05-30T10:39:29Z</time>
</trkpt>
<trkpt lat="49.508476" lon="10.382504">
<ele>351.127</ele>
<time>2019-05-30T10:39:30Z</time>
</trkpt>
<trkpt lat="49.508465" lon="10.382466">
<ele>351.404</ele>
<time>2019-05-30T10:39:31Z</time>
</trkpt>
<trkpt lat="49.508457" lon="10.38243">
<ele>351.607</ele>
<time>2019-05-30T10:39:32Z</time>
</trkpt>
<trkpt lat="49.508446" lon="10.382391">
<ele>351.792</ele>
<time>2019-05-30T10:39:33Z</time>
</trkpt>
<trkpt lat="49.50843" lon="10.382356">
<ele>351.935</ele>
<time>2019-05-30T10:39:34Z</time>
</trkpt>
<trkpt lat="49.508419" lon="10.382318">
<ele>352.049</ele>
<time>2019-05-30T10:39:35Z</time>
</trkpt>
<trkpt lat="49.508408" lon="10.382282">
<ele>352.13</ele>
<time>2019-05-30T10:39:36Z</time>
</trkpt>
<trkpt lat="49.508392" lon="10.382247">
<ele>352.182</ele>
<time>2019-05-30T10:39:37Z</time>
</trkpt>
<trkpt lat="49.508385" lon="10.382214">
<ele>352.205</ele>
<time>2019-05-30T10:39:38Z</time>
</trkpt>
<trkpt lat="49.508373" lon="10.38218">
<ele>352.205</ele>
<time>2019-05-30T10:39:39Z</time>
</trkpt>
<trkpt lat="49.508366" lon="10.382148">
<ele>352.432</ele>
<time>2019-05-30T10:39:40Z</time>
</trkpt>
<trkpt lat="49.508358" lon="10.382116">
<ele>352.611</ele>
<time>2019-05-30T10:39:41Z</time>
</trkpt>
<trkpt lat="49.508347" lon="10.382085">
<ele>352.739</ele>
<time>2019-05-30T10:39:42Z</time>
</trkpt>
<trkpt lat="49.508335" lon="10.382051">
<ele>352.877</ele>
<time>2019-05-30T10:39:43Z</time>
</trkpt>
<trkpt lat="49.508324" lon="10.382018">
<ele>352.986</ele>
<time>2019-05-30T10:39:44Z</time>
</trkpt>
<trkpt lat="49.508312" lon="10.381983">
<ele>353.06</ele>
<time>2019-05-30T10:39:45Z</time>
</trkpt>
<trkpt lat="49.508297" lon="10.381948">
<ele>353.326</ele>
<time>2019-05-30T10:39:46Z</time>
</trkpt>
<trkpt lat="49.508289" lon="10.381911">
<ele>353.529</ele>
<time>2019-05-30T10:39:47Z</time>
</trkpt>
<trkpt lat="49.508278" lon="10.381876">
<ele>353.717</ele>
<time>2019-05-30T10:39:48Z</time>
</trkpt>
<trkpt lat="49.508266" lon="10.381842">
<ele>353.82</ele>
<time>2019-05-30T10:39:49Z</time>
</trkpt>
<trkpt lat="49.508259" lon="10.381806">
<ele>353.89</ele>
<time>2019-05-30T10:39:50Z</time>
</trkpt>
<trkpt lat="49.508244" lon="10.38177">
<ele>353.934</ele>
<time>2019-05-30T10:39:51Z</time>
</trkpt>
<trkpt lat="49.508232" lon="10.381735">
<ele>353.969</ele>
<time>2019-05-30T10:39:52Z</time>
</trkpt>
<trkpt lat="49.508224" lon="10.3817">
<ele>353.992</ele>
<time>2019-05-30T10:39:53Z</time>
</trkpt>
<trkpt lat="49.508209" lon="10.381664">
<ele>354.296</ele>
<time>2019-05-30T10:39:54Z</time>
</trkpt>
<trkpt lat="49.508198" lon="10.38163">
<ele>354.53</ele>
<time>2019-05-30T10:39:55Z</time>
</trkpt>
<trkpt lat="49.508183" lon="10.381597">
<ele>354.71</ele>
<time>2019-05-30T10:39:56Z</time>
</trkpt>
<trkpt lat="49.508167" lon="10.381561">
<ele>354.846</ele>
<time>2019-05-30T10:39:57Z</time>
</trkpt>
<trkpt lat="49.508156" lon="10.381525">
<ele>354.933</ele>
<time>2019-05-30T10:39:58Z</time>
</trkpt>
<trkpt lat="49.508137" lon="10.38149">
<ele>354.987</ele>
<time>2019-05-30T10:39:59Z</time>
</trkpt>
<trkpt lat="49.508121" lon="10.381453">
<ele>355.013</ele>
<time>2019-05-30T10:40:00Z</time>
</trkpt>
<trkpt lat="49.508102" lon="10.381415">
<ele>355.013</ele>
<time>2019-05-30T10:40:01Z</time>
</trkpt>
<trkpt lat="49.508091" lon="10.381375">
<ele>355.013</ele>
<time>2019-05-30T10:40:02Z</time>
</trkpt>
<trkpt lat="49.508072" lon="10.381335">
<ele>355.013</ele>
<time>2019-05-30T10:40:03Z</time>
</trkpt>
<trkpt lat="49.508057" lon="10.381297">
<ele>355.013</ele>
<time>2019-05-30T10:40:04Z</time>
</trkpt>
<trkpt lat="49.508038" lon="10.381257">
<ele>355.198</ele>
<time>2019-05-30T10:40:05Z</time>
</trkpt>
<trkpt lat="49.508026" lon="10.381218">
<ele>355.332</ele>
<time>2019-05-30T10:40:06Z</time>
</trkpt>
<trkpt lat="49.508011" lon="10.381182">
<ele>355.434</ele>
<time>2019-05-30T10:40:07Z</time>
</trkpt>
<trkpt lat="49.507996" lon="10.381148">
<ele>355.506</ele>
<time>2019-05-30T10:40:08Z</time>
</trkpt>
<trkpt lat="49.50798" lon="10.381111">
<ele>355.557</ele>
<time>2019-05-30T10:40:09Z</time>
</trkpt>
<trkpt lat="49.507965" lon="10.381077">
<ele>355.59</ele>
<time>2019-05-30T10:40:10Z</time>
</trkpt>
<trkpt lat="49.50795" lon="10.381038">
<ele>355.605</ele>
<time>2019-05-30T10:40:11Z</time>
</trkpt>
<trkpt lat="49.507935" lon="10.381001">
<ele>355.609</ele>
<time>2019-05-30T10:40:12Z</time>
</trkpt>
<trkpt lat="49.507919" lon="10.380963">
<ele>355.609</ele>
<time>2019-05-30T10:40:13Z</time>
</trkpt>
<trkpt lat="49.507904" lon="10.380923">
<ele>355.889</ele>
<time>2019-05-30T10:40:14Z</time>
</trkpt>
<trkpt lat="49.507885" lon="10.380883">
<ele>356.108</ele>
<time>2019-05-30T10:40:15Z</time>
</trkpt>
<trkpt lat="49.50787" lon="10.380845">
<ele>356.272</ele>
<time>2019-05-30T10:40:16Z</time>
</trkpt>
<trkpt lat="49.507854" lon="10.380809">
<ele>356.386</ele>
<time>2019-05-30T10:40:17Z</time>
</trkpt>
<trkpt lat="49.507839" lon="10.380772">
<ele>356.466</ele>
<time>2019-05-30T10:40:18Z</time>
</trkpt>
<trkpt lat="49.507828" lon="10.380736">
<ele>356.522</ele>
<time>2019-05-30T10:40:19Z</time>
</trkpt>
<trkpt lat="49.507812" lon="10.380702">
<ele>356.545</ele>
<time>2019-05-30T10:40:20Z</time>
</trkpt>
<trkpt lat="49.507801" lon="10.380665">
<ele>356.545</ele>
<time>2019-05-30T10:40:21Z</time>
</trkpt>
<trkpt lat="49.507786" lon="10.380627">
<ele>356.545</ele>
<time>2019-05-30T10:40:22Z</time>
</trkpt>
<trkpt lat="49.507771" lon="10.380589">
<ele>356.545</ele>
<time>2019-05-30T10:40:23Z</time>
</trkpt>
<trkpt lat="49.507759" lon="10.380549">
<ele>356.825</ele>
<time>2019-05-30T10:40:24Z</time>
</trkpt>
<trkpt lat="49.50774" lon="10.380513">
<ele>357.046</ele>
<time>2019-05-30T10:40:25Z</time>
</trkpt>
<trkpt lat="49.507729" lon="10.38048">
<ele>357.204</ele>
<time>2019-05-30T10:40:26Z</time>
</trkpt>
<trkpt lat="49.50771" lon="10.380448">
<ele>357.329</ele>
<time>2019-05-30T10:40:27Z</time>
</trkpt>
<trkpt lat="49.507698" lon="10.380415">
<ele>357.401</ele>
<time>2019-05-30T10:40:28Z</time>
</trkpt>
<trkpt lat="49.507683" lon="10.380383">
<ele>357.458</ele>
<time>2019-05-30T10:40:29Z</time>
</trkpt>
<trkpt lat="49.507671" lon="10.38035">
<ele>357.474</ele>
<time>2019-05-30T10:40:30Z</time>
</trkpt>
<trkpt lat="49.507656" lon="10.38032">
<ele>357.481</ele>
<time>2019-05-30T10:40:31Z</time>
</trkpt>
<trkpt lat="49.507645" lon="10.38029">
<ele>357.481</ele>
<time>2019-05-30T10:40:32Z</time>
</trkpt>
<trkpt lat="49.507633" lon="10.380262">
<ele>357.481</ele>
<time>2019-05-30T10:40:33Z</time>
</trkpt>
<trkpt lat="49.507622" lon="10.380233">
<ele>357.481</ele>
<time>2019-05-30T10:40:34Z</time>
</trkpt>
<trkpt lat="49.50761" lon="10.380206">
<ele>357.481</ele>
<time>2019-05-30T10:40:35Z</time>
</trkpt>
<trkpt lat="49.507599" lon="10.38018">
<ele>357.481</ele>
<time>2019-05-30T10:40:36Z</time>
</trkpt>
<trkpt lat="49.50758" lon="10.380157">
<ele>357.481</ele>
<time>2019-05-30T10:40:37Z</time>
</trkpt>
<trkpt lat="49.507561" lon="10.380135">
<ele>357.481</ele>
<time>2019-05-30T10:40:38Z</time>
</trkpt>
<trkpt lat="49.507542" lon="10.380118">
<ele>357.481</ele>
<time>2019-05-30T10:40:39Z</time>
</trkpt>
<trkpt lat="49.507519" lon="10.380099">
<ele>357.481</ele>
<time>2019-05-30T10:40:40Z</time>
</trkpt>
<trkpt lat="49.507504" lon="10.380082">
<ele>357.712</ele>
<time>2019-05-30T10:40:41Z</time>
</trkpt>
<trkpt lat="49.507481" lon="10.380063">
<ele>357.878</ele>
<time>2019-05-30T10:40:42Z</time>
</trkpt>
<trkpt lat="49.507462" lon="10.380043">
<ele>358.043</ele>
<time>2019-05-30T10:40:43Z</time>
</trkpt>
<trkpt lat="49.507446" lon="10.380022">
<ele>358.173</ele>
<time>2019-05-30T10:40:44Z</time>
</trkpt>
<trkpt lat="49.50742" lon="10.38">
<ele>358.273</ele>
<time>2019-05-30T10:40:45Z</time>
</trkpt>
<trkpt lat="49.507401" lon="10.37998">
<ele>358.346</ele>
<time>2019-05-30T10:40:46Z</time>
</trkpt>
<trkpt lat="49.507378" lon="10.379958">
<ele>358.395</ele>
<time>2019-05-30T10:40:47Z</time>
</trkpt>
<trkpt lat="49.507351" lon="10.379938">
<ele>358.418</ele>
<time>2019-05-30T10:40:48Z</time>
</trkpt>
<trkpt lat="49.507332" lon="10.379919">
<ele>358.417</ele>
<time>2019-05-30T10:40:49Z</time>
</trkpt>
<trkpt lat="49.507313" lon="10.379898">
<ele>358.417</ele>
<time>2019-05-30T10:40:50Z</time>
</trkpt>
<trkpt lat="49.50729" lon="10.379879">
<ele>358.417</ele>
<time>2019-05-30T10:40:51Z</time>
</trkpt>
<trkpt lat="49.507267" lon="10.379862">
<ele>358.417</ele>
<time>2019-05-30T10:40:52Z</time>
</trkpt>
<trkpt lat="49.507248" lon="10.379847">
<ele>358.417</ele>
<time>2019-05-30T10:40:53Z</time>
</trkpt>
<trkpt lat="49.507221" lon="10.379833">
<ele>358.417</ele>
<time>2019-05-30T10:40:54Z</time>
</trkpt>
<trkpt lat="49.507202" lon="10.37982">
<ele>358.417</ele>
<time>2019-05-30T10:40:55Z</time>
</trkpt>
<trkpt lat="49.507183" lon="10.379806">
<ele>358.418</ele>
<time>2019-05-30T10:40:56Z</time>
</trkpt>
<trkpt lat="49.507164" lon="10.379788">
<ele>358.417</ele>
<time>2019-05-30T10:40:57Z</time>
</trkpt>
<trkpt lat="49.507145" lon="10.379773">
<ele>358.417</ele>
<time>2019-05-30T10:40:58Z</time>
</trkpt>
<trkpt lat="49.507122" lon="10.379758">
<ele>358.417</ele>
<time>2019-05-30T10:40:59Z</time>
</trkpt>
<trkpt lat="49.507103" lon="10.379742">
<ele>358.417</ele>
<time>2019-05-30T10:41:00Z</time>
</trkpt>
<trkpt lat="49.507084" lon="10.379722">
<ele>358.622</ele>
<time>2019-05-30T10:41:01Z</time>
</trkpt>
<trkpt lat="49.507061" lon="10.379702">
<ele>358.771</ele>
<time>2019-05-30T10:41:02Z</time>
</trkpt>
<trkpt lat="49.507046" lon="10.37968">
<ele>358.929</ele>
<time>2019-05-30T10:41:03Z</time>
</trkpt>
<trkpt lat="49.507023" lon="10.379665">
<ele>359.05</ele>
<time>2019-05-30T10:41:04Z</time>
</trkpt>
<trkpt lat="49.506996" lon="10.37965">
<ele>359.144</ele>
<time>2019-05-30T10:41:05Z</time>
</trkpt>
<trkpt lat="49.506977" lon="10.379639">
<ele>359.201</ele>
<time>2019-05-30T10:41:06Z</time>
</trkpt>
<trkpt lat="49.506954" lon="10.379628">
<ele>359.499</ele>
<time>2019-05-30T10:41:07Z</time>
</trkpt>
<trkpt lat="49.506927" lon="10.379619">
<ele>359.729</ele>
<time>2019-05-30T10:41:08Z</time>
</trkpt>
<trkpt lat="49.506905" lon="10.379608">
<ele>359.932</ele>
<time>2019-05-30T10:41:09Z</time>
</trkpt>
<trkpt lat="49.506886" lon="10.379597">
<ele>360.054</ele>
<time>2019-05-30T10:41:10Z</time>
</trkpt>
<trkpt lat="49.506863" lon="10.379585">
<ele>360.14</ele>
<time>2019-05-30T10:41:11Z</time>
</trkpt>
<trkpt lat="49.50684" lon="10.379573">
<ele>360.205</ele>
<time>2019-05-30T10:41:12Z</time>
</trkpt>
<trkpt lat="49.506821" lon="10.379561">
<ele>360.262</ele>
<time>2019-05-30T10:41:13Z</time>
</trkpt>
<trkpt lat="49.506798" lon="10.379546">
<ele>360.291</ele>
<time>2019-05-30T10:41:14Z</time>
</trkpt>
<trkpt lat="49.506775" lon="10.379534">
<ele>360.291</ele>
<time>2019-05-30T10:41:15Z</time>
</trkpt>
<trkpt lat="49.50676" lon="10.379515">
<ele>360.291</ele>
<time>2019-05-30T10:41:16Z</time>
</trkpt>
<trkpt lat="49.506737" lon="10.379492">
<ele>360.291</ele>
<time>2019-05-30T10:41:17Z</time>
</trkpt>
<trkpt lat="49.506718" lon="10.379467">
<ele>360.291</ele>
<time>2019-05-30T10:41:18Z</time>
</trkpt>
<trkpt lat="49.506695" lon="10.379439">
<ele>360.291</ele>
<time>2019-05-30T10:41:19Z</time>
</trkpt>
<trkpt lat="49.506683" lon="10.37941">
<ele>360.291</ele>
<time>2019-05-30T10:41:20Z</time>
</trkpt>
<trkpt lat="49.506664" lon="10.379376">
<ele>360.291</ele>
<time>2019-05-30T10:41:21Z</time>
</trkpt>
<trkpt lat="49.506649" lon="10.37934">
<ele>360.291</ele>
<time>2019-05-30T10:41:22Z</time>
</trkpt>
<trkpt lat="49.506634" lon="10.379296">
<ele>360.291</ele>
<time>2019-05-30T10:41:23Z</time>
</trkpt>
<trkpt lat="49.506618" lon="10.379245">
<ele>360.291</ele>
<time>2019-05-30T10:41:24Z</time>
</trkpt>
<trkpt lat="49.506599" lon="10.379189">
<ele>360.291</ele>
<time>2019-05-30T10:41:25Z</time>
</trkpt>
<trkpt lat="49.50658" lon="10.379131">
<ele>360.291</ele>
<time>2019-05-30T10:41:26Z</time>
</trkpt>
<trkpt lat="49.506561" lon="10.379075">
<ele>360.008</ele>
<time>2019-05-30T10:41:27Z</time>
</trkpt>
<trkpt lat="49.506542" lon="10.379018">
<ele>359.798</ele>
<time>2019-05-30T10:41:28Z</time>
</trkpt>
<trkpt lat="49.506523" lon="10.378965">
<ele>359.651</ele>
<time>2019-05-30T10:41:29Z</time>
</trkpt>
<trkpt lat="49.5065" lon="10.378917">
<ele>359.548</ele>
<time>2019-05-30T10:41:30Z</time>
</trkpt>
<trkpt lat="49.506485" lon="10.378867">
<ele>359.479</ele>
<time>2019-05-30T10:41:31Z</time>
</trkpt>
<trkpt lat="49.50647" lon="10.378819">
<ele>359.43</ele>
<time>2019-05-30T10:41:32Z</time>
</trkpt>
<trkpt lat="49.506451" lon="10.378769">
<ele>359.38</ele>
<time>2019-05-30T10:41:33Z</time>
</trkpt>
<trkpt lat="49.506432" lon="10.378714">
<ele>359.132</ele>
<time>2019-05-30T10:41:34Z</time>
</trkpt>
<trkpt lat="49.506409" lon="10.378655">
<ele>358.898</ele>
<time>2019-05-30T10:41:35Z</time>
</trkpt>
<trkpt lat="49.50639" lon="10.378595">
<ele>358.455</ele>
<time>2019-05-30T10:41:36Z</time>
</trkpt>
<trkpt lat="49.506371" lon="10.378536">
<ele>358.106</ele>
<time>2019-05-30T10:41:37Z</time>
</trkpt>
<trkpt lat="49.506348" lon="10.378478">
<ele>357.857</ele>
<time>2019-05-30T10:41:38Z</time>
</trkpt>
<trkpt lat="49.506325" lon="10.378422">
<ele>357.689</ele>
<time>2019-05-30T10:41:39Z</time>
</trkpt>
<trkpt lat="49.506298" lon="10.37837">
<ele>357.589</ele>
<time>2019-05-30T10:41:40Z</time>
</trkpt>
<trkpt lat="49.506271" lon="10.378325">
<ele>357.543</ele>
<time>2019-05-30T10:41:41Z</time>
</trkpt>
<trkpt lat="49.506245" lon="10.378284">
<ele>357.506</ele>
<time>2019-05-30T10:41:42Z</time>
</trkpt>
<trkpt lat="49.506214" lon="10.378245">
<ele>357.481</ele>
<time>2019-05-30T10:41:43Z</time>
</trkpt>
<trkpt lat="49.50618" lon="10.378207">
<ele>357.481</ele>
<time>2019-05-30T10:41:44Z</time>
</trkpt>
<trkpt lat="49.506145" lon="10.378168">
<ele>357.481</ele>
<time>2019-05-30T10:41:45Z</time>
</trkpt>
<trkpt lat="49.506115" lon="10.37813">
<ele>357.481</ele>
<time>2019-05-30T10:41:46Z</time>
</trkpt>
<trkpt lat="49.506081" lon="10.378095">
<ele>357.481</ele>
<time>2019-05-30T10:41:47Z</time>
</trkpt>
<trkpt lat="49.506046" lon="10.378067">
<ele>357.481</ele>
<time>2019-05-30T10:41:48Z</time>
</trkpt>
<trkpt lat="49.506016" lon="10.378039">
<ele>357.481</ele>
<time>2019-05-30T10:41:49Z</time>
</trkpt>
<trkpt lat="49.505985" lon="10.378013">
<ele>357.481</ele>
<time>2019-05-30T10:41:50Z</time>
</trkpt>
<trkpt lat="49.505951" lon="10.377989">
<ele>357.481</ele>
<time>2019-05-30T10:41:51Z</time>
</trkpt>
<trkpt lat="49.505917" lon="10.377965">
<ele>357.481</ele>
<time>2019-05-30T10:41:52Z</time>
</trkpt>
<trkpt lat="49.505882" lon="10.377947">
<ele>357.481</ele>
<time>2019-05-30T10:41:53Z</time>
</trkpt>
<trkpt lat="49.505848" lon="10.377934">
<ele>357.481</ele>
<time>2019-05-30T10:41:54Z</time>
</trkpt>
<trkpt lat="49.505817" lon="10.377923">
<ele>357.481</ele>
<time>2019-05-30T10:41:55Z</time>
</trkpt>
<trkpt lat="49.505791" lon="10.377912">
<ele>357.481</ele>
<time>2019-05-30T10:41:56Z</time>
</trkpt>
<trkpt lat="49.505764" lon="10.377901">
<ele>357.726</ele>
<time>2019-05-30T10:41:57Z</time>
</trkpt>
<trkpt lat="49.505737" lon="10.377893">
<ele>357.912</ele>
<time>2019-05-30T10:41:58Z</time>
</trkpt>
<trkpt lat="49.505718" lon="10.377885">
<ele>358.061</ele>
<time>2019-05-30T10:41:59Z</time>
</trkpt>
<trkpt lat="49.505688" lon="10.377874">
<ele>358.174</ele>
<time>2019-05-30T10:42:00Z</time>
</trkpt>
<trkpt lat="49.505665" lon="10.377864">
<ele>358.263</ele>
<time>2019-05-30T10:42:01Z</time>
</trkpt>
<trkpt lat="49.50565" lon="10.377851">
<ele>358.331</ele>
<time>2019-05-30T10:42:02Z</time>
</trkpt>
<trkpt lat="49.505627" lon="10.377847">
<ele>358.389</ele>
<time>2019-05-30T10:42:03Z</time>
</trkpt>
<trkpt lat="49.5056" lon="10.377845">
<ele>358.417</ele>
<time>2019-05-30T10:42:04Z</time>
</trkpt>
<trkpt lat="49.505577" lon="10.377847">
<ele>358.417</ele>
<time>2019-05-30T10:42:05Z</time>
</trkpt>
<trkpt lat="49.505554" lon="10.37785">
<ele>358.417</ele>
<time>2019-05-30T10:42:06Z</time>
</trkpt>
<trkpt lat="49.505527" lon="10.377855">
<ele>358.417</ele>
<time>2019-05-30T10:42:07Z</time>
</trkpt>
<trkpt lat="49.505512" lon="10.37786">
<ele>358.639</ele>
<time>2019-05-30T10:42:08Z</time>
</trkpt>
<trkpt lat="49.505489" lon="10.37786">
<ele>358.811</ele>
<time>2019-05-30T10:42:09Z</time>
</trkpt>
<trkpt lat="49.505474" lon="10.377857">
<ele>358.946</ele>
<time>2019-05-30T10:42:10Z</time>
</trkpt>
<trkpt lat="49.505455" lon="10.377851">
<ele>359.049</ele>
<time>2019-05-30T10:42:11Z</time>
</trkpt>
<trkpt lat="49.505436" lon="10.37784">
<ele>359.115</ele>
<time>2019-05-30T10:42:12Z</time>
</trkpt>
<trkpt lat="49.505417" lon="10.377826">
<ele>359.191</ele>
<time>2019-05-30T10:42:13Z</time>
</trkpt>
<trkpt lat="49.505402" lon="10.377803">
<ele>359.242</ele>
<time>2019-05-30T10:42:14Z</time>
</trkpt>
<trkpt lat="49.505386" lon="10.377776">
<ele>359.269</ele>
<time>2019-05-30T10:42:15Z</time>
</trkpt>
<trkpt lat="49.505375" lon="10.377745">
<ele>359.269</ele>
<time>2019-05-30T10:42:16Z</time>
</trkpt>
<trkpt lat="49.505367" lon="10.377708">
<ele>359.269</ele>
<time>2019-05-30T10:42:17Z</time>
</trkpt>
<trkpt lat="49.50536" lon="10.37767">
<ele>359.269</ele>
<time>2019-05-30T10:42:18Z</time>
</trkpt>
<trkpt lat="49.505348" lon="10.37763">
<ele>359.014</ele>
<time>2019-05-30T10:42:19Z</time>
</trkpt>
<trkpt lat="49.505329" lon="10.377593">
<ele>358.817</ele>
<time>2019-05-30T10:42:20Z</time>
</trkpt>
<trkpt lat="49.505306" lon="10.37756">
<ele>358.665</ele>
<time>2019-05-30T10:42:21Z</time>
</trkpt>
<trkpt lat="49.505287" lon="10.377532">
<ele>358.571</ele>
<time>2019-05-30T10:42:22Z</time>
</trkpt>
<trkpt lat="49.505264" lon="10.377508">
<ele>358.471</ele>
<time>2019-05-30T10:42:23Z</time>
</trkpt>
<trkpt lat="49.505241" lon="10.37749">
<ele>358.398</ele>
<time>2019-05-30T10:42:24Z</time>
</trkpt>
<trkpt lat="49.505222" lon="10.377479">
<ele>358.354</ele>
<time>2019-05-30T10:42:25Z</time>
</trkpt>
<trkpt lat="49.505199" lon="10.37747">
<ele>358.332</ele>
<time>2019-05-30T10:42:26Z</time>
</trkpt>
<trkpt lat="49.505177" lon="10.377465">
<ele>358.332</ele>
<time>2019-05-30T10:42:27Z</time>
</trkpt>
<trkpt lat="49.505161" lon="10.377455">
<ele>358.332</ele>
<time>2019-05-30T10:42:28Z</time>
</trkpt>
<trkpt lat="49.505138" lon="10.377445">
<ele>358.332</ele>
<time>2019-05-30T10:42:29Z</time>
</trkpt>
<trkpt lat="49.505119" lon="10.37743">
<ele>358.332</ele>
<time>2019-05-30T10:42:30Z</time>
</trkpt>
<trkpt lat="49.5051" lon="10.37741">
<ele>358.332</ele>
<time>2019-05-30T10:42:31Z</time>
</trkpt>
<trkpt lat="49.505085" lon="10.377388">
<ele>358.332</ele>
<time>2019-05-30T10:42:32Z</time>
</trkpt>
<trkpt lat="49.505066" lon="10.377367">
<ele>358.332</ele>
<time>2019-05-30T10:42:33Z</time>
</trkpt>
<trkpt lat="49.505054" lon="10.377345">
<ele>358.332</ele>
<time>2019-05-30T10:42:34Z</time>
</trkpt>
<trkpt lat="49.505043" lon="10.377327">
<ele>358.332</ele>
<time>2019-05-30T10:42:35Z</time>
</trkpt>
<trkpt lat="49.505035" lon="10.377305">
<ele>358.332</ele>
<time>2019-05-30T10:42:36Z</time>
</trkpt>
<trkpt lat="49.505028" lon="10.377283">
<ele>358.332</ele>
<time>2019-05-30T10:42:37Z</time>
</trkpt>
<trkpt lat="49.505013" lon="10.37726">
<ele>358.332</ele>
<time>2019-05-30T10:42:38Z</time>
</trkpt>
<trkpt lat="49.505001" lon="10.377234">
<ele>358.332</ele>
<time>2019-05-30T10:42:39Z</time>
</trkpt>
<trkpt lat="49.504993" lon="10.377206">
<ele>358.104</ele>
<time>2019-05-30T10:42:40Z</time>
</trkpt>
<trkpt lat="49.504986" lon="10.377176">
<ele>357.912</ele>
<time>2019-05-30T10:42:41Z</time>
</trkpt>
<trkpt lat="49.504982" lon="10.377149">
<ele>357.776</ele>
<time>2019-05-30T10:42:42Z</time>
</trkpt>
<trkpt lat="49.504978" lon="10.377122">
<ele>357.636</ele>
<time>2019-05-30T10:42:43Z</time>
</trkpt>
<trkpt lat="49.504974" lon="10.377093">
<ele>357.534</ele>
<time>2019-05-30T10:42:44Z</time>
</trkpt>
<trkpt lat="49.504971" lon="10.377066">
<ele>357.468</ele>
<time>2019-05-30T10:42:45Z</time>
</trkpt>
<trkpt lat="49.504967" lon="10.377043">
<ele>357.2</ele>
<time>2019-05-30T10:42:46Z</time>
</trkpt>
<trkpt lat="49.504959" lon="10.37702">
<ele>356.99</ele>
<time>2019-05-30T10:42:47Z</time>
</trkpt>
<trkpt lat="49.504955" lon="10.377">
<ele>356.795</ele>
<time>2019-05-30T10:42:48Z</time>
</trkpt>
<trkpt lat="49.504951" lon="10.376977">
<ele>356.679</ele>
<time>2019-05-30T10:42:49Z</time>
</trkpt>
<trkpt lat="49.504948" lon="10.376955">
<ele>356.595</ele>
<time>2019-05-30T10:42:50Z</time>
</trkpt>
<trkpt lat="49.504948" lon="10.376931">
<ele>356.532</ele>
<time>2019-05-30T10:42:51Z</time>
</trkpt>
<trkpt lat="49.50494" lon="10.376908">
<ele>356.489</ele>
<time>2019-05-30T10:42:52Z</time>
</trkpt>
<trkpt lat="49.504936" lon="10.376893">
<ele>356.24</ele>
<time>2019-05-30T10:42:53Z</time>
</trkpt>
<trkpt lat="49.504921" lon="10.37688">
<ele>356.046</ele>
<time>2019-05-30T10:42:54Z</time>
</trkpt>
<trkpt lat="49.50491" lon="10.376872">
<ele>355.889</ele>
<time>2019-05-30T10:42:55Z</time>
</trkpt>
<trkpt lat="49.504898" lon="10.376862">
<ele>355.784</ele>
<time>2019-05-30T10:42:56Z</time>
</trkpt>
<trkpt lat="49.504883" lon="10.376854">
<ele>355.476</ele>
<time>2019-05-30T10:42:57Z</time>
</trkpt>
<trkpt lat="49.504868" lon="10.376848">
<ele>355.217</ele>
<time>2019-05-30T10:42:58Z</time>
</trkpt>
<trkpt lat="49.504845" lon="10.376847">
<ele>355.021</ele>
<time>2019-05-30T10:42:59Z</time>
</trkpt>
<trkpt lat="49.504826" lon="10.376847">
<ele>354.905</ele>
<time>2019-05-30T10:43:00Z</time>
</trkpt>
<trkpt lat="49.504807" lon="10.376843">
<ele>354.547</ele>
<time>2019-05-30T10:43:01Z</time>
</trkpt>
<trkpt lat="49.504791" lon="10.376837">
<ele>354.32</ele>
<time>2019-05-30T10:43:02Z</time>
</trkpt>
<trkpt lat="49.50478" lon="10.37683">
<ele>354.111</ele>
<time>2019-05-30T10:43:03Z</time>
</trkpt>
<trkpt lat="49.504776" lon="10.376826">
<ele>353.976</ele>
<time>2019-05-30T10:43:04Z</time>
</trkpt>
<trkpt lat="49.504772" lon="10.376823">
<ele>353.886</ele>
<time>2019-05-30T10:43:05Z</time>
</trkpt>
<trkpt lat="49.504772" lon="10.376795">
<ele>353.82</ele>
<time>2019-05-30T10:43:30Z</time>
</trkpt>
<trkpt lat="49.504761" lon="10.376763">
<ele>353.77</ele>
<time>2019-05-30T10:43:31Z</time>
</trkpt>
<trkpt lat="49.504745" lon="10.376719">
<ele>353.447</ele>
<time>2019-05-30T10:43:32Z</time>
</trkpt>
<trkpt lat="49.504734" lon="10.376665">
<ele>353.128</ele>
<time>2019-05-30T10:43:33Z</time>
</trkpt>
<trkpt lat="49.504711" lon="10.376603">
<ele>352.968</ele>
<time>2019-05-30T10:43:34Z</time>
</trkpt>
<trkpt lat="49.504684" lon="10.37653">
<ele>352.496</ele>
<time>2019-05-30T10:43:35Z</time>
</trkpt>
<trkpt lat="49.504654" lon="10.376456">
<ele>351.829</ele>
<time>2019-05-30T10:43:36Z</time>
</trkpt>
<trkpt lat="49.504623" lon="10.376387">
<ele>351.456</ele>
<time>2019-05-30T10:43:37Z</time>
</trkpt>
<trkpt lat="49.504589" lon="10.37632">
<ele>350.997</ele>
<time>2019-05-30T10:43:38Z</time>
</trkpt>
<trkpt lat="49.504555" lon="10.376255">
<ele>350.316</ele>
<time>2019-05-30T10:43:39Z</time>
</trkpt>
<trkpt lat="49.504513" lon="10.376198">
<ele>349.853</ele>
<time>2019-05-30T10:43:40Z</time>
</trkpt>
<trkpt lat="49.504467" lon="10.37615">
<ele>349.564</ele>
<time>2019-05-30T10:43:41Z</time>
</trkpt>
<trkpt lat="49.504414" lon="10.376105">
<ele>349.027</ele>
<time>2019-05-30T10:43:42Z</time>
</trkpt>
<trkpt lat="49.504353" lon="10.376063">
<ele>348.637</ele>
<time>2019-05-30T10:43:43Z</time>
</trkpt>
<trkpt lat="49.504295" lon="10.37603">
<ele>348.294</ele>
<time>2019-05-30T10:43:44Z</time>
</trkpt>
<trkpt lat="49.50423" lon="10.376001">
<ele>348.135</ele>
<time>2019-05-30T10:43:45Z</time>
</trkpt>
<trkpt lat="49.504169" lon="10.375978">
<ele>348.031</ele>
<time>2019-05-30T10:43:46Z</time>
</trkpt>
<trkpt lat="49.504108" lon="10.375951">
<ele>347.687</ele>
<time>2019-05-30T10:43:47Z</time>
</trkpt>
<trkpt lat="49.504047" lon="10.375925">
<ele>347.424</ele>
<time>2019-05-30T10:43:48Z</time>
</trkpt>
<trkpt lat="49.503983" lon="10.3759">
<ele>347.264</ele>
<time>2019-05-30T10:43:49Z</time>
</trkpt>
<trkpt lat="49.503918" lon="10.375875">
<ele>346.89</ele>
<time>2019-05-30T10:43:50Z</time>
</trkpt>
<trkpt lat="49.503857" lon="10.37585">
<ele>346.626</ele>
<time>2019-05-30T10:43:51Z</time>
</trkpt>
<trkpt lat="49.503792" lon="10.375823">
<ele>346.195</ele>
<time>2019-05-30T10:43:52Z</time>
</trkpt>
<trkpt lat="49.503719" lon="10.375798">
<ele>345.589</ele>
<time>2019-05-30T10:43:53Z</time>
</trkpt>
<trkpt lat="49.503643" lon="10.375773">
<ele>345.171</ele>
<time>2019-05-30T10:43:54Z</time>
</trkpt>
<trkpt lat="49.503567" lon="10.37575">
<ele>344.584</ele>
<time>2019-05-30T10:43:55Z</time>
</trkpt>
<trkpt lat="49.503502" lon="10.375723">
<ele>343.871</ele>
<time>2019-05-30T10:43:56Z</time>
</trkpt>
<trkpt lat="49.503437" lon="10.375698">
<ele>343.125</ele>
<time>2019-05-30T10:43:57Z</time>
</trkpt>
<trkpt lat="49.50338" lon="10.375676">
<ele>342.568</ele>
<time>2019-05-30T10:43:58Z</time>
</trkpt>
<trkpt lat="49.503326" lon="10.37566">
<ele>342.155</ele>
<time>2019-05-30T10:43:59Z</time>
</trkpt>
<trkpt lat="49.503273" lon="10.375647">
<ele>341.876</ele>
<time>2019-05-30T10:44:00Z</time>
</trkpt>
<trkpt lat="49.50322" lon="10.375633">
<ele>341.691</ele>
<time>2019-05-30T10:44:01Z</time>
</trkpt>
<trkpt lat="49.503174" lon="10.37562">
<ele>341.568</ele>
<time>2019-05-30T10:44:02Z</time>
</trkpt>
<trkpt lat="49.503132" lon="10.375602">
<ele>341.508</ele>
<time>2019-05-30T10:44:03Z</time>
</trkpt>
<trkpt lat="49.503094" lon="10.375564">
<ele>341.297</ele>
<time>2019-05-30T10:44:04Z</time>
</trkpt>
<trkpt lat="49.503063" lon="10.375504">
<ele>341.116</ele>
<time>2019-05-30T10:44:05Z</time>
</trkpt>
<trkpt lat="49.503036" lon="10.375431">
<ele>341.084</ele>
<time>2019-05-30T10:44:06Z</time>
</trkpt>
<trkpt lat="49.50301" lon="10.37535">
<ele>340.909</ele>
<time>2019-05-30T10:44:07Z</time>
</trkpt>
<trkpt lat="49.502979" lon="10.375263">
<ele>340.51</ele>
<time>2019-05-30T10:44:08Z</time>
</trkpt>
<trkpt lat="49.502949" lon="10.37517">
<ele>339.888</ele>
<time>2019-05-30T10:44:09Z</time>
</trkpt>
<trkpt lat="49.502914" lon="10.375067">
<ele>339.39</ele>
<time>2019-05-30T10:44:10Z</time>
</trkpt>
<trkpt lat="49.502884" lon="10.374958">
<ele>339.091</ele>
<time>2019-05-30T10:44:11Z</time>
</trkpt>
<trkpt lat="49.50285" lon="10.374848">
<ele>338.507</ele>
<time>2019-05-30T10:44:12Z</time>
</trkpt>
<trkpt lat="49.502815" lon="10.374737">
<ele>337.996</ele>
<time>2019-05-30T10:44:13Z</time>
</trkpt>
<trkpt lat="49.502777" lon="10.374625">
<ele>337.788</ele>
<time>2019-05-30T10:44:14Z</time>
</trkpt>
<trkpt lat="49.502739" lon="10.374512">
<ele>337.381</ele>
<time>2019-05-30T10:44:15Z</time>
</trkpt>
<trkpt lat="49.502701" lon="10.3744">
<ele>337.093</ele>
<time>2019-05-30T10:44:16Z</time>
</trkpt>
<trkpt lat="49.502663" lon="10.374287">
<ele>336.856</ele>
<time>2019-05-30T10:44:17Z</time>
</trkpt>
<trkpt lat="49.502625" lon="10.374174">
<ele>336.457</ele>
<time>2019-05-30T10:44:18Z</time>
</trkpt>
<trkpt lat="49.50259" lon="10.37406">
<ele>336.189</ele>
<time>2019-05-30T10:44:19Z</time>
</trkpt>
<trkpt lat="49.502556" lon="10.373948">
<ele>335.836</ele>
<time>2019-05-30T10:44:20Z</time>
</trkpt>
<trkpt lat="49.502522" lon="10.373838">
<ele>335.591</ele>
<time>2019-05-30T10:44:21Z</time>
</trkpt>
<trkpt lat="49.502491" lon="10.37373">
<ele>335.113</ele>
<time>2019-05-30T10:44:22Z</time>
</trkpt>
<trkpt lat="49.50246" lon="10.373621">
<ele>334.662</ele>
<time>2019-05-30T10:44:23Z</time>
</trkpt>
<trkpt lat="49.502441" lon="10.373514">
<ele>334.457</ele>
<time>2019-05-30T10:44:24Z</time>
</trkpt>
<trkpt lat="49.502426" lon="10.373402">
<ele>334.057</ele>
<time>2019-05-30T10:44:25Z</time>
</trkpt>
<trkpt lat="49.502411" lon="10.373295">
<ele>333.753</ele>
<time>2019-05-30T10:44:26Z</time>
</trkpt>
<trkpt lat="49.502396" lon="10.373194">
<ele>333.489</ele>
<time>2019-05-30T10:44:27Z</time>
</trkpt>
<trkpt lat="49.502388" lon="10.373098">
<ele>333.05</ele>
<time>2019-05-30T10:44:28Z</time>
</trkpt>
<trkpt lat="49.50238" lon="10.373016">
<ele>332.711</ele>
<time>2019-05-30T10:44:29Z</time>
</trkpt>
<trkpt lat="49.502377" lon="10.372947">
<ele>332.466</ele>
<time>2019-05-30T10:44:30Z</time>
</trkpt>
<trkpt lat="49.502365" lon="10.37288">
<ele>332.304</ele>
<time>2019-05-30T10:44:31Z</time>
</trkpt>
<trkpt lat="49.502346" lon="10.372819">
<ele>331.955</ele>
<time>2019-05-30T10:44:32Z</time>
</trkpt>
<trkpt lat="49.502316" lon="10.372764">
<ele>331.605</ele>
<time>2019-05-30T10:44:33Z</time>
</trkpt>
<trkpt lat="49.502281" lon="10.372722">
<ele>331.429</ele>
<time>2019-05-30T10:44:34Z</time>
</trkpt>
<trkpt lat="49.502243" lon="10.37269">
<ele>331.308</ele>
<time>2019-05-30T10:44:35Z</time>
</trkpt>
<trkpt lat="49.502205" lon="10.372662">
<ele>331.218</ele>
<time>2019-05-30T10:44:36Z</time>
</trkpt>
<trkpt lat="49.502171" lon="10.37263">
<ele>330.927</ele>
<time>2019-05-30T10:44:37Z</time>
</trkpt>
<trkpt lat="49.502136" lon="10.372599">
<ele>330.695</ele>
<time>2019-05-30T10:44:38Z</time>
</trkpt>
<trkpt lat="49.502102" lon="10.372567">
<ele>330.528</ele>
<time>2019-05-30T10:44:39Z</time>
</trkpt>
<trkpt lat="49.502068" lon="10.372537">
<ele>330.414</ele>
<time>2019-05-30T10:44:40Z</time>
</trkpt>
<trkpt lat="49.502033" lon="10.372503">
<ele>330.324</ele>
<time>2019-05-30T10:44:41Z</time>
</trkpt>
<trkpt lat="49.501995" lon="10.372465">
<ele>330.257</ele>
<time>2019-05-30T10:44:42Z</time>
</trkpt>
<trkpt lat="49.501957" lon="10.372425">
<ele>330.219</ele>
<time>2019-05-30T10:44:43Z</time>
</trkpt>
<trkpt lat="49.501919" lon="10.372389">
<ele>329.962</ele>
<time>2019-05-30T10:44:44Z</time>
</trkpt>
<trkpt lat="49.501881" lon="10.372354">
<ele>329.768</ele>
<time>2019-05-30T10:44:45Z</time>
</trkpt>
<trkpt lat="49.501842" lon="10.37232">
<ele>329.64</ele>
<time>2019-05-30T10:44:46Z</time>
</trkpt>
<trkpt lat="49.501804" lon="10.372289">
<ele>329.506</ele>
<time>2019-05-30T10:44:47Z</time>
</trkpt>
<trkpt lat="49.50177" lon="10.372257">
<ele>329.403</ele>
<time>2019-05-30T10:44:48Z</time>
</trkpt>
<trkpt lat="49.501732" lon="10.372222">
<ele>329.33</ele>
<time>2019-05-30T10:44:49Z</time>
</trkpt>
<trkpt lat="49.501694" lon="10.372187">
<ele>329.286</ele>
<time>2019-05-30T10:44:50Z</time>
</trkpt>
<trkpt lat="49.501652" lon="10.372152">
<ele>329.034</ele>
<time>2019-05-30T10:44:51Z</time>
</trkpt>
<trkpt lat="49.501614" lon="10.372115">
<ele>328.809</ele>
<time>2019-05-30T10:44:52Z</time>
</trkpt>
<trkpt lat="49.501579" lon="10.372073">
<ele>328.652</ele>
<time>2019-05-30T10:44:53Z</time>
</trkpt>
<trkpt lat="49.501541" lon="10.372028">
<ele>328.541</ele>
<time>2019-05-30T10:44:54Z</time>
</trkpt>
<trkpt lat="49.501499" lon="10.371981">
<ele>328.459</ele>
<time>2019-05-30T10:44:55Z</time>
</trkpt>
<trkpt lat="49.501453" lon="10.371933">
<ele>328.401</ele>
<time>2019-05-30T10:44:56Z</time>
</trkpt>
<trkpt lat="49.501408" lon="10.371886">
<ele>328.113</ele>
<time>2019-05-30T10:44:57Z</time>
</trkpt>
<trkpt lat="49.501358" lon="10.371842">
<ele>327.927</ele>
<time>2019-05-30T10:44:58Z</time>
</trkpt>
<trkpt lat="49.501308" lon="10.371795">
<ele>327.515</ele>
<time>2019-05-30T10:44:59Z</time>
</trkpt>
<trkpt lat="49.501247" lon="10.371746">
<ele>327.181</ele>
<time>2019-05-30T10:45:00Z</time>
</trkpt>
<trkpt lat="49.501186" lon="10.371704">
<ele>326.926</ele>
<time>2019-05-30T10:45:01Z</time>
</trkpt>
<trkpt lat="49.501125" lon="10.371665">
<ele>326.772</ele>
<time>2019-05-30T10:45:02Z</time>
</trkpt>
<trkpt lat="49.501068" lon="10.371631">
<ele>326.339</ele>
<time>2019-05-30T10:45:03Z</time>
</trkpt>
<trkpt lat="49.501015" lon="10.371601">
<ele>326.019</ele>
<time>2019-05-30T10:45:04Z</time>
</trkpt>
<trkpt lat="49.500957" lon="10.371574">
<ele>325.829</ele>
<time>2019-05-30T10:45:05Z</time>
</trkpt>
<trkpt lat="49.500904" lon="10.371547">
<ele>325.451</ele>
<time>2019-05-30T10:45:06Z</time>
</trkpt>
<trkpt lat="49.500858" lon="10.371518">
<ele>325.143</ele>
<time>2019-05-30T10:45:07Z</time>
</trkpt>
<trkpt lat="49.500816" lon="10.371492">
<ele>324.923</ele>
<time>2019-05-30T10:45:08Z</time>
</trkpt>
<trkpt lat="49.500778" lon="10.371471">
<ele>324.494</ele>
<time>2019-05-30T10:45:09Z</time>
</trkpt>
<trkpt lat="49.50074" lon="10.371457">
<ele>324.159</ele>
<time>2019-05-30T10:45:10Z</time>
</trkpt>
<trkpt lat="49.500702" lon="10.371442">
<ele>323.91</ele>
<time>2019-05-30T10:45:11Z</time>
</trkpt>
<trkpt lat="49.500671" lon="10.371426">
<ele>323.719</ele>
<time>2019-05-30T10:45:12Z</time>
</trkpt>
<trkpt lat="49.500637" lon="10.371396">
<ele>323.58</ele>
<time>2019-05-30T10:45:13Z</time>
</trkpt>
<trkpt lat="49.500618" lon="10.371356">
<ele>323.464</ele>
<time>2019-05-30T10:45:14Z</time>
</trkpt>
<trkpt lat="49.500603" lon="10.371306">
<ele>323.438</ele>
<time>2019-05-30T10:45:15Z</time>
</trkpt>
<trkpt lat="49.500599" lon="10.371256">
<ele>323.188</ele>
<time>2019-05-30T10:45:16Z</time>
</trkpt>
<trkpt lat="49.500603" lon="10.371214">
<ele>323.174</ele>
<time>2019-05-30T10:45:17Z</time>
</trkpt>
<trkpt lat="49.50061" lon="10.371179">
<ele>323.168</ele>
<time>2019-05-30T10:45:18Z</time>
</trkpt>
<trkpt lat="49.500622" lon="10.371143">
<ele>323.168</ele>
<time>2019-05-30T10:45:19Z</time>
</trkpt>
<trkpt lat="49.500629" lon="10.37111">
<ele>323.171</ele>
<time>2019-05-30T10:45:20Z</time>
</trkpt>
<trkpt lat="49.500633" lon="10.371077">
<ele>323.167</ele>
<time>2019-05-30T10:45:21Z</time>
</trkpt>
<trkpt lat="49.500633" lon="10.371044">
<ele>323.469</ele>
<time>2019-05-30T10:45:22Z</time>
</trkpt>
<trkpt lat="49.500637" lon="10.371015">
<ele>323.725</ele>
<time>2019-05-30T10:45:23Z</time>
</trkpt>
<trkpt lat="49.500641" lon="10.370979">
<ele>323.952</ele>
<time>2019-05-30T10:45:24Z</time>
</trkpt>
<trkpt lat="49.500648" lon="10.370941">
<ele>324.106</ele>
<time>2019-05-30T10:45:25Z</time>
</trkpt>
<trkpt lat="49.500656" lon="10.370904">
<ele>324.217</ele>
<time>2019-05-30T10:45:26Z</time>
</trkpt>
<trkpt lat="49.500668" lon="10.370865">
<ele>324.318</ele>
<time>2019-05-30T10:45:27Z</time>
</trkpt>
<trkpt lat="49.500675" lon="10.370825">
<ele>324.608</ele>
<time>2019-05-30T10:45:28Z</time>
</trkpt>
<trkpt lat="49.500687" lon="10.370785">
<ele>324.822</ele>
<time>2019-05-30T10:45:29Z</time>
</trkpt>
<trkpt lat="49.50069" lon="10.370747">
<ele>325.039</ele>
<time>2019-05-30T10:45:30Z</time>
</trkpt>
<trkpt lat="49.500694" lon="10.370708">
<ele>325.139</ele>
<time>2019-05-30T10:45:31Z</time>
</trkpt>
<trkpt lat="49.500694" lon="10.370671">
<ele>325.191</ele>
<time>2019-05-30T10:45:32Z</time>
</trkpt>
<trkpt lat="49.500698" lon="10.370637">
<ele>325.492</ele>
<time>2019-05-30T10:45:33Z</time>
</trkpt>
<trkpt lat="49.500698" lon="10.3706">
<ele>325.716</ele>
<time>2019-05-30T10:45:34Z</time>
</trkpt>
<trkpt lat="49.500698" lon="10.37056">
<ele>325.884</ele>
<time>2019-05-30T10:45:35Z</time>
</trkpt>
<trkpt lat="49.500702" lon="10.370522">
<ele>325.996</ele>
<time>2019-05-30T10:45:36Z</time>
</trkpt>
<trkpt lat="49.500702" lon="10.370483">
<ele>326.112</ele>
<time>2019-05-30T10:45:37Z</time>
</trkpt>
<trkpt lat="49.500702" lon="10.370445">
<ele>326.454</ele>
<time>2019-05-30T10:45:38Z</time>
</trkpt>
<trkpt lat="49.50071" lon="10.370407">
<ele>326.722</ele>
<time>2019-05-30T10:45:39Z</time>
</trkpt>
<trkpt lat="49.50071" lon="10.370374">
<ele>326.921</ele>
<time>2019-05-30T10:45:40Z</time>
</trkpt>
<trkpt lat="49.50071" lon="10.370338">
<ele>327.134</ele>
<time>2019-05-30T10:45:41Z</time>
</trkpt>
<trkpt lat="49.500706" lon="10.370303">
<ele>327.219</ele>
<time>2019-05-30T10:45:42Z</time>
</trkpt>
<trkpt lat="49.500706" lon="10.370269">
<ele>327.281</ele>
<time>2019-05-30T10:45:43Z</time>
</trkpt>
<trkpt lat="49.500706" lon="10.370232">
<ele>327.308</ele>
<time>2019-05-30T10:45:44Z</time>
</trkpt>
<trkpt lat="49.500706" lon="10.370195">
<ele>327.553</ele>
<time>2019-05-30T10:45:45Z</time>
</trkpt>
<trkpt lat="49.500706" lon="10.370155">
<ele>327.729</ele>
<time>2019-05-30T10:45:46Z</time>
</trkpt>
<trkpt lat="49.50071" lon="10.370115">
<ele>327.915</ele>
<time>2019-05-30T10:45:47Z</time>
</trkpt>
<trkpt lat="49.50071" lon="10.370074">
<ele>328.068</ele>
<time>2019-05-30T10:45:48Z</time>
</trkpt>
<trkpt lat="49.50071" lon="10.370034">
<ele>328.177</ele>
<time>2019-05-30T10:45:49Z</time>
</trkpt>
<trkpt lat="49.50071" lon="10.369993">
<ele>328.255</ele>
<time>2019-05-30T10:45:50Z</time>
</trkpt>
<trkpt lat="49.50071" lon="10.369952">
<ele>328.3</ele>
<time>2019-05-30T10:45:51Z</time>
</trkpt>
<trkpt lat="49.500713" lon="10.369913">
<ele>328.558</ele>
<time>2019-05-30T10:45:52Z</time>
</trkpt>
<trkpt lat="49.500713" lon="10.369873">
<ele>328.766</ele>
<time>2019-05-30T10:45:53Z</time>
</trkpt>
<trkpt lat="49.500713" lon="10.369837">
<ele>328.91</ele>
<time>2019-05-30T10:45:54Z</time>
</trkpt>
<trkpt lat="49.500717" lon="10.3698">
<ele>329.025</ele>
<time>2019-05-30T10:45:55Z</time>
</trkpt>
<trkpt lat="49.500721" lon="10.369763">
<ele>329.103</ele>
<time>2019-05-30T10:45:56Z</time>
</trkpt>
<trkpt lat="49.500721" lon="10.369728">
<ele>329.182</ele>
<time>2019-05-30T10:45:57Z</time>
</trkpt>
<trkpt lat="49.500725" lon="10.369692">
<ele>329.234</ele>
<time>2019-05-30T10:45:58Z</time>
</trkpt>
<trkpt lat="49.500729" lon="10.369657">
<ele>329.502</ele>
<time>2019-05-30T10:45:59Z</time>
</trkpt>
<trkpt lat="49.500729" lon="10.369619">
<ele>329.778</ele>
<time>2019-05-30T10:46:00Z</time>
</trkpt>
<trkpt lat="49.500729" lon="10.369583">
<ele>329.946</ele>
<time>2019-05-30T10:46:01Z</time>
</trkpt>
<trkpt lat="49.500732" lon="10.369546">
<ele>330.086</ele>
<time>2019-05-30T10:46:02Z</time>
</trkpt>
<trkpt lat="49.500732" lon="10.369511">
<ele>330.174</ele>
<time>2019-05-30T10:46:03Z</time>
</trkpt>
<trkpt lat="49.500736" lon="10.369473">
<ele>330.221</ele>
<time>2019-05-30T10:46:04Z</time>
</trkpt>
<trkpt lat="49.50074" lon="10.369437">
<ele>330.46</ele>
<time>2019-05-30T10:46:05Z</time>
</trkpt>
<trkpt lat="49.500744" lon="10.369402">
<ele>330.634</ele>
<time>2019-05-30T10:46:06Z</time>
</trkpt>
<trkpt lat="49.500748" lon="10.369367">
<ele>330.785</ele>
<time>2019-05-30T10:46:07Z</time>
</trkpt>
<trkpt lat="49.500748" lon="10.369332">
<ele>330.904</ele>
<time>2019-05-30T10:46:08Z</time>
</trkpt>
<trkpt lat="49.500751" lon="10.369297">
<ele>330.996</ele>
<time>2019-05-30T10:46:09Z</time>
</trkpt>
<trkpt lat="49.500751" lon="10.369262">
<ele>331.064</ele>
<time>2019-05-30T10:46:10Z</time>
</trkpt>
<trkpt lat="49.500751" lon="10.369226">
<ele>331.107</ele>
<time>2019-05-30T10:46:11Z</time>
</trkpt>
<trkpt lat="49.500751" lon="10.369192">
<ele>331.128</ele>
<time>2019-05-30T10:46:12Z</time>
</trkpt>
<trkpt lat="49.500748" lon="10.369161">
<ele>331.362</ele>
<time>2019-05-30T10:46:13Z</time>
</trkpt>
<trkpt lat="49.500748" lon="10.369129">
<ele>331.553</ele>
<time>2019-05-30T10:46:14Z</time>
</trkpt>
<trkpt lat="49.500744" lon="10.369097">
<ele>331.697</ele>
<time>2019-05-30T10:46:15Z</time>
</trkpt>
<trkpt lat="49.500744" lon="10.369064">
<ele>331.798</ele>
<time>2019-05-30T10:46:16Z</time>
</trkpt>
<trkpt lat="49.500736" lon="10.369037">
<ele>331.905</ele>
<time>2019-05-30T10:46:17Z</time>
</trkpt>
<trkpt lat="49.500725" lon="10.36901">
<ele>331.984</ele>
<time>2019-05-30T10:46:18Z</time>
</trkpt>
<trkpt lat="49.50071" lon="10.368985">
<ele>332.036</ele>
<time>2019-05-30T10:46:19Z</time>
</trkpt>
<trkpt lat="49.50069" lon="10.368963">
<ele>332.062</ele>
<time>2019-05-30T10:46:20Z</time>
</trkpt>
<trkpt lat="49.500664" lon="10.368955">
<ele>332.062</ele>
<time>2019-05-30T10:46:21Z</time>
</trkpt>
<trkpt lat="49.500633" lon="10.368954">
<ele>332.062</ele>
<time>2019-05-30T10:46:22Z</time>
</trkpt>
<trkpt lat="49.500599" lon="10.368965">
<ele>331.798</ele>
<time>2019-05-30T10:46:23Z</time>
</trkpt>
<trkpt lat="49.500561" lon="10.368985">
<ele>331.637</ele>
<time>2019-05-30T10:46:24Z</time>
</trkpt>
<trkpt lat="49.500519" lon="10.36901">
<ele>331.22</ele>
<time>2019-05-30T10:46:25Z</time>
</trkpt>
<trkpt lat="49.500473" lon="10.369041">
<ele>330.962</ele>
<time>2019-05-30T10:46:26Z</time>
</trkpt>
<trkpt lat="49.500431" lon="10.369081">
<ele>330.394</ele>
<time>2019-05-30T10:46:27Z</time>
</trkpt>
<trkpt lat="49.500381" lon="10.369123">
<ele>329.56</ele>
<time>2019-05-30T10:46:28Z</time>
</trkpt>
<trkpt lat="49.500336" lon="10.369168">
<ele>329.058</ele>
<time>2019-05-30T10:46:29Z</time>
</trkpt>
<trkpt lat="49.50029" lon="10.369213">
<ele>328.313</ele>
<time>2019-05-30T10:46:30Z</time>
</trkpt>
<trkpt lat="49.500244" lon="10.369257">
<ele>327.856</ele>
<time>2019-05-30T10:46:31Z</time>
</trkpt>
<trkpt lat="49.500202" lon="10.369302">
<ele>327.245</ele>
<time>2019-05-30T10:46:32Z</time>
</trkpt>
<trkpt lat="49.500156" lon="10.36934">
<ele>326.553</ele>
<time>2019-05-30T10:46:33Z</time>
</trkpt>
<trkpt lat="49.500114" lon="10.369373">
<ele>326.043</ele>
<time>2019-05-30T10:46:34Z</time>
</trkpt>
<trkpt lat="49.50008" lon="10.369402">
<ele>325.722</ele>
<time>2019-05-30T10:46:35Z</time>
</trkpt>
<trkpt lat="49.50005" lon="10.369427">
<ele>325.181</ele>
<time>2019-05-30T10:46:36Z</time>
</trkpt>
<trkpt lat="49.500011" lon="10.369456">
<ele>324.747</ele>
<time>2019-05-30T10:46:37Z</time>
</trkpt>
<trkpt lat="49.499981" lon="10.369496">
<ele>324.18</ele>
<time>2019-05-30T10:46:38Z</time>
</trkpt>
<trkpt lat="49.49995" lon="10.369536">
<ele>323.738</ele>
<time>2019-05-30T10:46:39Z</time>
</trkpt>
<trkpt lat="49.499924" lon="10.369583">
<ele>323.457</ele>
<time>2019-05-30T10:46:40Z</time>
</trkpt>
<trkpt lat="49.499901" lon="10.369637">
<ele>322.971</ele>
<time>2019-05-30T10:46:41Z</time>
</trkpt>
<trkpt lat="49.499886" lon="10.369693">
<ele>322.583</ele>
<time>2019-05-30T10:46:42Z</time>
</trkpt>
<trkpt lat="49.499866" lon="10.369757">
<ele>322.299</ele>
<time>2019-05-30T10:46:43Z</time>
</trkpt>
<trkpt lat="49.499844" lon="10.369828">
<ele>322.115</ele>
<time>2019-05-30T10:46:44Z</time>
</trkpt>
<trkpt lat="49.499821" lon="10.369911">
<ele>321.746</ele>
<time>2019-05-30T10:46:45Z</time>
</trkpt>
<trkpt lat="49.499805" lon="10.369992">
<ele>321.476</ele>
<time>2019-05-30T10:46:46Z</time>
</trkpt>
<trkpt lat="49.499786" lon="10.370071">
<ele>321.211</ele>
<time>2019-05-30T10:46:47Z</time>
</trkpt>
<trkpt lat="49.499767" lon="10.370162">
<ele>321.036</ele>
<time>2019-05-30T10:46:48Z</time>
</trkpt>
<trkpt lat="49.499752" lon="10.370254">
<ele>320.922</ele>
<time>2019-05-30T10:46:49Z</time>
</trkpt>
<trkpt lat="49.499733" lon="10.370347">
<ele>320.851</ele>
<time>2019-05-30T10:46:50Z</time>
</trkpt>
<trkpt lat="49.499718" lon="10.370437">
<ele>320.54</ele>
<time>2019-05-30T10:46:51Z</time>
</trkpt>
<trkpt lat="49.499699" lon="10.370519">
<ele>320.308</ele>
<time>2019-05-30T10:46:52Z</time>
</trkpt>
<trkpt lat="49.499672" lon="10.370598">
<ele>320.111</ele>
<time>2019-05-30T10:46:53Z</time>
</trkpt>
<trkpt lat="49.499641" lon="10.370675">
<ele>319.989</ele>
<time>2019-05-30T10:46:54Z</time>
</trkpt>
<trkpt lat="49.499603" lon="10.37074">
<ele>319.904</ele>
<time>2019-05-30T10:46:55Z</time>
</trkpt>
<trkpt lat="49.499565" lon="10.370801">
<ele>319.844</ele>
<time>2019-05-30T10:46:56Z</time>
</trkpt>
<trkpt lat="49.499523" lon="10.370841">
<ele>319.786</ele>
<time>2019-05-30T10:46:57Z</time>
</trkpt>
<trkpt lat="49.499481" lon="10.370869">
<ele>319.757</ele>
<time>2019-05-30T10:46:58Z</time>
</trkpt>
<trkpt lat="49.499432" lon="10.37089">
<ele>319.757</ele>
<time>2019-05-30T10:46:59Z</time>
</trkpt>
<trkpt lat="49.49939" lon="10.370908">
<ele>319.757</ele>
<time>2019-05-30T10:47:00Z</time>
</trkpt>
<trkpt lat="49.499348" lon="10.370908">
<ele>319.757</ele>
<time>2019-05-30T10:47:01Z</time>
</trkpt>
<trkpt lat="49.499306" lon="10.370906">
<ele>319.757</ele>
<time>2019-05-30T10:47:02Z</time>
</trkpt>
<trkpt lat="49.499264" lon="10.370897">
<ele>319.529</ele>
<time>2019-05-30T10:47:03Z</time>
</trkpt>
<trkpt lat="49.49921" lon="10.370893">
<ele>319.341</ele>
<time>2019-05-30T10:47:04Z</time>
</trkpt>
<trkpt lat="49.499165" lon="10.370904">
<ele>319.191</ele>
<time>2019-05-30T10:47:05Z</time>
</trkpt>
<trkpt lat="49.499111" lon="10.37092">
<ele>319.088</ele>
<time>2019-05-30T10:47:06Z</time>
</trkpt>
<trkpt lat="49.499069" lon="10.370916">
<ele>318.978</ele>
<time>2019-05-30T10:47:07Z</time>
</trkpt>
<trkpt lat="49.499023" lon="10.370908">
<ele>318.895</ele>
<time>2019-05-30T10:47:08Z</time>
</trkpt>
<trkpt lat="49.498974" lon="10.370904">
<ele>318.846</ele>
<time>2019-05-30T10:47:09Z</time>
</trkpt>
<trkpt lat="49.498928" lon="10.370902">
<ele>318.825</ele>
<time>2019-05-30T10:47:10Z</time>
</trkpt>
<trkpt lat="49.498886" lon="10.370902">
<ele>318.825</ele>
<time>2019-05-30T10:47:11Z</time>
</trkpt>
<trkpt lat="49.498856" lon="10.370897">
<ele>318.825</ele>
<time>2019-05-30T10:47:12Z</time>
</trkpt>
<trkpt lat="49.498833" lon="10.370883">
<ele>318.825</ele>
<time>2019-05-30T10:47:13Z</time>
</trkpt>
<trkpt lat="49.498817" lon="10.370873">
<ele>318.825</ele>
<time>2019-05-30T10:47:14Z</time>
</trkpt>
<trkpt lat="49.498806" lon="10.370869">
<ele>318.825</ele>
<time>2019-05-30T10:47:15Z</time>
</trkpt>
<trkpt lat="49.498795" lon="10.370867">
<ele>318.825</ele>
<time>2019-05-30T10:47:16Z</time>
</trkpt>
<trkpt lat="49.498791" lon="10.370865">
<ele>318.825</ele>
<time>2019-05-30T10:47:17Z</time>
</trkpt>
<trkpt lat="49.498783" lon="10.370867">
<ele>318.825</ele>
<time>2019-05-30T10:47:18Z</time>
</trkpt>
<trkpt lat="49.498779" lon="10.370862">
<ele>318.825</ele>
<time>2019-05-30T10:47:19Z</time>
</trkpt>
<trkpt lat="49.498775" lon="10.370849">
<ele>318.825</ele>
<time>2019-05-30T10:47:20Z</time>
</trkpt>
<trkpt lat="49.498775" lon="10.370818">
<ele>318.825</ele>
<time>2019-05-30T10:47:21Z</time>
</trkpt>
<trkpt lat="49.498775" lon="10.370782">
<ele>318.825</ele>
<time>2019-05-30T10:47:22Z</time>
</trkpt>
<trkpt lat="49.498775" lon="10.370742">
<ele>318.825</ele>
<time>2019-05-30T10:47:23Z</time>
</trkpt>
<trkpt lat="49.498783" lon="10.3707">
<ele>318.825</ele>
<time>2019-05-30T10:47:24Z</time>
</trkpt>
<trkpt lat="49.498791" lon="10.370655">
<ele>318.825</ele>
<time>2019-05-30T10:47:25Z</time>
</trkpt>
<trkpt lat="49.498802" lon="10.37061">
<ele>318.825</ele>
<time>2019-05-30T10:47:26Z</time>
</trkpt>
<trkpt lat="49.498814" lon="10.370562">
<ele>318.825</ele>
<time>2019-05-30T10:47:27Z</time>
</trkpt>
<trkpt lat="49.498821" lon="10.370514">
<ele>318.825</ele>
<time>2019-05-30T10:47:28Z</time>
</trkpt>
<trkpt lat="49.498829" lon="10.370466">
<ele>318.825</ele>
<time>2019-05-30T10:47:29Z</time>
</trkpt>
<trkpt lat="49.498837" lon="10.370417">
<ele>318.825</ele>
<time>2019-05-30T10:47:30Z</time>
</trkpt>
<trkpt lat="49.49884" lon="10.370365">
<ele>318.825</ele>
<time>2019-05-30T10:47:31Z</time>
</trkpt>
<trkpt lat="49.498848" lon="10.370311">
<ele>318.825</ele>
<time>2019-05-30T10:47:32Z</time>
</trkpt>
<trkpt lat="49.498859" lon="10.370252">
<ele>318.825</ele>
<time>2019-05-30T10:47:33Z</time>
</trkpt>
<trkpt lat="49.498871" lon="10.370192">
<ele>318.825</ele>
<time>2019-05-30T10:47:34Z</time>
</trkpt>
<trkpt lat="49.498886" lon="10.370131">
<ele>318.825</ele>
<time>2019-05-30T10:47:35Z</time>
</trkpt>
<trkpt lat="49.498901" lon="10.37007">
<ele>318.825</ele>
<time>2019-05-30T10:47:36Z</time>
</trkpt>
<trkpt lat="49.498905" lon="10.370009">
<ele>318.825</ele>
<time>2019-05-30T10:47:37Z</time>
</trkpt>
<trkpt lat="49.49892" lon="10.369946">
<ele>318.825</ele>
<time>2019-05-30T10:47:38Z</time>
</trkpt>
<trkpt lat="49.498936" lon="10.369882">
<ele>318.825</ele>
<time>2019-05-30T10:47:39Z</time>
</trkpt>
<trkpt lat="49.498947" lon="10.369814">
<ele>318.825</ele>
<time>2019-05-30T10:47:40Z</time>
</trkpt>
<trkpt lat="49.498959" lon="10.369745">
<ele>318.825</ele>
<time>2019-05-30T10:47:41Z</time>
</trkpt>
<trkpt lat="49.49897" lon="10.369676">
<ele>318.825</ele>
<time>2019-05-30T10:47:42Z</time>
</trkpt>
<trkpt lat="49.498989" lon="10.369605">
<ele>318.825</ele>
<time>2019-05-30T10:47:43Z</time>
</trkpt>
<trkpt lat="49.499004" lon="10.369534">
<ele>318.825</ele>
<time>2019-05-30T10:47:44Z</time>
</trkpt>
<trkpt lat="49.49902" lon="10.369463">
<ele>318.825</ele>
<time>2019-05-30T10:47:45Z</time>
</trkpt>
<trkpt lat="49.499035" lon="10.369393">
<ele>318.825</ele>
<time>2019-05-30T10:47:46Z</time>
</trkpt>
<trkpt lat="49.499046" lon="10.369325">
<ele>318.825</ele>
<time>2019-05-30T10:47:47Z</time>
</trkpt>
<trkpt lat="49.499065" lon="10.369253">
<ele>318.825</ele>
<time>2019-05-30T10:47:48Z</time>
</trkpt>
<trkpt lat="49.499081" lon="10.369182">
<ele>318.825</ele>
<time>2019-05-30T10:47:49Z</time>
</trkpt>
<trkpt lat="49.499096" lon="10.36911">
<ele>318.825</ele>
<time>2019-05-30T10:47:50Z</time>
</trkpt>
<trkpt lat="49.499107" lon="10.369039">
<ele>318.825</ele>
<time>2019-05-30T10:47:51Z</time>
</trkpt>
<trkpt lat="49.499126" lon="10.368965">
<ele>318.825</ele>
<time>2019-05-30T10:47:52Z</time>
</trkpt>
<trkpt lat="49.499142" lon="10.36889">
<ele>318.825</ele>
<time>2019-05-30T10:47:53Z</time>
</trkpt>
<trkpt lat="49.499157" lon="10.368814">
<ele>318.825</ele>
<time>2019-05-30T10:47:54Z</time>
</trkpt>
<trkpt lat="49.499168" lon="10.368735">
<ele>318.825</ele>
<time>2019-05-30T10:47:55Z</time>
</trkpt>
<trkpt lat="49.499184" lon="10.368655">
<ele>318.825</ele>
<time>2019-05-30T10:47:56Z</time>
</trkpt>
<trkpt lat="49.499199" lon="10.368576">
<ele>318.825</ele>
<time>2019-05-30T10:47:57Z</time>
</trkpt>
<trkpt lat="49.499214" lon="10.368499">
<ele>318.825</ele>
<time>2019-05-30T10:47:58Z</time>
</trkpt>
<trkpt lat="49.499229" lon="10.368419">
<ele>318.825</ele>
<time>2019-05-30T10:47:59Z</time>
</trkpt>
<trkpt lat="49.499249" lon="10.368339">
<ele>318.825</ele>
<time>2019-05-30T10:48:00Z</time>
</trkpt>
<trkpt lat="49.499264" lon="10.368258">
<ele>318.825</ele>
<time>2019-05-30T10:48:01Z</time>
</trkpt>
<trkpt lat="49.499279" lon="10.36818">
<ele>318.825</ele>
<time>2019-05-30T10:48:02Z</time>
</trkpt>
<trkpt lat="49.499294" lon="10.368102">
<ele>318.825</ele>
<time>2019-05-30T10:48:03Z</time>
</trkpt>
<trkpt lat="49.499313" lon="10.368023">
<ele>318.825</ele>
<time>2019-05-30T10:48:04Z</time>
</trkpt>
<trkpt lat="49.499329" lon="10.367947">
<ele>318.825</ele>
<time>2019-05-30T10:48:05Z</time>
</trkpt>
<trkpt lat="49.499348" lon="10.36787">
<ele>318.825</ele>
<time>2019-05-30T10:48:06Z</time>
</trkpt>
<trkpt lat="49.499363" lon="10.367792">
<ele>318.825</ele>
<time>2019-05-30T10:48:07Z</time>
</trkpt>
<trkpt lat="49.499386" lon="10.367715">
<ele>318.825</ele>
<time>2019-05-30T10:48:08Z</time>
</trkpt>
<trkpt lat="49.499401" lon="10.367641">
<ele>318.825</ele>
<time>2019-05-30T10:48:09Z</time>
</trkpt>
<trkpt lat="49.499424" lon="10.367568">
<ele>319.085</ele>
<time>2019-05-30T10:48:10Z</time>
</trkpt>
<trkpt lat="49.499447" lon="10.367493">
<ele>319.289</ele>
<time>2019-05-30T10:48:11Z</time>
</trkpt>
<trkpt lat="49.499462" lon="10.36742">
<ele>319.445</ele>
<time>2019-05-30T10:48:12Z</time>
</trkpt>
<trkpt lat="49.499493" lon="10.367349">
<ele>319.556</ele>
<time>2019-05-30T10:48:13Z</time>
</trkpt>
<trkpt lat="49.499516" lon="10.367279">
<ele>319.636</ele>
<time>2019-05-30T10:48:14Z</time>
</trkpt>
<trkpt lat="49.499535" lon="10.367208">
<ele>319.689</ele>
<time>2019-05-30T10:48:15Z</time>
</trkpt>
<trkpt lat="49.499561" lon="10.367141">
<ele>319.731</ele>
<time>2019-05-30T10:48:16Z</time>
</trkpt>
<trkpt lat="49.499588" lon="10.367068">
<ele>319.757</ele>
<time>2019-05-30T10:48:17Z</time>
</trkpt>
<trkpt lat="49.499615" lon="10.367001">
<ele>319.757</ele>
<time>2019-05-30T10:48:18Z</time>
</trkpt>
<trkpt lat="49.499645" lon="10.36693">
<ele>319.757</ele>
<time>2019-05-30T10:48:19Z</time>
</trkpt>
<trkpt lat="49.499672" lon="10.366862">
<ele>319.757</ele>
<time>2019-05-30T10:48:20Z</time>
</trkpt>
<trkpt lat="49.499702" lon="10.366796">
<ele>319.757</ele>
<time>2019-05-30T10:48:21Z</time>
</trkpt>
<trkpt lat="49.499733" lon="10.366728">
<ele>319.757</ele>
<time>2019-05-30T10:48:22Z</time>
</trkpt>
<trkpt lat="49.49976" lon="10.366661">
<ele>319.757</ele>
<time>2019-05-30T10:48:23Z</time>
</trkpt>
<trkpt lat="49.499794" lon="10.366594">
<ele>319.97</ele>
<time>2019-05-30T10:48:24Z</time>
</trkpt>
<trkpt lat="49.499825" lon="10.366529">
<ele>320.137</ele>
<time>2019-05-30T10:48:25Z</time>
</trkpt>
<trkpt lat="49.499855" lon="10.36646">
<ele>320.253</ele>
<time>2019-05-30T10:48:26Z</time>
</trkpt>
<trkpt lat="49.499886" lon="10.366397">
<ele>320.377</ele>
<time>2019-05-30T10:48:27Z</time>
</trkpt>
<trkpt lat="49.49992" lon="10.366332">
<ele>320.473</ele>
<time>2019-05-30T10:48:28Z</time>
</trkpt>
<trkpt lat="49.499954" lon="10.366267">
<ele>320.541</ele>
<time>2019-05-30T10:48:29Z</time>
</trkpt>
<trkpt lat="49.499989" lon="10.366205">
<ele>320.585</ele>
<time>2019-05-30T10:48:30Z</time>
</trkpt>
<trkpt lat="49.500023" lon="10.366143">
<ele>320.606</ele>
<time>2019-05-30T10:48:31Z</time>
</trkpt>
<trkpt lat="49.500061" lon="10.366081">
<ele>320.606</ele>
<time>2019-05-30T10:48:32Z</time>
</trkpt>
<trkpt lat="49.500095" lon="10.36602">
<ele>320.606</ele>
<time>2019-05-30T10:48:33Z</time>
</trkpt>
<trkpt lat="49.50013" lon="10.36596">
<ele>320.606</ele>
<time>2019-05-30T10:48:34Z</time>
</trkpt>
<trkpt lat="49.500168" lon="10.3659">
<ele>320.606</ele>
<time>2019-05-30T10:48:35Z</time>
</trkpt>
<trkpt lat="49.50021" lon="10.36584">
<ele>320.606</ele>
<time>2019-05-30T10:48:36Z</time>
</trkpt>
<trkpt lat="49.500244" lon="10.36578">
<ele>320.606</ele>
<time>2019-05-30T10:48:37Z</time>
</trkpt>
<trkpt lat="49.500286" lon="10.365718">
<ele>320.606</ele>
<time>2019-05-30T10:48:38Z</time>
</trkpt>
<trkpt lat="49.500324" lon="10.365658">
<ele>320.606</ele>
<time>2019-05-30T10:48:39Z</time>
</trkpt>
<trkpt lat="49.500366" lon="10.365599">
<ele>320.606</ele>
<time>2019-05-30T10:48:40Z</time>
</trkpt>
<trkpt lat="49.500404" lon="10.365539">
<ele>320.606</ele>
<time>2019-05-30T10:48:41Z</time>
</trkpt>
<trkpt lat="49.500446" lon="10.365478">
<ele>320.606</ele>
<time>2019-05-30T10:48:42Z</time>
</trkpt>
<trkpt lat="49.500492" lon="10.365418">
<ele>320.606</ele>
<time>2019-05-30T10:48:43Z</time>
</trkpt>
<trkpt lat="49.500534" lon="10.365356">
<ele>320.606</ele>
<time>2019-05-30T10:48:44Z</time>
</trkpt>
<trkpt lat="49.500572" lon="10.365295">
<ele>320.606</ele>
<time>2019-05-30T10:48:45Z</time>
</trkpt>
<trkpt lat="49.500618" lon="10.365233">
<ele>320.606</ele>
<time>2019-05-30T10:48:46Z</time>
</trkpt>
<trkpt lat="49.500664" lon="10.365171">
<ele>320.606</ele>
<time>2019-05-30T10:48:47Z</time>
</trkpt>
<trkpt lat="49.50071" lon="10.365111">
<ele>320.606</ele>
<time>2019-05-30T10:48:48Z</time>
</trkpt>
<trkpt lat="49.500751" lon="10.36505">
<ele>320.606</ele>
<time>2019-05-30T10:48:49Z</time>
</trkpt>
<trkpt lat="49.500797" lon="10.364988">
<ele>320.606</ele>
<time>2019-05-30T10:48:50Z</time>
</trkpt>
<trkpt lat="49.500839" lon="10.364926">
<ele>320.606</ele>
<time>2019-05-30T10:48:51Z</time>
</trkpt>
<trkpt lat="49.500885" lon="10.364865">
<ele>320.606</ele>
<time>2019-05-30T10:48:52Z</time>
</trkpt>
<trkpt lat="49.500927" lon="10.364803">
<ele>320.606</ele>
<time>2019-05-30T10:48:53Z</time>
</trkpt>
<trkpt lat="49.500973" lon="10.364743">
<ele>320.606</ele>
<time>2019-05-30T10:48:54Z</time>
</trkpt>
<trkpt lat="49.501015" lon="10.364683">
<ele>320.606</ele>
<time>2019-05-30T10:48:55Z</time>
</trkpt>
<trkpt lat="49.501057" lon="10.364622">
<ele>320.606</ele>
<time>2019-05-30T10:48:56Z</time>
</trkpt>
<trkpt lat="49.501102" lon="10.364562">
<ele>320.832</ele>
<time>2019-05-30T10:48:57Z</time>
</trkpt>
<trkpt lat="49.501144" lon="10.364499">
<ele>321.021</ele>
<time>2019-05-30T10:48:58Z</time>
</trkpt>
<trkpt lat="49.501186" lon="10.364434">
<ele>321.179</ele>
<time>2019-05-30T10:48:59Z</time>
</trkpt>
<trkpt lat="49.501228" lon="10.364371">
<ele>321.304</ele>
<time>2019-05-30T10:49:00Z</time>
</trkpt>
<trkpt lat="49.50127" lon="10.364308">
<ele>321.402</ele>
<time>2019-05-30T10:49:01Z</time>
</trkpt>
<trkpt lat="49.501312" lon="10.364244">
<ele>321.472</ele>
<time>2019-05-30T10:49:02Z</time>
</trkpt>
<trkpt lat="49.50135" lon="10.364179">
<ele>321.517</ele>
<time>2019-05-30T10:49:03Z</time>
</trkpt>
<trkpt lat="49.501385" lon="10.364112">
<ele>321.539</ele>
<time>2019-05-30T10:49:04Z</time>
</trkpt>
<trkpt lat="49.501423" lon="10.364048">
<ele>321.539</ele>
<time>2019-05-30T10:49:05Z</time>
</trkpt>
<trkpt lat="49.501461" lon="10.363983">
<ele>321.539</ele>
<time>2019-05-30T10:49:06Z</time>
</trkpt>
<trkpt lat="49.501492" lon="10.363918">
<ele>321.539</ele>
<time>2019-05-30T10:49:07Z</time>
</trkpt>
<trkpt lat="49.501526" lon="10.363852">
<ele>321.539</ele>
<time>2019-05-30T10:49:08Z</time>
</trkpt>
<trkpt lat="49.501556" lon="10.363787">
<ele>321.539</ele>
<time>2019-05-30T10:49:09Z</time>
</trkpt>
<trkpt lat="49.501591" lon="10.36372">
<ele>321.539</ele>
<time>2019-05-30T10:49:10Z</time>
</trkpt>
<trkpt lat="49.501621" lon="10.363655">
<ele>321.539</ele>
<time>2019-05-30T10:49:11Z</time>
</trkpt>
<trkpt lat="49.501652" lon="10.363588">
<ele>321.539</ele>
<time>2019-05-30T10:49:12Z</time>
</trkpt>
<trkpt lat="49.501682" lon="10.363524">
<ele>321.539</ele>
<time>2019-05-30T10:49:13Z</time>
</trkpt>
<trkpt lat="49.501713" lon="10.36346">
<ele>321.539</ele>
<time>2019-05-30T10:49:14Z</time>
</trkpt>
<trkpt lat="49.501743" lon="10.363397">
<ele>321.784</ele>
<time>2019-05-30T10:49:15Z</time>
</trkpt>
<trkpt lat="49.501774" lon="10.363335">
<ele>321.96</ele>
<time>2019-05-30T10:49:16Z</time>
</trkpt>
<trkpt lat="49.501812" lon="10.363286">
<ele>322.14</ele>
<time>2019-05-30T10:49:17Z</time>
</trkpt>
<trkpt lat="49.50185" lon="10.36327">
<ele>322.283</ele>
<time>2019-05-30T10:49:18Z</time>
</trkpt>
<trkpt lat="49.501896" lon="10.363278">
<ele>322.395</ele>
<time>2019-05-30T10:49:19Z</time>
</trkpt>
<trkpt lat="49.501938" lon="10.36328">
<ele>322.476</ele>
<time>2019-05-30T10:49:20Z</time>
</trkpt>
<trkpt lat="49.501984" lon="10.363258">
<ele>322.53</ele>
<time>2019-05-30T10:49:21Z</time>
</trkpt>
<trkpt lat="49.502026" lon="10.363216">
<ele>322.557</ele>
<time>2019-05-30T10:49:22Z</time>
</trkpt>
<trkpt lat="49.502056" lon="10.36316">
<ele>322.557</ele>
<time>2019-05-30T10:49:23Z</time>
</trkpt>
<trkpt lat="49.502087" lon="10.363091">
<ele>322.557</ele>
<time>2019-05-30T10:49:24Z</time>
</trkpt>
<trkpt lat="49.502106" lon="10.363018">
<ele>322.557</ele>
<time>2019-05-30T10:49:25Z</time>
</trkpt>
<trkpt lat="49.502129" lon="10.362942">
<ele>322.557</ele>
<time>2019-05-30T10:49:26Z</time>
</trkpt>
<trkpt lat="49.502148" lon="10.362864">
<ele>322.557</ele>
<time>2019-05-30T10:49:27Z</time>
</trkpt>
<trkpt lat="49.502167" lon="10.362787">
<ele>322.557</ele>
<time>2019-05-30T10:49:28Z</time>
</trkpt>
<trkpt lat="49.502186" lon="10.362708">
<ele>322.557</ele>
<time>2019-05-30T10:49:29Z</time>
</trkpt>
<trkpt lat="49.502205" lon="10.362632">
<ele>322.557</ele>
<time>2019-05-30T10:49:30Z</time>
</trkpt>
<trkpt lat="49.502224" lon="10.362555">
<ele>322.557</ele>
<time>2019-05-30T10:49:31Z</time>
</trkpt>
<trkpt lat="49.502243" lon="10.36248">
<ele>322.557</ele>
<time>2019-05-30T10:49:32Z</time>
</trkpt>
<trkpt lat="49.502266" lon="10.362405">
<ele>322.557</ele>
<time>2019-05-30T10:49:33Z</time>
</trkpt>
<trkpt lat="49.502293" lon="10.362333">
<ele>322.557</ele>
<time>2019-05-30T10:49:34Z</time>
</trkpt>
<trkpt lat="49.502319" lon="10.36226">
<ele>322.557</ele>
<time>2019-05-30T10:49:35Z</time>
</trkpt>
<trkpt lat="49.502346" lon="10.362188">
<ele>322.557</ele>
<time>2019-05-30T10:49:36Z</time>
</trkpt>
<trkpt lat="49.502377" lon="10.362117">
<ele>322.557</ele>
<time>2019-05-30T10:49:37Z</time>
</trkpt>
<trkpt lat="49.502407" lon="10.362045">
<ele>322.557</ele>
<time>2019-05-30T10:49:38Z</time>
</trkpt>
<trkpt lat="49.502438" lon="10.361973">
<ele>322.557</ele>
<time>2019-05-30T10:49:39Z</time>
</trkpt>
<trkpt lat="49.502468" lon="10.361899">
<ele>322.557</ele>
<time>2019-05-30T10:49:40Z</time>
</trkpt>
<trkpt lat="49.502499" lon="10.361826">
<ele>322.557</ele>
<time>2019-05-30T10:49:41Z</time>
</trkpt>
<trkpt lat="49.502529" lon="10.361754">
<ele>322.557</ele>
<time>2019-05-30T10:49:42Z</time>
</trkpt>
<trkpt lat="49.50256" lon="10.361683">
<ele>322.557</ele>
<time>2019-05-30T10:49:43Z</time>
</trkpt>
<trkpt lat="49.50259" lon="10.361613">
<ele>322.557</ele>
<time>2019-05-30T10:49:44Z</time>
</trkpt>
<trkpt lat="49.502621" lon="10.361545">
<ele>322.557</ele>
<time>2019-05-30T10:49:45Z</time>
</trkpt>
<trkpt lat="49.502651" lon="10.361476">
<ele>322.557</ele>
<time>2019-05-30T10:49:46Z</time>
</trkpt>
<trkpt lat="49.502682" lon="10.361406">
<ele>322.781</ele>
<time>2019-05-30T10:49:47Z</time>
</trkpt>
<trkpt lat="49.502708" lon="10.36134">
<ele>322.969</ele>
<time>2019-05-30T10:49:48Z</time>
</trkpt>
<trkpt lat="49.502735" lon="10.361272">
<ele>323.126</ele>
<time>2019-05-30T10:49:49Z</time>
</trkpt>
<trkpt lat="49.502762" lon="10.361205">
<ele>323.253</ele>
<time>2019-05-30T10:49:50Z</time>
</trkpt>
<trkpt lat="49.502792" lon="10.361138">
<ele>323.35</ele>
<time>2019-05-30T10:49:51Z</time>
</trkpt>
<trkpt lat="49.502815" lon="10.361072">
<ele>323.422</ele>
<time>2019-05-30T10:49:52Z</time>
</trkpt>
<trkpt lat="49.50285" lon="10.361003">
<ele>323.468</ele>
<time>2019-05-30T10:49:53Z</time>
</trkpt>
<trkpt lat="49.502872" lon="10.360938">
<ele>323.49</ele>
<time>2019-05-30T10:49:54Z</time>
</trkpt>
<trkpt lat="49.502903" lon="10.360875">
<ele>323.49</ele>
<time>2019-05-30T10:49:55Z</time>
</trkpt>
<trkpt lat="49.502926" lon="10.360813">
<ele>323.696</ele>
<time>2019-05-30T10:49:56Z</time>
</trkpt>
<trkpt lat="49.502949" lon="10.36076">
<ele>323.887</ele>
<time>2019-05-30T10:49:57Z</time>
</trkpt>
<trkpt lat="49.502968" lon="10.360706">
<ele>324.045</ele>
<time>2019-05-30T10:49:58Z</time>
</trkpt>
<trkpt lat="49.502991" lon="10.360652">
<ele>324.173</ele>
<time>2019-05-30T10:49:59Z</time>
</trkpt>
<trkpt lat="49.503014" lon="10.360596">
<ele>324.259</ele>
<time>2019-05-30T10:50:00Z</time>
</trkpt>
<trkpt lat="49.503044" lon="10.360535">
<ele>324.56</ele>
<time>2019-05-30T10:50:01Z</time>
</trkpt>
<trkpt lat="49.503075" lon="10.360474">
<ele>324.808</ele>
<time>2019-05-30T10:50:02Z</time>
</trkpt>
<trkpt lat="49.503101" lon="10.36041">
<ele>324.997</ele>
<time>2019-05-30T10:50:03Z</time>
</trkpt>
<trkpt lat="49.503128" lon="10.360343">
<ele>325.145</ele>
<time>2019-05-30T10:50:04Z</time>
</trkpt>
<trkpt lat="49.503155" lon="10.36028">
<ele>325.231</ele>
<time>2019-05-30T10:50:05Z</time>
</trkpt>
<trkpt lat="49.503181" lon="10.360213">
<ele>325.285</ele>
<time>2019-05-30T10:50:06Z</time>
</trkpt>
<trkpt lat="49.503212" lon="10.360147">
<ele>325.334</ele>
<time>2019-05-30T10:50:07Z</time>
</trkpt>
<trkpt lat="49.503239" lon="10.360082">
<ele>325.357</ele>
<time>2019-05-30T10:50:08Z</time>
</trkpt>
<trkpt lat="49.503269" lon="10.360017">
<ele>325.357</ele>
<time>2019-05-30T10:50:09Z</time>
</trkpt>
<trkpt lat="49.503296" lon="10.359952">
<ele>325.357</ele>
<time>2019-05-30T10:50:10Z</time>
</trkpt>
<trkpt lat="49.503323" lon="10.359886">
<ele>325.357</ele>
<time>2019-05-30T10:50:11Z</time>
</trkpt>
<trkpt lat="49.503349" lon="10.359821">
<ele>325.357</ele>
<time>2019-05-30T10:50:12Z</time>
</trkpt>
<trkpt lat="49.503376" lon="10.359756">
<ele>325.357</ele>
<time>2019-05-30T10:50:13Z</time>
</trkpt>
<trkpt lat="49.503407" lon="10.359692">
<ele>325.357</ele>
<time>2019-05-30T10:50:14Z</time>
</trkpt>
<trkpt lat="49.503437" lon="10.359626">
<ele>325.357</ele>
<time>2019-05-30T10:50:15Z</time>
</trkpt>
<trkpt lat="49.503464" lon="10.35956">
<ele>325.357</ele>
<time>2019-05-30T10:50:16Z</time>
</trkpt>
<trkpt lat="49.503494" lon="10.359493">
<ele>325.357</ele>
<time>2019-05-30T10:50:17Z</time>
</trkpt>
<trkpt lat="49.503525" lon="10.359426">
<ele>325.664</ele>
<time>2019-05-30T10:50:18Z</time>
</trkpt>
<trkpt lat="49.503555" lon="10.35936">
<ele>325.901</ele>
<time>2019-05-30T10:50:19Z</time>
</trkpt>
<trkpt lat="49.503582" lon="10.359295">
<ele>326.078</ele>
<time>2019-05-30T10:50:20Z</time>
</trkpt>
<trkpt lat="49.503613" lon="10.359228">
<ele>326.207</ele>
<time>2019-05-30T10:50:21Z</time>
</trkpt>
<trkpt lat="49.503639" lon="10.359161">
<ele>326.295</ele>
<time>2019-05-30T10:50:22Z</time>
</trkpt>
<trkpt lat="49.503666" lon="10.359094">
<ele>326.35</ele>
<time>2019-05-30T10:50:23Z</time>
</trkpt>
<trkpt lat="49.503696" lon="10.359027">
<ele>326.375</ele>
<time>2019-05-30T10:50:24Z</time>
</trkpt>
<trkpt lat="49.503727" lon="10.35896">
<ele>326.375</ele>
<time>2019-05-30T10:50:25Z</time>
</trkpt>
<trkpt lat="49.503757" lon="10.358895">
<ele>326.375</ele>
<time>2019-05-30T10:50:26Z</time>
</trkpt>
<trkpt lat="49.503784" lon="10.358829">
<ele>326.375</ele>
<time>2019-05-30T10:50:27Z</time>
</trkpt>
<trkpt lat="49.503811" lon="10.358767">
<ele>326.375</ele>
<time>2019-05-30T10:50:28Z</time>
</trkpt>
<trkpt lat="49.503841" lon="10.358704">
<ele>326.692</ele>
<time>2019-05-30T10:50:29Z</time>
</trkpt>
<trkpt lat="49.503864" lon="10.35864">
<ele>326.936</ele>
<time>2019-05-30T10:50:30Z</time>
</trkpt>
<trkpt lat="49.503891" lon="10.358579">
<ele>327.126</ele>
<time>2019-05-30T10:50:31Z</time>
</trkpt>
<trkpt lat="49.503922" lon="10.358515">
<ele>327.265</ele>
<time>2019-05-30T10:50:32Z</time>
</trkpt>
<trkpt lat="49.503948" lon="10.358455">
<ele>327.363</ele>
<time>2019-05-30T10:50:33Z</time>
</trkpt>
<trkpt lat="49.503975" lon="10.358394">
<ele>327.414</ele>
<time>2019-05-30T10:50:34Z</time>
</trkpt>
<trkpt lat="49.503998" lon="10.358334">
<ele>327.692</ele>
<time>2019-05-30T10:50:35Z</time>
</trkpt>
<trkpt lat="49.504025" lon="10.358272">
<ele>327.899</ele>
<time>2019-05-30T10:50:36Z</time>
</trkpt>
<trkpt lat="49.504051" lon="10.358212">
<ele>328.08</ele>
<time>2019-05-30T10:50:37Z</time>
</trkpt>
<trkpt lat="49.504078" lon="10.358151">
<ele>328.226</ele>
<time>2019-05-30T10:50:38Z</time>
</trkpt>
<trkpt lat="49.504101" lon="10.358092">
<ele>328.326</ele>
<time>2019-05-30T10:50:39Z</time>
</trkpt>
<trkpt lat="49.504124" lon="10.358033">
<ele>328.637</ele>
<time>2019-05-30T10:50:40Z</time>
</trkpt>
<trkpt lat="49.504154" lon="10.357975">
<ele>328.884</ele>
<time>2019-05-30T10:50:41Z</time>
</trkpt>
<trkpt lat="49.504177" lon="10.357917">
<ele>329.067</ele>
<time>2019-05-30T10:50:42Z</time>
</trkpt>
<trkpt lat="49.5042" lon="10.357858">
<ele>329.227</ele>
<time>2019-05-30T10:50:43Z</time>
</trkpt>
<trkpt lat="49.504223" lon="10.3578">
<ele>329.311</ele>
<time>2019-05-30T10:50:44Z</time>
</trkpt>
<trkpt lat="49.50425" lon="10.357738">
<ele>329.363</ele>
<time>2019-05-30T10:50:45Z</time>
</trkpt>
<trkpt lat="49.504276" lon="10.357677">
<ele>329.404</ele>
<time>2019-05-30T10:50:46Z</time>
</trkpt>
<trkpt lat="49.504303" lon="10.357618">
<ele>329.43</ele>
<time>2019-05-30T10:50:47Z</time>
</trkpt>
<trkpt lat="49.50433" lon="10.357556">
<ele>329.712</ele>
<time>2019-05-30T10:50:48Z</time>
</trkpt>
<trkpt lat="49.504353" lon="10.357497">
<ele>329.927</ele>
<time>2019-05-30T10:50:49Z</time>
</trkpt>
<trkpt lat="49.504383" lon="10.357436">
<ele>330.09</ele>
<time>2019-05-30T10:50:50Z</time>
</trkpt>
<trkpt lat="49.504406" lon="10.357378">
<ele>330.207</ele>
<time>2019-05-30T10:50:51Z</time>
</trkpt>
<trkpt lat="49.504436" lon="10.357319">
<ele>330.287</ele>
<time>2019-05-30T10:50:52Z</time>
</trkpt>
<trkpt lat="49.504463" lon="10.357259">
<ele>330.331</ele>
<time>2019-05-30T10:50:53Z</time>
</trkpt>
<trkpt lat="49.50449" lon="10.357198">
<ele>330.592</ele>
<time>2019-05-30T10:50:54Z</time>
</trkpt>
<trkpt lat="49.504517" lon="10.357139">
<ele>330.782</ele>
<time>2019-05-30T10:50:55Z</time>
</trkpt>
<trkpt lat="49.504543" lon="10.357079">
<ele>330.909</ele>
<time>2019-05-30T10:50:56Z</time>
</trkpt>
<trkpt lat="49.504578" lon="10.357019">
<ele>331.047</ele>
<time>2019-05-30T10:50:57Z</time>
</trkpt>
<trkpt lat="49.504604" lon="10.356961">
<ele>331.151</ele>
<time>2019-05-30T10:50:58Z</time>
</trkpt>
<trkpt lat="49.504635" lon="10.356905">
<ele>331.221</ele>
<time>2019-05-30T10:50:59Z</time>
</trkpt>
<trkpt lat="49.504665" lon="10.35685">
<ele>331.499</ele>
<time>2019-05-30T10:51:00Z</time>
</trkpt>
<trkpt lat="49.504692" lon="10.356795">
<ele>331.715</ele>
<time>2019-05-30T10:51:01Z</time>
</trkpt>
<trkpt lat="49.504723" lon="10.356737">
<ele>331.919</ele>
<time>2019-05-30T10:51:02Z</time>
</trkpt>
<trkpt lat="49.504753" lon="10.356678">
<ele>332.035</ele>
<time>2019-05-30T10:51:03Z</time>
</trkpt>
<trkpt lat="49.504784" lon="10.35662">
<ele>332.111</ele>
<time>2019-05-30T10:51:04Z</time>
</trkpt>
<trkpt lat="49.504818" lon="10.356564">
<ele>332.165</ele>
<time>2019-05-30T10:51:05Z</time>
</trkpt>
<trkpt lat="49.504848" lon="10.356506">
<ele>332.206</ele>
<time>2019-05-30T10:51:06Z</time>
</trkpt>
<trkpt lat="49.504883" lon="10.35645">
<ele>332.232</ele>
<time>2019-05-30T10:51:07Z</time>
</trkpt>
<trkpt lat="49.504917" lon="10.356395">
<ele>332.232</ele>
<time>2019-05-30T10:51:08Z</time>
</trkpt>
<trkpt lat="49.504955" lon="10.356341">
<ele>332.232</ele>
<time>2019-05-30T10:51:09Z</time>
</trkpt>
<trkpt lat="49.50499" lon="10.356288">
<ele>332.232</ele>
<time>2019-05-30T10:51:10Z</time>
</trkpt>
<trkpt lat="49.505028" lon="10.356236">
<ele>332.488</ele>
<time>2019-05-30T10:51:11Z</time>
</trkpt>
<trkpt lat="49.505062" lon="10.356183">
<ele>332.686</ele>
<time>2019-05-30T10:51:12Z</time>
</trkpt>
<trkpt lat="49.505096" lon="10.35613">
<ele>332.838</ele>
<time>2019-05-30T10:51:13Z</time>
</trkpt>
<trkpt lat="49.505131" lon="10.356078">
<ele>332.947</ele>
<time>2019-05-30T10:51:14Z</time>
</trkpt>
<trkpt lat="49.505165" lon="10.35603">
<ele>333.029</ele>
<time>2019-05-30T10:51:15Z</time>
</trkpt>
<trkpt lat="49.505203" lon="10.355983">
<ele>333.088</ele>
<time>2019-05-30T10:51:16Z</time>
</trkpt>
<trkpt lat="49.505238" lon="10.355938">
<ele>333.141</ele>
<time>2019-05-30T10:51:17Z</time>
</trkpt>
<trkpt lat="49.505276" lon="10.355893">
<ele>333.166</ele>
<time>2019-05-30T10:51:18Z</time>
</trkpt>
<trkpt lat="49.50531" lon="10.355844">
<ele>333.432</ele>
<time>2019-05-30T10:51:19Z</time>
</trkpt>
<trkpt lat="49.505344" lon="10.3558">
<ele>333.641</ele>
<time>2019-05-30T10:51:20Z</time>
</trkpt>
<trkpt lat="49.505379" lon="10.355757">
<ele>333.8</ele>
<time>2019-05-30T10:51:21Z</time>
</trkpt>
<trkpt lat="49.505417" lon="10.355714">
<ele>333.92</ele>
<time>2019-05-30T10:51:22Z</time>
</trkpt>
<trkpt lat="49.505455" lon="10.355672">
<ele>334.002</ele>
<time>2019-05-30T10:51:23Z</time>
</trkpt>
<trkpt lat="49.505493" lon="10.35563">
<ele>334.05</ele>
<time>2019-05-30T10:51:24Z</time>
</trkpt>
<trkpt lat="49.505531" lon="10.355587">
<ele>334.079</ele>
<time>2019-05-30T10:51:25Z</time>
</trkpt>
<trkpt lat="49.505573" lon="10.355543">
<ele>334.1</ele>
<time>2019-05-30T10:51:26Z</time>
</trkpt>
<trkpt lat="49.505611" lon="10.355502">
<ele>334.351</ele>
<time>2019-05-30T10:51:27Z</time>
</trkpt>
<trkpt lat="49.505653" lon="10.355463">
<ele>334.56</ele>
<time>2019-05-30T10:51:28Z</time>
</trkpt>
<trkpt lat="49.505684" lon="10.355427">
<ele>334.731</ele>
<time>2019-05-30T10:51:29Z</time>
</trkpt>
<trkpt lat="49.505722" lon="10.355388">
<ele>334.838</ele>
<time>2019-05-30T10:51:30Z</time>
</trkpt>
<trkpt lat="49.50576" lon="10.355351">
<ele>335.177</ele>
<time>2019-05-30T10:51:31Z</time>
</trkpt>
<trkpt lat="49.505795" lon="10.355314">
<ele>335.448</ele>
<time>2019-05-30T10:51:32Z</time>
</trkpt>
<trkpt lat="49.505829" lon="10.355278">
<ele>335.656</ele>
<time>2019-05-30T10:51:33Z</time>
</trkpt>
<trkpt lat="49.505863" lon="10.355243">
<ele>335.786</ele>
<time>2019-05-30T10:51:34Z</time>
</trkpt>
<trkpt lat="49.505898" lon="10.355213">
<ele>336.096</ele>
<time>2019-05-30T10:51:35Z</time>
</trkpt>
<trkpt lat="49.505932" lon="10.355184">
<ele>336.322</ele>
<time>2019-05-30T10:51:36Z</time>
</trkpt>
<trkpt lat="49.505966" lon="10.35515">
<ele>336.527</ele>
<time>2019-05-30T10:51:37Z</time>
</trkpt>
<trkpt lat="49.506001" lon="10.355119">
<ele>336.674</ele>
<time>2019-05-30T10:51:38Z</time>
</trkpt>
<trkpt lat="49.506039" lon="10.355085">
<ele>336.758</ele>
<time>2019-05-30T10:51:39Z</time>
</trkpt>
<trkpt lat="49.506073" lon="10.355057">
<ele>337.059</ele>
<time>2019-05-30T10:51:40Z</time>
</trkpt>
<trkpt lat="49.506111" lon="10.355027">
<ele>337.299</ele>
<time>2019-05-30T10:51:41Z</time>
</trkpt>
<trkpt lat="49.506145" lon="10.354998">
<ele>337.479</ele>
<time>2019-05-30T10:51:42Z</time>
</trkpt>
<trkpt lat="49.506184" lon="10.35497">
<ele>337.643</ele>
<time>2019-05-30T10:51:43Z</time>
</trkpt>
<trkpt lat="49.506222" lon="10.354939">
<ele>337.706</ele>
<time>2019-05-30T10:51:44Z</time>
</trkpt>
<trkpt lat="49.506256" lon="10.35491">
<ele>337.991</ele>
<time>2019-05-30T10:51:45Z</time>
</trkpt>
<trkpt lat="49.506294" lon="10.354878">
<ele>338.202</ele>
<time>2019-05-30T10:51:46Z</time>
</trkpt>
<trkpt lat="49.506329" lon="10.354847">
<ele>338.392</ele>
<time>2019-05-30T10:51:47Z</time>
</trkpt>
<trkpt lat="49.506363" lon="10.354815">
<ele>338.525</ele>
<time>2019-05-30T10:51:48Z</time>
</trkpt>
<trkpt lat="49.506401" lon="10.354778">
<ele>338.626</ele>
<time>2019-05-30T10:51:49Z</time>
</trkpt>
<trkpt lat="49.506435" lon="10.354736">
<ele>338.702</ele>
<time>2019-05-30T10:51:50Z</time>
</trkpt>
<trkpt lat="49.506481" lon="10.35469">
<ele>338.75</ele>
<time>2019-05-30T10:51:51Z</time>
</trkpt>
<trkpt lat="49.506527" lon="10.354638">
<ele>338.766</ele>
<time>2019-05-30T10:51:52Z</time>
</trkpt>
<trkpt lat="49.506573" lon="10.354581">
<ele>338.539</ele>
<time>2019-05-30T10:51:53Z</time>
</trkpt>
<trkpt lat="49.50663" lon="10.354524">
<ele>338.073</ele>
<time>2019-05-30T10:51:54Z</time>
</trkpt>
<trkpt lat="49.506683" lon="10.354464">
<ele>337.778</ele>
<time>2019-05-30T10:51:55Z</time>
</trkpt>
<trkpt lat="49.506741" lon="10.354402">
<ele>337.283</ele>
<time>2019-05-30T10:51:56Z</time>
</trkpt>
<trkpt lat="49.506798" lon="10.354342">
<ele>336.89</ele>
<time>2019-05-30T10:51:57Z</time>
</trkpt>
<trkpt lat="49.506851" lon="10.354281">
<ele>336.326</ele>
<time>2019-05-30T10:51:58Z</time>
</trkpt>
<trkpt lat="49.506905" lon="10.354225">
<ele>335.958</ele>
<time>2019-05-30T10:51:59Z</time>
</trkpt>
<trkpt lat="49.506954" lon="10.354172">
<ele>335.411</ele>
<time>2019-05-30T10:52:00Z</time>
</trkpt>
<trkpt lat="49.507" lon="10.354118">
<ele>335.01</ele>
<time>2019-05-30T10:52:01Z</time>
</trkpt>
<trkpt lat="49.507046" lon="10.354059">
<ele>334.76</ele>
<time>2019-05-30T10:52:02Z</time>
</trkpt>
<trkpt lat="49.507084" lon="10.353988">
<ele>334.286</ele>
<time>2019-05-30T10:52:03Z</time>
</trkpt>
<trkpt lat="49.507107" lon="10.353902">
<ele>333.909</ele>
<time>2019-05-30T10:52:04Z</time>
</trkpt>
<trkpt lat="49.507114" lon="10.353804">
<ele>333.427</ele>
<time>2019-05-30T10:52:05Z</time>
</trkpt>
<trkpt lat="49.507111" lon="10.353703">
<ele>333.063</ele>
<time>2019-05-30T10:52:06Z</time>
</trkpt>
<trkpt lat="49.507111" lon="10.353602">
<ele>332.725</ele>
<time>2019-05-30T10:52:07Z</time>
</trkpt>
<trkpt lat="49.507114" lon="10.3535">
<ele>332.488</ele>
<time>2019-05-30T10:52:08Z</time>
</trkpt>
<trkpt lat="49.50713" lon="10.353401">
<ele>332.324</ele>
<time>2019-05-30T10:52:09Z</time>
</trkpt>
<trkpt lat="49.507156" lon="10.353309">
<ele>332.229</ele>
<time>2019-05-30T10:52:10Z</time>
</trkpt>
<trkpt lat="49.507187" lon="10.353222">
<ele>331.921</ele>
<time>2019-05-30T10:52:11Z</time>
</trkpt>
<trkpt lat="49.507214" lon="10.353142">
<ele>331.911</ele>
<time>2019-05-30T10:52:12Z</time>
</trkpt>
<trkpt lat="49.50724" lon="10.353065">
<ele>331.914</ele>
<time>2019-05-30T10:52:13Z</time>
</trkpt>
<trkpt lat="49.507267" lon="10.352991">
<ele>331.937</ele>
<time>2019-05-30T10:52:14Z</time>
</trkpt>
<trkpt lat="49.507298" lon="10.352918">
<ele>331.958</ele>
<time>2019-05-30T10:52:15Z</time>
</trkpt>
<trkpt lat="49.507328" lon="10.352845">
<ele>331.976</ele>
<time>2019-05-30T10:52:16Z</time>
</trkpt>
<trkpt lat="49.507355" lon="10.352772">
<ele>331.995</ele>
<time>2019-05-30T10:52:17Z</time>
</trkpt>
<trkpt lat="49.507381" lon="10.352699">
<ele>332.016</ele>
<time>2019-05-30T10:52:18Z</time>
</trkpt>
<trkpt lat="49.507404" lon="10.352625">
<ele>332.036</ele>
<time>2019-05-30T10:52:19Z</time>
</trkpt>
<trkpt lat="49.507427" lon="10.352547">
<ele>332.062</ele>
<time>2019-05-30T10:52:20Z</time>
</trkpt>
<trkpt lat="49.507454" lon="10.35246">
<ele>332.062</ele>
<time>2019-05-30T10:52:21Z</time>
</trkpt>
<trkpt lat="49.507481" lon="10.35236">
<ele>332.062</ele>
<time>2019-05-30T10:52:22Z</time>
</trkpt>
<trkpt lat="49.507511" lon="10.352248">
<ele>331.794</ele>
<time>2019-05-30T10:52:23Z</time>
</trkpt>
<trkpt lat="49.507542" lon="10.352127">
<ele>331.137</ele>
<time>2019-05-30T10:52:24Z</time>
</trkpt>
<trkpt lat="49.507576" lon="10.352">
<ele>330.212</ele>
<time>2019-05-30T10:52:25Z</time>
</trkpt>
<trkpt lat="49.507614" lon="10.351871">
<ele>329.584</ele>
<time>2019-05-30T10:52:26Z</time>
</trkpt>
<trkpt lat="49.507652" lon="10.351744">
<ele>328.727</ele>
<time>2019-05-30T10:52:27Z</time>
</trkpt>
<trkpt lat="49.507694" lon="10.351619">
<ele>328.182</ele>
<time>2019-05-30T10:52:28Z</time>
</trkpt>
<trkpt lat="49.50774" lon="10.351499">
<ele>327.428</ele>
<time>2019-05-30T10:52:29Z</time>
</trkpt>
<trkpt lat="49.507782" lon="10.351386">
<ele>326.895</ele>
<time>2019-05-30T10:52:30Z</time>
</trkpt>
<trkpt lat="49.507832" lon="10.351287">
<ele>326.531</ele>
<time>2019-05-30T10:52:31Z</time>
</trkpt>
<trkpt lat="49.507885" lon="10.351198">
<ele>326.296</ele>
<time>2019-05-30T10:52:32Z</time>
</trkpt>
<trkpt lat="49.507931" lon="10.351113">
<ele>326.139</ele>
<time>2019-05-30T10:52:33Z</time>
</trkpt>
<trkpt lat="49.507965" lon="10.351027">
<ele>326.033</ele>
<time>2019-05-30T10:52:34Z</time>
</trkpt>
<trkpt lat="49.507988" lon="10.35094">
<ele>325.978</ele>
<time>2019-05-30T10:52:35Z</time>
</trkpt>
<trkpt lat="49.508003" lon="10.35085">
<ele>325.95</ele>
<time>2019-05-30T10:52:36Z</time>
</trkpt>
<trkpt lat="49.508015" lon="10.350763">
<ele>325.95</ele>
<time>2019-05-30T10:52:37Z</time>
</trkpt>
<trkpt lat="49.50803" lon="10.350676">
<ele>325.95</ele>
<time>2019-05-30T10:52:38Z</time>
</trkpt>
<trkpt lat="49.508045" lon="10.350587">
<ele>325.676</ele>
<time>2019-05-30T10:52:39Z</time>
</trkpt>
<trkpt lat="49.508068" lon="10.3505">
<ele>325.447</ele>
<time>2019-05-30T10:52:40Z</time>
</trkpt>
<trkpt lat="49.508091" lon="10.350415">
<ele>325.265</ele>
<time>2019-05-30T10:52:41Z</time>
</trkpt>
<trkpt lat="49.508118" lon="10.350333">
<ele>325.131</ele>
<time>2019-05-30T10:52:42Z</time>
</trkpt>
<trkpt lat="49.508148" lon="10.350253">
<ele>325.037</ele>
<time>2019-05-30T10:52:43Z</time>
</trkpt>
<trkpt lat="49.508171" lon="10.350173">
<ele>324.981</ele>
<time>2019-05-30T10:52:44Z</time>
</trkpt>
<trkpt lat="49.508198" lon="10.350097">
<ele>324.955</ele>
<time>2019-05-30T10:52:45Z</time>
</trkpt>
<trkpt lat="49.508224" lon="10.350023">
<ele>324.932</ele>
<time>2019-05-30T10:52:46Z</time>
</trkpt>
<trkpt lat="49.508251" lon="10.34995">
<ele>324.932</ele>
<time>2019-05-30T10:52:47Z</time>
</trkpt>
<trkpt lat="49.508278" lon="10.349877">
<ele>324.932</ele>
<time>2019-05-30T10:52:48Z</time>
</trkpt>
<trkpt lat="49.508297" lon="10.349805">
<ele>324.932</ele>
<time>2019-05-30T10:52:49Z</time>
</trkpt>
<trkpt lat="49.508327" lon="10.349733">
<ele>324.932</ele>
<time>2019-05-30T10:52:50Z</time>
</trkpt>
<trkpt lat="49.50835" lon="10.349664">
<ele>324.932</ele>
<time>2019-05-30T10:52:51Z</time>
</trkpt>
<trkpt lat="49.508373" lon="10.349592">
<ele>324.932</ele>
<time>2019-05-30T10:52:52Z</time>
</trkpt>
<trkpt lat="49.508396" lon="10.34952">
<ele>324.932</ele>
<time>2019-05-30T10:52:53Z</time>
</trkpt>
<trkpt lat="49.508423" lon="10.349446">
<ele>324.932</ele>
<time>2019-05-30T10:52:54Z</time>
</trkpt>
<trkpt lat="49.508446" lon="10.349377">
<ele>324.932</ele>
<time>2019-05-30T10:52:55Z</time>
</trkpt>
<trkpt lat="49.508476" lon="10.34931">
<ele>324.725</ele>
<time>2019-05-30T10:52:56Z</time>
</trkpt>
<trkpt lat="49.508507" lon="10.349249">
<ele>324.528</ele>
<time>2019-05-30T10:52:57Z</time>
</trkpt>
<trkpt lat="49.508537" lon="10.34919">
<ele>324.368</ele>
<time>2019-05-30T10:52:58Z</time>
</trkpt>
<trkpt lat="49.508575" lon="10.349135">
<ele>324.239</ele>
<time>2019-05-30T10:52:59Z</time>
</trkpt>
<trkpt lat="49.508614" lon="10.349083">
<ele>324.141</ele>
<time>2019-05-30T10:53:00Z</time>
</trkpt>
<trkpt lat="49.508648" lon="10.34903">
<ele>324.068</ele>
<time>2019-05-30T10:53:01Z</time>
</trkpt>
<trkpt lat="49.508678" lon="10.348973">
<ele>324.022</ele>
<time>2019-05-30T10:53:02Z</time>
</trkpt>
<trkpt lat="49.508709" lon="10.348913">
<ele>323.999</ele>
<time>2019-05-30T10:53:03Z</time>
</trkpt>
<trkpt lat="49.508736" lon="10.348851">
<ele>323.999</ele>
<time>2019-05-30T10:53:04Z</time>
</trkpt>
<trkpt lat="49.508755" lon="10.348785">
<ele>323.999</ele>
<time>2019-05-30T10:53:05Z</time>
</trkpt>
<trkpt lat="49.508778" lon="10.348717">
<ele>324.186</ele>
<time>2019-05-30T10:53:06Z</time>
</trkpt>
<trkpt lat="49.508789" lon="10.348647">
<ele>324.363</ele>
<time>2019-05-30T10:53:07Z</time>
</trkpt>
<trkpt lat="49.508801" lon="10.348575">
<ele>324.51</ele>
<time>2019-05-30T10:53:08Z</time>
</trkpt>
<trkpt lat="49.508812" lon="10.348505">
<ele>324.628</ele>
<time>2019-05-30T10:53:09Z</time>
</trkpt>
<trkpt lat="49.508823" lon="10.348435">
<ele>324.719</ele>
<time>2019-05-30T10:53:10Z</time>
</trkpt>
<trkpt lat="49.508839" lon="10.348365">
<ele>324.776</ele>
<time>2019-05-30T10:53:11Z</time>
</trkpt>
<trkpt lat="49.508854" lon="10.348298">
<ele>325.071</ele>
<time>2019-05-30T10:53:12Z</time>
</trkpt>
<trkpt lat="49.508877" lon="10.348235">
<ele>325.301</ele>
<time>2019-05-30T10:53:13Z</time>
</trkpt>
<trkpt lat="49.5089" lon="10.34817">
<ele>325.486</ele>
<time>2019-05-30T10:53:14Z</time>
</trkpt>
<trkpt lat="49.508923" lon="10.348106">
<ele>325.61</ele>
<time>2019-05-30T10:53:15Z</time>
</trkpt>
<trkpt lat="49.508945" lon="10.348044">
<ele>325.696</ele>
<time>2019-05-30T10:53:16Z</time>
</trkpt>
<trkpt lat="49.508976" lon="10.347985">
<ele>325.783</ele>
<time>2019-05-30T10:53:17Z</time>
</trkpt>
<trkpt lat="49.508999" lon="10.347923">
<ele>325.839</ele>
<time>2019-05-30T10:53:18Z</time>
</trkpt>
<trkpt lat="49.509026" lon="10.347861">
<ele>325.866</ele>
<time>2019-05-30T10:53:19Z</time>
</trkpt>
<trkpt lat="49.509048" lon="10.347798">
<ele>325.866</ele>
<time>2019-05-30T10:53:20Z</time>
</trkpt>
<trkpt lat="49.509075" lon="10.347734">
<ele>326.12</ele>
<time>2019-05-30T10:53:21Z</time>
</trkpt>
<trkpt lat="49.509102" lon="10.347675">
<ele>326.319</ele>
<time>2019-05-30T10:53:22Z</time>
</trkpt>
<trkpt lat="49.509125" lon="10.347615">
<ele>326.469</ele>
<time>2019-05-30T10:53:23Z</time>
</trkpt>
<trkpt lat="49.509151" lon="10.347555">
<ele>326.581</ele>
<time>2019-05-30T10:53:24Z</time>
</trkpt>
<trkpt lat="49.509178" lon="10.347493">
<ele>326.663</ele>
<time>2019-05-30T10:53:25Z</time>
</trkpt>
<trkpt lat="49.509205" lon="10.34743">
<ele>326.721</ele>
<time>2019-05-30T10:53:26Z</time>
</trkpt>
<trkpt lat="49.509239" lon="10.347367">
<ele>326.774</ele>
<time>2019-05-30T10:53:27Z</time>
</trkpt>
<trkpt lat="49.509274" lon="10.347302">
<ele>326.799</ele>
<time>2019-05-30T10:53:28Z</time>
</trkpt>
<trkpt lat="49.509312" lon="10.347235">
<ele>326.799</ele>
<time>2019-05-30T10:53:29Z</time>
</trkpt>
<trkpt lat="49.50935" lon="10.34717">
<ele>326.799</ele>
<time>2019-05-30T10:53:30Z</time>
</trkpt>
<trkpt lat="49.509392" lon="10.347101">
<ele>326.533</ele>
<time>2019-05-30T10:53:31Z</time>
</trkpt>
<trkpt lat="49.509426" lon="10.347026">
<ele>326.333</ele>
<time>2019-05-30T10:53:32Z</time>
</trkpt>
<trkpt lat="49.509449" lon="10.346942">
<ele>326.183</ele>
<time>2019-05-30T10:53:33Z</time>
</trkpt>
<trkpt lat="49.509468" lon="10.34685">
<ele>326.074</ele>
<time>2019-05-30T10:53:34Z</time>
</trkpt>
<trkpt lat="49.509476" lon="10.346755">
<ele>325.996</ele>
<time>2019-05-30T10:53:35Z</time>
</trkpt>
<trkpt lat="49.509487" lon="10.346663">
<ele>325.94</ele>
<time>2019-05-30T10:53:36Z</time>
</trkpt>
<trkpt lat="49.509506" lon="10.346575">
<ele>325.89</ele>
<time>2019-05-30T10:53:37Z</time>
</trkpt>
<trkpt lat="49.509533" lon="10.346494">
<ele>325.866</ele>
<time>2019-05-30T10:53:38Z</time>
</trkpt>
<trkpt lat="49.509563" lon="10.34642">
<ele>325.866</ele>
<time>2019-05-30T10:53:39Z</time>
</trkpt>
<trkpt lat="49.509594" lon="10.346349">
<ele>325.866</ele>
<time>2019-05-30T10:53:40Z</time>
</trkpt>
<trkpt lat="49.509624" lon="10.346278">
<ele>325.866</ele>
<time>2019-05-30T10:53:41Z</time>
</trkpt>
<trkpt lat="49.509655" lon="10.346207">
<ele>325.866</ele>
<time>2019-05-30T10:53:42Z</time>
</trkpt>
<trkpt lat="49.509686" lon="10.346138">
<ele>325.653</ele>
<time>2019-05-30T10:53:43Z</time>
</trkpt>
<trkpt lat="49.509712" lon="10.34607">
<ele>325.483</ele>
<time>2019-05-30T10:53:44Z</time>
</trkpt>
<trkpt lat="49.509739" lon="10.346002">
<ele>325.351</ele>
<time>2019-05-30T10:53:45Z</time>
</trkpt>
<trkpt lat="49.509766" lon="10.345933">
<ele>325.258</ele>
<time>2019-05-30T10:53:46Z</time>
</trkpt>
<trkpt lat="49.509792" lon="10.345865">
<ele>325.158</ele>
<time>2019-05-30T10:53:47Z</time>
</trkpt>
<trkpt lat="49.509823" lon="10.345797">
<ele>325.086</ele>
<time>2019-05-30T10:53:48Z</time>
</trkpt>
<trkpt lat="49.50985" lon="10.345732">
<ele>325.039</ele>
<time>2019-05-30T10:53:49Z</time>
</trkpt>
<trkpt lat="49.509876" lon="10.345665">
<ele>325.017</ele>
<time>2019-05-30T10:53:50Z</time>
</trkpt>
<trkpt lat="49.509899" lon="10.345599">
<ele>325.017</ele>
<time>2019-05-30T10:53:51Z</time>
</trkpt>
<trkpt lat="49.509926" lon="10.34553">
<ele>325.017</ele>
<time>2019-05-30T10:53:52Z</time>
</trkpt>
<trkpt lat="49.509953" lon="10.34546">
<ele>325.017</ele>
<time>2019-05-30T10:53:53Z</time>
</trkpt>
<trkpt lat="49.509979" lon="10.345391">
<ele>325.017</ele>
<time>2019-05-30T10:53:54Z</time>
</trkpt>
<trkpt lat="49.510002" lon="10.345325">
<ele>325.017</ele>
<time>2019-05-30T10:53:55Z</time>
</trkpt>
<trkpt lat="49.510025" lon="10.345258">
<ele>325.017</ele>
<time>2019-05-30T10:53:56Z</time>
</trkpt>
<trkpt lat="49.510052" lon="10.345192">
<ele>325.017</ele>
<time>2019-05-30T10:53:57Z</time>
</trkpt>
<trkpt lat="49.510078" lon="10.345126">
<ele>325.017</ele>
<time>2019-05-30T10:53:58Z</time>
</trkpt>
<trkpt lat="49.510105" lon="10.34506">
<ele>325.017</ele>
<time>2019-05-30T10:53:59Z</time>
</trkpt>
<trkpt lat="49.510128" lon="10.344994">
<ele>325.017</ele>
<time>2019-05-30T10:54:00Z</time>
</trkpt>
<trkpt lat="49.510151" lon="10.344927">
<ele>325.017</ele>
<time>2019-05-30T10:54:01Z</time>
</trkpt>
<trkpt lat="49.510178" lon="10.34486">
<ele>325.017</ele>
<time>2019-05-30T10:54:02Z</time>
</trkpt>
<trkpt lat="49.510197" lon="10.344793">
<ele>325.017</ele>
<time>2019-05-30T10:54:03Z</time>
</trkpt>
<trkpt lat="49.510216" lon="10.344729">
<ele>325.017</ele>
<time>2019-05-30T10:54:04Z</time>
</trkpt>
<trkpt lat="49.510235" lon="10.34466">
<ele>325.017</ele>
<time>2019-05-30T10:54:05Z</time>
</trkpt>
<trkpt lat="49.51025" lon="10.344588">
<ele>325.017</ele>
<time>2019-05-30T10:54:06Z</time>
</trkpt>
<trkpt lat="49.510258" lon="10.344515">
<ele>325.017</ele>
<time>2019-05-30T10:54:07Z</time>
</trkpt>
<trkpt lat="49.510273" lon="10.344445">
<ele>325.017</ele>
<time>2019-05-30T10:54:08Z</time>
</trkpt>
<trkpt lat="49.510288" lon="10.344377">
<ele>325.017</ele>
<time>2019-05-30T10:54:09Z</time>
</trkpt>
<trkpt lat="49.510307" lon="10.344307">
<ele>325.017</ele>
<time>2019-05-30T10:54:10Z</time>
</trkpt>
<trkpt lat="49.510323" lon="10.344235">
<ele>325.017</ele>
<time>2019-05-30T10:54:11Z</time>
</trkpt>
<trkpt lat="49.510342" lon="10.344165">
<ele>325.017</ele>
<time>2019-05-30T10:54:12Z</time>
</trkpt>
<trkpt lat="49.510353" lon="10.344095">
<ele>325.017</ele>
<time>2019-05-30T10:54:13Z</time>
</trkpt>
<trkpt lat="49.510372" lon="10.344026">
<ele>325.017</ele>
<time>2019-05-30T10:54:14Z</time>
</trkpt>
<trkpt lat="49.510384" lon="10.343953">
<ele>325.017</ele>
<time>2019-05-30T10:54:15Z</time>
</trkpt>
<trkpt lat="49.510395" lon="10.343884">
<ele>325.017</ele>
<time>2019-05-30T10:54:16Z</time>
</trkpt>
<trkpt lat="49.510414" lon="10.343814">
<ele>325.223</ele>
<time>2019-05-30T10:54:17Z</time>
</trkpt>
<trkpt lat="49.510422" lon="10.343741">
<ele>325.395</ele>
<time>2019-05-30T10:54:18Z</time>
</trkpt>
<trkpt lat="49.510437" lon="10.343668">
<ele>325.538</ele>
<time>2019-05-30T10:54:19Z</time>
</trkpt>
<trkpt lat="49.510448" lon="10.343596">
<ele>325.653</ele>
<time>2019-05-30T10:54:20Z</time>
</trkpt>
<trkpt lat="49.51046" lon="10.343523">
<ele>325.742</ele>
<time>2019-05-30T10:54:21Z</time>
</trkpt>
<trkpt lat="49.510475" lon="10.343448">
<ele>325.805</ele>
<time>2019-05-30T10:54:22Z</time>
</trkpt>
<trkpt lat="49.510483" lon="10.343373">
<ele>325.846</ele>
<time>2019-05-30T10:54:23Z</time>
</trkpt>
<trkpt lat="49.510494" lon="10.343297">
<ele>325.866</ele>
<time>2019-05-30T10:54:24Z</time>
</trkpt>
<trkpt lat="49.510509" lon="10.343222">
<ele>325.866</ele>
<time>2019-05-30T10:54:25Z</time>
</trkpt>
<trkpt lat="49.510517" lon="10.34315">
<ele>325.866</ele>
<time>2019-05-30T10:54:26Z</time>
</trkpt>
<trkpt lat="49.510525" lon="10.343077">
<ele>325.866</ele>
<time>2019-05-30T10:54:27Z</time>
</trkpt>
<trkpt lat="49.510536" lon="10.343005">
<ele>325.866</ele>
<time>2019-05-30T10:54:28Z</time>
</trkpt>
<trkpt lat="49.510544" lon="10.342932">
<ele>325.866</ele>
<time>2019-05-30T10:54:29Z</time>
</trkpt>
<trkpt lat="49.510548" lon="10.342858">
<ele>325.866</ele>
<time>2019-05-30T10:54:30Z</time>
</trkpt>
<trkpt lat="49.510555" lon="10.342781">
<ele>325.866</ele>
<time>2019-05-30T10:54:31Z</time>
</trkpt>
<trkpt lat="49.510563" lon="10.342707">
<ele>325.866</ele>
<time>2019-05-30T10:54:32Z</time>
</trkpt>
<trkpt lat="49.510571" lon="10.342633">
<ele>326.105</ele>
<time>2019-05-30T10:54:33Z</time>
</trkpt>
<trkpt lat="49.510574" lon="10.34256">
<ele>326.296</ele>
<time>2019-05-30T10:54:34Z</time>
</trkpt>
<trkpt lat="49.510574" lon="10.34249">
<ele>326.441</ele>
<time>2019-05-30T10:54:35Z</time>
</trkpt>
<trkpt lat="49.510578" lon="10.342417">
<ele>326.541</ele>
<time>2019-05-30T10:54:36Z</time>
</trkpt>
<trkpt lat="49.510582" lon="10.342345">
<ele>326.648</ele>
<time>2019-05-30T10:54:37Z</time>
</trkpt>
<trkpt lat="49.510586" lon="10.342272">
<ele>326.725</ele>
<time>2019-05-30T10:54:38Z</time>
</trkpt>
<trkpt lat="49.51059" lon="10.342198">
<ele>326.774</ele>
<time>2019-05-30T10:54:39Z</time>
</trkpt>
<trkpt lat="49.510593" lon="10.342127">
<ele>326.799</ele>
<time>2019-05-30T10:54:40Z</time>
</trkpt>
<trkpt lat="49.510593" lon="10.342054">
<ele>326.799</ele>
<time>2019-05-30T10:54:41Z</time>
</trkpt>
<trkpt lat="49.510593" lon="10.341983">
<ele>326.799</ele>
<time>2019-05-30T10:54:42Z</time>
</trkpt>
<trkpt lat="49.510593" lon="10.341913">
<ele>326.799</ele>
<time>2019-05-30T10:54:43Z</time>
</trkpt>
<trkpt lat="49.510593" lon="10.341845">
<ele>326.799</ele>
<time>2019-05-30T10:54:44Z</time>
</trkpt>
<trkpt lat="49.510597" lon="10.34178">
<ele>327.022</ele>
<time>2019-05-30T10:54:45Z</time>
</trkpt>
<trkpt lat="49.510605" lon="10.341715">
<ele>327.183</ele>
<time>2019-05-30T10:54:46Z</time>
</trkpt>
<trkpt lat="49.510612" lon="10.341652">
<ele>327.348</ele>
<time>2019-05-30T10:54:47Z</time>
</trkpt>
<trkpt lat="49.510639" lon="10.341597">
<ele>327.481</ele>
<time>2019-05-30T10:54:48Z</time>
</trkpt>
<trkpt lat="49.510666" lon="10.341548">
<ele>327.584</ele>
<time>2019-05-30T10:54:49Z</time>
</trkpt>
<trkpt lat="49.5107" lon="10.341512">
<ele>327.659</ele>
<time>2019-05-30T10:54:50Z</time>
</trkpt>
<trkpt lat="49.510735" lon="10.341483">
<ele>327.709</ele>
<time>2019-05-30T10:54:51Z</time>
</trkpt>
<trkpt lat="49.510765" lon="10.341451">
<ele>327.733</ele>
<time>2019-05-30T10:54:52Z</time>
</trkpt>
<trkpt lat="49.510796" lon="10.341403">
<ele>327.733</ele>
<time>2019-05-30T10:54:53Z</time>
</trkpt>
<trkpt lat="49.510826" lon="10.341351">
<ele>327.733</ele>
<time>2019-05-30T10:54:54Z</time>
</trkpt>
<trkpt lat="49.510857" lon="10.341291">
<ele>327.733</ele>
<time>2019-05-30T10:54:55Z</time>
</trkpt>
<trkpt lat="49.510883" lon="10.341225">
<ele>327.733</ele>
<time>2019-05-30T10:54:56Z</time>
</trkpt>
<trkpt lat="49.51091" lon="10.34116">
<ele>327.733</ele>
<time>2019-05-30T10:54:57Z</time>
</trkpt>
<trkpt lat="49.510933" lon="10.341092">
<ele>327.733</ele>
<time>2019-05-30T10:54:58Z</time>
</trkpt>
<trkpt lat="49.510956" lon="10.341023">
<ele>327.733</ele>
<time>2019-05-30T10:54:59Z</time>
</trkpt>
<trkpt lat="49.510971" lon="10.340952">
<ele>327.733</ele>
<time>2019-05-30T10:55:00Z</time>
</trkpt>
<trkpt lat="49.510986" lon="10.340878">
<ele>327.733</ele>
<time>2019-05-30T10:55:01Z</time>
</trkpt>
<trkpt lat="49.510998" lon="10.340801">
<ele>327.732</ele>
<time>2019-05-30T10:55:02Z</time>
</trkpt>
<trkpt lat="49.511002" lon="10.340725">
<ele>327.733</ele>
<time>2019-05-30T10:55:03Z</time>
</trkpt>
<trkpt lat="49.511009" lon="10.340645">
<ele>327.733</ele>
<time>2019-05-30T10:55:04Z</time>
</trkpt>
<trkpt lat="49.511013" lon="10.340565">
<ele>327.733</ele>
<time>2019-05-30T10:55:05Z</time>
</trkpt>
<trkpt lat="49.511021" lon="10.340488">
<ele>327.733</ele>
<time>2019-05-30T10:55:06Z</time>
</trkpt>
<trkpt lat="49.511028" lon="10.340412">
<ele>327.733</ele>
<time>2019-05-30T10:55:07Z</time>
</trkpt>
<trkpt lat="49.511032" lon="10.340334">
<ele>327.733</ele>
<time>2019-05-30T10:55:08Z</time>
</trkpt>
<trkpt lat="49.511036" lon="10.340255">
<ele>327.733</ele>
<time>2019-05-30T10:55:09Z</time>
</trkpt>
<trkpt lat="49.51104" lon="10.340177">
<ele>327.733</ele>
<time>2019-05-30T10:55:10Z</time>
</trkpt>
<trkpt lat="49.511044" lon="10.340098">
<ele>327.733</ele>
<time>2019-05-30T10:55:11Z</time>
</trkpt>
<trkpt lat="49.511047" lon="10.340022">
<ele>327.732</ele>
<time>2019-05-30T10:55:12Z</time>
</trkpt>
<trkpt lat="49.511051" lon="10.339942">
<ele>327.733</ele>
<time>2019-05-30T10:55:13Z</time>
</trkpt>
<trkpt lat="49.511059" lon="10.339861">
<ele>327.732</ele>
<time>2019-05-30T10:55:14Z</time>
</trkpt>
<trkpt lat="49.511063" lon="10.339784">
<ele>327.732</ele>
<time>2019-05-30T10:55:15Z</time>
</trkpt>
<trkpt lat="49.511066" lon="10.339705">
<ele>327.94</ele>
<time>2019-05-30T10:55:16Z</time>
</trkpt>
<trkpt lat="49.511074" lon="10.339628">
<ele>328.137</ele>
<time>2019-05-30T10:55:17Z</time>
</trkpt>
<trkpt lat="49.511078" lon="10.339552">
<ele>328.298</ele>
<time>2019-05-30T10:55:18Z</time>
</trkpt>
<trkpt lat="49.511082" lon="10.339477">
<ele>328.427</ele>
<time>2019-05-30T10:55:19Z</time>
</trkpt>
<trkpt lat="49.511089" lon="10.3394">
<ele>328.526</ele>
<time>2019-05-30T10:55:20Z</time>
</trkpt>
<trkpt lat="49.511093" lon="10.339325">
<ele>328.596</ele>
<time>2019-05-30T10:55:21Z</time>
</trkpt>
<trkpt lat="49.511097" lon="10.339249">
<ele>328.643</ele>
<time>2019-05-30T10:55:22Z</time>
</trkpt>
<trkpt lat="49.511101" lon="10.339175">
<ele>328.666</ele>
<time>2019-05-30T10:55:23Z</time>
</trkpt>
<trkpt lat="49.511105" lon="10.3391">
<ele>328.666</ele>
<time>2019-05-30T10:55:24Z</time>
</trkpt>
<trkpt lat="49.511112" lon="10.339026">
<ele>328.666</ele>
<time>2019-05-30T10:55:25Z</time>
</trkpt>
<trkpt lat="49.511116" lon="10.338953">
<ele>328.666</ele>
<time>2019-05-30T10:55:26Z</time>
</trkpt>
<trkpt lat="49.51112" lon="10.338881">
<ele>328.666</ele>
<time>2019-05-30T10:55:27Z</time>
</trkpt>
<trkpt lat="49.511124" lon="10.33881">
<ele>328.666</ele>
<time>2019-05-30T10:55:28Z</time>
</trkpt>
<trkpt lat="49.511131" lon="10.33874">
<ele>328.666</ele>
<time>2019-05-30T10:55:29Z</time>
</trkpt>
<trkpt lat="49.511131" lon="10.338671">
<ele>328.666</ele>
<time>2019-05-30T10:55:30Z</time>
</trkpt>
<trkpt lat="49.511139" lon="10.338605">
<ele>328.893</ele>
<time>2019-05-30T10:55:31Z</time>
</trkpt>
<trkpt lat="49.511158" lon="10.338549">
<ele>329.072</ele>
<time>2019-05-30T10:55:32Z</time>
</trkpt>
<trkpt lat="49.511185" lon="10.338507">
<ele>329.209</ele>
<time>2019-05-30T10:55:33Z</time>
</trkpt>
<trkpt lat="49.511219" lon="10.338485">
<ele>329.311</ele>
<time>2019-05-30T10:55:34Z</time>
</trkpt>
<trkpt lat="49.511253" lon="10.338489">
<ele>329.384</ele>
<time>2019-05-30T10:55:35Z</time>
</trkpt>
<trkpt lat="49.511292" lon="10.338503">
<ele>329.44</ele>
<time>2019-05-30T10:55:36Z</time>
</trkpt>
<trkpt lat="49.511326" lon="10.33852">
<ele>329.49</ele>
<time>2019-05-30T10:55:37Z</time>
</trkpt>
<trkpt lat="49.51136" lon="10.338534">
<ele>329.515</ele>
<time>2019-05-30T10:55:38Z</time>
</trkpt>
<trkpt lat="49.511398" lon="10.338547">
<ele>329.515</ele>
<time>2019-05-30T10:55:39Z</time>
</trkpt>
<trkpt lat="49.511433" lon="10.338557">
<ele>329.796</ele>
<time>2019-05-30T10:55:40Z</time>
</trkpt>
<trkpt lat="49.511471" lon="10.338567">
<ele>330.025</ele>
<time>2019-05-30T10:55:41Z</time>
</trkpt>
<trkpt lat="49.511509" lon="10.338573">
<ele>330.193</ele>
<time>2019-05-30T10:55:42Z</time>
</trkpt>
<trkpt lat="49.511551" lon="10.338583">
<ele>330.297</ele>
<time>2019-05-30T10:55:43Z</time>
</trkpt>
<trkpt lat="49.511585" lon="10.338593">
<ele>330.628</ele>
<time>2019-05-30T10:55:44Z</time>
</trkpt>
<trkpt lat="49.511623" lon="10.338608">
<ele>330.873</ele>
<time>2019-05-30T10:55:45Z</time>
</trkpt>
<trkpt lat="49.511662" lon="10.338622">
<ele>331.054</ele>
<time>2019-05-30T10:55:46Z</time>
</trkpt>
<trkpt lat="49.511703" lon="10.338634">
<ele>331.22</ele>
<time>2019-05-30T10:55:47Z</time>
</trkpt>
<trkpt lat="49.511742" lon="10.338643">
<ele>331.316</ele>
<time>2019-05-30T10:55:48Z</time>
</trkpt>
<trkpt lat="49.51178" lon="10.338656">
<ele>331.621</ele>
<time>2019-05-30T10:55:49Z</time>
</trkpt>
<trkpt lat="49.511814" lon="10.338671">
<ele>331.862</ele>
<time>2019-05-30T10:55:50Z</time>
</trkpt>
<trkpt lat="49.511852" lon="10.338683">
<ele>332.042</ele>
<time>2019-05-30T10:55:51Z</time>
</trkpt>
<trkpt lat="49.51189" lon="10.338692">
<ele>332.198</ele>
<time>2019-05-30T10:55:52Z</time>
</trkpt>
<trkpt lat="49.511929" lon="10.3387">
<ele>332.502</ele>
<time>2019-05-30T10:55:53Z</time>
</trkpt>
<trkpt lat="49.511967" lon="10.338708">
<ele>332.729</ele>
<time>2019-05-30T10:55:54Z</time>
</trkpt>
<trkpt lat="49.512005" lon="10.338718">
<ele>332.895</ele>
<time>2019-05-30T10:55:55Z</time>
</trkpt>
<trkpt lat="49.512043" lon="10.338728">
<ele>333.014</ele>
<time>2019-05-30T10:55:56Z</time>
</trkpt>
<trkpt lat="49.512081" lon="10.338737">
<ele>333.113</ele>
<time>2019-05-30T10:55:57Z</time>
</trkpt>
<trkpt lat="49.512123" lon="10.338743">
<ele>333.185</ele>
<time>2019-05-30T10:55:58Z</time>
</trkpt>
<trkpt lat="49.512161" lon="10.338752">
<ele>333.23</ele>
<time>2019-05-30T10:55:59Z</time>
</trkpt>
<trkpt lat="49.512199" lon="10.33876">
<ele>333.251</ele>
<time>2019-05-30T10:56:00Z</time>
</trkpt>
<trkpt lat="49.512238" lon="10.33877">
<ele>333.507</ele>
<time>2019-05-30T10:56:01Z</time>
</trkpt>
<trkpt lat="49.512276" lon="10.338779">
<ele>333.705</ele>
<time>2019-05-30T10:56:02Z</time>
</trkpt>
<trkpt lat="49.512318" lon="10.33879">
<ele>333.858</ele>
<time>2019-05-30T10:56:03Z</time>
</trkpt>
<trkpt lat="49.51236" lon="10.338799">
<ele>333.971</ele>
<time>2019-05-30T10:56:04Z</time>
</trkpt>
<trkpt lat="49.512402" lon="10.338801">
<ele>334.05</ele>
<time>2019-05-30T10:56:05Z</time>
</trkpt>
<trkpt lat="49.512447" lon="10.338803">
<ele>334.107</ele>
<time>2019-05-30T10:56:06Z</time>
</trkpt>
<trkpt lat="49.512489" lon="10.338803">
<ele>334.161</ele>
<time>2019-05-30T10:56:07Z</time>
</trkpt>
<trkpt lat="49.512531" lon="10.338801">
<ele>334.185</ele>
<time>2019-05-30T10:56:08Z</time>
</trkpt>
<trkpt lat="49.512577" lon="10.3388">
<ele>334.185</ele>
<time>2019-05-30T10:56:09Z</time>
</trkpt>
<trkpt lat="49.512619" lon="10.3388">
<ele>334.185</ele>
<time>2019-05-30T10:56:10Z</time>
</trkpt>
<trkpt lat="49.512661" lon="10.338797">
<ele>334.439</ele>
<time>2019-05-30T10:56:11Z</time>
</trkpt>
<trkpt lat="49.512703" lon="10.338794">
<ele>334.635</ele>
<time>2019-05-30T10:56:12Z</time>
</trkpt>
<trkpt lat="49.512753" lon="10.338788">
<ele>334.788</ele>
<time>2019-05-30T10:56:13Z</time>
</trkpt>
<trkpt lat="49.512794" lon="10.338785">
<ele>334.898</ele>
<time>2019-05-30T10:56:14Z</time>
</trkpt>
<trkpt lat="49.51284" lon="10.338785">
<ele>334.983</ele>
<time>2019-05-30T10:56:15Z</time>
</trkpt>
<trkpt lat="49.512886" lon="10.338783">
<ele>335.041</ele>
<time>2019-05-30T10:56:16Z</time>
</trkpt>
<trkpt lat="49.512932" lon="10.338781">
<ele>335.094</ele>
<time>2019-05-30T10:56:17Z</time>
</trkpt>
<trkpt lat="49.512978" lon="10.338778">
<ele>335.119</ele>
<time>2019-05-30T10:56:18Z</time>
</trkpt>
<trkpt lat="49.513023" lon="10.338776">
<ele>335.119</ele>
<time>2019-05-30T10:56:19Z</time>
</trkpt>
<trkpt lat="49.513069" lon="10.33877">
<ele>335.119</ele>
<time>2019-05-30T10:56:20Z</time>
</trkpt>
<trkpt lat="49.513115" lon="10.338767">
<ele>335.119</ele>
<time>2019-05-30T10:56:21Z</time>
</trkpt>
<trkpt lat="49.513165" lon="10.338761">
<ele>335.119</ele>
<time>2019-05-30T10:56:22Z</time>
</trkpt>
<trkpt lat="49.513214" lon="10.338758">
<ele>335.119</ele>
<time>2019-05-30T10:56:23Z</time>
</trkpt>
<trkpt lat="49.51326" lon="10.338757">
<ele>335.119</ele>
<time>2019-05-30T10:56:24Z</time>
</trkpt>
<trkpt lat="49.513309" lon="10.338753">
<ele>335.119</ele>
<time>2019-05-30T10:56:25Z</time>
</trkpt>
<trkpt lat="49.513351" lon="10.33875">
<ele>335.119</ele>
<time>2019-05-30T10:56:26Z</time>
</trkpt>
<trkpt lat="49.513405" lon="10.338746">
<ele>335.119</ele>
<time>2019-05-30T10:56:27Z</time>
</trkpt>
<trkpt lat="49.513451" lon="10.338743">
<ele>335.119</ele>
<time>2019-05-30T10:56:28Z</time>
</trkpt>
<trkpt lat="49.513504" lon="10.33874">
<ele>335.369</ele>
<time>2019-05-30T10:56:29Z</time>
</trkpt>
<trkpt lat="49.51355" lon="10.338737">
<ele>335.556</ele>
<time>2019-05-30T10:56:30Z</time>
</trkpt>
<trkpt lat="49.513599" lon="10.338734">
<ele>335.701</ele>
<time>2019-05-30T10:56:31Z</time>
</trkpt>
<trkpt lat="49.513649" lon="10.33873">
<ele>335.807</ele>
<time>2019-05-30T10:56:32Z</time>
</trkpt>
<trkpt lat="49.513699" lon="10.338728">
<ele>335.88</ele>
<time>2019-05-30T10:56:33Z</time>
</trkpt>
<trkpt lat="49.513744" lon="10.338727">
<ele>335.924</ele>
<time>2019-05-30T10:56:34Z</time>
</trkpt>
<trkpt lat="49.513794" lon="10.338725">
<ele>335.949</ele>
<time>2019-05-30T10:56:35Z</time>
</trkpt>
<trkpt lat="49.51384" lon="10.338723">
<ele>335.969</ele>
<time>2019-05-30T10:56:36Z</time>
</trkpt>
<trkpt lat="49.513889" lon="10.33872">
<ele>335.969</ele>
<time>2019-05-30T10:56:37Z</time>
</trkpt>
<trkpt lat="49.513935" lon="10.338718">
<ele>335.969</ele>
<time>2019-05-30T10:56:38Z</time>
</trkpt>
<trkpt lat="49.513988" lon="10.338713">
<ele>335.969</ele>
<time>2019-05-30T10:56:39Z</time>
</trkpt>
<trkpt lat="49.514034" lon="10.338712">
<ele>335.969</ele>
<time>2019-05-30T10:56:40Z</time>
</trkpt>
<trkpt lat="49.514088" lon="10.338708">
<ele>335.969</ele>
<time>2019-05-30T10:56:41Z</time>
</trkpt>
<trkpt lat="49.514137" lon="10.338705">
<ele>335.969</ele>
<time>2019-05-30T10:56:42Z</time>
</trkpt>
<trkpt lat="49.514187" lon="10.338702">
<ele>335.969</ele>
<time>2019-05-30T10:56:43Z</time>
</trkpt>
<trkpt lat="49.514236" lon="10.338698">
<ele>335.969</ele>
<time>2019-05-30T10:56:44Z</time>
</trkpt>
<trkpt lat="49.51429" lon="10.338694">
<ele>335.969</ele>
<time>2019-05-30T10:56:45Z</time>
</trkpt>
<trkpt lat="49.514339" lon="10.33869">
<ele>335.969</ele>
<time>2019-05-30T10:56:46Z</time>
</trkpt>
<trkpt lat="49.514389" lon="10.338687">
<ele>335.969</ele>
<time>2019-05-30T10:56:47Z</time>
</trkpt>
<trkpt lat="49.514442" lon="10.338683">
<ele>335.969</ele>
<time>2019-05-30T10:56:48Z</time>
</trkpt>
<trkpt lat="49.514492" lon="10.338679">
<ele>335.969</ele>
<time>2019-05-30T10:56:49Z</time>
</trkpt>
<trkpt lat="49.514549" lon="10.338676">
<ele>335.969</ele>
<time>2019-05-30T10:56:50Z</time>
</trkpt>
<trkpt lat="49.514599" lon="10.338673">
<ele>335.969</ele>
<time>2019-05-30T10:56:51Z</time>
</trkpt>
<trkpt lat="49.514652" lon="10.338671">
<ele>335.969</ele>
<time>2019-05-30T10:56:52Z</time>
</trkpt>
<trkpt lat="49.514702" lon="10.338669">
<ele>335.969</ele>
<time>2019-05-30T10:56:53Z</time>
</trkpt>
<trkpt lat="49.514751" lon="10.338667">
<ele>335.969</ele>
<time>2019-05-30T10:56:54Z</time>
</trkpt>
<trkpt lat="49.514805" lon="10.338663">
<ele>335.969</ele>
<time>2019-05-30T10:56:55Z</time>
</trkpt>
<trkpt lat="49.514851" lon="10.338662">
<ele>335.969</ele>
<time>2019-05-30T10:56:56Z</time>
</trkpt>
<trkpt lat="49.514904" lon="10.33866">
<ele>335.969</ele>
<time>2019-05-30T10:56:57Z</time>
</trkpt>
<trkpt lat="49.514954" lon="10.338656">
<ele>335.969</ele>
<time>2019-05-30T10:56:58Z</time>
</trkpt>
<trkpt lat="49.515003" lon="10.338655">
<ele>336.263</ele>
<time>2019-05-30T10:56:59Z</time>
</trkpt>
<trkpt lat="49.515049" lon="10.338654">
<ele>336.488</ele>
<time>2019-05-30T10:57:00Z</time>
</trkpt>
<trkpt lat="49.515102" lon="10.338648">
<ele>336.661</ele>
<time>2019-05-30T10:57:01Z</time>
</trkpt>
<trkpt lat="49.515148" lon="10.338645">
<ele>336.79</ele>
<time>2019-05-30T10:57:02Z</time>
</trkpt>
<trkpt lat="49.515198" lon="10.338643">
<ele>336.877</ele>
<time>2019-05-30T10:57:03Z</time>
</trkpt>
<trkpt lat="49.515244" lon="10.338639">
<ele>336.934</ele>
<time>2019-05-30T10:57:04Z</time>
</trkpt>
<trkpt lat="49.515297" lon="10.338637">
<ele>336.964</ele>
<time>2019-05-30T10:57:05Z</time>
</trkpt>
<trkpt lat="49.515343" lon="10.338632">
<ele>336.988</ele>
<time>2019-05-30T10:57:06Z</time>
</trkpt>
<trkpt lat="49.515392" lon="10.338631">
<ele>337.214</ele>
<time>2019-05-30T10:57:07Z</time>
</trkpt>
<trkpt lat="49.515438" lon="10.338627">
<ele>337.406</ele>
<time>2019-05-30T10:57:08Z</time>
</trkpt>
<trkpt lat="49.515488" lon="10.338622">
<ele>337.563</ele>
<time>2019-05-30T10:57:09Z</time>
</trkpt>
<trkpt lat="49.515537" lon="10.338616">
<ele>337.689</ele>
<time>2019-05-30T10:57:10Z</time>
</trkpt>
<trkpt lat="49.515591" lon="10.33861">
<ele>337.785</ele>
<time>2019-05-30T10:57:11Z</time>
</trkpt>
<trkpt lat="49.515636" lon="10.338606">
<ele>337.857</ele>
<time>2019-05-30T10:57:12Z</time>
</trkpt>
<trkpt lat="49.515686" lon="10.338605">
<ele>337.9</ele>
<time>2019-05-30T10:57:13Z</time>
</trkpt>
<trkpt lat="49.515736" lon="10.338602">
<ele>337.923</ele>
<time>2019-05-30T10:57:14Z</time>
</trkpt>
<trkpt lat="49.515785" lon="10.338597">
<ele>337.923</ele>
<time>2019-05-30T10:57:15Z</time>
</trkpt>
<trkpt lat="49.515831" lon="10.338593">
<ele>338.13</ele>
<time>2019-05-30T10:57:16Z</time>
</trkpt>
<trkpt lat="49.515884" lon="10.33859">
<ele>338.326</ele>
<time>2019-05-30T10:57:17Z</time>
</trkpt>
<trkpt lat="49.515934" lon="10.338587">
<ele>338.486</ele>
<time>2019-05-30T10:57:18Z</time>
</trkpt>
<trkpt lat="49.515984" lon="10.338583">
<ele>338.616</ele>
<time>2019-05-30T10:57:19Z</time>
</trkpt>
<trkpt lat="49.516033" lon="10.338578">
<ele>338.717</ele>
<time>2019-05-30T10:57:20Z</time>
</trkpt>
<trkpt lat="49.516087" lon="10.338574">
<ele>338.789</ele>
<time>2019-05-30T10:57:21Z</time>
</trkpt>
<trkpt lat="49.516136" lon="10.338572">
<ele>338.835</ele>
<time>2019-05-30T10:57:22Z</time>
</trkpt>
<trkpt lat="49.516186" lon="10.338567">
<ele>338.857</ele>
<time>2019-05-30T10:57:23Z</time>
</trkpt>
<trkpt lat="49.516239" lon="10.33856">
<ele>338.857</ele>
<time>2019-05-30T10:57:24Z</time>
</trkpt>
<trkpt lat="49.516289" lon="10.338552">
<ele>339.065</ele>
<time>2019-05-30T10:57:25Z</time>
</trkpt>
<trkpt lat="49.516342" lon="10.338541">
<ele>339.213</ele>
<time>2019-05-30T10:57:26Z</time>
</trkpt>
<trkpt lat="49.516392" lon="10.338529">
<ele>339.364</ele>
<time>2019-05-30T10:57:27Z</time>
</trkpt>
<trkpt lat="49.516445" lon="10.338511">
<ele>339.484</ele>
<time>2019-05-30T10:57:28Z</time>
</trkpt>
<trkpt lat="49.516487" lon="10.338492">
<ele>339.577</ele>
<time>2019-05-30T10:57:29Z</time>
</trkpt>
<trkpt lat="49.516537" lon="10.33847">
<ele>339.643</ele>
<time>2019-05-30T10:57:30Z</time>
</trkpt>
<trkpt lat="49.516582" lon="10.338445">
<ele>339.687</ele>
<time>2019-05-30T10:57:31Z</time>
</trkpt>
<trkpt lat="49.516632" lon="10.338422">
<ele>339.707</ele>
<time>2019-05-30T10:57:32Z</time>
</trkpt>
<trkpt lat="49.516674" lon="10.338398">
<ele>339.707</ele>
<time>2019-05-30T10:57:33Z</time>
</trkpt>
<trkpt lat="49.51672" lon="10.338371">
<ele>339.707</ele>
<time>2019-05-30T10:57:34Z</time>
</trkpt>
<trkpt lat="49.516769" lon="10.338346">
<ele>339.707</ele>
<time>2019-05-30T10:57:35Z</time>
</trkpt>
<trkpt lat="49.516815" lon="10.338324">
<ele>339.914</ele>
<time>2019-05-30T10:57:36Z</time>
</trkpt>
<trkpt lat="49.516865" lon="10.338298">
<ele>340.112</ele>
<time>2019-05-30T10:57:37Z</time>
</trkpt>
<trkpt lat="49.516911" lon="10.338273">
<ele>340.273</ele>
<time>2019-05-30T10:57:38Z</time>
</trkpt>
<trkpt lat="49.51696" lon="10.338248">
<ele>340.404</ele>
<time>2019-05-30T10:57:39Z</time>
</trkpt>
<trkpt lat="49.517006" lon="10.338222">
<ele>340.504</ele>
<time>2019-05-30T10:57:40Z</time>
</trkpt>
<trkpt lat="49.517056" lon="10.338197">
<ele>340.575</ele>
<time>2019-05-30T10:57:41Z</time>
</trkpt>
<trkpt lat="49.517101" lon="10.338172">
<ele>340.62</ele>
<time>2019-05-30T10:57:42Z</time>
</trkpt>
<trkpt lat="49.517151" lon="10.338147">
<ele>340.642</ele>
<time>2019-05-30T10:57:43Z</time>
</trkpt>
<trkpt lat="49.517197" lon="10.338121">
<ele>340.642</ele>
<time>2019-05-30T10:57:44Z</time>
</trkpt>
<trkpt lat="49.51725" lon="10.338097">
<ele>340.642</ele>
<time>2019-05-30T10:57:45Z</time>
</trkpt>
<trkpt lat="49.517296" lon="10.338072">
<ele>340.642</ele>
<time>2019-05-30T10:57:46Z</time>
</trkpt>
<trkpt lat="49.517345" lon="10.338045">
<ele>340.642</ele>
<time>2019-05-30T10:57:47Z</time>
</trkpt>
<trkpt lat="49.517395" lon="10.338019">
<ele>340.642</ele>
<time>2019-05-30T10:57:48Z</time>
</trkpt>
<trkpt lat="49.517445" lon="10.337996">
<ele>340.642</ele>
<time>2019-05-30T10:57:49Z</time>
</trkpt>
<trkpt lat="49.51749" lon="10.337978">
<ele>340.642</ele>
<time>2019-05-30T10:57:50Z</time>
</trkpt>
<trkpt lat="49.517544" lon="10.337962">
<ele>340.642</ele>
<time>2019-05-30T10:57:51Z</time>
</trkpt>
<trkpt lat="49.517586" lon="10.33795">
<ele>340.642</ele>
<time>2019-05-30T10:57:52Z</time>
</trkpt>
<trkpt lat="49.517632" lon="10.337937">
<ele>340.898</ele>
<time>2019-05-30T10:57:53Z</time>
</trkpt>
<trkpt lat="49.517673" lon="10.337912">
<ele>341.101</ele>
<time>2019-05-30T10:57:54Z</time>
</trkpt>
<trkpt lat="49.5177" lon="10.337871">
<ele>341.256</ele>
<time>2019-05-30T10:57:55Z</time>
</trkpt>
<trkpt lat="49.517708" lon="10.337815">
<ele>341.366</ele>
<time>2019-05-30T10:57:56Z</time>
</trkpt>
<trkpt lat="49.5177" lon="10.337753">
<ele>341.485</ele>
<time>2019-05-30T10:57:57Z</time>
</trkpt>
<trkpt lat="49.517685" lon="10.337695">
<ele>341.574</ele>
<time>2019-05-30T10:57:58Z</time>
</trkpt>
<trkpt lat="49.517662" lon="10.337638">
<ele>341.632</ele>
<time>2019-05-30T10:57:59Z</time>
</trkpt>
<trkpt lat="49.517639" lon="10.33758">
<ele>341.661</ele>
<time>2019-05-30T10:58:00Z</time>
</trkpt>
<trkpt lat="49.517616" lon="10.337519">
<ele>341.661</ele>
<time>2019-05-30T10:58:01Z</time>
</trkpt>
<trkpt lat="49.517593" lon="10.337452">
<ele>341.661</ele>
<time>2019-05-30T10:58:02Z</time>
</trkpt>
<trkpt lat="49.517567" lon="10.337383">
<ele>341.661</ele>
<time>2019-05-30T10:58:03Z</time>
</trkpt>
<trkpt lat="49.517544" lon="10.337315">
<ele>341.661</ele>
<time>2019-05-30T10:58:04Z</time>
</trkpt>
<trkpt lat="49.517521" lon="10.337246">
<ele>341.661</ele>
<time>2019-05-30T10:58:05Z</time>
</trkpt>
<trkpt lat="49.517494" lon="10.337181">
<ele>341.661</ele>
<time>2019-05-30T10:58:06Z</time>
</trkpt>
<trkpt lat="49.517471" lon="10.337113">
<ele>341.661</ele>
<time>2019-05-30T10:58:07Z</time>
</trkpt>
<trkpt lat="49.517448" lon="10.337045">
<ele>341.661</ele>
<time>2019-05-30T10:58:08Z</time>
</trkpt>
<trkpt lat="49.517422" lon="10.336973">
<ele>341.661</ele>
<time>2019-05-30T10:58:09Z</time>
</trkpt>
<trkpt lat="49.517406" lon="10.336902">
<ele>341.661</ele>
<time>2019-05-30T10:58:10Z</time>
</trkpt>
<trkpt lat="49.517384" lon="10.336829">
<ele>341.661</ele>
<time>2019-05-30T10:58:11Z</time>
</trkpt>
<trkpt lat="49.517365" lon="10.336757">
<ele>341.661</ele>
<time>2019-05-30T10:58:12Z</time>
</trkpt>
<trkpt lat="49.517349" lon="10.336682">
<ele>341.661</ele>
<time>2019-05-30T10:58:13Z</time>
</trkpt>
<trkpt lat="49.517334" lon="10.336609">
<ele>341.661</ele>
<time>2019-05-30T10:58:14Z</time>
</trkpt>
<trkpt lat="49.517323" lon="10.336534">
<ele>341.661</ele>
<time>2019-05-30T10:58:15Z</time>
</trkpt>
<trkpt lat="49.517303" lon="10.33646">
<ele>341.661</ele>
<time>2019-05-30T10:58:16Z</time>
</trkpt>
<trkpt lat="49.517292" lon="10.336387">
<ele>341.661</ele>
<time>2019-05-30T10:58:17Z</time>
</trkpt>
<trkpt lat="49.517277" lon="10.336315">
<ele>341.661</ele>
<time>2019-05-30T10:58:18Z</time>
</trkpt>
<trkpt lat="49.517258" lon="10.336242">
<ele>341.661</ele>
<time>2019-05-30T10:58:19Z</time>
</trkpt>
<trkpt lat="49.517242" lon="10.336169">
<ele>341.661</ele>
<time>2019-05-30T10:58:20Z</time>
</trkpt>
<trkpt lat="49.517227" lon="10.336098">
<ele>341.661</ele>
<time>2019-05-30T10:58:21Z</time>
</trkpt>
<trkpt lat="49.517208" lon="10.336027">
<ele>341.661</ele>
<time>2019-05-30T10:58:22Z</time>
</trkpt>
<trkpt lat="49.517193" lon="10.335956">
<ele>341.661</ele>
<time>2019-05-30T10:58:23Z</time>
</trkpt>
<trkpt lat="49.517181" lon="10.335882">
<ele>341.661</ele>
<time>2019-05-30T10:58:24Z</time>
</trkpt>
<trkpt lat="49.517162" lon="10.335809">
<ele>341.661</ele>
<time>2019-05-30T10:58:25Z</time>
</trkpt>
<trkpt lat="49.517147" lon="10.335735">
<ele>341.661</ele>
<time>2019-05-30T10:58:26Z</time>
</trkpt>
<trkpt lat="49.517132" lon="10.33566">
<ele>341.661</ele>
<time>2019-05-30T10:58:27Z</time>
</trkpt>
<trkpt lat="49.51712" lon="10.335587">
<ele>341.661</ele>
<time>2019-05-30T10:58:28Z</time>
</trkpt>
<trkpt lat="49.517101" lon="10.335511">
<ele>341.661</ele>
<time>2019-05-30T10:58:29Z</time>
</trkpt>
<trkpt lat="49.517086" lon="10.335436">
<ele>341.661</ele>
<time>2019-05-30T10:58:30Z</time>
</trkpt>
<trkpt lat="49.517067" lon="10.335357">
<ele>341.661</ele>
<time>2019-05-30T10:58:31Z</time>
</trkpt>
<trkpt lat="49.517052" lon="10.335279">
<ele>341.661</ele>
<time>2019-05-30T10:58:32Z</time>
</trkpt>
<trkpt lat="49.517033" lon="10.335198">
<ele>341.661</ele>
<time>2019-05-30T10:58:33Z</time>
</trkpt>
<trkpt lat="49.517017" lon="10.335118">
<ele>341.661</ele>
<time>2019-05-30T10:58:34Z</time>
</trkpt>
<trkpt lat="49.516998" lon="10.335036">
<ele>341.661</ele>
<time>2019-05-30T10:58:35Z</time>
</trkpt>
<trkpt lat="49.516983" lon="10.334955">
<ele>341.661</ele>
<time>2019-05-30T10:58:36Z</time>
</trkpt>
<trkpt lat="49.516964" lon="10.334872">
<ele>341.661</ele>
<time>2019-05-30T10:58:37Z</time>
</trkpt>
<trkpt lat="49.516945" lon="10.334786">
<ele>341.661</ele>
<time>2019-05-30T10:58:38Z</time>
</trkpt>
<trkpt lat="49.51693" lon="10.334701">
<ele>341.41</ele>
<time>2019-05-30T10:58:39Z</time>
</trkpt>
<trkpt lat="49.516903" lon="10.334613">
<ele>341.219</ele>
<time>2019-05-30T10:58:40Z</time>
</trkpt>
<trkpt lat="49.516884" lon="10.334527">
<ele>341.073</ele>
<time>2019-05-30T10:58:41Z</time>
</trkpt>
<trkpt lat="49.516865" lon="10.334438">
<ele>340.97</ele>
<time>2019-05-30T10:58:42Z</time>
</trkpt>
<trkpt lat="49.516846" lon="10.334351">
<ele>340.896</ele>
<time>2019-05-30T10:58:43Z</time>
</trkpt>
<trkpt lat="49.516827" lon="10.334262">
<ele>340.858</ele>
<time>2019-05-30T10:58:44Z</time>
</trkpt>
<trkpt lat="49.516804" lon="10.33417">
<ele>340.603</ele>
<time>2019-05-30T10:58:45Z</time>
</trkpt>
<trkpt lat="49.516785" lon="10.33408">
<ele>340.419</ele>
<time>2019-05-30T10:58:46Z</time>
</trkpt>
<trkpt lat="49.516766" lon="10.333986">
<ele>340.264</ele>
<time>2019-05-30T10:58:47Z</time>
</trkpt>
<trkpt lat="49.516743" lon="10.333894">
<ele>339.896</ele>
<time>2019-05-30T10:58:48Z</time>
</trkpt>
<trkpt lat="49.51672" lon="10.333799">
<ele>339.599</ele>
<time>2019-05-30T10:58:49Z</time>
</trkpt>
<trkpt lat="49.516701" lon="10.333705">
<ele>339.367</ele>
<time>2019-05-30T10:58:50Z</time>
</trkpt>
<trkpt lat="49.516674" lon="10.333613">
<ele>339.194</ele>
<time>2019-05-30T10:58:51Z</time>
</trkpt>
<trkpt lat="49.516655" lon="10.333521">
<ele>339.076</ele>
<time>2019-05-30T10:58:52Z</time>
</trkpt>
<trkpt lat="49.516632" lon="10.333431">
<ele>338.968</ele>
<time>2019-05-30T10:58:53Z</time>
</trkpt>
<trkpt lat="49.516605" lon="10.333342">
<ele>338.942</ele>
<time>2019-05-30T10:58:54Z</time>
</trkpt>
<trkpt lat="49.516582" lon="10.333255">
<ele>338.716</ele>
<time>2019-05-30T10:58:55Z</time>
</trkpt>
<trkpt lat="49.516552" lon="10.333169">
<ele>338.554</ele>
<time>2019-05-30T10:58:56Z</time>
</trkpt>
<trkpt lat="49.516521" lon="10.333081">
<ele>338.389</ele>
<time>2019-05-30T10:58:57Z</time>
</trkpt>
<trkpt lat="49.516491" lon="10.332994">
<ele>338.256</ele>
<time>2019-05-30T10:58:58Z</time>
</trkpt>
<trkpt lat="49.51646" lon="10.33291">
<ele>338.152</ele>
<time>2019-05-30T10:58:59Z</time>
</trkpt>
<trkpt lat="49.51643" lon="10.332829">
<ele>338.086</ele>
<time>2019-05-30T10:59:00Z</time>
</trkpt>
<trkpt lat="49.516396" lon="10.332752">
<ele>337.827</ele>
<time>2019-05-30T10:59:01Z</time>
</trkpt>
<trkpt lat="49.516361" lon="10.332673">
<ele>337.629</ele>
<time>2019-05-30T10:59:02Z</time>
</trkpt>
<trkpt lat="49.516323" lon="10.332595">
<ele>337.46</ele>
<time>2019-05-30T10:59:03Z</time>
</trkpt>
<trkpt lat="49.516285" lon="10.332517">
<ele>337.359</ele>
<time>2019-05-30T10:59:04Z</time>
</trkpt>
<trkpt lat="49.516251" lon="10.332442">
<ele>337.285</ele>
<time>2019-05-30T10:59:05Z</time>
</trkpt>
<trkpt lat="49.516216" lon="10.332369">
<ele>337.231</ele>
<time>2019-05-30T10:59:06Z</time>
</trkpt>
<trkpt lat="49.516178" lon="10.332298">
<ele>337.181</ele>
<time>2019-05-30T10:59:07Z</time>
</trkpt>
<trkpt lat="49.516144" lon="10.332231">
<ele>337.158</ele>
<time>2019-05-30T10:59:08Z</time>
</trkpt>
<trkpt lat="49.516106" lon="10.332167">
<ele>337.158</ele>
<time>2019-05-30T10:59:09Z</time>
</trkpt>
<trkpt lat="49.516068" lon="10.332105">
<ele>337.158</ele>
<time>2019-05-30T10:59:10Z</time>
</trkpt>
<trkpt lat="49.516029" lon="10.332047">
<ele>337.158</ele>
<time>2019-05-30T10:59:11Z</time>
</trkpt>
<trkpt lat="49.51601" lon="10.331989">
<ele>337.158</ele>
<time>2019-05-30T10:59:12Z</time>
</trkpt>
<trkpt lat="49.516003" lon="10.331931">
<ele>337.158</ele>
<time>2019-05-30T10:59:13Z</time>
</trkpt>
<trkpt lat="49.51601" lon="10.331874">
<ele>337.158</ele>
<time>2019-05-30T10:59:14Z</time>
</trkpt>
<trkpt lat="49.516022" lon="10.33182">
<ele>337.158</ele>
<time>2019-05-30T10:59:15Z</time>
</trkpt>
<trkpt lat="49.516029" lon="10.331767">
<ele>337.158</ele>
<time>2019-05-30T10:59:16Z</time>
</trkpt>
<trkpt lat="49.516045" lon="10.331715">
<ele>337.158</ele>
<time>2019-05-30T10:59:17Z</time>
</trkpt>
<trkpt lat="49.516056" lon="10.331667">
<ele>337.158</ele>
<time>2019-05-30T10:59:18Z</time>
</trkpt>
<trkpt lat="49.516071" lon="10.33162">
<ele>337.158</ele>
<time>2019-05-30T10:59:19Z</time>
</trkpt>
<trkpt lat="49.516083" lon="10.331578">
<ele>337.158</ele>
<time>2019-05-30T10:59:20Z</time>
</trkpt>
<trkpt lat="49.516094" lon="10.331535">
<ele>337.158</ele>
<time>2019-05-30T10:59:21Z</time>
</trkpt>
<trkpt lat="49.516106" lon="10.331495">
<ele>337.158</ele>
<time>2019-05-30T10:59:22Z</time>
</trkpt>
<trkpt lat="49.516117" lon="10.331455">
<ele>337.158</ele>
<time>2019-05-30T10:59:23Z</time>
</trkpt>
<trkpt lat="49.516129" lon="10.331413">
<ele>337.158</ele>
<time>2019-05-30T10:59:24Z</time>
</trkpt>
<trkpt lat="49.51614" lon="10.331368">
<ele>337.158</ele>
<time>2019-05-30T10:59:25Z</time>
</trkpt>
<trkpt lat="49.516151" lon="10.331322">
<ele>337.158</ele>
<time>2019-05-30T10:59:26Z</time>
</trkpt>
<trkpt lat="49.516167" lon="10.33127">
<ele>337.158</ele>
<time>2019-05-30T10:59:27Z</time>
</trkpt>
<trkpt lat="49.516182" lon="10.331217">
<ele>337.158</ele>
<time>2019-05-30T10:59:28Z</time>
</trkpt>
<trkpt lat="49.516209" lon="10.331165">
<ele>337.158</ele>
<time>2019-05-30T10:59:29Z</time>
</trkpt>
<trkpt lat="49.516228" lon="10.331114">
<ele>337.158</ele>
<time>2019-05-30T10:59:30Z</time>
</trkpt>
<trkpt lat="49.516251" lon="10.331059">
<ele>337.158</ele>
<time>2019-05-30T10:59:31Z</time>
</trkpt>
<trkpt lat="49.516281" lon="10.331009">
<ele>337.158</ele>
<time>2019-05-30T10:59:32Z</time>
</trkpt>
<trkpt lat="49.516308" lon="10.33096">
<ele>337.158</ele>
<time>2019-05-30T10:59:33Z</time>
</trkpt>
<trkpt lat="49.516338" lon="10.330914">
<ele>337.158</ele>
<time>2019-05-30T10:59:34Z</time>
</trkpt>
<trkpt lat="49.516369" lon="10.330873">
<ele>337.158</ele>
<time>2019-05-30T10:59:35Z</time>
</trkpt>
<trkpt lat="49.516403" lon="10.330833">
<ele>337.158</ele>
<time>2019-05-30T10:59:36Z</time>
</trkpt>
<trkpt lat="49.516434" lon="10.330798">
<ele>337.158</ele>
<time>2019-05-30T10:59:37Z</time>
</trkpt>
<trkpt lat="49.516472" lon="10.330771">
<ele>337.158</ele>
<time>2019-05-30T10:59:38Z</time>
</trkpt>
<trkpt lat="49.51651" lon="10.330749">
<ele>337.158</ele>
<time>2019-05-30T10:59:39Z</time>
</trkpt>
<trkpt lat="49.516548" lon="10.330725">
<ele>337.158</ele>
<time>2019-05-30T10:59:40Z</time>
</trkpt>
<trkpt lat="49.516594" lon="10.330703">
<ele>337.158</ele>
<time>2019-05-30T10:59:41Z</time>
</trkpt>
<trkpt lat="49.51664" lon="10.330684">
<ele>337.158</ele>
<time>2019-05-30T10:59:42Z</time>
</trkpt>
<trkpt lat="49.516682" lon="10.330662">
<ele>337.158</ele>
<time>2019-05-30T10:59:43Z</time>
</trkpt>
<trkpt lat="49.516727" lon="10.330644">
<ele>337.158</ele>
<time>2019-05-30T10:59:44Z</time>
</trkpt>
<trkpt lat="49.516769" lon="10.330627">
<ele>337.158</ele>
<time>2019-05-30T10:59:45Z</time>
</trkpt>
<trkpt lat="49.516815" lon="10.330608">
<ele>337.158</ele>
<time>2019-05-30T10:59:46Z</time>
</trkpt>
<trkpt lat="49.516861" lon="10.330588">
<ele>337.158</ele>
<time>2019-05-30T10:59:47Z</time>
</trkpt>
<trkpt lat="49.516899" lon="10.330568">
<ele>337.158</ele>
<time>2019-05-30T10:59:48Z</time>
</trkpt>
<trkpt lat="49.516949" lon="10.330546">
<ele>337.158</ele>
<time>2019-05-30T10:59:49Z</time>
</trkpt>
<trkpt lat="49.516998" lon="10.330529">
<ele>337.158</ele>
<time>2019-05-30T10:59:50Z</time>
</trkpt>
<trkpt lat="49.51704" lon="10.330513">
<ele>337.158</ele>
<time>2019-05-30T10:59:51Z</time>
</trkpt>
<trkpt lat="49.517094" lon="10.330495">
<ele>337.158</ele>
<time>2019-05-30T10:59:52Z</time>
</trkpt>
<trkpt lat="49.517136" lon="10.330481">
<ele>337.158</ele>
<time>2019-05-30T10:59:53Z</time>
</trkpt>
<trkpt lat="49.517178" lon="10.330462">
<ele>337.158</ele>
<time>2019-05-30T10:59:54Z</time>
</trkpt>
<trkpt lat="49.517227" lon="10.330443">
<ele>337.158</ele>
<time>2019-05-30T10:59:55Z</time>
</trkpt>
<trkpt lat="49.517277" lon="10.330423">
<ele>337.158</ele>
<time>2019-05-30T10:59:56Z</time>
</trkpt>
<trkpt lat="49.51733" lon="10.3304">
<ele>337.158</ele>
<time>2019-05-30T10:59:57Z</time>
</trkpt>
<trkpt lat="49.517387" lon="10.330366">
<ele>337.158</ele>
<time>2019-05-30T10:59:58Z</time>
</trkpt>
<trkpt lat="49.517445" lon="10.330326">
<ele>337.158</ele>
<time>2019-05-30T10:59:59Z</time>
</trkpt>
<trkpt lat="49.517498" lon="10.33029">
<ele>337.158</ele>
<time>2019-05-30T11:00:00Z</time>
</trkpt>
<trkpt lat="49.517551" lon="10.330249">
<ele>337.158</ele>
<time>2019-05-30T11:00:01Z</time>
</trkpt>
<trkpt lat="49.517612" lon="10.330207">
<ele>337.158</ele>
<time>2019-05-30T11:00:02Z</time>
</trkpt>
<trkpt lat="49.517662" lon="10.330162">
<ele>337.158</ele>
<time>2019-05-30T11:00:03Z</time>
</trkpt>
<trkpt lat="49.517712" lon="10.330116">
<ele>337.158</ele>
<time>2019-05-30T11:00:04Z</time>
</trkpt>
<trkpt lat="49.517757" lon="10.330072">
<ele>337.158</ele>
<time>2019-05-30T11:00:05Z</time>
</trkpt>
<trkpt lat="49.517803" lon="10.330027">
<ele>337.158</ele>
<time>2019-05-30T11:00:06Z</time>
</trkpt>
<trkpt lat="49.517845" lon="10.329982">
<ele>337.158</ele>
<time>2019-05-30T11:00:07Z</time>
</trkpt>
<trkpt lat="49.517895" lon="10.329936">
<ele>337.158</ele>
<time>2019-05-30T11:00:08Z</time>
</trkpt>
<trkpt lat="49.517941" lon="10.329888">
<ele>337.158</ele>
<time>2019-05-30T11:00:09Z</time>
</trkpt>
<trkpt lat="49.517982" lon="10.329838">
<ele>337.158</ele>
<time>2019-05-30T11:00:10Z</time>
</trkpt>
<trkpt lat="49.518032" lon="10.32979">
<ele>337.158</ele>
<time>2019-05-30T11:00:11Z</time>
</trkpt>
<trkpt lat="49.518074" lon="10.32974">
<ele>337.158</ele>
<time>2019-05-30T11:00:12Z</time>
</trkpt>
<trkpt lat="49.518108" lon="10.329695">
<ele>337.158</ele>
<time>2019-05-30T11:00:13Z</time>
</trkpt>
<trkpt lat="49.51815" lon="10.32965">
<ele>337.158</ele>
<time>2019-05-30T11:00:14Z</time>
</trkpt>
<trkpt lat="49.518192" lon="10.329603">
<ele>337.158</ele>
<time>2019-05-30T11:00:15Z</time>
</trkpt>
<trkpt lat="49.518234" lon="10.329558">
<ele>337.158</ele>
<time>2019-05-30T11:00:16Z</time>
</trkpt>
<trkpt lat="49.518269" lon="10.329515">
<ele>337.158</ele>
<time>2019-05-30T11:00:17Z</time>
</trkpt>
<trkpt lat="49.518322" lon="10.329472">
<ele>337.158</ele>
<time>2019-05-30T11:00:18Z</time>
</trkpt>
<trkpt lat="49.518368" lon="10.329427">
<ele>337.158</ele>
<time>2019-05-30T11:00:19Z</time>
</trkpt>
<trkpt lat="49.518414" lon="10.329383">
<ele>337.158</ele>
<time>2019-05-30T11:00:20Z</time>
</trkpt>
<trkpt lat="49.518463" lon="10.329345">
<ele>337.158</ele>
<time>2019-05-30T11:00:21Z</time>
</trkpt>
<trkpt lat="49.518509" lon="10.329304">
<ele>337.158</ele>
<time>2019-05-30T11:00:22Z</time>
</trkpt>
<trkpt lat="49.518559" lon="10.329258">
<ele>337.158</ele>
<time>2019-05-30T11:00:23Z</time>
</trkpt>
<trkpt lat="49.518608" lon="10.329218">
<ele>337.158</ele>
<time>2019-05-30T11:00:24Z</time>
</trkpt>
<trkpt lat="49.518661" lon="10.329178">
<ele>337.158</ele>
<time>2019-05-30T11:00:25Z</time>
</trkpt>
<trkpt lat="49.518707" lon="10.329136">
<ele>337.158</ele>
<time>2019-05-30T11:00:26Z</time>
</trkpt>
<trkpt lat="49.518761" lon="10.329097">
<ele>337.158</ele>
<time>2019-05-30T11:00:27Z</time>
</trkpt>
<trkpt lat="49.51881" lon="10.329057">
<ele>337.158</ele>
<time>2019-05-30T11:00:28Z</time>
</trkpt>
<trkpt lat="49.518856" lon="10.329021">
<ele>337.158</ele>
<time>2019-05-30T11:00:29Z</time>
</trkpt>
<trkpt lat="49.518902" lon="10.328987">
<ele>337.158</ele>
<time>2019-05-30T11:00:30Z</time>
</trkpt>
<trkpt lat="49.518955" lon="10.328954">
<ele>337.158</ele>
<time>2019-05-30T11:00:31Z</time>
</trkpt>
<trkpt lat="49.519005" lon="10.328918">
<ele>337.158</ele>
<time>2019-05-30T11:00:32Z</time>
</trkpt>
<trkpt lat="49.519051" lon="10.328883">
<ele>337.158</ele>
<time>2019-05-30T11:00:33Z</time>
</trkpt>
<trkpt lat="49.519104" lon="10.328849">
<ele>337.158</ele>
<time>2019-05-30T11:00:34Z</time>
</trkpt>
<trkpt lat="49.519157" lon="10.328812">
<ele>337.158</ele>
<time>2019-05-30T11:00:35Z</time>
</trkpt>
<trkpt lat="49.519211" lon="10.328778">
<ele>337.158</ele>
<time>2019-05-30T11:00:36Z</time>
</trkpt>
<trkpt lat="49.519257" lon="10.328744">
<ele>337.158</ele>
<time>2019-05-30T11:00:37Z</time>
</trkpt>
<trkpt lat="49.519306" lon="10.328711">
<ele>337.158</ele>
<time>2019-05-30T11:00:38Z</time>
</trkpt>
<trkpt lat="49.519356" lon="10.328675">
<ele>337.158</ele>
<time>2019-05-30T11:00:39Z</time>
</trkpt>
<trkpt lat="49.519409" lon="10.32864">
<ele>337.158</ele>
<time>2019-05-30T11:00:40Z</time>
</trkpt>
<trkpt lat="49.519455" lon="10.328604">
<ele>337.158</ele>
<time>2019-05-30T11:00:41Z</time>
</trkpt>
<trkpt lat="49.519508" lon="10.328565">
<ele>337.158</ele>
<time>2019-05-30T11:00:42Z</time>
</trkpt>
<trkpt lat="49.519554" lon="10.328525">
<ele>337.158</ele>
<time>2019-05-30T11:00:43Z</time>
</trkpt>
<trkpt lat="49.519604" lon="10.328482">
<ele>337.158</ele>
<time>2019-05-30T11:00:44Z</time>
</trkpt>
<trkpt lat="49.519646" lon="10.328434">
<ele>337.158</ele>
<time>2019-05-30T11:00:45Z</time>
</trkpt>
<trkpt lat="49.519688" lon="10.328375">
<ele>337.158</ele>
<time>2019-05-30T11:00:46Z</time>
</trkpt>
<trkpt lat="49.519714" lon="10.328308">
<ele>337.158</ele>
<time>2019-05-30T11:00:47Z</time>
</trkpt>
<trkpt lat="49.519737" lon="10.328235">
<ele>337.158</ele>
<time>2019-05-30T11:00:48Z</time>
</trkpt>
<trkpt lat="49.519756" lon="10.328158">
<ele>337.158</ele>
<time>2019-05-30T11:00:49Z</time>
</trkpt>
<trkpt lat="49.519768" lon="10.32808">
<ele>337.158</ele>
<time>2019-05-30T11:00:50Z</time>
</trkpt>
<trkpt lat="49.519783" lon="10.327998">
<ele>337.158</ele>
<time>2019-05-30T11:00:51Z</time>
</trkpt>
<trkpt lat="49.519794" lon="10.327917">
<ele>337.158</ele>
<time>2019-05-30T11:00:52Z</time>
</trkpt>
<trkpt lat="49.519802" lon="10.327833">
<ele>337.158</ele>
<time>2019-05-30T11:00:53Z</time>
</trkpt>
<trkpt lat="49.519806" lon="10.32775">
<ele>337.158</ele>
<time>2019-05-30T11:00:54Z</time>
</trkpt>
<trkpt lat="49.519817" lon="10.327668">
<ele>337.158</ele>
<time>2019-05-30T11:00:55Z</time>
</trkpt>
<trkpt lat="49.519821" lon="10.327587">
<ele>337.158</ele>
<time>2019-05-30T11:00:56Z</time>
</trkpt>
<trkpt lat="49.519829" lon="10.327503">
<ele>337.158</ele>
<time>2019-05-30T11:00:57Z</time>
</trkpt>
<trkpt lat="49.519836" lon="10.32742">
<ele>337.158</ele>
<time>2019-05-30T11:00:58Z</time>
</trkpt>
<trkpt lat="49.51984" lon="10.327338">
<ele>337.158</ele>
<time>2019-05-30T11:00:59Z</time>
</trkpt>
<trkpt lat="49.519852" lon="10.327256">
<ele>337.158</ele>
<time>2019-05-30T11:01:00Z</time>
</trkpt>
<trkpt lat="49.519859" lon="10.327175">
<ele>337.158</ele>
<time>2019-05-30T11:01:01Z</time>
</trkpt>
<trkpt lat="49.519871" lon="10.327097">
<ele>337.158</ele>
<time>2019-05-30T11:01:02Z</time>
</trkpt>
<trkpt lat="49.519882" lon="10.327017">
<ele>337.158</ele>
<time>2019-05-30T11:01:03Z</time>
</trkpt>
<trkpt lat="49.519897" lon="10.326939">
<ele>337.158</ele>
<time>2019-05-30T11:01:04Z</time>
</trkpt>
<trkpt lat="49.519905" lon="10.326859">
<ele>337.158</ele>
<time>2019-05-30T11:01:05Z</time>
</trkpt>
<trkpt lat="49.519924" lon="10.32678">
<ele>337.158</ele>
<time>2019-05-30T11:01:06Z</time>
</trkpt>
<trkpt lat="49.519939" lon="10.326701">
<ele>337.364</ele>
<time>2019-05-30T11:01:07Z</time>
</trkpt>
<trkpt lat="49.519962" lon="10.326624">
<ele>337.538</ele>
<time>2019-05-30T11:01:08Z</time>
</trkpt>
<trkpt lat="49.519981" lon="10.326547">
<ele>337.682</ele>
<time>2019-05-30T11:01:09Z</time>
</trkpt>
<trkpt lat="49.519997" lon="10.326468">
<ele>337.797</ele>
<time>2019-05-30T11:01:10Z</time>
</trkpt>
<trkpt lat="49.520023" lon="10.326391">
<ele>337.885</ele>
<time>2019-05-30T11:01:11Z</time>
</trkpt>
<trkpt lat="49.520046" lon="10.326316">
<ele>337.948</ele>
<time>2019-05-30T11:01:12Z</time>
</trkpt>
<trkpt lat="49.520069" lon="10.326237">
<ele>337.988</ele>
<time>2019-05-30T11:01:13Z</time>
</trkpt>
<trkpt lat="49.520096" lon="10.326159">
<ele>338.008</ele>
<time>2019-05-30T11:01:14Z</time>
</trkpt>
<trkpt lat="49.520123" lon="10.326079">
<ele>338.008</ele>
<time>2019-05-30T11:01:15Z</time>
</trkpt>
<trkpt lat="49.520145" lon="10.326002">
<ele>338.008</ele>
<time>2019-05-30T11:01:16Z</time>
</trkpt>
<trkpt lat="49.520172" lon="10.325922">
<ele>338.008</ele>
<time>2019-05-30T11:01:17Z</time>
</trkpt>
<trkpt lat="49.520195" lon="10.325843">
<ele>338.008</ele>
<time>2019-05-30T11:01:18Z</time>
</trkpt>
<trkpt lat="49.520218" lon="10.325761">
<ele>338.008</ele>
<time>2019-05-30T11:01:19Z</time>
</trkpt>
<trkpt lat="49.520237" lon="10.32568">
<ele>338.008</ele>
<time>2019-05-30T11:01:20Z</time>
</trkpt>
<trkpt lat="49.52026" lon="10.325597">
<ele>338.008</ele>
<time>2019-05-30T11:01:21Z</time>
</trkpt>
<trkpt lat="49.520279" lon="10.325517">
<ele>338.008</ele>
<time>2019-05-30T11:01:22Z</time>
</trkpt>
<trkpt lat="49.520302" lon="10.325437">
<ele>338.008</ele>
<time>2019-05-30T11:01:23Z</time>
</trkpt>
<trkpt lat="49.520325" lon="10.325356">
<ele>338.008</ele>
<time>2019-05-30T11:01:24Z</time>
</trkpt>
<trkpt lat="49.52034" lon="10.325276">
<ele>338.008</ele>
<time>2019-05-30T11:01:25Z</time>
</trkpt>
<trkpt lat="49.520355" lon="10.325197">
<ele>338.214</ele>
<time>2019-05-30T11:01:26Z</time>
</trkpt>
<trkpt lat="49.52037" lon="10.325115">
<ele>338.409</ele>
<time>2019-05-30T11:01:27Z</time>
</trkpt>
<trkpt lat="49.52039" lon="10.325031">
<ele>338.57</ele>
<time>2019-05-30T11:01:28Z</time>
</trkpt>
<trkpt lat="49.520401" lon="10.32495">
<ele>338.699</ele>
<time>2019-05-30T11:01:29Z</time>
</trkpt>
<trkpt lat="49.520412" lon="10.324868">
<ele>338.8</ele>
<time>2019-05-30T11:01:30Z</time>
</trkpt>
<trkpt lat="49.520428" lon="10.324784">
<ele>338.872</ele>
<time>2019-05-30T11:01:31Z</time>
</trkpt>
<trkpt lat="49.520447" lon="10.324705">
<ele>338.92</ele>
<time>2019-05-30T11:01:32Z</time>
</trkpt>
<trkpt lat="49.520462" lon="10.324623">
<ele>338.942</ele>
<time>2019-05-30T11:01:33Z</time>
</trkpt>
<trkpt lat="49.520485" lon="10.324541">
<ele>338.942</ele>
<time>2019-05-30T11:01:34Z</time>
</trkpt>
<trkpt lat="49.520508" lon="10.324464">
<ele>338.942</ele>
<time>2019-05-30T11:01:35Z</time>
</trkpt>
<trkpt lat="49.520531" lon="10.324389">
<ele>338.942</ele>
<time>2019-05-30T11:01:36Z</time>
</trkpt>
<trkpt lat="49.520561" lon="10.324319">
<ele>338.942</ele>
<time>2019-05-30T11:01:37Z</time>
</trkpt>
<trkpt lat="49.520596" lon="10.324259">
<ele>338.942</ele>
<time>2019-05-30T11:01:38Z</time>
</trkpt>
<trkpt lat="49.52063" lon="10.324204">
<ele>338.942</ele>
<time>2019-05-30T11:01:39Z</time>
</trkpt>
<trkpt lat="49.520672" lon="10.324157">
<ele>338.942</ele>
<time>2019-05-30T11:01:40Z</time>
</trkpt>
<trkpt lat="49.52071" lon="10.324108">
<ele>338.942</ele>
<time>2019-05-30T11:01:41Z</time>
</trkpt>
<trkpt lat="49.520752" lon="10.324057">
<ele>338.942</ele>
<time>2019-05-30T11:01:42Z</time>
</trkpt>
<trkpt lat="49.520794" lon="10.324001">
<ele>338.942</ele>
<time>2019-05-30T11:01:43Z</time>
</trkpt>
<trkpt lat="49.520836" lon="10.323944">
<ele>338.942</ele>
<time>2019-05-30T11:01:44Z</time>
</trkpt>
<trkpt lat="49.520878" lon="10.323887">
<ele>338.942</ele>
<time>2019-05-30T11:01:45Z</time>
</trkpt>
<trkpt lat="49.520912" lon="10.323832">
<ele>339.154</ele>
<time>2019-05-30T11:01:46Z</time>
</trkpt>
<trkpt lat="49.52095" lon="10.323778">
<ele>339.352</ele>
<time>2019-05-30T11:01:47Z</time>
</trkpt>
<trkpt lat="49.520981" lon="10.323725">
<ele>339.51</ele>
<time>2019-05-30T11:01:48Z</time>
</trkpt>
<trkpt lat="49.521015" lon="10.32367">
<ele>339.636</ele>
<time>2019-05-30T11:01:49Z</time>
</trkpt>
<trkpt lat="49.521042" lon="10.323611">
<ele>339.717</ele>
<time>2019-05-30T11:01:50Z</time>
</trkpt>
<trkpt lat="49.521072" lon="10.323552">
<ele>340.016</ele>
<time>2019-05-30T11:01:51Z</time>
</trkpt>
<trkpt lat="49.521099" lon="10.32349">
<ele>340.255</ele>
<time>2019-05-30T11:01:52Z</time>
</trkpt>
<trkpt lat="49.521122" lon="10.323431">
<ele>340.442</ele>
<time>2019-05-30T11:01:53Z</time>
</trkpt>
<trkpt lat="49.521145" lon="10.323372">
<ele>340.587</ele>
<time>2019-05-30T11:01:54Z</time>
</trkpt>
<trkpt lat="49.521172" lon="10.323312">
<ele>340.672</ele>
<time>2019-05-30T11:01:55Z</time>
</trkpt>
<trkpt lat="49.521191" lon="10.323252">
<ele>340.733</ele>
<time>2019-05-30T11:01:56Z</time>
</trkpt>
<trkpt lat="49.521206" lon="10.323188">
<ele>340.988</ele>
<time>2019-05-30T11:01:57Z</time>
</trkpt>
<trkpt lat="49.521225" lon="10.323129">
<ele>341.186</ele>
<time>2019-05-30T11:01:58Z</time>
</trkpt>
<trkpt lat="49.52124" lon="10.323067">
<ele>341.329</ele>
<time>2019-05-30T11:01:59Z</time>
</trkpt>
<trkpt lat="49.521259" lon="10.323007">
<ele>341.445</ele>
<time>2019-05-30T11:02:00Z</time>
</trkpt>
<trkpt lat="49.521275" lon="10.322947">
<ele>341.535</ele>
<time>2019-05-30T11:02:01Z</time>
</trkpt>
<trkpt lat="49.521294" lon="10.322885">
<ele>341.589</ele>
<time>2019-05-30T11:02:02Z</time>
</trkpt>
<trkpt lat="49.521309" lon="10.322825">
<ele>341.862</ele>
<time>2019-05-30T11:02:03Z</time>
</trkpt>
<trkpt lat="49.521328" lon="10.322762">
<ele>342.078</ele>
<time>2019-05-30T11:02:04Z</time>
</trkpt>
<trkpt lat="49.521343" lon="10.322698">
<ele>342.236</ele>
<time>2019-05-30T11:02:05Z</time>
</trkpt>
<trkpt lat="49.521362" lon="10.322637">
<ele>342.338</ele>
<time>2019-05-30T11:02:06Z</time>
</trkpt>
<trkpt lat="49.521378" lon="10.322575">
<ele>342.445</ele>
<time>2019-05-30T11:02:07Z</time>
</trkpt>
<trkpt lat="49.521397" lon="10.322515">
<ele>342.524</ele>
<time>2019-05-30T11:02:08Z</time>
</trkpt>
<trkpt lat="49.521408" lon="10.322453">
<ele>342.573</ele>
<time>2019-05-30T11:02:09Z</time>
</trkpt>
<trkpt lat="49.521423" lon="10.322388">
<ele>342.596</ele>
<time>2019-05-30T11:02:10Z</time>
</trkpt>
<trkpt lat="49.521435" lon="10.322323">
<ele>342.85</ele>
<time>2019-05-30T11:02:11Z</time>
</trkpt>
<trkpt lat="49.52145" lon="10.32226">
<ele>343.046</ele>
<time>2019-05-30T11:02:12Z</time>
</trkpt>
<trkpt lat="49.521461" lon="10.322195">
<ele>343.199</ele>
<time>2019-05-30T11:02:13Z</time>
</trkpt>
<trkpt lat="49.521469" lon="10.322128">
<ele>343.312</ele>
<time>2019-05-30T11:02:14Z</time>
</trkpt>
<trkpt lat="49.521481" lon="10.322062">
<ele>343.395</ele>
<time>2019-05-30T11:02:15Z</time>
</trkpt>
<trkpt lat="49.521496" lon="10.321994">
<ele>343.454</ele>
<time>2019-05-30T11:02:16Z</time>
</trkpt>
<trkpt lat="49.521503" lon="10.321929">
<ele>343.506</ele>
<time>2019-05-30T11:02:17Z</time>
</trkpt>
<trkpt lat="49.521515" lon="10.321863">
<ele>343.531</ele>
<time>2019-05-30T11:02:18Z</time>
</trkpt>
<trkpt lat="49.521526" lon="10.321798">
<ele>343.531</ele>
<time>2019-05-30T11:02:19Z</time>
</trkpt>
<trkpt lat="49.52153" lon="10.321735">
<ele>343.531</ele>
<time>2019-05-30T11:02:20Z</time>
</trkpt>
<trkpt lat="49.521542" lon="10.321669">
<ele>343.531</ele>
<time>2019-05-30T11:02:21Z</time>
</trkpt>
<trkpt lat="49.521549" lon="10.321605">
<ele>343.776</ele>
<time>2019-05-30T11:02:22Z</time>
</trkpt>
<trkpt lat="49.521561" lon="10.32154">
<ele>343.97</ele>
<time>2019-05-30T11:02:23Z</time>
</trkpt>
<trkpt lat="49.521564" lon="10.321477">
<ele>344.119</ele>
<time>2019-05-30T11:02:24Z</time>
</trkpt>
<trkpt lat="49.521572" lon="10.321413">
<ele>344.231</ele>
<time>2019-05-30T11:02:25Z</time>
</trkpt>
<trkpt lat="49.521576" lon="10.32135">
<ele>344.31</ele>
<time>2019-05-30T11:02:26Z</time>
</trkpt>
<trkpt lat="49.52158" lon="10.321288">
<ele>344.39</ele>
<time>2019-05-30T11:02:27Z</time>
</trkpt>
<trkpt lat="49.521587" lon="10.321227">
<ele>344.441</ele>
<time>2019-05-30T11:02:28Z</time>
</trkpt>
<trkpt lat="49.521595" lon="10.321166">
<ele>344.69</ele>
<time>2019-05-30T11:02:29Z</time>
</trkpt>
<trkpt lat="49.521595" lon="10.321105">
<ele>344.94</ele>
<time>2019-05-30T11:02:30Z</time>
</trkpt>
<trkpt lat="49.521595" lon="10.321043">
<ele>345.103</ele>
<time>2019-05-30T11:02:31Z</time>
</trkpt>
<trkpt lat="49.521599" lon="10.320984">
<ele>345.222</ele>
<time>2019-05-30T11:02:32Z</time>
</trkpt>
<trkpt lat="49.521606" lon="10.320923">
<ele>345.299</ele>
<time>2019-05-30T11:02:33Z</time>
</trkpt>
<trkpt lat="49.521614" lon="10.320863">
<ele>345.355</ele>
<time>2019-05-30T11:02:34Z</time>
</trkpt>
<trkpt lat="49.521626" lon="10.320806">
<ele>345.38</ele>
<time>2019-05-30T11:02:35Z</time>
</trkpt>
<trkpt lat="49.521629" lon="10.320746">
<ele>345.402</ele>
<time>2019-05-30T11:02:36Z</time>
</trkpt>
<trkpt lat="49.521633" lon="10.320686">
<ele>345.402</ele>
<time>2019-05-30T11:02:37Z</time>
</trkpt>
<trkpt lat="49.521637" lon="10.320626">
<ele>345.706</ele>
<time>2019-05-30T11:02:38Z</time>
</trkpt>
<trkpt lat="49.521645" lon="10.320565">
<ele>345.942</ele>
<time>2019-05-30T11:02:39Z</time>
</trkpt>
<trkpt lat="49.521648" lon="10.320506">
<ele>346.121</ele>
<time>2019-05-30T11:02:40Z</time>
</trkpt>
<trkpt lat="49.521652" lon="10.320448">
<ele>346.245</ele>
<time>2019-05-30T11:02:41Z</time>
</trkpt>
<trkpt lat="49.521656" lon="10.320389">
<ele>346.34</ele>
<time>2019-05-30T11:02:42Z</time>
</trkpt>
<trkpt lat="49.52166" lon="10.32033">
<ele>346.392</ele>
<time>2019-05-30T11:02:43Z</time>
</trkpt>
<trkpt lat="49.52166" lon="10.320273">
<ele>346.654</ele>
<time>2019-05-30T11:02:44Z</time>
</trkpt>
<trkpt lat="49.521664" lon="10.320215">
<ele>346.837</ele>
<time>2019-05-30T11:02:45Z</time>
</trkpt>
<trkpt lat="49.521667" lon="10.320156">
<ele>346.964</ele>
<time>2019-05-30T11:02:46Z</time>
</trkpt>
<trkpt lat="49.521671" lon="10.320098">
<ele>347.101</ele>
<time>2019-05-30T11:02:47Z</time>
</trkpt>
<trkpt lat="49.521679" lon="10.320042">
<ele>347.209</ele>
<time>2019-05-30T11:02:48Z</time>
</trkpt>
<trkpt lat="49.521683" lon="10.319979">
<ele>347.285</ele>
<time>2019-05-30T11:02:49Z</time>
</trkpt>
<trkpt lat="49.521683" lon="10.319917">
<ele>347.33</ele>
<time>2019-05-30T11:02:50Z</time>
</trkpt>
<trkpt lat="49.521683" lon="10.31986">
<ele>347.566</ele>
<time>2019-05-30T11:02:51Z</time>
</trkpt>
<trkpt lat="49.521687" lon="10.3198">
<ele>347.77</ele>
<time>2019-05-30T11:02:52Z</time>
</trkpt>
<trkpt lat="49.521687" lon="10.319734">
<ele>347.912</ele>
<time>2019-05-30T11:02:53Z</time>
</trkpt>
<trkpt lat="49.521687" lon="10.319668">
<ele>348.015</ele>
<time>2019-05-30T11:02:54Z</time>
</trkpt>
<trkpt lat="49.52169" lon="10.319601">
<ele>348.086</ele>
<time>2019-05-30T11:02:55Z</time>
</trkpt>
<trkpt lat="49.521694" lon="10.319533">
<ele>348.138</ele>
<time>2019-05-30T11:02:56Z</time>
</trkpt>
<trkpt lat="49.521702" lon="10.319465">
<ele>348.184</ele>
<time>2019-05-30T11:02:57Z</time>
</trkpt>
<trkpt lat="49.521709" lon="10.319396">
<ele>348.208</ele>
<time>2019-05-30T11:02:58Z</time>
</trkpt>
<trkpt lat="49.521713" lon="10.319331">
<ele>348.208</ele>
<time>2019-05-30T11:02:59Z</time>
</trkpt>
<trkpt lat="49.521721" lon="10.31927">
<ele>348.471</ele>
<time>2019-05-30T11:03:00Z</time>
</trkpt>
<trkpt lat="49.521725" lon="10.319207">
<ele>348.671</ele>
<time>2019-05-30T11:03:01Z</time>
</trkpt>
<trkpt lat="49.521729" lon="10.319148">
<ele>348.825</ele>
<time>2019-05-30T11:03:02Z</time>
</trkpt>
<trkpt lat="49.521732" lon="10.319083">
<ele>348.937</ele>
<time>2019-05-30T11:03:03Z</time>
</trkpt>
<trkpt lat="49.52174" lon="10.319015">
<ele>349.017</ele>
<time>2019-05-30T11:03:04Z</time>
</trkpt>
<trkpt lat="49.521744" lon="10.318947">
<ele>349.073</ele>
<time>2019-05-30T11:03:05Z</time>
</trkpt>
<trkpt lat="49.521755" lon="10.31888">
<ele>349.116</ele>
<time>2019-05-30T11:03:06Z</time>
</trkpt>
<trkpt lat="49.521759" lon="10.318811">
<ele>349.143</ele>
<time>2019-05-30T11:03:07Z</time>
</trkpt>
<trkpt lat="49.521767" lon="10.318745">
<ele>349.143</ele>
<time>2019-05-30T11:03:08Z</time>
</trkpt>
<trkpt lat="49.521774" lon="10.318677">
<ele>349.143</ele>
<time>2019-05-30T11:03:09Z</time>
</trkpt>
<trkpt lat="49.521778" lon="10.318612">
<ele>349.143</ele>
<time>2019-05-30T11:03:10Z</time>
</trkpt>
<trkpt lat="49.521778" lon="10.318545">
<ele>349.143</ele>
<time>2019-05-30T11:03:11Z</time>
</trkpt>
<trkpt lat="49.521786" lon="10.318479">
<ele>349.143</ele>
<time>2019-05-30T11:03:12Z</time>
</trkpt>
<trkpt lat="49.52179" lon="10.318412">
<ele>349.143</ele>
<time>2019-05-30T11:03:13Z</time>
</trkpt>
<trkpt lat="49.521801" lon="10.318344">
<ele>349.143</ele>
<time>2019-05-30T11:03:14Z</time>
</trkpt>
<trkpt lat="49.521809" lon="10.318278">
<ele>349.37</ele>
<time>2019-05-30T11:03:15Z</time>
</trkpt>
<trkpt lat="49.521816" lon="10.318208">
<ele>349.533</ele>
<time>2019-05-30T11:03:16Z</time>
</trkpt>
<trkpt lat="49.521824" lon="10.318136">
<ele>349.701</ele>
<time>2019-05-30T11:03:17Z</time>
</trkpt>
<trkpt lat="49.521832" lon="10.318068">
<ele>349.837</ele>
<time>2019-05-30T11:03:18Z</time>
</trkpt>
<trkpt lat="49.521847" lon="10.318002">
<ele>349.937</ele>
<time>2019-05-30T11:03:19Z</time>
</trkpt>
<trkpt lat="49.521854" lon="10.317931">
<ele>350.01</ele>
<time>2019-05-30T11:03:20Z</time>
</trkpt>
<trkpt lat="49.521862" lon="10.317862">
<ele>350.056</ele>
<time>2019-05-30T11:03:21Z</time>
</trkpt>
<trkpt lat="49.521877" lon="10.317793">
<ele>350.079</ele>
<time>2019-05-30T11:03:22Z</time>
</trkpt>
<trkpt lat="49.521889" lon="10.317725">
<ele>350.079</ele>
<time>2019-05-30T11:03:23Z</time>
</trkpt>
<trkpt lat="49.5219" lon="10.317655">
<ele>350.079</ele>
<time>2019-05-30T11:03:24Z</time>
</trkpt>
<trkpt lat="49.521908" lon="10.317587">
<ele>350.079</ele>
<time>2019-05-30T11:03:25Z</time>
</trkpt>
<trkpt lat="49.521919" lon="10.317516">
<ele>350.079</ele>
<time>2019-05-30T11:03:26Z</time>
</trkpt>
<trkpt lat="49.521927" lon="10.317447">
<ele>350.079</ele>
<time>2019-05-30T11:03:27Z</time>
</trkpt>
<trkpt lat="49.521938" lon="10.317374">
<ele>350.079</ele>
<time>2019-05-30T11:03:28Z</time>
</trkpt>
<trkpt lat="49.52195" lon="10.317301">
<ele>350.079</ele>
<time>2019-05-30T11:03:29Z</time>
</trkpt>
<trkpt lat="49.521957" lon="10.317228">
<ele>350.079</ele>
<time>2019-05-30T11:03:30Z</time>
</trkpt>
<trkpt lat="49.521973" lon="10.317154">
<ele>350.079</ele>
<time>2019-05-30T11:03:31Z</time>
</trkpt>
<trkpt lat="49.521984" lon="10.317077">
<ele>350.079</ele>
<time>2019-05-30T11:03:32Z</time>
</trkpt>
<trkpt lat="49.521992" lon="10.317003">
<ele>350.079</ele>
<time>2019-05-30T11:03:33Z</time>
</trkpt>
<trkpt lat="49.522003" lon="10.316928">
<ele>350.079</ele>
<time>2019-05-30T11:03:34Z</time>
</trkpt>
<trkpt lat="49.522015" lon="10.316853">
<ele>350.079</ele>
<time>2019-05-30T11:03:35Z</time>
</trkpt>
<trkpt lat="49.522022" lon="10.316777">
<ele>350.079</ele>
<time>2019-05-30T11:03:36Z</time>
</trkpt>
<trkpt lat="49.522034" lon="10.3167">
<ele>350.079</ele>
<time>2019-05-30T11:03:37Z</time>
</trkpt>
<trkpt lat="49.522045" lon="10.316625">
<ele>350.079</ele>
<time>2019-05-30T11:03:38Z</time>
</trkpt>
<trkpt lat="49.522053" lon="10.31655">
<ele>350.079</ele>
<time>2019-05-30T11:03:39Z</time>
</trkpt>
<trkpt lat="49.522064" lon="10.316475">
<ele>350.079</ele>
<time>2019-05-30T11:03:40Z</time>
</trkpt>
<trkpt lat="49.522079" lon="10.316401">
<ele>350.079</ele>
<time>2019-05-30T11:03:41Z</time>
</trkpt>
<trkpt lat="49.522087" lon="10.316326">
<ele>350.079</ele>
<time>2019-05-30T11:03:42Z</time>
</trkpt>
<trkpt lat="49.522099" lon="10.316252">
<ele>350.079</ele>
<time>2019-05-30T11:03:43Z</time>
</trkpt>
<trkpt lat="49.52211" lon="10.316176">
<ele>350.079</ele>
<time>2019-05-30T11:03:44Z</time>
</trkpt>
<trkpt lat="49.522118" lon="10.316102">
<ele>350.079</ele>
<time>2019-05-30T11:03:45Z</time>
</trkpt>
<trkpt lat="49.522129" lon="10.316027">
<ele>350.079</ele>
<time>2019-05-30T11:03:46Z</time>
</trkpt>
<trkpt lat="49.522144" lon="10.315949">
<ele>350.079</ele>
<time>2019-05-30T11:03:47Z</time>
</trkpt>
<trkpt lat="49.522152" lon="10.315875">
<ele>350.079</ele>
<time>2019-05-30T11:03:48Z</time>
</trkpt>
<trkpt lat="49.52216" lon="10.315801">
<ele>350.079</ele>
<time>2019-05-30T11:03:49Z</time>
</trkpt>
<trkpt lat="49.522171" lon="10.315725">
<ele>350.079</ele>
<time>2019-05-30T11:03:50Z</time>
</trkpt>
<trkpt lat="49.522182" lon="10.315648">
<ele>350.079</ele>
<time>2019-05-30T11:03:51Z</time>
</trkpt>
<trkpt lat="49.52219" lon="10.315574">
<ele>350.079</ele>
<time>2019-05-30T11:03:52Z</time>
</trkpt>
<trkpt lat="49.522202" lon="10.315498">
<ele>350.079</ele>
<time>2019-05-30T11:03:53Z</time>
</trkpt>
<trkpt lat="49.522209" lon="10.315423">
<ele>350.079</ele>
<time>2019-05-30T11:03:54Z</time>
</trkpt>
<trkpt lat="49.522221" lon="10.315351">
<ele>350.079</ele>
<time>2019-05-30T11:03:55Z</time>
</trkpt>
<trkpt lat="49.522232" lon="10.315275">
<ele>350.079</ele>
<time>2019-05-30T11:03:56Z</time>
</trkpt>
<trkpt lat="49.52224" lon="10.315202">
<ele>350.079</ele>
<time>2019-05-30T11:03:57Z</time>
</trkpt>
<trkpt lat="49.522247" lon="10.315128">
<ele>350.079</ele>
<time>2019-05-30T11:03:58Z</time>
</trkpt>
<trkpt lat="49.522247" lon="10.315057">
<ele>350.079</ele>
<time>2019-05-30T11:03:59Z</time>
</trkpt>
<trkpt lat="49.522255" lon="10.314986">
<ele>350.079</ele>
<time>2019-05-30T11:04:00Z</time>
</trkpt>
<trkpt lat="49.522266" lon="10.314925">
<ele>350.079</ele>
<time>2019-05-30T11:04:01Z</time>
</trkpt>
<trkpt lat="49.522274" lon="10.314864">
<ele>350.079</ele>
<time>2019-05-30T11:04:02Z</time>
</trkpt>
<trkpt lat="49.522285" lon="10.314805">
<ele>350.079</ele>
<time>2019-05-30T11:04:03Z</time>
</trkpt>
<trkpt lat="49.522301" lon="10.314749">
<ele>350.079</ele>
<time>2019-05-30T11:04:04Z</time>
</trkpt>
<trkpt lat="49.522316" lon="10.314693">
<ele>350.079</ele>
<time>2019-05-30T11:04:05Z</time>
</trkpt>
<trkpt lat="49.522343" lon="10.314645">
<ele>350.079</ele>
<time>2019-05-30T11:04:06Z</time>
</trkpt>
<trkpt lat="49.522362" lon="10.314598">
<ele>350.079</ele>
<time>2019-05-30T11:04:07Z</time>
</trkpt>
<trkpt lat="49.522385" lon="10.314551">
<ele>350.079</ele>
<time>2019-05-30T11:04:08Z</time>
</trkpt>
<trkpt lat="49.522411" lon="10.314504">
<ele>350.079</ele>
<time>2019-05-30T11:04:09Z</time>
</trkpt>
<trkpt lat="49.522442" lon="10.314458">
<ele>350.079</ele>
<time>2019-05-30T11:04:10Z</time>
</trkpt>
<trkpt lat="49.522472" lon="10.314408">
<ele>350.079</ele>
<time>2019-05-30T11:04:11Z</time>
</trkpt>
<trkpt lat="49.522507" lon="10.314353">
<ele>350.079</ele>
<time>2019-05-30T11:04:12Z</time>
</trkpt>
<trkpt lat="49.522541" lon="10.314301">
<ele>350.079</ele>
<time>2019-05-30T11:04:13Z</time>
</trkpt>
<trkpt lat="49.522572" lon="10.314246">
<ele>350.079</ele>
<time>2019-05-30T11:04:14Z</time>
</trkpt>
<trkpt lat="49.522602" lon="10.314196">
<ele>350.079</ele>
<time>2019-05-30T11:04:15Z</time>
</trkpt>
<trkpt lat="49.522636" lon="10.314143">
<ele>350.314</ele>
<time>2019-05-30T11:04:16Z</time>
</trkpt>
<trkpt lat="49.522663" lon="10.314098">
<ele>350.527</ele>
<time>2019-05-30T11:04:17Z</time>
</trkpt>
<trkpt lat="49.52269" lon="10.314047">
<ele>350.698</ele>
<time>2019-05-30T11:04:18Z</time>
</trkpt>
<trkpt lat="49.52272" lon="10.313998">
<ele>350.834</ele>
<time>2019-05-30T11:04:19Z</time>
</trkpt>
<trkpt lat="49.522751" lon="10.313947">
<ele>350.939</ele>
<time>2019-05-30T11:04:20Z</time>
</trkpt>
<trkpt lat="49.522785" lon="10.3139">
<ele>351.021</ele>
<time>2019-05-30T11:04:21Z</time>
</trkpt>
<trkpt lat="49.522823" lon="10.313852">
<ele>351.075</ele>
<time>2019-05-30T11:04:22Z</time>
</trkpt>
<trkpt lat="49.522861" lon="10.313804">
<ele>351.099</ele>
<time>2019-05-30T11:04:23Z</time>
</trkpt>
<trkpt lat="49.5229" lon="10.31375">
<ele>351.099</ele>
<time>2019-05-30T11:04:24Z</time>
</trkpt>
<trkpt lat="49.52293" lon="10.3137">
<ele>351.336</ele>
<time>2019-05-30T11:04:25Z</time>
</trkpt>
<trkpt lat="49.522972" lon="10.313648">
<ele>351.497</ele>
<time>2019-05-30T11:04:26Z</time>
</trkpt>
<trkpt lat="49.523006" lon="10.313595">
<ele>351.664</ele>
<time>2019-05-30T11:04:27Z</time>
</trkpt>
<trkpt lat="49.523041" lon="10.313541">
<ele>351.796</ele>
<time>2019-05-30T11:04:28Z</time>
</trkpt>
<trkpt lat="49.523071" lon="10.313487">
<ele>351.895</ele>
<time>2019-05-30T11:04:29Z</time>
</trkpt>
<trkpt lat="49.523102" lon="10.313432">
<ele>351.966</ele>
<time>2019-05-30T11:04:30Z</time>
</trkpt>
<trkpt lat="49.523132" lon="10.313376">
<ele>352.01</ele>
<time>2019-05-30T11:04:31Z</time>
</trkpt>
<trkpt lat="49.523159" lon="10.313324">
<ele>352.238</ele>
<time>2019-05-30T11:04:32Z</time>
</trkpt>
<trkpt lat="49.523193" lon="10.31327">
<ele>352.431</ele>
<time>2019-05-30T11:04:33Z</time>
</trkpt>
<trkpt lat="49.523212" lon="10.313215">
<ele>352.562</ele>
<time>2019-05-30T11:04:34Z</time>
</trkpt>
<trkpt lat="49.523235" lon="10.31316">
<ele>352.644</ele>
<time>2019-05-30T11:04:35Z</time>
</trkpt>
<trkpt lat="49.523258" lon="10.313104">
<ele>352.943</ele>
<time>2019-05-30T11:04:36Z</time>
</trkpt>
<trkpt lat="49.523281" lon="10.313046">
<ele>353.212</ele>
<time>2019-05-30T11:04:37Z</time>
</trkpt>
<trkpt lat="49.523296" lon="10.312991">
<ele>353.399</ele>
<time>2019-05-30T11:04:38Z</time>
</trkpt>
<trkpt lat="49.523319" lon="10.312941">
<ele>353.783</ele>
<time>2019-05-30T11:04:39Z</time>
</trkpt>
<trkpt lat="49.523335" lon="10.312888">
<ele>354.079</ele>
<time>2019-05-30T11:04:40Z</time>
</trkpt>
<trkpt lat="49.523357" lon="10.312837">
<ele>354.314</ele>
<time>2019-05-30T11:04:41Z</time>
</trkpt>
<trkpt lat="49.523376" lon="10.312785">
<ele>354.493</ele>
<time>2019-05-30T11:04:42Z</time>
</trkpt>
<trkpt lat="49.523399" lon="10.312734">
<ele>354.596</ele>
<time>2019-05-30T11:04:43Z</time>
</trkpt>
<trkpt lat="49.523418" lon="10.312683">
<ele>354.913</ele>
<time>2019-05-30T11:04:44Z</time>
</trkpt>
<trkpt lat="49.523441" lon="10.312634">
<ele>355.109</ele>
<time>2019-05-30T11:04:45Z</time>
</trkpt>
<trkpt lat="49.52346" lon="10.312582">
<ele>355.254</ele>
<time>2019-05-30T11:04:46Z</time>
</trkpt>
<trkpt lat="49.523479" lon="10.312531">
<ele>355.379</ele>
<time>2019-05-30T11:04:47Z</time>
</trkpt>
<trkpt lat="49.523499" lon="10.312478">
<ele>355.475</ele>
<time>2019-05-30T11:04:48Z</time>
</trkpt>
<trkpt lat="49.523518" lon="10.312428">
<ele>355.544</ele>
<time>2019-05-30T11:04:49Z</time>
</trkpt>
<trkpt lat="49.523544" lon="10.312377">
<ele>355.588</ele>
<time>2019-05-30T11:04:50Z</time>
</trkpt>
<trkpt lat="49.523563" lon="10.312325">
<ele>355.609</ele>
<time>2019-05-30T11:04:51Z</time>
</trkpt>
<trkpt lat="49.523582" lon="10.312272">
<ele>355.609</ele>
<time>2019-05-30T11:04:52Z</time>
</trkpt>
<trkpt lat="49.523609" lon="10.312219">
<ele>355.609</ele>
<time>2019-05-30T11:04:53Z</time>
</trkpt>
<trkpt lat="49.523624" lon="10.312163">
<ele>355.609</ele>
<time>2019-05-30T11:04:54Z</time>
</trkpt>
<trkpt lat="49.523647" lon="10.312109">
<ele>355.84</ele>
<time>2019-05-30T11:04:55Z</time>
</trkpt>
<trkpt lat="49.52367" lon="10.312055">
<ele>356.002</ele>
<time>2019-05-30T11:04:56Z</time>
</trkpt>
<trkpt lat="49.523689" lon="10.312003">
<ele>356.17</ele>
<time>2019-05-30T11:04:57Z</time>
</trkpt>
<trkpt lat="49.523712" lon="10.31195">
<ele>356.302</ele>
<time>2019-05-30T11:04:58Z</time>
</trkpt>
<trkpt lat="49.523731" lon="10.311897">
<ele>356.402</ele>
<time>2019-05-30T11:04:59Z</time>
</trkpt>
<trkpt lat="49.52375" lon="10.31184">
<ele>356.475</ele>
<time>2019-05-30T11:05:00Z</time>
</trkpt>
<trkpt lat="49.523773" lon="10.311782">
<ele>356.522</ele>
<time>2019-05-30T11:05:01Z</time>
</trkpt>
<trkpt lat="49.523796" lon="10.311727">
<ele>356.545</ele>
<time>2019-05-30T11:05:02Z</time>
</trkpt>
<trkpt lat="49.523819" lon="10.311671">
<ele>356.832</ele>
<time>2019-05-30T11:05:03Z</time>
</trkpt>
<trkpt lat="49.523838" lon="10.311615">
<ele>357.059</ele>
<time>2019-05-30T11:05:04Z</time>
</trkpt>
<trkpt lat="49.523857" lon="10.311557">
<ele>357.232</ele>
<time>2019-05-30T11:05:05Z</time>
</trkpt>
<trkpt lat="49.523876" lon="10.3115">
<ele>357.349</ele>
<time>2019-05-30T11:05:06Z</time>
</trkpt>
<trkpt lat="49.523891" lon="10.311445">
<ele>357.474</ele>
<time>2019-05-30T11:05:07Z</time>
</trkpt>
<trkpt lat="49.523911" lon="10.31139">
<ele>357.563</ele>
<time>2019-05-30T11:05:08Z</time>
</trkpt>
<trkpt lat="49.52393" lon="10.311334">
<ele>357.62</ele>
<time>2019-05-30T11:05:09Z</time>
</trkpt>
<trkpt lat="49.523945" lon="10.311274">
<ele>357.878</ele>
<time>2019-05-30T11:05:10Z</time>
</trkpt>
<trkpt lat="49.523964" lon="10.311213">
<ele>358.118</ele>
<time>2019-05-30T11:05:11Z</time>
</trkpt>
<trkpt lat="49.523979" lon="10.311153">
<ele>358.276</ele>
<time>2019-05-30T11:05:12Z</time>
</trkpt>
<trkpt lat="49.523998" lon="10.311091">
<ele>358.387</ele>
<time>2019-05-30T11:05:13Z</time>
</trkpt>
<trkpt lat="49.524014" lon="10.311028">
<ele>358.474</ele>
<time>2019-05-30T11:05:14Z</time>
</trkpt>
<trkpt lat="49.524033" lon="10.310964">
<ele>358.524</ele>
<time>2019-05-30T11:05:15Z</time>
</trkpt>
<trkpt lat="49.524048" lon="10.3109">
<ele>358.563</ele>
<time>2019-05-30T11:05:16Z</time>
</trkpt>
<trkpt lat="49.524063" lon="10.310835">
<ele>358.588</ele>
<time>2019-05-30T11:05:17Z</time>
</trkpt>
<trkpt lat="49.524078" lon="10.31077">
<ele>358.588</ele>
<time>2019-05-30T11:05:18Z</time>
</trkpt>
<trkpt lat="49.524097" lon="10.310703">
<ele>358.588</ele>
<time>2019-05-30T11:05:19Z</time>
</trkpt>
<trkpt lat="49.524113" lon="10.310642">
<ele>358.588</ele>
<time>2019-05-30T11:05:20Z</time>
</trkpt>
<trkpt lat="49.524132" lon="10.310577">
<ele>358.842</ele>
<time>2019-05-30T11:05:21Z</time>
</trkpt>
<trkpt lat="49.524143" lon="10.310513">
<ele>359.04</ele>
<time>2019-05-30T11:05:22Z</time>
</trkpt>
<trkpt lat="49.524162" lon="10.310448">
<ele>359.191</ele>
<time>2019-05-30T11:05:23Z</time>
</trkpt>
<trkpt lat="49.524174" lon="10.310382">
<ele>359.308</ele>
<time>2019-05-30T11:05:24Z</time>
</trkpt>
<trkpt lat="49.524193" lon="10.310316">
<ele>359.386</ele>
<time>2019-05-30T11:05:25Z</time>
</trkpt>
<trkpt lat="49.524208" lon="10.31025">
<ele>359.445</ele>
<time>2019-05-30T11:05:26Z</time>
</trkpt>
<trkpt lat="49.524227" lon="10.310184">
<ele>359.498</ele>
<time>2019-05-30T11:05:27Z</time>
</trkpt>
<trkpt lat="49.524239" lon="10.310117">
<ele>359.524</ele>
<time>2019-05-30T11:05:28Z</time>
</trkpt>
<trkpt lat="49.524258" lon="10.31005">
<ele>359.524</ele>
<time>2019-05-30T11:05:29Z</time>
</trkpt>
<trkpt lat="49.524269" lon="10.309983">
<ele>359.524</ele>
<time>2019-05-30T11:05:30Z</time>
</trkpt>
<trkpt lat="49.524284" lon="10.309916">
<ele>359.524</ele>
<time>2019-05-30T11:05:31Z</time>
</trkpt>
<trkpt lat="49.5243" lon="10.309851">
<ele>359.524</ele>
<time>2019-05-30T11:05:32Z</time>
</trkpt>
<trkpt lat="49.524319" lon="10.309785">
<ele>359.524</ele>
<time>2019-05-30T11:05:33Z</time>
</trkpt>
<trkpt lat="49.524334" lon="10.309718">
<ele>359.524</ele>
<time>2019-05-30T11:05:34Z</time>
</trkpt>
<trkpt lat="49.524357" lon="10.309653">
<ele>359.524</ele>
<time>2019-05-30T11:05:35Z</time>
</trkpt>
<trkpt lat="49.524368" lon="10.309588">
<ele>359.524</ele>
<time>2019-05-30T11:05:36Z</time>
</trkpt>
<trkpt lat="49.524387" lon="10.309522">
<ele>359.524</ele>
<time>2019-05-30T11:05:37Z</time>
</trkpt>
<trkpt lat="49.524403" lon="10.309457">
<ele>359.779</ele>
<time>2019-05-30T11:05:38Z</time>
</trkpt>
<trkpt lat="49.524418" lon="10.30939">
<ele>359.973</ele>
<time>2019-05-30T11:05:39Z</time>
</trkpt>
<trkpt lat="49.524433" lon="10.30932">
<ele>360.122</ele>
<time>2019-05-30T11:05:40Z</time>
</trkpt>
<trkpt lat="49.524448" lon="10.309252">
<ele>360.234</ele>
<time>2019-05-30T11:05:41Z</time>
</trkpt>
<trkpt lat="49.524464" lon="10.309185">
<ele>360.308</ele>
<time>2019-05-30T11:05:42Z</time>
</trkpt>
<trkpt lat="49.524483" lon="10.309117">
<ele>360.351</ele>
<time>2019-05-30T11:05:43Z</time>
</trkpt>
<trkpt lat="49.524498" lon="10.309049">
<ele>360.372</ele>
<time>2019-05-30T11:05:44Z</time>
</trkpt>
<trkpt lat="49.524517" lon="10.30898">
<ele>360.376</ele>
<time>2019-05-30T11:05:45Z</time>
</trkpt>
<trkpt lat="49.524532" lon="10.308912">
<ele>360.376</ele>
<time>2019-05-30T11:05:46Z</time>
</trkpt>
<trkpt lat="49.524551" lon="10.308843">
<ele>360.376</ele>
<time>2019-05-30T11:05:47Z</time>
</trkpt>
<trkpt lat="49.524567" lon="10.308776">
<ele>360.376</ele>
<time>2019-05-30T11:05:48Z</time>
</trkpt>
<trkpt lat="49.524582" lon="10.308711">
<ele>360.376</ele>
<time>2019-05-30T11:05:49Z</time>
</trkpt>
<trkpt lat="49.524593" lon="10.308645">
<ele>360.376</ele>
<time>2019-05-30T11:05:50Z</time>
</trkpt>
<trkpt lat="49.524609" lon="10.308577">
<ele>360.376</ele>
<time>2019-05-30T11:05:51Z</time>
</trkpt>
<trkpt lat="49.524628" lon="10.308512">
<ele>360.376</ele>
<time>2019-05-30T11:05:52Z</time>
</trkpt>
<trkpt lat="49.524635" lon="10.308449">
<ele>360.376</ele>
<time>2019-05-30T11:05:53Z</time>
</trkpt>
<trkpt lat="49.524651" lon="10.308384">
<ele>360.376</ele>
<time>2019-05-30T11:05:54Z</time>
</trkpt>
<trkpt lat="49.524662" lon="10.308317">
<ele>360.376</ele>
<time>2019-05-30T11:05:55Z</time>
</trkpt>
<trkpt lat="49.524681" lon="10.308247">
<ele>360.376</ele>
<time>2019-05-30T11:05:56Z</time>
</trkpt>
<trkpt lat="49.524693" lon="10.308177">
<ele>360.648</ele>
<time>2019-05-30T11:05:57Z</time>
</trkpt>
<trkpt lat="49.524715" lon="10.308104">
<ele>360.877</ele>
<time>2019-05-30T11:05:58Z</time>
</trkpt>
<trkpt lat="49.524727" lon="10.30803">
<ele>361.065</ele>
<time>2019-05-30T11:05:59Z</time>
</trkpt>
<trkpt lat="49.52475" lon="10.307957">
<ele>361.217</ele>
<time>2019-05-30T11:06:00Z</time>
</trkpt>
<trkpt lat="49.524765" lon="10.307883">
<ele>361.331</ele>
<time>2019-05-30T11:06:01Z</time>
</trkpt>
<trkpt lat="49.524784" lon="10.307812">
<ele>361.409</ele>
<time>2019-05-30T11:06:02Z</time>
</trkpt>
<trkpt lat="49.524796" lon="10.307738">
<ele>361.458</ele>
<time>2019-05-30T11:06:03Z</time>
</trkpt>
<trkpt lat="49.524811" lon="10.307665">
<ele>361.483</ele>
<time>2019-05-30T11:06:04Z</time>
</trkpt>
<trkpt lat="49.524822" lon="10.307591">
<ele>361.483</ele>
<time>2019-05-30T11:06:05Z</time>
</trkpt>
<trkpt lat="49.524841" lon="10.307519">
<ele>361.483</ele>
<time>2019-05-30T11:06:06Z</time>
</trkpt>
<trkpt lat="49.524857" lon="10.307447">
<ele>361.483</ele>
<time>2019-05-30T11:06:07Z</time>
</trkpt>
<trkpt lat="49.524864" lon="10.307374">
<ele>361.483</ele>
<time>2019-05-30T11:06:08Z</time>
</trkpt>
<trkpt lat="49.524879" lon="10.307302">
<ele>361.483</ele>
<time>2019-05-30T11:06:09Z</time>
</trkpt>
<trkpt lat="49.524891" lon="10.307232">
<ele>361.483</ele>
<time>2019-05-30T11:06:10Z</time>
</trkpt>
<trkpt lat="49.524906" lon="10.307162">
<ele>361.483</ele>
<time>2019-05-30T11:06:11Z</time>
</trkpt>
<trkpt lat="49.524921" lon="10.307092">
<ele>361.483</ele>
<time>2019-05-30T11:06:12Z</time>
</trkpt>
<trkpt lat="49.524937" lon="10.307024">
<ele>361.483</ele>
<time>2019-05-30T11:06:13Z</time>
</trkpt>
<trkpt lat="49.524948" lon="10.306955">
<ele>361.483</ele>
<time>2019-05-30T11:06:14Z</time>
</trkpt>
<trkpt lat="49.52496" lon="10.306887">
<ele>361.483</ele>
<time>2019-05-30T11:06:15Z</time>
</trkpt>
<trkpt lat="49.524975" lon="10.30682">
<ele>361.483</ele>
<time>2019-05-30T11:06:16Z</time>
</trkpt>
<trkpt lat="49.524986" lon="10.306752">
<ele>361.483</ele>
<time>2019-05-30T11:06:17Z</time>
</trkpt>
<trkpt lat="49.524998" lon="10.306684">
<ele>361.483</ele>
<time>2019-05-30T11:06:18Z</time>
</trkpt>
<trkpt lat="49.525009" lon="10.306616">
<ele>361.483</ele>
<time>2019-05-30T11:06:19Z</time>
</trkpt>
<trkpt lat="49.525017" lon="10.306548">
<ele>361.743</ele>
<time>2019-05-30T11:06:20Z</time>
</trkpt>
<trkpt lat="49.525028" lon="10.306483">
<ele>361.946</ele>
<time>2019-05-30T11:06:21Z</time>
</trkpt>
<trkpt lat="49.52504" lon="10.306417">
<ele>362.102</ele>
<time>2019-05-30T11:06:22Z</time>
</trkpt>
<trkpt lat="49.525051" lon="10.306348">
<ele>362.221</ele>
<time>2019-05-30T11:06:23Z</time>
</trkpt>
<trkpt lat="49.525063" lon="10.30628">
<ele>362.302</ele>
<time>2019-05-30T11:06:24Z</time>
</trkpt>
<trkpt lat="49.525074" lon="10.306211">
<ele>362.352</ele>
<time>2019-05-30T11:06:25Z</time>
</trkpt>
<trkpt lat="49.525082" lon="10.306145">
<ele>362.394</ele>
<time>2019-05-30T11:06:26Z</time>
</trkpt>
<trkpt lat="49.525089" lon="10.306077">
<ele>362.419</ele>
<time>2019-05-30T11:06:27Z</time>
</trkpt>
<trkpt lat="49.525097" lon="10.30601">
<ele>362.419</ele>
<time>2019-05-30T11:06:28Z</time>
</trkpt>
<trkpt lat="49.525108" lon="10.305942">
<ele>362.419</ele>
<time>2019-05-30T11:06:29Z</time>
</trkpt>
<trkpt lat="49.525116" lon="10.305875">
<ele>362.419</ele>
<time>2019-05-30T11:06:30Z</time>
</trkpt>
<trkpt lat="49.52512" lon="10.30581">
<ele>362.419</ele>
<time>2019-05-30T11:06:31Z</time>
</trkpt>
<trkpt lat="49.525131" lon="10.305744">
<ele>362.419</ele>
<time>2019-05-30T11:06:32Z</time>
</trkpt>
<trkpt lat="49.525143" lon="10.305678">
<ele>362.657</ele>
<time>2019-05-30T11:06:33Z</time>
</trkpt>
<trkpt lat="49.525146" lon="10.305612">
<ele>362.848</ele>
<time>2019-05-30T11:06:34Z</time>
</trkpt>
<trkpt lat="49.52515" lon="10.305545">
<ele>362.993</ele>
<time>2019-05-30T11:06:35Z</time>
</trkpt>
<trkpt lat="49.525158" lon="10.305476">
<ele>363.094</ele>
<time>2019-05-30T11:06:36Z</time>
</trkpt>
<trkpt lat="49.525166" lon="10.305408">
<ele>363.203</ele>
<time>2019-05-30T11:06:37Z</time>
</trkpt>
<trkpt lat="49.525177" lon="10.30534">
<ele>363.282</ele>
<time>2019-05-30T11:06:38Z</time>
</trkpt>
<trkpt lat="49.525181" lon="10.305273">
<ele>363.333</ele>
<time>2019-05-30T11:06:39Z</time>
</trkpt>
<trkpt lat="49.525188" lon="10.305206">
<ele>363.356</ele>
<time>2019-05-30T11:06:40Z</time>
</trkpt>
<trkpt lat="49.5252" lon="10.305139">
<ele>363.356</ele>
<time>2019-05-30T11:06:41Z</time>
</trkpt>
<trkpt lat="49.525211" lon="10.305074">
<ele>363.356</ele>
<time>2019-05-30T11:06:42Z</time>
</trkpt>
<trkpt lat="49.525215" lon="10.305007">
<ele>363.356</ele>
<time>2019-05-30T11:06:43Z</time>
</trkpt>
<trkpt lat="49.525219" lon="10.30494">
<ele>363.356</ele>
<time>2019-05-30T11:06:44Z</time>
</trkpt>
<trkpt lat="49.525227" lon="10.304874">
<ele>363.356</ele>
<time>2019-05-30T11:06:45Z</time>
</trkpt>
<trkpt lat="49.525234" lon="10.304807">
<ele>363.356</ele>
<time>2019-05-30T11:06:46Z</time>
</trkpt>
<trkpt lat="49.525246" lon="10.304733">
<ele>363.356</ele>
<time>2019-05-30T11:06:47Z</time>
</trkpt>
<trkpt lat="49.525249" lon="10.30466">
<ele>363.356</ele>
<time>2019-05-30T11:06:48Z</time>
</trkpt>
<trkpt lat="49.525261" lon="10.304588">
<ele>363.356</ele>
<time>2019-05-30T11:06:49Z</time>
</trkpt>
<trkpt lat="49.525276" lon="10.304519">
<ele>363.356</ele>
<time>2019-05-30T11:06:50Z</time>
</trkpt>
<trkpt lat="49.525284" lon="10.304448">
<ele>363.356</ele>
<time>2019-05-30T11:06:51Z</time>
</trkpt>
<trkpt lat="49.525291" lon="10.304379">
<ele>363.356</ele>
<time>2019-05-30T11:06:52Z</time>
</trkpt>
<trkpt lat="49.525307" lon="10.304307">
<ele>363.356</ele>
<time>2019-05-30T11:06:53Z</time>
</trkpt>
<trkpt lat="49.525314" lon="10.304236">
<ele>363.356</ele>
<time>2019-05-30T11:06:54Z</time>
</trkpt>
<trkpt lat="49.52533" lon="10.304167">
<ele>363.356</ele>
<time>2019-05-30T11:06:55Z</time>
</trkpt>
<trkpt lat="49.525341" lon="10.304093">
<ele>363.356</ele>
<time>2019-05-30T11:06:56Z</time>
</trkpt>
<trkpt lat="49.525349" lon="10.304024">
<ele>363.356</ele>
<time>2019-05-30T11:06:57Z</time>
</trkpt>
<trkpt lat="49.525356" lon="10.303951">
<ele>363.356</ele>
<time>2019-05-30T11:06:58Z</time>
</trkpt>
<trkpt lat="49.525372" lon="10.303878">
<ele>363.356</ele>
<time>2019-05-30T11:06:59Z</time>
</trkpt>
<trkpt lat="49.525379" lon="10.303808">
<ele>363.356</ele>
<time>2019-05-30T11:07:00Z</time>
</trkpt>
<trkpt lat="49.525387" lon="10.303739">
<ele>363.356</ele>
<time>2019-05-30T11:07:01Z</time>
</trkpt>
<trkpt lat="49.525398" lon="10.303666">
<ele>363.356</ele>
<time>2019-05-30T11:07:02Z</time>
</trkpt>
<trkpt lat="49.52541" lon="10.303596">
<ele>363.356</ele>
<time>2019-05-30T11:07:03Z</time>
</trkpt>
<trkpt lat="49.525414" lon="10.303525">
<ele>363.356</ele>
<time>2019-05-30T11:07:04Z</time>
</trkpt>
<trkpt lat="49.525421" lon="10.303454">
<ele>363.583</ele>
<time>2019-05-30T11:07:05Z</time>
</trkpt>
<trkpt lat="49.525429" lon="10.303381">
<ele>363.745</ele>
<time>2019-05-30T11:07:06Z</time>
</trkpt>
<trkpt lat="49.525436" lon="10.303308">
<ele>363.912</ele>
<time>2019-05-30T11:07:07Z</time>
</trkpt>
<trkpt lat="49.525444" lon="10.303232">
<ele>364.048</ele>
<time>2019-05-30T11:07:08Z</time>
</trkpt>
<trkpt lat="49.525444" lon="10.303157">
<ele>364.15</ele>
<time>2019-05-30T11:07:09Z</time>
</trkpt>
<trkpt lat="49.525452" lon="10.30308">
<ele>364.223</ele>
<time>2019-05-30T11:07:10Z</time>
</trkpt>
<trkpt lat="49.525459" lon="10.303001">
<ele>364.271</ele>
<time>2019-05-30T11:07:11Z</time>
</trkpt>
<trkpt lat="49.525467" lon="10.302928">
<ele>364.293</ele>
<time>2019-05-30T11:07:12Z</time>
</trkpt>
<trkpt lat="49.525475" lon="10.302856">
<ele>364.293</ele>
<time>2019-05-30T11:07:13Z</time>
</trkpt>
<trkpt lat="49.525482" lon="10.302786">
<ele>364.293</ele>
<time>2019-05-30T11:07:14Z</time>
</trkpt>
<trkpt lat="49.525486" lon="10.302713">
<ele>364.293</ele>
<time>2019-05-30T11:07:15Z</time>
</trkpt>
<trkpt lat="49.52549" lon="10.302644">
<ele>364.293</ele>
<time>2019-05-30T11:07:16Z</time>
</trkpt>
<trkpt lat="49.525494" lon="10.302575">
<ele>364.293</ele>
<time>2019-05-30T11:07:17Z</time>
</trkpt>
<trkpt lat="49.525501" lon="10.302502">
<ele>364.293</ele>
<time>2019-05-30T11:07:18Z</time>
</trkpt>
<trkpt lat="49.525509" lon="10.302434">
<ele>364.293</ele>
<time>2019-05-30T11:07:19Z</time>
</trkpt>
<trkpt lat="49.525524" lon="10.302367">
<ele>364.293</ele>
<time>2019-05-30T11:07:20Z</time>
</trkpt>
<trkpt lat="49.525532" lon="10.302303">
<ele>364.293</ele>
<time>2019-05-30T11:07:21Z</time>
</trkpt>
<trkpt lat="49.525539" lon="10.302237">
<ele>364.293</ele>
<time>2019-05-30T11:07:22Z</time>
</trkpt>
<trkpt lat="49.525543" lon="10.302172">
<ele>364.293</ele>
<time>2019-05-30T11:07:23Z</time>
</trkpt>
<trkpt lat="49.525551" lon="10.30211">
<ele>364.293</ele>
<time>2019-05-30T11:07:24Z</time>
</trkpt>
<trkpt lat="49.525562" lon="10.302052">
<ele>364.494</ele>
<time>2019-05-30T11:07:25Z</time>
</trkpt>
<trkpt lat="49.525578" lon="10.302002">
<ele>364.64</ele>
<time>2019-05-30T11:07:26Z</time>
</trkpt>
<trkpt lat="49.525608" lon="10.301962">
<ele>364.791</ele>
<time>2019-05-30T11:07:27Z</time>
</trkpt>
<trkpt lat="49.525642" lon="10.301942">
<ele>364.913</ele>
<time>2019-05-30T11:07:28Z</time>
</trkpt>
<trkpt lat="49.525684" lon="10.301933">
<ele>365.009</ele>
<time>2019-05-30T11:07:29Z</time>
</trkpt>
<trkpt lat="49.52573" lon="10.301929">
<ele>365.077</ele>
<time>2019-05-30T11:07:30Z</time>
</trkpt>
<trkpt lat="49.525768" lon="10.301925">
<ele>365.123</ele>
<time>2019-05-30T11:07:31Z</time>
</trkpt>
<trkpt lat="49.52581" lon="10.301925">
<ele>365.145</ele>
<time>2019-05-30T11:07:32Z</time>
</trkpt>
<trkpt lat="49.525848" lon="10.301925">
<ele>365.145</ele>
<time>2019-05-30T11:07:33Z</time>
</trkpt>
<trkpt lat="49.525887" lon="10.301927">
<ele>365.145</ele>
<time>2019-05-30T11:07:34Z</time>
</trkpt>
<trkpt lat="49.525925" lon="10.301935">
<ele>365.145</ele>
<time>2019-05-30T11:07:35Z</time>
</trkpt>
<trkpt lat="49.525963" lon="10.301951">
<ele>365.145</ele>
<time>2019-05-30T11:07:36Z</time>
</trkpt>
<trkpt lat="49.525997" lon="10.301973">
<ele>365.145</ele>
<time>2019-05-30T11:07:37Z</time>
</trkpt>
<trkpt lat="49.526031" lon="10.301988">
<ele>365.145</ele>
<time>2019-05-30T11:07:38Z</time>
</trkpt>
<trkpt lat="49.526066" lon="10.302002">
<ele>365.145</ele>
<time>2019-05-30T11:07:39Z</time>
</trkpt>
<trkpt lat="49.526096" lon="10.302011">
<ele>365.145</ele>
<time>2019-05-30T11:07:40Z</time>
</trkpt>
<trkpt lat="49.526127" lon="10.302017">
<ele>365.145</ele>
<time>2019-05-30T11:07:41Z</time>
</trkpt>
<trkpt lat="49.526157" lon="10.302021">
<ele>365.145</ele>
<time>2019-05-30T11:07:42Z</time>
</trkpt>
<trkpt lat="49.526184" lon="10.302023">
<ele>365.145</ele>
<time>2019-05-30T11:07:43Z</time>
</trkpt>
<trkpt lat="49.526199" lon="10.302013">
<ele>365.145</ele>
<time>2019-05-30T11:07:44Z</time>
</trkpt>
<trkpt lat="49.526211" lon="10.30199">
<ele>365.145</ele>
<time>2019-05-30T11:07:45Z</time>
</trkpt>
<trkpt lat="49.526207" lon="10.301973">
<ele>365.145</ele>
<time>2019-05-30T11:07:46Z</time>
</trkpt>
<trkpt lat="49.526192" lon="10.30196">
<ele>365.145</ele>
<time>2019-05-30T11:07:47Z</time>
</trkpt>
<trkpt lat="49.526169" lon="10.301949">
<ele>365.145</ele>
<time>2019-05-30T11:07:48Z</time>
</trkpt>
<trkpt lat="49.526146" lon="10.301946">
<ele>365.145</ele>
<time>2019-05-30T11:07:49Z</time>
</trkpt>
<trkpt lat="49.526119" lon="10.30194">
<ele>365.145</ele>
<time>2019-05-30T11:07:50Z</time>
</trkpt>
<trkpt lat="49.526093" lon="10.301929">
<ele>365.145</ele>
<time>2019-05-30T11:07:51Z</time>
</trkpt>
<trkpt lat="49.52607" lon="10.30192">
<ele>365.145</ele>
<time>2019-05-30T11:07:52Z</time>
</trkpt>
<trkpt lat="49.526043" lon="10.301912">
<ele>365.145</ele>
<time>2019-05-30T11:07:53Z</time>
</trkpt>
<trkpt lat="49.526012" lon="10.301906">
<ele>365.145</ele>
<time>2019-05-30T11:07:54Z</time>
</trkpt>
<trkpt lat="49.525978" lon="10.301897">
<ele>365.145</ele>
<time>2019-05-30T11:07:55Z</time>
</trkpt>
<trkpt lat="49.525948" lon="10.301891">
<ele>365.145</ele>
<time>2019-05-30T11:07:56Z</time>
</trkpt>
<trkpt lat="49.525913" lon="10.301888">
<ele>365.145</ele>
<time>2019-05-30T11:07:57Z</time>
</trkpt>
<trkpt lat="49.525887" lon="10.301885">
<ele>365.145</ele>
<time>2019-05-30T11:07:58Z</time>
</trkpt>
<trkpt lat="49.52586" lon="10.301879">
<ele>365.145</ele>
<time>2019-05-30T11:07:59Z</time>
</trkpt>
<trkpt lat="49.525833" lon="10.301875">
<ele>365.145</ele>
<time>2019-05-30T11:08:00Z</time>
</trkpt>
<trkpt lat="49.525806" lon="10.30186">
<ele>365.145</ele>
<time>2019-05-30T11:08:01Z</time>
</trkpt>
<trkpt lat="49.525791" lon="10.301833">
<ele>365.145</ele>
<time>2019-05-30T11:08:02Z</time>
</trkpt>
<trkpt lat="49.52578" lon="10.301807">
<ele>365.145</ele>
<time>2019-05-30T11:08:03Z</time>
</trkpt>
<trkpt lat="49.525768" lon="10.301775">
<ele>365.145</ele>
<time>2019-05-30T11:08:04Z</time>
</trkpt>
<trkpt lat="49.525764" lon="10.301743">
<ele>365.145</ele>
<time>2019-05-30T11:08:05Z</time>
</trkpt>
<trkpt lat="49.525753" lon="10.30171">
<ele>365.145</ele>
<time>2019-05-30T11:08:06Z</time>
</trkpt>
<trkpt lat="49.525749" lon="10.301675">
<ele>365.145</ele>
<time>2019-05-30T11:08:07Z</time>
</trkpt>
<trkpt lat="49.525742" lon="10.301641">
<ele>365.145</ele>
<time>2019-05-30T11:08:08Z</time>
</trkpt>
<trkpt lat="49.525742" lon="10.301603">
<ele>365.145</ele>
<time>2019-05-30T11:08:09Z</time>
</trkpt>
<trkpt lat="49.525742" lon="10.301565">
<ele>365.145</ele>
<time>2019-05-30T11:08:10Z</time>
</trkpt>
<trkpt lat="49.525753" lon="10.301522">
<ele>365.145</ele>
<time>2019-05-30T11:08:11Z</time>
</trkpt>
<trkpt lat="49.525761" lon="10.301474">
<ele>365.145</ele>
<time>2019-05-30T11:08:12Z</time>
</trkpt>
<trkpt lat="49.525761" lon="10.301428">
<ele>365.145</ele>
<time>2019-05-30T11:08:13Z</time>
</trkpt>
<trkpt lat="49.525764" lon="10.301384">
<ele>365.145</ele>
<time>2019-05-30T11:08:14Z</time>
</trkpt>
<trkpt lat="49.525768" lon="10.30134">
<ele>365.145</ele>
<time>2019-05-30T11:08:15Z</time>
</trkpt>
<trkpt lat="49.525776" lon="10.301294">
<ele>365.145</ele>
<time>2019-05-30T11:08:16Z</time>
</trkpt>
<trkpt lat="49.525787" lon="10.301242">
<ele>365.145</ele>
<time>2019-05-30T11:08:17Z</time>
</trkpt>
<trkpt lat="49.525799" lon="10.301188">
<ele>365.145</ele>
<time>2019-05-30T11:08:18Z</time>
</trkpt>
<trkpt lat="49.52581" lon="10.30114">
<ele>365.145</ele>
<time>2019-05-30T11:08:19Z</time>
</trkpt>
<trkpt lat="49.525822" lon="10.301091">
<ele>365.145</ele>
<time>2019-05-30T11:08:20Z</time>
</trkpt>
<trkpt lat="49.525833" lon="10.301045">
<ele>365.145</ele>
<time>2019-05-30T11:08:21Z</time>
</trkpt>
<trkpt lat="49.525845" lon="10.300992">
<ele>365.145</ele>
<time>2019-05-30T11:08:22Z</time>
</trkpt>
<trkpt lat="49.525867" lon="10.300941">
<ele>365.145</ele>
<time>2019-05-30T11:08:23Z</time>
</trkpt>
<trkpt lat="49.525894" lon="10.300888">
<ele>365.145</ele>
<time>2019-05-30T11:08:24Z</time>
</trkpt>
<trkpt lat="49.525921" lon="10.300838">
<ele>365.145</ele>
<time>2019-05-30T11:08:25Z</time>
</trkpt>
<trkpt lat="49.525948" lon="10.30079">
<ele>365.145</ele>
<time>2019-05-30T11:08:26Z</time>
</trkpt>
<trkpt lat="49.52597" lon="10.300748">
<ele>365.145</ele>
<time>2019-05-30T11:08:27Z</time>
</trkpt>
<trkpt lat="49.526001" lon="10.300707">
<ele>365.145</ele>
<time>2019-05-30T11:08:28Z</time>
</trkpt>
<trkpt lat="49.526035" lon="10.300662">
<ele>365.145</ele>
<time>2019-05-30T11:08:29Z</time>
</trkpt>
<trkpt lat="49.526066" lon="10.300615">
<ele>365.145</ele>
<time>2019-05-30T11:08:30Z</time>
</trkpt>
<trkpt lat="49.526104" lon="10.300565">
<ele>365.145</ele>
<time>2019-05-30T11:08:31Z</time>
</trkpt>
<trkpt lat="49.526138" lon="10.300513">
<ele>365.145</ele>
<time>2019-05-30T11:08:32Z</time>
</trkpt>
<trkpt lat="49.526176" lon="10.300456">
<ele>365.145</ele>
<time>2019-05-30T11:08:33Z</time>
</trkpt>
<trkpt lat="49.526207" lon="10.300393">
<ele>365.145</ele>
<time>2019-05-30T11:08:34Z</time>
</trkpt>
<trkpt lat="49.526241" lon="10.300326">
<ele>365.145</ele>
<time>2019-05-30T11:08:35Z</time>
</trkpt>
<trkpt lat="49.526276" lon="10.300263">
<ele>365.145</ele>
<time>2019-05-30T11:08:36Z</time>
</trkpt>
<trkpt lat="49.526318" lon="10.300207">
<ele>365.145</ele>
<time>2019-05-30T11:08:37Z</time>
</trkpt>
<trkpt lat="49.52636" lon="10.300159">
<ele>364.879</ele>
<time>2019-05-30T11:08:38Z</time>
</trkpt>
<trkpt lat="49.526402" lon="10.300115">
<ele>364.683</ele>
<time>2019-05-30T11:08:39Z</time>
</trkpt>
<trkpt lat="49.526447" lon="10.300067">
<ele>364.537</ele>
<time>2019-05-30T11:08:40Z</time>
</trkpt>
<trkpt lat="49.526485" lon="10.300016">
<ele>364.433</ele>
<time>2019-05-30T11:08:41Z</time>
</trkpt>
<trkpt lat="49.526524" lon="10.29996">
<ele>364.36</ele>
<time>2019-05-30T11:08:42Z</time>
</trkpt>
<trkpt lat="49.526562" lon="10.299911">
<ele>364.315</ele>
<time>2019-05-30T11:08:43Z</time>
</trkpt>
<trkpt lat="49.526608" lon="10.299873">
<ele>364.293</ele>
<time>2019-05-30T11:08:44Z</time>
</trkpt>
<trkpt lat="49.526649" lon="10.299838">
<ele>364.293</ele>
<time>2019-05-30T11:08:45Z</time>
</trkpt>
<trkpt lat="49.526691" lon="10.299811">
<ele>364.293</ele>
<time>2019-05-30T11:08:46Z</time>
</trkpt>
<trkpt lat="49.526737" lon="10.299792">
<ele>364.293</ele>
<time>2019-05-30T11:08:47Z</time>
</trkpt>
<trkpt lat="49.526779" lon="10.299773">
<ele>364.293</ele>
<time>2019-05-30T11:08:48Z</time>
</trkpt>
<trkpt lat="49.526825" lon="10.299757">
<ele>364.293</ele>
<time>2019-05-30T11:08:49Z</time>
</trkpt>
<trkpt lat="49.526871" lon="10.299731">
<ele>364.293</ele>
<time>2019-05-30T11:08:50Z</time>
</trkpt>
<trkpt lat="49.526909" lon="10.2997">
<ele>364.293</ele>
<time>2019-05-30T11:08:51Z</time>
</trkpt>
<trkpt lat="49.526947" lon="10.299666">
<ele>364.293</ele>
<time>2019-05-30T11:08:52Z</time>
</trkpt>
<trkpt lat="49.526989" lon="10.299637">
<ele>364.293</ele>
<time>2019-05-30T11:08:53Z</time>
</trkpt>
<trkpt lat="49.527027" lon="10.299623">
<ele>364.293</ele>
<time>2019-05-30T11:08:54Z</time>
</trkpt>
<trkpt lat="49.527069" lon="10.29963">
<ele>364.293</ele>
<time>2019-05-30T11:08:55Z</time>
</trkpt>
<trkpt lat="49.527103" lon="10.299645">
<ele>364.293</ele>
<time>2019-05-30T11:08:56Z</time>
</trkpt>
<trkpt lat="49.527142" lon="10.299652">
<ele>364.293</ele>
<time>2019-05-30T11:08:57Z</time>
</trkpt>
<trkpt lat="49.527172" lon="10.29964">
<ele>364.293</ele>
<time>2019-05-30T11:08:58Z</time>
</trkpt>
<trkpt lat="49.527195" lon="10.299614">
<ele>364.52</ele>
<time>2019-05-30T11:08:59Z</time>
</trkpt>
<trkpt lat="49.527214" lon="10.299575">
<ele>364.706</ele>
<time>2019-05-30T11:09:00Z</time>
</trkpt>
<trkpt lat="49.527237" lon="10.299537">
<ele>364.852</ele>
<time>2019-05-30T11:09:01Z</time>
</trkpt>
<trkpt lat="49.527256" lon="10.299501">
<ele>364.966</ele>
<time>2019-05-30T11:09:02Z</time>
</trkpt>
<trkpt lat="49.527275" lon="10.299463">
<ele>365.041</ele>
<time>2019-05-30T11:09:03Z</time>
</trkpt>
<trkpt lat="49.527294" lon="10.29941">
<ele>365.092</ele>
<time>2019-05-30T11:09:04Z</time>
</trkpt>
<trkpt lat="49.527306" lon="10.299356">
<ele>365.122</ele>
<time>2019-05-30T11:09:05Z</time>
</trkpt>
<trkpt lat="49.527321" lon="10.299314">
<ele>365.145</ele>
<time>2019-05-30T11:09:06Z</time>
</trkpt>
<trkpt lat="49.527336" lon="10.299271">
<ele>365.145</ele>
<time>2019-05-30T11:09:07Z</time>
</trkpt>
<trkpt lat="49.527363" lon="10.299218">
<ele>365.145</ele>
<time>2019-05-30T11:09:08Z</time>
</trkpt>
<trkpt lat="49.527386" lon="10.299159">
<ele>365.145</ele>
<time>2019-05-30T11:09:09Z</time>
</trkpt>
<trkpt lat="49.527405" lon="10.299096">
<ele>365.145</ele>
<time>2019-05-30T11:09:10Z</time>
</trkpt>
<trkpt lat="49.527428" lon="10.299035">
<ele>365.145</ele>
<time>2019-05-30T11:09:11Z</time>
</trkpt>
<trkpt lat="49.527447" lon="10.298975">
<ele>365.145</ele>
<time>2019-05-30T11:09:12Z</time>
</trkpt>
<trkpt lat="49.527466" lon="10.298915">
<ele>365.145</ele>
<time>2019-05-30T11:09:13Z</time>
</trkpt>
<trkpt lat="49.527485" lon="10.298857">
<ele>365.145</ele>
<time>2019-05-30T11:09:14Z</time>
</trkpt>
<trkpt lat="49.527504" lon="10.2988">
<ele>365.145</ele>
<time>2019-05-30T11:09:15Z</time>
</trkpt>
<trkpt lat="49.527527" lon="10.29875">
<ele>365.145</ele>
<time>2019-05-30T11:09:16Z</time>
</trkpt>
<trkpt lat="49.527557" lon="10.298709">
<ele>365.145</ele>
<time>2019-05-30T11:09:17Z</time>
</trkpt>
<trkpt lat="49.527592" lon="10.298678">
<ele>365.145</ele>
<time>2019-05-30T11:09:18Z</time>
</trkpt>
<trkpt lat="49.52763" lon="10.29866">
<ele>365.145</ele>
<time>2019-05-30T11:09:19Z</time>
</trkpt>
<trkpt lat="49.527672" lon="10.298648">
<ele>365.145</ele>
<time>2019-05-30T11:09:20Z</time>
</trkpt>
<trkpt lat="49.527721" lon="10.298635">
<ele>365.145</ele>
<time>2019-05-30T11:09:21Z</time>
</trkpt>
<trkpt lat="49.52776" lon="10.298618">
<ele>365.145</ele>
<time>2019-05-30T11:09:22Z</time>
</trkpt>
<trkpt lat="49.527805" lon="10.298598">
<ele>365.145</ele>
<time>2019-05-30T11:09:23Z</time>
</trkpt>
<trkpt lat="49.527855" lon="10.298578">
<ele>365.145</ele>
<time>2019-05-30T11:09:24Z</time>
</trkpt>
<trkpt lat="49.527901" lon="10.298556">
<ele>365.145</ele>
<time>2019-05-30T11:09:25Z</time>
</trkpt>
<trkpt lat="49.527946" lon="10.298537">
<ele>365.145</ele>
<time>2019-05-30T11:09:26Z</time>
</trkpt>
<trkpt lat="49.527992" lon="10.298516">
<ele>365.145</ele>
<time>2019-05-30T11:09:27Z</time>
</trkpt>
<trkpt lat="49.528042" lon="10.298495">
<ele>365.145</ele>
<time>2019-05-30T11:09:28Z</time>
</trkpt>
<trkpt lat="49.528088" lon="10.298474">
<ele>365.145</ele>
<time>2019-05-30T11:09:29Z</time>
</trkpt>
<trkpt lat="49.528141" lon="10.298455">
<ele>365.145</ele>
<time>2019-05-30T11:09:30Z</time>
</trkpt>
<trkpt lat="49.528187" lon="10.298434">
<ele>365.145</ele>
<time>2019-05-30T11:09:31Z</time>
</trkpt>
<trkpt lat="49.52824" lon="10.298413">
<ele>365.145</ele>
<time>2019-05-30T11:09:32Z</time>
</trkpt>
<trkpt lat="49.528286" lon="10.298395">
<ele>365.145</ele>
<time>2019-05-30T11:09:33Z</time>
</trkpt>
<trkpt lat="49.528343" lon="10.298378">
<ele>365.145</ele>
<time>2019-05-30T11:09:34Z</time>
</trkpt>
<trkpt lat="49.528389" lon="10.298362">
<ele>365.145</ele>
<time>2019-05-30T11:09:35Z</time>
</trkpt>
<trkpt lat="49.528442" lon="10.298348">
<ele>365.145</ele>
<time>2019-05-30T11:09:36Z</time>
</trkpt>
<trkpt lat="49.528492" lon="10.298336">
<ele>365.145</ele>
<time>2019-05-30T11:09:37Z</time>
</trkpt>
<trkpt lat="49.528545" lon="10.298326">
<ele>365.145</ele>
<time>2019-05-30T11:09:38Z</time>
</trkpt>
<trkpt lat="49.528599" lon="10.298313">
<ele>365.145</ele>
<time>2019-05-30T11:09:39Z</time>
</trkpt>
<trkpt lat="49.528648" lon="10.298303">
<ele>365.145</ele>
<time>2019-05-30T11:09:40Z</time>
</trkpt>
<trkpt lat="49.528702" lon="10.298295">
<ele>365.145</ele>
<time>2019-05-30T11:09:41Z</time>
</trkpt>
<trkpt lat="49.528755" lon="10.29829">
<ele>365.145</ele>
<time>2019-05-30T11:09:42Z</time>
</trkpt>
<trkpt lat="49.528805" lon="10.298288">
<ele>365.145</ele>
<time>2019-05-30T11:09:43Z</time>
</trkpt>
<trkpt lat="49.528858" lon="10.298286">
<ele>365.145</ele>
<time>2019-05-30T11:09:44Z</time>
</trkpt>
<trkpt lat="49.528908" lon="10.298288">
<ele>365.145</ele>
<time>2019-05-30T11:09:45Z</time>
</trkpt>
<trkpt lat="49.528961" lon="10.298288">
<ele>365.145</ele>
<time>2019-05-30T11:09:46Z</time>
</trkpt>
<trkpt lat="49.529018" lon="10.29829">
<ele>365.145</ele>
<time>2019-05-30T11:09:47Z</time>
</trkpt>
<trkpt lat="49.529068" lon="10.298292">
<ele>365.145</ele>
<time>2019-05-30T11:09:48Z</time>
</trkpt>
<trkpt lat="49.529125" lon="10.298295">
<ele>365.145</ele>
<time>2019-05-30T11:09:49Z</time>
</trkpt>
<trkpt lat="49.529179" lon="10.298302">
<ele>365.145</ele>
<time>2019-05-30T11:09:50Z</time>
</trkpt>
<trkpt lat="49.529232" lon="10.298308">
<ele>365.145</ele>
<time>2019-05-30T11:09:51Z</time>
</trkpt>
<trkpt lat="49.529289" lon="10.298317">
<ele>365.145</ele>
<time>2019-05-30T11:09:52Z</time>
</trkpt>
<trkpt lat="49.529339" lon="10.298327">
<ele>365.145</ele>
<time>2019-05-30T11:09:53Z</time>
</trkpt>
<trkpt lat="49.529388" lon="10.298338">
<ele>365.145</ele>
<time>2019-05-30T11:09:54Z</time>
</trkpt>
<trkpt lat="49.529446" lon="10.298348">
<ele>365.145</ele>
<time>2019-05-30T11:09:55Z</time>
</trkpt>
<trkpt lat="49.529495" lon="10.298359">
<ele>365.145</ele>
<time>2019-05-30T11:09:56Z</time>
</trkpt>
<trkpt lat="49.529549" lon="10.298367">
<ele>365.145</ele>
<time>2019-05-30T11:09:57Z</time>
</trkpt>
<trkpt lat="49.529598" lon="10.298376">
<ele>365.145</ele>
<time>2019-05-30T11:09:58Z</time>
</trkpt>
<trkpt lat="49.529648" lon="10.298388">
<ele>365.145</ele>
<time>2019-05-30T11:09:59Z</time>
</trkpt>
<trkpt lat="49.529701" lon="10.298401">
<ele>365.145</ele>
<time>2019-05-30T11:10:00Z</time>
</trkpt>
<trkpt lat="49.529747" lon="10.298413">
<ele>365.145</ele>
<time>2019-05-30T11:10:01Z</time>
</trkpt>
<trkpt lat="49.529804" lon="10.298424">
<ele>365.145</ele>
<time>2019-05-30T11:10:02Z</time>
</trkpt>
<trkpt lat="49.52985" lon="10.29843">
<ele>365.145</ele>
<time>2019-05-30T11:10:03Z</time>
</trkpt>
<trkpt lat="49.5299" lon="10.298434">
<ele>365.145</ele>
<time>2019-05-30T11:10:04Z</time>
</trkpt>
<trkpt lat="49.529949" lon="10.298441">
<ele>365.145</ele>
<time>2019-05-30T11:10:05Z</time>
</trkpt>
<trkpt lat="49.530006" lon="10.298447">
<ele>365.145</ele>
<time>2019-05-30T11:10:06Z</time>
</trkpt>
<trkpt lat="49.530052" lon="10.298451">
<ele>365.145</ele>
<time>2019-05-30T11:10:07Z</time>
</trkpt>
<trkpt lat="49.530106" lon="10.298453">
<ele>365.145</ele>
<time>2019-05-30T11:10:08Z</time>
</trkpt>
<trkpt lat="49.530159" lon="10.298453">
<ele>365.145</ele>
<time>2019-05-30T11:10:09Z</time>
</trkpt>
<trkpt lat="49.530209" lon="10.29845">
<ele>365.145</ele>
<time>2019-05-30T11:10:10Z</time>
</trkpt>
<trkpt lat="49.530262" lon="10.298449">
<ele>365.145</ele>
<time>2019-05-30T11:10:11Z</time>
</trkpt>
<trkpt lat="49.530308" lon="10.298445">
<ele>365.145</ele>
<time>2019-05-30T11:10:12Z</time>
</trkpt>
<trkpt lat="49.530361" lon="10.298436">
<ele>365.384</ele>
<time>2019-05-30T11:10:13Z</time>
</trkpt>
<trkpt lat="49.530411" lon="10.298425">
<ele>365.573</ele>
<time>2019-05-30T11:10:14Z</time>
</trkpt>
<trkpt lat="49.530464" lon="10.298415">
<ele>365.721</ele>
<time>2019-05-30T11:10:15Z</time>
</trkpt>
<trkpt lat="49.53051" lon="10.298401">
<ele>365.82</ele>
<time>2019-05-30T11:10:16Z</time>
</trkpt>
<trkpt lat="49.53056" lon="10.29839">
<ele>365.929</ele>
<time>2019-05-30T11:10:17Z</time>
</trkpt>
<trkpt lat="49.530605" lon="10.298375">
<ele>366.007</ele>
<time>2019-05-30T11:10:18Z</time>
</trkpt>
<trkpt lat="49.530655" lon="10.298359">
<ele>366.057</ele>
<time>2019-05-30T11:10:19Z</time>
</trkpt>
<trkpt lat="49.530701" lon="10.298342">
<ele>366.082</ele>
<time>2019-05-30T11:10:20Z</time>
</trkpt>
<trkpt lat="49.53075" lon="10.298324">
<ele>366.082</ele>
<time>2019-05-30T11:10:21Z</time>
</trkpt>
<trkpt lat="49.530792" lon="10.298302">
<ele>366.082</ele>
<time>2019-05-30T11:10:22Z</time>
</trkpt>
<trkpt lat="49.530842" lon="10.29828">
<ele>366.363</ele>
<time>2019-05-30T11:10:23Z</time>
</trkpt>
<trkpt lat="49.530888" lon="10.298257">
<ele>366.586</ele>
<time>2019-05-30T11:10:24Z</time>
</trkpt>
<trkpt lat="49.530933" lon="10.298231">
<ele>366.761</ele>
<time>2019-05-30T11:10:25Z</time>
</trkpt>
<trkpt lat="49.530983" lon="10.298205">
<ele>366.882</ele>
<time>2019-05-30T11:10:26Z</time>
</trkpt>
<trkpt lat="49.531025" lon="10.298177">
<ele>367.009</ele>
<time>2019-05-30T11:10:27Z</time>
</trkpt>
<trkpt lat="49.531071" lon="10.298147">
<ele>367.103</ele>
<time>2019-05-30T11:10:28Z</time>
</trkpt>
<trkpt lat="49.531116" lon="10.298114">
<ele>367.159</ele>
<time>2019-05-30T11:10:29Z</time>
</trkpt>
<trkpt lat="49.531158" lon="10.298082">
<ele>367.419</ele>
<time>2019-05-30T11:10:30Z</time>
</trkpt>
<trkpt lat="49.531204" lon="10.298052">
<ele>367.657</ele>
<time>2019-05-30T11:10:31Z</time>
</trkpt>
<trkpt lat="49.531246" lon="10.298018">
<ele>367.811</ele>
<time>2019-05-30T11:10:32Z</time>
</trkpt>
<trkpt lat="49.531292" lon="10.297983">
<ele>367.926</ele>
<time>2019-05-30T11:10:33Z</time>
</trkpt>
<trkpt lat="49.531338" lon="10.297948">
<ele>368.006</ele>
<time>2019-05-30T11:10:34Z</time>
</trkpt>
<trkpt lat="49.53138" lon="10.297913">
<ele>368.049</ele>
<time>2019-05-30T11:10:35Z</time>
</trkpt>
<trkpt lat="49.531425" lon="10.297879">
<ele>368.309</ele>
<time>2019-05-30T11:10:36Z</time>
</trkpt>
<trkpt lat="49.531471" lon="10.297848">
<ele>368.532</ele>
<time>2019-05-30T11:10:37Z</time>
</trkpt>
<trkpt lat="49.531513" lon="10.297818">
<ele>368.695</ele>
<time>2019-05-30T11:10:38Z</time>
</trkpt>
<trkpt lat="49.531559" lon="10.297789">
<ele>368.825</ele>
<time>2019-05-30T11:10:39Z</time>
</trkpt>
<trkpt lat="49.531605" lon="10.29776">
<ele>368.923</ele>
<time>2019-05-30T11:10:40Z</time>
</trkpt>
<trkpt lat="49.531647" lon="10.297735">
<ele>368.986</ele>
<time>2019-05-30T11:10:41Z</time>
</trkpt>
<trkpt lat="49.531696" lon="10.297711">
<ele>369.244</ele>
<time>2019-05-30T11:10:42Z</time>
</trkpt>
<trkpt lat="49.531738" lon="10.29769">
<ele>369.441</ele>
<time>2019-05-30T11:10:43Z</time>
</trkpt>
<trkpt lat="49.53178" lon="10.297668">
<ele>369.595</ele>
<time>2019-05-30T11:10:44Z</time>
</trkpt>
<trkpt lat="49.531826" lon="10.297648">
<ele>369.699</ele>
<time>2019-05-30T11:10:45Z</time>
</trkpt>
<trkpt lat="49.531868" lon="10.297628">
<ele>369.771</ele>
<time>2019-05-30T11:10:46Z</time>
</trkpt>
<trkpt lat="49.531914" lon="10.29761">
<ele>369.845</ele>
<time>2019-05-30T11:10:47Z</time>
</trkpt>
<trkpt lat="49.531963" lon="10.297595">
<ele>369.893</ele>
<time>2019-05-30T11:10:48Z</time>
</trkpt>
<trkpt lat="49.532009" lon="10.29758">
<ele>369.916</ele>
<time>2019-05-30T11:10:49Z</time>
</trkpt>
<trkpt lat="49.532059" lon="10.297569">
<ele>369.916</ele>
<time>2019-05-30T11:10:50Z</time>
</trkpt>
<trkpt lat="49.532104" lon="10.297561">
<ele>369.916</ele>
<time>2019-05-30T11:10:51Z</time>
</trkpt>
<trkpt lat="49.532154" lon="10.297548">
<ele>369.916</ele>
<time>2019-05-30T11:10:52Z</time>
</trkpt>
<trkpt lat="49.5322" lon="10.297538">
<ele>369.916</ele>
<time>2019-05-30T11:10:53Z</time>
</trkpt>
<trkpt lat="49.532253" lon="10.297531">
<ele>369.916</ele>
<time>2019-05-30T11:10:54Z</time>
</trkpt>
<trkpt lat="49.532299" lon="10.297527">
<ele>370.146</ele>
<time>2019-05-30T11:10:55Z</time>
</trkpt>
<trkpt lat="49.532352" lon="10.297527">
<ele>370.309</ele>
<time>2019-05-30T11:10:56Z</time>
</trkpt>
<trkpt lat="49.532402" lon="10.297527">
<ele>370.476</ele>
<time>2019-05-30T11:10:57Z</time>
</trkpt>
<trkpt lat="49.532452" lon="10.297528">
<ele>370.609</ele>
<time>2019-05-30T11:10:58Z</time>
</trkpt>
<trkpt lat="49.532509" lon="10.297531">
<ele>370.711</ele>
<time>2019-05-30T11:10:59Z</time>
</trkpt>
<trkpt lat="49.532558" lon="10.297535">
<ele>370.785</ele>
<time>2019-05-30T11:11:00Z</time>
</trkpt>
<trkpt lat="49.532616" lon="10.297544">
<ele>370.831</ele>
<time>2019-05-30T11:11:01Z</time>
</trkpt>
<trkpt lat="49.532669" lon="10.297553">
<ele>370.854</ele>
<time>2019-05-30T11:11:02Z</time>
</trkpt>
<trkpt lat="49.532726" lon="10.297566">
<ele>370.854</ele>
<time>2019-05-30T11:11:03Z</time>
</trkpt>
<trkpt lat="49.53278" lon="10.297582">
<ele>370.854</ele>
<time>2019-05-30T11:11:04Z</time>
</trkpt>
<trkpt lat="49.532837" lon="10.2976">
<ele>370.854</ele>
<time>2019-05-30T11:11:05Z</time>
</trkpt>
<trkpt lat="49.532898" lon="10.29762">
<ele>370.641</ele>
<time>2019-05-30T11:11:06Z</time>
</trkpt>
<trkpt lat="49.532959" lon="10.297642">
<ele>370.457</ele>
<time>2019-05-30T11:11:07Z</time>
</trkpt>
<trkpt lat="49.53302" lon="10.297666">
<ele>370.072</ele>
<time>2019-05-30T11:11:08Z</time>
</trkpt>
<trkpt lat="49.533081" lon="10.297691">
<ele>369.761</ele>
<time>2019-05-30T11:11:09Z</time>
</trkpt>
<trkpt lat="49.533142" lon="10.297722">
<ele>369.519</ele>
<time>2019-05-30T11:11:10Z</time>
</trkpt>
<trkpt lat="49.533207" lon="10.297753">
<ele>369.334</ele>
<time>2019-05-30T11:11:11Z</time>
</trkpt>
<trkpt lat="49.533268" lon="10.297785">
<ele>369.202</ele>
<time>2019-05-30T11:11:12Z</time>
</trkpt>
<trkpt lat="49.533329" lon="10.297818">
<ele>369.121</ele>
<time>2019-05-30T11:11:13Z</time>
</trkpt>
<trkpt lat="49.53339" lon="10.297856">
<ele>369.067</ele>
<time>2019-05-30T11:11:14Z</time>
</trkpt>
<trkpt lat="49.533447" lon="10.297894">
<ele>369.064</ele>
<time>2019-05-30T11:11:15Z</time>
</trkpt>
<trkpt lat="49.533512" lon="10.297934">
<ele>368.855</ele>
<time>2019-05-30T11:11:16Z</time>
</trkpt>
<trkpt lat="49.533573" lon="10.297972">
<ele>368.657</ele>
<time>2019-05-30T11:11:17Z</time>
</trkpt>
<trkpt lat="49.533638" lon="10.298007">
<ele>368.495</ele>
<time>2019-05-30T11:11:18Z</time>
</trkpt>
<trkpt lat="49.533699" lon="10.298042">
<ele>368.365</ele>
<time>2019-05-30T11:11:19Z</time>
</trkpt>
<trkpt lat="49.533756" lon="10.298074">
<ele>368.265</ele>
<time>2019-05-30T11:11:20Z</time>
</trkpt>
<trkpt lat="49.533821" lon="10.298108">
<ele>368.195</ele>
<time>2019-05-30T11:11:21Z</time>
</trkpt>
<trkpt lat="49.533878" lon="10.29814">
<ele>368.149</ele>
<time>2019-05-30T11:11:22Z</time>
</trkpt>
<trkpt lat="49.533936" lon="10.298172">
<ele>368.127</ele>
<time>2019-05-30T11:11:23Z</time>
</trkpt>
<trkpt lat="49.533993" lon="10.298205">
<ele>368.127</ele>
<time>2019-05-30T11:11:24Z</time>
</trkpt>
<trkpt lat="49.534054" lon="10.29824">
<ele>368.127</ele>
<time>2019-05-30T11:11:25Z</time>
</trkpt>
<trkpt lat="49.534115" lon="10.298275">
<ele>368.127</ele>
<time>2019-05-30T11:11:26Z</time>
</trkpt>
<trkpt lat="49.534168" lon="10.29831">
<ele>368.126</ele>
<time>2019-05-30T11:11:27Z</time>
</trkpt>
<trkpt lat="49.534225" lon="10.298342">
<ele>368.127</ele>
<time>2019-05-30T11:11:28Z</time>
</trkpt>
<trkpt lat="49.534279" lon="10.298373">
<ele>368.127</ele>
<time>2019-05-30T11:11:29Z</time>
</trkpt>
<trkpt lat="49.53434" lon="10.298403">
<ele>368.127</ele>
<time>2019-05-30T11:11:30Z</time>
</trkpt>
<trkpt lat="49.534397" lon="10.298433">
<ele>368.127</ele>
<time>2019-05-30T11:11:31Z</time>
</trkpt>
<trkpt lat="49.534451" lon="10.298462">
<ele>368.126</ele>
<time>2019-05-30T11:11:32Z</time>
</trkpt>
<trkpt lat="49.534504" lon="10.298487">
<ele>368.127</ele>
<time>2019-05-30T11:11:33Z</time>
</trkpt>
<trkpt lat="49.534561" lon="10.29851">
<ele>368.127</ele>
<time>2019-05-30T11:11:34Z</time>
</trkpt>
<trkpt lat="49.534618" lon="10.298532">
<ele>368.127</ele>
<time>2019-05-30T11:11:35Z</time>
</trkpt>
<trkpt lat="49.534676" lon="10.29855">
<ele>368.127</ele>
<time>2019-05-30T11:11:36Z</time>
</trkpt>
<trkpt lat="49.534733" lon="10.298571">
<ele>368.127</ele>
<time>2019-05-30T11:11:37Z</time>
</trkpt>
<trkpt lat="49.53479" lon="10.298588">
<ele>368.127</ele>
<time>2019-05-30T11:11:38Z</time>
</trkpt>
<trkpt lat="49.534847" lon="10.298605">
<ele>368.127</ele>
<time>2019-05-30T11:11:39Z</time>
</trkpt>
<trkpt lat="49.534901" lon="10.298616">
<ele>368.127</ele>
<time>2019-05-30T11:11:40Z</time>
</trkpt>
<trkpt lat="49.534962" lon="10.298627">
<ele>368.127</ele>
<time>2019-05-30T11:11:41Z</time>
</trkpt>
<trkpt lat="49.535019" lon="10.298632">
<ele>368.127</ele>
<time>2019-05-30T11:11:42Z</time>
</trkpt>
<trkpt lat="49.535076" lon="10.298637">
<ele>368.127</ele>
<time>2019-05-30T11:11:43Z</time>
</trkpt>
<trkpt lat="49.535133" lon="10.298642">
<ele>368.127</ele>
<time>2019-05-30T11:11:44Z</time>
</trkpt>
<trkpt lat="49.535191" lon="10.298646">
<ele>368.127</ele>
<time>2019-05-30T11:11:45Z</time>
</trkpt>
<trkpt lat="49.535248" lon="10.29865">
<ele>368.127</ele>
<time>2019-05-30T11:11:46Z</time>
</trkpt>
<trkpt lat="49.535305" lon="10.298654">
<ele>368.126</ele>
<time>2019-05-30T11:11:47Z</time>
</trkpt>
<trkpt lat="49.535362" lon="10.298655">
<ele>368.127</ele>
<time>2019-05-30T11:11:48Z</time>
</trkpt>
<trkpt lat="49.535419" lon="10.298656">
<ele>368.127</ele>
<time>2019-05-30T11:11:49Z</time>
</trkpt>
<trkpt lat="49.535477" lon="10.298658">
<ele>368.127</ele>
<time>2019-05-30T11:11:50Z</time>
</trkpt>
<trkpt lat="49.535534" lon="10.298661">
<ele>368.127</ele>
<time>2019-05-30T11:11:51Z</time>
</trkpt>
<trkpt lat="49.535587" lon="10.298663">
<ele>368.373</ele>
<time>2019-05-30T11:11:52Z</time>
</trkpt>
<trkpt lat="49.535645" lon="10.298663">
<ele>368.568</ele>
<time>2019-05-30T11:11:53Z</time>
</trkpt>
<trkpt lat="49.535702" lon="10.298663">
<ele>368.718</ele>
<time>2019-05-30T11:11:54Z</time>
</trkpt>
<trkpt lat="49.535755" lon="10.298658">
<ele>368.829</ele>
<time>2019-05-30T11:11:55Z</time>
</trkpt>
<trkpt lat="49.535809" lon="10.298656">
<ele>368.907</ele>
<time>2019-05-30T11:11:56Z</time>
</trkpt>
<trkpt lat="49.535866" lon="10.298656">
<ele>368.987</ele>
<time>2019-05-30T11:11:57Z</time>
</trkpt>
<trkpt lat="49.535915" lon="10.298658">
<ele>369.038</ele>
<time>2019-05-30T11:11:58Z</time>
</trkpt>
<trkpt lat="49.535973" lon="10.298656">
<ele>369.064</ele>
<time>2019-05-30T11:11:59Z</time>
</trkpt>
<trkpt lat="49.536026" lon="10.298655">
<ele>369.064</ele>
<time>2019-05-30T11:12:00Z</time>
</trkpt>
<trkpt lat="49.536079" lon="10.298654">
<ele>369.064</ele>
<time>2019-05-30T11:12:01Z</time>
</trkpt>
<trkpt lat="49.536133" lon="10.298652">
<ele>369.287</ele>
<time>2019-05-30T11:12:02Z</time>
</trkpt>
<trkpt lat="49.536182" lon="10.29865">
<ele>369.463</ele>
<time>2019-05-30T11:12:03Z</time>
</trkpt>
<trkpt lat="49.536232" lon="10.29865">
<ele>369.601</ele>
<time>2019-05-30T11:12:04Z</time>
</trkpt>
<trkpt lat="49.536285" lon="10.298648">
<ele>369.701</ele>
<time>2019-05-30T11:12:05Z</time>
</trkpt>
<trkpt lat="49.536335" lon="10.298645">
<ele>369.773</ele>
<time>2019-05-30T11:12:06Z</time>
</trkpt>
<trkpt lat="49.536385" lon="10.298642">
<ele>369.845</ele>
<time>2019-05-30T11:12:07Z</time>
</trkpt>
<trkpt lat="49.53643" lon="10.29864">
<ele>369.893</ele>
<time>2019-05-30T11:12:08Z</time>
</trkpt>
<trkpt lat="49.53648" lon="10.298635">
<ele>369.916</ele>
<time>2019-05-30T11:12:09Z</time>
</trkpt>
<trkpt lat="49.536526" lon="10.29863">
<ele>369.916</ele>
<time>2019-05-30T11:12:10Z</time>
</trkpt>
<trkpt lat="49.536575" lon="10.298625">
<ele>369.916</ele>
<time>2019-05-30T11:12:11Z</time>
</trkpt>
<trkpt lat="49.536625" lon="10.29862">
<ele>370.162</ele>
<time>2019-05-30T11:12:12Z</time>
</trkpt>
<trkpt lat="49.536671" lon="10.298615">
<ele>370.355</ele>
<time>2019-05-30T11:12:13Z</time>
</trkpt>
<trkpt lat="49.53672" lon="10.298613">
<ele>370.504</ele>
<time>2019-05-30T11:12:14Z</time>
</trkpt>
<trkpt lat="49.53677" lon="10.298612">
<ele>370.619</ele>
<time>2019-05-30T11:12:15Z</time>
</trkpt>
<trkpt lat="49.536816" lon="10.298609">
<ele>370.697</ele>
<time>2019-05-30T11:12:16Z</time>
</trkpt>
<trkpt lat="49.536858" lon="10.298604">
<ele>371.004</ele>
<time>2019-05-30T11:12:17Z</time>
</trkpt>
<trkpt lat="49.536907" lon="10.298598">
<ele>371.246</ele>
<time>2019-05-30T11:12:18Z</time>
</trkpt>
<trkpt lat="49.536949" lon="10.298595">
<ele>371.425</ele>
<time>2019-05-30T11:12:19Z</time>
</trkpt>
<trkpt lat="49.536991" lon="10.298592">
<ele>371.553</ele>
<time>2019-05-30T11:12:20Z</time>
</trkpt>
<trkpt lat="49.537037" lon="10.29859">
<ele>371.63</ele>
<time>2019-05-30T11:12:21Z</time>
</trkpt>
<trkpt lat="49.537079" lon="10.298583">
<ele>371.934</ele>
<time>2019-05-30T11:12:22Z</time>
</trkpt>
<trkpt lat="49.537117" lon="10.298578">
<ele>372.177</ele>
<time>2019-05-30T11:12:23Z</time>
</trkpt>
<trkpt lat="49.537163" lon="10.298574">
<ele>372.363</ele>
<time>2019-05-30T11:12:24Z</time>
</trkpt>
<trkpt lat="49.537205" lon="10.298572">
<ele>372.488</ele>
<time>2019-05-30T11:12:25Z</time>
</trkpt>
<trkpt lat="49.537243" lon="10.298569">
<ele>372.57</ele>
<time>2019-05-30T11:12:26Z</time>
</trkpt>
<trkpt lat="49.537281" lon="10.298565">
<ele>372.65</ele>
<time>2019-05-30T11:12:27Z</time>
</trkpt>
<trkpt lat="49.537323" lon="10.298564">
<ele>372.906</ele>
<time>2019-05-30T11:12:28Z</time>
</trkpt>
<trkpt lat="49.537361" lon="10.29856">
<ele>373.103</ele>
<time>2019-05-30T11:12:29Z</time>
</trkpt>
<trkpt lat="49.537399" lon="10.298555">
<ele>373.319</ele>
<time>2019-05-30T11:12:30Z</time>
</trkpt>
<trkpt lat="49.537441" lon="10.298552">
<ele>373.43</ele>
<time>2019-05-30T11:12:31Z</time>
</trkpt>
<trkpt lat="49.537476" lon="10.298548">
<ele>373.506</ele>
<time>2019-05-30T11:12:32Z</time>
</trkpt>
<trkpt lat="49.537514" lon="10.298547">
<ele>373.555</ele>
<time>2019-05-30T11:12:33Z</time>
</trkpt>
<trkpt lat="49.537552" lon="10.298545">
<ele>373.577</ele>
<time>2019-05-30T11:12:34Z</time>
</trkpt>
<trkpt lat="49.537594" lon="10.298545">
<ele>373.581</ele>
<time>2019-05-30T11:12:35Z</time>
</trkpt>
<trkpt lat="49.537632" lon="10.298539">
<ele>373.826</ele>
<time>2019-05-30T11:12:36Z</time>
</trkpt>
<trkpt lat="49.537666" lon="10.298535">
<ele>374.06</ele>
<time>2019-05-30T11:12:37Z</time>
</trkpt>
<trkpt lat="49.537701" lon="10.298531">
<ele>374.251</ele>
<time>2019-05-30T11:12:38Z</time>
</trkpt>
<trkpt lat="49.537739" lon="10.298527">
<ele>374.404</ele>
<time>2019-05-30T11:12:39Z</time>
</trkpt>
<trkpt lat="49.537777" lon="10.298525">
<ele>374.522</ele>
<time>2019-05-30T11:12:40Z</time>
</trkpt>
<trkpt lat="49.537815" lon="10.29852">
<ele>374.607</ele>
<time>2019-05-30T11:12:41Z</time>
</trkpt>
<trkpt lat="49.537853" lon="10.298516">
<ele>374.658</ele>
<time>2019-05-30T11:12:42Z</time>
</trkpt>
<trkpt lat="49.537888" lon="10.298512">
<ele>374.916</ele>
<time>2019-05-30T11:12:43Z</time>
</trkpt>
<trkpt lat="49.537926" lon="10.298508">
<ele>375.119</ele>
<time>2019-05-30T11:12:44Z</time>
</trkpt>
<trkpt lat="49.53796" lon="10.298504">
<ele>375.267</ele>
<time>2019-05-30T11:12:45Z</time>
</trkpt>
<trkpt lat="49.537998" lon="10.298502">
<ele>375.366</ele>
<time>2019-05-30T11:12:46Z</time>
</trkpt>
<trkpt lat="49.538036" lon="10.2985">
<ele>375.47</ele>
<time>2019-05-30T11:12:47Z</time>
</trkpt>
<trkpt lat="49.538074" lon="10.298495">
<ele>375.778</ele>
<time>2019-05-30T11:12:48Z</time>
</trkpt>
<trkpt lat="49.538109" lon="10.298487">
<ele>376.023</ele>
<time>2019-05-30T11:12:49Z</time>
</trkpt>
<trkpt lat="49.538143" lon="10.29848">
<ele>376.176</ele>
<time>2019-05-30T11:12:50Z</time>
</trkpt>
<trkpt lat="49.538177" lon="10.298471">
<ele>376.617</ele>
<time>2019-05-30T11:12:51Z</time>
</trkpt>
<trkpt lat="49.538212" lon="10.298464">
<ele>376.885</ele>
<time>2019-05-30T11:12:52Z</time>
</trkpt>
<trkpt lat="49.53825" lon="10.298455">
<ele>377.079</ele>
<time>2019-05-30T11:12:53Z</time>
</trkpt>
<trkpt lat="49.538284" lon="10.298447">
<ele>377.194</ele>
<time>2019-05-30T11:12:54Z</time>
</trkpt>
<trkpt lat="49.538319" lon="10.298438">
<ele>377.502</ele>
<time>2019-05-30T11:12:55Z</time>
</trkpt>
<trkpt lat="49.538353" lon="10.29843">
<ele>377.737</ele>
<time>2019-05-30T11:12:56Z</time>
</trkpt>
<trkpt lat="49.538391" lon="10.298424">
<ele>377.956</ele>
<time>2019-05-30T11:12:57Z</time>
</trkpt>
<trkpt lat="49.538429" lon="10.298417">
<ele>378.114</ele>
<time>2019-05-30T11:12:58Z</time>
</trkpt>
<trkpt lat="49.538464" lon="10.298407">
<ele>378.214</ele>
<time>2019-05-30T11:12:59Z</time>
</trkpt>
<trkpt lat="49.538502" lon="10.298399">
<ele>378.279</ele>
<time>2019-05-30T11:13:00Z</time>
</trkpt>
<trkpt lat="49.53854" lon="10.298387">
<ele>378.561</ele>
<time>2019-05-30T11:13:01Z</time>
</trkpt>
<trkpt lat="49.538578" lon="10.298375">
<ele>378.78</ele>
<time>2019-05-30T11:13:02Z</time>
</trkpt>
<trkpt lat="49.538612" lon="10.298364">
<ele>378.964</ele>
<time>2019-05-30T11:13:03Z</time>
</trkpt>
<trkpt lat="49.538647" lon="10.298353">
<ele>379.079</ele>
<time>2019-05-30T11:13:04Z</time>
</trkpt>
<trkpt lat="49.538685" lon="10.298344">
<ele>379.158</ele>
<time>2019-05-30T11:13:05Z</time>
</trkpt>
<trkpt lat="49.538723" lon="10.298331">
<ele>379.216</ele>
<time>2019-05-30T11:13:06Z</time>
</trkpt>
<trkpt lat="49.538761" lon="10.298322">
<ele>379.27</ele>
<time>2019-05-30T11:13:07Z</time>
</trkpt>
<trkpt lat="49.538799" lon="10.29831">
<ele>379.503</ele>
<time>2019-05-30T11:13:08Z</time>
</trkpt>
<trkpt lat="49.538841" lon="10.298296">
<ele>379.745</ele>
<time>2019-05-30T11:13:09Z</time>
</trkpt>
<trkpt lat="49.538876" lon="10.298285">
<ele>379.896</ele>
<time>2019-05-30T11:13:10Z</time>
</trkpt>
<trkpt lat="49.538918" lon="10.298271">
<ele>380.004</ele>
<time>2019-05-30T11:13:11Z</time>
</trkpt>
<trkpt lat="49.538956" lon="10.298259">
<ele>380.083</ele>
<time>2019-05-30T11:13:12Z</time>
</trkpt>
<trkpt lat="49.538998" lon="10.298244">
<ele>380.127</ele>
<time>2019-05-30T11:13:13Z</time>
</trkpt>
<trkpt lat="49.539036" lon="10.298229">
<ele>380.143</ele>
<time>2019-05-30T11:13:14Z</time>
</trkpt>
<trkpt lat="49.53907" lon="10.298215">
<ele>380.148</ele>
<time>2019-05-30T11:13:15Z</time>
</trkpt>
<trkpt lat="49.539112" lon="10.298198">
<ele>380.148</ele>
<time>2019-05-30T11:13:16Z</time>
</trkpt>
<trkpt lat="49.539154" lon="10.298185">
<ele>380.148</ele>
<time>2019-05-30T11:13:17Z</time>
</trkpt>
<trkpt lat="49.5392" lon="10.298173">
<ele>380.148</ele>
<time>2019-05-30T11:13:18Z</time>
</trkpt>
<trkpt lat="49.539238" lon="10.298162">
<ele>380.148</ele>
<time>2019-05-30T11:13:19Z</time>
</trkpt>
<trkpt lat="49.539284" lon="10.298154">
<ele>380.148</ele>
<time>2019-05-30T11:13:20Z</time>
</trkpt>
<trkpt lat="49.53933" lon="10.298147">
<ele>380.148</ele>
<time>2019-05-30T11:13:21Z</time>
</trkpt>
<trkpt lat="49.539375" lon="10.298139">
<ele>380.148</ele>
<time>2019-05-30T11:13:22Z</time>
</trkpt>
<trkpt lat="49.539421" lon="10.298132">
<ele>380.148</ele>
<time>2019-05-30T11:13:23Z</time>
</trkpt>
<trkpt lat="49.539467" lon="10.298126">
<ele>380.148</ele>
<time>2019-05-30T11:13:24Z</time>
</trkpt>
<trkpt lat="49.539513" lon="10.298121">
<ele>380.148</ele>
<time>2019-05-30T11:13:25Z</time>
</trkpt>
<trkpt lat="49.539558" lon="10.298119">
<ele>380.148</ele>
<time>2019-05-30T11:13:26Z</time>
</trkpt>
<trkpt lat="49.539612" lon="10.298119">
<ele>380.148</ele>
<time>2019-05-30T11:13:27Z</time>
</trkpt>
<trkpt lat="49.539658" lon="10.298121">
<ele>380.148</ele>
<time>2019-05-30T11:13:28Z</time>
</trkpt>
<trkpt lat="49.539707" lon="10.298128">
<ele>380.148</ele>
<time>2019-05-30T11:13:29Z</time>
</trkpt>
<trkpt lat="49.539761" lon="10.298137">
<ele>380.148</ele>
<time>2019-05-30T11:13:30Z</time>
</trkpt>
<trkpt lat="49.539814" lon="10.298147">
<ele>380.148</ele>
<time>2019-05-30T11:13:31Z</time>
</trkpt>
<trkpt lat="49.539864" lon="10.29816">
<ele>380.148</ele>
<time>2019-05-30T11:13:32Z</time>
</trkpt>
<trkpt lat="49.539917" lon="10.298175">
<ele>380.148</ele>
<time>2019-05-30T11:13:33Z</time>
</trkpt>
<trkpt lat="49.539974" lon="10.298195">
<ele>380.148</ele>
<time>2019-05-30T11:13:34Z</time>
</trkpt>
<trkpt lat="49.540028" lon="10.298217">
<ele>380.148</ele>
<time>2019-05-30T11:13:35Z</time>
</trkpt>
<trkpt lat="49.540085" lon="10.298244">
<ele>380.148</ele>
<time>2019-05-30T11:13:36Z</time>
</trkpt>
<trkpt lat="49.540142" lon="10.298273">
<ele>379.891</ele>
<time>2019-05-30T11:13:37Z</time>
</trkpt>
<trkpt lat="49.540195" lon="10.298306">
<ele>379.679</ele>
<time>2019-05-30T11:13:38Z</time>
</trkpt>
<trkpt lat="49.540249" lon="10.298344">
<ele>379.507</ele>
<time>2019-05-30T11:13:39Z</time>
</trkpt>
<trkpt lat="49.540306" lon="10.298382">
<ele>379.372</ele>
<time>2019-05-30T11:13:40Z</time>
</trkpt>
<trkpt lat="49.540359" lon="10.298422">
<ele>379.268</ele>
<time>2019-05-30T11:13:41Z</time>
</trkpt>
<trkpt lat="49.540413" lon="10.298466">
<ele>379.195</ele>
<time>2019-05-30T11:13:42Z</time>
</trkpt>
<trkpt lat="49.54047" lon="10.29851">
<ele>379.147</ele>
<time>2019-05-30T11:13:43Z</time>
</trkpt>
<trkpt lat="49.54052" lon="10.298558">
<ele>379.124</ele>
<time>2019-05-30T11:13:44Z</time>
</trkpt>
<trkpt lat="49.540569" lon="10.298609">
<ele>379.124</ele>
<time>2019-05-30T11:13:45Z</time>
</trkpt>
<trkpt lat="49.540615" lon="10.298656">
<ele>379.124</ele>
<time>2019-05-30T11:13:46Z</time>
</trkpt>
<trkpt lat="49.540665" lon="10.298709">
<ele>379.124</ele>
<time>2019-05-30T11:13:47Z</time>
</trkpt>
<trkpt lat="49.540707" lon="10.298759">
<ele>379.124</ele>
<time>2019-05-30T11:13:48Z</time>
</trkpt>
<trkpt lat="49.540752" lon="10.29881">
<ele>379.124</ele>
<time>2019-05-30T11:13:49Z</time>
</trkpt>
<trkpt lat="49.540798" lon="10.29886">
<ele>379.124</ele>
<time>2019-05-30T11:13:50Z</time>
</trkpt>
<trkpt lat="49.540836" lon="10.29891">
<ele>379.124</ele>
<time>2019-05-30T11:13:51Z</time>
</trkpt>
<trkpt lat="49.540878" lon="10.298958">
<ele>379.124</ele>
<time>2019-05-30T11:13:52Z</time>
</trkpt>
<trkpt lat="49.540924" lon="10.299005">
<ele>379.359</ele>
<time>2019-05-30T11:13:53Z</time>
</trkpt>
<trkpt lat="49.540962" lon="10.299052">
<ele>379.547</ele>
<time>2019-05-30T11:13:54Z</time>
</trkpt>
<trkpt lat="49.540997" lon="10.299096">
<ele>379.692</ele>
<time>2019-05-30T11:13:55Z</time>
</trkpt>
<trkpt lat="49.541035" lon="10.29914">
<ele>379.795</ele>
<time>2019-05-30T11:13:56Z</time>
</trkpt>
<trkpt lat="49.541073" lon="10.299182">
<ele>379.905</ele>
<time>2019-05-30T11:13:57Z</time>
</trkpt>
<trkpt lat="49.541115" lon="10.299222">
<ele>379.985</ele>
<time>2019-05-30T11:13:58Z</time>
</trkpt>
<trkpt lat="49.541153" lon="10.299258">
<ele>380.035</ele>
<time>2019-05-30T11:13:59Z</time>
</trkpt>
<trkpt lat="49.541191" lon="10.299295">
<ele>380.305</ele>
<time>2019-05-30T11:14:00Z</time>
</trkpt>
<trkpt lat="49.541229" lon="10.29933">
<ele>380.567</ele>
<time>2019-05-30T11:14:01Z</time>
</trkpt>
<trkpt lat="49.541267" lon="10.299362">
<ele>380.739</ele>
<time>2019-05-30T11:14:02Z</time>
</trkpt>
<trkpt lat="49.541306" lon="10.299392">
<ele>380.842</ele>
<time>2019-05-30T11:14:03Z</time>
</trkpt>
<trkpt lat="49.541348" lon="10.299417">
<ele>381.172</ele>
<time>2019-05-30T11:14:04Z</time>
</trkpt>
<trkpt lat="49.541386" lon="10.29944">
<ele>381.417</ele>
<time>2019-05-30T11:14:05Z</time>
</trkpt>
<trkpt lat="49.541424" lon="10.299465">
<ele>381.597</ele>
<time>2019-05-30T11:14:06Z</time>
</trkpt>
<trkpt lat="49.541462" lon="10.299488">
<ele>381.989</ele>
<time>2019-05-30T11:14:07Z</time>
</trkpt>
<trkpt lat="49.541504" lon="10.299509">
<ele>382.284</ele>
<time>2019-05-30T11:14:08Z</time>
</trkpt>
<trkpt lat="49.541542" lon="10.29953">
<ele>382.523</ele>
<time>2019-05-30T11:14:09Z</time>
</trkpt>
<trkpt lat="49.54158" lon="10.29955">
<ele>382.701</ele>
<time>2019-05-30T11:14:10Z</time>
</trkpt>
<trkpt lat="49.541622" lon="10.299566">
<ele>382.824</ele>
<time>2019-05-30T11:14:11Z</time>
</trkpt>
<trkpt lat="49.541664" lon="10.299582">
<ele>382.895</ele>
<time>2019-05-30T11:14:12Z</time>
</trkpt>
<trkpt lat="49.54171" lon="10.299595">
<ele>382.937</ele>
<time>2019-05-30T11:14:13Z</time>
</trkpt>
<trkpt lat="49.541752" lon="10.299608">
<ele>383.174</ele>
<time>2019-05-30T11:14:14Z</time>
</trkpt>
<trkpt lat="49.541798" lon="10.299618">
<ele>383.35</ele>
<time>2019-05-30T11:14:15Z</time>
</trkpt>
<trkpt lat="49.541843" lon="10.299626">
<ele>383.467</ele>
<time>2019-05-30T11:14:16Z</time>
</trkpt>
<trkpt lat="49.541889" lon="10.299633">
<ele>383.591</ele>
<time>2019-05-30T11:14:17Z</time>
</trkpt>
<trkpt lat="49.541935" lon="10.299642">
<ele>383.687</ele>
<time>2019-05-30T11:14:18Z</time>
</trkpt>
<trkpt lat="49.541977" lon="10.299648">
<ele>383.753</ele>
<time>2019-05-30T11:14:19Z</time>
</trkpt>
<trkpt lat="49.542023" lon="10.299653">
<ele>383.796</ele>
<time>2019-05-30T11:14:20Z</time>
</trkpt>
<trkpt lat="49.542068" lon="10.299656">
<ele>383.816</ele>
<time>2019-05-30T11:14:21Z</time>
</trkpt>
<trkpt lat="49.542118" lon="10.299658">
<ele>383.817</ele>
<time>2019-05-30T11:14:22Z</time>
</trkpt>
<trkpt lat="49.542164" lon="10.299655">
<ele>383.817</ele>
<time>2019-05-30T11:14:23Z</time>
</trkpt>
<trkpt lat="49.54221" lon="10.299652">
<ele>383.817</ele>
<time>2019-05-30T11:14:24Z</time>
</trkpt>
<trkpt lat="49.542259" lon="10.29965">
<ele>383.816</ele>
<time>2019-05-30T11:14:25Z</time>
</trkpt>
<trkpt lat="49.542305" lon="10.29965">
<ele>383.817</ele>
<time>2019-05-30T11:14:26Z</time>
</trkpt>
<trkpt lat="49.542351" lon="10.29965">
<ele>384.047</ele>
<time>2019-05-30T11:14:27Z</time>
</trkpt>
<trkpt lat="49.542397" lon="10.299648">
<ele>384.238</ele>
<time>2019-05-30T11:14:28Z</time>
</trkpt>
<trkpt lat="49.542442" lon="10.299647">
<ele>384.394</ele>
<time>2019-05-30T11:14:29Z</time>
</trkpt>
<trkpt lat="49.542492" lon="10.299644">
<ele>384.52</ele>
<time>2019-05-30T11:14:30Z</time>
</trkpt>
<trkpt lat="49.542538" lon="10.29964">
<ele>384.617</ele>
<time>2019-05-30T11:14:31Z</time>
</trkpt>
<trkpt lat="49.542583" lon="10.299635">
<ele>384.687</ele>
<time>2019-05-30T11:14:32Z</time>
</trkpt>
<trkpt lat="49.542625" lon="10.29963">
<ele>384.733</ele>
<time>2019-05-30T11:14:33Z</time>
</trkpt>
<trkpt lat="49.542671" lon="10.299626">
<ele>384.755</ele>
<time>2019-05-30T11:14:34Z</time>
</trkpt>
<trkpt lat="49.542721" lon="10.299624">
<ele>384.982</ele>
<time>2019-05-30T11:14:35Z</time>
</trkpt>
<trkpt lat="49.542763" lon="10.299622">
<ele>385.145</ele>
<time>2019-05-30T11:14:36Z</time>
</trkpt>
<trkpt lat="49.542816" lon="10.299618">
<ele>385.314</ele>
<time>2019-05-30T11:14:37Z</time>
</trkpt>
<trkpt lat="49.542862" lon="10.299615">
<ele>385.447</ele>
<time>2019-05-30T11:14:38Z</time>
</trkpt>
<trkpt lat="49.542912" lon="10.29961">
<ele>385.55</ele>
<time>2019-05-30T11:14:39Z</time>
</trkpt>
<trkpt lat="49.542957" lon="10.299605">
<ele>385.625</ele>
<time>2019-05-30T11:14:40Z</time>
</trkpt>
<trkpt lat="49.543007" lon="10.2996">
<ele>385.672</ele>
<time>2019-05-30T11:14:41Z</time>
</trkpt>
<trkpt lat="49.543049" lon="10.299597">
<ele>385.694</ele>
<time>2019-05-30T11:14:42Z</time>
</trkpt>
<trkpt lat="49.543102" lon="10.299591">
<ele>385.694</ele>
<time>2019-05-30T11:14:43Z</time>
</trkpt>
<trkpt lat="49.543148" lon="10.299583">
<ele>385.694</ele>
<time>2019-05-30T11:14:44Z</time>
</trkpt>
<trkpt lat="49.543198" lon="10.299577">
<ele>385.694</ele>
<time>2019-05-30T11:14:45Z</time>
</trkpt>
<trkpt lat="49.543243" lon="10.29957">
<ele>385.694</ele>
<time>2019-05-30T11:14:46Z</time>
</trkpt>
<trkpt lat="49.543293" lon="10.299565">
<ele>385.694</ele>
<time>2019-05-30T11:14:47Z</time>
</trkpt>
<trkpt lat="49.543339" lon="10.29956">
<ele>385.694</ele>
<time>2019-05-30T11:14:48Z</time>
</trkpt>
<trkpt lat="49.543385" lon="10.299555">
<ele>385.694</ele>
<time>2019-05-30T11:14:49Z</time>
</trkpt>
<trkpt lat="49.543434" lon="10.29955">
<ele>385.694</ele>
<time>2019-05-30T11:14:50Z</time>
</trkpt>
<trkpt lat="49.54348" lon="10.299543">
<ele>385.694</ele>
<time>2019-05-30T11:14:51Z</time>
</trkpt>
<trkpt lat="49.54353" lon="10.299537">
<ele>385.694</ele>
<time>2019-05-30T11:14:52Z</time>
</trkpt>
<trkpt lat="49.543575" lon="10.299528">
<ele>385.694</ele>
<time>2019-05-30T11:14:53Z</time>
</trkpt>
<trkpt lat="49.543625" lon="10.29952">
<ele>385.694</ele>
<time>2019-05-30T11:14:54Z</time>
</trkpt>
<trkpt lat="49.543671" lon="10.29951">
<ele>385.694</ele>
<time>2019-05-30T11:14:55Z</time>
</trkpt>
<trkpt lat="49.543724" lon="10.299499">
<ele>385.694</ele>
<time>2019-05-30T11:14:56Z</time>
</trkpt>
<trkpt lat="49.543774" lon="10.299488">
<ele>385.694</ele>
<time>2019-05-30T11:14:57Z</time>
</trkpt>
<trkpt lat="49.543827" lon="10.299479">
<ele>385.694</ele>
<time>2019-05-30T11:14:58Z</time>
</trkpt>
<trkpt lat="49.54388" lon="10.299463">
<ele>385.694</ele>
<time>2019-05-30T11:14:59Z</time>
</trkpt>
<trkpt lat="49.543934" lon="10.299452">
<ele>385.694</ele>
<time>2019-05-30T11:15:00Z</time>
</trkpt>
<trkpt lat="49.543991" lon="10.299438">
<ele>385.694</ele>
<time>2019-05-30T11:15:01Z</time>
</trkpt>
<trkpt lat="49.544044" lon="10.299425">
<ele>385.694</ele>
<time>2019-05-30T11:15:02Z</time>
</trkpt>
<trkpt lat="49.544102" lon="10.299411">
<ele>385.694</ele>
<time>2019-05-30T11:15:03Z</time>
</trkpt>
<trkpt lat="49.544159" lon="10.299395">
<ele>385.409</ele>
<time>2019-05-30T11:15:04Z</time>
</trkpt>
<trkpt lat="49.54422" lon="10.299381">
<ele>385.187</ele>
<time>2019-05-30T11:15:05Z</time>
</trkpt>
<trkpt lat="49.544281" lon="10.299367">
<ele>385.039</ele>
<time>2019-05-30T11:15:06Z</time>
</trkpt>
<trkpt lat="49.544346" lon="10.29935">
<ele>384.887</ele>
<time>2019-05-30T11:15:07Z</time>
</trkpt>
<trkpt lat="49.544411" lon="10.29933">
<ele>384.521</ele>
<time>2019-05-30T11:15:08Z</time>
</trkpt>
<trkpt lat="49.544479" lon="10.299312">
<ele>384.233</ele>
<time>2019-05-30T11:15:09Z</time>
</trkpt>
<trkpt lat="49.544552" lon="10.299295">
<ele>384.053</ele>
<time>2019-05-30T11:15:10Z</time>
</trkpt>
<trkpt lat="49.544628" lon="10.299278">
<ele>383.644</ele>
<time>2019-05-30T11:15:11Z</time>
</trkpt>
<trkpt lat="49.544704" lon="10.299264">
<ele>383.29</ele>
<time>2019-05-30T11:15:12Z</time>
</trkpt>
<trkpt lat="49.544781" lon="10.299245">
<ele>382.785</ele>
<time>2019-05-30T11:15:13Z</time>
</trkpt>
<trkpt lat="49.544868" lon="10.299225">
<ele>382.483</ele>
<time>2019-05-30T11:15:14Z</time>
</trkpt>
<trkpt lat="49.544952" lon="10.299207">
<ele>382.006</ele>
<time>2019-05-30T11:15:15Z</time>
</trkpt>
<trkpt lat="49.54504" lon="10.299185">
<ele>381.66</ele>
<time>2019-05-30T11:15:16Z</time>
</trkpt>
<trkpt lat="49.545132" lon="10.299164">
<ele>381.359</ele>
<time>2019-05-30T11:15:17Z</time>
</trkpt>
<trkpt lat="49.545223" lon="10.29914">
<ele>380.9</ele>
<time>2019-05-30T11:15:18Z</time>
</trkpt>
<trkpt lat="49.545315" lon="10.299117">
<ele>380.244</ele>
<time>2019-05-30T11:15:19Z</time>
</trkpt>
<trkpt lat="49.54541" lon="10.299093">
<ele>379.812</ele>
<time>2019-05-30T11:15:20Z</time>
</trkpt>
<trkpt lat="49.545506" lon="10.299069">
<ele>379.186</ele>
<time>2019-05-30T11:15:21Z</time>
</trkpt>
<trkpt lat="49.545609" lon="10.299048">
<ele>378.763</ele>
<time>2019-05-30T11:15:22Z</time>
</trkpt>
<trkpt lat="49.545704" lon="10.299026">
<ele>378.008</ele>
<time>2019-05-30T11:15:23Z</time>
</trkpt>
<trkpt lat="49.545807" lon="10.299004">
<ele>377.607</ele>
<time>2019-05-30T11:15:24Z</time>
</trkpt>
<trkpt lat="49.545906" lon="10.29898">
<ele>377.387</ele>
<time>2019-05-30T11:15:25Z</time>
</trkpt>
<trkpt lat="49.546005" lon="10.298958">
<ele>376.941</ele>
<time>2019-05-30T11:15:26Z</time>
</trkpt>
<trkpt lat="49.546101" lon="10.29894">
<ele>376.585</ele>
<time>2019-05-30T11:15:27Z</time>
</trkpt>
<trkpt lat="49.5462" lon="10.298924">
<ele>376.324</ele>
<time>2019-05-30T11:15:28Z</time>
</trkpt>
<trkpt lat="49.546299" lon="10.298908">
<ele>376.169</ele>
<time>2019-05-30T11:15:29Z</time>
</trkpt>
<trkpt lat="49.546398" lon="10.298895">
<ele>375.829</ele>
<time>2019-05-30T11:15:30Z</time>
</trkpt>
<trkpt lat="49.546497" lon="10.298885">
<ele>375.577</ele>
<time>2019-05-30T11:15:31Z</time>
</trkpt>
<trkpt lat="49.546593" lon="10.298879">
<ele>375.385</ele>
<time>2019-05-30T11:15:32Z</time>
</trkpt>
<trkpt lat="49.546688" lon="10.298875">
<ele>375.245</ele>
<time>2019-05-30T11:15:33Z</time>
</trkpt>
<trkpt lat="49.546787" lon="10.298877">
<ele>375.155</ele>
<time>2019-05-30T11:15:34Z</time>
</trkpt>
<trkpt lat="49.546883" lon="10.298883">
<ele>374.873</ele>
<time>2019-05-30T11:15:35Z</time>
</trkpt>
<trkpt lat="49.546978" lon="10.298895">
<ele>374.665</ele>
<time>2019-05-30T11:15:36Z</time>
</trkpt>
<trkpt lat="49.547073" lon="10.29891">
<ele>374.475</ele>
<time>2019-05-30T11:15:37Z</time>
</trkpt>
<trkpt lat="49.547165" lon="10.298928">
<ele>374.355</ele>
<time>2019-05-30T11:15:38Z</time>
</trkpt>
<trkpt lat="49.54726" lon="10.298948">
<ele>374.04</ele>
<time>2019-05-30T11:15:39Z</time>
</trkpt>
<trkpt lat="49.547356" lon="10.298965">
<ele>373.786</ele>
<time>2019-05-30T11:15:40Z</time>
</trkpt>
<trkpt lat="49.547455" lon="10.298984">
<ele>373.593</ele>
<time>2019-05-30T11:15:41Z</time>
</trkpt>
<trkpt lat="49.54755" lon="10.299002">
<ele>373.477</ele>
<time>2019-05-30T11:15:42Z</time>
</trkpt>
<trkpt lat="49.547649" lon="10.299013">
<ele>373.095</ele>
<time>2019-05-30T11:15:43Z</time>
</trkpt>
<trkpt lat="49.547749" lon="10.299019">
<ele>372.853</ele>
<time>2019-05-30T11:15:44Z</time>
</trkpt>
<trkpt lat="49.547844" lon="10.299017">
<ele>372.713</ele>
<time>2019-05-30T11:15:45Z</time>
</trkpt>
<trkpt lat="49.547943" lon="10.299008">
<ele>372.352</ele>
<time>2019-05-30T11:15:46Z</time>
</trkpt>
<trkpt lat="49.548038" lon="10.298995">
<ele>372.066</ele>
<time>2019-05-30T11:15:47Z</time>
</trkpt>
<trkpt lat="49.548134" lon="10.298975">
<ele>371.572</ele>
<time>2019-05-30T11:15:48Z</time>
</trkpt>
<trkpt lat="49.548233" lon="10.298948">
<ele>371.179</ele>
<time>2019-05-30T11:15:49Z</time>
</trkpt>
<trkpt lat="49.548328" lon="10.298921">
<ele>370.925</ele>
<time>2019-05-30T11:15:50Z</time>
</trkpt>
<trkpt lat="49.548428" lon="10.298891">
<ele>370.468</ele>
<time>2019-05-30T11:15:51Z</time>
</trkpt>
<trkpt lat="49.548523" lon="10.298862">
<ele>370.109</ele>
<time>2019-05-30T11:15:52Z</time>
</trkpt>
<trkpt lat="49.548622" lon="10.29883">
<ele>369.88</ele>
<time>2019-05-30T11:15:53Z</time>
</trkpt>
<trkpt lat="49.548721" lon="10.298799">
<ele>369.424</ele>
<time>2019-05-30T11:15:54Z</time>
</trkpt>
<trkpt lat="49.548817" lon="10.298767">
<ele>369.169</ele>
<time>2019-05-30T11:15:55Z</time>
</trkpt>
<trkpt lat="49.548912" lon="10.298735">
<ele>368.984</ele>
<time>2019-05-30T11:15:56Z</time>
</trkpt>
<trkpt lat="49.549011" lon="10.298703">
<ele>368.558</ele>
<time>2019-05-30T11:15:57Z</time>
</trkpt>
<trkpt lat="49.54911" lon="10.298676">
<ele>368.228</ele>
<time>2019-05-30T11:15:58Z</time>
</trkpt>
<trkpt lat="49.549206" lon="10.298646">
<ele>368.026</ele>
<time>2019-05-30T11:15:59Z</time>
</trkpt>
<trkpt lat="49.549305" lon="10.298616">
<ele>367.58</ele>
<time>2019-05-30T11:16:00Z</time>
</trkpt>
<trkpt lat="49.5494" lon="10.298588">
<ele>367.234</ele>
<time>2019-05-30T11:16:01Z</time>
</trkpt>
<trkpt lat="49.5495" lon="10.298558">
<ele>366.98</ele>
<time>2019-05-30T11:16:02Z</time>
</trkpt>
<trkpt lat="49.549595" lon="10.298531">
<ele>366.82</ele>
<time>2019-05-30T11:16:03Z</time>
</trkpt>
<trkpt lat="49.549694" lon="10.298502">
<ele>366.425</ele>
<time>2019-05-30T11:16:04Z</time>
</trkpt>
<trkpt lat="49.549789" lon="10.298473">
<ele>366.133</ele>
<time>2019-05-30T11:16:05Z</time>
</trkpt>
<trkpt lat="49.549885" lon="10.298445">
<ele>365.941</ele>
<time>2019-05-30T11:16:06Z</time>
</trkpt>
<trkpt lat="49.549984" lon="10.298418">
<ele>365.514</ele>
<time>2019-05-30T11:16:07Z</time>
</trkpt>
<trkpt lat="49.550079" lon="10.298395">
<ele>365.191</ele>
<time>2019-05-30T11:16:08Z</time>
</trkpt>
<trkpt lat="49.550179" lon="10.298368">
<ele>364.974</ele>
<time>2019-05-30T11:16:09Z</time>
</trkpt>
<trkpt lat="49.550278" lon="10.29834">
<ele>364.518</ele>
<time>2019-05-30T11:16:10Z</time>
</trkpt>
<trkpt lat="49.550373" lon="10.298311">
<ele>364.167</ele>
<time>2019-05-30T11:16:11Z</time>
</trkpt>
<trkpt lat="49.550472" lon="10.298284">
<ele>363.913</ele>
<time>2019-05-30T11:16:12Z</time>
</trkpt>
<trkpt lat="49.550571" lon="10.298259">
<ele>363.721</ele>
<time>2019-05-30T11:16:13Z</time>
</trkpt>
<trkpt lat="49.550671" lon="10.298235">
<ele>363.611</ele>
<time>2019-05-30T11:16:14Z</time>
</trkpt>
<trkpt lat="49.550766" lon="10.298213">
<ele>363.317</ele>
<time>2019-05-30T11:16:15Z</time>
</trkpt>
<trkpt lat="49.550865" lon="10.298193">
<ele>363.115</ele>
<time>2019-05-30T11:16:16Z</time>
</trkpt>
<trkpt lat="49.550961" lon="10.298173">
<ele>362.945</ele>
<time>2019-05-30T11:16:17Z</time>
</trkpt>
<trkpt lat="49.551056" lon="10.298156">
<ele>362.594</ele>
<time>2019-05-30T11:16:18Z</time>
</trkpt>
<trkpt lat="49.551151" lon="10.298139">
<ele>362.307</ele>
<time>2019-05-30T11:16:19Z</time>
</trkpt>
<trkpt lat="49.551243" lon="10.298123">
<ele>362.083</ele>
<time>2019-05-30T11:16:20Z</time>
</trkpt>
<trkpt lat="49.551334" lon="10.298107">
<ele>361.912</ele>
<time>2019-05-30T11:16:21Z</time>
</trkpt>
<trkpt lat="49.551426" lon="10.298088">
<ele>361.792</ele>
<time>2019-05-30T11:16:22Z</time>
</trkpt>
<trkpt lat="49.551517" lon="10.298074">
<ele>361.677</ele>
<time>2019-05-30T11:16:23Z</time>
</trkpt>
<trkpt lat="49.551601" lon="10.298059">
<ele>361.653</ele>
<time>2019-05-30T11:16:24Z</time>
</trkpt>
<trkpt lat="49.551689" lon="10.298047">
<ele>361.653</ele>
<time>2019-05-30T11:16:25Z</time>
</trkpt>
<trkpt lat="49.551781" lon="10.298035">
<ele>361.653</ele>
<time>2019-05-30T11:16:26Z</time>
</trkpt>
<trkpt lat="49.551865" lon="10.298028">
<ele>361.653</ele>
<time>2019-05-30T11:16:27Z</time>
</trkpt>
<trkpt lat="49.551949" lon="10.298021">
<ele>361.653</ele>
<time>2019-05-30T11:16:28Z</time>
</trkpt>
<trkpt lat="49.552029" lon="10.298016">
<ele>361.653</ele>
<time>2019-05-30T11:16:29Z</time>
</trkpt>
<trkpt lat="49.552109" lon="10.298009">
<ele>361.653</ele>
<time>2019-05-30T11:16:30Z</time>
</trkpt>
<trkpt lat="49.552193" lon="10.298003">
<ele>361.653</ele>
<time>2019-05-30T11:16:31Z</time>
</trkpt>
<trkpt lat="49.552273" lon="10.297995">
<ele>361.653</ele>
<time>2019-05-30T11:16:32Z</time>
</trkpt>
<trkpt lat="49.552353" lon="10.297988">
<ele>361.653</ele>
<time>2019-05-30T11:16:33Z</time>
</trkpt>
<trkpt lat="49.552433" lon="10.297982">
<ele>361.653</ele>
<time>2019-05-30T11:16:34Z</time>
</trkpt>
<trkpt lat="49.552509" lon="10.297978">
<ele>361.653</ele>
<time>2019-05-30T11:16:35Z</time>
</trkpt>
<trkpt lat="49.552589" lon="10.297974">
<ele>361.653</ele>
<time>2019-05-30T11:16:36Z</time>
</trkpt>
<trkpt lat="49.552666" lon="10.29797">
<ele>361.427</ele>
<time>2019-05-30T11:16:37Z</time>
</trkpt>
<trkpt lat="49.55275" lon="10.297963">
<ele>361.236</ele>
<time>2019-05-30T11:16:38Z</time>
</trkpt>
<trkpt lat="49.552826" lon="10.29796">
<ele>361.077</ele>
<time>2019-05-30T11:16:39Z</time>
</trkpt>
<trkpt lat="49.55291" lon="10.297956">
<ele>360.976</ele>
<time>2019-05-30T11:16:40Z</time>
</trkpt>
<trkpt lat="49.55299" lon="10.297953">
<ele>360.639</ele>
<time>2019-05-30T11:16:41Z</time>
</trkpt>
<trkpt lat="49.553074" lon="10.297952">
<ele>360.402</ele>
<time>2019-05-30T11:16:42Z</time>
</trkpt>
<trkpt lat="49.553158" lon="10.297948">
<ele>359.973</ele>
<time>2019-05-30T11:16:43Z</time>
</trkpt>
<trkpt lat="49.553246" lon="10.297945">
<ele>359.68</ele>
<time>2019-05-30T11:16:44Z</time>
</trkpt>
<trkpt lat="49.553329" lon="10.297942">
<ele>359.187</ele>
<time>2019-05-30T11:16:45Z</time>
</trkpt>
<trkpt lat="49.553413" lon="10.297942">
<ele>358.844</ele>
<time>2019-05-30T11:16:46Z</time>
</trkpt>
<trkpt lat="49.553497" lon="10.297944">
<ele>358.275</ele>
<time>2019-05-30T11:16:47Z</time>
</trkpt>
<trkpt lat="49.553581" lon="10.297948">
<ele>357.889</ele>
<time>2019-05-30T11:16:48Z</time>
</trkpt>
<trkpt lat="49.553673" lon="10.297955">
<ele>357.364</ele>
<time>2019-05-30T11:16:49Z</time>
</trkpt>
<trkpt lat="49.553757" lon="10.297965">
<ele>356.704</ele>
<time>2019-05-30T11:16:50Z</time>
</trkpt>
<trkpt lat="49.553841" lon="10.297982">
<ele>356.261</ele>
<time>2019-05-30T11:16:51Z</time>
</trkpt>
<trkpt lat="49.553936" lon="10.298">
<ele>355.631</ele>
<time>2019-05-30T11:16:52Z</time>
</trkpt>
<trkpt lat="49.554024" lon="10.298019">
<ele>355.208</ele>
<time>2019-05-30T11:16:53Z</time>
</trkpt>
<trkpt lat="49.554111" lon="10.298043">
<ele>354.64</ele>
<time>2019-05-30T11:16:54Z</time>
</trkpt>
<trkpt lat="49.554199" lon="10.29807">
<ele>353.948</ele>
<time>2019-05-30T11:16:55Z</time>
</trkpt>
<trkpt lat="49.554295" lon="10.298097">
<ele>353.479</ele>
<time>2019-05-30T11:16:56Z</time>
</trkpt>
<trkpt lat="49.554382" lon="10.298123">
<ele>352.864</ele>
<time>2019-05-30T11:16:57Z</time>
</trkpt>
<trkpt lat="49.554474" lon="10.29815">
<ele>352.453</ele>
<time>2019-05-30T11:16:58Z</time>
</trkpt>
<trkpt lat="49.554562" lon="10.298179">
<ele>351.86</ele>
<time>2019-05-30T11:16:59Z</time>
</trkpt>
<trkpt lat="49.554653" lon="10.298202">
<ele>351.126</ele>
<time>2019-05-30T11:17:00Z</time>
</trkpt>
<trkpt lat="49.554741" lon="10.298223">
<ele>350.555</ele>
<time>2019-05-30T11:17:01Z</time>
</trkpt>
<trkpt lat="49.554829" lon="10.298245">
<ele>350.199</ele>
<time>2019-05-30T11:17:02Z</time>
</trkpt>
<trkpt lat="49.554913" lon="10.298262">
<ele>349.633</ele>
<time>2019-05-30T11:17:03Z</time>
</trkpt>
<trkpt lat="49.555" lon="10.29827">
<ele>349.198</ele>
<time>2019-05-30T11:17:04Z</time>
</trkpt>
<trkpt lat="49.555077" lon="10.298265">
<ele>348.887</ele>
<time>2019-05-30T11:17:05Z</time>
</trkpt>
<trkpt lat="49.555161" lon="10.298246">
<ele>348.695</ele>
<time>2019-05-30T11:17:06Z</time>
</trkpt>
<trkpt lat="49.555241" lon="10.298213">
<ele>348.326</ele>
<time>2019-05-30T11:17:07Z</time>
</trkpt>
<trkpt lat="49.555313" lon="10.298168">
<ele>348.082</ele>
<time>2019-05-30T11:17:08Z</time>
</trkpt>
<trkpt lat="49.555386" lon="10.298107">
<ele>347.636</ele>
<time>2019-05-30T11:17:09Z</time>
</trkpt>
<trkpt lat="49.55545" lon="10.29803">
<ele>347.281</ele>
<time>2019-05-30T11:17:10Z</time>
</trkpt>
<trkpt lat="49.555508" lon="10.297942">
<ele>347.06</ele>
<time>2019-05-30T11:17:11Z</time>
</trkpt>
<trkpt lat="49.555565" lon="10.29785">
<ele>346.613</ele>
<time>2019-05-30T11:17:12Z</time>
</trkpt>
<trkpt lat="49.555618" lon="10.297758">
<ele>346.261</ele>
<time>2019-05-30T11:17:13Z</time>
</trkpt>
<trkpt lat="49.555664" lon="10.29766">
<ele>346.039</ele>
<time>2019-05-30T11:17:14Z</time>
</trkpt>
<trkpt lat="49.55571" lon="10.297562">
<ele>345.622</ele>
<time>2019-05-30T11:17:15Z</time>
</trkpt>
<trkpt lat="49.555759" lon="10.297461">
<ele>345.339</ele>
<time>2019-05-30T11:17:16Z</time>
</trkpt>
<trkpt lat="49.555805" lon="10.297361">
<ele>345.095</ele>
<time>2019-05-30T11:17:17Z</time>
</trkpt>
<trkpt lat="49.555851" lon="10.297268">
<ele>344.911</ele>
<time>2019-05-30T11:17:18Z</time>
</trkpt>
<trkpt lat="49.555901" lon="10.297178">
<ele>344.782</ele>
<time>2019-05-30T11:17:19Z</time>
</trkpt>
<trkpt lat="49.555954" lon="10.297096">
<ele>344.715</ele>
<time>2019-05-30T11:17:20Z</time>
</trkpt>
<trkpt lat="49.556007" lon="10.297027">
<ele>344.439</ele>
<time>2019-05-30T11:17:21Z</time>
</trkpt>
<trkpt lat="49.556065" lon="10.296966">
<ele>344.225</ele>
<time>2019-05-30T11:17:22Z</time>
</trkpt>
<trkpt lat="49.556126" lon="10.296913">
<ele>344.039</ele>
<time>2019-05-30T11:17:23Z</time>
</trkpt>
<trkpt lat="49.556187" lon="10.296865">
<ele>343.925</ele>
<time>2019-05-30T11:17:24Z</time>
</trkpt>
<trkpt lat="49.556252" lon="10.296822">
<ele>343.844</ele>
<time>2019-05-30T11:17:25Z</time>
</trkpt>
<trkpt lat="49.556305" lon="10.296775">
<ele>343.782</ele>
<time>2019-05-30T11:17:26Z</time>
</trkpt>
<trkpt lat="49.556358" lon="10.296733">
<ele>343.728</ele>
<time>2019-05-30T11:17:27Z</time>
</trkpt>
<trkpt lat="49.556416" lon="10.296695">
<ele>343.701</ele>
<time>2019-05-30T11:17:28Z</time>
</trkpt>
<trkpt lat="49.556473" lon="10.296657">
<ele>343.701</ele>
<time>2019-05-30T11:17:29Z</time>
</trkpt>
<trkpt lat="49.556515" lon="10.296617">
<ele>343.701</ele>
<time>2019-05-30T11:17:30Z</time>
</trkpt>
<trkpt lat="49.556564" lon="10.296572">
<ele>343.701</ele>
<time>2019-05-30T11:17:31Z</time>
</trkpt>
<trkpt lat="49.55661" lon="10.296525">
<ele>343.701</ele>
<time>2019-05-30T11:17:32Z</time>
</trkpt>
<trkpt lat="49.556656" lon="10.296485">
<ele>343.701</ele>
<time>2019-05-30T11:17:33Z</time>
</trkpt>
<trkpt lat="49.556702" lon="10.296449">
<ele>343.926</ele>
<time>2019-05-30T11:17:34Z</time>
</trkpt>
<trkpt lat="49.556744" lon="10.296409">
<ele>344.107</ele>
<time>2019-05-30T11:17:35Z</time>
</trkpt>
<trkpt lat="49.556789" lon="10.296371">
<ele>344.236</ele>
<time>2019-05-30T11:17:36Z</time>
</trkpt>
<trkpt lat="49.556835" lon="10.29633">
<ele>344.377</ele>
<time>2019-05-30T11:17:37Z</time>
</trkpt>
<trkpt lat="49.556881" lon="10.296285">
<ele>344.486</ele>
<time>2019-05-30T11:17:38Z</time>
</trkpt>
<trkpt lat="49.556927" lon="10.296245">
<ele>344.562</ele>
<time>2019-05-30T11:17:39Z</time>
</trkpt>
<trkpt lat="49.556969" lon="10.296202">
<ele>344.612</ele>
<time>2019-05-30T11:17:40Z</time>
</trkpt>
<trkpt lat="49.557022" lon="10.296164">
<ele>344.636</ele>
<time>2019-05-30T11:17:41Z</time>
</trkpt>
<trkpt lat="49.557064" lon="10.296124">
<ele>344.636</ele>
<time>2019-05-30T11:17:42Z</time>
</trkpt>
<trkpt lat="49.557102" lon="10.29607">
<ele>344.636</ele>
<time>2019-05-30T11:17:43Z</time>
</trkpt>
<trkpt lat="49.55714" lon="10.296015">
<ele>344.636</ele>
<time>2019-05-30T11:17:44Z</time>
</trkpt>
<trkpt lat="49.557175" lon="10.29596">
<ele>344.636</ele>
<time>2019-05-30T11:17:45Z</time>
</trkpt>
<trkpt lat="49.557209" lon="10.295907">
<ele>344.636</ele>
<time>2019-05-30T11:17:46Z</time>
</trkpt>
<trkpt lat="49.557251" lon="10.295868">
<ele>344.636</ele>
<time>2019-05-30T11:17:47Z</time>
</trkpt>
<trkpt lat="49.557297" lon="10.295845">
<ele>344.636</ele>
<time>2019-05-30T11:17:48Z</time>
</trkpt>
<trkpt lat="49.557339" lon="10.29584">
<ele>344.636</ele>
<time>2019-05-30T11:17:49Z</time>
</trkpt>
<trkpt lat="49.557388" lon="10.29585">
<ele>344.636</ele>
<time>2019-05-30T11:17:50Z</time>
</trkpt>
<trkpt lat="49.55743" lon="10.295877">
<ele>344.636</ele>
<time>2019-05-30T11:17:51Z</time>
</trkpt>
<trkpt lat="49.557476" lon="10.295907">
<ele>344.636</ele>
<time>2019-05-30T11:17:52Z</time>
</trkpt>
<trkpt lat="49.557522" lon="10.295941">
<ele>344.855</ele>
<time>2019-05-30T11:17:53Z</time>
</trkpt>
<trkpt lat="49.557564" lon="10.295975">
<ele>345.029</ele>
<time>2019-05-30T11:17:54Z</time>
</trkpt>
<trkpt lat="49.557606" lon="10.296003">
<ele>345.163</ele>
<time>2019-05-30T11:17:55Z</time>
</trkpt>
<trkpt lat="49.557648" lon="10.296035">
<ele>345.253</ele>
<time>2019-05-30T11:17:56Z</time>
</trkpt>
<trkpt lat="49.557686" lon="10.296073">
<ele>345.353</ele>
<time>2019-05-30T11:17:57Z</time>
</trkpt>
<trkpt lat="49.557728" lon="10.296106">
<ele>345.42</ele>
<time>2019-05-30T11:17:58Z</time>
</trkpt>
<trkpt lat="49.55777" lon="10.296142">
<ele>345.465</ele>
<time>2019-05-30T11:17:59Z</time>
</trkpt>
<trkpt lat="49.557812" lon="10.29617">
<ele>345.487</ele>
<time>2019-05-30T11:18:00Z</time>
</trkpt>
<trkpt lat="49.557873" lon="10.296185">
<ele>345.487</ele>
<time>2019-05-30T11:18:01Z</time>
</trkpt>
<trkpt lat="49.557915" lon="10.296199">
<ele>345.487</ele>
<time>2019-05-30T11:18:02Z</time>
</trkpt>
<trkpt lat="49.557961" lon="10.29619">
<ele>345.487</ele>
<time>2019-05-30T11:18:03Z</time>
</trkpt>
<trkpt lat="49.558002" lon="10.296164">
<ele>345.487</ele>
<time>2019-05-30T11:18:04Z</time>
</trkpt>
<trkpt lat="49.558014" lon="10.296125">
<ele>345.704</ele>
<time>2019-05-30T11:18:05Z</time>
</trkpt>
<trkpt lat="49.558018" lon="10.296075">
<ele>345.867</ele>
<time>2019-05-30T11:18:06Z</time>
</trkpt>
<trkpt lat="49.558018" lon="10.296021">
<ele>346.024</ele>
<time>2019-05-30T11:18:07Z</time>
</trkpt>
<trkpt lat="49.558014" lon="10.295962">
<ele>346.15</ele>
<time>2019-05-30T11:18:08Z</time>
</trkpt>
<trkpt lat="49.558006" lon="10.295901">
<ele>346.249</ele>
<time>2019-05-30T11:18:09Z</time>
</trkpt>
<trkpt lat="49.558002" lon="10.295841">
<ele>346.334</ele>
<time>2019-05-30T11:18:10Z</time>
</trkpt>
<trkpt lat="49.558006" lon="10.295776">
<ele>346.619</ele>
<time>2019-05-30T11:18:11Z</time>
</trkpt>
<trkpt lat="49.558002" lon="10.295715">
<ele>346.85</ele>
<time>2019-05-30T11:18:12Z</time>
</trkpt>
<trkpt lat="49.55801" lon="10.295656">
<ele>347.049</ele>
<time>2019-05-30T11:18:13Z</time>
</trkpt>
<trkpt lat="49.55801" lon="10.295597">
<ele>347.153</ele>
<time>2019-05-30T11:18:14Z</time>
</trkpt>
<trkpt lat="49.558006" lon="10.295533">
<ele>347.227</ele>
<time>2019-05-30T11:18:15Z</time>
</trkpt>
<trkpt lat="49.558006" lon="10.295472">
<ele>347.28</ele>
<time>2019-05-30T11:18:16Z</time>
</trkpt>
<trkpt lat="49.55801" lon="10.295405">
<ele>347.332</ele>
<time>2019-05-30T11:18:17Z</time>
</trkpt>
<trkpt lat="49.558014" lon="10.29534">
<ele>347.357</ele>
<time>2019-05-30T11:18:18Z</time>
</trkpt>
<trkpt lat="49.558025" lon="10.295279">
<ele>347.357</ele>
<time>2019-05-30T11:18:19Z</time>
</trkpt>
<trkpt lat="49.558037" lon="10.295212">
<ele>347.599</ele>
<time>2019-05-30T11:18:20Z</time>
</trkpt>
<trkpt lat="49.558044" lon="10.295149">
<ele>347.786</ele>
<time>2019-05-30T11:18:21Z</time>
</trkpt>
<trkpt lat="49.558064" lon="10.295092">
<ele>347.925</ele>
<time>2019-05-30T11:18:22Z</time>
</trkpt>
<trkpt lat="49.558075" lon="10.295032">
<ele>348.03</ele>
<time>2019-05-30T11:18:23Z</time>
</trkpt>
<trkpt lat="49.55809" lon="10.294969">
<ele>348.102</ele>
<time>2019-05-30T11:18:24Z</time>
</trkpt>
<trkpt lat="49.558109" lon="10.29491">
<ele>348.146</ele>
<time>2019-05-30T11:18:25Z</time>
</trkpt>
<trkpt lat="49.558132" lon="10.294847">
<ele>348.184</ele>
<time>2019-05-30T11:18:26Z</time>
</trkpt>
<trkpt lat="49.55814" lon="10.294786">
<ele>348.208</ele>
<time>2019-05-30T11:18:27Z</time>
</trkpt>
<trkpt lat="49.558155" lon="10.294717">
<ele>348.208</ele>
<time>2019-05-30T11:18:28Z</time>
</trkpt>
<trkpt lat="49.558186" lon="10.294659">
<ele>348.51</ele>
<time>2019-05-30T11:18:29Z</time>
</trkpt>
<trkpt lat="49.558212" lon="10.294608">
<ele>348.741</ele>
<time>2019-05-30T11:18:30Z</time>
</trkpt>
<trkpt lat="49.558224" lon="10.294552">
<ele>348.91</ele>
<time>2019-05-30T11:18:31Z</time>
</trkpt>
<trkpt lat="49.558239" lon="10.29449">
<ele>349.033</ele>
<time>2019-05-30T11:18:32Z</time>
</trkpt>
<trkpt lat="49.55825" lon="10.294425">
<ele>349.121</ele>
<time>2019-05-30T11:18:33Z</time>
</trkpt>
<trkpt lat="49.558266" lon="10.294362">
<ele>349.175</ele>
<time>2019-05-30T11:18:34Z</time>
</trkpt>
<trkpt lat="49.558281" lon="10.294298">
<ele>349.206</ele>
<time>2019-05-30T11:18:35Z</time>
</trkpt>
<trkpt lat="49.558292" lon="10.294231">
<ele>349.228</ele>
<time>2019-05-30T11:18:36Z</time>
</trkpt>
<trkpt lat="49.558304" lon="10.294167">
<ele>349.228</ele>
<time>2019-05-30T11:18:37Z</time>
</trkpt>
<trkpt lat="49.558323" lon="10.2941">
<ele>349.592</ele>
<time>2019-05-30T11:18:38Z</time>
</trkpt>
<trkpt lat="49.558338" lon="10.294033">
<ele>349.874</ele>
<time>2019-05-30T11:18:39Z</time>
</trkpt>
<trkpt lat="49.55835" lon="10.293963">
<ele>350.07</ele>
<time>2019-05-30T11:18:40Z</time>
</trkpt>
<trkpt lat="49.558369" lon="10.293894">
<ele>350.224</ele>
<time>2019-05-30T11:18:41Z</time>
</trkpt>
<trkpt lat="49.55838" lon="10.293823">
<ele>350.322</ele>
<time>2019-05-30T11:18:42Z</time>
</trkpt>
<trkpt lat="49.558388" lon="10.293752">
<ele>350.384</ele>
<time>2019-05-30T11:18:43Z</time>
</trkpt>
<trkpt lat="49.558403" lon="10.293685">
<ele>350.413</ele>
<time>2019-05-30T11:18:44Z</time>
</trkpt>
<trkpt lat="49.558414" lon="10.293618">
<ele>350.419</ele>
<time>2019-05-30T11:18:45Z</time>
</trkpt>
<trkpt lat="49.558422" lon="10.293549">
<ele>350.419</ele>
<time>2019-05-30T11:18:46Z</time>
</trkpt>
<trkpt lat="49.558437" lon="10.293478">
<ele>350.419</ele>
<time>2019-05-30T11:18:47Z</time>
</trkpt>
<trkpt lat="49.558456" lon="10.293408">
<ele>350.419</ele>
<time>2019-05-30T11:18:48Z</time>
</trkpt>
<trkpt lat="49.558472" lon="10.29334">
<ele>350.419</ele>
<time>2019-05-30T11:18:49Z</time>
</trkpt>
<trkpt lat="49.558491" lon="10.293272">
<ele>350.419</ele>
<time>2019-05-30T11:18:50Z</time>
</trkpt>
<trkpt lat="49.558506" lon="10.293205">
<ele>350.652</ele>
<time>2019-05-30T11:18:51Z</time>
</trkpt>
<trkpt lat="49.558521" lon="10.293139">
<ele>350.834</ele>
<time>2019-05-30T11:18:52Z</time>
</trkpt>
<trkpt lat="49.55854" lon="10.293077">
<ele>350.971</ele>
<time>2019-05-30T11:18:53Z</time>
</trkpt>
<trkpt lat="49.558559" lon="10.293014">
<ele>351.071</ele>
<time>2019-05-30T11:18:54Z</time>
</trkpt>
<trkpt lat="49.558571" lon="10.29295">
<ele>351.142</ele>
<time>2019-05-30T11:18:55Z</time>
</trkpt>
<trkpt lat="49.55859" lon="10.292885">
<ele>351.197</ele>
<time>2019-05-30T11:18:56Z</time>
</trkpt>
<trkpt lat="49.558601" lon="10.292822">
<ele>351.246</ele>
<time>2019-05-30T11:18:57Z</time>
</trkpt>
<trkpt lat="49.558617" lon="10.292755">
<ele>351.27</ele>
<time>2019-05-30T11:18:58Z</time>
</trkpt>
<trkpt lat="49.558632" lon="10.292691">
<ele>351.585</ele>
<time>2019-05-30T11:18:59Z</time>
</trkpt>
<trkpt lat="49.558643" lon="10.292633">
<ele>351.836</ele>
<time>2019-05-30T11:19:00Z</time>
</trkpt>
<trkpt lat="49.558662" lon="10.292573">
<ele>351.989</ele>
<time>2019-05-30T11:19:01Z</time>
</trkpt>
<trkpt lat="49.558674" lon="10.292517">
<ele>352.383</ele>
<time>2019-05-30T11:19:02Z</time>
</trkpt>
<trkpt lat="49.558689" lon="10.292459">
<ele>352.679</ele>
<time>2019-05-30T11:19:03Z</time>
</trkpt>
<trkpt lat="49.558701" lon="10.292402">
<ele>352.899</ele>
<time>2019-05-30T11:19:04Z</time>
</trkpt>
<trkpt lat="49.558723" lon="10.292348">
<ele>353.042</ele>
<time>2019-05-30T11:19:05Z</time>
</trkpt>
<trkpt lat="49.558746" lon="10.292302">
<ele>353.149</ele>
<time>2019-05-30T11:19:06Z</time>
</trkpt>
<trkpt lat="49.558773" lon="10.292269">
<ele>353.495</ele>
<time>2019-05-30T11:19:07Z</time>
</trkpt>
<trkpt lat="49.558807" lon="10.292245">
<ele>353.772</ele>
<time>2019-05-30T11:19:08Z</time>
</trkpt>
<trkpt lat="49.558838" lon="10.292222">
<ele>353.982</ele>
<time>2019-05-30T11:19:09Z</time>
</trkpt>
<trkpt lat="49.558865" lon="10.292193">
<ele>354.132</ele>
<time>2019-05-30T11:19:10Z</time>
</trkpt>
<trkpt lat="49.558887" lon="10.29216">
<ele>354.247</ele>
<time>2019-05-30T11:19:11Z</time>
</trkpt>
<trkpt lat="49.558899" lon="10.29212">
<ele>354.333</ele>
<time>2019-05-30T11:19:12Z</time>
</trkpt>
<trkpt lat="49.558907" lon="10.292073">
<ele>354.389</ele>
<time>2019-05-30T11:19:13Z</time>
</trkpt>
<trkpt lat="49.558907" lon="10.292024">
<ele>354.418</ele>
<time>2019-05-30T11:19:14Z</time>
</trkpt>
<trkpt lat="49.558903" lon="10.291968">
<ele>354.418</ele>
<time>2019-05-30T11:19:15Z</time>
</trkpt>
<trkpt lat="49.558891" lon="10.291917">
<ele>354.418</ele>
<time>2019-05-30T11:19:16Z</time>
</trkpt>
<trkpt lat="49.558872" lon="10.291866">
<ele>354.418</ele>
<time>2019-05-30T11:19:17Z</time>
</trkpt>
<trkpt lat="49.558857" lon="10.291812">
<ele>354.418</ele>
<time>2019-05-30T11:19:18Z</time>
</trkpt>
<trkpt lat="49.558838" lon="10.291755">
<ele>354.418</ele>
<time>2019-05-30T11:19:19Z</time>
</trkpt>
<trkpt lat="49.558819" lon="10.291695">
<ele>354.698</ele>
<time>2019-05-30T11:19:20Z</time>
</trkpt>
<trkpt lat="49.5588" lon="10.291634">
<ele>354.908</ele>
<time>2019-05-30T11:19:21Z</time>
</trkpt>
<trkpt lat="49.558781" lon="10.291571">
<ele>355.057</ele>
<time>2019-05-30T11:19:22Z</time>
</trkpt>
<trkpt lat="49.558762" lon="10.291507">
<ele>355.166</ele>
<time>2019-05-30T11:19:23Z</time>
</trkpt>
<trkpt lat="49.558743" lon="10.291443">
<ele>355.242</ele>
<time>2019-05-30T11:19:24Z</time>
</trkpt>
<trkpt lat="49.558723" lon="10.291376">
<ele>355.294</ele>
<time>2019-05-30T11:19:25Z</time>
</trkpt>
<trkpt lat="49.558701" lon="10.291311">
<ele>355.329</ele>
<time>2019-05-30T11:19:26Z</time>
</trkpt>
<trkpt lat="49.558681" lon="10.291246">
<ele>355.354</ele>
<time>2019-05-30T11:19:27Z</time>
</trkpt>
<trkpt lat="49.558662" lon="10.29118">
<ele>355.354</ele>
<time>2019-05-30T11:19:28Z</time>
</trkpt>
<trkpt lat="49.55864" lon="10.291114">
<ele>355.354</ele>
<time>2019-05-30T11:19:29Z</time>
</trkpt>
<trkpt lat="49.55862" lon="10.291047">
<ele>355.354</ele>
<time>2019-05-30T11:19:30Z</time>
</trkpt>
<trkpt lat="49.558601" lon="10.290977">
<ele>355.354</ele>
<time>2019-05-30T11:19:31Z</time>
</trkpt>
<trkpt lat="49.558578" lon="10.290909">
<ele>355.354</ele>
<time>2019-05-30T11:19:32Z</time>
</trkpt>
<trkpt lat="49.558559" lon="10.29084">
<ele>355.354</ele>
<time>2019-05-30T11:19:33Z</time>
</trkpt>
<trkpt lat="49.55854" lon="10.290773">
<ele>355.353</ele>
<time>2019-05-30T11:19:34Z</time>
</trkpt>
<trkpt lat="49.558521" lon="10.290707">
<ele>355.354</ele>
<time>2019-05-30T11:19:35Z</time>
</trkpt>
<trkpt lat="49.558502" lon="10.29064">
<ele>355.354</ele>
<time>2019-05-30T11:19:36Z</time>
</trkpt>
<trkpt lat="49.558483" lon="10.290575">
<ele>355.354</ele>
<time>2019-05-30T11:19:37Z</time>
</trkpt>
<trkpt lat="49.558464" lon="10.29051">
<ele>355.354</ele>
<time>2019-05-30T11:19:38Z</time>
</trkpt>
<trkpt lat="49.558441" lon="10.290445">
<ele>355.354</ele>
<time>2019-05-30T11:19:39Z</time>
</trkpt>
<trkpt lat="49.558422" lon="10.290379">
<ele>355.354</ele>
<time>2019-05-30T11:19:40Z</time>
</trkpt>
<trkpt lat="49.558403" lon="10.290312">
<ele>355.63</ele>
<time>2019-05-30T11:19:41Z</time>
</trkpt>
<trkpt lat="49.55838" lon="10.290245">
<ele>355.848</ele>
<time>2019-05-30T11:19:42Z</time>
</trkpt>
<trkpt lat="49.558361" lon="10.290177">
<ele>356.018</ele>
<time>2019-05-30T11:19:43Z</time>
</trkpt>
<trkpt lat="49.558338" lon="10.290111">
<ele>356.141</ele>
<time>2019-05-30T11:19:44Z</time>
</trkpt>
<trkpt lat="49.558319" lon="10.290044">
<ele>356.227</ele>
<time>2019-05-30T11:19:45Z</time>
</trkpt>
<trkpt lat="49.5583" lon="10.289978">
<ele>356.291</ele>
<time>2019-05-30T11:19:46Z</time>
</trkpt>
<trkpt lat="49.558281" lon="10.289911">
<ele>356.347</ele>
<time>2019-05-30T11:19:47Z</time>
</trkpt>
<trkpt lat="49.558262" lon="10.289843">
<ele>356.375</ele>
<time>2019-05-30T11:19:48Z</time>
</trkpt>
<trkpt lat="49.558239" lon="10.289775">
<ele>356.622</ele>
<time>2019-05-30T11:19:49Z</time>
</trkpt>
<trkpt lat="49.558216" lon="10.289704">
<ele>356.812</ele>
<time>2019-05-30T11:19:50Z</time>
</trkpt>
<trkpt lat="49.558201" lon="10.289639">
<ele>356.959</ele>
<time>2019-05-30T11:19:51Z</time>
</trkpt>
<trkpt lat="49.558178" lon="10.289574">
<ele>357.063</ele>
<time>2019-05-30T11:19:52Z</time>
</trkpt>
<trkpt lat="49.558155" lon="10.289507">
<ele>357.14</ele>
<time>2019-05-30T11:19:53Z</time>
</trkpt>
<trkpt lat="49.55814" lon="10.289442">
<ele>357.178</ele>
<time>2019-05-30T11:19:54Z</time>
</trkpt>
<trkpt lat="49.558117" lon="10.289375">
<ele>357.45</ele>
<time>2019-05-30T11:19:55Z</time>
</trkpt>
<trkpt lat="49.558098" lon="10.289309">
<ele>357.649</ele>
<time>2019-05-30T11:19:56Z</time>
</trkpt>
<trkpt lat="49.558075" lon="10.289246">
<ele>357.829</ele>
<time>2019-05-30T11:19:57Z</time>
</trkpt>
<trkpt lat="49.558056" lon="10.28918">
<ele>357.976</ele>
<time>2019-05-30T11:19:58Z</time>
</trkpt>
<trkpt lat="49.558041" lon="10.28912">
<ele>358.089</ele>
<time>2019-05-30T11:19:59Z</time>
</trkpt>
<trkpt lat="49.558018" lon="10.289061">
<ele>358.162</ele>
<time>2019-05-30T11:20:00Z</time>
</trkpt>
<trkpt lat="49.558002" lon="10.289001">
<ele>358.442</ele>
<time>2019-05-30T11:20:01Z</time>
</trkpt>
<trkpt lat="49.557987" lon="10.288943">
<ele>358.658</ele>
<time>2019-05-30T11:20:02Z</time>
</trkpt>
<trkpt lat="49.557968" lon="10.288889">
<ele>358.845</ele>
<time>2019-05-30T11:20:03Z</time>
</trkpt>
<trkpt lat="49.557953" lon="10.288833">
<ele>358.958</ele>
<time>2019-05-30T11:20:04Z</time>
</trkpt>
<trkpt lat="49.557938" lon="10.28878">
<ele>359.021</ele>
<time>2019-05-30T11:20:05Z</time>
</trkpt>
<trkpt lat="49.557919" lon="10.288725">
<ele>359.321</ele>
<time>2019-05-30T11:20:06Z</time>
</trkpt>
<trkpt lat="49.557903" lon="10.288669">
<ele>359.591</ele>
<time>2019-05-30T11:20:07Z</time>
</trkpt>
<trkpt lat="49.557888" lon="10.288615">
<ele>359.794</ele>
<time>2019-05-30T11:20:08Z</time>
</trkpt>
<trkpt lat="49.557869" lon="10.288558">
<ele>359.938</ele>
<time>2019-05-30T11:20:09Z</time>
</trkpt>
<trkpt lat="49.55785" lon="10.288507">
<ele>360.051</ele>
<time>2019-05-30T11:20:10Z</time>
</trkpt>
<trkpt lat="49.557831" lon="10.288451">
<ele>360.13</ele>
<time>2019-05-30T11:20:11Z</time>
</trkpt>
<trkpt lat="49.557816" lon="10.288395">
<ele>360.181</ele>
<time>2019-05-30T11:20:12Z</time>
</trkpt>
<trkpt lat="49.557796" lon="10.288339">
<ele>360.205</ele>
<time>2019-05-30T11:20:13Z</time>
</trkpt>
<trkpt lat="49.557781" lon="10.28828">
<ele>360.461</ele>
<time>2019-05-30T11:20:14Z</time>
</trkpt>
<trkpt lat="49.557762" lon="10.288223">
<ele>360.667</ele>
<time>2019-05-30T11:20:15Z</time>
</trkpt>
<trkpt lat="49.557743" lon="10.288166">
<ele>360.806</ele>
<time>2019-05-30T11:20:16Z</time>
</trkpt>
<trkpt lat="49.557724" lon="10.288108">
<ele>360.945</ele>
<time>2019-05-30T11:20:17Z</time>
</trkpt>
<trkpt lat="49.557709" lon="10.28805">
<ele>361.295</ele>
<time>2019-05-30T11:20:18Z</time>
</trkpt>
<trkpt lat="49.557686" lon="10.287992">
<ele>361.57</ele>
<time>2019-05-30T11:20:19Z</time>
</trkpt>
<trkpt lat="49.557667" lon="10.287933">
<ele>361.781</ele>
<time>2019-05-30T11:20:20Z</time>
</trkpt>
<trkpt lat="49.557652" lon="10.287877">
<ele>361.931</ele>
<time>2019-05-30T11:20:21Z</time>
</trkpt>
<trkpt lat="49.557625" lon="10.287819">
<ele>362.079</ele>
<time>2019-05-30T11:20:22Z</time>
</trkpt>
<trkpt lat="49.557602" lon="10.287764">
<ele>362.358</ele>
<time>2019-05-30T11:20:23Z</time>
</trkpt>
<trkpt lat="49.557583" lon="10.287708">
<ele>362.558</ele>
<time>2019-05-30T11:20:24Z</time>
</trkpt>
<trkpt lat="49.557556" lon="10.287653">
<ele>362.69</ele>
<time>2019-05-30T11:20:25Z</time>
</trkpt>
<trkpt lat="49.557533" lon="10.287601">
<ele>362.78</ele>
<time>2019-05-30T11:20:26Z</time>
</trkpt>
<trkpt lat="49.557507" lon="10.287548">
<ele>362.878</ele>
<time>2019-05-30T11:20:27Z</time>
</trkpt>
<trkpt lat="49.557484" lon="10.287496">
<ele>362.949</ele>
<time>2019-05-30T11:20:28Z</time>
</trkpt>
<trkpt lat="49.557457" lon="10.287438">
<ele>362.994</ele>
<time>2019-05-30T11:20:29Z</time>
</trkpt>
<trkpt lat="49.55743" lon="10.287381">
<ele>363.016</ele>
<time>2019-05-30T11:20:30Z</time>
</trkpt>
<trkpt lat="49.557404" lon="10.287325">
<ele>363.016</ele>
<time>2019-05-30T11:20:31Z</time>
</trkpt>
<trkpt lat="49.557377" lon="10.287268">
<ele>363.016</ele>
<time>2019-05-30T11:20:32Z</time>
</trkpt>
<trkpt lat="49.55735" lon="10.287213">
<ele>363.016</ele>
<time>2019-05-30T11:20:33Z</time>
</trkpt>
<trkpt lat="49.557323" lon="10.287158">
<ele>363.016</ele>
<time>2019-05-30T11:20:34Z</time>
</trkpt>
<trkpt lat="49.557297" lon="10.287102">
<ele>363.016</ele>
<time>2019-05-30T11:20:35Z</time>
</trkpt>
<trkpt lat="49.557266" lon="10.287044">
<ele>363.016</ele>
<time>2019-05-30T11:20:36Z</time>
</trkpt>
<trkpt lat="49.55724" lon="10.286983">
<ele>363.016</ele>
<time>2019-05-30T11:20:37Z</time>
</trkpt>
<trkpt lat="49.557217" lon="10.28692">
<ele>363.016</ele>
<time>2019-05-30T11:20:38Z</time>
</trkpt>
<trkpt lat="49.55719" lon="10.286857">
<ele>363.016</ele>
<time>2019-05-30T11:20:39Z</time>
</trkpt>
<trkpt lat="49.557163" lon="10.286794">
<ele>363.016</ele>
<time>2019-05-30T11:20:40Z</time>
</trkpt>
<trkpt lat="49.557133" lon="10.286729">
<ele>363.016</ele>
<time>2019-05-30T11:20:41Z</time>
</trkpt>
<trkpt lat="49.55711" lon="10.286664">
<ele>363.016</ele>
<time>2019-05-30T11:20:42Z</time>
</trkpt>
<trkpt lat="49.557087" lon="10.286597">
<ele>363.016</ele>
<time>2019-05-30T11:20:43Z</time>
</trkpt>
<trkpt lat="49.55706" lon="10.28653">
<ele>363.016</ele>
<time>2019-05-30T11:20:44Z</time>
</trkpt>
<trkpt lat="49.557034" lon="10.286461">
<ele>363.016</ele>
<time>2019-05-30T11:20:45Z</time>
</trkpt>
<trkpt lat="49.557011" lon="10.28639">
<ele>363.016</ele>
<time>2019-05-30T11:20:46Z</time>
</trkpt>
<trkpt lat="49.556988" lon="10.286321">
<ele>363.016</ele>
<time>2019-05-30T11:20:47Z</time>
</trkpt>
<trkpt lat="49.556965" lon="10.286248">
<ele>363.016</ele>
<time>2019-05-30T11:20:48Z</time>
</trkpt>
<trkpt lat="49.556938" lon="10.286177">
<ele>363.016</ele>
<time>2019-05-30T11:20:49Z</time>
</trkpt>
<trkpt lat="49.556919" lon="10.286103">
<ele>363.016</ele>
<time>2019-05-30T11:20:50Z</time>
</trkpt>
<trkpt lat="49.5569" lon="10.286032">
<ele>363.016</ele>
<time>2019-05-30T11:20:51Z</time>
</trkpt>
<trkpt lat="49.556881" lon="10.285958">
<ele>363.016</ele>
<time>2019-05-30T11:20:52Z</time>
</trkpt>
<trkpt lat="49.556862" lon="10.285883">
<ele>363.016</ele>
<time>2019-05-30T11:20:53Z</time>
</trkpt>
<trkpt lat="49.556843" lon="10.285809">
<ele>363.016</ele>
<time>2019-05-30T11:20:54Z</time>
</trkpt>
<trkpt lat="49.556824" lon="10.285735">
<ele>363.016</ele>
<time>2019-05-30T11:20:55Z</time>
</trkpt>
<trkpt lat="49.556808" lon="10.285663">
<ele>363.016</ele>
<time>2019-05-30T11:20:56Z</time>
</trkpt>
<trkpt lat="49.556793" lon="10.28559">
<ele>363.016</ele>
<time>2019-05-30T11:20:57Z</time>
</trkpt>
<trkpt lat="49.556778" lon="10.285517">
<ele>363.016</ele>
<time>2019-05-30T11:20:58Z</time>
</trkpt>
<trkpt lat="49.556763" lon="10.285445">
<ele>363.016</ele>
<time>2019-05-30T11:20:59Z</time>
</trkpt>
<trkpt lat="49.556747" lon="10.285374">
<ele>363.016</ele>
<time>2019-05-30T11:21:00Z</time>
</trkpt>
<trkpt lat="49.55674" lon="10.2853">
<ele>363.016</ele>
<time>2019-05-30T11:21:01Z</time>
</trkpt>
<trkpt lat="49.556725" lon="10.285227">
<ele>363.016</ele>
<time>2019-05-30T11:21:02Z</time>
</trkpt>
<trkpt lat="49.556709" lon="10.285155">
<ele>363.016</ele>
<time>2019-05-30T11:21:03Z</time>
</trkpt>
<trkpt lat="49.556702" lon="10.285082">
<ele>363.016</ele>
<time>2019-05-30T11:21:04Z</time>
</trkpt>
<trkpt lat="49.55669" lon="10.285009">
<ele>363.016</ele>
<time>2019-05-30T11:21:05Z</time>
</trkpt>
<trkpt lat="49.556679" lon="10.284935">
<ele>363.016</ele>
<time>2019-05-30T11:21:06Z</time>
</trkpt>
<trkpt lat="49.556675" lon="10.284863">
<ele>363.016</ele>
<time>2019-05-30T11:21:07Z</time>
</trkpt>
<trkpt lat="49.556667" lon="10.28479">
<ele>363.016</ele>
<time>2019-05-30T11:21:08Z</time>
</trkpt>
<trkpt lat="49.55666" lon="10.284717">
<ele>363.286</ele>
<time>2019-05-30T11:21:09Z</time>
</trkpt>
<trkpt lat="49.556652" lon="10.284643">
<ele>363.497</ele>
<time>2019-05-30T11:21:10Z</time>
</trkpt>
<trkpt lat="49.556644" lon="10.28457">
<ele>363.627</ele>
<time>2019-05-30T11:21:11Z</time>
</trkpt>
<trkpt lat="49.556641" lon="10.284496">
<ele>364.001</ele>
<time>2019-05-30T11:21:12Z</time>
</trkpt>
<trkpt lat="49.556637" lon="10.284423">
<ele>364.29</ele>
<time>2019-05-30T11:21:13Z</time>
</trkpt>
<trkpt lat="49.556633" lon="10.284348">
<ele>364.493</ele>
<time>2019-05-30T11:21:14Z</time>
</trkpt>
<trkpt lat="49.556625" lon="10.284275">
<ele>364.632</ele>
<time>2019-05-30T11:21:15Z</time>
</trkpt>
<trkpt lat="49.556622" lon="10.284202">
<ele>364.733</ele>
<time>2019-05-30T11:21:16Z</time>
</trkpt>
<trkpt lat="49.556618" lon="10.284127">
<ele>364.813</ele>
<time>2019-05-30T11:21:17Z</time>
</trkpt>
<trkpt lat="49.556614" lon="10.28405">
<ele>364.865</ele>
<time>2019-05-30T11:21:18Z</time>
</trkpt>
<trkpt lat="49.556614" lon="10.283975">
<ele>364.889</ele>
<time>2019-05-30T11:21:19Z</time>
</trkpt>
<trkpt lat="49.556614" lon="10.2839">
<ele>364.889</ele>
<time>2019-05-30T11:21:20Z</time>
</trkpt>
<trkpt lat="49.556614" lon="10.283827">
<ele>364.889</ele>
<time>2019-05-30T11:21:21Z</time>
</trkpt>
<trkpt lat="49.556614" lon="10.283754">
<ele>364.889</ele>
<time>2019-05-30T11:21:22Z</time>
</trkpt>
<trkpt lat="49.556614" lon="10.283685">
<ele>364.889</ele>
<time>2019-05-30T11:21:23Z</time>
</trkpt>
<trkpt lat="49.556614" lon="10.283615">
<ele>364.889</ele>
<time>2019-05-30T11:21:24Z</time>
</trkpt>
<trkpt lat="49.556614" lon="10.283545">
<ele>365.093</ele>
<time>2019-05-30T11:21:25Z</time>
</trkpt>
<trkpt lat="49.556618" lon="10.283473">
<ele>365.239</ele>
<time>2019-05-30T11:21:26Z</time>
</trkpt>
<trkpt lat="49.556622" lon="10.283403">
<ele>365.391</ele>
<time>2019-05-30T11:21:27Z</time>
</trkpt>
<trkpt lat="49.556622" lon="10.283333">
<ele>365.513</ele>
<time>2019-05-30T11:21:28Z</time>
</trkpt>
<trkpt lat="49.556625" lon="10.283263">
<ele>365.608</ele>
<time>2019-05-30T11:21:29Z</time>
</trkpt>
<trkpt lat="49.556629" lon="10.283192">
<ele>365.677</ele>
<time>2019-05-30T11:21:30Z</time>
</trkpt>
<trkpt lat="49.556629" lon="10.283119">
<ele>365.721</ele>
<time>2019-05-30T11:21:31Z</time>
</trkpt>
<trkpt lat="49.556633" lon="10.283047">
<ele>365.741</ele>
<time>2019-05-30T11:21:32Z</time>
</trkpt>
<trkpt lat="49.556637" lon="10.282977">
<ele>365.741</ele>
<time>2019-05-30T11:21:33Z</time>
</trkpt>
<trkpt lat="49.556641" lon="10.282906">
<ele>365.741</ele>
<time>2019-05-30T11:21:34Z</time>
</trkpt>
<trkpt lat="49.556644" lon="10.282833">
<ele>365.741</ele>
<time>2019-05-30T11:21:35Z</time>
</trkpt>
<trkpt lat="49.556648" lon="10.282761">
<ele>365.741</ele>
<time>2019-05-30T11:21:36Z</time>
</trkpt>
<trkpt lat="49.556656" lon="10.282688">
<ele>365.97</ele>
<time>2019-05-30T11:21:37Z</time>
</trkpt>
<trkpt lat="49.55666" lon="10.282617">
<ele>366.161</ele>
<time>2019-05-30T11:21:38Z</time>
</trkpt>
<trkpt lat="49.556667" lon="10.282543">
<ele>366.319</ele>
<time>2019-05-30T11:21:39Z</time>
</trkpt>
<trkpt lat="49.556671" lon="10.28247">
<ele>366.445</ele>
<time>2019-05-30T11:21:40Z</time>
</trkpt>
<trkpt lat="49.556675" lon="10.282398">
<ele>366.543</ele>
<time>2019-05-30T11:21:41Z</time>
</trkpt>
<trkpt lat="49.556679" lon="10.282327">
<ele>366.612</ele>
<time>2019-05-30T11:21:42Z</time>
</trkpt>
<trkpt lat="49.556679" lon="10.282255">
<ele>366.657</ele>
<time>2019-05-30T11:21:43Z</time>
</trkpt>
<trkpt lat="49.556683" lon="10.282185">
<ele>366.678</ele>
<time>2019-05-30T11:21:44Z</time>
</trkpt>
<trkpt lat="49.55669" lon="10.282113">
<ele>366.678</ele>
<time>2019-05-30T11:21:45Z</time>
</trkpt>
<trkpt lat="49.556694" lon="10.282041">
<ele>366.678</ele>
<time>2019-05-30T11:21:46Z</time>
</trkpt>
<trkpt lat="49.556698" lon="10.281969">
<ele>366.678</ele>
<time>2019-05-30T11:21:47Z</time>
</trkpt>
<trkpt lat="49.556702" lon="10.281894">
<ele>366.986</ele>
<time>2019-05-30T11:21:48Z</time>
</trkpt>
<trkpt lat="49.556705" lon="10.28182">
<ele>367.224</ele>
<time>2019-05-30T11:21:49Z</time>
</trkpt>
<trkpt lat="49.556709" lon="10.281747">
<ele>367.403</ele>
<time>2019-05-30T11:21:50Z</time>
</trkpt>
<trkpt lat="49.556713" lon="10.281673">
<ele>367.533</ele>
<time>2019-05-30T11:21:51Z</time>
</trkpt>
<trkpt lat="49.556717" lon="10.2816">
<ele>367.622</ele>
<time>2019-05-30T11:21:52Z</time>
</trkpt>
<trkpt lat="49.556725" lon="10.281527">
<ele>367.675</ele>
<time>2019-05-30T11:21:53Z</time>
</trkpt>
<trkpt lat="49.556728" lon="10.281451">
<ele>367.696</ele>
<time>2019-05-30T11:21:54Z</time>
</trkpt>
<trkpt lat="49.556732" lon="10.281379">
<ele>367.701</ele>
<time>2019-05-30T11:21:55Z</time>
</trkpt>
<trkpt lat="49.55674" lon="10.281305">
<ele>367.701</ele>
<time>2019-05-30T11:21:56Z</time>
</trkpt>
<trkpt lat="49.55674" lon="10.281234">
<ele>367.701</ele>
<time>2019-05-30T11:21:57Z</time>
</trkpt>
<trkpt lat="49.556744" lon="10.28116">
<ele>367.701</ele>
<time>2019-05-30T11:21:58Z</time>
</trkpt>
<trkpt lat="49.556747" lon="10.281087">
<ele>367.701</ele>
<time>2019-05-30T11:21:59Z</time>
</trkpt>
<trkpt lat="49.556747" lon="10.281013">
<ele>367.701</ele>
<time>2019-05-30T11:22:00Z</time>
</trkpt>
<trkpt lat="49.556751" lon="10.28094">
<ele>367.701</ele>
<time>2019-05-30T11:22:01Z</time>
</trkpt>
<trkpt lat="49.556755" lon="10.280865">
<ele>367.701</ele>
<time>2019-05-30T11:22:02Z</time>
</trkpt>
<trkpt lat="49.556755" lon="10.280791">
<ele>367.701</ele>
<time>2019-05-30T11:22:03Z</time>
</trkpt>
<trkpt lat="49.556759" lon="10.280717">
<ele>367.935</ele>
<time>2019-05-30T11:22:04Z</time>
</trkpt>
<trkpt lat="49.556763" lon="10.280645">
<ele>368.121</ele>
<time>2019-05-30T11:22:05Z</time>
</trkpt>
<trkpt lat="49.556767" lon="10.28057">
<ele>368.248</ele>
<time>2019-05-30T11:22:06Z</time>
</trkpt>
<trkpt lat="49.556767" lon="10.280495">
<ele>368.385</ele>
<time>2019-05-30T11:22:07Z</time>
</trkpt>
<trkpt lat="49.556767" lon="10.28042">
<ele>368.49</ele>
<time>2019-05-30T11:22:08Z</time>
</trkpt>
<trkpt lat="49.556767" lon="10.280345">
<ele>368.566</ele>
<time>2019-05-30T11:22:09Z</time>
</trkpt>
<trkpt lat="49.556763" lon="10.280268">
<ele>368.614</ele>
<time>2019-05-30T11:22:10Z</time>
</trkpt>
<trkpt lat="49.556759" lon="10.280193">
<ele>368.638</ele>
<time>2019-05-30T11:22:11Z</time>
</trkpt>
<trkpt lat="49.556755" lon="10.28012">
<ele>368.638</ele>
<time>2019-05-30T11:22:12Z</time>
</trkpt>
<trkpt lat="49.556747" lon="10.280044">
<ele>368.638</ele>
<time>2019-05-30T11:22:13Z</time>
</trkpt>
<trkpt lat="49.556747" lon="10.279968">
<ele>368.638</ele>
<time>2019-05-30T11:22:14Z</time>
</trkpt>
<trkpt lat="49.556744" lon="10.279893">
<ele>368.866</ele>
<time>2019-05-30T11:22:15Z</time>
</trkpt>
<trkpt lat="49.55674" lon="10.279818">
<ele>369.028</ele>
<time>2019-05-30T11:22:16Z</time>
</trkpt>
<trkpt lat="49.55674" lon="10.279744">
<ele>369.195</ele>
<time>2019-05-30T11:22:17Z</time>
</trkpt>
<trkpt lat="49.556732" lon="10.279669">
<ele>369.328</ele>
<time>2019-05-30T11:22:18Z</time>
</trkpt>
<trkpt lat="49.556728" lon="10.279593">
<ele>369.431</ele>
<time>2019-05-30T11:22:19Z</time>
</trkpt>
<trkpt lat="49.556721" lon="10.279516">
<ele>369.505</ele>
<time>2019-05-30T11:22:20Z</time>
</trkpt>
<trkpt lat="49.556713" lon="10.27944">
<ele>369.552</ele>
<time>2019-05-30T11:22:21Z</time>
</trkpt>
<trkpt lat="49.556705" lon="10.279362">
<ele>369.575</ele>
<time>2019-05-30T11:22:22Z</time>
</trkpt>
<trkpt lat="49.556702" lon="10.279284">
<ele>369.575</ele>
<time>2019-05-30T11:22:23Z</time>
</trkpt>
<trkpt lat="49.556694" lon="10.279203">
<ele>369.575</ele>
<time>2019-05-30T11:22:24Z</time>
</trkpt>
<trkpt lat="49.55669" lon="10.279125">
<ele>369.575</ele>
<time>2019-05-30T11:22:25Z</time>
</trkpt>
<trkpt lat="49.556683" lon="10.279047">
<ele>369.575</ele>
<time>2019-05-30T11:22:26Z</time>
</trkpt>
<trkpt lat="49.556679" lon="10.278969">
<ele>369.575</ele>
<time>2019-05-30T11:22:27Z</time>
</trkpt>
<trkpt lat="49.556675" lon="10.278892">
<ele>369.575</ele>
<time>2019-05-30T11:22:28Z</time>
</trkpt>
<trkpt lat="49.556667" lon="10.278815">
<ele>369.575</ele>
<time>2019-05-30T11:22:29Z</time>
</trkpt>
<trkpt lat="49.55666" lon="10.27874">
<ele>369.575</ele>
<time>2019-05-30T11:22:30Z</time>
</trkpt>
<trkpt lat="49.556652" lon="10.278664">
<ele>369.575</ele>
<time>2019-05-30T11:22:31Z</time>
</trkpt>
<trkpt lat="49.556648" lon="10.278587">
<ele>369.575</ele>
<time>2019-05-30T11:22:32Z</time>
</trkpt>
<trkpt lat="49.556644" lon="10.278508">
<ele>369.575</ele>
<time>2019-05-30T11:22:33Z</time>
</trkpt>
<trkpt lat="49.556641" lon="10.27843">
<ele>369.788</ele>
<time>2019-05-30T11:22:34Z</time>
</trkpt>
<trkpt lat="49.556633" lon="10.278353">
<ele>369.957</ele>
<time>2019-05-30T11:22:35Z</time>
</trkpt>
<trkpt lat="49.556629" lon="10.278277">
<ele>370.073</ele>
<time>2019-05-30T11:22:36Z</time>
</trkpt>
<trkpt lat="49.556625" lon="10.2782">
<ele>370.198</ele>
<time>2019-05-30T11:22:37Z</time>
</trkpt>
<trkpt lat="49.556618" lon="10.278123">
<ele>370.294</ele>
<time>2019-05-30T11:22:38Z</time>
</trkpt>
<trkpt lat="49.556614" lon="10.278047">
<ele>370.362</ele>
<time>2019-05-30T11:22:39Z</time>
</trkpt>
<trkpt lat="49.55661" lon="10.277971">
<ele>370.406</ele>
<time>2019-05-30T11:22:40Z</time>
</trkpt>
<trkpt lat="49.55661" lon="10.277897">
<ele>370.428</ele>
<time>2019-05-30T11:22:41Z</time>
</trkpt>
<trkpt lat="49.556602" lon="10.277821">
<ele>370.427</ele>
<time>2019-05-30T11:22:42Z</time>
</trkpt>
<trkpt lat="49.556599" lon="10.277743">
<ele>370.427</ele>
<time>2019-05-30T11:22:43Z</time>
</trkpt>
<trkpt lat="49.556591" lon="10.277668">
<ele>370.427</ele>
<time>2019-05-30T11:22:44Z</time>
</trkpt>
<trkpt lat="49.556583" lon="10.277592">
<ele>370.427</ele>
<time>2019-05-30T11:22:45Z</time>
</trkpt>
<trkpt lat="49.55658" lon="10.277516">
<ele>370.427</ele>
<time>2019-05-30T11:22:46Z</time>
</trkpt>
<trkpt lat="49.556576" lon="10.27744">
<ele>370.427</ele>
<time>2019-05-30T11:22:47Z</time>
</trkpt>
<trkpt lat="49.556568" lon="10.277364">
<ele>370.427</ele>
<time>2019-05-30T11:22:48Z</time>
</trkpt>
<trkpt lat="49.556561" lon="10.277287">
<ele>370.428</ele>
<time>2019-05-30T11:22:49Z</time>
</trkpt>
<trkpt lat="49.556553" lon="10.27721">
<ele>370.692</ele>
<time>2019-05-30T11:22:50Z</time>
</trkpt>
<trkpt lat="49.556545" lon="10.277132">
<ele>370.897</ele>
<time>2019-05-30T11:22:51Z</time>
</trkpt>
<trkpt lat="49.556545" lon="10.277054">
<ele>371.054</ele>
<time>2019-05-30T11:22:52Z</time>
</trkpt>
<trkpt lat="49.556545" lon="10.276977">
<ele>371.169</ele>
<time>2019-05-30T11:22:53Z</time>
</trkpt>
<trkpt lat="49.556541" lon="10.276898">
<ele>371.245</ele>
<time>2019-05-30T11:22:54Z</time>
</trkpt>
<trkpt lat="49.556541" lon="10.276819">
<ele>371.298</ele>
<time>2019-05-30T11:22:55Z</time>
</trkpt>
<trkpt lat="49.556538" lon="10.276744">
<ele>371.339</ele>
<time>2019-05-30T11:22:56Z</time>
</trkpt>
<trkpt lat="49.556534" lon="10.276665">
<ele>371.365</ele>
<time>2019-05-30T11:22:57Z</time>
</trkpt>
<trkpt lat="49.556534" lon="10.276585">
<ele>371.365</ele>
<time>2019-05-30T11:22:58Z</time>
</trkpt>
<trkpt lat="49.556534" lon="10.276504">
<ele>371.365</ele>
<time>2019-05-30T11:22:59Z</time>
</trkpt>
<trkpt lat="49.556534" lon="10.27642">
<ele>371.365</ele>
<time>2019-05-30T11:23:00Z</time>
</trkpt>
<trkpt lat="49.556534" lon="10.276338">
<ele>371.365</ele>
<time>2019-05-30T11:23:01Z</time>
</trkpt>
<trkpt lat="49.556534" lon="10.276256">
<ele>371.365</ele>
<time>2019-05-30T11:23:02Z</time>
</trkpt>
<trkpt lat="49.556534" lon="10.276175">
<ele>371.365</ele>
<time>2019-05-30T11:23:03Z</time>
</trkpt>
<trkpt lat="49.556538" lon="10.276094">
<ele>371.365</ele>
<time>2019-05-30T11:23:04Z</time>
</trkpt>
<trkpt lat="49.556538" lon="10.276015">
<ele>371.365</ele>
<time>2019-05-30T11:23:05Z</time>
</trkpt>
<trkpt lat="49.556538" lon="10.275935">
<ele>371.157</ele>
<time>2019-05-30T11:23:06Z</time>
</trkpt>
<trkpt lat="49.556538" lon="10.275857">
<ele>370.962</ele>
<time>2019-05-30T11:23:07Z</time>
</trkpt>
<trkpt lat="49.556541" lon="10.275778">
<ele>370.801</ele>
<time>2019-05-30T11:23:08Z</time>
</trkpt>
<trkpt lat="49.556541" lon="10.275701">
<ele>370.671</ele>
<time>2019-05-30T11:23:09Z</time>
</trkpt>
<trkpt lat="49.556541" lon="10.275621">
<ele>370.571</ele>
<time>2019-05-30T11:23:10Z</time>
</trkpt>
<trkpt lat="49.556538" lon="10.275543">
<ele>370.497</ele>
<time>2019-05-30T11:23:11Z</time>
</trkpt>
<trkpt lat="49.556538" lon="10.275465">
<ele>370.45</ele>
<time>2019-05-30T11:23:12Z</time>
</trkpt>
<trkpt lat="49.556538" lon="10.275385">
<ele>370.427</ele>
<time>2019-05-30T11:23:13Z</time>
</trkpt>
<trkpt lat="49.556538" lon="10.275305">
<ele>370.428</ele>
<time>2019-05-30T11:23:14Z</time>
</trkpt>
<trkpt lat="49.556538" lon="10.275225">
<ele>370.427</ele>
<time>2019-05-30T11:23:15Z</time>
</trkpt>
<trkpt lat="49.556534" lon="10.275144">
<ele>370.428</ele>
<time>2019-05-30T11:23:16Z</time>
</trkpt>
<trkpt lat="49.556534" lon="10.275062">
<ele>370.427</ele>
<time>2019-05-30T11:23:17Z</time>
</trkpt>
<trkpt lat="49.55653" lon="10.274978">
<ele>370.428</ele>
<time>2019-05-30T11:23:18Z</time>
</trkpt>
<trkpt lat="49.55653" lon="10.274894">
<ele>370.427</ele>
<time>2019-05-30T11:23:19Z</time>
</trkpt>
<trkpt lat="49.55653" lon="10.274808">
<ele>370.427</ele>
<time>2019-05-30T11:23:20Z</time>
</trkpt>
<trkpt lat="49.55653" lon="10.274722">
<ele>370.427</ele>
<time>2019-05-30T11:23:21Z</time>
</trkpt>
<trkpt lat="49.556526" lon="10.274634">
<ele>370.427</ele>
<time>2019-05-30T11:23:22Z</time>
</trkpt>
<trkpt lat="49.556526" lon="10.274547">
<ele>370.427</ele>
<time>2019-05-30T11:23:23Z</time>
</trkpt>
<trkpt lat="49.556522" lon="10.274456">
<ele>370.427</ele>
<time>2019-05-30T11:23:24Z</time>
</trkpt>
<trkpt lat="49.556519" lon="10.27437">
<ele>370.428</ele>
<time>2019-05-30T11:23:25Z</time>
</trkpt>
<trkpt lat="49.556519" lon="10.27428">
<ele>370.427</ele>
<time>2019-05-30T11:23:26Z</time>
</trkpt>
<trkpt lat="49.556515" lon="10.27419">
<ele>370.197</ele>
<time>2019-05-30T11:23:27Z</time>
</trkpt>
<trkpt lat="49.556511" lon="10.2741">
<ele>370.005</ele>
<time>2019-05-30T11:23:28Z</time>
</trkpt>
<trkpt lat="49.556511" lon="10.27401">
<ele>369.848</ele>
<time>2019-05-30T11:23:29Z</time>
</trkpt>
<trkpt lat="49.556511" lon="10.27392">
<ele>369.722</ele>
<time>2019-05-30T11:23:30Z</time>
</trkpt>
<trkpt lat="49.556507" lon="10.273829">
<ele>369.626</ele>
<time>2019-05-30T11:23:31Z</time>
</trkpt>
<trkpt lat="49.556507" lon="10.273742">
<ele>369.557</ele>
<time>2019-05-30T11:23:32Z</time>
</trkpt>
<trkpt lat="49.556503" lon="10.273653">
<ele>369.511</ele>
<time>2019-05-30T11:23:33Z</time>
</trkpt>
<trkpt lat="49.556499" lon="10.273566">
<ele>369.49</ele>
<time>2019-05-30T11:23:34Z</time>
</trkpt>
<trkpt lat="49.556499" lon="10.273478">
<ele>369.49</ele>
<time>2019-05-30T11:23:35Z</time>
</trkpt>
<trkpt lat="49.556496" lon="10.273388">
<ele>369.283</ele>
<time>2019-05-30T11:23:36Z</time>
</trkpt>
<trkpt lat="49.556496" lon="10.273298">
<ele>369.086</ele>
<time>2019-05-30T11:23:37Z</time>
</trkpt>
<trkpt lat="49.556496" lon="10.273208">
<ele>368.923</ele>
<time>2019-05-30T11:23:38Z</time>
</trkpt>
<trkpt lat="49.556492" lon="10.273118">
<ele>368.793</ele>
<time>2019-05-30T11:23:39Z</time>
</trkpt>
<trkpt lat="49.556492" lon="10.273028">
<ele>368.692</ele>
<time>2019-05-30T11:23:40Z</time>
</trkpt>
<trkpt lat="49.556488" lon="10.272937">
<ele>368.62</ele>
<time>2019-05-30T11:23:41Z</time>
</trkpt>
<trkpt lat="49.556488" lon="10.272845">
<ele>368.578</ele>
<time>2019-05-30T11:23:42Z</time>
</trkpt>
<trkpt lat="49.556484" lon="10.272753">
<ele>368.323</ele>
<time>2019-05-30T11:23:43Z</time>
</trkpt>
<trkpt lat="49.556484" lon="10.272658">
<ele>368.12</ele>
<time>2019-05-30T11:23:44Z</time>
</trkpt>
<trkpt lat="49.55648" lon="10.272564">
<ele>367.973</ele>
<time>2019-05-30T11:23:45Z</time>
</trkpt>
<trkpt lat="49.55648" lon="10.272468">
<ele>367.873</ele>
<time>2019-05-30T11:23:46Z</time>
</trkpt>
<trkpt lat="49.55648" lon="10.272371">
<ele>367.765</ele>
<time>2019-05-30T11:23:47Z</time>
</trkpt>
<trkpt lat="49.556477" lon="10.272273">
<ele>367.688</ele>
<time>2019-05-30T11:23:48Z</time>
</trkpt>
<trkpt lat="49.556473" lon="10.272175">
<ele>367.639</ele>
<time>2019-05-30T11:23:49Z</time>
</trkpt>
<trkpt lat="49.556473" lon="10.272074">
<ele>367.615</ele>
<time>2019-05-30T11:23:50Z</time>
</trkpt>
<trkpt lat="49.556469" lon="10.271972">
<ele>367.333</ele>
<time>2019-05-30T11:23:51Z</time>
</trkpt>
<trkpt lat="49.556461" lon="10.271872">
<ele>367.115</ele>
<time>2019-05-30T11:23:52Z</time>
</trkpt>
<trkpt lat="49.556454" lon="10.271774">
<ele>366.95</ele>
<time>2019-05-30T11:23:53Z</time>
</trkpt>
<trkpt lat="49.556446" lon="10.271678">
<ele>366.828</ele>
<time>2019-05-30T11:23:54Z</time>
</trkpt>
<trkpt lat="49.556431" lon="10.271582">
<ele>366.761</ele>
<time>2019-05-30T11:23:55Z</time>
</trkpt>
<trkpt lat="49.556419" lon="10.271485">
<ele>366.47</ele>
<time>2019-05-30T11:23:56Z</time>
</trkpt>
<trkpt lat="49.556412" lon="10.271387">
<ele>366.217</ele>
<time>2019-05-30T11:23:57Z</time>
</trkpt>
<trkpt lat="49.5564" lon="10.27129">
<ele>366.029</ele>
<time>2019-05-30T11:23:58Z</time>
</trkpt>
<trkpt lat="49.556385" lon="10.271194">
<ele>365.898</ele>
<time>2019-05-30T11:23:59Z</time>
</trkpt>
<trkpt lat="49.556377" lon="10.2711">
<ele>365.797</ele>
<time>2019-05-30T11:24:00Z</time>
</trkpt>
<trkpt lat="49.556362" lon="10.271007">
<ele>365.734</ele>
<time>2019-05-30T11:24:01Z</time>
</trkpt>
<trkpt lat="49.556351" lon="10.270915">
<ele>365.476</ele>
<time>2019-05-30T11:24:02Z</time>
</trkpt>
<trkpt lat="49.556339" lon="10.270823">
<ele>365.278</ele>
<time>2019-05-30T11:24:03Z</time>
</trkpt>
<trkpt lat="49.556328" lon="10.270731">
<ele>365.122</ele>
<time>2019-05-30T11:24:04Z</time>
</trkpt>
<trkpt lat="49.556316" lon="10.270638">
<ele>365.021</ele>
<time>2019-05-30T11:24:05Z</time>
</trkpt>
<trkpt lat="49.556305" lon="10.270543">
<ele>364.948</ele>
<time>2019-05-30T11:24:06Z</time>
</trkpt>
<trkpt lat="49.556293" lon="10.270447">
<ele>364.874</ele>
<time>2019-05-30T11:24:07Z</time>
</trkpt>
<trkpt lat="49.556282" lon="10.270351">
<ele>364.827</ele>
<time>2019-05-30T11:24:08Z</time>
</trkpt>
<trkpt lat="49.556267" lon="10.270258">
<ele>364.804</ele>
<time>2019-05-30T11:24:09Z</time>
</trkpt>
<trkpt lat="49.556255" lon="10.270167">
<ele>364.804</ele>
<time>2019-05-30T11:24:10Z</time>
</trkpt>
<trkpt lat="49.556248" lon="10.270071">
<ele>364.548</ele>
<time>2019-05-30T11:24:11Z</time>
</trkpt>
<trkpt lat="49.556232" lon="10.26998">
<ele>364.349</ele>
<time>2019-05-30T11:24:12Z</time>
</trkpt>
<trkpt lat="49.556217" lon="10.269889">
<ele>364.198</ele>
<time>2019-05-30T11:24:13Z</time>
</trkpt>
<trkpt lat="49.556217" lon="10.2698">
<ele>364.086</ele>
<time>2019-05-30T11:24:14Z</time>
</trkpt>
<trkpt lat="49.556221" lon="10.269713">
<ele>364.007</ele>
<time>2019-05-30T11:24:15Z</time>
</trkpt>
<trkpt lat="49.556252" lon="10.26964">
<ele>363.947</ele>
<time>2019-05-30T11:24:16Z</time>
</trkpt>
<trkpt lat="49.556301" lon="10.269587">
<ele>363.893</ele>
<time>2019-05-30T11:24:17Z</time>
</trkpt>
<trkpt lat="49.556351" lon="10.269553">
<ele>363.867</ele>
<time>2019-05-30T11:24:18Z</time>
</trkpt>
<trkpt lat="49.556408" lon="10.269526">
<ele>363.867</ele>
<time>2019-05-30T11:24:19Z</time>
</trkpt>
<trkpt lat="49.556461" lon="10.269499">
<ele>363.867</ele>
<time>2019-05-30T11:24:20Z</time>
</trkpt>
<trkpt lat="49.556515" lon="10.269468">
<ele>363.867</ele>
<time>2019-05-30T11:24:21Z</time>
</trkpt>
<trkpt lat="49.556568" lon="10.269437">
<ele>363.867</ele>
<time>2019-05-30T11:24:22Z</time>
</trkpt>
<trkpt lat="49.556618" lon="10.269405">
<ele>363.867</ele>
<time>2019-05-30T11:24:23Z</time>
</trkpt>
<trkpt lat="49.556675" lon="10.269369">
<ele>363.867</ele>
<time>2019-05-30T11:24:24Z</time>
</trkpt>
<trkpt lat="49.556721" lon="10.269334">
<ele>363.867</ele>
<time>2019-05-30T11:24:25Z</time>
</trkpt>
<trkpt lat="49.55677" lon="10.269299">
<ele>363.867</ele>
<time>2019-05-30T11:24:26Z</time>
</trkpt>
<trkpt lat="49.55682" lon="10.269265">
<ele>363.867</ele>
<time>2019-05-30T11:24:27Z</time>
</trkpt>
<trkpt lat="49.55687" lon="10.269231">
<ele>363.867</ele>
<time>2019-05-30T11:24:28Z</time>
</trkpt>
<trkpt lat="49.556915" lon="10.269198">
<ele>363.867</ele>
<time>2019-05-30T11:24:29Z</time>
</trkpt>
<trkpt lat="49.556969" lon="10.269168">
<ele>363.867</ele>
<time>2019-05-30T11:24:30Z</time>
</trkpt>
<trkpt lat="49.557018" lon="10.269138">
<ele>363.867</ele>
<time>2019-05-30T11:24:31Z</time>
</trkpt>
<trkpt lat="49.557064" lon="10.269109">
<ele>363.867</ele>
<time>2019-05-30T11:24:32Z</time>
</trkpt>
<trkpt lat="49.557117" lon="10.269073">
<ele>363.867</ele>
<time>2019-05-30T11:24:33Z</time>
</trkpt>
<trkpt lat="49.557167" lon="10.26904">
<ele>363.867</ele>
<time>2019-05-30T11:24:34Z</time>
</trkpt>
<trkpt lat="49.55722" lon="10.269009">
<ele>363.867</ele>
<time>2019-05-30T11:24:35Z</time>
</trkpt>
<trkpt lat="49.557266" lon="10.268978">
<ele>363.867</ele>
<time>2019-05-30T11:24:36Z</time>
</trkpt>
<trkpt lat="49.557316" lon="10.26895">
<ele>363.867</ele>
<time>2019-05-30T11:24:37Z</time>
</trkpt>
<trkpt lat="49.557365" lon="10.268923">
<ele>363.867</ele>
<time>2019-05-30T11:24:38Z</time>
</trkpt>
<trkpt lat="49.557419" lon="10.268898">
<ele>363.867</ele>
<time>2019-05-30T11:24:39Z</time>
</trkpt>
<trkpt lat="49.557468" lon="10.268875">
<ele>363.867</ele>
<time>2019-05-30T11:24:40Z</time>
</trkpt>
<trkpt lat="49.557522" lon="10.268849">
<ele>363.867</ele>
<time>2019-05-30T11:24:41Z</time>
</trkpt>
<trkpt lat="49.557575" lon="10.268825">
<ele>363.867</ele>
<time>2019-05-30T11:24:42Z</time>
</trkpt>
<trkpt lat="49.557629" lon="10.268799">
<ele>363.867</ele>
<time>2019-05-30T11:24:43Z</time>
</trkpt>
<trkpt lat="49.557682" lon="10.268772">
<ele>363.867</ele>
<time>2019-05-30T11:24:44Z</time>
</trkpt>
<trkpt lat="49.557735" lon="10.268746">
<ele>363.867</ele>
<time>2019-05-30T11:24:45Z</time>
</trkpt>
<trkpt lat="49.557793" lon="10.268723">
<ele>363.867</ele>
<time>2019-05-30T11:24:46Z</time>
</trkpt>
<trkpt lat="49.557846" lon="10.268701">
<ele>363.867</ele>
<time>2019-05-30T11:24:47Z</time>
</trkpt>
<trkpt lat="49.557907" lon="10.268677">
<ele>363.867</ele>
<time>2019-05-30T11:24:48Z</time>
</trkpt>
<trkpt lat="49.557964" lon="10.268653">
<ele>363.867</ele>
<time>2019-05-30T11:24:49Z</time>
</trkpt>
<trkpt lat="49.558022" lon="10.268632">
<ele>363.867</ele>
<time>2019-05-30T11:24:50Z</time>
</trkpt>
<trkpt lat="49.558083" lon="10.268608">
<ele>363.609</ele>
<time>2019-05-30T11:24:51Z</time>
</trkpt>
<trkpt lat="49.558144" lon="10.268581">
<ele>363.407</ele>
<time>2019-05-30T11:24:52Z</time>
</trkpt>
<trkpt lat="49.558205" lon="10.268555">
<ele>363.256</ele>
<time>2019-05-30T11:24:53Z</time>
</trkpt>
<trkpt lat="49.558273" lon="10.268532">
<ele>363.17</ele>
<time>2019-05-30T11:24:54Z</time>
</trkpt>
<trkpt lat="49.558338" lon="10.268508">
<ele>362.844</ele>
<time>2019-05-30T11:24:55Z</time>
</trkpt>
<trkpt lat="49.558403" lon="10.268483">
<ele>362.609</ele>
<time>2019-05-30T11:24:56Z</time>
</trkpt>
<trkpt lat="49.558468" lon="10.268456">
<ele>362.388</ele>
<time>2019-05-30T11:24:57Z</time>
</trkpt>
<trkpt lat="49.558533" lon="10.268431">
<ele>362.234</ele>
<time>2019-05-30T11:24:58Z</time>
</trkpt>
<trkpt lat="49.558598" lon="10.268405">
<ele>362.133</ele>
<time>2019-05-30T11:24:59Z</time>
</trkpt>
<trkpt lat="49.558666" lon="10.268382">
<ele>362.062</ele>
<time>2019-05-30T11:25:00Z</time>
</trkpt>
<trkpt lat="49.558731" lon="10.268358">
<ele>362.019</ele>
<time>2019-05-30T11:25:01Z</time>
</trkpt>
<trkpt lat="49.558796" lon="10.268336">
<ele>361.787</ele>
<time>2019-05-30T11:25:02Z</time>
</trkpt>
<trkpt lat="49.558865" lon="10.268313">
<ele>361.593</ele>
<time>2019-05-30T11:25:03Z</time>
</trkpt>
<trkpt lat="49.558929" lon="10.268289">
<ele>361.458</ele>
<time>2019-05-30T11:25:04Z</time>
</trkpt>
<trkpt lat="49.558994" lon="10.268261">
<ele>361.355</ele>
<time>2019-05-30T11:25:05Z</time>
</trkpt>
<trkpt lat="49.559063" lon="10.268236">
<ele>361.284</ele>
<time>2019-05-30T11:25:06Z</time>
</trkpt>
<trkpt lat="49.559132" lon="10.268213">
<ele>361.211</ele>
<time>2019-05-30T11:25:07Z</time>
</trkpt>
<trkpt lat="49.559196" lon="10.268189">
<ele>361.164</ele>
<time>2019-05-30T11:25:08Z</time>
</trkpt>
<trkpt lat="49.559265" lon="10.268165">
<ele>361.142</ele>
<time>2019-05-30T11:25:09Z</time>
</trkpt>
<trkpt lat="49.55933" lon="10.268139">
<ele>361.142</ele>
<time>2019-05-30T11:25:10Z</time>
</trkpt>
<trkpt lat="49.559395" lon="10.268112">
<ele>361.142</ele>
<time>2019-05-30T11:25:11Z</time>
</trkpt>
<trkpt lat="49.559464" lon="10.268085">
<ele>360.828</ele>
<time>2019-05-30T11:25:12Z</time>
</trkpt>
<trkpt lat="49.559528" lon="10.268062">
<ele>360.793</ele>
<time>2019-05-30T11:25:13Z</time>
</trkpt>
<trkpt lat="49.559589" lon="10.268041">
<ele>360.772</ele>
<time>2019-05-30T11:25:14Z</time>
</trkpt>
<trkpt lat="49.55965" lon="10.268015">
<ele>360.76</ele>
<time>2019-05-30T11:25:15Z</time>
</trkpt>
<trkpt lat="49.559711" lon="10.267988">
<ele>360.747</ele>
<time>2019-05-30T11:25:16Z</time>
</trkpt>
<trkpt lat="49.559772" lon="10.26796">
<ele>360.744</ele>
<time>2019-05-30T11:25:17Z</time>
</trkpt>
<trkpt lat="49.559834" lon="10.267935">
<ele>360.749</ele>
<time>2019-05-30T11:25:18Z</time>
</trkpt>
<trkpt lat="49.559895" lon="10.26791">
<ele>360.762</ele>
<time>2019-05-30T11:25:19Z</time>
</trkpt>
<trkpt lat="49.559956" lon="10.267886">
<ele>360.779</ele>
<time>2019-05-30T11:25:20Z</time>
</trkpt>
<trkpt lat="49.560013" lon="10.267863">
<ele>360.802</ele>
<time>2019-05-30T11:25:21Z</time>
</trkpt>
<trkpt lat="49.560074" lon="10.267838">
<ele>360.802</ele>
<time>2019-05-30T11:25:22Z</time>
</trkpt>
<trkpt lat="49.560131" lon="10.267812">
<ele>360.802</ele>
<time>2019-05-30T11:25:23Z</time>
</trkpt>
<trkpt lat="49.560192" lon="10.267787">
<ele>360.802</ele>
<time>2019-05-30T11:25:24Z</time>
</trkpt>
<trkpt lat="49.560253" lon="10.267758">
<ele>360.802</ele>
<time>2019-05-30T11:25:25Z</time>
</trkpt>
<trkpt lat="49.56031" lon="10.267731">
<ele>360.802</ele>
<time>2019-05-30T11:25:26Z</time>
</trkpt>
<trkpt lat="49.560371" lon="10.267701">
<ele>360.802</ele>
<time>2019-05-30T11:25:27Z</time>
</trkpt>
<trkpt lat="49.560436" lon="10.267673">
<ele>360.802</ele>
<time>2019-05-30T11:25:28Z</time>
</trkpt>
<trkpt lat="49.560497" lon="10.267643">
<ele>360.802</ele>
<time>2019-05-30T11:25:29Z</time>
</trkpt>
<trkpt lat="49.560558" lon="10.267615">
<ele>360.802</ele>
<time>2019-05-30T11:25:30Z</time>
</trkpt>
<trkpt lat="49.560619" lon="10.267585">
<ele>360.802</ele>
<time>2019-05-30T11:25:31Z</time>
</trkpt>
<trkpt lat="49.56068" lon="10.267557">
<ele>360.802</ele>
<time>2019-05-30T11:25:32Z</time>
</trkpt>
<trkpt lat="49.560741" lon="10.267529">
<ele>360.802</ele>
<time>2019-05-30T11:25:33Z</time>
</trkpt>
<trkpt lat="49.560802" lon="10.267503">
<ele>360.802</ele>
<time>2019-05-30T11:25:34Z</time>
</trkpt>
<trkpt lat="49.560863" lon="10.267478">
<ele>360.802</ele>
<time>2019-05-30T11:25:35Z</time>
</trkpt>
<trkpt lat="49.560928" lon="10.267452">
<ele>360.802</ele>
<time>2019-05-30T11:25:36Z</time>
</trkpt>
<trkpt lat="49.560989" lon="10.267425">
<ele>360.802</ele>
<time>2019-05-30T11:25:37Z</time>
</trkpt>
<trkpt lat="49.56105" lon="10.267397">
<ele>360.802</ele>
<time>2019-05-30T11:25:38Z</time>
</trkpt>
<trkpt lat="49.561115" lon="10.26737">
<ele>360.802</ele>
<time>2019-05-30T11:25:39Z</time>
</trkpt>
<trkpt lat="49.56118" lon="10.267344">
<ele>360.802</ele>
<time>2019-05-30T11:25:40Z</time>
</trkpt>
<trkpt lat="49.561249" lon="10.267317">
<ele>360.802</ele>
<time>2019-05-30T11:25:41Z</time>
</trkpt>
<trkpt lat="49.561317" lon="10.267293">
<ele>360.802</ele>
<time>2019-05-30T11:25:42Z</time>
</trkpt>
<trkpt lat="49.561386" lon="10.267268">
<ele>360.579</ele>
<time>2019-05-30T11:25:43Z</time>
</trkpt>
<trkpt lat="49.561451" lon="10.267242">
<ele>360.406</ele>
<time>2019-05-30T11:25:44Z</time>
</trkpt>
<trkpt lat="49.561523" lon="10.267213">
<ele>360.271</ele>
<time>2019-05-30T11:25:45Z</time>
</trkpt>
<trkpt lat="49.561592" lon="10.267183">
<ele>360.182</ele>
<time>2019-05-30T11:25:46Z</time>
</trkpt>
<trkpt lat="49.561661" lon="10.267153">
<ele>360.089</ele>
<time>2019-05-30T11:25:47Z</time>
</trkpt>
<trkpt lat="49.561733" lon="10.267127">
<ele>359.787</ele>
<time>2019-05-30T11:25:48Z</time>
</trkpt>
<trkpt lat="49.561806" lon="10.267102">
<ele>359.548</ele>
<time>2019-05-30T11:25:49Z</time>
</trkpt>
<trkpt lat="49.561882" lon="10.267076">
<ele>359.368</ele>
<time>2019-05-30T11:25:50Z</time>
</trkpt>
<trkpt lat="49.561954" lon="10.267046">
<ele>359.185</ele>
<time>2019-05-30T11:25:51Z</time>
</trkpt>
<trkpt lat="49.562031" lon="10.267015">
<ele>358.794</ele>
<time>2019-05-30T11:25:52Z</time>
</trkpt>
<trkpt lat="49.562111" lon="10.266983">
<ele>358.508</ele>
<time>2019-05-30T11:25:53Z</time>
</trkpt>
<trkpt lat="49.562187" lon="10.266953">
<ele>358.305</ele>
<time>2019-05-30T11:25:54Z</time>
</trkpt>
<trkpt lat="49.562267" lon="10.266924">
<ele>358.176</ele>
<time>2019-05-30T11:25:55Z</time>
</trkpt>
<trkpt lat="49.562347" lon="10.266895">
<ele>358.087</ele>
<time>2019-05-30T11:25:56Z</time>
</trkpt>
<trkpt lat="49.562428" lon="10.266867">
<ele>357.995</ele>
<time>2019-05-30T11:25:57Z</time>
</trkpt>
<trkpt lat="49.562511" lon="10.266838">
<ele>357.705</ele>
<time>2019-05-30T11:25:58Z</time>
</trkpt>
<trkpt lat="49.562588" lon="10.266811">
<ele>357.484</ele>
<time>2019-05-30T11:25:59Z</time>
</trkpt>
<trkpt lat="49.562672" lon="10.266787">
<ele>357.243</ele>
<time>2019-05-30T11:26:00Z</time>
</trkpt>
<trkpt lat="49.562752" lon="10.266761">
<ele>357.125</ele>
<time>2019-05-30T11:26:01Z</time>
</trkpt>
<trkpt lat="49.562832" lon="10.26674">
<ele>357.055</ele>
<time>2019-05-30T11:26:02Z</time>
</trkpt>
<trkpt lat="49.562912" lon="10.266722">
<ele>356.757</ele>
<time>2019-05-30T11:26:03Z</time>
</trkpt>
<trkpt lat="49.562992" lon="10.266706">
<ele>356.541</ele>
<time>2019-05-30T11:26:04Z</time>
</trkpt>
<trkpt lat="49.563072" lon="10.26669">
<ele>356.396</ele>
<time>2019-05-30T11:26:05Z</time>
</trkpt>
<trkpt lat="49.563156" lon="10.266668">
<ele>356.295</ele>
<time>2019-05-30T11:26:06Z</time>
</trkpt>
<trkpt lat="49.563232" lon="10.26665">
<ele>356.191</ele>
<time>2019-05-30T11:26:07Z</time>
</trkpt>
<trkpt lat="49.563316" lon="10.266631">
<ele>355.885</ele>
<time>2019-05-30T11:26:08Z</time>
</trkpt>
<trkpt lat="49.563393" lon="10.266614">
<ele>355.642</ele>
<time>2019-05-30T11:26:09Z</time>
</trkpt>
<trkpt lat="49.563477" lon="10.266597">
<ele>355.458</ele>
<time>2019-05-30T11:26:10Z</time>
</trkpt>
<trkpt lat="49.563553" lon="10.266579">
<ele>355.276</ele>
<time>2019-05-30T11:26:11Z</time>
</trkpt>
<trkpt lat="49.563637" lon="10.266558">
<ele>354.959</ele>
<time>2019-05-30T11:26:12Z</time>
</trkpt>
<trkpt lat="49.563717" lon="10.266539">
<ele>354.728</ele>
<time>2019-05-30T11:26:13Z</time>
</trkpt>
<trkpt lat="49.563793" lon="10.266517">
<ele>354.566</ele>
<time>2019-05-30T11:26:14Z</time>
</trkpt>
<trkpt lat="49.563877" lon="10.266499">
<ele>354.46</ele>
<time>2019-05-30T11:26:15Z</time>
</trkpt>
<trkpt lat="49.563953" lon="10.266477">
<ele>354.389</ele>
<time>2019-05-30T11:26:16Z</time>
</trkpt>
<trkpt lat="49.564037" lon="10.266459">
<ele>354.088</ele>
<time>2019-05-30T11:26:17Z</time>
</trkpt>
<trkpt lat="49.564117" lon="10.266438">
<ele>353.85</ele>
<time>2019-05-30T11:26:18Z</time>
</trkpt>
<trkpt lat="49.564198" lon="10.266417">
<ele>353.671</ele>
<time>2019-05-30T11:26:19Z</time>
</trkpt>
<trkpt lat="49.564274" lon="10.266398">
<ele>353.545</ele>
<time>2019-05-30T11:26:20Z</time>
</trkpt>
<trkpt lat="49.564358" lon="10.266378">
<ele>353.448</ele>
<time>2019-05-30T11:26:21Z</time>
</trkpt>
<trkpt lat="49.564434" lon="10.266356">
<ele>353.378</ele>
<time>2019-05-30T11:26:22Z</time>
</trkpt>
<trkpt lat="49.56451" lon="10.266334">
<ele>353.333</ele>
<time>2019-05-30T11:26:23Z</time>
</trkpt>
<trkpt lat="49.56459" lon="10.266312">
<ele>353.311</ele>
<time>2019-05-30T11:26:24Z</time>
</trkpt>
<trkpt lat="49.564663" lon="10.26629">
<ele>353.311</ele>
<time>2019-05-30T11:26:25Z</time>
</trkpt>
<trkpt lat="49.564739" lon="10.266271">
<ele>353.311</ele>
<time>2019-05-30T11:26:26Z</time>
</trkpt>
<trkpt lat="49.564816" lon="10.266252">
<ele>353.311</ele>
<time>2019-05-30T11:26:27Z</time>
</trkpt>
<trkpt lat="49.564888" lon="10.266233">
<ele>353.311</ele>
<time>2019-05-30T11:26:28Z</time>
</trkpt>
<trkpt lat="49.564957" lon="10.266216">
<ele>353.311</ele>
<time>2019-05-30T11:26:29Z</time>
</trkpt>
<trkpt lat="49.565029" lon="10.266202">
<ele>353.311</ele>
<time>2019-05-30T11:26:30Z</time>
</trkpt>
<trkpt lat="49.565102" lon="10.266187">
<ele>353.311</ele>
<time>2019-05-30T11:26:31Z</time>
</trkpt>
<trkpt lat="49.56517" lon="10.266174">
<ele>353.311</ele>
<time>2019-05-30T11:26:32Z</time>
</trkpt>
<trkpt lat="49.565239" lon="10.266167">
<ele>353.311</ele>
<time>2019-05-30T11:26:33Z</time>
</trkpt>
<trkpt lat="49.565308" lon="10.26616">
<ele>353.311</ele>
<time>2019-05-30T11:26:34Z</time>
</trkpt>
<trkpt lat="49.565376" lon="10.266155">
<ele>353.311</ele>
<time>2019-05-30T11:26:35Z</time>
</trkpt>
<trkpt lat="49.565441" lon="10.266153">
<ele>353.311</ele>
<time>2019-05-30T11:26:36Z</time>
</trkpt>
<trkpt lat="49.56551" lon="10.266153">
<ele>353.311</ele>
<time>2019-05-30T11:26:37Z</time>
</trkpt>
<trkpt lat="49.565575" lon="10.266157">
<ele>353.311</ele>
<time>2019-05-30T11:26:38Z</time>
</trkpt>
<trkpt lat="49.565639" lon="10.266162">
<ele>353.311</ele>
<time>2019-05-30T11:26:39Z</time>
</trkpt>
<trkpt lat="49.565704" lon="10.266168">
<ele>353.311</ele>
<time>2019-05-30T11:26:40Z</time>
</trkpt>
<trkpt lat="49.565769" lon="10.266178">
<ele>353.311</ele>
<time>2019-05-30T11:26:41Z</time>
</trkpt>
<trkpt lat="49.56583" lon="10.266187">
<ele>353.311</ele>
<time>2019-05-30T11:26:42Z</time>
</trkpt>
<trkpt lat="49.565891" lon="10.266197">
<ele>353.311</ele>
<time>2019-05-30T11:26:43Z</time>
</trkpt>
<trkpt lat="49.565952" lon="10.266208">
<ele>353.311</ele>
<time>2019-05-30T11:26:44Z</time>
</trkpt>
<trkpt lat="49.56601" lon="10.266218">
<ele>353.311</ele>
<time>2019-05-30T11:26:45Z</time>
</trkpt>
<trkpt lat="49.566074" lon="10.266229">
<ele>353.311</ele>
<time>2019-05-30T11:26:46Z</time>
</trkpt>
<trkpt lat="49.566132" lon="10.266238">
<ele>353.311</ele>
<time>2019-05-30T11:26:47Z</time>
</trkpt>
<trkpt lat="49.566193" lon="10.266248">
<ele>353.311</ele>
<time>2019-05-30T11:26:48Z</time>
</trkpt>
<trkpt lat="49.56625" lon="10.266262">
<ele>353.603</ele>
<time>2019-05-30T11:26:49Z</time>
</trkpt>
<trkpt lat="49.566307" lon="10.266274">
<ele>353.833</ele>
<time>2019-05-30T11:26:50Z</time>
</trkpt>
<trkpt lat="49.566364" lon="10.266287">
<ele>354.007</ele>
<time>2019-05-30T11:26:51Z</time>
</trkpt>
<trkpt lat="49.566422" lon="10.266296">
<ele>354.136</ele>
<time>2019-05-30T11:26:52Z</time>
</trkpt>
<trkpt lat="49.566479" lon="10.266305">
<ele>354.226</ele>
<time>2019-05-30T11:26:53Z</time>
</trkpt>
<trkpt lat="49.566536" lon="10.266316">
<ele>354.281</ele>
<time>2019-05-30T11:26:54Z</time>
</trkpt>
<trkpt lat="49.566589" lon="10.26633">
<ele>354.308</ele>
<time>2019-05-30T11:26:55Z</time>
</trkpt>
<trkpt lat="49.56665" lon="10.266342">
<ele>354.332</ele>
<time>2019-05-30T11:26:56Z</time>
</trkpt>
<trkpt lat="49.566704" lon="10.266355">
<ele>354.332</ele>
<time>2019-05-30T11:26:57Z</time>
</trkpt>
<trkpt lat="49.566761" lon="10.266369">
<ele>354.332</ele>
<time>2019-05-30T11:26:58Z</time>
</trkpt>
<trkpt lat="49.566818" lon="10.266381">
<ele>354.332</ele>
<time>2019-05-30T11:26:59Z</time>
</trkpt>
<trkpt lat="49.566875" lon="10.266395">
<ele>354.594</ele>
<time>2019-05-30T11:27:00Z</time>
</trkpt>
<trkpt lat="49.566929" lon="10.266411">
<ele>354.798</ele>
<time>2019-05-30T11:27:01Z</time>
</trkpt>
<trkpt lat="49.566982" lon="10.266423">
<ele>354.953</ele>
<time>2019-05-30T11:27:02Z</time>
</trkpt>
<trkpt lat="49.567043" lon="10.266437">
<ele>355.068</ele>
<time>2019-05-30T11:27:03Z</time>
</trkpt>
<trkpt lat="49.567101" lon="10.266452">
<ele>355.148</ele>
<time>2019-05-30T11:27:04Z</time>
</trkpt>
<trkpt lat="49.567158" lon="10.266467">
<ele>355.202</ele>
<time>2019-05-30T11:27:05Z</time>
</trkpt>
<trkpt lat="49.567211" lon="10.266481">
<ele>355.243</ele>
<time>2019-05-30T11:27:06Z</time>
</trkpt>
<trkpt lat="49.567268" lon="10.266501">
<ele>355.268</ele>
<time>2019-05-30T11:27:07Z</time>
</trkpt>
<trkpt lat="49.567322" lon="10.266521">
<ele>355.268</ele>
<time>2019-05-30T11:27:08Z</time>
</trkpt>
<trkpt lat="49.567371" lon="10.266543">
<ele>355.268</ele>
<time>2019-05-30T11:27:09Z</time>
</trkpt>
<trkpt lat="49.567421" lon="10.266565">
<ele>355.268</ele>
<time>2019-05-30T11:27:10Z</time>
</trkpt>
<trkpt lat="49.567471" lon="10.266588">
<ele>355.494</ele>
<time>2019-05-30T11:27:11Z</time>
</trkpt>
<trkpt lat="49.56752" lon="10.266612">
<ele>355.673</ele>
<time>2019-05-30T11:27:12Z</time>
</trkpt>
<trkpt lat="49.567566" lon="10.266633">
<ele>355.81</ele>
<time>2019-05-30T11:27:13Z</time>
</trkpt>
<trkpt lat="49.567619" lon="10.266654">
<ele>355.892</ele>
<time>2019-05-30T11:27:14Z</time>
</trkpt>
<trkpt lat="49.567665" lon="10.266675">
<ele>356.219</ele>
<time>2019-05-30T11:27:15Z</time>
</trkpt>
<trkpt lat="49.567711" lon="10.266695">
<ele>356.467</ele>
<time>2019-05-30T11:27:16Z</time>
</trkpt>
<trkpt lat="49.56776" lon="10.266715">
<ele>356.698</ele>
<time>2019-05-30T11:27:17Z</time>
</trkpt>
<trkpt lat="49.56781" lon="10.266737">
<ele>356.869</ele>
<time>2019-05-30T11:27:18Z</time>
</trkpt>
<trkpt lat="49.567856" lon="10.266757">
<ele>356.981</ele>
<time>2019-05-30T11:27:19Z</time>
</trkpt>
<trkpt lat="49.567905" lon="10.266778">
<ele>357.064</ele>
<time>2019-05-30T11:27:20Z</time>
</trkpt>
<trkpt lat="49.567955" lon="10.266798">
<ele>357.112</ele>
<time>2019-05-30T11:27:21Z</time>
</trkpt>
<trkpt lat="49.568001" lon="10.26682">
<ele>357.369</ele>
<time>2019-05-30T11:27:22Z</time>
</trkpt>
<trkpt lat="49.56805" lon="10.266843">
<ele>357.585</ele>
<time>2019-05-30T11:27:23Z</time>
</trkpt>
<trkpt lat="49.5681" lon="10.266864">
<ele>357.734</ele>
<time>2019-05-30T11:27:24Z</time>
</trkpt>
<trkpt lat="49.56815" lon="10.266884">
<ele>357.844</ele>
<time>2019-05-30T11:27:25Z</time>
</trkpt>
<trkpt lat="49.568203" lon="10.266903">
<ele>357.922</ele>
<time>2019-05-30T11:27:26Z</time>
</trkpt>
<trkpt lat="49.568249" lon="10.266924">
<ele>358.003</ele>
<time>2019-05-30T11:27:27Z</time>
</trkpt>
<trkpt lat="49.568306" lon="10.266941">
<ele>358.052</ele>
<time>2019-05-30T11:27:28Z</time>
</trkpt>
<trkpt lat="49.568359" lon="10.26696">
<ele>358.077</ele>
<time>2019-05-30T11:27:29Z</time>
</trkpt>
<trkpt lat="49.568409" lon="10.266976">
<ele>358.077</ele>
<time>2019-05-30T11:27:30Z</time>
</trkpt>
<trkpt lat="49.56847" lon="10.266994">
<ele>358.077</ele>
<time>2019-05-30T11:27:31Z</time>
</trkpt>
<trkpt lat="49.568523" lon="10.26701">
<ele>358.077</ele>
<time>2019-05-30T11:27:32Z</time>
</trkpt>
<trkpt lat="49.568581" lon="10.267027">
<ele>358.077</ele>
<time>2019-05-30T11:27:33Z</time>
</trkpt>
<trkpt lat="49.568638" lon="10.267039">
<ele>358.077</ele>
<time>2019-05-30T11:27:34Z</time>
</trkpt>
<trkpt lat="49.568703" lon="10.267054">
<ele>357.821</ele>
<time>2019-05-30T11:27:35Z</time>
</trkpt>
<trkpt lat="49.568768" lon="10.267069">
<ele>357.645</ele>
<time>2019-05-30T11:27:36Z</time>
</trkpt>
<trkpt lat="49.568832" lon="10.267081">
<ele>357.46</ele>
<time>2019-05-30T11:27:37Z</time>
</trkpt>
<trkpt lat="49.568901" lon="10.267096">
<ele>357.331</ele>
<time>2019-05-30T11:27:38Z</time>
</trkpt>
<trkpt lat="49.568966" lon="10.267108">
<ele>356.998</ele>
<time>2019-05-30T11:27:39Z</time>
</trkpt>
<trkpt lat="49.569042" lon="10.267121">
<ele>356.735</ele>
<time>2019-05-30T11:27:40Z</time>
</trkpt>
<trkpt lat="49.569118" lon="10.267134">
<ele>356.574</ele>
<time>2019-05-30T11:27:41Z</time>
</trkpt>
<trkpt lat="49.569195" lon="10.267144">
<ele>356.138</ele>
<time>2019-05-30T11:27:42Z</time>
</trkpt>
<trkpt lat="49.569271" lon="10.267157">
<ele>355.758</ele>
<time>2019-05-30T11:27:43Z</time>
</trkpt>
<trkpt lat="49.569347" lon="10.267167">
<ele>355.536</ele>
<time>2019-05-30T11:27:44Z</time>
</trkpt>
<trkpt lat="49.56942" lon="10.267177">
<ele>355.415</ele>
<time>2019-05-30T11:27:45Z</time>
</trkpt>
<trkpt lat="49.569492" lon="10.267188">
<ele>355.084</ele>
<time>2019-05-30T11:27:46Z</time>
</trkpt>
<trkpt lat="49.569565" lon="10.267199">
<ele>354.817</ele>
<time>2019-05-30T11:27:47Z</time>
</trkpt>
<trkpt lat="49.569637" lon="10.267209">
<ele>354.634</ele>
<time>2019-05-30T11:27:48Z</time>
</trkpt>
<trkpt lat="49.569714" lon="10.267223">
<ele>354.254</ele>
<time>2019-05-30T11:27:49Z</time>
</trkpt>
<trkpt lat="49.56979" lon="10.267237">
<ele>353.968</ele>
<time>2019-05-30T11:27:50Z</time>
</trkpt>
<trkpt lat="49.569866" lon="10.26725">
<ele>353.776</ele>
<time>2019-05-30T11:27:51Z</time>
</trkpt>
<trkpt lat="49.569942" lon="10.267262">
<ele>353.357</ele>
<time>2019-05-30T11:27:52Z</time>
</trkpt>
<trkpt lat="49.570023" lon="10.267274">
<ele>353.033</ele>
<time>2019-05-30T11:27:53Z</time>
</trkpt>
<trkpt lat="49.570103" lon="10.267284">
<ele>352.767</ele>
<time>2019-05-30T11:27:54Z</time>
</trkpt>
<trkpt lat="49.570183" lon="10.267305">
<ele>352.625</ele>
<time>2019-05-30T11:27:55Z</time>
</trkpt>
<trkpt lat="49.570263" lon="10.267322">
<ele>352.528</ele>
<time>2019-05-30T11:27:56Z</time>
</trkpt>
<trkpt lat="49.570343" lon="10.267339">
<ele>352.239</ele>
<time>2019-05-30T11:27:57Z</time>
</trkpt>
<trkpt lat="49.570427" lon="10.267355">
<ele>352.015</ele>
<time>2019-05-30T11:27:58Z</time>
</trkpt>
<trkpt lat="49.570503" lon="10.26737">
<ele>351.848</ele>
<time>2019-05-30T11:27:59Z</time>
</trkpt>
<trkpt lat="49.570583" lon="10.267386">
<ele>351.735</ele>
<time>2019-05-30T11:28:00Z</time>
</trkpt>
<trkpt lat="49.57066" lon="10.267404">
<ele>351.648</ele>
<time>2019-05-30T11:28:01Z</time>
</trkpt>
<trkpt lat="49.57074" lon="10.267415">
<ele>351.585</ele>
<time>2019-05-30T11:28:02Z</time>
</trkpt>
<trkpt lat="49.570816" lon="10.267426">
<ele>351.545</ele>
<time>2019-05-30T11:28:03Z</time>
</trkpt>
<trkpt lat="49.570889" lon="10.26744">
<ele>351.525</ele>
<time>2019-05-30T11:28:04Z</time>
</trkpt>
<trkpt lat="49.570965" lon="10.267454">
<ele>351.525</ele>
<time>2019-05-30T11:28:05Z</time>
</trkpt>
<trkpt lat="49.571041" lon="10.267467">
<ele>351.319</ele>
<time>2019-05-30T11:28:06Z</time>
</trkpt>
<trkpt lat="49.571117" lon="10.267478">
<ele>351.124</ele>
<time>2019-05-30T11:28:07Z</time>
</trkpt>
<trkpt lat="49.571186" lon="10.267487">
<ele>350.964</ele>
<time>2019-05-30T11:28:08Z</time>
</trkpt>
<trkpt lat="49.571255" lon="10.267494">
<ele>350.833</ele>
<time>2019-05-30T11:28:09Z</time>
</trkpt>
<trkpt lat="49.571323" lon="10.267502">
<ele>350.732</ele>
<time>2019-05-30T11:28:10Z</time>
</trkpt>
<trkpt lat="49.571392" lon="10.267507">
<ele>350.66</ele>
<time>2019-05-30T11:28:11Z</time>
</trkpt>
<trkpt lat="49.571461" lon="10.267509">
<ele>350.612</ele>
<time>2019-05-30T11:28:12Z</time>
</trkpt>
<trkpt lat="49.571526" lon="10.26751">
<ele>350.589</ele>
<time>2019-05-30T11:28:13Z</time>
</trkpt>
<trkpt lat="49.571594" lon="10.267507">
<ele>350.589</ele>
<time>2019-05-30T11:28:14Z</time>
</trkpt>
<trkpt lat="49.571663" lon="10.267498">
<ele>350.589</ele>
<time>2019-05-30T11:28:15Z</time>
</trkpt>
<trkpt lat="49.571732" lon="10.267488">
<ele>350.589</ele>
<time>2019-05-30T11:28:16Z</time>
</trkpt>
<trkpt lat="49.5718" lon="10.267478">
<ele>350.589</ele>
<time>2019-05-30T11:28:17Z</time>
</trkpt>
<trkpt lat="49.571865" lon="10.267467">
<ele>350.589</ele>
<time>2019-05-30T11:28:18Z</time>
</trkpt>
<trkpt lat="49.57193" lon="10.26745">
<ele>350.589</ele>
<time>2019-05-30T11:28:19Z</time>
</trkpt>
<trkpt lat="49.571999" lon="10.267429">
<ele>350.326</ele>
<time>2019-05-30T11:28:20Z</time>
</trkpt>
<trkpt lat="49.572071" lon="10.267406">
<ele>350.121</ele>
<time>2019-05-30T11:28:21Z</time>
</trkpt>
<trkpt lat="49.57214" lon="10.267384">
<ele>349.966</ele>
<time>2019-05-30T11:28:22Z</time>
</trkpt>
<trkpt lat="49.572208" lon="10.267356">
<ele>349.851</ele>
<time>2019-05-30T11:28:23Z</time>
</trkpt>
<trkpt lat="49.572277" lon="10.267328">
<ele>349.789</ele>
<time>2019-05-30T11:28:24Z</time>
</trkpt>
<trkpt lat="49.57235" lon="10.2673">
<ele>349.478</ele>
<time>2019-05-30T11:28:25Z</time>
</trkpt>
<trkpt lat="49.572422" lon="10.267272">
<ele>349.251</ele>
<time>2019-05-30T11:28:26Z</time>
</trkpt>
<trkpt lat="49.572495" lon="10.267243">
<ele>348.83</ele>
<time>2019-05-30T11:28:27Z</time>
</trkpt>
<trkpt lat="49.572571" lon="10.267217">
<ele>348.511</ele>
<time>2019-05-30T11:28:28Z</time>
</trkpt>
<trkpt lat="49.572643" lon="10.267192">
<ele>348.258</ele>
<time>2019-05-30T11:28:29Z</time>
</trkpt>
<trkpt lat="49.572716" lon="10.267169">
<ele>348.095</ele>
<time>2019-05-30T11:28:30Z</time>
</trkpt>
<trkpt lat="49.572784" lon="10.267144">
<ele>347.713</ele>
<time>2019-05-30T11:28:31Z</time>
</trkpt>
<trkpt lat="49.572857" lon="10.267121">
<ele>347.428</ele>
<time>2019-05-30T11:28:32Z</time>
</trkpt>
<trkpt lat="49.572933" lon="10.2671">
<ele>347.23</ele>
<time>2019-05-30T11:28:33Z</time>
</trkpt>
<trkpt lat="49.573006" lon="10.267079">
<ele>347.109</ele>
<time>2019-05-30T11:28:34Z</time>
</trkpt>
<trkpt lat="49.573082" lon="10.267058">
<ele>346.752</ele>
<time>2019-05-30T11:28:35Z</time>
</trkpt>
<trkpt lat="49.573158" lon="10.267039">
<ele>346.502</ele>
<time>2019-05-30T11:28:36Z</time>
</trkpt>
<trkpt lat="49.573235" lon="10.267025">
<ele>346.276</ele>
<time>2019-05-30T11:28:37Z</time>
</trkpt>
<trkpt lat="49.573311" lon="10.267012">
<ele>345.869</ele>
<time>2019-05-30T11:28:38Z</time>
</trkpt>
<trkpt lat="49.573387" lon="10.266998">
<ele>345.562</ele>
<time>2019-05-30T11:28:39Z</time>
</trkpt>
<trkpt lat="49.573463" lon="10.266989">
<ele>345.361</ele>
<time>2019-05-30T11:28:40Z</time>
</trkpt>
<trkpt lat="49.573536" lon="10.266976">
<ele>344.963</ele>
<time>2019-05-30T11:28:41Z</time>
</trkpt>
<trkpt lat="49.573608" lon="10.266967">
<ele>344.659</ele>
<time>2019-05-30T11:28:42Z</time>
</trkpt>
<trkpt lat="49.573685" lon="10.266955">
<ele>344.399</ele>
<time>2019-05-30T11:28:43Z</time>
</trkpt>
<trkpt lat="49.573757" lon="10.266943">
<ele>344.029</ele>
<time>2019-05-30T11:28:44Z</time>
</trkpt>
<trkpt lat="49.573837" lon="10.266933">
<ele>343.761</ele>
<time>2019-05-30T11:28:45Z</time>
</trkpt>
<trkpt lat="49.573917" lon="10.266922">
<ele>343.57</ele>
<time>2019-05-30T11:28:46Z</time>
</trkpt>
<trkpt lat="49.573994" lon="10.266912">
<ele>343.154</ele>
<time>2019-05-30T11:28:47Z</time>
</trkpt>
<trkpt lat="49.574074" lon="10.266903">
<ele>342.831</ele>
<time>2019-05-30T11:28:48Z</time>
</trkpt>
<trkpt lat="49.57415" lon="10.266893">
<ele>342.596</ele>
<time>2019-05-30T11:28:49Z</time>
</trkpt>
<trkpt lat="49.574223" lon="10.266884">
<ele>342.424</ele>
<time>2019-05-30T11:28:50Z</time>
</trkpt>
<trkpt lat="49.574299" lon="10.266873">
<ele>342.325</ele>
<time>2019-05-30T11:28:51Z</time>
</trkpt>
<trkpt lat="49.574375" lon="10.266864">
<ele>342.018</ele>
<time>2019-05-30T11:28:52Z</time>
</trkpt>
<trkpt lat="49.574455" lon="10.266847">
<ele>341.778</ele>
<time>2019-05-30T11:28:53Z</time>
</trkpt>
<trkpt lat="49.574532" lon="10.266827">
<ele>341.598</ele>
<time>2019-05-30T11:28:54Z</time>
</trkpt>
<trkpt lat="49.574604" lon="10.266803">
<ele>341.471</ele>
<time>2019-05-30T11:28:55Z</time>
</trkpt>
<trkpt lat="49.574677" lon="10.266777">
<ele>341.393</ele>
<time>2019-05-30T11:28:56Z</time>
</trkpt>
<trkpt lat="49.574749" lon="10.266742">
<ele>341.312</ele>
<time>2019-05-30T11:28:57Z</time>
</trkpt>
<trkpt lat="49.574818" lon="10.2667">
<ele>341.261</ele>
<time>2019-05-30T11:28:58Z</time>
</trkpt>
<trkpt lat="49.574883" lon="10.266655">
<ele>341.237</ele>
<time>2019-05-30T11:28:59Z</time>
</trkpt>
<trkpt lat="49.57494" lon="10.266602">
<ele>341.003</ele>
<time>2019-05-30T11:29:00Z</time>
</trkpt>
<trkpt lat="49.574997" lon="10.266543">
<ele>340.819</ele>
<time>2019-05-30T11:29:01Z</time>
</trkpt>
<trkpt lat="49.575054" lon="10.266484">
<ele>340.679</ele>
<time>2019-05-30T11:29:02Z</time>
</trkpt>
<trkpt lat="49.575104" lon="10.266423">
<ele>340.573</ele>
<time>2019-05-30T11:29:03Z</time>
</trkpt>
<trkpt lat="49.575157" lon="10.266362">
<ele>340.499</ele>
<time>2019-05-30T11:29:04Z</time>
</trkpt>
<trkpt lat="49.575199" lon="10.266296">
<ele>340.451</ele>
<time>2019-05-30T11:29:05Z</time>
</trkpt>
<trkpt lat="49.575245" lon="10.266227">
<ele>340.411</ele>
<time>2019-05-30T11:29:06Z</time>
</trkpt>
<trkpt lat="49.575287" lon="10.266157">
<ele>340.387</ele>
<time>2019-05-30T11:29:07Z</time>
</trkpt>
<trkpt lat="49.575321" lon="10.266087">
<ele>340.386</ele>
<time>2019-05-30T11:29:08Z</time>
</trkpt>
<trkpt lat="49.575356" lon="10.266024">
<ele>340.102</ele>
<time>2019-05-30T11:29:09Z</time>
</trkpt>
<trkpt lat="49.57539" lon="10.265963">
<ele>339.875</ele>
<time>2019-05-30T11:29:10Z</time>
</trkpt>
<trkpt lat="49.575432" lon="10.26591">
<ele>339.704</ele>
<time>2019-05-30T11:29:11Z</time>
</trkpt>
<trkpt lat="49.575474" lon="10.265864">
<ele>339.574</ele>
<time>2019-05-30T11:29:12Z</time>
</trkpt>
<trkpt lat="49.575512" lon="10.265823">
<ele>339.498</ele>
<time>2019-05-30T11:29:13Z</time>
</trkpt>
<trkpt lat="49.575542" lon="10.265759">
<ele>339.21</ele>
<time>2019-05-30T11:29:14Z</time>
</trkpt>
<trkpt lat="49.575562" lon="10.265686">
<ele>338.99</ele>
<time>2019-05-30T11:29:15Z</time>
</trkpt>
<trkpt lat="49.575581" lon="10.265611">
<ele>338.831</ele>
<time>2019-05-30T11:29:16Z</time>
</trkpt>
<trkpt lat="49.575584" lon="10.265533">
<ele>338.691</ele>
<time>2019-05-30T11:29:17Z</time>
</trkpt>
<trkpt lat="49.575577" lon="10.265464">
<ele>338.585</ele>
<time>2019-05-30T11:29:18Z</time>
</trkpt>
<trkpt lat="49.575562" lon="10.265393">
<ele>338.506</ele>
<time>2019-05-30T11:29:19Z</time>
</trkpt>
<trkpt lat="49.575539" lon="10.265326">
<ele>338.458</ele>
<time>2019-05-30T11:29:20Z</time>
</trkpt>
<trkpt lat="49.575512" lon="10.265261">
<ele>338.186</ele>
<time>2019-05-30T11:29:21Z</time>
</trkpt>
<trkpt lat="49.575485" lon="10.265198">
<ele>338.072</ele>
<time>2019-05-30T11:29:22Z</time>
</trkpt>
<trkpt lat="49.575459" lon="10.265141">
<ele>338.007</ele>
<time>2019-05-30T11:29:23Z</time>
</trkpt>
<trkpt lat="49.575436" lon="10.265085">
<ele>337.924</ele>
<time>2019-05-30T11:29:24Z</time>
</trkpt>
<trkpt lat="49.575413" lon="10.26503">
<ele>337.865</ele>
<time>2019-05-30T11:29:25Z</time>
</trkpt>
<trkpt lat="49.575386" lon="10.26497">
<ele>337.812</ele>
<time>2019-05-30T11:29:26Z</time>
</trkpt>
<trkpt lat="49.575371" lon="10.264916">
<ele>337.78</ele>
<time>2019-05-30T11:29:27Z</time>
</trkpt>
<trkpt lat="49.575356" lon="10.264854">
<ele>337.764</ele>
<time>2019-05-30T11:29:28Z</time>
</trkpt>
<trkpt lat="49.575321" lon="10.264795">
<ele>337.756</ele>
<time>2019-05-30T11:29:29Z</time>
</trkpt>
<trkpt lat="49.575291" lon="10.264733">
<ele>337.76</ele>
<time>2019-05-30T11:29:30Z</time>
</trkpt>
<trkpt lat="49.575268" lon="10.264667">
<ele>337.757</ele>
<time>2019-05-30T11:29:31Z</time>
</trkpt>
<trkpt lat="49.575245" lon="10.264601">
<ele>337.752</ele>
<time>2019-05-30T11:29:32Z</time>
</trkpt>
<trkpt lat="49.575222" lon="10.264532">
<ele>337.752</ele>
<time>2019-05-30T11:29:33Z</time>
</trkpt>
<trkpt lat="49.575195" lon="10.264473">
<ele>337.752</ele>
<time>2019-05-30T11:29:34Z</time>
</trkpt>
<trkpt lat="49.575172" lon="10.26441">
<ele>338.006</ele>
<time>2019-05-30T11:29:35Z</time>
</trkpt>
<trkpt lat="49.575157" lon="10.264357">
<ele>338.177</ele>
<time>2019-05-30T11:29:36Z</time>
</trkpt>
<trkpt lat="49.575142" lon="10.264298">
<ele>338.349</ele>
<time>2019-05-30T11:29:37Z</time>
</trkpt>
<trkpt lat="49.575127" lon="10.264235">
<ele>338.491</ele>
<time>2019-05-30T11:29:38Z</time>
</trkpt>
<trkpt lat="49.575108" lon="10.264172">
<ele>338.606</ele>
<time>2019-05-30T11:29:39Z</time>
</trkpt>
<trkpt lat="49.575085" lon="10.264113">
<ele>338.689</ele>
<time>2019-05-30T11:29:40Z</time>
</trkpt>
<trkpt lat="49.575062" lon="10.264051">
<ele>338.744</ele>
<time>2019-05-30T11:29:41Z</time>
</trkpt>
<trkpt lat="49.575054" lon="10.26399">
<ele>338.772</ele>
<time>2019-05-30T11:29:42Z</time>
</trkpt>
<trkpt lat="49.575043" lon="10.26393">
<ele>338.988</ele>
<time>2019-05-30T11:29:43Z</time>
</trkpt>
<trkpt lat="49.575027" lon="10.263865">
<ele>339.163</ele>
<time>2019-05-30T11:29:44Z</time>
</trkpt>
<trkpt lat="49.575012" lon="10.263797">
<ele>339.294</ele>
<time>2019-05-30T11:29:45Z</time>
</trkpt>
<trkpt lat="49.574997" lon="10.263733">
<ele>339.382</ele>
<time>2019-05-30T11:29:46Z</time>
</trkpt>
<trkpt lat="49.574978" lon="10.263672">
<ele>339.482</ele>
<time>2019-05-30T11:29:47Z</time>
</trkpt>
<trkpt lat="49.574963" lon="10.263608">
<ele>339.55</ele>
<time>2019-05-30T11:29:48Z</time>
</trkpt>
<trkpt lat="49.574936" lon="10.263542">
<ele>339.83</ele>
<time>2019-05-30T11:29:49Z</time>
</trkpt>
<trkpt lat="49.574921" lon="10.263474">
<ele>340.049</ele>
<time>2019-05-30T11:29:50Z</time>
</trkpt>
<trkpt lat="49.574909" lon="10.263411">
<ele>340.267</ele>
<time>2019-05-30T11:29:51Z</time>
</trkpt>
<trkpt lat="49.574894" lon="10.263349">
<ele>340.378</ele>
<time>2019-05-30T11:29:52Z</time>
</trkpt>
<trkpt lat="49.574879" lon="10.263293">
<ele>340.46</ele>
<time>2019-05-30T11:29:53Z</time>
</trkpt>
<trkpt lat="49.574863" lon="10.263232">
<ele>340.512</ele>
<time>2019-05-30T11:29:54Z</time>
</trkpt>
<trkpt lat="49.574852" lon="10.26317">
<ele>340.535</ele>
<time>2019-05-30T11:29:55Z</time>
</trkpt>
<trkpt lat="49.574833" lon="10.263105">
<ele>340.557</ele>
<time>2019-05-30T11:29:56Z</time>
</trkpt>
<trkpt lat="49.574814" lon="10.263038">
<ele>340.557</ele>
<time>2019-05-30T11:29:57Z</time>
</trkpt>
<trkpt lat="49.574795" lon="10.262966">
<ele>340.557</ele>
<time>2019-05-30T11:29:58Z</time>
</trkpt>
<trkpt lat="49.57478" lon="10.262897">
<ele>340.557</ele>
<time>2019-05-30T11:29:59Z</time>
</trkpt>
<trkpt lat="49.574768" lon="10.262832">
<ele>340.557</ele>
<time>2019-05-30T11:30:00Z</time>
</trkpt>
<trkpt lat="49.574753" lon="10.262763">
<ele>340.557</ele>
<time>2019-05-30T11:30:01Z</time>
</trkpt>
<trkpt lat="49.574734" lon="10.262696">
<ele>340.557</ele>
<time>2019-05-30T11:30:02Z</time>
</trkpt>
<trkpt lat="49.574711" lon="10.262633">
<ele>340.557</ele>
<time>2019-05-30T11:30:03Z</time>
</trkpt>
<trkpt lat="49.574692" lon="10.262572">
<ele>340.557</ele>
<time>2019-05-30T11:30:04Z</time>
</trkpt>
<trkpt lat="49.574669" lon="10.262513">
<ele>340.78</ele>
<time>2019-05-30T11:30:05Z</time>
</trkpt>
<trkpt lat="49.574642" lon="10.262457">
<ele>340.942</ele>
<time>2019-05-30T11:30:06Z</time>
</trkpt>
<trkpt lat="49.574619" lon="10.262401">
<ele>341.111</ele>
<time>2019-05-30T11:30:07Z</time>
</trkpt>
<trkpt lat="49.574589" lon="10.262343">
<ele>341.244</ele>
<time>2019-05-30T11:30:08Z</time>
</trkpt>
<trkpt lat="49.57457" lon="10.262279">
<ele>341.345</ele>
<time>2019-05-30T11:30:09Z</time>
</trkpt>
<trkpt lat="49.574554" lon="10.262215">
<ele>341.419</ele>
<time>2019-05-30T11:30:10Z</time>
</trkpt>
<trkpt lat="49.574551" lon="10.262156">
<ele>341.468</ele>
<time>2019-05-30T11:30:11Z</time>
</trkpt>
<trkpt lat="49.57457" lon="10.262098">
<ele>341.491</ele>
<time>2019-05-30T11:30:12Z</time>
</trkpt>
<trkpt lat="49.574593" lon="10.262057">
<ele>341.491</ele>
<time>2019-05-30T11:30:13Z</time>
</trkpt>
<trkpt lat="49.574631" lon="10.262024">
<ele>341.491</ele>
<time>2019-05-30T11:30:14Z</time>
</trkpt>
<trkpt lat="49.574669" lon="10.261991">
<ele>341.491</ele>
<time>2019-05-30T11:30:15Z</time>
</trkpt>
<trkpt lat="49.574715" lon="10.261955">
<ele>341.491</ele>
<time>2019-05-30T11:30:16Z</time>
</trkpt>
<trkpt lat="49.574764" lon="10.261921">
<ele>341.491</ele>
<time>2019-05-30T11:30:17Z</time>
</trkpt>
<trkpt lat="49.57481" lon="10.261891">
<ele>341.491</ele>
<time>2019-05-30T11:30:18Z</time>
</trkpt>
<trkpt lat="49.57486" lon="10.261863">
<ele>341.491</ele>
<time>2019-05-30T11:30:19Z</time>
</trkpt>
<trkpt lat="49.574913" lon="10.261828">
<ele>341.491</ele>
<time>2019-05-30T11:30:20Z</time>
</trkpt>
<trkpt lat="49.574966" lon="10.261797">
<ele>341.22</ele>
<time>2019-05-30T11:30:21Z</time>
</trkpt>
<trkpt lat="49.575016" lon="10.261768">
<ele>341.023</ele>
<time>2019-05-30T11:30:22Z</time>
</trkpt>
<trkpt lat="49.575066" lon="10.261739">
<ele>340.878</ele>
<time>2019-05-30T11:30:23Z</time>
</trkpt>
<trkpt lat="49.575119" lon="10.261708">
<ele>340.768</ele>
<time>2019-05-30T11:30:24Z</time>
</trkpt>
<trkpt lat="49.575169" lon="10.261675">
<ele>340.689</ele>
<time>2019-05-30T11:30:25Z</time>
</trkpt>
<trkpt lat="49.575222" lon="10.261639">
<ele>340.631</ele>
<time>2019-05-30T11:30:26Z</time>
</trkpt>
<trkpt lat="49.575272" lon="10.261599">
<ele>340.58</ele>
<time>2019-05-30T11:30:27Z</time>
</trkpt>
<trkpt lat="49.575321" lon="10.26156">
<ele>340.557</ele>
<time>2019-05-30T11:30:28Z</time>
</trkpt>
<trkpt lat="49.575371" lon="10.261513">
<ele>340.557</ele>
<time>2019-05-30T11:30:29Z</time>
</trkpt>
<trkpt lat="49.575417" lon="10.261463">
<ele>340.557</ele>
<time>2019-05-30T11:30:30Z</time>
</trkpt>
<trkpt lat="49.575459" lon="10.261412">
<ele>340.557</ele>
<time>2019-05-30T11:30:31Z</time>
</trkpt>
<trkpt lat="49.5755" lon="10.26135">
<ele>340.557</ele>
<time>2019-05-30T11:30:32Z</time>
</trkpt>
<trkpt lat="49.575546" lon="10.261287">
<ele>340.557</ele>
<time>2019-05-30T11:30:33Z</time>
</trkpt>
<trkpt lat="49.575584" lon="10.261226">
<ele>340.557</ele>
<time>2019-05-30T11:30:34Z</time>
</trkpt>
<trkpt lat="49.575619" lon="10.261163">
<ele>340.557</ele>
<time>2019-05-30T11:30:35Z</time>
</trkpt>
<trkpt lat="49.575665" lon="10.2611">
<ele>340.557</ele>
<time>2019-05-30T11:30:36Z</time>
</trkpt>
<trkpt lat="49.575706" lon="10.261039">
<ele>340.557</ele>
<time>2019-05-30T11:30:37Z</time>
</trkpt>
<trkpt lat="49.575748" lon="10.260977">
<ele>340.557</ele>
<time>2019-05-30T11:30:38Z</time>
</trkpt>
<trkpt lat="49.57579" lon="10.260917">
<ele>340.557</ele>
<time>2019-05-30T11:30:39Z</time>
</trkpt>
<trkpt lat="49.575836" lon="10.260857">
<ele>340.557</ele>
<time>2019-05-30T11:30:40Z</time>
</trkpt>
<trkpt lat="49.575882" lon="10.260795">
<ele>340.557</ele>
<time>2019-05-30T11:30:41Z</time>
</trkpt>
<trkpt lat="49.575924" lon="10.260739">
<ele>340.286</ele>
<time>2019-05-30T11:30:42Z</time>
</trkpt>
<trkpt lat="49.575974" lon="10.260685">
<ele>340.075</ele>
<time>2019-05-30T11:30:43Z</time>
</trkpt>
<trkpt lat="49.576027" lon="10.260636">
<ele>339.914</ele>
<time>2019-05-30T11:30:44Z</time>
</trkpt>
<trkpt lat="49.57608" lon="10.260587">
<ele>339.79</ele>
<time>2019-05-30T11:30:45Z</time>
</trkpt>
<trkpt lat="49.576134" lon="10.260536">
<ele>339.704</ele>
<time>2019-05-30T11:30:46Z</time>
</trkpt>
<trkpt lat="49.576187" lon="10.26049">
<ele>339.618</ele>
<time>2019-05-30T11:30:47Z</time>
</trkpt>
<trkpt lat="49.576241" lon="10.260444">
<ele>339.563</ele>
<time>2019-05-30T11:30:48Z</time>
</trkpt>
<trkpt lat="49.576298" lon="10.2604">
<ele>339.537</ele>
<time>2019-05-30T11:30:49Z</time>
</trkpt>
<trkpt lat="49.576351" lon="10.26036">
<ele>339.537</ele>
<time>2019-05-30T11:30:50Z</time>
</trkpt>
<trkpt lat="49.576412" lon="10.260319">
<ele>339.537</ele>
<time>2019-05-30T11:30:51Z</time>
</trkpt>
<trkpt lat="49.576469" lon="10.260279">
<ele>339.311</ele>
<time>2019-05-30T11:30:52Z</time>
</trkpt>
<trkpt lat="49.57653" lon="10.260235">
<ele>339.133</ele>
<time>2019-05-30T11:30:53Z</time>
</trkpt>
<trkpt lat="49.576595" lon="10.260193">
<ele>339.023</ele>
<time>2019-05-30T11:30:54Z</time>
</trkpt>
<trkpt lat="49.576664" lon="10.260145">
<ele>338.653</ele>
<time>2019-05-30T11:30:55Z</time>
</trkpt>
<trkpt lat="49.576729" lon="10.260095">
<ele>338.388</ele>
<time>2019-05-30T11:30:56Z</time>
</trkpt>
<trkpt lat="49.576797" lon="10.260042">
<ele>338.147</ele>
<time>2019-05-30T11:30:57Z</time>
</trkpt>
<trkpt lat="49.57687" lon="10.259988">
<ele>337.715</ele>
<time>2019-05-30T11:30:58Z</time>
</trkpt>
<trkpt lat="49.576942" lon="10.259935">
<ele>337.43</ele>
<time>2019-05-30T11:30:59Z</time>
</trkpt>
<trkpt lat="49.577019" lon="10.25988">
<ele>336.936</ele>
<time>2019-05-30T11:31:00Z</time>
</trkpt>
<trkpt lat="49.577099" lon="10.259824">
<ele>336.611</ele>
<time>2019-05-30T11:31:01Z</time>
</trkpt>
<trkpt lat="49.577179" lon="10.259768">
<ele>336.129</ele>
<time>2019-05-30T11:31:02Z</time>
</trkpt>
<trkpt lat="49.577259" lon="10.259713">
<ele>335.356</ele>
<time>2019-05-30T11:31:03Z</time>
</trkpt>
<trkpt lat="49.577343" lon="10.259659">
<ele>334.894</ele>
<time>2019-05-30T11:31:04Z</time>
</trkpt>
<trkpt lat="49.577427" lon="10.2596">
<ele>334.583</ele>
<time>2019-05-30T11:31:05Z</time>
</trkpt>
<trkpt lat="49.577507" lon="10.259542">
<ele>334.363</ele>
<time>2019-05-30T11:31:06Z</time>
</trkpt>
<trkpt lat="49.577587" lon="10.259482">
<ele>333.904</ele>
<time>2019-05-30T11:31:07Z</time>
</trkpt>
<trkpt lat="49.577671" lon="10.25943">
<ele>333.572</ele>
<time>2019-05-30T11:31:08Z</time>
</trkpt>
<trkpt lat="49.577747" lon="10.259381">
<ele>333.327</ele>
<time>2019-05-30T11:31:09Z</time>
</trkpt>
<trkpt lat="49.577827" lon="10.259336">
<ele>333.166</ele>
<time>2019-05-30T11:31:10Z</time>
</trkpt>
<trkpt lat="49.5779" lon="10.259294">
<ele>333.062</ele>
<time>2019-05-30T11:31:11Z</time>
</trkpt>
<trkpt lat="49.577976" lon="10.259254">
<ele>332.986</ele>
<time>2019-05-30T11:31:12Z</time>
</trkpt>
<trkpt lat="49.578053" lon="10.259216">
<ele>332.936</ele>
<time>2019-05-30T11:31:13Z</time>
</trkpt>
<trkpt lat="49.578125" lon="10.259183">
<ele>332.911</ele>
<time>2019-05-30T11:31:14Z</time>
</trkpt>
<trkpt lat="49.578197" lon="10.25915">
<ele>332.911</ele>
<time>2019-05-30T11:31:15Z</time>
</trkpt>
<trkpt lat="49.57827" lon="10.25912">
<ele>332.911</ele>
<time>2019-05-30T11:31:16Z</time>
</trkpt>
<trkpt lat="49.578339" lon="10.25909">
<ele>332.911</ele>
<time>2019-05-30T11:31:17Z</time>
</trkpt>
<trkpt lat="49.5784" lon="10.259062">
<ele>332.911</ele>
<time>2019-05-30T11:31:18Z</time>
</trkpt>
<trkpt lat="49.578465" lon="10.259034">
<ele>332.911</ele>
<time>2019-05-30T11:31:19Z</time>
</trkpt>
<trkpt lat="49.578522" lon="10.259008">
<ele>333.139</ele>
<time>2019-05-30T11:31:20Z</time>
</trkpt>
<trkpt lat="49.578583" lon="10.258984">
<ele>333.32</ele>
<time>2019-05-30T11:31:21Z</time>
</trkpt>
<trkpt lat="49.578636" lon="10.258961">
<ele>333.461</ele>
<time>2019-05-30T11:31:22Z</time>
</trkpt>
<trkpt lat="49.578693" lon="10.258938">
<ele>333.569</ele>
<time>2019-05-30T11:31:23Z</time>
</trkpt>
<trkpt lat="49.578751" lon="10.258917">
<ele>333.646</ele>
<time>2019-05-30T11:31:24Z</time>
</trkpt>
<trkpt lat="49.578808" lon="10.258893">
<ele>333.685</ele>
<time>2019-05-30T11:31:25Z</time>
</trkpt>
<trkpt lat="49.578865" lon="10.258868">
<ele>333.939</ele>
<time>2019-05-30T11:31:26Z</time>
</trkpt>
<trkpt lat="49.578922" lon="10.258842">
<ele>334.16</ele>
<time>2019-05-30T11:31:27Z</time>
</trkpt>
<trkpt lat="49.578979" lon="10.258817">
<ele>334.324</ele>
<time>2019-05-30T11:31:28Z</time>
</trkpt>
<trkpt lat="49.579037" lon="10.258791">
<ele>334.455</ele>
<time>2019-05-30T11:31:29Z</time>
</trkpt>
<trkpt lat="49.579098" lon="10.258766">
<ele>334.556</ele>
<time>2019-05-30T11:31:30Z</time>
</trkpt>
<trkpt lat="49.579159" lon="10.25874">
<ele>334.627</ele>
<time>2019-05-30T11:31:31Z</time>
</trkpt>
<trkpt lat="49.579216" lon="10.258712">
<ele>334.672</ele>
<time>2019-05-30T11:31:32Z</time>
</trkpt>
<trkpt lat="49.579273" lon="10.258684">
<ele>334.695</ele>
<time>2019-05-30T11:31:33Z</time>
</trkpt>
<trkpt lat="49.57933" lon="10.258661">
<ele>334.695</ele>
<time>2019-05-30T11:31:34Z</time>
</trkpt>
<trkpt lat="49.579395" lon="10.258636">
<ele>334.695</ele>
<time>2019-05-30T11:31:35Z</time>
</trkpt>
<trkpt lat="49.579453" lon="10.258611">
<ele>334.695</ele>
<time>2019-05-30T11:31:36Z</time>
</trkpt>
<trkpt lat="49.579514" lon="10.258583">
<ele>334.695</ele>
<time>2019-05-30T11:31:37Z</time>
</trkpt>
<trkpt lat="49.579575" lon="10.258558">
<ele>334.695</ele>
<time>2019-05-30T11:31:38Z</time>
</trkpt>
<trkpt lat="49.579639" lon="10.258532">
<ele>334.695</ele>
<time>2019-05-30T11:31:39Z</time>
</trkpt>
<trkpt lat="49.5797" lon="10.258504">
<ele>334.695</ele>
<time>2019-05-30T11:31:40Z</time>
</trkpt>
<trkpt lat="49.579765" lon="10.258475">
<ele>334.695</ele>
<time>2019-05-30T11:31:41Z</time>
</trkpt>
<trkpt lat="49.57983" lon="10.258443">
<ele>334.695</ele>
<time>2019-05-30T11:31:42Z</time>
</trkpt>
<trkpt lat="49.579895" lon="10.258411">
<ele>334.451</ele>
<time>2019-05-30T11:31:43Z</time>
</trkpt>
<trkpt lat="49.579967" lon="10.25838">
<ele>334.258</ele>
<time>2019-05-30T11:31:44Z</time>
</trkpt>
<trkpt lat="49.580036" lon="10.258345">
<ele>334.111</ele>
<time>2019-05-30T11:31:45Z</time>
</trkpt>
<trkpt lat="49.580109" lon="10.258309">
<ele>334.013</ele>
<time>2019-05-30T11:31:46Z</time>
</trkpt>
<trkpt lat="49.580181" lon="10.258271">
<ele>333.65</ele>
<time>2019-05-30T11:31:47Z</time>
</trkpt>
<trkpt lat="49.580254" lon="10.25823">
<ele>333.362</ele>
<time>2019-05-30T11:31:48Z</time>
</trkpt>
<trkpt lat="49.580326" lon="10.258183">
<ele>333.179</ele>
<time>2019-05-30T11:31:49Z</time>
</trkpt>
<trkpt lat="49.580402" lon="10.258133">
<ele>332.794</ele>
<time>2019-05-30T11:31:50Z</time>
</trkpt>
<trkpt lat="49.580475" lon="10.258079">
<ele>332.507</ele>
<time>2019-05-30T11:31:51Z</time>
</trkpt>
<trkpt lat="49.580551" lon="10.258024">
<ele>332.322</ele>
<time>2019-05-30T11:31:52Z</time>
</trkpt>
<trkpt lat="49.580627" lon="10.257968">
<ele>331.846</ele>
<time>2019-05-30T11:31:53Z</time>
</trkpt>
<trkpt lat="49.5807" lon="10.257909">
<ele>331.481</ele>
<time>2019-05-30T11:31:54Z</time>
</trkpt>
<trkpt lat="49.580776" lon="10.257844">
<ele>331.26</ele>
<time>2019-05-30T11:31:55Z</time>
</trkpt>
<trkpt lat="49.580856" lon="10.257779">
<ele>330.838</ele>
<time>2019-05-30T11:31:56Z</time>
</trkpt>
<trkpt lat="49.580933" lon="10.257716">
<ele>330.502</ele>
<time>2019-05-30T11:31:57Z</time>
</trkpt>
<trkpt lat="49.581013" lon="10.257653">
<ele>329.986</ele>
<time>2019-05-30T11:31:58Z</time>
</trkpt>
<trkpt lat="49.581093" lon="10.25759">
<ele>329.58</ele>
<time>2019-05-30T11:31:59Z</time>
</trkpt>
<trkpt lat="49.581169" lon="10.257526">
<ele>329.276</ele>
<time>2019-05-30T11:32:00Z</time>
</trkpt>
<trkpt lat="49.581249" lon="10.257463">
<ele>329.069</ele>
<time>2019-05-30T11:32:01Z</time>
</trkpt>
<trkpt lat="49.581326" lon="10.2574">
<ele>328.92</ele>
<time>2019-05-30T11:32:02Z</time>
</trkpt>
<trkpt lat="49.581406" lon="10.257333">
<ele>328.835</ele>
<time>2019-05-30T11:32:03Z</time>
</trkpt>
<trkpt lat="49.581482" lon="10.25727">
<ele>328.521</ele>
<time>2019-05-30T11:32:04Z</time>
</trkpt>
<trkpt lat="49.581562" lon="10.257209">
<ele>328.333</ele>
<time>2019-05-30T11:32:05Z</time>
</trkpt>
<trkpt lat="49.581638" lon="10.257145">
<ele>328.206</ele>
<time>2019-05-30T11:32:06Z</time>
</trkpt>
<trkpt lat="49.581715" lon="10.257082">
<ele>328.07</ele>
<time>2019-05-30T11:32:07Z</time>
</trkpt>
<trkpt lat="49.581791" lon="10.257018">
<ele>327.974</ele>
<time>2019-05-30T11:32:08Z</time>
</trkpt>
<trkpt lat="49.581871" lon="10.256955">
<ele>327.647</ele>
<time>2019-05-30T11:32:09Z</time>
</trkpt>
<trkpt lat="49.581944" lon="10.256891">
<ele>327.389</ele>
<time>2019-05-30T11:32:10Z</time>
</trkpt>
<trkpt lat="49.58202" lon="10.256826">
<ele>327.193</ele>
<time>2019-05-30T11:32:11Z</time>
</trkpt>
<trkpt lat="49.582096" lon="10.256765">
<ele>326.995</ele>
<time>2019-05-30T11:32:12Z</time>
</trkpt>
<trkpt lat="49.582169" lon="10.256701">
<ele>326.904</ele>
<time>2019-05-30T11:32:13Z</time>
</trkpt>
<trkpt lat="49.582245" lon="10.256639">
<ele>326.849</ele>
<time>2019-05-30T11:32:14Z</time>
</trkpt>
<trkpt lat="49.582325" lon="10.256575">
<ele>326.823</ele>
<time>2019-05-30T11:32:15Z</time>
</trkpt>
<trkpt lat="49.582397" lon="10.256514">
<ele>326.799</ele>
<time>2019-05-30T11:32:16Z</time>
</trkpt>
<trkpt lat="49.582478" lon="10.256454">
<ele>326.572</ele>
<time>2019-05-30T11:32:17Z</time>
</trkpt>
<trkpt lat="49.582554" lon="10.256393">
<ele>326.381</ele>
<time>2019-05-30T11:32:18Z</time>
</trkpt>
<trkpt lat="49.58263" lon="10.256331">
<ele>326.225</ele>
<time>2019-05-30T11:32:19Z</time>
</trkpt>
<trkpt lat="49.582706" lon="10.256269">
<ele>326.099</ele>
<time>2019-05-30T11:32:20Z</time>
</trkpt>
<trkpt lat="49.582787" lon="10.256206">
<ele>326.002</ele>
<time>2019-05-30T11:32:21Z</time>
</trkpt>
<trkpt lat="49.582855" lon="10.256141">
<ele>325.932</ele>
<time>2019-05-30T11:32:22Z</time>
</trkpt>
<trkpt lat="49.582928" lon="10.256078">
<ele>325.892</ele>
<time>2019-05-30T11:32:23Z</time>
</trkpt>
<trkpt lat="49.583004" lon="10.256019">
<ele>325.661</ele>
<time>2019-05-30T11:32:24Z</time>
</trkpt>
<trkpt lat="49.58308" lon="10.255959">
<ele>325.488</ele>
<time>2019-05-30T11:32:25Z</time>
</trkpt>
<trkpt lat="49.583149" lon="10.255898">
<ele>325.373</ele>
<time>2019-05-30T11:32:26Z</time>
</trkpt>
<trkpt lat="49.583221" lon="10.255841">
<ele>325.249</ele>
<time>2019-05-30T11:32:27Z</time>
</trkpt>
<trkpt lat="49.58329" lon="10.255785">
<ele>325.154</ele>
<time>2019-05-30T11:32:28Z</time>
</trkpt>
<trkpt lat="49.583355" lon="10.25573">
<ele>325.084</ele>
<time>2019-05-30T11:32:29Z</time>
</trkpt>
<trkpt lat="49.58342" lon="10.255676">
<ele>325.039</ele>
<time>2019-05-30T11:32:30Z</time>
</trkpt>
<trkpt lat="49.583488" lon="10.255623">
<ele>325.017</ele>
<time>2019-05-30T11:32:31Z</time>
</trkpt>
<trkpt lat="49.583553" lon="10.255571">
<ele>325.017</ele>
<time>2019-05-30T11:32:32Z</time>
</trkpt>
<trkpt lat="49.583614" lon="10.255523">
<ele>325.017</ele>
<time>2019-05-30T11:32:33Z</time>
</trkpt>
<trkpt lat="49.583672" lon="10.255475">
<ele>325.017</ele>
<time>2019-05-30T11:32:34Z</time>
</trkpt>
<trkpt lat="49.583733" lon="10.25543">
<ele>325.017</ele>
<time>2019-05-30T11:32:35Z</time>
</trkpt>
<trkpt lat="49.58379" lon="10.255383">
<ele>325.2</ele>
<time>2019-05-30T11:32:36Z</time>
</trkpt>
<trkpt lat="49.583843" lon="10.255337">
<ele>325.374</ele>
<time>2019-05-30T11:32:37Z</time>
</trkpt>
<trkpt lat="49.583897" lon="10.255292">
<ele>325.503</ele>
<time>2019-05-30T11:32:38Z</time>
</trkpt>
<trkpt lat="49.583954" lon="10.255245">
<ele>325.846</ele>
<time>2019-05-30T11:32:39Z</time>
</trkpt>
<trkpt lat="49.584011" lon="10.255198">
<ele>326.134</ele>
<time>2019-05-30T11:32:40Z</time>
</trkpt>
<trkpt lat="49.584064" lon="10.255154">
<ele>326.364</ele>
<time>2019-05-30T11:32:41Z</time>
</trkpt>
<trkpt lat="49.584122" lon="10.255106">
<ele>326.539</ele>
<time>2019-05-30T11:32:42Z</time>
</trkpt>
<trkpt lat="49.584175" lon="10.255062">
<ele>326.66</ele>
<time>2019-05-30T11:32:43Z</time>
</trkpt>
<trkpt lat="49.584225" lon="10.255015">
<ele>326.75</ele>
<time>2019-05-30T11:32:44Z</time>
</trkpt>
<trkpt lat="49.584278" lon="10.254972">
<ele>326.777</ele>
<time>2019-05-30T11:32:45Z</time>
</trkpt>
<trkpt lat="49.584332" lon="10.254927">
<ele>326.799</ele>
<time>2019-05-30T11:32:46Z</time>
</trkpt>
<trkpt lat="49.584385" lon="10.25488">
<ele>326.799</ele>
<time>2019-05-30T11:32:47Z</time>
</trkpt>
<trkpt lat="49.584438" lon="10.254835">
<ele>326.799</ele>
<time>2019-05-30T11:32:48Z</time>
</trkpt>
<trkpt lat="49.584484" lon="10.254788">
<ele>326.799</ele>
<time>2019-05-30T11:32:49Z</time>
</trkpt>
<trkpt lat="49.584538" lon="10.254742">
<ele>326.799</ele>
<time>2019-05-30T11:32:50Z</time>
</trkpt>
<trkpt lat="49.584587" lon="10.254695">
<ele>326.799</ele>
<time>2019-05-30T11:32:51Z</time>
</trkpt>
<trkpt lat="49.584641" lon="10.254647">
<ele>326.799</ele>
<time>2019-05-30T11:32:52Z</time>
</trkpt>
<trkpt lat="49.58469" lon="10.254597">
<ele>326.799</ele>
<time>2019-05-30T11:32:53Z</time>
</trkpt>
<trkpt lat="49.58474" lon="10.254544">
<ele>327.031</ele>
<time>2019-05-30T11:32:54Z</time>
</trkpt>
<trkpt lat="49.584789" lon="10.25449">
<ele>327.216</ele>
<time>2019-05-30T11:32:55Z</time>
</trkpt>
<trkpt lat="49.584839" lon="10.254434">
<ele>327.345</ele>
<time>2019-05-30T11:32:56Z</time>
</trkpt>
<trkpt lat="49.584885" lon="10.254376">
<ele>327.482</ele>
<time>2019-05-30T11:32:57Z</time>
</trkpt>
<trkpt lat="49.584938" lon="10.25432">
<ele>327.586</ele>
<time>2019-05-30T11:32:58Z</time>
</trkpt>
<trkpt lat="49.584984" lon="10.254264">
<ele>327.662</ele>
<time>2019-05-30T11:32:59Z</time>
</trkpt>
<trkpt lat="49.585037" lon="10.254209">
<ele>327.702</ele>
<time>2019-05-30T11:33:00Z</time>
</trkpt>
<trkpt lat="49.585087" lon="10.25415">
<ele>327.452</ele>
<time>2019-05-30T11:33:01Z</time>
</trkpt>
<trkpt lat="49.58514" lon="10.254088">
<ele>327.233</ele>
<time>2019-05-30T11:33:02Z</time>
</trkpt>
<trkpt lat="49.585194" lon="10.254025">
<ele>327.066</ele>
<time>2019-05-30T11:33:03Z</time>
</trkpt>
<trkpt lat="49.585243" lon="10.25396">
<ele>326.944</ele>
<time>2019-05-30T11:33:04Z</time>
</trkpt>
<trkpt lat="49.585297" lon="10.253892">
<ele>326.879</ele>
<time>2019-05-30T11:33:05Z</time>
</trkpt>
<trkpt lat="49.58535" lon="10.253821">
<ele>326.584</ele>
<time>2019-05-30T11:33:06Z</time>
</trkpt>
<trkpt lat="49.585403" lon="10.253752">
<ele>326.329</ele>
<time>2019-05-30T11:33:07Z</time>
</trkpt>
<trkpt lat="49.585461" lon="10.253676">
<ele>326.142</ele>
<time>2019-05-30T11:33:08Z</time>
</trkpt>
<trkpt lat="49.585514" lon="10.253602">
<ele>326.036</ele>
<time>2019-05-30T11:33:09Z</time>
</trkpt>
<trkpt lat="49.585567" lon="10.253525">
<ele>325.674</ele>
<time>2019-05-30T11:33:10Z</time>
</trkpt>
<trkpt lat="49.585625" lon="10.253448">
<ele>325.425</ele>
<time>2019-05-30T11:33:11Z</time>
</trkpt>
<trkpt lat="49.585678" lon="10.253368">
<ele>324.958</ele>
<time>2019-05-30T11:33:12Z</time>
</trkpt>
<trkpt lat="49.585735" lon="10.253288">
<ele>324.599</ele>
<time>2019-05-30T11:33:13Z</time>
</trkpt>
<trkpt lat="49.585789" lon="10.25321">
<ele>324.34</ele>
<time>2019-05-30T11:33:14Z</time>
</trkpt>
<trkpt lat="49.58585" lon="10.253132">
<ele>323.906</ele>
<time>2019-05-30T11:33:15Z</time>
</trkpt>
<trkpt lat="49.585903" lon="10.253055">
<ele>323.584</ele>
<time>2019-05-30T11:33:16Z</time>
</trkpt>
<trkpt lat="49.585953" lon="10.252976">
<ele>323.296</ele>
<time>2019-05-30T11:33:17Z</time>
</trkpt>
<trkpt lat="49.58601" lon="10.2529">
<ele>323.118</ele>
<time>2019-05-30T11:33:18Z</time>
</trkpt>
<trkpt lat="49.586063" lon="10.252824">
<ele>322.73</ele>
<time>2019-05-30T11:33:19Z</time>
</trkpt>
<trkpt lat="49.586117" lon="10.252743">
<ele>322.475</ele>
<time>2019-05-30T11:33:20Z</time>
</trkpt>
<trkpt lat="49.58617" lon="10.252665">
<ele>322.011</ele>
<time>2019-05-30T11:33:21Z</time>
</trkpt>
<trkpt lat="49.586224" lon="10.252587">
<ele>321.647</ele>
<time>2019-05-30T11:33:22Z</time>
</trkpt>
<trkpt lat="49.586277" lon="10.252508">
<ele>321.344</ele>
<time>2019-05-30T11:33:23Z</time>
</trkpt>
<trkpt lat="49.586334" lon="10.252432">
<ele>320.951</ele>
<time>2019-05-30T11:33:24Z</time>
</trkpt>
<trkpt lat="49.586391" lon="10.252359">
<ele>320.407</ele>
<time>2019-05-30T11:33:25Z</time>
</trkpt>
<trkpt lat="49.586445" lon="10.252292">
<ele>320.004</ele>
<time>2019-05-30T11:33:26Z</time>
</trkpt>
<trkpt lat="49.586502" lon="10.25222">
<ele>319.652</ele>
<time>2019-05-30T11:33:27Z</time>
</trkpt>
<trkpt lat="49.586552" lon="10.252148">
<ele>319.39</ele>
<time>2019-05-30T11:33:28Z</time>
</trkpt>
<trkpt lat="49.586601" lon="10.252078">
<ele>319.227</ele>
<time>2019-05-30T11:33:29Z</time>
</trkpt>
<trkpt lat="49.586658" lon="10.252011">
<ele>318.874</ele>
<time>2019-05-30T11:33:30Z</time>
</trkpt>
<trkpt lat="49.586712" lon="10.251944">
<ele>318.608</ele>
<time>2019-05-30T11:33:31Z</time>
</trkpt>
<trkpt lat="49.586765" lon="10.251873">
<ele>318.455</ele>
<time>2019-05-30T11:33:32Z</time>
</trkpt>
<trkpt lat="49.586823" lon="10.251801">
<ele>318.039</ele>
<time>2019-05-30T11:33:33Z</time>
</trkpt>
<trkpt lat="49.586872" lon="10.251728">
<ele>317.801</ele>
<time>2019-05-30T11:33:34Z</time>
</trkpt>
<trkpt lat="49.586922" lon="10.251651">
<ele>317.355</ele>
<time>2019-05-30T11:33:35Z</time>
</trkpt>
<trkpt lat="49.586971" lon="10.251577">
<ele>317.022</ele>
<time>2019-05-30T11:33:36Z</time>
</trkpt>
<trkpt lat="49.587025" lon="10.251511">
<ele>316.735</ele>
<time>2019-05-30T11:33:37Z</time>
</trkpt>
<trkpt lat="49.587067" lon="10.25144">
<ele>316.299</ele>
<time>2019-05-30T11:33:38Z</time>
</trkpt>
<trkpt lat="49.587112" lon="10.251376">
<ele>315.96</ele>
<time>2019-05-30T11:33:39Z</time>
</trkpt>
<trkpt lat="49.587158" lon="10.251325">
<ele>315.706</ele>
<time>2019-05-30T11:33:40Z</time>
</trkpt>
<trkpt lat="49.587215" lon="10.251285">
<ele>315.558</ele>
<time>2019-05-30T11:33:41Z</time>
</trkpt>
<trkpt lat="49.587261" lon="10.251242">
<ele>315.205</ele>
<time>2019-05-30T11:33:42Z</time>
</trkpt>
<trkpt lat="49.587303" lon="10.251197">
<ele>314.872</ele>
<time>2019-05-30T11:33:43Z</time>
</trkpt>
<trkpt lat="49.587334" lon="10.251135">
<ele>314.697</ele>
<time>2019-05-30T11:33:44Z</time>
</trkpt>
<trkpt lat="49.58736" lon="10.251054">
<ele>314.602</ele>
<time>2019-05-30T11:33:45Z</time>
</trkpt>
<trkpt lat="49.587383" lon="10.250978">
<ele>314.275</ele>
<time>2019-05-30T11:33:46Z</time>
</trkpt>
<trkpt lat="49.587418" lon="10.250916">
<ele>313.98</ele>
<time>2019-05-30T11:33:47Z</time>
</trkpt>
<trkpt lat="49.587448" lon="10.250865">
<ele>313.749</ele>
<time>2019-05-30T11:33:48Z</time>
</trkpt>
<trkpt lat="49.587471" lon="10.250819">
<ele>313.584</ele>
<time>2019-05-30T11:33:49Z</time>
</trkpt>
<trkpt lat="49.587486" lon="10.250758">
<ele>313.469</ele>
<time>2019-05-30T11:33:50Z</time>
</trkpt>
<trkpt lat="49.587517" lon="10.250712">
<ele>313.387</ele>
<time>2019-05-30T11:33:51Z</time>
</trkpt>
<trkpt lat="49.587547" lon="10.250669">
<ele>313.339</ele>
<time>2019-05-30T11:33:52Z</time>
</trkpt>
<trkpt lat="49.587585" lon="10.250628">
<ele>313.314</ele>
<time>2019-05-30T11:33:53Z</time>
</trkpt>
<trkpt lat="49.587635" lon="10.250591">
<ele>313.063</ele>
<time>2019-05-30T11:33:54Z</time>
</trkpt>
<trkpt lat="49.587685" lon="10.250557">
<ele>312.89</ele>
<time>2019-05-30T11:33:55Z</time>
</trkpt>
<trkpt lat="49.587742" lon="10.250522">
<ele>312.469</ele>
<time>2019-05-30T11:33:56Z</time>
</trkpt>
<trkpt lat="49.587807" lon="10.250492">
<ele>312.076</ele>
<time>2019-05-30T11:33:57Z</time>
</trkpt>
<trkpt lat="49.587868" lon="10.250455">
<ele>311.786</ele>
<time>2019-05-30T11:33:58Z</time>
</trkpt>
<trkpt lat="49.587929" lon="10.250419">
<ele>311.603</ele>
<time>2019-05-30T11:33:59Z</time>
</trkpt>
<trkpt lat="49.587986" lon="10.250388">
<ele>311.203</ele>
<time>2019-05-30T11:34:00Z</time>
</trkpt>
<trkpt lat="49.588047" lon="10.250359">
<ele>310.91</ele>
<time>2019-05-30T11:34:01Z</time>
</trkpt>
<trkpt lat="49.588112" lon="10.250327">
<ele>310.719</ele>
<time>2019-05-30T11:34:02Z</time>
</trkpt>
<trkpt lat="49.588165" lon="10.250296">
<ele>310.575</ele>
<time>2019-05-30T11:34:03Z</time>
</trkpt>
<trkpt lat="49.58823" lon="10.250272">
<ele>310.468</ele>
<time>2019-05-30T11:34:04Z</time>
</trkpt>
<trkpt lat="49.588284" lon="10.250257">
<ele>310.416</ele>
<time>2019-05-30T11:34:05Z</time>
</trkpt>
<trkpt lat="49.588329" lon="10.250249">
<ele>310.375</ele>
<time>2019-05-30T11:34:06Z</time>
</trkpt>
<trkpt lat="49.588375" lon="10.250237">
<ele>310.348</ele>
<time>2019-05-30T11:34:07Z</time>
</trkpt>
<trkpt lat="49.588421" lon="10.250212">
<ele>310.348</ele>
<time>2019-05-30T11:34:08Z</time>
</trkpt>
<trkpt lat="49.588459" lon="10.250168">
<ele>310.348</ele>
<time>2019-05-30T11:34:09Z</time>
</trkpt>
<trkpt lat="49.588486" lon="10.250117">
<ele>310.348</ele>
<time>2019-05-30T11:34:10Z</time>
</trkpt>
<trkpt lat="49.588501" lon="10.250056">
<ele>310.348</ele>
<time>2019-05-30T11:34:11Z</time>
</trkpt>
<trkpt lat="49.588512" lon="10.249995">
<ele>310.348</ele>
<time>2019-05-30T11:34:12Z</time>
</trkpt>
<trkpt lat="49.58852" lon="10.249935">
<ele>310.348</ele>
<time>2019-05-30T11:34:13Z</time>
</trkpt>
<trkpt lat="49.588524" lon="10.249878">
<ele>310.348</ele>
<time>2019-05-30T11:34:14Z</time>
</trkpt>
<trkpt lat="49.588539" lon="10.249825">
<ele>310.348</ele>
<time>2019-05-30T11:34:15Z</time>
</trkpt>
<trkpt lat="49.588547" lon="10.24977">
<ele>310.348</ele>
<time>2019-05-30T11:34:16Z</time>
</trkpt>
<trkpt lat="49.588554" lon="10.249715">
<ele>310.348</ele>
<time>2019-05-30T11:34:17Z</time>
</trkpt>
<trkpt lat="49.588558" lon="10.24966">
<ele>310.348</ele>
<time>2019-05-30T11:34:18Z</time>
</trkpt>
<trkpt lat="49.588558" lon="10.249605">
<ele>310.348</ele>
<time>2019-05-30T11:34:19Z</time>
</trkpt>
<trkpt lat="49.588562" lon="10.249554">
<ele>310.348</ele>
<time>2019-05-30T11:34:20Z</time>
</trkpt>
<trkpt lat="49.58857" lon="10.249501">
<ele>310.348</ele>
<time>2019-05-30T11:34:21Z</time>
</trkpt>
<trkpt lat="49.588577" lon="10.249447">
<ele>310.348</ele>
<time>2019-05-30T11:34:22Z</time>
</trkpt>
<trkpt lat="49.588585" lon="10.249393">
<ele>310.348</ele>
<time>2019-05-30T11:34:23Z</time>
</trkpt>
<trkpt lat="49.588589" lon="10.249336">
<ele>310.348</ele>
<time>2019-05-30T11:34:24Z</time>
</trkpt>
<trkpt lat="49.588593" lon="10.24928">
<ele>310.348</ele>
<time>2019-05-30T11:34:25Z</time>
</trkpt>
<trkpt lat="49.5886" lon="10.249222">
<ele>310.348</ele>
<time>2019-05-30T11:34:26Z</time>
</trkpt>
<trkpt lat="49.588612" lon="10.249165">
<ele>310.348</ele>
<time>2019-05-30T11:34:27Z</time>
</trkpt>
<trkpt lat="49.588619" lon="10.24911">
<ele>310.348</ele>
<time>2019-05-30T11:34:28Z</time>
</trkpt>
<trkpt lat="49.588627" lon="10.249055">
<ele>310.348</ele>
<time>2019-05-30T11:34:29Z</time>
</trkpt>
<trkpt lat="49.588638" lon="10.249005">
<ele>310.348</ele>
<time>2019-05-30T11:34:30Z</time>
</trkpt>
<trkpt lat="49.588657" lon="10.248957">
<ele>310.348</ele>
<time>2019-05-30T11:34:31Z</time>
</trkpt>
<trkpt lat="49.588673" lon="10.248904">
<ele>310.348</ele>
<time>2019-05-30T11:34:32Z</time>
</trkpt>
<trkpt lat="49.588688" lon="10.248854">
<ele>310.586</ele>
<time>2019-05-30T11:34:33Z</time>
</trkpt>
<trkpt lat="49.588707" lon="10.248808">
<ele>310.774</ele>
<time>2019-05-30T11:34:34Z</time>
</trkpt>
<trkpt lat="49.58873" lon="10.248768">
<ele>310.92</ele>
<time>2019-05-30T11:34:35Z</time>
</trkpt>
<trkpt lat="49.588753" lon="10.248732">
<ele>311.021</ele>
<time>2019-05-30T11:34:36Z</time>
</trkpt>
<trkpt lat="49.588783" lon="10.248698">
<ele>311.332</ele>
<time>2019-05-30T11:34:37Z</time>
</trkpt>
<trkpt lat="49.58881" lon="10.248665">
<ele>311.585</ele>
<time>2019-05-30T11:34:38Z</time>
</trkpt>
<trkpt lat="49.588837" lon="10.248635">
<ele>311.772</ele>
<time>2019-05-30T11:34:39Z</time>
</trkpt>
<trkpt lat="49.588863" lon="10.248607">
<ele>311.908</ele>
<time>2019-05-30T11:34:40Z</time>
</trkpt>
<trkpt lat="49.58889" lon="10.248578">
<ele>311.999</ele>
<time>2019-05-30T11:34:41Z</time>
</trkpt>
<trkpt lat="49.588917" lon="10.24855">
<ele>312.065</ele>
<time>2019-05-30T11:34:42Z</time>
</trkpt>
<trkpt lat="49.588951" lon="10.248523">
<ele>312.104</ele>
<time>2019-05-30T11:34:43Z</time>
</trkpt>
<trkpt lat="49.588982" lon="10.248496">
<ele>312.355</ele>
<time>2019-05-30T11:34:44Z</time>
</trkpt>
<trkpt lat="49.589008" lon="10.248468">
<ele>312.545</ele>
<time>2019-05-30T11:34:45Z</time>
</trkpt>
<trkpt lat="49.589039" lon="10.248444">
<ele>312.672</ele>
<time>2019-05-30T11:34:46Z</time>
</trkpt>
<trkpt lat="49.589066" lon="10.248418">
<ele>312.81</ele>
<time>2019-05-30T11:34:47Z</time>
</trkpt>
<trkpt lat="49.589092" lon="10.248399">
<ele>312.913</ele>
<time>2019-05-30T11:34:48Z</time>
</trkpt>
<trkpt lat="49.589115" lon="10.248377">
<ele>312.988</ele>
<time>2019-05-30T11:34:49Z</time>
</trkpt>
<trkpt lat="49.589146" lon="10.248355">
<ele>313.035</ele>
<time>2019-05-30T11:34:50Z</time>
</trkpt>
<trkpt lat="49.589172" lon="10.248325">
<ele>313.06</ele>
<time>2019-05-30T11:34:51Z</time>
</trkpt>
<trkpt lat="49.589199" lon="10.248297">
<ele>313.324</ele>
<time>2019-05-30T11:34:52Z</time>
</trkpt>
<trkpt lat="49.589226" lon="10.248272">
<ele>313.538</ele>
<time>2019-05-30T11:34:53Z</time>
</trkpt>
<trkpt lat="49.589252" lon="10.24825">
<ele>313.704</ele>
<time>2019-05-30T11:34:54Z</time>
</trkpt>
<trkpt lat="49.589275" lon="10.24823">
<ele>313.798</ele>
<time>2019-05-30T11:34:55Z</time>
</trkpt>
<trkpt lat="49.589298" lon="10.248205">
<ele>314.12</ele>
<time>2019-05-30T11:34:56Z</time>
</trkpt>
<trkpt lat="49.589329" lon="10.248177">
<ele>314.398</ele>
<time>2019-05-30T11:34:57Z</time>
</trkpt>
<trkpt lat="49.589355" lon="10.248154">
<ele>314.607</ele>
<time>2019-05-30T11:34:58Z</time>
</trkpt>
<trkpt lat="49.589378" lon="10.248134">
<ele>314.758</ele>
<time>2019-05-30T11:34:59Z</time>
</trkpt>
<trkpt lat="49.589405" lon="10.248112">
<ele>314.862</ele>
<time>2019-05-30T11:35:00Z</time>
</trkpt>
<trkpt lat="49.589432" lon="10.248089">
<ele>314.93</ele>
<time>2019-05-30T11:35:01Z</time>
</trkpt>
<trkpt lat="49.589458" lon="10.248067">
<ele>315.213</ele>
<time>2019-05-30T11:35:02Z</time>
</trkpt>
<trkpt lat="49.589478" lon="10.248045">
<ele>315.427</ele>
<time>2019-05-30T11:35:03Z</time>
</trkpt>
<trkpt lat="49.589504" lon="10.248027">
<ele>315.591</ele>
<time>2019-05-30T11:35:04Z</time>
</trkpt>
<trkpt lat="49.589523" lon="10.248008">
<ele>315.696</ele>
<time>2019-05-30T11:35:05Z</time>
</trkpt>
<trkpt lat="49.589542" lon="10.247989">
<ele>315.781</ele>
<time>2019-05-30T11:35:06Z</time>
</trkpt>
<trkpt lat="49.589561" lon="10.24797">
<ele>316.062</ele>
<time>2019-05-30T11:35:07Z</time>
</trkpt>
<trkpt lat="49.589588" lon="10.247949">
<ele>316.278</ele>
<time>2019-05-30T11:35:08Z</time>
</trkpt>
<trkpt lat="49.589607" lon="10.24793">
<ele>316.449</ele>
<time>2019-05-30T11:35:09Z</time>
</trkpt>
<trkpt lat="49.589634" lon="10.24791">
<ele>316.57</ele>
<time>2019-05-30T11:35:10Z</time>
</trkpt>
<trkpt lat="49.589653" lon="10.247893">
<ele>316.663</ele>
<time>2019-05-30T11:35:11Z</time>
</trkpt>
<trkpt lat="49.589672" lon="10.247875">
<ele>316.72</ele>
<time>2019-05-30T11:35:12Z</time>
</trkpt>
<trkpt lat="49.589699" lon="10.247857">
<ele>316.997</ele>
<time>2019-05-30T11:35:13Z</time>
</trkpt>
<trkpt lat="49.589718" lon="10.24784">
<ele>317.206</ele>
<time>2019-05-30T11:35:14Z</time>
</trkpt>
<trkpt lat="49.589741" lon="10.247824">
<ele>317.333</ele>
<time>2019-05-30T11:35:15Z</time>
</trkpt>
<trkpt lat="49.589764" lon="10.247802">
<ele>317.658</ele>
<time>2019-05-30T11:35:16Z</time>
</trkpt>
<trkpt lat="49.58979" lon="10.247782">
<ele>317.976</ele>
<time>2019-05-30T11:35:17Z</time>
</trkpt>
<trkpt lat="49.589817" lon="10.24776">
<ele>318.225</ele>
<time>2019-05-30T11:35:18Z</time>
</trkpt>
<trkpt lat="49.589848" lon="10.247738">
<ele>318.408</ele>
<time>2019-05-30T11:35:19Z</time>
</trkpt>
<trkpt lat="49.589874" lon="10.247717">
<ele>318.507</ele>
<time>2019-05-30T11:35:20Z</time>
</trkpt>
<trkpt lat="49.589905" lon="10.247689">
<ele>318.829</ele>
<time>2019-05-30T11:35:21Z</time>
</trkpt>
<trkpt lat="49.589939" lon="10.247657">
<ele>319.08</ele>
<time>2019-05-30T11:35:22Z</time>
</trkpt>
<trkpt lat="49.58997" lon="10.24762">
<ele>319.254</ele>
<time>2019-05-30T11:35:23Z</time>
</trkpt>
<trkpt lat="49.589993" lon="10.247583">
<ele>319.356</ele>
<time>2019-05-30T11:35:24Z</time>
</trkpt>
<trkpt lat="49.590004" lon="10.247551">
<ele>319.677</ele>
<time>2019-05-30T11:35:25Z</time>
</trkpt>
<trkpt lat="49.590015" lon="10.247521">
<ele>319.906</ele>
<time>2019-05-30T11:35:26Z</time>
</trkpt>
<trkpt lat="49.590023" lon="10.247497">
<ele>320.109</ele>
<time>2019-05-30T11:35:27Z</time>
</trkpt>
<trkpt lat="49.590031" lon="10.247476">
<ele>320.246</ele>
<time>2019-05-30T11:35:28Z</time>
</trkpt>
<trkpt lat="49.590038" lon="10.247458">
<ele>320.533</ele>
<time>2019-05-30T11:35:29Z</time>
</trkpt>
<trkpt lat="49.590042" lon="10.247448">
<ele>320.773</ele>
<time>2019-05-30T11:35:30Z</time>
</trkpt>
<trkpt lat="49.590046" lon="10.247446">
<ele>320.974</ele>
<time>2019-05-30T11:35:31Z</time>
</trkpt>
<trkpt lat="49.59005" lon="10.247448">
<ele>321.15</ele>
<time>2019-05-30T11:35:32Z</time>
</trkpt>
<trkpt lat="49.590057" lon="10.247486">
<ele>321.324</ele>
<time>2019-05-30T11:35:55Z</time>
</trkpt>
<trkpt lat="49.590069" lon="10.247492">
<ele>321.39</ele>
<time>2019-05-30T11:35:56Z</time>
</trkpt>
<trkpt lat="49.590076" lon="10.247497">
<ele>321.422</ele>
<time>2019-05-30T11:35:57Z</time>
</trkpt>
<trkpt lat="49.590088" lon="10.2475">
<ele>321.454</ele>
<time>2019-05-30T11:35:58Z</time>
</trkpt>
<trkpt lat="49.590096" lon="10.247507">
<ele>321.454</ele>
<time>2019-05-30T11:35:59Z</time>
</trkpt>
<trkpt lat="49.590099" lon="10.247509">
<ele>321.454</ele>
<time>2019-05-30T11:36:00Z</time>
</trkpt>
<trkpt lat="49.590111" lon="10.247513">
<ele>321.454</ele>
<time>2019-05-30T11:36:01Z</time>
</trkpt>
<trkpt lat="49.590122" lon="10.247521">
<ele>321.454</ele>
<time>2019-05-30T11:36:02Z</time>
</trkpt>
<trkpt lat="49.59013" lon="10.247534">
<ele>321.454</ele>
<time>2019-05-30T11:36:03Z</time>
</trkpt>
<trkpt lat="49.590141" lon="10.247543">
<ele>321.454</ele>
<time>2019-05-30T11:36:04Z</time>
</trkpt>
<trkpt lat="49.590153" lon="10.24755">
<ele>321.454</ele>
<time>2019-05-30T11:36:05Z</time>
</trkpt>
<trkpt lat="49.590157" lon="10.247548">
<ele>321.454</ele>
<time>2019-05-30T11:36:06Z</time>
</trkpt>
<trkpt lat="49.590157" lon="10.247545">
<ele>321.454</ele>
<time>2019-05-30T11:36:07Z</time>
</trkpt>
<trkpt lat="49.590153" lon="10.247553">
<ele>321.454</ele>
<time>2019-05-30T11:37:31Z</time>
</trkpt>
<trkpt lat="49.590157" lon="10.247548">
<ele>321.454</ele>
<time>2019-05-30T11:37:32Z</time>
</trkpt>
<trkpt lat="49.590157" lon="10.247539">
<ele>321.454</ele>
<time>2019-05-30T11:37:50Z</time>
</trkpt>
<trkpt lat="49.590149" lon="10.247537">
<ele>321.454</ele>
<time>2019-05-30T11:37:51Z</time>
</trkpt>
<trkpt lat="49.590141" lon="10.24753">
<ele>321.454</ele>
<time>2019-05-30T11:37:52Z</time>
</trkpt>
<trkpt lat="49.59013" lon="10.247523">
<ele>321.454</ele>
<time>2019-05-30T11:37:53Z</time>
</trkpt>
<trkpt lat="49.590122" lon="10.247519">
<ele>321.454</ele>
<time>2019-05-30T11:37:54Z</time>
</trkpt>
<trkpt lat="49.590115" lon="10.247513">
<ele>321.454</ele>
<time>2019-05-30T11:37:55Z</time>
</trkpt>
<trkpt lat="49.590107" lon="10.247509">
<ele>321.454</ele>
<time>2019-05-30T11:37:56Z</time>
</trkpt>
<trkpt lat="49.590099" lon="10.247507">
<ele>321.454</ele>
<time>2019-05-30T11:37:57Z</time>
</trkpt>
<trkpt lat="49.590096" lon="10.247503">
<ele>321.454</ele>
<time>2019-05-30T11:37:58Z</time>
</trkpt>
<trkpt lat="49.590092" lon="10.2475">
<ele>321.454</ele>
<time>2019-05-30T11:37:59Z</time>
</trkpt>
<trkpt lat="49.590088" lon="10.247497">
<ele>321.454</ele>
<time>2019-05-30T11:38:00Z</time>
</trkpt>
<trkpt lat="49.59008" lon="10.247497">
<ele>321.454</ele>
<time>2019-05-30T11:38:01Z</time>
</trkpt>
<trkpt lat="49.590076" lon="10.247497">
<ele>321.454</ele>
<time>2019-05-30T11:38:02Z</time>
</trkpt>
<trkpt lat="49.590069" lon="10.247497">
<ele>321.454</ele>
<time>2019-05-30T11:38:03Z</time>
</trkpt>
<trkpt lat="49.590061" lon="10.247499">
<ele>321.454</ele>
<time>2019-05-30T11:38:04Z</time>
</trkpt>
<trkpt lat="49.590057" lon="10.247502">
<ele>321.454</ele>
<time>2019-05-30T11:38:05Z</time>
</trkpt>
<trkpt lat="49.590057" lon="10.247507">
<ele>321.454</ele>
<time>2019-05-30T11:38:06Z</time>
</trkpt>
<trkpt lat="49.590057" lon="10.247509">
<ele>321.454</ele>
<time>2019-05-30T11:38:07Z</time>
</trkpt>
<trkpt lat="49.590057" lon="10.247511">
<ele>321.454</ele>
<time>2019-05-30T11:38:08Z</time>
</trkpt>
<trkpt lat="49.590038" lon="10.24751">
<ele>321.454</ele>
<time>2019-05-30T11:38:39Z</time>
</trkpt>
<trkpt lat="49.590038" lon="10.247505">
<ele>321.454</ele>
<time>2019-05-30T11:38:40Z</time>
</trkpt>
<trkpt lat="49.590038" lon="10.247503">
<ele>321.454</ele>
<time>2019-05-30T11:38:41Z</time>
</trkpt>
<trkpt lat="49.590046" lon="10.247505">
<ele>321.454</ele>
<time>2019-05-30T11:38:42Z</time>
</trkpt>
<trkpt lat="49.590034" lon="10.247494">
<ele>321.454</ele>
<time>2019-05-30T11:38:54Z</time>
</trkpt>
<trkpt lat="49.590027" lon="10.247481">
<ele>321.454</ele>
<time>2019-05-30T11:38:55Z</time>
</trkpt>
<trkpt lat="49.590023" lon="10.24747">
<ele>321.454</ele>
<time>2019-05-30T11:38:56Z</time>
</trkpt>
<trkpt lat="49.590019" lon="10.247463">
<ele>321.454</ele>
<time>2019-05-30T11:38:57Z</time>
</trkpt>
<trkpt lat="49.590019" lon="10.24746">
<ele>321.343</ele>
<time>2019-05-30T11:38:58Z</time>
</trkpt>
<trkpt lat="49.590015" lon="10.247458">
<ele>321.215</ele>
<time>2019-05-30T11:38:59Z</time>
</trkpt>
<trkpt lat="49.59" lon="10.247418">
<ele>321.125</ele>
<time>2019-05-30T11:40:17Z</time>
</trkpt>
<trkpt lat="49.590004" lon="10.247427">
<ele>321.074</ele>
<time>2019-05-30T11:40:18Z</time>
</trkpt>
<trkpt lat="49.590008" lon="10.247437">
<ele>321.031</ele>
<time>2019-05-30T11:40:19Z</time>
</trkpt>
<trkpt lat="49.590012" lon="10.247448">
<ele>320.988</ele>
<time>2019-05-30T11:40:20Z</time>
</trkpt>
<trkpt lat="49.590019" lon="10.247461">
<ele>320.958</ele>
<time>2019-05-30T11:40:21Z</time>
</trkpt>
<trkpt lat="49.590027" lon="10.247472">
<ele>320.945</ele>
<time>2019-05-30T11:40:22Z</time>
</trkpt>
<trkpt lat="49.590027" lon="10.247478">
<ele>320.945</ele>
<time>2019-05-30T11:40:23Z</time>
</trkpt>
<trkpt lat="49.590034" lon="10.247481">
<ele>320.945</ele>
<time>2019-05-30T11:40:24Z</time>
</trkpt>
<trkpt lat="49.590042" lon="10.247486">
<ele>320.945</ele>
<time>2019-05-30T11:40:25Z</time>
</trkpt>
<trkpt lat="49.59005" lon="10.2475">
<ele>320.945</ele>
<time>2019-05-30T11:40:40Z</time>
</trkpt>
<trkpt lat="49.590054" lon="10.247502">
<ele>320.945</ele>
<time>2019-05-30T11:40:41Z</time>
</trkpt>
<trkpt lat="49.590057" lon="10.247503">
<ele>320.945</ele>
<time>2019-05-30T11:40:42Z</time>
</trkpt>
<trkpt lat="49.590057" lon="10.247505">
<ele>320.945</ele>
<time>2019-05-30T11:40:43Z</time>
</trkpt>
<trkpt lat="49.590057" lon="10.247509">
<ele>320.945</ele>
<time>2019-05-30T11:40:44Z</time>
</trkpt>
<trkpt lat="49.590076" lon="10.247521">
<ele>320.945</ele>
<time>2019-05-30T11:40:47Z</time>
</trkpt>
<trkpt lat="49.590092" lon="10.247528">
<ele>320.945</ele>
<time>2019-05-30T11:40:48Z</time>
</trkpt>
<trkpt lat="49.590111" lon="10.247526">
<ele>320.945</ele>
<time>2019-05-30T11:40:49Z</time>
</trkpt>
<trkpt lat="49.59013" lon="10.247517">
<ele>320.945</ele>
<time>2019-05-30T11:40:50Z</time>
</trkpt>
<trkpt lat="49.590149" lon="10.247507">
<ele>320.945</ele>
<time>2019-05-30T11:40:51Z</time>
</trkpt>
<trkpt lat="49.59016" lon="10.247497">
<ele>320.945</ele>
<time>2019-05-30T11:40:52Z</time>
</trkpt>
<trkpt lat="49.590179" lon="10.247481">
<ele>320.945</ele>
<time>2019-05-30T11:40:53Z</time>
</trkpt>
<trkpt lat="49.590195" lon="10.247467">
<ele>320.945</ele>
<time>2019-05-30T11:40:54Z</time>
</trkpt>
<trkpt lat="49.590214" lon="10.247453">
<ele>321.201</ele>
<time>2019-05-30T11:40:55Z</time>
</trkpt>
<trkpt lat="49.590229" lon="10.24744">
<ele>321.402</ele>
<time>2019-05-30T11:40:56Z</time>
</trkpt>
<trkpt lat="49.590248" lon="10.247432">
<ele>321.522</ele>
<time>2019-05-30T11:40:57Z</time>
</trkpt>
<trkpt lat="49.590267" lon="10.247418">
<ele>321.864</ele>
<time>2019-05-30T11:40:58Z</time>
</trkpt>
<trkpt lat="49.590286" lon="10.247402">
<ele>322.134</ele>
<time>2019-05-30T11:40:59Z</time>
</trkpt>
<trkpt lat="49.590309" lon="10.247388">
<ele>322.318</ele>
<time>2019-05-30T11:41:00Z</time>
</trkpt>
<trkpt lat="49.590328" lon="10.247373">
<ele>322.48</ele>
<time>2019-05-30T11:41:01Z</time>
</trkpt>
<trkpt lat="49.590351" lon="10.247358">
<ele>322.592</ele>
<time>2019-05-30T11:41:02Z</time>
</trkpt>
<trkpt lat="49.590374" lon="10.247345">
<ele>322.903</ele>
<time>2019-05-30T11:41:03Z</time>
</trkpt>
<trkpt lat="49.590397" lon="10.247332">
<ele>323.14</ele>
<time>2019-05-30T11:41:04Z</time>
</trkpt>
<trkpt lat="49.590416" lon="10.247313">
<ele>323.312</ele>
<time>2019-05-30T11:41:05Z</time>
</trkpt>
<trkpt lat="49.590435" lon="10.247293">
<ele>323.49</ele>
<time>2019-05-30T11:41:06Z</time>
</trkpt>
<trkpt lat="49.590454" lon="10.247272">
<ele>323.565</ele>
<time>2019-05-30T11:41:07Z</time>
</trkpt>
<trkpt lat="49.590477" lon="10.247255">
<ele>323.606</ele>
<time>2019-05-30T11:41:08Z</time>
</trkpt>
<trkpt lat="49.5905" lon="10.247238">
<ele>323.864</ele>
<time>2019-05-30T11:41:09Z</time>
</trkpt>
<trkpt lat="49.590523" lon="10.247224">
<ele>324.051</ele>
<time>2019-05-30T11:41:10Z</time>
</trkpt>
<trkpt lat="49.590546" lon="10.247207">
<ele>324.223</ele>
<time>2019-05-30T11:41:11Z</time>
</trkpt>
<trkpt lat="49.590572" lon="10.247189">
<ele>324.339</ele>
<time>2019-05-30T11:41:12Z</time>
</trkpt>
<trkpt lat="49.590595" lon="10.247171">
<ele>324.707</ele>
<time>2019-05-30T11:41:13Z</time>
</trkpt>
<trkpt lat="49.590618" lon="10.247153">
<ele>324.988</ele>
<time>2019-05-30T11:41:14Z</time>
</trkpt>
<trkpt lat="49.590645" lon="10.247135">
<ele>325.2</ele>
<time>2019-05-30T11:41:15Z</time>
</trkpt>
<trkpt lat="49.590664" lon="10.247117">
<ele>325.362</ele>
<time>2019-05-30T11:41:16Z</time>
</trkpt>
<trkpt lat="49.590683" lon="10.247096">
<ele>325.5</ele>
<time>2019-05-30T11:41:17Z</time>
</trkpt>
<trkpt lat="49.59071" lon="10.247073">
<ele>325.545</ele>
<time>2019-05-30T11:41:18Z</time>
</trkpt>
<trkpt lat="49.590736" lon="10.247046">
<ele>325.794</ele>
<time>2019-05-30T11:41:19Z</time>
</trkpt>
<trkpt lat="49.590767" lon="10.247019">
<ele>325.967</ele>
<time>2019-05-30T11:41:20Z</time>
</trkpt>
<trkpt lat="49.59079" lon="10.246993">
<ele>326.126</ele>
<time>2019-05-30T11:41:21Z</time>
</trkpt>
<trkpt lat="49.590809" lon="10.24697">
<ele>326.247</ele>
<time>2019-05-30T11:41:22Z</time>
</trkpt>
<trkpt lat="49.590832" lon="10.24695">
<ele>326.339</ele>
<time>2019-05-30T11:41:23Z</time>
</trkpt>
<trkpt lat="49.590851" lon="10.246933">
<ele>326.397</ele>
<time>2019-05-30T11:41:24Z</time>
</trkpt>
<trkpt lat="49.590874" lon="10.246915">
<ele>326.677</ele>
<time>2019-05-30T11:41:25Z</time>
</trkpt>
<trkpt lat="49.590893" lon="10.246893">
<ele>326.893</ele>
<time>2019-05-30T11:41:26Z</time>
</trkpt>
<trkpt lat="49.590916" lon="10.246874">
<ele>327.088</ele>
<time>2019-05-30T11:41:27Z</time>
</trkpt>
<trkpt lat="49.590939" lon="10.246853">
<ele>327.213</ele>
<time>2019-05-30T11:41:28Z</time>
</trkpt>
<trkpt lat="49.590958" lon="10.246835">
<ele>327.317</ele>
<time>2019-05-30T11:41:29Z</time>
</trkpt>
<trkpt lat="49.590977" lon="10.246818">
<ele>327.39</ele>
<time>2019-05-30T11:41:30Z</time>
</trkpt>
<trkpt lat="49.591" lon="10.246799">
<ele>327.451</ele>
<time>2019-05-30T11:41:31Z</time>
</trkpt>
<trkpt lat="49.591015" lon="10.24678">
<ele>327.478</ele>
<time>2019-05-30T11:41:32Z</time>
</trkpt>
<trkpt lat="49.59103" lon="10.246768">
<ele>327.478</ele>
<time>2019-05-30T11:41:33Z</time>
</trkpt>
<trkpt lat="49.591038" lon="10.246761">
<ele>327.478</ele>
<time>2019-05-30T11:41:34Z</time>
</trkpt>
<trkpt lat="49.591038" lon="10.246765">
<ele>327.479</ele>
<time>2019-05-30T11:41:36Z</time>
</trkpt>
<trkpt lat="49.591053" lon="10.246707">
<ele>327.478</ele>
<time>2019-05-30T11:52:05Z</time>
</trkpt>
<trkpt lat="49.591057" lon="10.2467">
<ele>327.479</ele>
<time>2019-05-30T11:52:06Z</time>
</trkpt>
<trkpt lat="49.591068" lon="10.246679">
<ele>327.478</ele>
<time>2019-05-30T11:52:07Z</time>
</trkpt>
<trkpt lat="49.591076" lon="10.246656">
<ele>327.478</ele>
<time>2019-05-30T11:52:08Z</time>
</trkpt>
<trkpt lat="49.591091" lon="10.246635">
<ele>327.478</ele>
<time>2019-05-30T11:52:09Z</time>
</trkpt>
<trkpt lat="49.59111" lon="10.246614">
<ele>327.478</ele>
<time>2019-05-30T11:52:10Z</time>
</trkpt>
<trkpt lat="49.591125" lon="10.246602">
<ele>327.479</ele>
<time>2019-05-30T11:52:11Z</time>
</trkpt>
<trkpt lat="49.591141" lon="10.246587">
<ele>327.479</ele>
<time>2019-05-30T11:52:12Z</time>
</trkpt>
<trkpt lat="49.59116" lon="10.246571">
<ele>327.478</ele>
<time>2019-05-30T11:52:13Z</time>
</trkpt>
<trkpt lat="49.591175" lon="10.246555">
<ele>327.478</ele>
<time>2019-05-30T11:52:14Z</time>
</trkpt>
<trkpt lat="49.591198" lon="10.246535">
<ele>327.479</ele>
<time>2019-05-30T11:52:15Z</time>
</trkpt>
<trkpt lat="49.591217" lon="10.24651">
<ele>327.478</ele>
<time>2019-05-30T11:52:16Z</time>
</trkpt>
<trkpt lat="49.59124" lon="10.246487">
<ele>327.478</ele>
<time>2019-05-30T11:52:17Z</time>
</trkpt>
<trkpt lat="49.591267" lon="10.246464">
<ele>327.479</ele>
<time>2019-05-30T11:52:18Z</time>
</trkpt>
<trkpt lat="49.591297" lon="10.246436">
<ele>327.478</ele>
<time>2019-05-30T11:52:19Z</time>
</trkpt>
<trkpt lat="49.591324" lon="10.246403">
<ele>327.479</ele>
<time>2019-05-30T11:52:20Z</time>
</trkpt>
<trkpt lat="49.591354" lon="10.246367">
<ele>327.479</ele>
<time>2019-05-30T11:52:21Z</time>
</trkpt>
<trkpt lat="49.591381" lon="10.246329">
<ele>327.478</ele>
<time>2019-05-30T11:52:22Z</time>
</trkpt>
<trkpt lat="49.591415" lon="10.246288">
<ele>327.479</ele>
<time>2019-05-30T11:52:23Z</time>
</trkpt>
<trkpt lat="49.591446" lon="10.246245">
<ele>327.479</ele>
<time>2019-05-30T11:52:24Z</time>
</trkpt>
<trkpt lat="49.591476" lon="10.246202">
<ele>327.479</ele>
<time>2019-05-30T11:52:25Z</time>
</trkpt>
<trkpt lat="49.591511" lon="10.246155">
<ele>327.479</ele>
<time>2019-05-30T11:52:26Z</time>
</trkpt>
<trkpt lat="49.591545" lon="10.246103">
<ele>327.478</ele>
<time>2019-05-30T11:52:27Z</time>
</trkpt>
<trkpt lat="49.591576" lon="10.246053">
<ele>327.479</ele>
<time>2019-05-30T11:52:28Z</time>
</trkpt>
<trkpt lat="49.59161" lon="10.246005">
<ele>327.479</ele>
<time>2019-05-30T11:52:29Z</time>
</trkpt>
<trkpt lat="49.591644" lon="10.245955">
<ele>327.479</ele>
<time>2019-05-30T11:52:30Z</time>
</trkpt>
<trkpt lat="49.591679" lon="10.245904">
<ele>327.478</ele>
<time>2019-05-30T11:52:31Z</time>
</trkpt>
<trkpt lat="49.591713" lon="10.245852">
<ele>327.479</ele>
<time>2019-05-30T11:52:32Z</time>
</trkpt>
<trkpt lat="49.591743" lon="10.245798">
<ele>327.478</ele>
<time>2019-05-30T11:52:33Z</time>
</trkpt>
<trkpt lat="49.591778" lon="10.245742">
<ele>327.478</ele>
<time>2019-05-30T11:52:34Z</time>
</trkpt>
<trkpt lat="49.591812" lon="10.245685">
<ele>327.478</ele>
<time>2019-05-30T11:52:35Z</time>
</trkpt>
<trkpt lat="49.591846" lon="10.245624">
<ele>327.478</ele>
<time>2019-05-30T11:52:36Z</time>
</trkpt>
<trkpt lat="49.591885" lon="10.245561">
<ele>327.479</ele>
<time>2019-05-30T11:52:37Z</time>
</trkpt>
<trkpt lat="49.591919" lon="10.245492">
<ele>327.478</ele>
<time>2019-05-30T11:52:38Z</time>
</trkpt>
<trkpt lat="49.591961" lon="10.245424">
<ele>327.478</ele>
<time>2019-05-30T11:52:39Z</time>
</trkpt>
<trkpt lat="49.591999" lon="10.245357">
<ele>327.13</ele>
<time>2019-05-30T11:52:40Z</time>
</trkpt>
<trkpt lat="49.592045" lon="10.245282">
<ele>326.866</ele>
<time>2019-05-30T11:52:41Z</time>
</trkpt>
<trkpt lat="49.592087" lon="10.2452">
<ele>326.677</ele>
<time>2019-05-30T11:52:42Z</time>
</trkpt>
<trkpt lat="49.592133" lon="10.245109">
<ele>326.567</ele>
<time>2019-05-30T11:52:43Z</time>
</trkpt>
<trkpt lat="49.592178" lon="10.245008">
<ele>326.181</ele>
<time>2019-05-30T11:52:44Z</time>
</trkpt>
<trkpt lat="49.59222" lon="10.244899">
<ele>325.941</ele>
<time>2019-05-30T11:52:45Z</time>
</trkpt>
<trkpt lat="49.592266" lon="10.244783">
<ele>325.501</ele>
<time>2019-05-30T11:52:46Z</time>
</trkpt>
<trkpt lat="49.592308" lon="10.244663">
<ele>324.843</ele>
<time>2019-05-30T11:52:47Z</time>
</trkpt>
<trkpt lat="49.592346" lon="10.244538">
<ele>324.396</ele>
<time>2019-05-30T11:52:48Z</time>
</trkpt>
<trkpt lat="49.592392" lon="10.244413">
<ele>324.004</ele>
<time>2019-05-30T11:52:49Z</time>
</trkpt>
<trkpt lat="49.592438" lon="10.244285">
<ele>323.447</ele>
<time>2019-05-30T11:52:50Z</time>
</trkpt>
<trkpt lat="49.59248" lon="10.244153">
<ele>323.082</ele>
<time>2019-05-30T11:52:51Z</time>
</trkpt>
<trkpt lat="49.592518" lon="10.24402">
<ele>322.596</ele>
<time>2019-05-30T11:52:52Z</time>
</trkpt>
<trkpt lat="49.59256" lon="10.24388">
<ele>321.967</ele>
<time>2019-05-30T11:52:53Z</time>
</trkpt>
<trkpt lat="49.592602" lon="10.243742">
<ele>321.557</ele>
<time>2019-05-30T11:52:54Z</time>
</trkpt>
<trkpt lat="49.59264" lon="10.2436">
<ele>320.764</ele>
<time>2019-05-30T11:52:55Z</time>
</trkpt>
<trkpt lat="49.592678" lon="10.243455">
<ele>320.359</ele>
<time>2019-05-30T11:52:56Z</time>
</trkpt>
<trkpt lat="49.592728" lon="10.243308">
<ele>319.831</ele>
<time>2019-05-30T11:52:57Z</time>
</trkpt>
<trkpt lat="49.59277" lon="10.24316">
<ele>319.092</ele>
<time>2019-05-30T11:52:58Z</time>
</trkpt>
<trkpt lat="49.592812" lon="10.243011">
<ele>318.498</ele>
<time>2019-05-30T11:52:59Z</time>
</trkpt>
<trkpt lat="49.592857" lon="10.242865">
<ele>317.75</ele>
<time>2019-05-30T11:53:00Z</time>
</trkpt>
<trkpt lat="49.592896" lon="10.242725">
<ele>317.195</ele>
<time>2019-05-30T11:53:01Z</time>
</trkpt>
<trkpt lat="49.592937" lon="10.24259">
<ele>316.834</ele>
<time>2019-05-30T11:53:02Z</time>
</trkpt>
<trkpt lat="49.592972" lon="10.24246">
<ele>316.284</ele>
<time>2019-05-30T11:53:03Z</time>
</trkpt>
<trkpt lat="49.593014" lon="10.242328">
<ele>315.908</ele>
<time>2019-05-30T11:53:04Z</time>
</trkpt>
<trkpt lat="49.593056" lon="10.242196">
<ele>315.418</ele>
<time>2019-05-30T11:53:05Z</time>
</trkpt>
<trkpt lat="49.593102" lon="10.242066">
<ele>314.681</ele>
<time>2019-05-30T11:53:06Z</time>
</trkpt>
<trkpt lat="49.593151" lon="10.241943">
<ele>314.283</ele>
<time>2019-05-30T11:53:07Z</time>
</trkpt>
<trkpt lat="49.593193" lon="10.241825">
<ele>313.674</ele>
<time>2019-05-30T11:53:08Z</time>
</trkpt>
<trkpt lat="49.593243" lon="10.241715">
<ele>313.17</ele>
<time>2019-05-30T11:53:09Z</time>
</trkpt>
<trkpt lat="49.593292" lon="10.241611">
<ele>312.52</ele>
<time>2019-05-30T11:53:10Z</time>
</trkpt>
<trkpt lat="49.593349" lon="10.241511">
<ele>312.085</ele>
<time>2019-05-30T11:53:11Z</time>
</trkpt>
<trkpt lat="49.593395" lon="10.241419">
<ele>311.44</ele>
<time>2019-05-30T11:53:12Z</time>
</trkpt>
<trkpt lat="49.593445" lon="10.241324">
<ele>310.952</ele>
<time>2019-05-30T11:53:13Z</time>
</trkpt>
<trkpt lat="49.593498" lon="10.241232">
<ele>310.589</ele>
<time>2019-05-30T11:53:14Z</time>
</trkpt>
<trkpt lat="49.593552" lon="10.241141">
<ele>310.354</ele>
<time>2019-05-30T11:53:15Z</time>
</trkpt>
<trkpt lat="49.593609" lon="10.241055">
<ele>309.872</ele>
<time>2019-05-30T11:53:16Z</time>
</trkpt>
<trkpt lat="49.593662" lon="10.24097">
<ele>309.609</ele>
<time>2019-05-30T11:53:17Z</time>
</trkpt>
<trkpt lat="49.593719" lon="10.240885">
<ele>309.416</ele>
<time>2019-05-30T11:53:18Z</time>
</trkpt>
<trkpt lat="49.593777" lon="10.2408">
<ele>308.937</ele>
<time>2019-05-30T11:53:19Z</time>
</trkpt>
<trkpt lat="49.593838" lon="10.240719">
<ele>308.615</ele>
<time>2019-05-30T11:53:20Z</time>
</trkpt>
<trkpt lat="49.593903" lon="10.240637">
<ele>308.08</ele>
<time>2019-05-30T11:53:21Z</time>
</trkpt>
<trkpt lat="49.593964" lon="10.240557">
<ele>307.661</ele>
<time>2019-05-30T11:53:22Z</time>
</trkpt>
<trkpt lat="49.594025" lon="10.240479">
<ele>307.338</ele>
<time>2019-05-30T11:53:23Z</time>
</trkpt>
<trkpt lat="49.594086" lon="10.240405">
<ele>307.111</ele>
<time>2019-05-30T11:53:24Z</time>
</trkpt>
<trkpt lat="49.594143" lon="10.240337">
<ele>306.954</ele>
<time>2019-05-30T11:53:25Z</time>
</trkpt>
<trkpt lat="49.5942" lon="10.240272">
<ele>306.865</ele>
<time>2019-05-30T11:53:26Z</time>
</trkpt>
<trkpt lat="49.594261" lon="10.24021">
<ele>306.572</ele>
<time>2019-05-30T11:53:27Z</time>
</trkpt>
<trkpt lat="49.594318" lon="10.240149">
<ele>306.372</ele>
<time>2019-05-30T11:53:28Z</time>
</trkpt>
<trkpt lat="49.594376" lon="10.240087">
<ele>306.195</ele>
<time>2019-05-30T11:53:29Z</time>
</trkpt>
<trkpt lat="49.594433" lon="10.240028">
<ele>306.049</ele>
<time>2019-05-30T11:53:30Z</time>
</trkpt>
<trkpt lat="49.59449" lon="10.239968">
<ele>305.935</ele>
<time>2019-05-30T11:53:31Z</time>
</trkpt>
<trkpt lat="49.594551" lon="10.239908">
<ele>305.85</ele>
<time>2019-05-30T11:53:32Z</time>
</trkpt>
<trkpt lat="49.594612" lon="10.23985">
<ele>305.797</ele>
<time>2019-05-30T11:53:33Z</time>
</trkpt>
<trkpt lat="49.594666" lon="10.239795">
<ele>305.771</ele>
<time>2019-05-30T11:53:34Z</time>
</trkpt>
<trkpt lat="49.594723" lon="10.239742">
<ele>305.771</ele>
<time>2019-05-30T11:53:35Z</time>
</trkpt>
<trkpt lat="49.594776" lon="10.239686">
<ele>305.771</ele>
<time>2019-05-30T11:53:36Z</time>
</trkpt>
<trkpt lat="49.59483" lon="10.239636">
<ele>305.771</ele>
<time>2019-05-30T11:53:37Z</time>
</trkpt>
<trkpt lat="49.594883" lon="10.239583">
<ele>305.771</ele>
<time>2019-05-30T11:53:38Z</time>
</trkpt>
<trkpt lat="49.594929" lon="10.239531">
<ele>305.771</ele>
<time>2019-05-30T11:53:39Z</time>
</trkpt>
<trkpt lat="49.594975" lon="10.239474">
<ele>305.771</ele>
<time>2019-05-30T11:53:40Z</time>
</trkpt>
<trkpt lat="49.59502" lon="10.239418">
<ele>305.771</ele>
<time>2019-05-30T11:53:41Z</time>
</trkpt>
<trkpt lat="49.595066" lon="10.23936">
<ele>305.771</ele>
<time>2019-05-30T11:53:42Z</time>
</trkpt>
<trkpt lat="49.595112" lon="10.239302">
<ele>305.771</ele>
<time>2019-05-30T11:53:43Z</time>
</trkpt>
<trkpt lat="49.595161" lon="10.23924">
<ele>305.771</ele>
<time>2019-05-30T11:53:44Z</time>
</trkpt>
<trkpt lat="49.595207" lon="10.239179">
<ele>305.771</ele>
<time>2019-05-30T11:53:45Z</time>
</trkpt>
<trkpt lat="49.595249" lon="10.239117">
<ele>305.771</ele>
<time>2019-05-30T11:53:46Z</time>
</trkpt>
<trkpt lat="49.595295" lon="10.239055">
<ele>305.998</ele>
<time>2019-05-30T11:53:47Z</time>
</trkpt>
<trkpt lat="49.595337" lon="10.238993">
<ele>306.161</ele>
<time>2019-05-30T11:53:48Z</time>
</trkpt>
<trkpt lat="49.595375" lon="10.238928">
<ele>306.325</ele>
<time>2019-05-30T11:53:49Z</time>
</trkpt>
<trkpt lat="49.595413" lon="10.238862">
<ele>306.456</ele>
<time>2019-05-30T11:53:50Z</time>
</trkpt>
<trkpt lat="49.595455" lon="10.238795">
<ele>306.557</ele>
<time>2019-05-30T11:53:51Z</time>
</trkpt>
<trkpt lat="49.595497" lon="10.23873">
<ele>306.631</ele>
<time>2019-05-30T11:53:52Z</time>
</trkpt>
<trkpt lat="49.595535" lon="10.238662">
<ele>306.679</ele>
<time>2019-05-30T11:53:53Z</time>
</trkpt>
<trkpt lat="49.595573" lon="10.238594">
<ele>306.703</ele>
<time>2019-05-30T11:53:54Z</time>
</trkpt>
<trkpt lat="49.595612" lon="10.238523">
<ele>306.943</ele>
<time>2019-05-30T11:53:55Z</time>
</trkpt>
<trkpt lat="49.59565" lon="10.23845">
<ele>307.133</ele>
<time>2019-05-30T11:53:56Z</time>
</trkpt>
<trkpt lat="49.595688" lon="10.238379">
<ele>307.277</ele>
<time>2019-05-30T11:53:57Z</time>
</trkpt>
<trkpt lat="49.59573" lon="10.238307">
<ele>307.376</ele>
<time>2019-05-30T11:53:58Z</time>
</trkpt>
<trkpt lat="49.595764" lon="10.238235">
<ele>307.484</ele>
<time>2019-05-30T11:53:59Z</time>
</trkpt>
<trkpt lat="49.595802" lon="10.238163">
<ele>307.562</ele>
<time>2019-05-30T11:54:00Z</time>
</trkpt>
<trkpt lat="49.595844" lon="10.238091">
<ele>307.611</ele>
<time>2019-05-30T11:54:01Z</time>
</trkpt>
<trkpt lat="49.595882" lon="10.238016">
<ele>307.635</ele>
<time>2019-05-30T11:54:02Z</time>
</trkpt>
<trkpt lat="49.595924" lon="10.237942">
<ele>307.634</ele>
<time>2019-05-30T11:54:03Z</time>
</trkpt>
<trkpt lat="49.595959" lon="10.237865">
<ele>307.635</ele>
<time>2019-05-30T11:54:04Z</time>
</trkpt>
<trkpt lat="49.596001" lon="10.237788">
<ele>307.392</ele>
<time>2019-05-30T11:54:05Z</time>
</trkpt>
<trkpt lat="49.596043" lon="10.237712">
<ele>307.202</ele>
<time>2019-05-30T11:54:06Z</time>
</trkpt>
<trkpt lat="49.596085" lon="10.237635">
<ele>307.056</ele>
<time>2019-05-30T11:54:07Z</time>
</trkpt>
<trkpt lat="49.596127" lon="10.237556">
<ele>306.958</ele>
<time>2019-05-30T11:54:08Z</time>
</trkpt>
<trkpt lat="49.596169" lon="10.237477">
<ele>306.851</ele>
<time>2019-05-30T11:54:09Z</time>
</trkpt>
<trkpt lat="49.596214" lon="10.237396">
<ele>306.775</ele>
<time>2019-05-30T11:54:10Z</time>
</trkpt>
<trkpt lat="49.596252" lon="10.237313">
<ele>306.728</ele>
<time>2019-05-30T11:54:11Z</time>
</trkpt>
<trkpt lat="49.596294" lon="10.237233">
<ele>306.452</ele>
<time>2019-05-30T11:54:12Z</time>
</trkpt>
<trkpt lat="49.59634" lon="10.237155">
<ele>306.192</ele>
<time>2019-05-30T11:54:13Z</time>
</trkpt>
<trkpt lat="49.596382" lon="10.237077">
<ele>306.022</ele>
<time>2019-05-30T11:54:14Z</time>
</trkpt>
<trkpt lat="49.59642" lon="10.237001">
<ele>305.899</ele>
<time>2019-05-30T11:54:15Z</time>
</trkpt>
<trkpt lat="49.596458" lon="10.236923">
<ele>305.816</ele>
<time>2019-05-30T11:54:16Z</time>
</trkpt>
<trkpt lat="49.5965" lon="10.236845">
<ele>305.76</ele>
<time>2019-05-30T11:54:17Z</time>
</trkpt>
<trkpt lat="49.596539" lon="10.236768">
<ele>305.714</ele>
<time>2019-05-30T11:54:18Z</time>
</trkpt>
<trkpt lat="49.596577" lon="10.236691">
<ele>305.686</ele>
<time>2019-05-30T11:54:19Z</time>
</trkpt>
<trkpt lat="49.596611" lon="10.236615">
<ele>305.686</ele>
<time>2019-05-30T11:54:20Z</time>
</trkpt>
<trkpt lat="49.596649" lon="10.236539">
<ele>305.686</ele>
<time>2019-05-30T11:54:21Z</time>
</trkpt>
<trkpt lat="49.596684" lon="10.236464">
<ele>305.686</ele>
<time>2019-05-30T11:54:22Z</time>
</trkpt>
<trkpt lat="49.596718" lon="10.236388">
<ele>305.686</ele>
<time>2019-05-30T11:54:23Z</time>
</trkpt>
<trkpt lat="49.596756" lon="10.236312">
<ele>305.686</ele>
<time>2019-05-30T11:54:24Z</time>
</trkpt>
<trkpt lat="49.59679" lon="10.236237">
<ele>305.686</ele>
<time>2019-05-30T11:54:25Z</time>
</trkpt>
<trkpt lat="49.596825" lon="10.23616">
<ele>305.686</ele>
<time>2019-05-30T11:54:26Z</time>
</trkpt>
<trkpt lat="49.596855" lon="10.236082">
<ele>305.686</ele>
<time>2019-05-30T11:54:27Z</time>
</trkpt>
<trkpt lat="49.596889" lon="10.236002">
<ele>305.686</ele>
<time>2019-05-30T11:54:28Z</time>
</trkpt>
<trkpt lat="49.596916" lon="10.235925">
<ele>305.686</ele>
<time>2019-05-30T11:54:29Z</time>
</trkpt>
<trkpt lat="49.596947" lon="10.235848">
<ele>305.686</ele>
<time>2019-05-30T11:54:30Z</time>
</trkpt>
<trkpt lat="49.596973" lon="10.235774">
<ele>305.686</ele>
<time>2019-05-30T11:54:31Z</time>
</trkpt>
<trkpt lat="49.597" lon="10.235703">
<ele>305.686</ele>
<time>2019-05-30T11:54:32Z</time>
</trkpt>
<trkpt lat="49.597027" lon="10.235634">
<ele>305.686</ele>
<time>2019-05-30T11:54:33Z</time>
</trkpt>
<trkpt lat="49.59705" lon="10.235565">
<ele>305.686</ele>
<time>2019-05-30T11:54:34Z</time>
</trkpt>
<trkpt lat="49.597073" lon="10.235498">
<ele>305.686</ele>
<time>2019-05-30T11:54:35Z</time>
</trkpt>
<trkpt lat="49.597099" lon="10.235435">
<ele>305.91</ele>
<time>2019-05-30T11:54:36Z</time>
</trkpt>
<trkpt lat="49.59713" lon="10.23537">
<ele>306.091</ele>
<time>2019-05-30T11:54:37Z</time>
</trkpt>
<trkpt lat="49.597153" lon="10.235305">
<ele>306.22</ele>
<time>2019-05-30T11:54:38Z</time>
</trkpt>
<trkpt lat="49.597176" lon="10.235238">
<ele>306.358</ele>
<time>2019-05-30T11:54:39Z</time>
</trkpt>
<trkpt lat="49.597198" lon="10.23517">
<ele>306.467</ele>
<time>2019-05-30T11:54:40Z</time>
</trkpt>
<trkpt lat="49.597218" lon="10.235106">
<ele>306.544</ele>
<time>2019-05-30T11:54:41Z</time>
</trkpt>
<trkpt lat="49.597237" lon="10.235045">
<ele>306.594</ele>
<time>2019-05-30T11:54:42Z</time>
</trkpt>
<trkpt lat="49.597263" lon="10.234982">
<ele>306.618</ele>
<time>2019-05-30T11:54:43Z</time>
</trkpt>
<trkpt lat="49.597282" lon="10.23492">
<ele>306.618</ele>
<time>2019-05-30T11:54:44Z</time>
</trkpt>
<trkpt lat="49.597301" lon="10.234855">
<ele>306.618</ele>
<time>2019-05-30T11:54:45Z</time>
</trkpt>
<trkpt lat="49.597328" lon="10.23479">
<ele>306.618</ele>
<time>2019-05-30T11:54:46Z</time>
</trkpt>
<trkpt lat="49.597343" lon="10.234723">
<ele>306.392</ele>
<time>2019-05-30T11:54:47Z</time>
</trkpt>
<trkpt lat="49.597366" lon="10.234655">
<ele>306.229</ele>
<time>2019-05-30T11:54:48Z</time>
</trkpt>
<trkpt lat="49.597389" lon="10.234587">
<ele>306.061</ele>
<time>2019-05-30T11:54:49Z</time>
</trkpt>
<trkpt lat="49.597408" lon="10.234518">
<ele>305.927</ele>
<time>2019-05-30T11:54:50Z</time>
</trkpt>
<trkpt lat="49.597427" lon="10.234448">
<ele>305.827</ele>
<time>2019-05-30T11:54:51Z</time>
</trkpt>
<trkpt lat="49.597454" lon="10.234377">
<ele>305.754</ele>
<time>2019-05-30T11:54:52Z</time>
</trkpt>
<trkpt lat="49.597473" lon="10.234305">
<ele>305.708</ele>
<time>2019-05-30T11:54:53Z</time>
</trkpt>
<trkpt lat="49.597496" lon="10.234232">
<ele>305.686</ele>
<time>2019-05-30T11:54:54Z</time>
</trkpt>
<trkpt lat="49.597523" lon="10.234157">
<ele>305.686</ele>
<time>2019-05-30T11:54:55Z</time>
</trkpt>
<trkpt lat="49.597546" lon="10.234083">
<ele>305.686</ele>
<time>2019-05-30T11:54:56Z</time>
</trkpt>
<trkpt lat="49.597572" lon="10.234012">
<ele>305.434</ele>
<time>2019-05-30T11:54:57Z</time>
</trkpt>
<trkpt lat="49.597595" lon="10.233938">
<ele>305.257</ele>
<time>2019-05-30T11:54:58Z</time>
</trkpt>
<trkpt lat="49.597622" lon="10.233864">
<ele>305.076</ele>
<time>2019-05-30T11:54:59Z</time>
</trkpt>
<trkpt lat="49.597645" lon="10.233787">
<ele>304.934</ele>
<time>2019-05-30T11:55:00Z</time>
</trkpt>
<trkpt lat="49.597672" lon="10.23371">
<ele>304.824</ele>
<time>2019-05-30T11:55:01Z</time>
</trkpt>
<trkpt lat="49.597694" lon="10.233635">
<ele>304.745</ele>
<time>2019-05-30T11:55:02Z</time>
</trkpt>
<trkpt lat="49.597721" lon="10.233558">
<ele>304.695</ele>
<time>2019-05-30T11:55:03Z</time>
</trkpt>
<trkpt lat="49.597752" lon="10.23348">
<ele>304.67</ele>
<time>2019-05-30T11:55:04Z</time>
</trkpt>
<trkpt lat="49.597775" lon="10.233398">
<ele>304.428</ele>
<time>2019-05-30T11:55:05Z</time>
</trkpt>
<trkpt lat="49.597801" lon="10.233316">
<ele>304.236</ele>
<time>2019-05-30T11:55:06Z</time>
</trkpt>
<trkpt lat="49.597824" lon="10.233233">
<ele>304.091</ele>
<time>2019-05-30T11:55:07Z</time>
</trkpt>
<trkpt lat="49.597851" lon="10.233151">
<ele>303.993</ele>
<time>2019-05-30T11:55:08Z</time>
</trkpt>
<trkpt lat="49.597881" lon="10.233068">
<ele>303.885</ele>
<time>2019-05-30T11:55:09Z</time>
</trkpt>
<trkpt lat="49.597908" lon="10.232984">
<ele>303.809</ele>
<time>2019-05-30T11:55:10Z</time>
</trkpt>
<trkpt lat="49.597935" lon="10.2329">
<ele>303.761</ele>
<time>2019-05-30T11:55:11Z</time>
</trkpt>
<trkpt lat="49.597961" lon="10.232819">
<ele>303.738</ele>
<time>2019-05-30T11:55:12Z</time>
</trkpt>
<trkpt lat="49.597992" lon="10.232735">
<ele>303.738</ele>
<time>2019-05-30T11:55:13Z</time>
</trkpt>
<trkpt lat="49.598022" lon="10.23265">
<ele>303.513</ele>
<time>2019-05-30T11:55:14Z</time>
</trkpt>
<trkpt lat="49.598049" lon="10.232567">
<ele>303.338</ele>
<time>2019-05-30T11:55:15Z</time>
</trkpt>
<trkpt lat="49.59808" lon="10.232483">
<ele>303.203</ele>
<time>2019-05-30T11:55:16Z</time>
</trkpt>
<trkpt lat="49.59811" lon="10.232402">
<ele>303.102</ele>
<time>2019-05-30T11:55:17Z</time>
</trkpt>
<trkpt lat="49.598145" lon="10.232324">
<ele>303.032</ele>
<time>2019-05-30T11:55:18Z</time>
</trkpt>
<trkpt lat="49.598179" lon="10.232244">
<ele>302.959</ele>
<time>2019-05-30T11:55:19Z</time>
</trkpt>
<trkpt lat="49.598213" lon="10.23217">
<ele>302.913</ele>
<time>2019-05-30T11:55:20Z</time>
</trkpt>
<trkpt lat="49.598244" lon="10.232095">
<ele>302.891</ele>
<time>2019-05-30T11:55:21Z</time>
</trkpt>
<trkpt lat="49.598282" lon="10.232023">
<ele>302.891</ele>
<time>2019-05-30T11:55:22Z</time>
</trkpt>
<trkpt lat="49.598316" lon="10.231953">
<ele>302.891</ele>
<time>2019-05-30T11:55:23Z</time>
</trkpt>
<trkpt lat="49.598358" lon="10.231885">
<ele>302.891</ele>
<time>2019-05-30T11:55:24Z</time>
</trkpt>
<trkpt lat="49.598392" lon="10.231816">
<ele>302.891</ele>
<time>2019-05-30T11:55:25Z</time>
</trkpt>
<trkpt lat="49.598434" lon="10.23175">
<ele>302.891</ele>
<time>2019-05-30T11:55:26Z</time>
</trkpt>
<trkpt lat="49.598469" lon="10.231682">
<ele>302.891</ele>
<time>2019-05-30T11:55:27Z</time>
</trkpt>
<trkpt lat="49.598507" lon="10.231617">
<ele>303.079</ele>
<time>2019-05-30T11:55:28Z</time>
</trkpt>
<trkpt lat="49.598545" lon="10.231552">
<ele>303.256</ele>
<time>2019-05-30T11:55:29Z</time>
</trkpt>
<trkpt lat="49.598587" lon="10.231486">
<ele>303.403</ele>
<time>2019-05-30T11:55:30Z</time>
</trkpt>
<trkpt lat="49.598625" lon="10.231421">
<ele>303.521</ele>
<time>2019-05-30T11:55:31Z</time>
</trkpt>
<trkpt lat="49.598663" lon="10.231356">
<ele>303.611</ele>
<time>2019-05-30T11:55:32Z</time>
</trkpt>
<trkpt lat="49.598705" lon="10.231291">
<ele>303.677</ele>
<time>2019-05-30T11:55:33Z</time>
</trkpt>
<trkpt lat="49.598747" lon="10.231223">
<ele>303.718</ele>
<time>2019-05-30T11:55:34Z</time>
</trkpt>
<trkpt lat="49.598793" lon="10.231158">
<ele>303.738</ele>
<time>2019-05-30T11:55:35Z</time>
</trkpt>
<trkpt lat="49.598831" lon="10.231091">
<ele>303.738</ele>
<time>2019-05-30T11:55:36Z</time>
</trkpt>
<trkpt lat="49.598869" lon="10.231023">
<ele>303.738</ele>
<time>2019-05-30T11:55:37Z</time>
</trkpt>
<trkpt lat="49.598915" lon="10.230957">
<ele>303.738</ele>
<time>2019-05-30T11:55:38Z</time>
</trkpt>
<trkpt lat="49.598957" lon="10.230888">
<ele>303.738</ele>
<time>2019-05-30T11:55:39Z</time>
</trkpt>
<trkpt lat="49.598999" lon="10.230818">
<ele>303.738</ele>
<time>2019-05-30T11:55:40Z</time>
</trkpt>
<trkpt lat="49.599045" lon="10.23075">
<ele>303.738</ele>
<time>2019-05-30T11:55:41Z</time>
</trkpt>
<trkpt lat="49.599087" lon="10.23068">
<ele>303.498</ele>
<time>2019-05-30T11:55:42Z</time>
</trkpt>
<trkpt lat="49.599129" lon="10.23061">
<ele>303.313</ele>
<time>2019-05-30T11:55:43Z</time>
</trkpt>
<trkpt lat="49.599174" lon="10.230538">
<ele>303.173</ele>
<time>2019-05-30T11:55:44Z</time>
</trkpt>
<trkpt lat="49.59922" lon="10.230467">
<ele>303.067</ele>
<time>2019-05-30T11:55:45Z</time>
</trkpt>
<trkpt lat="49.599262" lon="10.230394">
<ele>302.996</ele>
<time>2019-05-30T11:55:46Z</time>
</trkpt>
<trkpt lat="49.599308" lon="10.230325">
<ele>302.951</ele>
<time>2019-05-30T11:55:47Z</time>
</trkpt>
<trkpt lat="49.59935" lon="10.230255">
<ele>302.915</ele>
<time>2019-05-30T11:55:48Z</time>
</trkpt>
<trkpt lat="49.599392" lon="10.230185">
<ele>302.891</ele>
<time>2019-05-30T11:55:49Z</time>
</trkpt>
<trkpt lat="49.599438" lon="10.230117">
<ele>302.891</ele>
<time>2019-05-30T11:55:50Z</time>
</trkpt>
<trkpt lat="49.59948" lon="10.230046">
<ele>302.891</ele>
<time>2019-05-30T11:55:51Z</time>
</trkpt>
<trkpt lat="49.599525" lon="10.229975">
<ele>302.631</ele>
<time>2019-05-30T11:55:52Z</time>
</trkpt>
<trkpt lat="49.599571" lon="10.229903">
<ele>302.428</ele>
<time>2019-05-30T11:55:53Z</time>
</trkpt>
<trkpt lat="49.599613" lon="10.22983">
<ele>302.273</ele>
<time>2019-05-30T11:55:54Z</time>
</trkpt>
<trkpt lat="49.599655" lon="10.229757">
<ele>302.157</ele>
<time>2019-05-30T11:55:55Z</time>
</trkpt>
<trkpt lat="49.599701" lon="10.229684">
<ele>302.078</ele>
<time>2019-05-30T11:55:56Z</time>
</trkpt>
<trkpt lat="49.599739" lon="10.22961">
<ele>302.026</ele>
<time>2019-05-30T11:55:57Z</time>
</trkpt>
<trkpt lat="49.599785" lon="10.229539">
<ele>301.986</ele>
<time>2019-05-30T11:55:58Z</time>
</trkpt>
<trkpt lat="49.599831" lon="10.229466">
<ele>301.96</ele>
<time>2019-05-30T11:55:59Z</time>
</trkpt>
<trkpt lat="49.599873" lon="10.229395">
<ele>301.96</ele>
<time>2019-05-30T11:56:00Z</time>
</trkpt>
<trkpt lat="49.599915" lon="10.229325">
<ele>301.96</ele>
<time>2019-05-30T11:56:01Z</time>
</trkpt>
<trkpt lat="49.59996" lon="10.229255">
<ele>301.96</ele>
<time>2019-05-30T11:56:02Z</time>
</trkpt>
<trkpt lat="49.600002" lon="10.229185">
<ele>301.96</ele>
<time>2019-05-30T11:56:03Z</time>
</trkpt>
<trkpt lat="49.600044" lon="10.229116">
<ele>301.96</ele>
<time>2019-05-30T11:56:04Z</time>
</trkpt>
<trkpt lat="49.60009" lon="10.229047">
<ele>301.96</ele>
<time>2019-05-30T11:56:05Z</time>
</trkpt>
<trkpt lat="49.600132" lon="10.228976">
<ele>301.96</ele>
<time>2019-05-30T11:56:06Z</time>
</trkpt>
<trkpt lat="49.600174" lon="10.22891">
<ele>301.96</ele>
<time>2019-05-30T11:56:07Z</time>
</trkpt>
<trkpt lat="49.60022" lon="10.22884">
<ele>301.96</ele>
<time>2019-05-30T11:56:08Z</time>
</trkpt>
<trkpt lat="49.600262" lon="10.22877">
<ele>301.96</ele>
<time>2019-05-30T11:56:09Z</time>
</trkpt>
<trkpt lat="49.600304" lon="10.228703">
<ele>301.96</ele>
<time>2019-05-30T11:56:10Z</time>
</trkpt>
<trkpt lat="49.600346" lon="10.228635">
<ele>301.96</ele>
<time>2019-05-30T11:56:11Z</time>
</trkpt>
<trkpt lat="49.600391" lon="10.228565">
<ele>301.96</ele>
<time>2019-05-30T11:56:12Z</time>
</trkpt>
<trkpt lat="49.60043" lon="10.228492">
<ele>301.96</ele>
<time>2019-05-30T11:56:13Z</time>
</trkpt>
<trkpt lat="49.600468" lon="10.228422">
<ele>301.715</ele>
<time>2019-05-30T11:56:14Z</time>
</trkpt>
<trkpt lat="49.600502" lon="10.22835">
<ele>301.522</ele>
<time>2019-05-30T11:56:15Z</time>
</trkpt>
<trkpt lat="49.600536" lon="10.228278">
<ele>301.375</ele>
<time>2019-05-30T11:56:16Z</time>
</trkpt>
<trkpt lat="49.600571" lon="10.228209">
<ele>301.265</ele>
<time>2019-05-30T11:56:17Z</time>
</trkpt>
<trkpt lat="49.600605" lon="10.228138">
<ele>301.185</ele>
<time>2019-05-30T11:56:18Z</time>
</trkpt>
<trkpt lat="49.600639" lon="10.22807">
<ele>301.106</ele>
<time>2019-05-30T11:56:19Z</time>
</trkpt>
<trkpt lat="49.600674" lon="10.228004">
<ele>301.054</ele>
<time>2019-05-30T11:56:20Z</time>
</trkpt>
<trkpt lat="49.600712" lon="10.22793">
<ele>301.029</ele>
<time>2019-05-30T11:56:21Z</time>
</trkpt>
<trkpt lat="49.60075" lon="10.227859">
<ele>301.029</ele>
<time>2019-05-30T11:56:22Z</time>
</trkpt>
<trkpt lat="49.600796" lon="10.227788">
<ele>300.773</ele>
<time>2019-05-30T11:56:23Z</time>
</trkpt>
<trkpt lat="49.600842" lon="10.227718">
<ele>300.317</ele>
<time>2019-05-30T11:56:24Z</time>
</trkpt>
<trkpt lat="49.600883" lon="10.227652">
<ele>300.017</ele>
<time>2019-05-30T11:56:25Z</time>
</trkpt>
<trkpt lat="49.600929" lon="10.227585">
<ele>299.479</ele>
<time>2019-05-30T11:56:26Z</time>
</trkpt>
<trkpt lat="49.600971" lon="10.227513">
<ele>298.812</ele>
<time>2019-05-30T11:56:27Z</time>
</trkpt>
<trkpt lat="49.601002" lon="10.227433">
<ele>298.326</ele>
<time>2019-05-30T11:56:28Z</time>
</trkpt>
<trkpt lat="49.601017" lon="10.227342">
<ele>297.664</ele>
<time>2019-05-30T11:56:29Z</time>
</trkpt>
<trkpt lat="49.601028" lon="10.227248">
<ele>297.151</ele>
<time>2019-05-30T11:56:30Z</time>
</trkpt>
<trkpt lat="49.601032" lon="10.227153">
<ele>296.838</ele>
<time>2019-05-30T11:56:31Z</time>
</trkpt>
<trkpt lat="49.601036" lon="10.22706">
<ele>296.364</ele>
<time>2019-05-30T11:56:32Z</time>
</trkpt>
<trkpt lat="49.60104" lon="10.226972">
<ele>295.753</ele>
<time>2019-05-30T11:56:33Z</time>
</trkpt>
<trkpt lat="49.601048" lon="10.226885">
<ele>295.303</ele>
<time>2019-05-30T11:56:34Z</time>
</trkpt>
<trkpt lat="49.601055" lon="10.226799">
<ele>295.02</ele>
<time>2019-05-30T11:56:35Z</time>
</trkpt>
<trkpt lat="49.601067" lon="10.226715">
<ele>294.527</ele>
<time>2019-05-30T11:56:36Z</time>
</trkpt>
<trkpt lat="49.601074" lon="10.226629">
<ele>294.161</ele>
<time>2019-05-30T11:56:37Z</time>
</trkpt>
<trkpt lat="49.601074" lon="10.226542">
<ele>293.914</ele>
<time>2019-05-30T11:56:38Z</time>
</trkpt>
<trkpt lat="49.601078" lon="10.226453">
<ele>293.473</ele>
<time>2019-05-30T11:56:39Z</time>
</trkpt>
<trkpt lat="49.601086" lon="10.226363">
<ele>293.185</ele>
<time>2019-05-30T11:56:40Z</time>
</trkpt>
<trkpt lat="49.601093" lon="10.226274">
<ele>292.685</ele>
<time>2019-05-30T11:56:41Z</time>
</trkpt>
<trkpt lat="49.601101" lon="10.226183">
<ele>292.291</ele>
<time>2019-05-30T11:56:42Z</time>
</trkpt>
<trkpt lat="49.601112" lon="10.226097">
<ele>292.037</ele>
<time>2019-05-30T11:56:43Z</time>
</trkpt>
<trkpt lat="49.601116" lon="10.226022">
<ele>291.584</ele>
<time>2019-05-30T11:56:44Z</time>
</trkpt>
<trkpt lat="49.601128" lon="10.22594">
<ele>291.235</ele>
<time>2019-05-30T11:56:45Z</time>
</trkpt>
<trkpt lat="49.601124" lon="10.225857">
<ele>291.011</ele>
<time>2019-05-30T11:56:46Z</time>
</trkpt>
<trkpt lat="49.601112" lon="10.225768">
<ele>290.625</ele>
<time>2019-05-30T11:56:47Z</time>
</trkpt>
<trkpt lat="49.601112" lon="10.225678">
<ele>290.11</ele>
<time>2019-05-30T11:56:48Z</time>
</trkpt>
<trkpt lat="49.60112" lon="10.225592">
<ele>289.44</ele>
<time>2019-05-30T11:56:49Z</time>
</trkpt>
<trkpt lat="49.601128" lon="10.225502">
<ele>288.962</ele>
<time>2019-05-30T11:56:50Z</time>
</trkpt>
<trkpt lat="49.601143" lon="10.225411">
<ele>288.277</ele>
<time>2019-05-30T11:56:51Z</time>
</trkpt>
<trkpt lat="49.601158" lon="10.225308">
<ele>287.813</ele>
<time>2019-05-30T11:56:52Z</time>
</trkpt>
<trkpt lat="49.601173" lon="10.22521">
<ele>287.206</ele>
<time>2019-05-30T11:56:53Z</time>
</trkpt>
<trkpt lat="49.601189" lon="10.225113">
<ele>286.8</ele>
<time>2019-05-30T11:56:54Z</time>
</trkpt>
<trkpt lat="49.601208" lon="10.225022">
<ele>286.274</ele>
<time>2019-05-30T11:56:55Z</time>
</trkpt>
<trkpt lat="49.601223" lon="10.224932">
<ele>285.577</ele>
<time>2019-05-30T11:56:56Z</time>
</trkpt>
<trkpt lat="49.601238" lon="10.224842">
<ele>285.051</ele>
<time>2019-05-30T11:56:57Z</time>
</trkpt>
<trkpt lat="49.60125" lon="10.224756">
<ele>284.718</ele>
<time>2019-05-30T11:56:58Z</time>
</trkpt>
<trkpt lat="49.601273" lon="10.224678">
<ele>284.417</ele>
<time>2019-05-30T11:56:59Z</time>
</trkpt>
<trkpt lat="49.601292" lon="10.224607">
<ele>284.214</ele>
<time>2019-05-30T11:57:00Z</time>
</trkpt>
<trkpt lat="49.601303" lon="10.224543">
<ele>283.831</ele>
<time>2019-05-30T11:57:01Z</time>
</trkpt>
<trkpt lat="49.601307" lon="10.224482">
<ele>283.542</ele>
<time>2019-05-30T11:57:02Z</time>
</trkpt>
<trkpt lat="49.601322" lon="10.224422">
<ele>283.343</ele>
<time>2019-05-30T11:57:03Z</time>
</trkpt>
<trkpt lat="49.601337" lon="10.224359">
<ele>283.143</ele>
<time>2019-05-30T11:57:04Z</time>
</trkpt>
<trkpt lat="49.601345" lon="10.224289">
<ele>283.063</ele>
<time>2019-05-30T11:57:05Z</time>
</trkpt>
<trkpt lat="49.601349" lon="10.224216">
<ele>282.767</ele>
<time>2019-05-30T11:57:06Z</time>
</trkpt>
<trkpt lat="49.60136" lon="10.224154">
<ele>282.551</ele>
<time>2019-05-30T11:57:07Z</time>
</trkpt>
<trkpt lat="49.601364" lon="10.224092">
<ele>282.51</ele>
<time>2019-05-30T11:57:08Z</time>
</trkpt>
<trkpt lat="49.601368" lon="10.224031">
<ele>282.511</ele>
<time>2019-05-30T11:57:09Z</time>
</trkpt>
<trkpt lat="49.601376" lon="10.22398">
<ele>282.522</ele>
<time>2019-05-30T11:57:10Z</time>
</trkpt>
<trkpt lat="49.601391" lon="10.223933">
<ele>282.539</ele>
<time>2019-05-30T11:57:11Z</time>
</trkpt>
<trkpt lat="49.601398" lon="10.223875">
<ele>282.561</ele>
<time>2019-05-30T11:57:12Z</time>
</trkpt>
<trkpt lat="49.601418" lon="10.223833">
<ele>282.588</ele>
<time>2019-05-30T11:57:13Z</time>
</trkpt>
<trkpt lat="49.60144" lon="10.223801">
<ele>282.617</ele>
<time>2019-05-30T11:57:14Z</time>
</trkpt>
<trkpt lat="49.601471" lon="10.22378">
<ele>282.655</ele>
<time>2019-05-30T11:57:15Z</time>
</trkpt>
<trkpt lat="49.601501" lon="10.223782">
<ele>282.672</ele>
<time>2019-05-30T11:57:16Z</time>
</trkpt>
<trkpt lat="49.601532" lon="10.223797">
<ele>282.672</ele>
<time>2019-05-30T11:57:17Z</time>
</trkpt>
<trkpt lat="49.601566" lon="10.223808">
<ele>282.672</ele>
<time>2019-05-30T11:57:18Z</time>
</trkpt>
<trkpt lat="49.601593" lon="10.223815">
<ele>282.672</ele>
<time>2019-05-30T11:57:19Z</time>
</trkpt>
<trkpt lat="49.601631" lon="10.223841">
<ele>282.672</ele>
<time>2019-05-30T11:57:20Z</time>
</trkpt>
<trkpt lat="49.601669" lon="10.223857">
<ele>282.672</ele>
<time>2019-05-30T11:57:21Z</time>
</trkpt>
<trkpt lat="49.601696" lon="10.223862">
<ele>282.407</ele>
<time>2019-05-30T11:57:22Z</time>
</trkpt>
<trkpt lat="49.60173" lon="10.223878">
<ele>282.204</ele>
<time>2019-05-30T11:57:23Z</time>
</trkpt>
<trkpt lat="49.601788" lon="10.223906">
<ele>282.069</ele>
<time>2019-05-30T11:57:24Z</time>
</trkpt>
<trkpt lat="49.601826" lon="10.223933">
<ele>281.685</ele>
<time>2019-05-30T11:57:25Z</time>
</trkpt>
<trkpt lat="49.601871" lon="10.223977">
<ele>281.447</ele>
<time>2019-05-30T11:57:26Z</time>
</trkpt>
<trkpt lat="49.601933" lon="10.224027">
<ele>280.964</ele>
<time>2019-05-30T11:57:27Z</time>
</trkpt>
<trkpt lat="49.601994" lon="10.224073">
<ele>280.659</ele>
<time>2019-05-30T11:57:28Z</time>
</trkpt>
<trkpt lat="49.602066" lon="10.224123">
<ele>280.091</ele>
<time>2019-05-30T11:57:29Z</time>
</trkpt>
<trkpt lat="49.602131" lon="10.22417">
<ele>279.389</ele>
<time>2019-05-30T11:57:30Z</time>
</trkpt>
<trkpt lat="49.602203" lon="10.224216">
<ele>278.94</ele>
<time>2019-05-30T11:57:31Z</time>
</trkpt>
<trkpt lat="49.602276" lon="10.224259">
<ele>278.606</ele>
<time>2019-05-30T11:57:32Z</time>
</trkpt>
<trkpt lat="49.602348" lon="10.224294">
<ele>278.346</ele>
<time>2019-05-30T11:57:33Z</time>
</trkpt>
<trkpt lat="49.602417" lon="10.22431">
<ele>278.196</ele>
<time>2019-05-30T11:57:34Z</time>
</trkpt>
<trkpt lat="49.602489" lon="10.224314">
<ele>278.103</ele>
<time>2019-05-30T11:57:35Z</time>
</trkpt>
<trkpt lat="49.602554" lon="10.224322">
<ele>278.043</ele>
<time>2019-05-30T11:57:36Z</time>
</trkpt>
<trkpt lat="49.602619" lon="10.224335">
<ele>278.024</ele>
<time>2019-05-30T11:57:37Z</time>
</trkpt>
<trkpt lat="49.602684" lon="10.224355">
<ele>278.024</ele>
<time>2019-05-30T11:57:38Z</time>
</trkpt>
<trkpt lat="49.602737" lon="10.224385">
<ele>278.024</ele>
<time>2019-05-30T11:57:39Z</time>
</trkpt>
<trkpt lat="49.602783" lon="10.224415">
<ele>278.024</ele>
<time>2019-05-30T11:57:40Z</time>
</trkpt>
<trkpt lat="49.602837" lon="10.224446">
<ele>278.024</ele>
<time>2019-05-30T11:57:41Z</time>
</trkpt>
<trkpt lat="49.602875" lon="10.224482">
<ele>278.246</ele>
<time>2019-05-30T11:57:42Z</time>
</trkpt>
<trkpt lat="49.602913" lon="10.224511">
<ele>278.403</ele>
<time>2019-05-30T11:57:43Z</time>
</trkpt>
<trkpt lat="49.602951" lon="10.22454">
<ele>278.8</ele>
<time>2019-05-30T11:57:44Z</time>
</trkpt>
<trkpt lat="49.602985" lon="10.224566">
<ele>279.108</ele>
<time>2019-05-30T11:57:45Z</time>
</trkpt>
<trkpt lat="49.60302" lon="10.22459">
<ele>279.353</ele>
<time>2019-05-30T11:57:46Z</time>
</trkpt>
<trkpt lat="49.603046" lon="10.224618">
<ele>279.502</ele>
<time>2019-05-30T11:57:47Z</time>
</trkpt>
<trkpt lat="49.603065" lon="10.224649">
<ele>279.948</ele>
<time>2019-05-30T11:57:48Z</time>
</trkpt>
<trkpt lat="49.603096" lon="10.224673">
<ele>280.31</ele>
<time>2019-05-30T11:57:49Z</time>
</trkpt>
<trkpt lat="49.60313" lon="10.2247">
<ele>280.808</ele>
<time>2019-05-30T11:57:50Z</time>
</trkpt>
<trkpt lat="49.603157" lon="10.224709">
<ele>281.17</ele>
<time>2019-05-30T11:57:51Z</time>
</trkpt>
<trkpt lat="49.603184" lon="10.224725">
<ele>281.716</ele>
<time>2019-05-30T11:57:52Z</time>
</trkpt>
<trkpt lat="49.603214" lon="10.224748">
<ele>282.164</ele>
<time>2019-05-30T11:57:53Z</time>
</trkpt>
<trkpt lat="49.603252" lon="10.224767">
<ele>282.519</ele>
<time>2019-05-30T11:57:54Z</time>
</trkpt>
<trkpt lat="49.603279" lon="10.224785">
<ele>282.775</ele>
<time>2019-05-30T11:57:55Z</time>
</trkpt>
<trkpt lat="49.603313" lon="10.224818">
<ele>282.959</ele>
<time>2019-05-30T11:57:56Z</time>
</trkpt>
<trkpt lat="49.603348" lon="10.224849">
<ele>283.022</ele>
<time>2019-05-30T11:57:57Z</time>
</trkpt>
<trkpt lat="49.603382" lon="10.224885">
<ele>283.063</ele>
<time>2019-05-30T11:57:58Z</time>
</trkpt>
<trkpt lat="49.603413" lon="10.224925">
<ele>283.095</ele>
<time>2019-05-30T11:57:59Z</time>
</trkpt>
<trkpt lat="49.603447" lon="10.224968">
<ele>283.095</ele>
<time>2019-05-30T11:58:00Z</time>
</trkpt>
<trkpt lat="49.603474" lon="10.225012">
<ele>283.396</ele>
<time>2019-05-30T11:58:01Z</time>
</trkpt>
<trkpt lat="49.6035" lon="10.225054">
<ele>283.655</ele>
<time>2019-05-30T11:58:02Z</time>
</trkpt>
<trkpt lat="49.603531" lon="10.225097">
<ele>283.848</ele>
<time>2019-05-30T11:58:03Z</time>
</trkpt>
<trkpt lat="49.603554" lon="10.22514">
<ele>283.989</ele>
<time>2019-05-30T11:58:04Z</time>
</trkpt>
<trkpt lat="49.603588" lon="10.225185">
<ele>284.065</ele>
<time>2019-05-30T11:58:05Z</time>
</trkpt>
<trkpt lat="49.603611" lon="10.22523">
<ele>284.107</ele>
<time>2019-05-30T11:58:06Z</time>
</trkpt>
<trkpt lat="49.603642" lon="10.225278">
<ele>284.126</ele>
<time>2019-05-30T11:58:07Z</time>
</trkpt>
<trkpt lat="49.603672" lon="10.225327">
<ele>284.139</ele>
<time>2019-05-30T11:58:08Z</time>
</trkpt>
<trkpt lat="49.603699" lon="10.225374">
<ele>284.129</ele>
<time>2019-05-30T11:58:09Z</time>
</trkpt>
<trkpt lat="49.603729" lon="10.225418">
<ele>284.116</ele>
<time>2019-05-30T11:58:10Z</time>
</trkpt>
<trkpt lat="49.603752" lon="10.225465">
<ele>284.111</ele>
<time>2019-05-30T11:58:11Z</time>
</trkpt>
<trkpt lat="49.603783" lon="10.225513">
<ele>284.109</ele>
<time>2019-05-30T11:58:12Z</time>
</trkpt>
<trkpt lat="49.603809" lon="10.225561">
<ele>284.109</ele>
<time>2019-05-30T11:58:13Z</time>
</trkpt>
<trkpt lat="49.603832" lon="10.225616">
<ele>284.109</ele>
<time>2019-05-30T11:58:14Z</time>
</trkpt>
<trkpt lat="49.603848" lon="10.225667">
<ele>284.109</ele>
<time>2019-05-30T11:58:15Z</time>
</trkpt>
<trkpt lat="49.603867" lon="10.22572">
<ele>284.109</ele>
<time>2019-05-30T11:58:16Z</time>
</trkpt>
<trkpt lat="49.603882" lon="10.225775">
<ele>284.109</ele>
<time>2019-05-30T11:58:17Z</time>
</trkpt>
<trkpt lat="49.603893" lon="10.225835">
<ele>284.109</ele>
<time>2019-05-30T11:58:18Z</time>
</trkpt>
<trkpt lat="49.603909" lon="10.225898">
<ele>284.109</ele>
<time>2019-05-30T11:58:19Z</time>
</trkpt>
<trkpt lat="49.60392" lon="10.225959">
<ele>284.109</ele>
<time>2019-05-30T11:58:20Z</time>
</trkpt>
<trkpt lat="49.603928" lon="10.226026">
<ele>284.38</ele>
<time>2019-05-30T11:58:21Z</time>
</trkpt>
<trkpt lat="49.603943" lon="10.226089">
<ele>284.592</ele>
<time>2019-05-30T11:58:22Z</time>
</trkpt>
<trkpt lat="49.603951" lon="10.226151">
<ele>284.753</ele>
<time>2019-05-30T11:58:23Z</time>
</trkpt>
<trkpt lat="49.603962" lon="10.226216">
<ele>284.864</ele>
<time>2019-05-30T11:58:24Z</time>
</trkpt>
<trkpt lat="49.603977" lon="10.226278">
<ele>284.942</ele>
<time>2019-05-30T11:58:25Z</time>
</trkpt>
<trkpt lat="49.603989" lon="10.226338">
<ele>284.994</ele>
<time>2019-05-30T11:58:26Z</time>
</trkpt>
<trkpt lat="49.604008" lon="10.226397">
<ele>285.017</ele>
<time>2019-05-30T11:58:27Z</time>
</trkpt>
<trkpt lat="49.604019" lon="10.226455">
<ele>285.039</ele>
<time>2019-05-30T11:58:28Z</time>
</trkpt>
<trkpt lat="49.604034" lon="10.226514">
<ele>285.039</ele>
<time>2019-05-30T11:58:29Z</time>
</trkpt>
<trkpt lat="49.604053" lon="10.226573">
<ele>285.29</ele>
<time>2019-05-30T11:58:30Z</time>
</trkpt>
<trkpt lat="49.604076" lon="10.226631">
<ele>285.485</ele>
<time>2019-05-30T11:58:31Z</time>
</trkpt>
<trkpt lat="49.604092" lon="10.22669">
<ele>285.63</ele>
<time>2019-05-30T11:58:32Z</time>
</trkpt>
<trkpt lat="49.604111" lon="10.226748">
<ele>285.721</ele>
<time>2019-05-30T11:58:33Z</time>
</trkpt>
<trkpt lat="49.604134" lon="10.226805">
<ele>286.058</ele>
<time>2019-05-30T11:58:34Z</time>
</trkpt>
<trkpt lat="49.604153" lon="10.22686">
<ele>286.303</ele>
<time>2019-05-30T11:58:35Z</time>
</trkpt>
<trkpt lat="49.604176" lon="10.226914">
<ele>286.473</ele>
<time>2019-05-30T11:58:36Z</time>
</trkpt>
<trkpt lat="49.604195" lon="10.226969">
<ele>286.582</ele>
<time>2019-05-30T11:58:37Z</time>
</trkpt>
<trkpt lat="49.604218" lon="10.227018">
<ele>286.658</ele>
<time>2019-05-30T11:58:38Z</time>
</trkpt>
<trkpt lat="49.60424" lon="10.22707">
<ele>286.738</ele>
<time>2019-05-30T11:58:39Z</time>
</trkpt>
<trkpt lat="49.604259" lon="10.227118">
<ele>286.788</ele>
<time>2019-05-30T11:58:40Z</time>
</trkpt>
<trkpt lat="49.604279" lon="10.227165">
<ele>287.035</ele>
<time>2019-05-30T11:58:41Z</time>
</trkpt>
<trkpt lat="49.604301" lon="10.227214">
<ele>287.282</ele>
<time>2019-05-30T11:58:42Z</time>
</trkpt>
<trkpt lat="49.604324" lon="10.227262">
<ele>287.444</ele>
<time>2019-05-30T11:58:43Z</time>
</trkpt>
<trkpt lat="49.604347" lon="10.227308">
<ele>287.562</ele>
<time>2019-05-30T11:58:44Z</time>
</trkpt>
<trkpt lat="49.60437" lon="10.227352">
<ele>287.645</ele>
<time>2019-05-30T11:58:45Z</time>
</trkpt>
<trkpt lat="49.604397" lon="10.227396">
<ele>287.697</ele>
<time>2019-05-30T11:58:46Z</time>
</trkpt>
<trkpt lat="49.60442" lon="10.227442">
<ele>287.722</ele>
<time>2019-05-30T11:58:47Z</time>
</trkpt>
<trkpt lat="49.604439" lon="10.227489">
<ele>287.744</ele>
<time>2019-05-30T11:58:48Z</time>
</trkpt>
<trkpt lat="49.604465" lon="10.227534">
<ele>287.992</ele>
<time>2019-05-30T11:58:49Z</time>
</trkpt>
<trkpt lat="49.604492" lon="10.22758">
<ele>288.199</ele>
<time>2019-05-30T11:58:50Z</time>
</trkpt>
<trkpt lat="49.604515" lon="10.227623">
<ele>288.368</ele>
<time>2019-05-30T11:58:51Z</time>
</trkpt>
<trkpt lat="49.604538" lon="10.227667">
<ele>288.506</ele>
<time>2019-05-30T11:58:52Z</time>
</trkpt>
<trkpt lat="49.604565" lon="10.22771">
<ele>288.612</ele>
<time>2019-05-30T11:58:53Z</time>
</trkpt>
<trkpt lat="49.604588" lon="10.227755">
<ele>288.674</ele>
<time>2019-05-30T11:58:54Z</time>
</trkpt>
<trkpt lat="49.604614" lon="10.227798">
<ele>289.019</ele>
<time>2019-05-30T11:58:55Z</time>
</trkpt>
<trkpt lat="49.604641" lon="10.227842">
<ele>289.287</ele>
<time>2019-05-30T11:58:56Z</time>
</trkpt>
<trkpt lat="49.604664" lon="10.227883">
<ele>289.486</ele>
<time>2019-05-30T11:58:57Z</time>
</trkpt>
<trkpt lat="49.604694" lon="10.227925">
<ele>289.613</ele>
<time>2019-05-30T11:58:58Z</time>
</trkpt>
<trkpt lat="49.604717" lon="10.227968">
<ele>289.751</ele>
<time>2019-05-30T11:58:59Z</time>
</trkpt>
<trkpt lat="49.60474" lon="10.22801">
<ele>289.85</ele>
<time>2019-05-30T11:59:00Z</time>
</trkpt>
<trkpt lat="49.604763" lon="10.228052">
<ele>289.91</ele>
<time>2019-05-30T11:59:01Z</time>
</trkpt>
<trkpt lat="49.604794" lon="10.228091">
<ele>290.188</ele>
<time>2019-05-30T11:59:02Z</time>
</trkpt>
<trkpt lat="49.604816" lon="10.228133">
<ele>290.447</ele>
<time>2019-05-30T11:59:03Z</time>
</trkpt>
<trkpt lat="49.604843" lon="10.228171">
<ele>290.615</ele>
<time>2019-05-30T11:59:04Z</time>
</trkpt>
<trkpt lat="49.604866" lon="10.228211">
<ele>290.736</ele>
<time>2019-05-30T11:59:05Z</time>
</trkpt>
<trkpt lat="49.604893" lon="10.228251">
<ele>290.83</ele>
<time>2019-05-30T11:59:06Z</time>
</trkpt>
<trkpt lat="49.604919" lon="10.228292">
<ele>290.884</ele>
<time>2019-05-30T11:59:07Z</time>
</trkpt>
<trkpt lat="49.604942" lon="10.228334">
<ele>290.929</ele>
<time>2019-05-30T11:59:08Z</time>
</trkpt>
<trkpt lat="49.604965" lon="10.228381">
<ele>291.207</ele>
<time>2019-05-30T11:59:09Z</time>
</trkpt>
<trkpt lat="49.604992" lon="10.228427">
<ele>291.415</ele>
<time>2019-05-30T11:59:10Z</time>
</trkpt>
<trkpt lat="49.605019" lon="10.228471">
<ele>291.588</ele>
<time>2019-05-30T11:59:11Z</time>
</trkpt>
<trkpt lat="49.605042" lon="10.228515">
<ele>291.725</ele>
<time>2019-05-30T11:59:12Z</time>
</trkpt>
<trkpt lat="49.605064" lon="10.228559">
<ele>291.808</ele>
<time>2019-05-30T11:59:13Z</time>
</trkpt>
<trkpt lat="49.605087" lon="10.228603">
<ele>292.141</ele>
<time>2019-05-30T11:59:14Z</time>
</trkpt>
<trkpt lat="49.60511" lon="10.228648">
<ele>292.4</ele>
<time>2019-05-30T11:59:15Z</time>
</trkpt>
<trkpt lat="49.605129" lon="10.228695">
<ele>292.595</ele>
<time>2019-05-30T11:59:16Z</time>
</trkpt>
<trkpt lat="49.605152" lon="10.228742">
<ele>292.729</ele>
<time>2019-05-30T11:59:17Z</time>
</trkpt>
<trkpt lat="49.605175" lon="10.228789">
<ele>292.816</ele>
<time>2019-05-30T11:59:18Z</time>
</trkpt>
<trkpt lat="49.605194" lon="10.228837">
<ele>292.902</ele>
<time>2019-05-30T11:59:19Z</time>
</trkpt>
<trkpt lat="49.605217" lon="10.228886">
<ele>293.188</ele>
<time>2019-05-30T11:59:20Z</time>
</trkpt>
<trkpt lat="49.605236" lon="10.228933">
<ele>293.407</ele>
<time>2019-05-30T11:59:21Z</time>
</trkpt>
<trkpt lat="49.605255" lon="10.228984">
<ele>293.643</ele>
<time>2019-05-30T11:59:22Z</time>
</trkpt>
<trkpt lat="49.605278" lon="10.229032">
<ele>293.741</ele>
<time>2019-05-30T11:59:23Z</time>
</trkpt>
<trkpt lat="49.605297" lon="10.22908">
<ele>294.078</ele>
<time>2019-05-30T11:59:24Z</time>
</trkpt>
<trkpt lat="49.60532" lon="10.229129">
<ele>294.333</ele>
<time>2019-05-30T11:59:25Z</time>
</trkpt>
<trkpt lat="49.605343" lon="10.229177">
<ele>294.498</ele>
<time>2019-05-30T11:59:26Z</time>
</trkpt>
<trkpt lat="49.605362" lon="10.229229">
<ele>294.618</ele>
<time>2019-05-30T11:59:27Z</time>
</trkpt>
<trkpt lat="49.605385" lon="10.22928">
<ele>294.695</ele>
<time>2019-05-30T11:59:28Z</time>
</trkpt>
<trkpt lat="49.605408" lon="10.229334">
<ele>294.775</ele>
<time>2019-05-30T11:59:29Z</time>
</trkpt>
<trkpt lat="49.605431" lon="10.229384">
<ele>294.826</ele>
<time>2019-05-30T11:59:30Z</time>
</trkpt>
<trkpt lat="49.605457" lon="10.229433">
<ele>294.85</ele>
<time>2019-05-30T11:59:31Z</time>
</trkpt>
<trkpt lat="49.60548" lon="10.229482">
<ele>294.85</ele>
<time>2019-05-30T11:59:32Z</time>
</trkpt>
<trkpt lat="49.605511" lon="10.22953">
<ele>294.85</ele>
<time>2019-05-30T11:59:33Z</time>
</trkpt>
<trkpt lat="49.605541" lon="10.229577">
<ele>294.85</ele>
<time>2019-05-30T11:59:34Z</time>
</trkpt>
<trkpt lat="49.605572" lon="10.229621">
<ele>294.85</ele>
<time>2019-05-30T11:59:35Z</time>
</trkpt>
<trkpt lat="49.605602" lon="10.22966">
<ele>295.104</ele>
<time>2019-05-30T11:59:36Z</time>
</trkpt>
<trkpt lat="49.605637" lon="10.229694">
<ele>295.304</ele>
<time>2019-05-30T11:59:37Z</time>
</trkpt>
<trkpt lat="49.605675" lon="10.229726">
<ele>295.442</ele>
<time>2019-05-30T11:59:38Z</time>
</trkpt>
<trkpt lat="49.605705" lon="10.229758">
<ele>295.591</ele>
<time>2019-05-30T11:59:39Z</time>
</trkpt>
<trkpt lat="49.605743" lon="10.229787">
<ele>295.705</ele>
<time>2019-05-30T11:59:40Z</time>
</trkpt>
<trkpt lat="49.605778" lon="10.229815">
<ele>295.786</ele>
<time>2019-05-30T11:59:41Z</time>
</trkpt>
<trkpt lat="49.605816" lon="10.229843">
<ele>295.84</ele>
<time>2019-05-30T11:59:42Z</time>
</trkpt>
<trkpt lat="49.605854" lon="10.229872">
<ele>295.865</ele>
<time>2019-05-30T11:59:43Z</time>
</trkpt>
<trkpt lat="49.605892" lon="10.229897">
<ele>295.865</ele>
<time>2019-05-30T11:59:44Z</time>
</trkpt>
<trkpt lat="49.60593" lon="10.229921">
<ele>295.865</ele>
<time>2019-05-30T11:59:45Z</time>
</trkpt>
<trkpt lat="49.605968" lon="10.229946">
<ele>296.099</ele>
<time>2019-05-30T11:59:46Z</time>
</trkpt>
<trkpt lat="49.60601" lon="10.22997">
<ele>296.285</ele>
<time>2019-05-30T11:59:47Z</time>
</trkpt>
<trkpt lat="49.606049" lon="10.229994">
<ele>296.411</ele>
<time>2019-05-30T11:59:48Z</time>
</trkpt>
<trkpt lat="49.606087" lon="10.230015">
<ele>296.547</ele>
<time>2019-05-30T11:59:49Z</time>
</trkpt>
<trkpt lat="49.606125" lon="10.230036">
<ele>296.648</ele>
<time>2019-05-30T11:59:50Z</time>
</trkpt>
<trkpt lat="49.606163" lon="10.230053">
<ele>296.724</ele>
<time>2019-05-30T11:59:51Z</time>
</trkpt>
<trkpt lat="49.606201" lon="10.230073">
<ele>296.774</ele>
<time>2019-05-30T11:59:52Z</time>
</trkpt>
<trkpt lat="49.606239" lon="10.230095">
<ele>296.796</ele>
<time>2019-05-30T11:59:53Z</time>
</trkpt>
<trkpt lat="49.606277" lon="10.230115">
<ele>297.039</ele>
<time>2019-05-30T11:59:54Z</time>
</trkpt>
<trkpt lat="49.606312" lon="10.230132">
<ele>297.231</ele>
<time>2019-05-30T11:59:55Z</time>
</trkpt>
<trkpt lat="49.606346" lon="10.230148">
<ele>297.379</ele>
<time>2019-05-30T11:59:56Z</time>
</trkpt>
<trkpt lat="49.606384" lon="10.230162">
<ele>297.465</ele>
<time>2019-05-30T11:59:57Z</time>
</trkpt>
<trkpt lat="49.606419" lon="10.230177">
<ele>297.753</ele>
<time>2019-05-30T11:59:58Z</time>
</trkpt>
<trkpt lat="49.606453" lon="10.23019">
<ele>298.008</ele>
<time>2019-05-30T11:59:59Z</time>
</trkpt>
<trkpt lat="49.606487" lon="10.230206">
<ele>298.206</ele>
<time>2019-05-30T12:00:00Z</time>
</trkpt>
<trkpt lat="49.606522" lon="10.230218">
<ele>298.351</ele>
<time>2019-05-30T12:00:01Z</time>
</trkpt>
<trkpt lat="49.606556" lon="10.230231">
<ele>298.443</ele>
<time>2019-05-30T12:00:02Z</time>
</trkpt>
<trkpt lat="49.60659" lon="10.230247">
<ele>298.512</ele>
<time>2019-05-30T12:00:03Z</time>
</trkpt>
<trkpt lat="49.606625" lon="10.23026">
<ele>298.553</ele>
<time>2019-05-30T12:00:04Z</time>
</trkpt>
<trkpt lat="49.606663" lon="10.230272">
<ele>298.574</ele>
<time>2019-05-30T12:00:05Z</time>
</trkpt>
<trkpt lat="49.606701" lon="10.230283">
<ele>298.808</ele>
<time>2019-05-30T12:00:06Z</time>
</trkpt>
<trkpt lat="49.606739" lon="10.230295">
<ele>298.994</ele>
<time>2019-05-30T12:00:07Z</time>
</trkpt>
<trkpt lat="49.606781" lon="10.230309">
<ele>299.12</ele>
<time>2019-05-30T12:00:08Z</time>
</trkpt>
<trkpt lat="49.606815" lon="10.230325">
<ele>299.26</ele>
<time>2019-05-30T12:00:09Z</time>
</trkpt>
<trkpt lat="49.606853" lon="10.23034">
<ele>299.354</ele>
<time>2019-05-30T12:00:10Z</time>
</trkpt>
<trkpt lat="49.606892" lon="10.230356">
<ele>299.662</ele>
<time>2019-05-30T12:00:11Z</time>
</trkpt>
<trkpt lat="49.60693" lon="10.23037">
<ele>299.902</ele>
<time>2019-05-30T12:00:12Z</time>
</trkpt>
<trkpt lat="49.606964" lon="10.230386">
<ele>300.079</ele>
<time>2019-05-30T12:00:13Z</time>
</trkpt>
<trkpt lat="49.607002" lon="10.230396">
<ele>300.254</ele>
<time>2019-05-30T12:00:14Z</time>
</trkpt>
<trkpt lat="49.60704" lon="10.230411">
<ele>300.334</ele>
<time>2019-05-30T12:00:15Z</time>
</trkpt>
<trkpt lat="49.607075" lon="10.230423">
<ele>300.384</ele>
<time>2019-05-30T12:00:16Z</time>
</trkpt>
<trkpt lat="49.607109" lon="10.230438">
<ele>300.413</ele>
<time>2019-05-30T12:00:17Z</time>
</trkpt>
<trkpt lat="49.607151" lon="10.230455">
<ele>300.436</ele>
<time>2019-05-30T12:00:18Z</time>
</trkpt>
<trkpt lat="49.607189" lon="10.230472">
<ele>300.436</ele>
<time>2019-05-30T12:00:19Z</time>
</trkpt>
<trkpt lat="49.607227" lon="10.230489">
<ele>300.742</ele>
<time>2019-05-30T12:00:20Z</time>
</trkpt>
<trkpt lat="49.607265" lon="10.230503">
<ele>300.977</ele>
<time>2019-05-30T12:00:21Z</time>
</trkpt>
<trkpt lat="49.607304" lon="10.230516">
<ele>301.153</ele>
<time>2019-05-30T12:00:22Z</time>
</trkpt>
<trkpt lat="49.607338" lon="10.230532">
<ele>301.281</ele>
<time>2019-05-30T12:00:23Z</time>
</trkpt>
<trkpt lat="49.607376" lon="10.230547">
<ele>301.374</ele>
<time>2019-05-30T12:00:24Z</time>
</trkpt>
<trkpt lat="49.607414" lon="10.230563">
<ele>301.421</ele>
<time>2019-05-30T12:00:25Z</time>
</trkpt>
<trkpt lat="49.607452" lon="10.23058">
<ele>301.452</ele>
<time>2019-05-30T12:00:26Z</time>
</trkpt>
<trkpt lat="49.607491" lon="10.230598">
<ele>301.452</ele>
<time>2019-05-30T12:00:27Z</time>
</trkpt>
<trkpt lat="49.607529" lon="10.230617">
<ele>301.452</ele>
<time>2019-05-30T12:00:28Z</time>
</trkpt>
<trkpt lat="49.607563" lon="10.230635">
<ele>301.659</ele>
<time>2019-05-30T12:00:29Z</time>
</trkpt>
<trkpt lat="49.607601" lon="10.230656">
<ele>301.831</ele>
<time>2019-05-30T12:00:30Z</time>
</trkpt>
<trkpt lat="49.607639" lon="10.230675">
<ele>301.975</ele>
<time>2019-05-30T12:00:31Z</time>
</trkpt>
<trkpt lat="49.607677" lon="10.230696">
<ele>302.09</ele>
<time>2019-05-30T12:00:32Z</time>
</trkpt>
<trkpt lat="49.607716" lon="10.230715">
<ele>302.177</ele>
<time>2019-05-30T12:00:33Z</time>
</trkpt>
<trkpt lat="49.607758" lon="10.230737">
<ele>302.239</ele>
<time>2019-05-30T12:00:34Z</time>
</trkpt>
<trkpt lat="49.607792" lon="10.230762">
<ele>302.28</ele>
<time>2019-05-30T12:00:35Z</time>
</trkpt>
<trkpt lat="49.60783" lon="10.230785">
<ele>302.299</ele>
<time>2019-05-30T12:00:36Z</time>
</trkpt>
<trkpt lat="49.607868" lon="10.23081">
<ele>302.528</ele>
<time>2019-05-30T12:00:37Z</time>
</trkpt>
<trkpt lat="49.60791" lon="10.230834">
<ele>302.688</ele>
<time>2019-05-30T12:00:38Z</time>
</trkpt>
<trkpt lat="49.607948" lon="10.230857">
<ele>302.854</ele>
<time>2019-05-30T12:00:39Z</time>
</trkpt>
<trkpt lat="49.607986" lon="10.23088">
<ele>302.986</ele>
<time>2019-05-30T12:00:40Z</time>
</trkpt>
<trkpt lat="49.608021" lon="10.230904">
<ele>303.087</ele>
<time>2019-05-30T12:00:41Z</time>
</trkpt>
<trkpt lat="49.608059" lon="10.230928">
<ele>303.16</ele>
<time>2019-05-30T12:00:42Z</time>
</trkpt>
<trkpt lat="49.608097" lon="10.230953">
<ele>303.206</ele>
<time>2019-05-30T12:00:43Z</time>
</trkpt>
<trkpt lat="49.608131" lon="10.23098">
<ele>303.23</ele>
<time>2019-05-30T12:00:44Z</time>
</trkpt>
<trkpt lat="49.60817" lon="10.231007">
<ele>303.23</ele>
<time>2019-05-30T12:00:45Z</time>
</trkpt>
<trkpt lat="49.608208" lon="10.231035">
<ele>303.23</ele>
<time>2019-05-30T12:00:46Z</time>
</trkpt>
<trkpt lat="49.608246" lon="10.231062">
<ele>303.23</ele>
<time>2019-05-30T12:00:47Z</time>
</trkpt>
<trkpt lat="49.60828" lon="10.231088">
<ele>303.23</ele>
<time>2019-05-30T12:00:48Z</time>
</trkpt>
<trkpt lat="49.608318" lon="10.231113">
<ele>303.23</ele>
<time>2019-05-30T12:00:49Z</time>
</trkpt>
<trkpt lat="49.60836" lon="10.231142">
<ele>303.23</ele>
<time>2019-05-30T12:00:50Z</time>
</trkpt>
<trkpt lat="49.608402" lon="10.23117">
<ele>303.23</ele>
<time>2019-05-30T12:00:51Z</time>
</trkpt>
<trkpt lat="49.60844" lon="10.231198">
<ele>303.497</ele>
<time>2019-05-30T12:00:52Z</time>
</trkpt>
<trkpt lat="49.608479" lon="10.231226">
<ele>303.703</ele>
<time>2019-05-30T12:00:53Z</time>
</trkpt>
<trkpt lat="49.608524" lon="10.231256">
<ele>303.858</ele>
<time>2019-05-30T12:00:54Z</time>
</trkpt>
<trkpt lat="49.608566" lon="10.231282">
<ele>303.971</ele>
<time>2019-05-30T12:00:55Z</time>
</trkpt>
<trkpt lat="49.608608" lon="10.23131">
<ele>304.05</ele>
<time>2019-05-30T12:00:56Z</time>
</trkpt>
<trkpt lat="49.608646" lon="10.231339">
<ele>304.098</ele>
<time>2019-05-30T12:00:57Z</time>
</trkpt>
<trkpt lat="49.608685" lon="10.231372">
<ele>304.136</ele>
<time>2019-05-30T12:00:58Z</time>
</trkpt>
<trkpt lat="49.60873" lon="10.231403">
<ele>304.162</ele>
<time>2019-05-30T12:00:59Z</time>
</trkpt>
<trkpt lat="49.608772" lon="10.231431">
<ele>304.162</ele>
<time>2019-05-30T12:01:00Z</time>
</trkpt>
<trkpt lat="49.608814" lon="10.231463">
<ele>304.162</ele>
<time>2019-05-30T12:01:01Z</time>
</trkpt>
<trkpt lat="49.608856" lon="10.231494">
<ele>304.162</ele>
<time>2019-05-30T12:01:02Z</time>
</trkpt>
<trkpt lat="49.608902" lon="10.231525">
<ele>304.162</ele>
<time>2019-05-30T12:01:03Z</time>
</trkpt>
<trkpt lat="49.608948" lon="10.231559">
<ele>304.162</ele>
<time>2019-05-30T12:01:04Z</time>
</trkpt>
<trkpt lat="49.608994" lon="10.231592">
<ele>304.162</ele>
<time>2019-05-30T12:01:05Z</time>
</trkpt>
<trkpt lat="49.609039" lon="10.231628">
<ele>304.162</ele>
<time>2019-05-30T12:01:06Z</time>
</trkpt>
<trkpt lat="49.609089" lon="10.231664">
<ele>304.162</ele>
<time>2019-05-30T12:01:07Z</time>
</trkpt>
<trkpt lat="49.609135" lon="10.231698">
<ele>304.162</ele>
<time>2019-05-30T12:01:08Z</time>
</trkpt>
<trkpt lat="49.609188" lon="10.231733">
<ele>304.162</ele>
<time>2019-05-30T12:01:09Z</time>
</trkpt>
<trkpt lat="49.609238" lon="10.231771">
<ele>304.162</ele>
<time>2019-05-30T12:01:10Z</time>
</trkpt>
<trkpt lat="49.609287" lon="10.231805">
<ele>304.162</ele>
<time>2019-05-30T12:01:11Z</time>
</trkpt>
<trkpt lat="49.609337" lon="10.23184">
<ele>304.162</ele>
<time>2019-05-30T12:01:12Z</time>
</trkpt>
<trkpt lat="49.60939" lon="10.231875">
<ele>304.162</ele>
<time>2019-05-30T12:01:13Z</time>
</trkpt>
<trkpt lat="49.609444" lon="10.231914">
<ele>304.162</ele>
<time>2019-05-30T12:01:14Z</time>
</trkpt>
<trkpt lat="49.609493" lon="10.231953">
<ele>304.162</ele>
<time>2019-05-30T12:01:15Z</time>
</trkpt>
<trkpt lat="49.609547" lon="10.231992">
<ele>304.162</ele>
<time>2019-05-30T12:01:16Z</time>
</trkpt>
<trkpt lat="49.609596" lon="10.232024">
<ele>304.162</ele>
<time>2019-05-30T12:01:17Z</time>
</trkpt>
<trkpt lat="49.60965" lon="10.232057">
<ele>304.162</ele>
<time>2019-05-30T12:01:18Z</time>
</trkpt>
<trkpt lat="49.609703" lon="10.23209">
<ele>304.162</ele>
<time>2019-05-30T12:01:19Z</time>
</trkpt>
<trkpt lat="49.609753" lon="10.232126">
<ele>304.162</ele>
<time>2019-05-30T12:01:20Z</time>
</trkpt>
<trkpt lat="49.609806" lon="10.232163">
<ele>304.162</ele>
<time>2019-05-30T12:01:21Z</time>
</trkpt>
<trkpt lat="49.609859" lon="10.2322">
<ele>304.162</ele>
<time>2019-05-30T12:01:22Z</time>
</trkpt>
<trkpt lat="49.609909" lon="10.232233">
<ele>304.162</ele>
<time>2019-05-30T12:01:23Z</time>
</trkpt>
<trkpt lat="49.609959" lon="10.232266">
<ele>304.162</ele>
<time>2019-05-30T12:01:24Z</time>
</trkpt>
<trkpt lat="49.610008" lon="10.232299">
<ele>304.162</ele>
<time>2019-05-30T12:01:25Z</time>
</trkpt>
<trkpt lat="49.610054" lon="10.232328">
<ele>304.162</ele>
<time>2019-05-30T12:01:26Z</time>
</trkpt>
<trkpt lat="49.610104" lon="10.232359">
<ele>304.162</ele>
<time>2019-05-30T12:01:27Z</time>
</trkpt>
<trkpt lat="49.610149" lon="10.232388">
<ele>304.162</ele>
<time>2019-05-30T12:01:28Z</time>
</trkpt>
<trkpt lat="49.610203" lon="10.23242">
<ele>304.162</ele>
<time>2019-05-30T12:01:29Z</time>
</trkpt>
<trkpt lat="49.610249" lon="10.232453">
<ele>304.162</ele>
<time>2019-05-30T12:01:30Z</time>
</trkpt>
<trkpt lat="49.610302" lon="10.232489">
<ele>304.162</ele>
<time>2019-05-30T12:01:31Z</time>
</trkpt>
<trkpt lat="49.610352" lon="10.23252">
<ele>304.162</ele>
<time>2019-05-30T12:01:32Z</time>
</trkpt>
<trkpt lat="49.610401" lon="10.232553">
<ele>304.162</ele>
<time>2019-05-30T12:01:33Z</time>
</trkpt>
<trkpt lat="49.610455" lon="10.232585">
<ele>304.162</ele>
<time>2019-05-30T12:01:34Z</time>
</trkpt>
<trkpt lat="49.610504" lon="10.232618">
<ele>304.162</ele>
<time>2019-05-30T12:01:35Z</time>
</trkpt>
<trkpt lat="49.610561" lon="10.232652">
<ele>304.162</ele>
<time>2019-05-30T12:01:36Z</time>
</trkpt>
<trkpt lat="49.610611" lon="10.232686">
<ele>304.162</ele>
<time>2019-05-30T12:01:37Z</time>
</trkpt>
<trkpt lat="49.610664" lon="10.232719">
<ele>304.162</ele>
<time>2019-05-30T12:01:38Z</time>
</trkpt>
<trkpt lat="49.610722" lon="10.232753">
<ele>304.162</ele>
<time>2019-05-30T12:01:39Z</time>
</trkpt>
<trkpt lat="49.610771" lon="10.232788">
<ele>304.162</ele>
<time>2019-05-30T12:01:40Z</time>
</trkpt>
<trkpt lat="49.610825" lon="10.232822">
<ele>304.162</ele>
<time>2019-05-30T12:01:41Z</time>
</trkpt>
<trkpt lat="49.610878" lon="10.232857">
<ele>304.162</ele>
<time>2019-05-30T12:01:42Z</time>
</trkpt>
<trkpt lat="49.610924" lon="10.232892">
<ele>304.162</ele>
<time>2019-05-30T12:01:43Z</time>
</trkpt>
<trkpt lat="49.610981" lon="10.232927">
<ele>304.162</ele>
<time>2019-05-30T12:01:44Z</time>
</trkpt>
<trkpt lat="49.611031" lon="10.232962">
<ele>304.162</ele>
<time>2019-05-30T12:01:45Z</time>
</trkpt>
<trkpt lat="49.611084" lon="10.232996">
<ele>304.162</ele>
<time>2019-05-30T12:01:46Z</time>
</trkpt>
<trkpt lat="49.611134" lon="10.233031">
<ele>304.162</ele>
<time>2019-05-30T12:01:47Z</time>
</trkpt>
<trkpt lat="49.611187" lon="10.233068">
<ele>304.162</ele>
<time>2019-05-30T12:01:48Z</time>
</trkpt>
<trkpt lat="49.611244" lon="10.233101">
<ele>304.162</ele>
<time>2019-05-30T12:01:49Z</time>
</trkpt>
<trkpt lat="49.611298" lon="10.233135">
<ele>304.162</ele>
<time>2019-05-30T12:01:50Z</time>
</trkpt>
<trkpt lat="49.611347" lon="10.233171">
<ele>304.162</ele>
<time>2019-05-30T12:01:51Z</time>
</trkpt>
<trkpt lat="49.611401" lon="10.233206">
<ele>304.162</ele>
<time>2019-05-30T12:01:52Z</time>
</trkpt>
<trkpt lat="49.611454" lon="10.233239">
<ele>304.162</ele>
<time>2019-05-30T12:01:53Z</time>
</trkpt>
<trkpt lat="49.611511" lon="10.233274">
<ele>304.162</ele>
<time>2019-05-30T12:01:54Z</time>
</trkpt>
<trkpt lat="49.611561" lon="10.233309">
<ele>303.902</ele>
<time>2019-05-30T12:01:55Z</time>
</trkpt>
<trkpt lat="49.611614" lon="10.233342">
<ele>303.698</ele>
<time>2019-05-30T12:01:56Z</time>
</trkpt>
<trkpt lat="49.611671" lon="10.233377">
<ele>303.536</ele>
<time>2019-05-30T12:01:57Z</time>
</trkpt>
<trkpt lat="49.611725" lon="10.233405">
<ele>303.427</ele>
<time>2019-05-30T12:01:58Z</time>
</trkpt>
<trkpt lat="49.611778" lon="10.23343">
<ele>303.31</ele>
<time>2019-05-30T12:01:59Z</time>
</trkpt>
<trkpt lat="49.611835" lon="10.233453">
<ele>303.225</ele>
<time>2019-05-30T12:02:00Z</time>
</trkpt>
<trkpt lat="49.611893" lon="10.233472">
<ele>303.171</ele>
<time>2019-05-30T12:02:01Z</time>
</trkpt>
<trkpt lat="49.611954" lon="10.233483">
<ele>303.145</ele>
<time>2019-05-30T12:02:02Z</time>
</trkpt>
<trkpt lat="49.612019" lon="10.233492">
<ele>303.145</ele>
<time>2019-05-30T12:02:03Z</time>
</trkpt>
<trkpt lat="49.612083" lon="10.233497">
<ele>302.918</ele>
<time>2019-05-30T12:02:04Z</time>
</trkpt>
<trkpt lat="49.612148" lon="10.233495">
<ele>302.489</ele>
<time>2019-05-30T12:02:05Z</time>
</trkpt>
<trkpt lat="49.612217" lon="10.23349">
<ele>302.161</ele>
<time>2019-05-30T12:02:06Z</time>
</trkpt>
<trkpt lat="49.612289" lon="10.233483">
<ele>301.962</ele>
<time>2019-05-30T12:02:07Z</time>
</trkpt>
<trkpt lat="49.612358" lon="10.233477">
<ele>301.491</ele>
<time>2019-05-30T12:02:08Z</time>
</trkpt>
<trkpt lat="49.612434" lon="10.233468">
<ele>301.105</ele>
<time>2019-05-30T12:02:09Z</time>
</trkpt>
<trkpt lat="49.612514" lon="10.233465">
<ele>300.483</ele>
<time>2019-05-30T12:02:10Z</time>
</trkpt>
<trkpt lat="49.612598" lon="10.233465">
<ele>300.007</ele>
<time>2019-05-30T12:02:11Z</time>
</trkpt>
<trkpt lat="49.61269" lon="10.233465">
<ele>299.731</ele>
<time>2019-05-30T12:02:12Z</time>
</trkpt>
<trkpt lat="49.612782" lon="10.233468">
<ele>299.176</ele>
<time>2019-05-30T12:02:13Z</time>
</trkpt>
<trkpt lat="49.612877" lon="10.233477">
<ele>298.81</ele>
<time>2019-05-30T12:02:14Z</time>
</trkpt>
<trkpt lat="49.612972" lon="10.233486">
<ele>298.248</ele>
<time>2019-05-30T12:02:15Z</time>
</trkpt>
<trkpt lat="49.61306" lon="10.233497">
<ele>297.792</ele>
<time>2019-05-30T12:02:16Z</time>
</trkpt>
<trkpt lat="49.613152" lon="10.233508">
<ele>297.596</ele>
<time>2019-05-30T12:02:17Z</time>
</trkpt>
<trkpt lat="49.613239" lon="10.233523">
<ele>297.175</ele>
<time>2019-05-30T12:02:18Z</time>
</trkpt>
<trkpt lat="49.613331" lon="10.233537">
<ele>296.82</ele>
<time>2019-05-30T12:02:19Z</time>
</trkpt>
<trkpt lat="49.613415" lon="10.23355">
<ele>296.64</ele>
<time>2019-05-30T12:02:20Z</time>
</trkpt>
<trkpt lat="49.613503" lon="10.233565">
<ele>296.531</ele>
<time>2019-05-30T12:02:21Z</time>
</trkpt>
<trkpt lat="49.61359" lon="10.233581">
<ele>296.463</ele>
<time>2019-05-30T12:02:22Z</time>
</trkpt>
<trkpt lat="49.61367" lon="10.233597">
<ele>296.435</ele>
<time>2019-05-30T12:02:23Z</time>
</trkpt>
<trkpt lat="49.61375" lon="10.233614">
<ele>296.423</ele>
<time>2019-05-30T12:02:24Z</time>
</trkpt>
<trkpt lat="49.613823" lon="10.23363">
<ele>296.425</ele>
<time>2019-05-30T12:02:25Z</time>
</trkpt>
<trkpt lat="49.613899" lon="10.233645">
<ele>296.44</ele>
<time>2019-05-30T12:02:26Z</time>
</trkpt>
<trkpt lat="49.613968" lon="10.23366">
<ele>296.448</ele>
<time>2019-05-30T12:02:27Z</time>
</trkpt>
<trkpt lat="49.614033" lon="10.233673">
<ele>296.657</ele>
<time>2019-05-30T12:02:28Z</time>
</trkpt>
<trkpt lat="49.614094" lon="10.233687">
<ele>296.844</ele>
<time>2019-05-30T12:02:29Z</time>
</trkpt>
<trkpt lat="49.614151" lon="10.2337">
<ele>297.002</ele>
<time>2019-05-30T12:02:30Z</time>
</trkpt>
<trkpt lat="49.614208" lon="10.233711">
<ele>297.115</ele>
<time>2019-05-30T12:02:31Z</time>
</trkpt>
<trkpt lat="49.614262" lon="10.233724">
<ele>297.435</ele>
<time>2019-05-30T12:02:32Z</time>
</trkpt>
<trkpt lat="49.614315" lon="10.233733">
<ele>297.699</ele>
<time>2019-05-30T12:02:33Z</time>
</trkpt>
<trkpt lat="49.614368" lon="10.233745">
<ele>297.91</ele>
<time>2019-05-30T12:02:34Z</time>
</trkpt>
<trkpt lat="49.614418" lon="10.233757">
<ele>298.044</ele>
<time>2019-05-30T12:02:35Z</time>
</trkpt>
<trkpt lat="49.614471" lon="10.233768">
<ele>298.424</ele>
<time>2019-05-30T12:02:36Z</time>
</trkpt>
<trkpt lat="49.614521" lon="10.23378">
<ele>298.681</ele>
<time>2019-05-30T12:02:37Z</time>
</trkpt>
<trkpt lat="49.614571" lon="10.233788">
<ele>298.875</ele>
<time>2019-05-30T12:02:38Z</time>
</trkpt>
<trkpt lat="49.61462" lon="10.2338">
<ele>299.054</ele>
<time>2019-05-30T12:02:39Z</time>
</trkpt>
<trkpt lat="49.614674" lon="10.233809">
<ele>299.17</ele>
<time>2019-05-30T12:02:40Z</time>
</trkpt>
<trkpt lat="49.614723" lon="10.233822">
<ele>299.256</ele>
<time>2019-05-30T12:02:41Z</time>
</trkpt>
<trkpt lat="49.614769" lon="10.233833">
<ele>299.309</ele>
<time>2019-05-30T12:02:42Z</time>
</trkpt>
<trkpt lat="49.614822" lon="10.233845">
<ele>299.335</ele>
<time>2019-05-30T12:02:43Z</time>
</trkpt>
<trkpt lat="49.614872" lon="10.233857">
<ele>299.335</ele>
<time>2019-05-30T12:02:44Z</time>
</trkpt>
<trkpt lat="49.614922" lon="10.233867">
<ele>299.335</ele>
<time>2019-05-30T12:02:45Z</time>
</trkpt>
<trkpt lat="49.614971" lon="10.233878">
<ele>299.567</ele>
<time>2019-05-30T12:02:46Z</time>
</trkpt>
<trkpt lat="49.615021" lon="10.233891">
<ele>299.751</ele>
<time>2019-05-30T12:02:47Z</time>
</trkpt>
<trkpt lat="49.61507" lon="10.233905">
<ele>299.877</ele>
<time>2019-05-30T12:02:48Z</time>
</trkpt>
<trkpt lat="49.615124" lon="10.233918">
<ele>300.015</ele>
<time>2019-05-30T12:02:49Z</time>
</trkpt>
<trkpt lat="49.61517" lon="10.233932">
<ele>300.111</ele>
<time>2019-05-30T12:02:50Z</time>
</trkpt>
<trkpt lat="49.615227" lon="10.233943">
<ele>300.418</ele>
<time>2019-05-30T12:02:51Z</time>
</trkpt>
<trkpt lat="49.615273" lon="10.233955">
<ele>300.66</ele>
<time>2019-05-30T12:02:52Z</time>
</trkpt>
<trkpt lat="49.615322" lon="10.233969">
<ele>300.841</ele>
<time>2019-05-30T12:02:53Z</time>
</trkpt>
<trkpt lat="49.615376" lon="10.233981">
<ele>301.023</ele>
<time>2019-05-30T12:02:54Z</time>
</trkpt>
<trkpt lat="49.615429" lon="10.233996">
<ele>301.103</ele>
<time>2019-05-30T12:02:55Z</time>
</trkpt>
<trkpt lat="49.615482" lon="10.23401">
<ele>301.153</ele>
<time>2019-05-30T12:02:56Z</time>
</trkpt>
<trkpt lat="49.615532" lon="10.234025">
<ele>301.177</ele>
<time>2019-05-30T12:02:57Z</time>
</trkpt>
<trkpt lat="49.615585" lon="10.23404">
<ele>301.198</ele>
<time>2019-05-30T12:02:58Z</time>
</trkpt>
<trkpt lat="49.615639" lon="10.234052">
<ele>301.198</ele>
<time>2019-05-30T12:02:59Z</time>
</trkpt>
<trkpt lat="49.615692" lon="10.234063">
<ele>301.198</ele>
<time>2019-05-30T12:03:00Z</time>
</trkpt>
<trkpt lat="49.615749" lon="10.234078">
<ele>301.198</ele>
<time>2019-05-30T12:03:01Z</time>
</trkpt>
<trkpt lat="49.615803" lon="10.234092">
<ele>301.198</ele>
<time>2019-05-30T12:03:02Z</time>
</trkpt>
<trkpt lat="49.61586" lon="10.234103">
<ele>301.198</ele>
<time>2019-05-30T12:03:03Z</time>
</trkpt>
<trkpt lat="49.615921" lon="10.234118">
<ele>301.198</ele>
<time>2019-05-30T12:03:04Z</time>
</trkpt>
<trkpt lat="49.615978" lon="10.234134">
<ele>301.198</ele>
<time>2019-05-30T12:03:05Z</time>
</trkpt>
<trkpt lat="49.616039" lon="10.234152">
<ele>301.198</ele>
<time>2019-05-30T12:03:06Z</time>
</trkpt>
<trkpt lat="49.616104" lon="10.234168">
<ele>301.198</ele>
<time>2019-05-30T12:03:07Z</time>
</trkpt>
<trkpt lat="49.616169" lon="10.234186">
<ele>301.005</ele>
<time>2019-05-30T12:03:08Z</time>
</trkpt>
<trkpt lat="49.616238" lon="10.234205">
<ele>300.823</ele>
<time>2019-05-30T12:03:09Z</time>
</trkpt>
<trkpt lat="49.616302" lon="10.234223">
<ele>300.697</ele>
<time>2019-05-30T12:03:10Z</time>
</trkpt>
<trkpt lat="49.616379" lon="10.234243">
<ele>300.335</ele>
<time>2019-05-30T12:03:11Z</time>
</trkpt>
<trkpt lat="49.616455" lon="10.234262">
<ele>300.086</ele>
<time>2019-05-30T12:03:12Z</time>
</trkpt>
<trkpt lat="49.616531" lon="10.234282">
<ele>299.608</ele>
<time>2019-05-30T12:03:13Z</time>
</trkpt>
<trkpt lat="49.616615" lon="10.234305">
<ele>299.286</ele>
<time>2019-05-30T12:03:14Z</time>
</trkpt>
<trkpt lat="49.616692" lon="10.234328">
<ele>298.77</ele>
<time>2019-05-30T12:03:15Z</time>
</trkpt>
<trkpt lat="49.616779" lon="10.23435">
<ele>298.398</ele>
<time>2019-05-30T12:03:16Z</time>
</trkpt>
<trkpt lat="49.616863" lon="10.23437">
<ele>297.88</ele>
<time>2019-05-30T12:03:17Z</time>
</trkpt>
<trkpt lat="49.616951" lon="10.234387">
<ele>297.505</ele>
<time>2019-05-30T12:03:18Z</time>
</trkpt>
<trkpt lat="49.617035" lon="10.234404">
<ele>297.197</ele>
<time>2019-05-30T12:03:19Z</time>
</trkpt>
<trkpt lat="49.617119" lon="10.234415">
<ele>296.726</ele>
<time>2019-05-30T12:03:20Z</time>
</trkpt>
<trkpt lat="49.617207" lon="10.234425">
<ele>296.383</ele>
<time>2019-05-30T12:03:21Z</time>
</trkpt>
<trkpt lat="49.61729" lon="10.234431">
<ele>296.128</ele>
<time>2019-05-30T12:03:22Z</time>
</trkpt>
<trkpt lat="49.617378" lon="10.234433">
<ele>295.98</ele>
<time>2019-05-30T12:03:23Z</time>
</trkpt>
<trkpt lat="49.617458" lon="10.234428">
<ele>295.621</ele>
<time>2019-05-30T12:03:24Z</time>
</trkpt>
<trkpt lat="49.617542" lon="10.234422">
<ele>295.287</ele>
<time>2019-05-30T12:03:25Z</time>
</trkpt>
<trkpt lat="49.617626" lon="10.234412">
<ele>295.114</ele>
<time>2019-05-30T12:03:26Z</time>
</trkpt>
<trkpt lat="49.617702" lon="10.234402">
<ele>295</ele>
<time>2019-05-30T12:03:27Z</time>
</trkpt>
<trkpt lat="49.617783" lon="10.234391">
<ele>294.922</ele>
<time>2019-05-30T12:03:28Z</time>
</trkpt>
<trkpt lat="49.617863" lon="10.234382">
<ele>294.842</ele>
<time>2019-05-30T12:03:29Z</time>
</trkpt>
<trkpt lat="49.617935" lon="10.23437">
<ele>294.791</ele>
<time>2019-05-30T12:03:30Z</time>
</trkpt>
<trkpt lat="49.618008" lon="10.234356">
<ele>294.765</ele>
<time>2019-05-30T12:03:31Z</time>
</trkpt>
<trkpt lat="49.61808" lon="10.234344">
<ele>294.765</ele>
<time>2019-05-30T12:03:32Z</time>
</trkpt>
<trkpt lat="49.618149" lon="10.23433">
<ele>294.765</ele>
<time>2019-05-30T12:03:33Z</time>
</trkpt>
<trkpt lat="49.618217" lon="10.234319">
<ele>294.765</ele>
<time>2019-05-30T12:03:34Z</time>
</trkpt>
<trkpt lat="49.618282" lon="10.234306">
<ele>294.765</ele>
<time>2019-05-30T12:03:35Z</time>
</trkpt>
<trkpt lat="49.618347" lon="10.234293">
<ele>294.765</ele>
<time>2019-05-30T12:03:36Z</time>
</trkpt>
<trkpt lat="49.618408" lon="10.234279">
<ele>294.765</ele>
<time>2019-05-30T12:03:37Z</time>
</trkpt>
<trkpt lat="49.618473" lon="10.234263">
<ele>294.765</ele>
<time>2019-05-30T12:03:38Z</time>
</trkpt>
<trkpt lat="49.618534" lon="10.234245">
<ele>294.765</ele>
<time>2019-05-30T12:03:39Z</time>
</trkpt>
<trkpt lat="49.618595" lon="10.234225">
<ele>294.765</ele>
<time>2019-05-30T12:03:40Z</time>
</trkpt>
<trkpt lat="49.618656" lon="10.234203">
<ele>294.765</ele>
<time>2019-05-30T12:03:41Z</time>
</trkpt>
<trkpt lat="49.618717" lon="10.234177">
<ele>294.765</ele>
<time>2019-05-30T12:03:42Z</time>
</trkpt>
<trkpt lat="49.618778" lon="10.234145">
<ele>294.765</ele>
<time>2019-05-30T12:03:43Z</time>
</trkpt>
<trkpt lat="49.618843" lon="10.234111">
<ele>294.765</ele>
<time>2019-05-30T12:03:44Z</time>
</trkpt>
<trkpt lat="49.6189" lon="10.234072">
<ele>294.765</ele>
<time>2019-05-30T12:03:45Z</time>
</trkpt>
<trkpt lat="49.618958" lon="10.234034">
<ele>294.765</ele>
<time>2019-05-30T12:03:46Z</time>
</trkpt>
<trkpt lat="49.619011" lon="10.233994">
<ele>294.765</ele>
<time>2019-05-30T12:03:47Z</time>
</trkpt>
<trkpt lat="49.619068" lon="10.233953">
<ele>294.765</ele>
<time>2019-05-30T12:03:48Z</time>
</trkpt>
<trkpt lat="49.619118" lon="10.233912">
<ele>294.765</ele>
<time>2019-05-30T12:03:49Z</time>
</trkpt>
<trkpt lat="49.619171" lon="10.23387">
<ele>294.765</ele>
<time>2019-05-30T12:03:50Z</time>
</trkpt>
<trkpt lat="49.619225" lon="10.23383">
<ele>294.765</ele>
<time>2019-05-30T12:03:51Z</time>
</trkpt>
<trkpt lat="49.619274" lon="10.23379">
<ele>294.765</ele>
<time>2019-05-30T12:03:52Z</time>
</trkpt>
<trkpt lat="49.619328" lon="10.23375">
<ele>294.765</ele>
<time>2019-05-30T12:03:53Z</time>
</trkpt>
<trkpt lat="49.619377" lon="10.233708">
<ele>294.765</ele>
<time>2019-05-30T12:03:54Z</time>
</trkpt>
<trkpt lat="49.619431" lon="10.233668">
<ele>294.765</ele>
<time>2019-05-30T12:03:55Z</time>
</trkpt>
<trkpt lat="49.61948" lon="10.233628">
<ele>294.765</ele>
<time>2019-05-30T12:03:56Z</time>
</trkpt>
<trkpt lat="49.61953" lon="10.233588">
<ele>294.765</ele>
<time>2019-05-30T12:03:57Z</time>
</trkpt>
<trkpt lat="49.619579" lon="10.233547">
<ele>294.765</ele>
<time>2019-05-30T12:03:58Z</time>
</trkpt>
<trkpt lat="49.619629" lon="10.233507">
<ele>294.991</ele>
<time>2019-05-30T12:03:59Z</time>
</trkpt>
<trkpt lat="49.619682" lon="10.233468">
<ele>295.18</ele>
<time>2019-05-30T12:04:00Z</time>
</trkpt>
<trkpt lat="49.619732" lon="10.233432">
<ele>295.336</ele>
<time>2019-05-30T12:04:01Z</time>
</trkpt>
<trkpt lat="49.619785" lon="10.233395">
<ele>295.462</ele>
<time>2019-05-30T12:04:02Z</time>
</trkpt>
<trkpt lat="49.619831" lon="10.23336">
<ele>295.559</ele>
<time>2019-05-30T12:04:03Z</time>
</trkpt>
<trkpt lat="49.619884" lon="10.233325">
<ele>295.628</ele>
<time>2019-05-30T12:04:04Z</time>
</trkpt>
<trkpt lat="49.61993" lon="10.233287">
<ele>295.674</ele>
<time>2019-05-30T12:04:05Z</time>
</trkpt>
<trkpt lat="49.61998" lon="10.233252">
<ele>295.696</ele>
<time>2019-05-30T12:04:06Z</time>
</trkpt>
<trkpt lat="49.620029" lon="10.233216">
<ele>295.696</ele>
<time>2019-05-30T12:04:07Z</time>
</trkpt>
<trkpt lat="49.620075" lon="10.233185">
<ele>295.696</ele>
<time>2019-05-30T12:04:08Z</time>
</trkpt>
<trkpt lat="49.620121" lon="10.233155">
<ele>295.696</ele>
<time>2019-05-30T12:04:09Z</time>
</trkpt>
<trkpt lat="49.620167" lon="10.233124">
<ele>295.968</ele>
<time>2019-05-30T12:04:10Z</time>
</trkpt>
<trkpt lat="49.620213" lon="10.233093">
<ele>296.181</ele>
<time>2019-05-30T12:04:11Z</time>
</trkpt>
<trkpt lat="49.620255" lon="10.233066">
<ele>296.341</ele>
<time>2019-05-30T12:04:12Z</time>
</trkpt>
<trkpt lat="49.6203" lon="10.233036">
<ele>296.461</ele>
<time>2019-05-30T12:04:13Z</time>
</trkpt>
<trkpt lat="49.620346" lon="10.23301">
<ele>296.544</ele>
<time>2019-05-30T12:04:14Z</time>
</trkpt>
<trkpt lat="49.620384" lon="10.232982">
<ele>296.593</ele>
<time>2019-05-30T12:04:15Z</time>
</trkpt>
<trkpt lat="49.620426" lon="10.232959">
<ele>296.827</ele>
<time>2019-05-30T12:04:16Z</time>
</trkpt>
<trkpt lat="49.620468" lon="10.232935">
<ele>296.998</ele>
<time>2019-05-30T12:04:17Z</time>
</trkpt>
<trkpt lat="49.62051" lon="10.232913">
<ele>297.114</ele>
<time>2019-05-30T12:04:18Z</time>
</trkpt>
<trkpt lat="49.620548" lon="10.232893">
<ele>297.232</ele>
<time>2019-05-30T12:04:19Z</time>
</trkpt>
<trkpt lat="49.620586" lon="10.23287">
<ele>297.571</ele>
<time>2019-05-30T12:04:20Z</time>
</trkpt>
<trkpt lat="49.620628" lon="10.23285">
<ele>297.849</ele>
<time>2019-05-30T12:04:21Z</time>
</trkpt>
<trkpt lat="49.620667" lon="10.232828">
<ele>298.066</ele>
<time>2019-05-30T12:04:22Z</time>
</trkpt>
<trkpt lat="49.620705" lon="10.23281">
<ele>298.228</ele>
<time>2019-05-30T12:04:23Z</time>
</trkpt>
<trkpt lat="49.620743" lon="10.23279">
<ele>298.388</ele>
<time>2019-05-30T12:04:24Z</time>
</trkpt>
<trkpt lat="49.620785" lon="10.23277">
<ele>298.688</ele>
<time>2019-05-30T12:04:25Z</time>
</trkpt>
<trkpt lat="49.620827" lon="10.23275">
<ele>298.906</ele>
<time>2019-05-30T12:04:26Z</time>
</trkpt>
<trkpt lat="49.620865" lon="10.232728">
<ele>299.062</ele>
<time>2019-05-30T12:04:27Z</time>
</trkpt>
<trkpt lat="49.620907" lon="10.232705">
<ele>299.162</ele>
<time>2019-05-30T12:04:28Z</time>
</trkpt>
<trkpt lat="49.620949" lon="10.232682">
<ele>299.27</ele>
<time>2019-05-30T12:04:29Z</time>
</trkpt>
<trkpt lat="49.620991" lon="10.232661">
<ele>299.348</ele>
<time>2019-05-30T12:04:30Z</time>
</trkpt>
<trkpt lat="49.621029" lon="10.232638">
<ele>299.396</ele>
<time>2019-05-30T12:04:31Z</time>
</trkpt>
<trkpt lat="49.621075" lon="10.232616">
<ele>299.42</ele>
<time>2019-05-30T12:04:32Z</time>
</trkpt>
<trkpt lat="49.621117" lon="10.232596">
<ele>299.677</ele>
<time>2019-05-30T12:04:33Z</time>
</trkpt>
<trkpt lat="49.621159" lon="10.232577">
<ele>299.873</ele>
<time>2019-05-30T12:04:34Z</time>
</trkpt>
<trkpt lat="49.621201" lon="10.232556">
<ele>300.023</ele>
<time>2019-05-30T12:04:35Z</time>
</trkpt>
<trkpt lat="49.621246" lon="10.232537">
<ele>300.139</ele>
<time>2019-05-30T12:04:36Z</time>
</trkpt>
<trkpt lat="49.621288" lon="10.232516">
<ele>300.216</ele>
<time>2019-05-30T12:04:37Z</time>
</trkpt>
<trkpt lat="49.621326" lon="10.232497">
<ele>300.275</ele>
<time>2019-05-30T12:04:38Z</time>
</trkpt>
<trkpt lat="49.621368" lon="10.232474">
<ele>300.327</ele>
<time>2019-05-30T12:04:39Z</time>
</trkpt>
<trkpt lat="49.62141" lon="10.232453">
<ele>300.351</ele>
<time>2019-05-30T12:04:40Z</time>
</trkpt>
<trkpt lat="49.621452" lon="10.232432">
<ele>300.351</ele>
<time>2019-05-30T12:04:41Z</time>
</trkpt>
<trkpt lat="49.621494" lon="10.232408">
<ele>300.351</ele>
<time>2019-05-30T12:04:42Z</time>
</trkpt>
<trkpt lat="49.62154" lon="10.232385">
<ele>300.351</ele>
<time>2019-05-30T12:04:43Z</time>
</trkpt>
<trkpt lat="49.621582" lon="10.232359">
<ele>300.351</ele>
<time>2019-05-30T12:04:44Z</time>
</trkpt>
<trkpt lat="49.621628" lon="10.23233">
<ele>300.351</ele>
<time>2019-05-30T12:04:45Z</time>
</trkpt>
<trkpt lat="49.621674" lon="10.232301">
<ele>300.351</ele>
<time>2019-05-30T12:04:46Z</time>
</trkpt>
<trkpt lat="49.621719" lon="10.232269">
<ele>300.351</ele>
<time>2019-05-30T12:04:47Z</time>
</trkpt>
<trkpt lat="49.621769" lon="10.232238">
<ele>300.351</ele>
<time>2019-05-30T12:04:48Z</time>
</trkpt>
<trkpt lat="49.621815" lon="10.2322">
<ele>300.351</ele>
<time>2019-05-30T12:04:49Z</time>
</trkpt>
<trkpt lat="49.621861" lon="10.232157">
<ele>300.064</ele>
<time>2019-05-30T12:04:50Z</time>
</trkpt>
<trkpt lat="49.621906" lon="10.23211">
<ele>299.848</ele>
<time>2019-05-30T12:04:51Z</time>
</trkpt>
<trkpt lat="49.621944" lon="10.232057">
<ele>299.685</ele>
<time>2019-05-30T12:04:52Z</time>
</trkpt>
<trkpt lat="49.621986" lon="10.232">
<ele>299.572</ele>
<time>2019-05-30T12:04:53Z</time>
</trkpt>
<trkpt lat="49.622032" lon="10.23194">
<ele>299.494</ele>
<time>2019-05-30T12:04:54Z</time>
</trkpt>
<trkpt lat="49.622074" lon="10.231878">
<ele>299.446</ele>
<time>2019-05-30T12:04:55Z</time>
</trkpt>
<trkpt lat="49.622112" lon="10.231814">
<ele>299.424</ele>
<time>2019-05-30T12:04:56Z</time>
</trkpt>
<trkpt lat="49.622154" lon="10.231751">
<ele>299.42</ele>
<time>2019-05-30T12:04:57Z</time>
</trkpt>
<trkpt lat="49.6222" lon="10.231687">
<ele>299.42</ele>
<time>2019-05-30T12:04:58Z</time>
</trkpt>
<trkpt lat="49.622238" lon="10.231624">
<ele>299.189</ele>
<time>2019-05-30T12:04:59Z</time>
</trkpt>
<trkpt lat="49.622284" lon="10.231559">
<ele>298.998</ele>
<time>2019-05-30T12:05:00Z</time>
</trkpt>
<trkpt lat="49.62233" lon="10.231495">
<ele>298.842</ele>
<time>2019-05-30T12:05:01Z</time>
</trkpt>
<trkpt lat="49.622368" lon="10.23143">
<ele>298.718</ele>
<time>2019-05-30T12:05:02Z</time>
</trkpt>
<trkpt lat="49.62241" lon="10.231366">
<ele>298.623</ele>
<time>2019-05-30T12:05:03Z</time>
</trkpt>
<trkpt lat="49.622456" lon="10.231303">
<ele>298.555</ele>
<time>2019-05-30T12:05:04Z</time>
</trkpt>
<trkpt lat="49.622498" lon="10.23124">
<ele>298.514</ele>
<time>2019-05-30T12:05:05Z</time>
</trkpt>
<trkpt lat="49.622543" lon="10.231175">
<ele>298.283</ele>
<time>2019-05-30T12:05:06Z</time>
</trkpt>
<trkpt lat="49.622589" lon="10.231112">
<ele>298.109</ele>
<time>2019-05-30T12:05:07Z</time>
</trkpt>
<trkpt lat="49.622631" lon="10.231047">
<ele>297.995</ele>
<time>2019-05-30T12:05:08Z</time>
</trkpt>
<trkpt lat="49.622677" lon="10.23098">
<ele>297.87</ele>
<time>2019-05-30T12:05:09Z</time>
</trkpt>
<trkpt lat="49.622723" lon="10.230909">
<ele>297.774</ele>
<time>2019-05-30T12:05:10Z</time>
</trkpt>
<trkpt lat="49.622772" lon="10.230837">
<ele>297.706</ele>
<time>2019-05-30T12:05:11Z</time>
</trkpt>
<trkpt lat="49.622822" lon="10.230761">
<ele>297.665</ele>
<time>2019-05-30T12:05:12Z</time>
</trkpt>
<trkpt lat="49.622868" lon="10.230679">
<ele>297.408</ele>
<time>2019-05-30T12:05:13Z</time>
</trkpt>
<trkpt lat="49.62291" lon="10.230594">
<ele>297.18</ele>
<time>2019-05-30T12:05:14Z</time>
</trkpt>
<trkpt lat="49.622952" lon="10.230501">
<ele>297.058</ele>
<time>2019-05-30T12:05:15Z</time>
</trkpt>
<trkpt lat="49.62299" lon="10.230407">
<ele>296.676</ele>
<time>2019-05-30T12:05:16Z</time>
</trkpt>
<trkpt lat="49.623024" lon="10.230307">
<ele>296.385</ele>
<time>2019-05-30T12:05:17Z</time>
</trkpt>
<trkpt lat="49.623051" lon="10.230206">
<ele>296.185</ele>
<time>2019-05-30T12:05:18Z</time>
</trkpt>
<trkpt lat="49.623077" lon="10.230099">
<ele>295.739</ele>
<time>2019-05-30T12:05:19Z</time>
</trkpt>
<trkpt lat="49.623093" lon="10.229987">
<ele>295.436</ele>
<time>2019-05-30T12:05:20Z</time>
</trkpt>
<trkpt lat="49.623108" lon="10.229873">
<ele>294.899</ele>
<time>2019-05-30T12:05:21Z</time>
</trkpt>
<trkpt lat="49.623116" lon="10.229759">
<ele>294.475</ele>
<time>2019-05-30T12:05:22Z</time>
</trkpt>
<trkpt lat="49.623127" lon="10.229644">
<ele>294.205</ele>
<time>2019-05-30T12:05:23Z</time>
</trkpt>
<trkpt lat="49.623138" lon="10.229525">
<ele>293.759</ele>
<time>2019-05-30T12:05:24Z</time>
</trkpt>
<trkpt lat="49.623146" lon="10.229408">
<ele>293.107</ele>
<time>2019-05-30T12:05:25Z</time>
</trkpt>
<trkpt lat="49.623154" lon="10.229292">
<ele>292.601</ele>
<time>2019-05-30T12:05:26Z</time>
</trkpt>
<trkpt lat="49.623161" lon="10.229177">
<ele>292.291</ele>
<time>2019-05-30T12:05:27Z</time>
</trkpt>
<trkpt lat="49.623165" lon="10.229062">
<ele>291.818</ele>
<time>2019-05-30T12:05:28Z</time>
</trkpt>
<trkpt lat="49.623173" lon="10.228949">
<ele>291.456</ele>
<time>2019-05-30T12:05:29Z</time>
</trkpt>
<trkpt lat="49.62318" lon="10.228838">
<ele>290.936</ele>
<time>2019-05-30T12:05:30Z</time>
</trkpt>
<trkpt lat="49.623196" lon="10.228733">
<ele>290.587</ele>
<time>2019-05-30T12:05:31Z</time>
</trkpt>
<trkpt lat="49.623219" lon="10.22863">
<ele>290.073</ele>
<time>2019-05-30T12:05:32Z</time>
</trkpt>
<trkpt lat="49.623245" lon="10.228534">
<ele>289.725</ele>
<time>2019-05-30T12:05:33Z</time>
</trkpt>
<trkpt lat="49.623287" lon="10.228454">
<ele>289.165</ele>
<time>2019-05-30T12:05:34Z</time>
</trkpt>
<trkpt lat="49.623344" lon="10.22839">
<ele>288.725</ele>
<time>2019-05-30T12:05:35Z</time>
</trkpt>
<trkpt lat="49.623398" lon="10.228338">
<ele>288.378</ele>
<time>2019-05-30T12:05:36Z</time>
</trkpt>
<trkpt lat="49.623451" lon="10.228293">
<ele>287.968</ele>
<time>2019-05-30T12:05:37Z</time>
</trkpt>
<trkpt lat="49.623508" lon="10.228257">
<ele>287.648</ele>
<time>2019-05-30T12:05:38Z</time>
</trkpt>
<trkpt lat="49.623573" lon="10.228222">
<ele>287.367</ele>
<time>2019-05-30T12:05:39Z</time>
</trkpt>
<trkpt lat="49.623631" lon="10.228182">
<ele>287.178</ele>
<time>2019-05-30T12:05:40Z</time>
</trkpt>
<trkpt lat="49.623684" lon="10.228145">
<ele>287.046</ele>
<time>2019-05-30T12:05:41Z</time>
</trkpt>
<trkpt lat="49.623737" lon="10.228115">
<ele>286.978</ele>
<time>2019-05-30T12:05:42Z</time>
</trkpt>
<trkpt lat="49.623791" lon="10.228088">
<ele>286.726</ele>
<time>2019-05-30T12:05:43Z</time>
</trkpt>
<trkpt lat="49.62384" lon="10.228065">
<ele>286.53</ele>
<time>2019-05-30T12:05:44Z</time>
</trkpt>
<trkpt lat="49.623894" lon="10.228042">
<ele>286.362</ele>
<time>2019-05-30T12:05:45Z</time>
</trkpt>
<trkpt lat="49.623932" lon="10.228017">
<ele>286.26</ele>
<time>2019-05-30T12:05:46Z</time>
</trkpt>
<trkpt lat="49.623978" lon="10.227991">
<ele>286.204</ele>
<time>2019-05-30T12:05:47Z</time>
</trkpt>
<trkpt lat="49.624035" lon="10.227966">
<ele>285.931</ele>
<time>2019-05-30T12:05:48Z</time>
</trkpt>
<trkpt lat="49.624081" lon="10.227905">
<ele>285.684</ele>
<time>2019-05-30T12:05:49Z</time>
</trkpt>
<trkpt lat="49.624138" lon="10.227836">
<ele>285.492</ele>
<time>2019-05-30T12:05:50Z</time>
</trkpt>
<trkpt lat="49.624191" lon="10.22776">
<ele>285.353</ele>
<time>2019-05-30T12:05:51Z</time>
</trkpt>
<trkpt lat="49.624245" lon="10.227687">
<ele>285.269</ele>
<time>2019-05-30T12:05:52Z</time>
</trkpt>
<trkpt lat="49.62429" lon="10.227615">
<ele>284.923</ele>
<time>2019-05-30T12:05:53Z</time>
</trkpt>
<trkpt lat="49.624329" lon="10.22754">
<ele>284.657</ele>
<time>2019-05-30T12:05:54Z</time>
</trkpt>
<trkpt lat="49.624367" lon="10.227469">
<ele>284.481</ele>
<time>2019-05-30T12:05:55Z</time>
</trkpt>
<trkpt lat="49.624397" lon="10.2274">
<ele>284.34</ele>
<time>2019-05-30T12:05:56Z</time>
</trkpt>
<trkpt lat="49.624447" lon="10.227355">
<ele>284.259</ele>
<time>2019-05-30T12:05:57Z</time>
</trkpt>
<trkpt lat="49.624489" lon="10.227326">
<ele>284.213</ele>
<time>2019-05-30T12:05:58Z</time>
</trkpt>
<trkpt lat="49.624527" lon="10.227287">
<ele>284.404</ele>
<time>2019-05-30T12:05:59Z</time>
</trkpt>
<trkpt lat="49.624569" lon="10.227263">
<ele>284.584</ele>
<time>2019-05-30T12:06:00Z</time>
</trkpt>
<trkpt lat="49.624607" lon="10.227247">
<ele>284.725</ele>
<time>2019-05-30T12:06:01Z</time>
</trkpt>
<trkpt lat="49.624626" lon="10.227207">
<ele>285.087</ele>
<time>2019-05-30T12:06:02Z</time>
</trkpt>
<trkpt lat="49.624657" lon="10.227179">
<ele>285.394</ele>
<time>2019-05-30T12:06:03Z</time>
</trkpt>
<trkpt lat="49.624699" lon="10.227155">
<ele>285.648</ele>
<time>2019-05-30T12:06:04Z</time>
</trkpt>
<trkpt lat="49.624741" lon="10.227139">
<ele>285.843</ele>
<time>2019-05-30T12:06:05Z</time>
</trkpt>
<trkpt lat="49.624779" lon="10.227123">
<ele>285.988</ele>
<time>2019-05-30T12:06:06Z</time>
</trkpt>
<trkpt lat="49.624817" lon="10.227107">
<ele>286.066</ele>
<time>2019-05-30T12:06:07Z</time>
</trkpt>
<trkpt lat="49.624847" lon="10.227081">
<ele>286.109</ele>
<time>2019-05-30T12:06:08Z</time>
</trkpt>
<trkpt lat="49.624886" lon="10.227063">
<ele>286.366</ele>
<time>2019-05-30T12:06:09Z</time>
</trkpt>
<trkpt lat="49.624924" lon="10.227036">
<ele>286.56</ele>
<time>2019-05-30T12:06:10Z</time>
</trkpt>
<trkpt lat="49.624962" lon="10.227005">
<ele>286.71</ele>
<time>2019-05-30T12:06:11Z</time>
</trkpt>
<trkpt lat="49.625" lon="10.226979">
<ele>286.828</ele>
<time>2019-05-30T12:06:12Z</time>
</trkpt>
<trkpt lat="49.625038" lon="10.22696">
<ele>286.929</ele>
<time>2019-05-30T12:06:13Z</time>
</trkpt>
<trkpt lat="49.625072" lon="10.226939">
<ele>286.989</ele>
<time>2019-05-30T12:06:14Z</time>
</trkpt>
<trkpt lat="49.625114" lon="10.22692">
<ele>287.252</ele>
<time>2019-05-30T12:06:15Z</time>
</trkpt>
<trkpt lat="49.62516" lon="10.226898">
<ele>287.453</ele>
<time>2019-05-30T12:06:16Z</time>
</trkpt>
<trkpt lat="49.625202" lon="10.226878">
<ele>287.593</ele>
<time>2019-05-30T12:06:17Z</time>
</trkpt>
<trkpt lat="49.625252" lon="10.226858">
<ele>287.639</ele>
<time>2019-05-30T12:06:18Z</time>
</trkpt>
<trkpt lat="49.625301" lon="10.226845">
<ele>287.522</ele>
<time>2019-05-30T12:06:19Z</time>
</trkpt>
<trkpt lat="49.625343" lon="10.226835">
<ele>287.42</ele>
<time>2019-05-30T12:06:20Z</time>
</trkpt>
<trkpt lat="49.625393" lon="10.226822">
<ele>287.331</ele>
<time>2019-05-30T12:06:21Z</time>
</trkpt>
<trkpt lat="49.625435" lon="10.226807">
<ele>287.276</ele>
<time>2019-05-30T12:06:22Z</time>
</trkpt>
<trkpt lat="49.625481" lon="10.226795">
<ele>287.097</ele>
<time>2019-05-30T12:06:23Z</time>
</trkpt>
<trkpt lat="49.625526" lon="10.226775">
<ele>286.943</ele>
<time>2019-05-30T12:06:24Z</time>
</trkpt>
<trkpt lat="49.625576" lon="10.226764">
<ele>286.829</ele>
<time>2019-05-30T12:06:25Z</time>
</trkpt>
<trkpt lat="49.625626" lon="10.226759">
<ele>286.752</ele>
<time>2019-05-30T12:06:26Z</time>
</trkpt>
<trkpt lat="49.625679" lon="10.226755">
<ele>286.499</ele>
<time>2019-05-30T12:06:27Z</time>
</trkpt>
<trkpt lat="49.625732" lon="10.226742">
<ele>286.289</ele>
<time>2019-05-30T12:06:28Z</time>
</trkpt>
<trkpt lat="49.625782" lon="10.226733">
<ele>286.128</ele>
<time>2019-05-30T12:06:29Z</time>
</trkpt>
<trkpt lat="49.625828" lon="10.22673">
<ele>286.003</ele>
<time>2019-05-30T12:06:30Z</time>
</trkpt>
<trkpt lat="49.625881" lon="10.226708">
<ele>285.899</ele>
<time>2019-05-30T12:06:31Z</time>
</trkpt>
<trkpt lat="49.625931" lon="10.226698">
<ele>285.85</ele>
<time>2019-05-30T12:06:32Z</time>
</trkpt>
<trkpt lat="49.625984" lon="10.226692">
<ele>285.78</ele>
<time>2019-05-30T12:06:33Z</time>
</trkpt>
<trkpt lat="49.626034" lon="10.226682">
<ele>285.737</ele>
<time>2019-05-30T12:06:34Z</time>
</trkpt>
<trkpt lat="49.626083" lon="10.226669">
<ele>285.715</ele>
<time>2019-05-30T12:06:35Z</time>
</trkpt>
<trkpt lat="49.626141" lon="10.226659">
<ele>285.715</ele>
<time>2019-05-30T12:06:36Z</time>
</trkpt>
<trkpt lat="49.62619" lon="10.226648">
<ele>285.715</ele>
<time>2019-05-30T12:06:37Z</time>
</trkpt>
<trkpt lat="49.626244" lon="10.226642">
<ele>285.715</ele>
<time>2019-05-30T12:06:38Z</time>
</trkpt>
<trkpt lat="49.626301" lon="10.226635">
<ele>285.639</ele>
<time>2019-05-30T12:06:39Z</time>
</trkpt>
<trkpt lat="49.62635" lon="10.226627">
<ele>285.579</ele>
<time>2019-05-30T12:06:40Z</time>
</trkpt>
<trkpt lat="49.626404" lon="10.226613">
<ele>285.536</ele>
<time>2019-05-30T12:06:41Z</time>
</trkpt>
<trkpt lat="49.62645" lon="10.226604">
<ele>285.504</ele>
<time>2019-05-30T12:06:42Z</time>
</trkpt>
<trkpt lat="49.626507" lon="10.226598">
<ele>285.481</ele>
<time>2019-05-30T12:06:43Z</time>
</trkpt>
<trkpt lat="49.626556" lon="10.226592">
<ele>285.468</ele>
<time>2019-05-30T12:06:44Z</time>
</trkpt>
<trkpt lat="49.626602" lon="10.226582">
<ele>285.461</ele>
<time>2019-05-30T12:06:45Z</time>
</trkpt>
<trkpt lat="49.626652" lon="10.226575">
<ele>285.461</ele>
<time>2019-05-30T12:06:46Z</time>
</trkpt>
<trkpt lat="49.626701" lon="10.226566">
<ele>285.461</ele>
<time>2019-05-30T12:06:47Z</time>
</trkpt>
<trkpt lat="49.626751" lon="10.226557">
<ele>285.461</ele>
<time>2019-05-30T12:06:48Z</time>
</trkpt>
<trkpt lat="49.626801" lon="10.22655">
<ele>285.461</ele>
<time>2019-05-30T12:06:49Z</time>
</trkpt>
<trkpt lat="49.626854" lon="10.22654">
<ele>285.461</ele>
<time>2019-05-30T12:06:50Z</time>
</trkpt>
<trkpt lat="49.6269" lon="10.226528">
<ele>285.461</ele>
<time>2019-05-30T12:06:51Z</time>
</trkpt>
<trkpt lat="49.626953" lon="10.226521">
<ele>285.461</ele>
<time>2019-05-30T12:06:52Z</time>
</trkpt>
<trkpt lat="49.627003" lon="10.226514">
<ele>285.461</ele>
<time>2019-05-30T12:06:53Z</time>
</trkpt>
<trkpt lat="49.62706" lon="10.226505">
<ele>285.461</ele>
<time>2019-05-30T12:06:54Z</time>
</trkpt>
<trkpt lat="49.62711" lon="10.226493">
<ele>285.461</ele>
<time>2019-05-30T12:06:55Z</time>
</trkpt>
<trkpt lat="49.627159" lon="10.226482">
<ele>285.461</ele>
<time>2019-05-30T12:06:56Z</time>
</trkpt>
<trkpt lat="49.627216" lon="10.226468">
<ele>285.461</ele>
<time>2019-05-30T12:06:57Z</time>
</trkpt>
<trkpt lat="49.62727" lon="10.226449">
<ele>285.461</ele>
<time>2019-05-30T12:06:58Z</time>
</trkpt>
<trkpt lat="49.627319" lon="10.226432">
<ele>285.461</ele>
<time>2019-05-30T12:06:59Z</time>
</trkpt>
<trkpt lat="49.627369" lon="10.226407">
<ele>285.461</ele>
<time>2019-05-30T12:07:00Z</time>
</trkpt>
<trkpt lat="49.627419" lon="10.226382">
<ele>285.461</ele>
<time>2019-05-30T12:07:01Z</time>
</trkpt>
<trkpt lat="49.627468" lon="10.226352">
<ele>285.461</ele>
<time>2019-05-30T12:07:02Z</time>
</trkpt>
<trkpt lat="49.627514" lon="10.226316">
<ele>285.461</ele>
<time>2019-05-30T12:07:03Z</time>
</trkpt>
<trkpt lat="49.627552" lon="10.226278">
<ele>285.461</ele>
<time>2019-05-30T12:07:04Z</time>
</trkpt>
<trkpt lat="49.627598" lon="10.226235">
<ele>285.461</ele>
<time>2019-05-30T12:07:05Z</time>
</trkpt>
<trkpt lat="49.62764" lon="10.22619">
<ele>285.461</ele>
<time>2019-05-30T12:07:06Z</time>
</trkpt>
<trkpt lat="49.627678" lon="10.226141">
<ele>285.461</ele>
<time>2019-05-30T12:07:07Z</time>
</trkpt>
<trkpt lat="49.627716" lon="10.226093">
<ele>285.461</ele>
<time>2019-05-30T12:07:08Z</time>
</trkpt>
<trkpt lat="49.627758" lon="10.226045">
<ele>285.667</ele>
<time>2019-05-30T12:07:09Z</time>
</trkpt>
<trkpt lat="49.627796" lon="10.225995">
<ele>285.839</ele>
<time>2019-05-30T12:07:10Z</time>
</trkpt>
<trkpt lat="49.627834" lon="10.225945">
<ele>285.982</ele>
<time>2019-05-30T12:07:11Z</time>
</trkpt>
<trkpt lat="49.627872" lon="10.225894">
<ele>286.096</ele>
<time>2019-05-30T12:07:12Z</time>
</trkpt>
<trkpt lat="49.627907" lon="10.225843">
<ele>286.183</ele>
<time>2019-05-30T12:07:13Z</time>
</trkpt>
<trkpt lat="49.627949" lon="10.225795">
<ele>286.246</ele>
<time>2019-05-30T12:07:14Z</time>
</trkpt>
<trkpt lat="49.627987" lon="10.225747">
<ele>286.287</ele>
<time>2019-05-30T12:07:15Z</time>
</trkpt>
<trkpt lat="49.628025" lon="10.225697">
<ele>286.307</ele>
<time>2019-05-30T12:07:16Z</time>
</trkpt>
<trkpt lat="49.628063" lon="10.225647">
<ele>286.307</ele>
<time>2019-05-30T12:07:17Z</time>
</trkpt>
<trkpt lat="49.628105" lon="10.225598">
<ele>286.307</ele>
<time>2019-05-30T12:07:18Z</time>
</trkpt>
<trkpt lat="49.628136" lon="10.225552">
<ele>286.307</ele>
<time>2019-05-30T12:07:19Z</time>
</trkpt>
<trkpt lat="49.628174" lon="10.225504">
<ele>286.583</ele>
<time>2019-05-30T12:07:20Z</time>
</trkpt>
<trkpt lat="49.628212" lon="10.225453">
<ele>286.799</ele>
<time>2019-05-30T12:07:21Z</time>
</trkpt>
<trkpt lat="49.62825" lon="10.225407">
<ele>286.958</ele>
<time>2019-05-30T12:07:22Z</time>
</trkpt>
<trkpt lat="49.628284" lon="10.225358">
<ele>287.076</ele>
<time>2019-05-30T12:07:23Z</time>
</trkpt>
<trkpt lat="49.628323" lon="10.225307">
<ele>287.163</ele>
<time>2019-05-30T12:07:24Z</time>
</trkpt>
<trkpt lat="49.628361" lon="10.225257">
<ele>287.209</ele>
<time>2019-05-30T12:07:25Z</time>
</trkpt>
<trkpt lat="49.628395" lon="10.225208">
<ele>287.233</ele>
<time>2019-05-30T12:07:26Z</time>
</trkpt>
<trkpt lat="49.628437" lon="10.225162">
<ele>287.237</ele>
<time>2019-05-30T12:07:27Z</time>
</trkpt>
<trkpt lat="49.628475" lon="10.225113">
<ele>287.237</ele>
<time>2019-05-30T12:07:28Z</time>
</trkpt>
<trkpt lat="49.628517" lon="10.225063">
<ele>287.465</ele>
<time>2019-05-30T12:07:29Z</time>
</trkpt>
<trkpt lat="49.628555" lon="10.225016">
<ele>287.656</ele>
<time>2019-05-30T12:07:30Z</time>
</trkpt>
<trkpt lat="49.628593" lon="10.224968">
<ele>287.812</ele>
<time>2019-05-30T12:07:31Z</time>
</trkpt>
<trkpt lat="49.628628" lon="10.224921">
<ele>287.934</ele>
<time>2019-05-30T12:07:32Z</time>
</trkpt>
<trkpt lat="49.628666" lon="10.224875">
<ele>288.03</ele>
<time>2019-05-30T12:07:33Z</time>
</trkpt>
<trkpt lat="49.628704" lon="10.224825">
<ele>288.1</ele>
<time>2019-05-30T12:07:34Z</time>
</trkpt>
<trkpt lat="49.628738" lon="10.224779">
<ele>288.145</ele>
<time>2019-05-30T12:07:35Z</time>
</trkpt>
<trkpt lat="49.628777" lon="10.224731">
<ele>288.167</ele>
<time>2019-05-30T12:07:36Z</time>
</trkpt>
<trkpt lat="49.628815" lon="10.224687">
<ele>288.167</ele>
<time>2019-05-30T12:07:37Z</time>
</trkpt>
<trkpt lat="49.628853" lon="10.224642">
<ele>288.167</ele>
<time>2019-05-30T12:07:38Z</time>
</trkpt>
<trkpt lat="49.628887" lon="10.224597">
<ele>288.167</ele>
<time>2019-05-30T12:07:39Z</time>
</trkpt>
<trkpt lat="49.628929" lon="10.224551">
<ele>288.167</ele>
<time>2019-05-30T12:07:40Z</time>
</trkpt>
<trkpt lat="49.628967" lon="10.224506">
<ele>288.167</ele>
<time>2019-05-30T12:07:41Z</time>
</trkpt>
<trkpt lat="49.629005" lon="10.224459">
<ele>288.167</ele>
<time>2019-05-30T12:07:42Z</time>
</trkpt>
<trkpt lat="49.629047" lon="10.22441">
<ele>288.167</ele>
<time>2019-05-30T12:07:43Z</time>
</trkpt>
<trkpt lat="49.629082" lon="10.22436">
<ele>288.394</ele>
<time>2019-05-30T12:07:44Z</time>
</trkpt>
<trkpt lat="49.629124" lon="10.224314">
<ele>288.568</ele>
<time>2019-05-30T12:07:45Z</time>
</trkpt>
<trkpt lat="49.629162" lon="10.224263">
<ele>288.703</ele>
<time>2019-05-30T12:07:46Z</time>
</trkpt>
<trkpt lat="49.629204" lon="10.22421">
<ele>288.806</ele>
<time>2019-05-30T12:07:47Z</time>
</trkpt>
<trkpt lat="49.629246" lon="10.224159">
<ele>288.875</ele>
<time>2019-05-30T12:07:48Z</time>
</trkpt>
<trkpt lat="49.629284" lon="10.224113">
<ele>288.946</ele>
<time>2019-05-30T12:07:49Z</time>
</trkpt>
<trkpt lat="49.62933" lon="10.224069">
<ele>288.991</ele>
<time>2019-05-30T12:07:50Z</time>
</trkpt>
<trkpt lat="49.629372" lon="10.224021">
<ele>289.013</ele>
<time>2019-05-30T12:07:51Z</time>
</trkpt>
<trkpt lat="49.629414" lon="10.223972">
<ele>289.013</ele>
<time>2019-05-30T12:07:52Z</time>
</trkpt>
<trkpt lat="49.629456" lon="10.22392">
<ele>289.013</ele>
<time>2019-05-30T12:07:53Z</time>
</trkpt>
<trkpt lat="49.629498" lon="10.22387">
<ele>289.013</ele>
<time>2019-05-30T12:07:54Z</time>
</trkpt>
<trkpt lat="49.629539" lon="10.22382">
<ele>289.013</ele>
<time>2019-05-30T12:07:55Z</time>
</trkpt>
<trkpt lat="49.629574" lon="10.223773">
<ele>289.013</ele>
<time>2019-05-30T12:07:56Z</time>
</trkpt>
<trkpt lat="49.62962" lon="10.223725">
<ele>289.013</ele>
<time>2019-05-30T12:07:57Z</time>
</trkpt>
<trkpt lat="49.629662" lon="10.223677">
<ele>289.013</ele>
<time>2019-05-30T12:07:58Z</time>
</trkpt>
<trkpt lat="49.629704" lon="10.22363">
<ele>289.013</ele>
<time>2019-05-30T12:07:59Z</time>
</trkpt>
<trkpt lat="49.629745" lon="10.22358">
<ele>289.013</ele>
<time>2019-05-30T12:08:00Z</time>
</trkpt>
<trkpt lat="49.629787" lon="10.22353">
<ele>289.013</ele>
<time>2019-05-30T12:08:01Z</time>
</trkpt>
<trkpt lat="49.629829" lon="10.22348">
<ele>289.013</ele>
<time>2019-05-30T12:08:02Z</time>
</trkpt>
<trkpt lat="49.629868" lon="10.22343">
<ele>289.013</ele>
<time>2019-05-30T12:08:03Z</time>
</trkpt>
<trkpt lat="49.62991" lon="10.22338">
<ele>289.013</ele>
<time>2019-05-30T12:08:04Z</time>
</trkpt>
<trkpt lat="49.629951" lon="10.223333">
<ele>289.013</ele>
<time>2019-05-30T12:08:05Z</time>
</trkpt>
<trkpt lat="49.629993" lon="10.223284">
<ele>289.013</ele>
<time>2019-05-30T12:08:06Z</time>
</trkpt>
<trkpt lat="49.630032" lon="10.223235">
<ele>289.013</ele>
<time>2019-05-30T12:08:07Z</time>
</trkpt>
<trkpt lat="49.630074" lon="10.223186">
<ele>289.013</ele>
<time>2019-05-30T12:08:08Z</time>
</trkpt>
<trkpt lat="49.630119" lon="10.223139">
<ele>289.013</ele>
<time>2019-05-30T12:08:09Z</time>
</trkpt>
<trkpt lat="49.630157" lon="10.22309">
<ele>289.013</ele>
<time>2019-05-30T12:08:10Z</time>
</trkpt>
<trkpt lat="49.630199" lon="10.223042">
<ele>289.013</ele>
<time>2019-05-30T12:08:11Z</time>
</trkpt>
<trkpt lat="49.630245" lon="10.222994">
<ele>289.013</ele>
<time>2019-05-30T12:08:12Z</time>
</trkpt>
<trkpt lat="49.630287" lon="10.222943">
<ele>289.013</ele>
<time>2019-05-30T12:08:13Z</time>
</trkpt>
<trkpt lat="49.630333" lon="10.222894">
<ele>289.013</ele>
<time>2019-05-30T12:08:14Z</time>
</trkpt>
<trkpt lat="49.630375" lon="10.222847">
<ele>289.013</ele>
<time>2019-05-30T12:08:15Z</time>
</trkpt>
<trkpt lat="49.630417" lon="10.222801">
<ele>289.013</ele>
<time>2019-05-30T12:08:16Z</time>
</trkpt>
<trkpt lat="49.630463" lon="10.222754">
<ele>289.013</ele>
<time>2019-05-30T12:08:17Z</time>
</trkpt>
<trkpt lat="49.630505" lon="10.222701">
<ele>289.013</ele>
<time>2019-05-30T12:08:18Z</time>
</trkpt>
<trkpt lat="49.63055" lon="10.222651">
<ele>289.013</ele>
<time>2019-05-30T12:08:19Z</time>
</trkpt>
<trkpt lat="49.6306" lon="10.222602">
<ele>289.013</ele>
<time>2019-05-30T12:08:20Z</time>
</trkpt>
<trkpt lat="49.630646" lon="10.222552">
<ele>289.013</ele>
<time>2019-05-30T12:08:21Z</time>
</trkpt>
<trkpt lat="49.630692" lon="10.222504">
<ele>288.772</ele>
<time>2019-05-30T12:08:22Z</time>
</trkpt>
<trkpt lat="49.630745" lon="10.222455">
<ele>288.586</ele>
<time>2019-05-30T12:08:23Z</time>
</trkpt>
<trkpt lat="49.630795" lon="10.222404">
<ele>288.442</ele>
<time>2019-05-30T12:08:24Z</time>
</trkpt>
<trkpt lat="49.630844" lon="10.222353">
<ele>288.34</ele>
<time>2019-05-30T12:08:25Z</time>
</trkpt>
<trkpt lat="49.630901" lon="10.222305">
<ele>288.27</ele>
<time>2019-05-30T12:08:26Z</time>
</trkpt>
<trkpt lat="49.630959" lon="10.222257">
<ele>288.225</ele>
<time>2019-05-30T12:08:27Z</time>
</trkpt>
<trkpt lat="49.631012" lon="10.222217">
<ele>288.19</ele>
<time>2019-05-30T12:08:28Z</time>
</trkpt>
<trkpt lat="49.631069" lon="10.222178">
<ele>288.167</ele>
<time>2019-05-30T12:08:29Z</time>
</trkpt>
<trkpt lat="49.63113" lon="10.222139">
<ele>288.167</ele>
<time>2019-05-30T12:08:30Z</time>
</trkpt>
<trkpt lat="49.631191" lon="10.2221">
<ele>287.892</ele>
<time>2019-05-30T12:08:31Z</time>
</trkpt>
<trkpt lat="49.631252" lon="10.222062">
<ele>287.686</ele>
<time>2019-05-30T12:08:32Z</time>
</trkpt>
<trkpt lat="49.631313" lon="10.222024">
<ele>287.528</ele>
<time>2019-05-30T12:08:33Z</time>
</trkpt>
<trkpt lat="49.631378" lon="10.221989">
<ele>287.436</ele>
<time>2019-05-30T12:08:34Z</time>
</trkpt>
<trkpt lat="49.631447" lon="10.221962">
<ele>287.098</ele>
<time>2019-05-30T12:08:35Z</time>
</trkpt>
<trkpt lat="49.631519" lon="10.221942">
<ele>286.855</ele>
<time>2019-05-30T12:08:36Z</time>
</trkpt>
<trkpt lat="49.631588" lon="10.221926">
<ele>286.712</ele>
<time>2019-05-30T12:08:37Z</time>
</trkpt>
<trkpt lat="49.63166" lon="10.221909">
<ele>286.367</ele>
<time>2019-05-30T12:08:38Z</time>
</trkpt>
<trkpt lat="49.631737" lon="10.221893">
<ele>286.081</ele>
<time>2019-05-30T12:08:39Z</time>
</trkpt>
<trkpt lat="49.631817" lon="10.221882">
<ele>285.883</ele>
<time>2019-05-30T12:08:40Z</time>
</trkpt>
<trkpt lat="49.631893" lon="10.221873">
<ele>285.432</ele>
<time>2019-05-30T12:08:41Z</time>
</trkpt>
<trkpt lat="49.631981" lon="10.221869">
<ele>285.084</ele>
<time>2019-05-30T12:08:42Z</time>
</trkpt>
<trkpt lat="49.632065" lon="10.221867">
<ele>284.876</ele>
<time>2019-05-30T12:08:43Z</time>
</trkpt>
<trkpt lat="49.632149" lon="10.221865">
<ele>284.434</ele>
<time>2019-05-30T12:08:44Z</time>
</trkpt>
<trkpt lat="49.632244" lon="10.221869">
<ele>284.094</ele>
<time>2019-05-30T12:08:45Z</time>
</trkpt>
<trkpt lat="49.632336" lon="10.221878">
<ele>283.853</ele>
<time>2019-05-30T12:08:46Z</time>
</trkpt>
<trkpt lat="49.632427" lon="10.221892">
<ele>283.496</ele>
<time>2019-05-30T12:08:47Z</time>
</trkpt>
<trkpt lat="49.632526" lon="10.221905">
<ele>282.95</ele>
<time>2019-05-30T12:08:48Z</time>
</trkpt>
<trkpt lat="49.632629" lon="10.221922">
<ele>282.519</ele>
<time>2019-05-30T12:08:49Z</time>
</trkpt>
<trkpt lat="49.632729" lon="10.221936">
<ele>281.98</ele>
<time>2019-05-30T12:08:50Z</time>
</trkpt>
<trkpt lat="49.632832" lon="10.221951">
<ele>281.243</ele>
<time>2019-05-30T12:08:51Z</time>
</trkpt>
<trkpt lat="49.632931" lon="10.221967">
<ele>280.751</ele>
<time>2019-05-30T12:08:52Z</time>
</trkpt>
<trkpt lat="49.633038" lon="10.221983">
<ele>280.112</ele>
<time>2019-05-30T12:08:53Z</time>
</trkpt>
<trkpt lat="49.633144" lon="10.221998">
<ele>279.349</ele>
<time>2019-05-30T12:08:54Z</time>
</trkpt>
<trkpt lat="49.633255" lon="10.222013">
<ele>278.851</ele>
<time>2019-05-30T12:08:55Z</time>
</trkpt>
<trkpt lat="49.633358" lon="10.222029">
<ele>278.116</ele>
<time>2019-05-30T12:08:56Z</time>
</trkpt>
<trkpt lat="49.633469" lon="10.22204">
<ele>277.416</ele>
<time>2019-05-30T12:08:57Z</time>
</trkpt>
<trkpt lat="49.633579" lon="10.222052">
<ele>276.891</ele>
<time>2019-05-30T12:08:58Z</time>
</trkpt>
<trkpt lat="49.63369" lon="10.222064">
<ele>276.226</ele>
<time>2019-05-30T12:08:59Z</time>
</trkpt>
<trkpt lat="49.633804" lon="10.222076">
<ele>275.212</ele>
<time>2019-05-30T12:09:00Z</time>
</trkpt>
<trkpt lat="49.633919" lon="10.22209">
<ele>274.532</ele>
<time>2019-05-30T12:09:01Z</time>
</trkpt>
<trkpt lat="49.634037" lon="10.222103">
<ele>273.678</ele>
<time>2019-05-30T12:09:02Z</time>
</trkpt>
<trkpt lat="49.634151" lon="10.222115">
<ele>273.101</ele>
<time>2019-05-30T12:09:03Z</time>
</trkpt>
<trkpt lat="49.63427" lon="10.22213">
<ele>272.418</ele>
<time>2019-05-30T12:09:04Z</time>
</trkpt>
<trkpt lat="49.634388" lon="10.222143">
<ele>271.689</ele>
<time>2019-05-30T12:09:05Z</time>
</trkpt>
<trkpt lat="49.634506" lon="10.222157">
<ele>270.877</ele>
<time>2019-05-30T12:09:06Z</time>
</trkpt>
<trkpt lat="49.634624" lon="10.222173">
<ele>270.009</ele>
<time>2019-05-30T12:09:07Z</time>
</trkpt>
<trkpt lat="49.634743" lon="10.222187">
<ele>269.438</ele>
<time>2019-05-30T12:09:08Z</time>
</trkpt>
<trkpt lat="49.634857" lon="10.222194">
<ele>268.736</ele>
<time>2019-05-30T12:09:09Z</time>
</trkpt>
<trkpt lat="49.634979" lon="10.222196">
<ele>267.916</ele>
<time>2019-05-30T12:09:10Z</time>
</trkpt>
<trkpt lat="49.63509" lon="10.22219">
<ele>267.354</ele>
<time>2019-05-30T12:09:11Z</time>
</trkpt>
<trkpt lat="49.635208" lon="10.222178">
<ele>266.658</ele>
<time>2019-05-30T12:09:12Z</time>
</trkpt>
<trkpt lat="49.635319" lon="10.222163">
<ele>266.196</ele>
<time>2019-05-30T12:09:13Z</time>
</trkpt>
<trkpt lat="49.635433" lon="10.222143">
<ele>265.612</ele>
<time>2019-05-30T12:09:14Z</time>
</trkpt>
<trkpt lat="49.635544" lon="10.222122">
<ele>265.215</ele>
<time>2019-05-30T12:09:15Z</time>
</trkpt>
<trkpt lat="49.635658" lon="10.222098">
<ele>264.664</ele>
<time>2019-05-30T12:09:16Z</time>
</trkpt>
<trkpt lat="49.635765" lon="10.222072">
<ele>263.994</ele>
<time>2019-05-30T12:09:17Z</time>
</trkpt>
<trkpt lat="49.635876" lon="10.222043">
<ele>263.541</ele>
<time>2019-05-30T12:09:18Z</time>
</trkpt>
<trkpt lat="49.635979" lon="10.222016">
<ele>262.886</ele>
<time>2019-05-30T12:09:19Z</time>
</trkpt>
<trkpt lat="49.636086" lon="10.221989">
<ele>262.389</ele>
<time>2019-05-30T12:09:20Z</time>
</trkpt>
<trkpt lat="49.636189" lon="10.221959">
<ele>262.063</ele>
<time>2019-05-30T12:09:21Z</time>
</trkpt>
<trkpt lat="49.636292" lon="10.221931">
<ele>261.558</ele>
<time>2019-05-30T12:09:22Z</time>
</trkpt>
<trkpt lat="49.636395" lon="10.221909">
<ele>261.213</ele>
<time>2019-05-30T12:09:23Z</time>
</trkpt>
<trkpt lat="49.636497" lon="10.221887">
<ele>260.733</ele>
<time>2019-05-30T12:09:24Z</time>
</trkpt>
<trkpt lat="49.636597" lon="10.221865">
<ele>260.371</ele>
<time>2019-05-30T12:09:25Z</time>
</trkpt>
<trkpt lat="49.636688" lon="10.221844">
<ele>260.098</ele>
<time>2019-05-30T12:09:26Z</time>
</trkpt>
<trkpt lat="49.63678" lon="10.22182">
<ele>259.94</ele>
<time>2019-05-30T12:09:27Z</time>
</trkpt>
<trkpt lat="49.636875" lon="10.2218">
<ele>259.556</ele>
<time>2019-05-30T12:09:28Z</time>
</trkpt>
<trkpt lat="49.636959" lon="10.221779">
<ele>259.233</ele>
<time>2019-05-30T12:09:29Z</time>
</trkpt>
<trkpt lat="49.637039" lon="10.221754">
<ele>258.998</ele>
<time>2019-05-30T12:09:30Z</time>
</trkpt>
<trkpt lat="49.637123" lon="10.221722">
<ele>258.844</ele>
<time>2019-05-30T12:09:31Z</time>
</trkpt>
<trkpt lat="49.637199" lon="10.221686">
<ele>258.459</ele>
<time>2019-05-30T12:09:32Z</time>
</trkpt>
<trkpt lat="49.63728" lon="10.221649">
<ele>258.145</ele>
<time>2019-05-30T12:09:33Z</time>
</trkpt>
<trkpt lat="49.63736" lon="10.221612">
<ele>257.898</ele>
<time>2019-05-30T12:09:34Z</time>
</trkpt>
<trkpt lat="49.637432" lon="10.221577">
<ele>257.746</ele>
<time>2019-05-30T12:09:35Z</time>
</trkpt>
<trkpt lat="49.637508" lon="10.221546">
<ele>257.346</ele>
<time>2019-05-30T12:09:36Z</time>
</trkpt>
<trkpt lat="49.637585" lon="10.221523">
<ele>257.076</ele>
<time>2019-05-30T12:09:37Z</time>
</trkpt>
<trkpt lat="49.637661" lon="10.221497">
<ele>256.878</ele>
<time>2019-05-30T12:09:38Z</time>
</trkpt>
<trkpt lat="49.637741" lon="10.221474">
<ele>256.698</ele>
<time>2019-05-30T12:09:39Z</time>
</trkpt>
<trkpt lat="49.637817" lon="10.221455">
<ele>256.591</ele>
<time>2019-05-30T12:09:40Z</time>
</trkpt>
<trkpt lat="49.63789" lon="10.221437">
<ele>256.281</ele>
<time>2019-05-30T12:09:41Z</time>
</trkpt>
<trkpt lat="49.637974" lon="10.221421">
<ele>256.035</ele>
<time>2019-05-30T12:09:42Z</time>
</trkpt>
<trkpt lat="49.638046" lon="10.2214">
<ele>255.851</ele>
<time>2019-05-30T12:09:43Z</time>
</trkpt>
<trkpt lat="49.638123" lon="10.221375">
<ele>255.692</ele>
<time>2019-05-30T12:09:44Z</time>
</trkpt>
<trkpt lat="49.638203" lon="10.221347">
<ele>255.319</ele>
<time>2019-05-30T12:09:45Z</time>
</trkpt>
<trkpt lat="49.638287" lon="10.22131">
<ele>255.041</ele>
<time>2019-05-30T12:09:46Z</time>
</trkpt>
<trkpt lat="49.638367" lon="10.221273">
<ele>254.837</ele>
<time>2019-05-30T12:09:47Z</time>
</trkpt>
<trkpt lat="49.638451" lon="10.221233">
<ele>254.697</ele>
<time>2019-05-30T12:09:48Z</time>
</trkpt>
<trkpt lat="49.638535" lon="10.221203">
<ele>254.576</ele>
<time>2019-05-30T12:09:49Z</time>
</trkpt>
<trkpt lat="49.638607" lon="10.22118">
<ele>254.255</ele>
<time>2019-05-30T12:09:50Z</time>
</trkpt>
<trkpt lat="49.638683" lon="10.221169">
<ele>254.006</ele>
<time>2019-05-30T12:09:51Z</time>
</trkpt>
<trkpt lat="49.63876" lon="10.221169">
<ele>253.827</ele>
<time>2019-05-30T12:09:52Z</time>
</trkpt>
<trkpt lat="49.638836" lon="10.221184">
<ele>253.63</ele>
<time>2019-05-30T12:09:53Z</time>
</trkpt>
<trkpt lat="49.638905" lon="10.22121">
<ele>253.55</ele>
<time>2019-05-30T12:09:54Z</time>
</trkpt>
<trkpt lat="49.638973" lon="10.22125">
<ele>253.501</ele>
<time>2019-05-30T12:09:55Z</time>
</trkpt>
<trkpt lat="49.639034" lon="10.2213">
<ele>253.25</ele>
<time>2019-05-30T12:09:56Z</time>
</trkpt>
<trkpt lat="49.639091" lon="10.22136">
<ele>253.065</ele>
<time>2019-05-30T12:09:57Z</time>
</trkpt>
<trkpt lat="49.639156" lon="10.221416">
<ele>252.935</ele>
<time>2019-05-30T12:09:58Z</time>
</trkpt>
<trkpt lat="49.639217" lon="10.221469">
<ele>252.799</ele>
<time>2019-05-30T12:09:59Z</time>
</trkpt>
<trkpt lat="49.639278" lon="10.221517">
<ele>252.695</ele>
<time>2019-05-30T12:10:00Z</time>
</trkpt>
<trkpt lat="49.639343" lon="10.221555">
<ele>252.618</ele>
<time>2019-05-30T12:10:01Z</time>
</trkpt>
<trkpt lat="49.639408" lon="10.221576">
<ele>252.569</ele>
<time>2019-05-30T12:10:02Z</time>
</trkpt>
<trkpt lat="49.639469" lon="10.221576">
<ele>252.342</ele>
<time>2019-05-30T12:10:03Z</time>
</trkpt>
<trkpt lat="49.639538" lon="10.22155">
<ele>252.139</ele>
<time>2019-05-30T12:10:04Z</time>
</trkpt>
<trkpt lat="49.639595" lon="10.221513">
<ele>252.004</ele>
<time>2019-05-30T12:10:05Z</time>
</trkpt>
<trkpt lat="49.639645" lon="10.22147">
<ele>251.9</ele>
<time>2019-05-30T12:10:06Z</time>
</trkpt>
<trkpt lat="49.639702" lon="10.22143">
<ele>251.828</ele>
<time>2019-05-30T12:10:07Z</time>
</trkpt>
<trkpt lat="49.639744" lon="10.221365">
<ele>251.773</ele>
<time>2019-05-30T12:10:08Z</time>
</trkpt>
<trkpt lat="49.639801" lon="10.221298">
<ele>251.724</ele>
<time>2019-05-30T12:10:09Z</time>
</trkpt>
<trkpt lat="49.639847" lon="10.221236">
<ele>251.7</ele>
<time>2019-05-30T12:10:10Z</time>
</trkpt>
<trkpt lat="49.639893" lon="10.221178">
<ele>251.7</ele>
<time>2019-05-30T12:10:11Z</time>
</trkpt>
<trkpt lat="49.639942" lon="10.221122">
<ele>251.7</ele>
<time>2019-05-30T12:10:12Z</time>
</trkpt>
<trkpt lat="49.639988" lon="10.22106">
<ele>251.7</ele>
<time>2019-05-30T12:10:13Z</time>
</trkpt>
<trkpt lat="49.64003" lon="10.221004">
<ele>251.7</ele>
<time>2019-05-30T12:10:14Z</time>
</trkpt>
<trkpt lat="49.640076" lon="10.22095">
<ele>251.7</ele>
<time>2019-05-30T12:10:15Z</time>
</trkpt>
<trkpt lat="49.640118" lon="10.2209">
<ele>251.7</ele>
<time>2019-05-30T12:10:16Z</time>
</trkpt>
<trkpt lat="49.64016" lon="10.220851">
<ele>251.7</ele>
<time>2019-05-30T12:10:17Z</time>
</trkpt>
<trkpt lat="49.640202" lon="10.220803">
<ele>251.7</ele>
<time>2019-05-30T12:10:18Z</time>
</trkpt>
<trkpt lat="49.640244" lon="10.220753">
<ele>251.7</ele>
<time>2019-05-30T12:10:19Z</time>
</trkpt>
<trkpt lat="49.640293" lon="10.220707">
<ele>251.7</ele>
<time>2019-05-30T12:10:20Z</time>
</trkpt>
<trkpt lat="49.640343" lon="10.220663">
<ele>251.7</ele>
<time>2019-05-30T12:10:21Z</time>
</trkpt>
<trkpt lat="49.640385" lon="10.220632">
<ele>251.7</ele>
<time>2019-05-30T12:10:22Z</time>
</trkpt>
<trkpt lat="49.640427" lon="10.2206">
<ele>251.7</ele>
<time>2019-05-30T12:10:23Z</time>
</trkpt>
<trkpt lat="49.640484" lon="10.220573">
<ele>251.7</ele>
<time>2019-05-30T12:10:24Z</time>
</trkpt>
<trkpt lat="49.640541" lon="10.220551">
<ele>251.7</ele>
<time>2019-05-30T12:10:25Z</time>
</trkpt>
<trkpt lat="49.640598" lon="10.220536">
<ele>251.466</ele>
<time>2019-05-30T12:10:26Z</time>
</trkpt>
<trkpt lat="49.640656" lon="10.220522">
<ele>251.28</ele>
<time>2019-05-30T12:10:27Z</time>
</trkpt>
<trkpt lat="49.640717" lon="10.220503">
<ele>251.154</ele>
<time>2019-05-30T12:10:28Z</time>
</trkpt>
<trkpt lat="49.640774" lon="10.220487">
<ele>251.013</ele>
<time>2019-05-30T12:10:29Z</time>
</trkpt>
<trkpt lat="49.640827" lon="10.220473">
<ele>250.906</ele>
<time>2019-05-30T12:10:30Z</time>
</trkpt>
<trkpt lat="49.640884" lon="10.220455">
<ele>250.839</ele>
<time>2019-05-30T12:10:31Z</time>
</trkpt>
<trkpt lat="49.640942" lon="10.220436">
<ele>250.795</ele>
<time>2019-05-30T12:10:32Z</time>
</trkpt>
<trkpt lat="49.640991" lon="10.220415">
<ele>250.773</ele>
<time>2019-05-30T12:10:33Z</time>
</trkpt>
<trkpt lat="49.641045" lon="10.220392">
<ele>250.773</ele>
<time>2019-05-30T12:10:34Z</time>
</trkpt>
<trkpt lat="49.641087" lon="10.220368">
<ele>250.773</ele>
<time>2019-05-30T12:10:35Z</time>
</trkpt>
<trkpt lat="49.641132" lon="10.220338">
<ele>250.773</ele>
<time>2019-05-30T12:10:36Z</time>
</trkpt>
<trkpt lat="49.641178" lon="10.220304">
<ele>250.773</ele>
<time>2019-05-30T12:10:37Z</time>
</trkpt>
<trkpt lat="49.641224" lon="10.220266">
<ele>250.773</ele>
<time>2019-05-30T12:10:38Z</time>
</trkpt>
<trkpt lat="49.641273" lon="10.220224">
<ele>250.773</ele>
<time>2019-05-30T12:10:39Z</time>
</trkpt>
<trkpt lat="49.641319" lon="10.220185">
<ele>250.773</ele>
<time>2019-05-30T12:10:40Z</time>
</trkpt>
<trkpt lat="49.641365" lon="10.220145">
<ele>250.773</ele>
<time>2019-05-30T12:10:41Z</time>
</trkpt>
<trkpt lat="49.641403" lon="10.220103">
<ele>250.773</ele>
<time>2019-05-30T12:10:42Z</time>
</trkpt>
<trkpt lat="49.641445" lon="10.220063">
<ele>250.773</ele>
<time>2019-05-30T12:10:43Z</time>
</trkpt>
<trkpt lat="49.641476" lon="10.220021">
<ele>250.773</ele>
<time>2019-05-30T12:10:44Z</time>
</trkpt>
<trkpt lat="49.641502" lon="10.219983">
<ele>250.773</ele>
<time>2019-05-30T12:10:45Z</time>
</trkpt>
<trkpt lat="49.641529" lon="10.21994">
<ele>250.773</ele>
<time>2019-05-30T12:10:46Z</time>
</trkpt>
<trkpt lat="49.641544" lon="10.219895">
<ele>250.96</ele>
<time>2019-05-30T12:10:47Z</time>
</trkpt>
<trkpt lat="49.641567" lon="10.219848">
<ele>251.103</ele>
<time>2019-05-30T12:10:48Z</time>
</trkpt>
<trkpt lat="49.641586" lon="10.219799">
<ele>251.248</ele>
<time>2019-05-30T12:10:49Z</time>
</trkpt>
<trkpt lat="49.641602" lon="10.219742">
<ele>251.374</ele>
<time>2019-05-30T12:10:50Z</time>
</trkpt>
<trkpt lat="49.641613" lon="10.219682">
<ele>251.474</ele>
<time>2019-05-30T12:10:51Z</time>
</trkpt>
<trkpt lat="49.641628" lon="10.219622">
<ele>251.549</ele>
<time>2019-05-30T12:10:52Z</time>
</trkpt>
<trkpt lat="49.64164" lon="10.219559">
<ele>251.596</ele>
<time>2019-05-30T12:10:53Z</time>
</trkpt>
<trkpt lat="49.641659" lon="10.21949">
<ele>251.61</ele>
<time>2019-05-30T12:10:54Z</time>
</trkpt>
<trkpt lat="49.641674" lon="10.219417">
<ele>251.387</ele>
<time>2019-05-30T12:10:55Z</time>
</trkpt>
<trkpt lat="49.641693" lon="10.219343">
<ele>251.212</ele>
<time>2019-05-30T12:10:56Z</time>
</trkpt>
<trkpt lat="49.641708" lon="10.21927">
<ele>251.078</ele>
<time>2019-05-30T12:10:57Z</time>
</trkpt>
<trkpt lat="49.641731" lon="10.219195">
<ele>250.994</ele>
<time>2019-05-30T12:10:58Z</time>
</trkpt>
<trkpt lat="49.64175" lon="10.219114">
<ele>250.898</ele>
<time>2019-05-30T12:10:59Z</time>
</trkpt>
<trkpt lat="49.641769" lon="10.219037">
<ele>250.832</ele>
<time>2019-05-30T12:11:00Z</time>
</trkpt>
<trkpt lat="49.641792" lon="10.21896">
<ele>250.792</ele>
<time>2019-05-30T12:11:01Z</time>
</trkpt>
<trkpt lat="49.641811" lon="10.218885">
<ele>250.773</ele>
<time>2019-05-30T12:11:02Z</time>
</trkpt>
<trkpt lat="49.641834" lon="10.218812">
<ele>250.773</ele>
<time>2019-05-30T12:11:03Z</time>
</trkpt>
<trkpt lat="49.641861" lon="10.218739">
<ele>250.773</ele>
<time>2019-05-30T12:11:04Z</time>
</trkpt>
<trkpt lat="49.64188" lon="10.218665">
<ele>250.773</ele>
<time>2019-05-30T12:11:05Z</time>
</trkpt>
<trkpt lat="49.641903" lon="10.218592">
<ele>250.773</ele>
<time>2019-05-30T12:11:06Z</time>
</trkpt>
<trkpt lat="49.641926" lon="10.218516">
<ele>250.773</ele>
<time>2019-05-30T12:11:07Z</time>
</trkpt>
<trkpt lat="49.641956" lon="10.218447">
<ele>250.773</ele>
<time>2019-05-30T12:11:08Z</time>
</trkpt>
<trkpt lat="49.641987" lon="10.218378">
<ele>250.773</ele>
<time>2019-05-30T12:11:09Z</time>
</trkpt>
<trkpt lat="49.642014" lon="10.218309">
<ele>250.773</ele>
<time>2019-05-30T12:11:10Z</time>
</trkpt>
<trkpt lat="49.642044" lon="10.218246">
<ele>250.773</ele>
<time>2019-05-30T12:11:11Z</time>
</trkpt>
<trkpt lat="49.642078" lon="10.218185">
<ele>250.773</ele>
<time>2019-05-30T12:11:12Z</time>
</trkpt>
<trkpt lat="49.642113" lon="10.218125">
<ele>250.773</ele>
<time>2019-05-30T12:11:13Z</time>
</trkpt>
<trkpt lat="49.642151" lon="10.218066">
<ele>250.773</ele>
<time>2019-05-30T12:11:14Z</time>
</trkpt>
<trkpt lat="49.642185" lon="10.218006">
<ele>250.773</ele>
<time>2019-05-30T12:11:15Z</time>
</trkpt>
<trkpt lat="49.642223" lon="10.217949">
<ele>250.773</ele>
<time>2019-05-30T12:11:16Z</time>
</trkpt>
<trkpt lat="49.642265" lon="10.217896">
<ele>250.773</ele>
<time>2019-05-30T12:11:17Z</time>
</trkpt>
<trkpt lat="49.642311" lon="10.217847">
<ele>250.773</ele>
<time>2019-05-30T12:11:18Z</time>
</trkpt>
<trkpt lat="49.642353" lon="10.217796">
<ele>250.773</ele>
<time>2019-05-30T12:11:19Z</time>
</trkpt>
<trkpt lat="49.642399" lon="10.217744">
<ele>250.773</ele>
<time>2019-05-30T12:11:20Z</time>
</trkpt>
<trkpt lat="49.642445" lon="10.217693">
<ele>250.773</ele>
<time>2019-05-30T12:11:21Z</time>
</trkpt>
<trkpt lat="49.642487" lon="10.217647">
<ele>250.773</ele>
<time>2019-05-30T12:11:22Z</time>
</trkpt>
<trkpt lat="49.642536" lon="10.217606">
<ele>250.773</ele>
<time>2019-05-30T12:11:23Z</time>
</trkpt>
<trkpt lat="49.642582" lon="10.217562">
<ele>250.773</ele>
<time>2019-05-30T12:11:24Z</time>
</trkpt>
<trkpt lat="49.642628" lon="10.217517">
<ele>250.773</ele>
<time>2019-05-30T12:11:25Z</time>
</trkpt>
<trkpt lat="49.642677" lon="10.217468">
<ele>250.773</ele>
<time>2019-05-30T12:11:26Z</time>
</trkpt>
<trkpt lat="49.642719" lon="10.21742">
<ele>250.773</ele>
<time>2019-05-30T12:11:27Z</time>
</trkpt>
<trkpt lat="49.642769" lon="10.217377">
<ele>250.773</ele>
<time>2019-05-30T12:11:28Z</time>
</trkpt>
<trkpt lat="49.642811" lon="10.217333">
<ele>250.773</ele>
<time>2019-05-30T12:11:29Z</time>
</trkpt>
<trkpt lat="49.642864" lon="10.217289">
<ele>250.773</ele>
<time>2019-05-30T12:11:30Z</time>
</trkpt>
<trkpt lat="49.64291" lon="10.217239">
<ele>250.773</ele>
<time>2019-05-30T12:11:31Z</time>
</trkpt>
<trkpt lat="49.64296" lon="10.217192">
<ele>250.773</ele>
<time>2019-05-30T12:11:32Z</time>
</trkpt>
<trkpt lat="49.643005" lon="10.217143">
<ele>250.773</ele>
<time>2019-05-30T12:11:33Z</time>
</trkpt>
<trkpt lat="49.643059" lon="10.217096">
<ele>250.773</ele>
<time>2019-05-30T12:11:34Z</time>
</trkpt>
<trkpt lat="49.643108" lon="10.217047">
<ele>250.773</ele>
<time>2019-05-30T12:11:35Z</time>
</trkpt>
<trkpt lat="49.643162" lon="10.216993">
<ele>250.537</ele>
<time>2019-05-30T12:11:36Z</time>
</trkpt>
<trkpt lat="49.643211" lon="10.216944">
<ele>250.352</ele>
<time>2019-05-30T12:11:37Z</time>
</trkpt>
<trkpt lat="49.643265" lon="10.216893">
<ele>250.228</ele>
<time>2019-05-30T12:11:38Z</time>
</trkpt>
<trkpt lat="49.643322" lon="10.216842">
<ele>250.093</ele>
<time>2019-05-30T12:11:39Z</time>
</trkpt>
<trkpt lat="49.643375" lon="10.216786">
<ele>249.988</ele>
<time>2019-05-30T12:11:40Z</time>
</trkpt>
<trkpt lat="49.643425" lon="10.216732">
<ele>249.915</ele>
<time>2019-05-30T12:11:41Z</time>
</trkpt>
<trkpt lat="49.643486" lon="10.21668">
<ele>249.868</ele>
<time>2019-05-30T12:11:42Z</time>
</trkpt>
<trkpt lat="49.643539" lon="10.21663">
<ele>249.847</ele>
<time>2019-05-30T12:11:43Z</time>
</trkpt>
<trkpt lat="49.643593" lon="10.216579">
<ele>249.846</ele>
<time>2019-05-30T12:11:44Z</time>
</trkpt>
<trkpt lat="49.64365" lon="10.216529">
<ele>249.846</ele>
<time>2019-05-30T12:11:45Z</time>
</trkpt>
<trkpt lat="49.643707" lon="10.216475">
<ele>249.846</ele>
<time>2019-05-30T12:11:46Z</time>
</trkpt>
<trkpt lat="49.643764" lon="10.216427">
<ele>249.847</ele>
<time>2019-05-30T12:11:47Z</time>
</trkpt>
<trkpt lat="49.643818" lon="10.216378">
<ele>249.658</ele>
<time>2019-05-30T12:11:48Z</time>
</trkpt>
<trkpt lat="49.643879" lon="10.216328">
<ele>249.48</ele>
<time>2019-05-30T12:11:49Z</time>
</trkpt>
<trkpt lat="49.643936" lon="10.216278">
<ele>249.334</ele>
<time>2019-05-30T12:11:50Z</time>
</trkpt>
<trkpt lat="49.643997" lon="10.216231">
<ele>249.218</ele>
<time>2019-05-30T12:11:51Z</time>
</trkpt>
<trkpt lat="49.644054" lon="10.216187">
<ele>249.129</ele>
<time>2019-05-30T12:11:52Z</time>
</trkpt>
<trkpt lat="49.644115" lon="10.21614">
<ele>249.065</ele>
<time>2019-05-30T12:11:53Z</time>
</trkpt>
<trkpt lat="49.644176" lon="10.216091">
<ele>249.024</ele>
<time>2019-05-30T12:11:54Z</time>
</trkpt>
<trkpt lat="49.64423" lon="10.216041">
<ele>249.004</ele>
<time>2019-05-30T12:11:55Z</time>
</trkpt>
<trkpt lat="49.644283" lon="10.215986">
<ele>248.751</ele>
<time>2019-05-30T12:11:56Z</time>
</trkpt>
<trkpt lat="49.644337" lon="10.215928">
<ele>248.554</ele>
<time>2019-05-30T12:11:57Z</time>
</trkpt>
<trkpt lat="49.64439" lon="10.215863">
<ele>248.417</ele>
<time>2019-05-30T12:11:58Z</time>
</trkpt>
<trkpt lat="49.644436" lon="10.215798">
<ele>248.268</ele>
<time>2019-05-30T12:11:59Z</time>
</trkpt>
<trkpt lat="49.644489" lon="10.215732">
<ele>248.154</ele>
<time>2019-05-30T12:12:00Z</time>
</trkpt>
<trkpt lat="49.644535" lon="10.215662">
<ele>248.071</ele>
<time>2019-05-30T12:12:01Z</time>
</trkpt>
<trkpt lat="49.644581" lon="10.215586">
<ele>248.018</ele>
<time>2019-05-30T12:12:02Z</time>
</trkpt>
<trkpt lat="49.644623" lon="10.215505">
<ele>247.993</ele>
<time>2019-05-30T12:12:03Z</time>
</trkpt>
<trkpt lat="49.644661" lon="10.215422">
<ele>247.993</ele>
<time>2019-05-30T12:12:04Z</time>
</trkpt>
<trkpt lat="49.644695" lon="10.215335">
<ele>247.993</ele>
<time>2019-05-30T12:12:05Z</time>
</trkpt>
<trkpt lat="49.644726" lon="10.215244">
<ele>247.993</ele>
<time>2019-05-30T12:12:06Z</time>
</trkpt>
<trkpt lat="49.644753" lon="10.215152">
<ele>247.993</ele>
<time>2019-05-30T12:12:07Z</time>
</trkpt>
<trkpt lat="49.644779" lon="10.215056">
<ele>247.993</ele>
<time>2019-05-30T12:12:08Z</time>
</trkpt>
<trkpt lat="49.644802" lon="10.214962">
<ele>247.993</ele>
<time>2019-05-30T12:12:09Z</time>
</trkpt>
<trkpt lat="49.644825" lon="10.214863">
<ele>247.993</ele>
<time>2019-05-30T12:12:10Z</time>
</trkpt>
<trkpt lat="49.644848" lon="10.214767">
<ele>247.993</ele>
<time>2019-05-30T12:12:11Z</time>
</trkpt>
<trkpt lat="49.644867" lon="10.214668">
<ele>247.993</ele>
<time>2019-05-30T12:12:12Z</time>
</trkpt>
<trkpt lat="49.64489" lon="10.214568">
<ele>247.716</ele>
<time>2019-05-30T12:12:13Z</time>
</trkpt>
<trkpt lat="49.644909" lon="10.21447">
<ele>247.5</ele>
<time>2019-05-30T12:12:14Z</time>
</trkpt>
<trkpt lat="49.644932" lon="10.214371">
<ele>247.336</ele>
<time>2019-05-30T12:12:15Z</time>
</trkpt>
<trkpt lat="49.644955" lon="10.214269">
<ele>247.214</ele>
<time>2019-05-30T12:12:16Z</time>
</trkpt>
<trkpt lat="49.644974" lon="10.214167">
<ele>247.149</ele>
<time>2019-05-30T12:12:17Z</time>
</trkpt>
<trkpt lat="49.644993" lon="10.214065">
<ele>246.859</ele>
<time>2019-05-30T12:12:18Z</time>
</trkpt>
<trkpt lat="49.645012" lon="10.213962">
<ele>246.606</ele>
<time>2019-05-30T12:12:19Z</time>
</trkpt>
<trkpt lat="49.645027" lon="10.213858">
<ele>246.419</ele>
<time>2019-05-30T12:12:20Z</time>
</trkpt>
<trkpt lat="49.64505" lon="10.213757">
<ele>246.292</ele>
<time>2019-05-30T12:12:21Z</time>
</trkpt>
<trkpt lat="49.645065" lon="10.213656">
<ele>246.193</ele>
<time>2019-05-30T12:12:22Z</time>
</trkpt>
<trkpt lat="49.645084" lon="10.213556">
<ele>246.123</ele>
<time>2019-05-30T12:12:23Z</time>
</trkpt>
<trkpt lat="49.645096" lon="10.213457">
<ele>246.078</ele>
<time>2019-05-30T12:12:24Z</time>
</trkpt>
<trkpt lat="49.645115" lon="10.213359">
<ele>246.056</ele>
<time>2019-05-30T12:12:25Z</time>
</trkpt>
<trkpt lat="49.645126" lon="10.213257">
<ele>246.056</ele>
<time>2019-05-30T12:12:26Z</time>
</trkpt>
<trkpt lat="49.645142" lon="10.213156">
<ele>246.056</ele>
<time>2019-05-30T12:12:27Z</time>
</trkpt>
<trkpt lat="49.645157" lon="10.213053">
<ele>246.056</ele>
<time>2019-05-30T12:12:28Z</time>
</trkpt>
<trkpt lat="49.645176" lon="10.212953">
<ele>246.056</ele>
<time>2019-05-30T12:12:29Z</time>
</trkpt>
<trkpt lat="49.645191" lon="10.212852">
<ele>245.778</ele>
<time>2019-05-30T12:12:30Z</time>
</trkpt>
<trkpt lat="49.64521" lon="10.212749">
<ele>245.564</ele>
<time>2019-05-30T12:12:31Z</time>
</trkpt>
<trkpt lat="49.645226" lon="10.212648">
<ele>245.4</ele>
<time>2019-05-30T12:12:32Z</time>
</trkpt>
<trkpt lat="49.645245" lon="10.212546">
<ele>245.285</ele>
<time>2019-05-30T12:12:33Z</time>
</trkpt>
<trkpt lat="49.64526" lon="10.212445">
<ele>245.205</ele>
<time>2019-05-30T12:12:34Z</time>
</trkpt>
<trkpt lat="49.645279" lon="10.212345">
<ele>245.152</ele>
<time>2019-05-30T12:12:35Z</time>
</trkpt>
<trkpt lat="49.645294" lon="10.212247">
<ele>245.13</ele>
<time>2019-05-30T12:12:36Z</time>
</trkpt>
<trkpt lat="49.645309" lon="10.212152">
<ele>245.13</ele>
<time>2019-05-30T12:12:37Z</time>
</trkpt>
<trkpt lat="49.645325" lon="10.212056">
<ele>245.13</ele>
<time>2019-05-30T12:12:38Z</time>
</trkpt>
<trkpt lat="49.64534" lon="10.211966">
<ele>245.13</ele>
<time>2019-05-30T12:12:39Z</time>
</trkpt>
<trkpt lat="49.645351" lon="10.211873">
<ele>245.13</ele>
<time>2019-05-30T12:12:40Z</time>
</trkpt>
<trkpt lat="49.64537" lon="10.211783">
<ele>245.13</ele>
<time>2019-05-30T12:12:41Z</time>
</trkpt>
<trkpt lat="49.645382" lon="10.211694">
<ele>245.13</ele>
<time>2019-05-30T12:12:42Z</time>
</trkpt>
<trkpt lat="49.645393" lon="10.211603">
<ele>245.13</ele>
<time>2019-05-30T12:12:43Z</time>
</trkpt>
<trkpt lat="49.645412" lon="10.211515">
<ele>245.37</ele>
<time>2019-05-30T12:12:44Z</time>
</trkpt>
<trkpt lat="49.64542" lon="10.211427">
<ele>245.562</ele>
<time>2019-05-30T12:12:45Z</time>
</trkpt>
<trkpt lat="49.645435" lon="10.21134">
<ele>245.708</ele>
<time>2019-05-30T12:12:46Z</time>
</trkpt>
<trkpt lat="49.645447" lon="10.211253">
<ele>245.821</ele>
<time>2019-05-30T12:12:47Z</time>
</trkpt>
<trkpt lat="49.645462" lon="10.211167">
<ele>245.9</ele>
<time>2019-05-30T12:12:48Z</time>
</trkpt>
<trkpt lat="49.645477" lon="10.211075">
<ele>245.98</ele>
<time>2019-05-30T12:12:49Z</time>
</trkpt>
<trkpt lat="49.645489" lon="10.210987">
<ele>246.031</ele>
<time>2019-05-30T12:12:50Z</time>
</trkpt>
<trkpt lat="49.645508" lon="10.210895">
<ele>246.056</ele>
<time>2019-05-30T12:12:51Z</time>
</trkpt>
<trkpt lat="49.645515" lon="10.210805">
<ele>246.056</ele>
<time>2019-05-30T12:12:52Z</time>
</trkpt>
<trkpt lat="49.645531" lon="10.210711">
<ele>246.056</ele>
<time>2019-05-30T12:12:53Z</time>
</trkpt>
<trkpt lat="49.645546" lon="10.210618">
<ele>246.056</ele>
<time>2019-05-30T12:12:54Z</time>
</trkpt>
<trkpt lat="49.645565" lon="10.210525">
<ele>246.056</ele>
<time>2019-05-30T12:12:55Z</time>
</trkpt>
<trkpt lat="49.645576" lon="10.210428">
<ele>246.056</ele>
<time>2019-05-30T12:12:56Z</time>
</trkpt>
<trkpt lat="49.645599" lon="10.210334">
<ele>245.827</ele>
<time>2019-05-30T12:12:57Z</time>
</trkpt>
<trkpt lat="49.645615" lon="10.210233">
<ele>245.665</ele>
<time>2019-05-30T12:12:58Z</time>
</trkpt>
<trkpt lat="49.645638" lon="10.210133">
<ele>245.5</ele>
<time>2019-05-30T12:12:59Z</time>
</trkpt>
<trkpt lat="49.645657" lon="10.210036">
<ele>245.367</ele>
<time>2019-05-30T12:13:00Z</time>
</trkpt>
<trkpt lat="49.645679" lon="10.20994">
<ele>245.28</ele>
<time>2019-05-30T12:13:01Z</time>
</trkpt>
<trkpt lat="49.645706" lon="10.209848">
<ele>244.994</ele>
<time>2019-05-30T12:13:02Z</time>
</trkpt>
<trkpt lat="49.645725" lon="10.209757">
<ele>244.801</ele>
<time>2019-05-30T12:13:03Z</time>
</trkpt>
<trkpt lat="49.645748" lon="10.209663">
<ele>244.384</ele>
<time>2019-05-30T12:13:04Z</time>
</trkpt>
<trkpt lat="49.645771" lon="10.20957">
<ele>244.006</ele>
<time>2019-05-30T12:13:05Z</time>
</trkpt>
<trkpt lat="49.64579" lon="10.209476">
<ele>243.808</ele>
<time>2019-05-30T12:13:06Z</time>
</trkpt>
<trkpt lat="49.645813" lon="10.209383">
<ele>243.401</ele>
<time>2019-05-30T12:13:07Z</time>
</trkpt>
<trkpt lat="49.64584" lon="10.209289">
<ele>243.088</ele>
<time>2019-05-30T12:13:08Z</time>
</trkpt>
<trkpt lat="49.645866" lon="10.209196">
<ele>242.617</ele>
<time>2019-05-30T12:13:09Z</time>
</trkpt>
<trkpt lat="49.645889" lon="10.209102">
<ele>241.996</ele>
<time>2019-05-30T12:13:10Z</time>
</trkpt>
<trkpt lat="49.645916" lon="10.209002">
<ele>241.572</ele>
<time>2019-05-30T12:13:11Z</time>
</trkpt>
<trkpt lat="49.645939" lon="10.2089">
<ele>240.986</ele>
<time>2019-05-30T12:13:12Z</time>
</trkpt>
<trkpt lat="49.645973" lon="10.208798">
<ele>240.263</ele>
<time>2019-05-30T12:13:13Z</time>
</trkpt>
<trkpt lat="49.646015" lon="10.208701">
<ele>239.707</ele>
<time>2019-05-30T12:13:14Z</time>
</trkpt>
<trkpt lat="49.646069" lon="10.208622">
<ele>239.365</ele>
<time>2019-05-30T12:13:15Z</time>
</trkpt>
<trkpt lat="49.646133" lon="10.208542">
<ele>238.816</ele>
<time>2019-05-30T12:13:16Z</time>
</trkpt>
<trkpt lat="49.646194" lon="10.208467">
<ele>238.42</ele>
<time>2019-05-30T12:13:17Z</time>
</trkpt>
<trkpt lat="49.646255" lon="10.208395">
<ele>238.188</ele>
<time>2019-05-30T12:13:18Z</time>
</trkpt>
<trkpt lat="49.646317" lon="10.208331">
<ele>237.986</ele>
<time>2019-05-30T12:13:19Z</time>
</trkpt>
<trkpt lat="49.646381" lon="10.208282">
<ele>237.863</ele>
<time>2019-05-30T12:13:20Z</time>
</trkpt>
<trkpt lat="49.646446" lon="10.208251">
<ele>237.791</ele>
<time>2019-05-30T12:13:21Z</time>
</trkpt>
<trkpt lat="49.646507" lon="10.208241">
<ele>237.745</ele>
<time>2019-05-30T12:13:22Z</time>
</trkpt>
<trkpt lat="49.646564" lon="10.208241">
<ele>237.721</ele>
<time>2019-05-30T12:13:23Z</time>
</trkpt>
<trkpt lat="49.646629" lon="10.208257">
<ele>237.721</ele>
<time>2019-05-30T12:13:24Z</time>
</trkpt>
<trkpt lat="49.646687" lon="10.208281">
<ele>237.721</ele>
<time>2019-05-30T12:13:25Z</time>
</trkpt>
<trkpt lat="49.646736" lon="10.208305">
<ele>237.721</ele>
<time>2019-05-30T12:13:26Z</time>
</trkpt>
<trkpt lat="49.646786" lon="10.20833">
<ele>237.721</ele>
<time>2019-05-30T12:13:27Z</time>
</trkpt>
<trkpt lat="49.646843" lon="10.208364">
<ele>237.721</ele>
<time>2019-05-30T12:13:28Z</time>
</trkpt>
<trkpt lat="49.6469" lon="10.208398">
<ele>237.941</ele>
<time>2019-05-30T12:13:29Z</time>
</trkpt>
<trkpt lat="49.646946" lon="10.208431">
<ele>238.102</ele>
<time>2019-05-30T12:13:30Z</time>
</trkpt>
<trkpt lat="49.646996" lon="10.208457">
<ele>238.527</ele>
<time>2019-05-30T12:13:31Z</time>
</trkpt>
<trkpt lat="49.647049" lon="10.208477">
<ele>238.643</ele>
<time>2019-05-30T12:13:32Z</time>
</trkpt>
<trkpt lat="49.64711" lon="10.208492">
<ele>238.738</ele>
<time>2019-05-30T12:13:33Z</time>
</trkpt>
<trkpt lat="49.647167" lon="10.208502">
<ele>238.798</ele>
<time>2019-05-30T12:13:34Z</time>
</trkpt>
<trkpt lat="49.647221" lon="10.208505">
<ele>238.82</ele>
<time>2019-05-30T12:13:35Z</time>
</trkpt>
<trkpt lat="49.64727" lon="10.208494">
<ele>238.821</ele>
<time>2019-05-30T12:13:36Z</time>
</trkpt>
<trkpt lat="49.64732" lon="10.208486">
<ele>238.799</ele>
<time>2019-05-30T12:13:37Z</time>
</trkpt>
<trkpt lat="49.647373" lon="10.208471">
<ele>238.776</ele>
<time>2019-05-30T12:13:38Z</time>
</trkpt>
<trkpt lat="49.647427" lon="10.208462">
<ele>238.757</ele>
<time>2019-05-30T12:13:39Z</time>
</trkpt>
<trkpt lat="49.647488" lon="10.208454">
<ele>238.731</ele>
<time>2019-05-30T12:13:40Z</time>
</trkpt>
<trkpt lat="49.647545" lon="10.208447">
<ele>238.731</ele>
<time>2019-05-30T12:13:41Z</time>
</trkpt>
<trkpt lat="49.647598" lon="10.208447">
<ele>238.731</ele>
<time>2019-05-30T12:13:42Z</time>
</trkpt>
<trkpt lat="49.647663" lon="10.208454">
<ele>238.731</ele>
<time>2019-05-30T12:13:43Z</time>
</trkpt>
<trkpt lat="49.64772" lon="10.208468">
<ele>238.731</ele>
<time>2019-05-30T12:13:44Z</time>
</trkpt>
<trkpt lat="49.647774" lon="10.208488">
<ele>238.731</ele>
<time>2019-05-30T12:13:45Z</time>
</trkpt>
<trkpt lat="49.647835" lon="10.208513">
<ele>238.497</ele>
<time>2019-05-30T12:13:46Z</time>
</trkpt>
<trkpt lat="49.647892" lon="10.208542">
<ele>238.311</ele>
<time>2019-05-30T12:13:47Z</time>
</trkpt>
<trkpt lat="49.647949" lon="10.208576">
<ele>238.191</ele>
<time>2019-05-30T12:13:48Z</time>
</trkpt>
<trkpt lat="49.64801" lon="10.208609">
<ele>237.804</ele>
<time>2019-05-30T12:13:49Z</time>
</trkpt>
<trkpt lat="49.648079" lon="10.208638">
<ele>237.489</ele>
<time>2019-05-30T12:13:50Z</time>
</trkpt>
<trkpt lat="49.648148" lon="10.20867">
<ele>237.246</ele>
<time>2019-05-30T12:13:51Z</time>
</trkpt>
<trkpt lat="49.648216" lon="10.208698">
<ele>237.091</ele>
<time>2019-05-30T12:13:52Z</time>
</trkpt>
<trkpt lat="49.648285" lon="10.208723">
<ele>236.739</ele>
<time>2019-05-30T12:13:53Z</time>
</trkpt>
<trkpt lat="49.648361" lon="10.208735">
<ele>236.483</ele>
<time>2019-05-30T12:13:54Z</time>
</trkpt>
<trkpt lat="49.648434" lon="10.208735">
<ele>236.32</ele>
<time>2019-05-30T12:13:55Z</time>
</trkpt>
<trkpt lat="49.64851" lon="10.208716">
<ele>235.914</ele>
<time>2019-05-30T12:13:56Z</time>
</trkpt>
<trkpt lat="49.648582" lon="10.208683">
<ele>235.62</ele>
<time>2019-05-30T12:13:57Z</time>
</trkpt>
<trkpt lat="49.648655" lon="10.208647">
<ele>235.428</ele>
<time>2019-05-30T12:13:58Z</time>
</trkpt>
<trkpt lat="49.648727" lon="10.208611">
<ele>235.233</ele>
<time>2019-05-30T12:13:59Z</time>
</trkpt>
<trkpt lat="49.6488" lon="10.208575">
<ele>235.1</ele>
<time>2019-05-30T12:14:00Z</time>
</trkpt>
<trkpt lat="49.648865" lon="10.20854">
<ele>235.021</ele>
<time>2019-05-30T12:14:01Z</time>
</trkpt>
<trkpt lat="49.648933" lon="10.2085">
<ele>234.97</ele>
<time>2019-05-30T12:14:02Z</time>
</trkpt>
<trkpt lat="49.648991" lon="10.208458">
<ele>234.945</ele>
<time>2019-05-30T12:14:03Z</time>
</trkpt>
<trkpt lat="49.649052" lon="10.20841">
<ele>234.945</ele>
<time>2019-05-30T12:14:04Z</time>
</trkpt>
<trkpt lat="49.649105" lon="10.20836">
<ele>234.945</ele>
<time>2019-05-30T12:14:05Z</time>
</trkpt>
<trkpt lat="49.649162" lon="10.208307">
<ele>234.945</ele>
<time>2019-05-30T12:14:06Z</time>
</trkpt>
<trkpt lat="49.649216" lon="10.208251">
<ele>234.945</ele>
<time>2019-05-30T12:14:07Z</time>
</trkpt>
<trkpt lat="49.649265" lon="10.208193">
<ele>234.945</ele>
<time>2019-05-30T12:14:08Z</time>
</trkpt>
<trkpt lat="49.649311" lon="10.20813">
<ele>234.945</ele>
<time>2019-05-30T12:14:09Z</time>
</trkpt>
<trkpt lat="49.649349" lon="10.208058">
<ele>234.945</ele>
<time>2019-05-30T12:14:10Z</time>
</trkpt>
<trkpt lat="49.649372" lon="10.207976">
<ele>234.945</ele>
<time>2019-05-30T12:14:11Z</time>
</trkpt>
<trkpt lat="49.649391" lon="10.20788">
<ele>234.945</ele>
<time>2019-05-30T12:14:12Z</time>
</trkpt>
<trkpt lat="49.649403" lon="10.207777">
<ele>234.945</ele>
<time>2019-05-30T12:14:13Z</time>
</trkpt>
<trkpt lat="49.649403" lon="10.207671">
<ele>234.945</ele>
<time>2019-05-30T12:14:14Z</time>
</trkpt>
<trkpt lat="49.649391" lon="10.207568">
<ele>234.702</ele>
<time>2019-05-30T12:14:15Z</time>
</trkpt>
<trkpt lat="49.649368" lon="10.207474">
<ele>234.511</ele>
<time>2019-05-30T12:14:16Z</time>
</trkpt>
<trkpt lat="49.649342" lon="10.207378">
<ele>234.395</ele>
<time>2019-05-30T12:14:17Z</time>
</trkpt>
<trkpt lat="49.649311" lon="10.207287">
<ele>234.057</ele>
<time>2019-05-30T12:14:18Z</time>
</trkpt>
<trkpt lat="49.649273" lon="10.207199">
<ele>233.758</ele>
<time>2019-05-30T12:14:19Z</time>
</trkpt>
<trkpt lat="49.649235" lon="10.207111">
<ele>233.531</ele>
<time>2019-05-30T12:14:20Z</time>
</trkpt>
<trkpt lat="49.649197" lon="10.20703">
<ele>233.356</ele>
<time>2019-05-30T12:14:21Z</time>
</trkpt>
<trkpt lat="49.649158" lon="10.206945">
<ele>233.234</ele>
<time>2019-05-30T12:14:22Z</time>
</trkpt>
<trkpt lat="49.649117" lon="10.206861">
<ele>233.171</ele>
<time>2019-05-30T12:14:23Z</time>
</trkpt>
<trkpt lat="49.649075" lon="10.206782">
<ele>232.893</ele>
<time>2019-05-30T12:14:24Z</time>
</trkpt>
<trkpt lat="49.649036" lon="10.206698">
<ele>232.681</ele>
<time>2019-05-30T12:14:25Z</time>
</trkpt>
<trkpt lat="49.649002" lon="10.206612">
<ele>232.511</ele>
<time>2019-05-30T12:14:26Z</time>
</trkpt>
<trkpt lat="49.648968" lon="10.206527">
<ele>232.401</ele>
<time>2019-05-30T12:14:27Z</time>
</trkpt>
<trkpt lat="49.648937" lon="10.206441">
<ele>232.324</ele>
<time>2019-05-30T12:14:28Z</time>
</trkpt>
<trkpt lat="49.648911" lon="10.206357">
<ele>232.244</ele>
<time>2019-05-30T12:14:29Z</time>
</trkpt>
<trkpt lat="49.648888" lon="10.206264">
<ele>232.194</ele>
<time>2019-05-30T12:14:30Z</time>
</trkpt>
<trkpt lat="49.648865" lon="10.206173">
<ele>232.168</ele>
<time>2019-05-30T12:14:31Z</time>
</trkpt>
<trkpt lat="49.648838" lon="10.206072">
<ele>232.169</ele>
<time>2019-05-30T12:14:32Z</time>
</trkpt>
<trkpt lat="49.648819" lon="10.20597">
<ele>232.169</ele>
<time>2019-05-30T12:14:33Z</time>
</trkpt>
<trkpt lat="49.6488" lon="10.205865">
<ele>232.169</ele>
<time>2019-05-30T12:14:34Z</time>
</trkpt>
<trkpt lat="49.648788" lon="10.205765">
<ele>232.168</ele>
<time>2019-05-30T12:14:35Z</time>
</trkpt>
<trkpt lat="49.648785" lon="10.20566">
<ele>232.168</ele>
<time>2019-05-30T12:14:36Z</time>
</trkpt>
<trkpt lat="49.648785" lon="10.205553">
<ele>232.169</ele>
<time>2019-05-30T12:14:37Z</time>
</trkpt>
<trkpt lat="49.6488" lon="10.205459">
<ele>232.169</ele>
<time>2019-05-30T12:14:38Z</time>
</trkpt>
<trkpt lat="49.648808" lon="10.205359">
<ele>232.168</ele>
<time>2019-05-30T12:14:39Z</time>
</trkpt>
<trkpt lat="49.648823" lon="10.205265">
<ele>232.169</ele>
<time>2019-05-30T12:14:40Z</time>
</trkpt>
<trkpt lat="49.648838" lon="10.20517">
<ele>231.906</ele>
<time>2019-05-30T12:14:41Z</time>
</trkpt>
<trkpt lat="49.648853" lon="10.205065">
<ele>231.698</ele>
<time>2019-05-30T12:14:42Z</time>
</trkpt>
<trkpt lat="49.648869" lon="10.20496">
<ele>231.537</ele>
<time>2019-05-30T12:14:43Z</time>
</trkpt>
<trkpt lat="49.64888" lon="10.204853">
<ele>231.421</ele>
<time>2019-05-30T12:14:44Z</time>
</trkpt>
<trkpt lat="49.648895" lon="10.20475">
<ele>231.339</ele>
<time>2019-05-30T12:14:45Z</time>
</trkpt>
<trkpt lat="49.648907" lon="10.204645">
<ele>231.287</ele>
<time>2019-05-30T12:14:46Z</time>
</trkpt>
<trkpt lat="49.648922" lon="10.204538">
<ele>231.264</ele>
<time>2019-05-30T12:14:47Z</time>
</trkpt>
<trkpt lat="49.648937" lon="10.204435">
<ele>231.243</ele>
<time>2019-05-30T12:14:48Z</time>
</trkpt>
<trkpt lat="49.64896" lon="10.204337">
<ele>231.243</ele>
<time>2019-05-30T12:14:49Z</time>
</trkpt>
<trkpt lat="49.648975" lon="10.204235">
<ele>231.243</ele>
<time>2019-05-30T12:14:50Z</time>
</trkpt>
<trkpt lat="49.648991" lon="10.204134">
<ele>230.953</ele>
<time>2019-05-30T12:14:51Z</time>
</trkpt>
<trkpt lat="49.649006" lon="10.204032">
<ele>230.728</ele>
<time>2019-05-30T12:14:52Z</time>
</trkpt>
<trkpt lat="49.649025" lon="10.203932">
<ele>230.556</ele>
<time>2019-05-30T12:14:53Z</time>
</trkpt>
<trkpt lat="49.649044" lon="10.203833">
<ele>230.43</ele>
<time>2019-05-30T12:14:54Z</time>
</trkpt>
<trkpt lat="49.649067" lon="10.203738">
<ele>230.342</ele>
<time>2019-05-30T12:14:55Z</time>
</trkpt>
<trkpt lat="49.649086" lon="10.203644">
<ele>230.287</ele>
<time>2019-05-30T12:14:56Z</time>
</trkpt>
<trkpt lat="49.649109" lon="10.203549">
<ele>230.262</ele>
<time>2019-05-30T12:14:57Z</time>
</trkpt>
<trkpt lat="49.649136" lon="10.203464">
<ele>230.031</ele>
<time>2019-05-30T12:14:58Z</time>
</trkpt>
<trkpt lat="49.649174" lon="10.203383">
<ele>229.839</ele>
<time>2019-05-30T12:14:59Z</time>
</trkpt>
<trkpt lat="49.649212" lon="10.203308">
<ele>229.679</ele>
<time>2019-05-30T12:15:00Z</time>
</trkpt>
<trkpt lat="49.649261" lon="10.203246">
<ele>229.551</ele>
<time>2019-05-30T12:15:01Z</time>
</trkpt>
<trkpt lat="49.649303" lon="10.203197">
<ele>229.451</ele>
<time>2019-05-30T12:15:02Z</time>
</trkpt>
<trkpt lat="49.649353" lon="10.20315">
<ele>229.379</ele>
<time>2019-05-30T12:15:03Z</time>
</trkpt>
<trkpt lat="49.649399" lon="10.203115">
<ele>229.332</ele>
<time>2019-05-30T12:15:04Z</time>
</trkpt>
<trkpt lat="49.649448" lon="10.203076">
<ele>229.31</ele>
<time>2019-05-30T12:15:05Z</time>
</trkpt>
<trkpt lat="49.649494" lon="10.20303">
<ele>229.31</ele>
<time>2019-05-30T12:15:06Z</time>
</trkpt>
<trkpt lat="49.649548" lon="10.202984">
<ele>229.31</ele>
<time>2019-05-30T12:15:07Z</time>
</trkpt>
<trkpt lat="49.649597" lon="10.202935">
<ele>229.107</ele>
<time>2019-05-30T12:15:08Z</time>
</trkpt>
<trkpt lat="49.649647" lon="10.202888">
<ele>228.91</ele>
<time>2019-05-30T12:15:09Z</time>
</trkpt>
<trkpt lat="49.649693" lon="10.202842">
<ele>228.745</ele>
<time>2019-05-30T12:15:10Z</time>
</trkpt>
<trkpt lat="49.649742" lon="10.202795">
<ele>228.616</ele>
<time>2019-05-30T12:15:11Z</time>
</trkpt>
<trkpt lat="49.649788" lon="10.202751">
<ele>228.517</ele>
<time>2019-05-30T12:15:12Z</time>
</trkpt>
<trkpt lat="49.649834" lon="10.202708">
<ele>228.45</ele>
<time>2019-05-30T12:15:13Z</time>
</trkpt>
<trkpt lat="49.649879" lon="10.202672">
<ele>228.407</ele>
<time>2019-05-30T12:15:14Z</time>
</trkpt>
<trkpt lat="49.649937" lon="10.202643">
<ele>228.385</ele>
<time>2019-05-30T12:15:15Z</time>
</trkpt>
<trkpt lat="49.649994" lon="10.202611">
<ele>228.385</ele>
<time>2019-05-30T12:15:16Z</time>
</trkpt>
<trkpt lat="49.650063" lon="10.202588">
<ele>228.385</ele>
<time>2019-05-30T12:15:17Z</time>
</trkpt>
<trkpt lat="49.650135" lon="10.20257">
<ele>228.385</ele>
<time>2019-05-30T12:15:18Z</time>
</trkpt>
<trkpt lat="49.650211" lon="10.202553">
<ele>228.385</ele>
<time>2019-05-30T12:15:19Z</time>
</trkpt>
<trkpt lat="49.650284" lon="10.202541">
<ele>228.385</ele>
<time>2019-05-30T12:15:20Z</time>
</trkpt>
<trkpt lat="49.650352" lon="10.20253">
<ele>228.385</ele>
<time>2019-05-30T12:15:21Z</time>
</trkpt>
<trkpt lat="49.650417" lon="10.202518">
<ele>228.385</ele>
<time>2019-05-30T12:15:22Z</time>
</trkpt>
<trkpt lat="49.650486" lon="10.202497">
<ele>228.385</ele>
<time>2019-05-30T12:15:23Z</time>
</trkpt>
<trkpt lat="49.650551" lon="10.202467">
<ele>228.141</ele>
<time>2019-05-30T12:15:24Z</time>
</trkpt>
<trkpt lat="49.650612" lon="10.20242">
<ele>227.955</ele>
<time>2019-05-30T12:15:25Z</time>
</trkpt>
<trkpt lat="49.650665" lon="10.202362">
<ele>227.81</ele>
<time>2019-05-30T12:15:26Z</time>
</trkpt>
<trkpt lat="49.650715" lon="10.202287">
<ele>227.701</ele>
<time>2019-05-30T12:15:27Z</time>
</trkpt>
<trkpt lat="49.650761" lon="10.202203">
<ele>227.616</ele>
<time>2019-05-30T12:15:28Z</time>
</trkpt>
<trkpt lat="49.650803" lon="10.202119">
<ele>227.535</ele>
<time>2019-05-30T12:15:29Z</time>
</trkpt>
<trkpt lat="49.650837" lon="10.202024">
<ele>227.483</ele>
<time>2019-05-30T12:15:30Z</time>
</trkpt>
<trkpt lat="49.650864" lon="10.201925">
<ele>227.46</ele>
<time>2019-05-30T12:15:31Z</time>
</trkpt>
<trkpt lat="49.650887" lon="10.201823">
<ele>227.46</ele>
<time>2019-05-30T12:15:32Z</time>
</trkpt>
<trkpt lat="49.650906" lon="10.201723">
<ele>227.46</ele>
<time>2019-05-30T12:15:33Z</time>
</trkpt>
<trkpt lat="49.650925" lon="10.201622">
<ele>227.46</ele>
<time>2019-05-30T12:15:34Z</time>
</trkpt>
<trkpt lat="49.650948" lon="10.201524">
<ele>227.46</ele>
<time>2019-05-30T12:15:35Z</time>
</trkpt>
<trkpt lat="49.650967" lon="10.201427">
<ele>227.46</ele>
<time>2019-05-30T12:15:36Z</time>
</trkpt>
<trkpt lat="49.65099" lon="10.201326">
<ele>227.46</ele>
<time>2019-05-30T12:15:37Z</time>
</trkpt>
<trkpt lat="49.651005" lon="10.201228">
<ele>227.46</ele>
<time>2019-05-30T12:15:38Z</time>
</trkpt>
<trkpt lat="49.651024" lon="10.201127">
<ele>227.46</ele>
<time>2019-05-30T12:15:39Z</time>
</trkpt>
<trkpt lat="49.651035" lon="10.201023">
<ele>227.46</ele>
<time>2019-05-30T12:15:40Z</time>
</trkpt>
<trkpt lat="49.651047" lon="10.200922">
<ele>227.46</ele>
<time>2019-05-30T12:15:41Z</time>
</trkpt>
<trkpt lat="49.651054" lon="10.20082">
<ele>227.46</ele>
<time>2019-05-30T12:15:42Z</time>
</trkpt>
<trkpt lat="49.651058" lon="10.200719">
<ele>227.46</ele>
<time>2019-05-30T12:15:43Z</time>
</trkpt>
<trkpt lat="49.651066" lon="10.200617">
<ele>227.46</ele>
<time>2019-05-30T12:15:44Z</time>
</trkpt>
<trkpt lat="49.65107" lon="10.200512">
<ele>227.46</ele>
<time>2019-05-30T12:15:45Z</time>
</trkpt>
<trkpt lat="49.651073" lon="10.20041">
<ele>227.46</ele>
<time>2019-05-30T12:15:46Z</time>
</trkpt>
<trkpt lat="49.651077" lon="10.200307">
<ele>227.46</ele>
<time>2019-05-30T12:15:47Z</time>
</trkpt>
<trkpt lat="49.651081" lon="10.200206">
<ele>227.46</ele>
<time>2019-05-30T12:15:48Z</time>
</trkpt>
<trkpt lat="49.651089" lon="10.200105">
<ele>227.46</ele>
<time>2019-05-30T12:15:49Z</time>
</trkpt>
<trkpt lat="49.651104" lon="10.200006">
<ele>227.46</ele>
<time>2019-05-30T12:15:50Z</time>
</trkpt>
<trkpt lat="49.651123" lon="10.199912">
<ele>227.46</ele>
<time>2019-05-30T12:15:51Z</time>
</trkpt>
<trkpt lat="49.651154" lon="10.199821">
<ele>227.46</ele>
<time>2019-05-30T12:15:52Z</time>
</trkpt>
<trkpt lat="49.651188" lon="10.199735">
<ele>227.46</ele>
<time>2019-05-30T12:15:53Z</time>
</trkpt>
<trkpt lat="49.65123" lon="10.199655">
<ele>227.46</ele>
<time>2019-05-30T12:15:54Z</time>
</trkpt>
<trkpt lat="49.651283" lon="10.199586">
<ele>227.46</ele>
<time>2019-05-30T12:15:55Z</time>
</trkpt>
<trkpt lat="49.651333" lon="10.199527">
<ele>227.46</ele>
<time>2019-05-30T12:15:56Z</time>
</trkpt>
<trkpt lat="49.651386" lon="10.199471">
<ele>227.214</ele>
<time>2019-05-30T12:15:57Z</time>
</trkpt>
<trkpt lat="49.651443" lon="10.199418">
<ele>227.038</ele>
<time>2019-05-30T12:15:58Z</time>
</trkpt>
<trkpt lat="49.651497" lon="10.199376">
<ele>226.86</ele>
<time>2019-05-30T12:15:59Z</time>
</trkpt>
<trkpt lat="49.651558" lon="10.199333">
<ele>226.718</ele>
<time>2019-05-30T12:16:00Z</time>
</trkpt>
<trkpt lat="49.651615" lon="10.199288">
<ele>226.608</ele>
<time>2019-05-30T12:16:01Z</time>
</trkpt>
<trkpt lat="49.651672" lon="10.199238">
<ele>226.528</ele>
<time>2019-05-30T12:16:02Z</time>
</trkpt>
<trkpt lat="49.651741" lon="10.19919">
<ele>226.479</ele>
<time>2019-05-30T12:16:03Z</time>
</trkpt>
<trkpt lat="49.651806" lon="10.199142">
<ele>226.201</ele>
<time>2019-05-30T12:16:04Z</time>
</trkpt>
<trkpt lat="49.651867" lon="10.199089">
<ele>225.966</ele>
<time>2019-05-30T12:16:05Z</time>
</trkpt>
<trkpt lat="49.651928" lon="10.199035">
<ele>225.806</ele>
<time>2019-05-30T12:16:06Z</time>
</trkpt>
<trkpt lat="49.651997" lon="10.198983">
<ele>225.684</ele>
<time>2019-05-30T12:16:07Z</time>
</trkpt>
<trkpt lat="49.652061" lon="10.198932">
<ele>225.604</ele>
<time>2019-05-30T12:16:08Z</time>
</trkpt>
<trkpt lat="49.652126" lon="10.198886">
<ele>225.52</ele>
<time>2019-05-30T12:16:09Z</time>
</trkpt>
<trkpt lat="49.652191" lon="10.198832">
<ele>225.467</ele>
<time>2019-05-30T12:16:10Z</time>
</trkpt>
<trkpt lat="49.652256" lon="10.198777">
<ele>225.442</ele>
<time>2019-05-30T12:16:11Z</time>
</trkpt>
<trkpt lat="49.652321" lon="10.198714">
<ele>225.442</ele>
<time>2019-05-30T12:16:12Z</time>
</trkpt>
<trkpt lat="49.652378" lon="10.198648">
<ele>225.442</ele>
<time>2019-05-30T12:16:13Z</time>
</trkpt>
<trkpt lat="49.652435" lon="10.198576">
<ele>225.198</ele>
<time>2019-05-30T12:16:14Z</time>
</trkpt>
<trkpt lat="49.652489" lon="10.198503">
<ele>225.007</ele>
<time>2019-05-30T12:16:15Z</time>
</trkpt>
<trkpt lat="49.652534" lon="10.198423">
<ele>224.86</ele>
<time>2019-05-30T12:16:16Z</time>
</trkpt>
<trkpt lat="49.65258" lon="10.198339">
<ele>224.749</ele>
<time>2019-05-30T12:16:17Z</time>
</trkpt>
<trkpt lat="49.652626" lon="10.198256">
<ele>224.673</ele>
<time>2019-05-30T12:16:18Z</time>
</trkpt>
<trkpt lat="49.652668" lon="10.198167">
<ele>224.594</ele>
<time>2019-05-30T12:16:19Z</time>
</trkpt>
<trkpt lat="49.65271" lon="10.198077">
<ele>224.543</ele>
<time>2019-05-30T12:16:20Z</time>
</trkpt>
<trkpt lat="49.652752" lon="10.197985">
<ele>224.518</ele>
<time>2019-05-30T12:16:21Z</time>
</trkpt>
<trkpt lat="49.652786" lon="10.19789">
<ele>224.518</ele>
<time>2019-05-30T12:16:22Z</time>
</trkpt>
<trkpt lat="49.652824" lon="10.197799">
<ele>224.518</ele>
<time>2019-05-30T12:16:23Z</time>
</trkpt>
<trkpt lat="49.652863" lon="10.197704">
<ele>224.518</ele>
<time>2019-05-30T12:16:24Z</time>
</trkpt>
<trkpt lat="49.652901" lon="10.197608">
<ele>224.518</ele>
<time>2019-05-30T12:16:25Z</time>
</trkpt>
<trkpt lat="49.652939" lon="10.197512">
<ele>224.518</ele>
<time>2019-05-30T12:16:26Z</time>
</trkpt>
<trkpt lat="49.652973" lon="10.197417">
<ele>224.518</ele>
<time>2019-05-30T12:16:27Z</time>
</trkpt>
<trkpt lat="49.653011" lon="10.197323">
<ele>224.312</ele>
<time>2019-05-30T12:16:28Z</time>
</trkpt>
<trkpt lat="49.653046" lon="10.197228">
<ele>224.118</ele>
<time>2019-05-30T12:16:29Z</time>
</trkpt>
<trkpt lat="49.65308" lon="10.197133">
<ele>223.959</ele>
<time>2019-05-30T12:16:30Z</time>
</trkpt>
<trkpt lat="49.653114" lon="10.197039">
<ele>223.831</ele>
<time>2019-05-30T12:16:31Z</time>
</trkpt>
<trkpt lat="49.653149" lon="10.196946">
<ele>223.733</ele>
<time>2019-05-30T12:16:32Z</time>
</trkpt>
<trkpt lat="49.653187" lon="10.196856">
<ele>223.663</ele>
<time>2019-05-30T12:16:33Z</time>
</trkpt>
<trkpt lat="49.653225" lon="10.196763">
<ele>223.616</ele>
<time>2019-05-30T12:16:34Z</time>
</trkpt>
<trkpt lat="49.653259" lon="10.196671">
<ele>223.593</ele>
<time>2019-05-30T12:16:35Z</time>
</trkpt>
<trkpt lat="49.653294" lon="10.19658">
<ele>223.593</ele>
<time>2019-05-30T12:16:36Z</time>
</trkpt>
<trkpt lat="49.653328" lon="10.196489">
<ele>223.593</ele>
<time>2019-05-30T12:16:37Z</time>
</trkpt>
<trkpt lat="49.653362" lon="10.196399">
<ele>223.593</ele>
<time>2019-05-30T12:16:38Z</time>
</trkpt>
<trkpt lat="49.653389" lon="10.196303">
<ele>223.593</ele>
<time>2019-05-30T12:16:39Z</time>
</trkpt>
<trkpt lat="49.653416" lon="10.19621">
<ele>223.593</ele>
<time>2019-05-30T12:16:40Z</time>
</trkpt>
<trkpt lat="49.653439" lon="10.196116">
<ele>223.593</ele>
<time>2019-05-30T12:16:41Z</time>
</trkpt>
<trkpt lat="49.653458" lon="10.196025">
<ele>223.593</ele>
<time>2019-05-30T12:16:42Z</time>
</trkpt>
<trkpt lat="49.653469" lon="10.195935">
<ele>223.593</ele>
<time>2019-05-30T12:16:43Z</time>
</trkpt>
<trkpt lat="49.653481" lon="10.195848">
<ele>223.83</ele>
<time>2019-05-30T12:16:44Z</time>
</trkpt>
<trkpt lat="49.653488" lon="10.19576">
<ele>224.019</ele>
<time>2019-05-30T12:16:45Z</time>
</trkpt>
<trkpt lat="49.653492" lon="10.195675">
<ele>224.165</ele>
<time>2019-05-30T12:16:46Z</time>
</trkpt>
<trkpt lat="49.653492" lon="10.19559">
<ele>224.274</ele>
<time>2019-05-30T12:16:47Z</time>
</trkpt>
<trkpt lat="49.653492" lon="10.195507">
<ele>224.355</ele>
<time>2019-05-30T12:16:48Z</time>
</trkpt>
<trkpt lat="49.653492" lon="10.195423">
<ele>224.438</ele>
<time>2019-05-30T12:16:49Z</time>
</trkpt>
<trkpt lat="49.653484" lon="10.195343">
<ele>224.49</ele>
<time>2019-05-30T12:16:50Z</time>
</trkpt>
<trkpt lat="49.653484" lon="10.195264">
<ele>224.737</ele>
<time>2019-05-30T12:16:51Z</time>
</trkpt>
<trkpt lat="49.653481" lon="10.195182">
<ele>224.987</ele>
<time>2019-05-30T12:16:52Z</time>
</trkpt>
<trkpt lat="49.653477" lon="10.1951">
<ele>225.145</ele>
<time>2019-05-30T12:16:53Z</time>
</trkpt>
<trkpt lat="49.653473" lon="10.195017">
<ele>225.261</ele>
<time>2019-05-30T12:16:54Z</time>
</trkpt>
<trkpt lat="49.653473" lon="10.194935">
<ele>225.345</ele>
<time>2019-05-30T12:16:55Z</time>
</trkpt>
<trkpt lat="49.653469" lon="10.194848">
<ele>225.393</ele>
<time>2019-05-30T12:16:56Z</time>
</trkpt>
<trkpt lat="49.653469" lon="10.194763">
<ele>225.42</ele>
<time>2019-05-30T12:16:57Z</time>
</trkpt>
<trkpt lat="49.653469" lon="10.194676">
<ele>225.442</ele>
<time>2019-05-30T12:16:58Z</time>
</trkpt>
<trkpt lat="49.653473" lon="10.194592">
<ele>225.442</ele>
<time>2019-05-30T12:16:59Z</time>
</trkpt>
<trkpt lat="49.653481" lon="10.19451">
<ele>225.442</ele>
<time>2019-05-30T12:17:00Z</time>
</trkpt>
<trkpt lat="49.653488" lon="10.194429">
<ele>225.442</ele>
<time>2019-05-30T12:17:01Z</time>
</trkpt>
<trkpt lat="49.6535" lon="10.19435">
<ele>225.442</ele>
<time>2019-05-30T12:17:02Z</time>
</trkpt>
<trkpt lat="49.653519" lon="10.194272">
<ele>225.442</ele>
<time>2019-05-30T12:17:03Z</time>
</trkpt>
<trkpt lat="49.653538" lon="10.194191">
<ele>225.442</ele>
<time>2019-05-30T12:17:04Z</time>
</trkpt>
<trkpt lat="49.653561" lon="10.194114">
<ele>225.442</ele>
<time>2019-05-30T12:17:05Z</time>
</trkpt>
<trkpt lat="49.653584" lon="10.194036">
<ele>225.442</ele>
<time>2019-05-30T12:17:06Z</time>
</trkpt>
<trkpt lat="49.653606" lon="10.193954">
<ele>225.442</ele>
<time>2019-05-30T12:17:07Z</time>
</trkpt>
<trkpt lat="49.653629" lon="10.193872">
<ele>225.632</ele>
<time>2019-05-30T12:17:08Z</time>
</trkpt>
<trkpt lat="49.653652" lon="10.19379">
<ele>225.811</ele>
<time>2019-05-30T12:17:09Z</time>
</trkpt>
<trkpt lat="49.653675" lon="10.19371">
<ele>225.956</ele>
<time>2019-05-30T12:17:10Z</time>
</trkpt>
<trkpt lat="49.653702" lon="10.193628">
<ele>226.072</ele>
<time>2019-05-30T12:17:11Z</time>
</trkpt>
<trkpt lat="49.653725" lon="10.193545">
<ele>226.159</ele>
<time>2019-05-30T12:17:12Z</time>
</trkpt>
<trkpt lat="49.653755" lon="10.19346">
<ele>226.223</ele>
<time>2019-05-30T12:17:13Z</time>
</trkpt>
<trkpt lat="49.653782" lon="10.193376">
<ele>226.264</ele>
<time>2019-05-30T12:17:14Z</time>
</trkpt>
<trkpt lat="49.653809" lon="10.19329">
<ele>226.279</ele>
<time>2019-05-30T12:17:15Z</time>
</trkpt>
<trkpt lat="49.653843" lon="10.193209">
<ele>226.07</ele>
<time>2019-05-30T12:17:16Z</time>
</trkpt>
<trkpt lat="49.653877" lon="10.193123">
<ele>225.901</ele>
<time>2019-05-30T12:17:17Z</time>
</trkpt>
<trkpt lat="49.653912" lon="10.193038">
<ele>225.787</ele>
<time>2019-05-30T12:17:18Z</time>
</trkpt>
<trkpt lat="49.65395" lon="10.192957">
<ele>225.415</ele>
<time>2019-05-30T12:17:19Z</time>
</trkpt>
<trkpt lat="49.653988" lon="10.192875">
<ele>225.114</ele>
<time>2019-05-30T12:17:20Z</time>
</trkpt>
<trkpt lat="49.654022" lon="10.192787">
<ele>224.879</ele>
<time>2019-05-30T12:17:21Z</time>
</trkpt>
<trkpt lat="49.65406" lon="10.192695">
<ele>224.7</ele>
<time>2019-05-30T12:17:22Z</time>
</trkpt>
<trkpt lat="49.654095" lon="10.192601">
<ele>224.576</ele>
<time>2019-05-30T12:17:23Z</time>
</trkpt>
<trkpt lat="49.654125" lon="10.192509">
<ele>224.503</ele>
<time>2019-05-30T12:17:24Z</time>
</trkpt>
<trkpt lat="49.654156" lon="10.192413">
<ele>224.457</ele>
<time>2019-05-30T12:17:25Z</time>
</trkpt>
<trkpt lat="49.654186" lon="10.192316">
<ele>224.434</ele>
<time>2019-05-30T12:17:26Z</time>
</trkpt>
<trkpt lat="49.654213" lon="10.192219">
<ele>224.206</ele>
<time>2019-05-30T12:17:27Z</time>
</trkpt>
<trkpt lat="49.65424" lon="10.192117">
<ele>224.047</ele>
<time>2019-05-30T12:17:28Z</time>
</trkpt>
<trkpt lat="49.65427" lon="10.192014">
<ele>223.883</ele>
<time>2019-05-30T12:17:29Z</time>
</trkpt>
<trkpt lat="49.654293" lon="10.19191">
<ele>223.752</ele>
<time>2019-05-30T12:17:30Z</time>
</trkpt>
<trkpt lat="49.65432" lon="10.191807">
<ele>223.65</ele>
<time>2019-05-30T12:17:31Z</time>
</trkpt>
<trkpt lat="49.65435" lon="10.191704">
<ele>223.577</ele>
<time>2019-05-30T12:17:32Z</time>
</trkpt>
<trkpt lat="49.654381" lon="10.191602">
<ele>223.534</ele>
<time>2019-05-30T12:17:33Z</time>
</trkpt>
<trkpt lat="49.654408" lon="10.191499">
<ele>223.282</ele>
<time>2019-05-30T12:17:34Z</time>
</trkpt>
<trkpt lat="49.654438" lon="10.191395">
<ele>223.071</ele>
<time>2019-05-30T12:17:35Z</time>
</trkpt>
<trkpt lat="49.654469" lon="10.191296">
<ele>222.925</ele>
<time>2019-05-30T12:17:36Z</time>
</trkpt>
<trkpt lat="49.654507" lon="10.191196">
<ele>222.816</ele>
<time>2019-05-30T12:17:37Z</time>
</trkpt>
<trkpt lat="49.654549" lon="10.1911">
<ele>222.739</ele>
<time>2019-05-30T12:17:38Z</time>
</trkpt>
<trkpt lat="49.654591" lon="10.191009">
<ele>222.433</ele>
<time>2019-05-30T12:17:39Z</time>
</trkpt>
<trkpt lat="49.65464" lon="10.190914">
<ele>222.193</ele>
<time>2019-05-30T12:17:40Z</time>
</trkpt>
<trkpt lat="49.654686" lon="10.190828">
<ele>222.013</ele>
<time>2019-05-30T12:17:41Z</time>
</trkpt>
<trkpt lat="49.654736" lon="10.190744">
<ele>221.89</ele>
<time>2019-05-30T12:17:42Z</time>
</trkpt>
<trkpt lat="49.654789" lon="10.190667">
<ele>221.794</ele>
<time>2019-05-30T12:17:43Z</time>
</trkpt>
<trkpt lat="49.654839" lon="10.190596">
<ele>221.725</ele>
<time>2019-05-30T12:17:44Z</time>
</trkpt>
<trkpt lat="49.654892" lon="10.190523">
<ele>221.682</ele>
<time>2019-05-30T12:17:45Z</time>
</trkpt>
<trkpt lat="49.654934" lon="10.19045">
<ele>221.66</ele>
<time>2019-05-30T12:17:46Z</time>
</trkpt>
<trkpt lat="49.654984" lon="10.19038">
<ele>221.66</ele>
<time>2019-05-30T12:17:47Z</time>
</trkpt>
<trkpt lat="49.655033" lon="10.190311">
<ele>221.66</ele>
<time>2019-05-30T12:17:48Z</time>
</trkpt>
<trkpt lat="49.655083" lon="10.190246">
<ele>221.66</ele>
<time>2019-05-30T12:17:49Z</time>
</trkpt>
<trkpt lat="49.655128" lon="10.190179">
<ele>221.66</ele>
<time>2019-05-30T12:17:50Z</time>
</trkpt>
<trkpt lat="49.655178" lon="10.190115">
<ele>221.4</ele>
<time>2019-05-30T12:17:51Z</time>
</trkpt>
<trkpt lat="49.655231" lon="10.190053">
<ele>221.191</ele>
<time>2019-05-30T12:17:52Z</time>
</trkpt>
<trkpt lat="49.655281" lon="10.189993">
<ele>221.033</ele>
<time>2019-05-30T12:17:53Z</time>
</trkpt>
<trkpt lat="49.655327" lon="10.189944">
<ele>220.916</ele>
<time>2019-05-30T12:17:54Z</time>
</trkpt>
<trkpt lat="49.65538" lon="10.189897">
<ele>220.836</ele>
<time>2019-05-30T12:17:55Z</time>
</trkpt>
<trkpt lat="49.65543" lon="10.189854">
<ele>220.785</ele>
<time>2019-05-30T12:17:56Z</time>
</trkpt>
<trkpt lat="49.655483" lon="10.189815">
<ele>220.759</ele>
<time>2019-05-30T12:17:57Z</time>
</trkpt>
<trkpt lat="49.655529" lon="10.189778">
<ele>220.736</ele>
<time>2019-05-30T12:17:58Z</time>
</trkpt>
<trkpt lat="49.655582" lon="10.189743">
<ele>220.736</ele>
<time>2019-05-30T12:17:59Z</time>
</trkpt>
<trkpt lat="49.655636" lon="10.189703">
<ele>220.736</ele>
<time>2019-05-30T12:18:00Z</time>
</trkpt>
<trkpt lat="49.655693" lon="10.189667">
<ele>220.736</ele>
<time>2019-05-30T12:18:01Z</time>
</trkpt>
<trkpt lat="49.65575" lon="10.189633">
<ele>220.736</ele>
<time>2019-05-30T12:18:02Z</time>
</trkpt>
<trkpt lat="49.655811" lon="10.189605">
<ele>220.736</ele>
<time>2019-05-30T12:18:03Z</time>
</trkpt>
<trkpt lat="49.655876" lon="10.18958">
<ele>220.736</ele>
<time>2019-05-30T12:18:04Z</time>
</trkpt>
<trkpt lat="49.655941" lon="10.189556">
<ele>220.736</ele>
<time>2019-05-30T12:18:05Z</time>
</trkpt>
<trkpt lat="49.656002" lon="10.189537">
<ele>220.736</ele>
<time>2019-05-30T12:18:06Z</time>
</trkpt>
<trkpt lat="49.656063" lon="10.189521">
<ele>220.736</ele>
<time>2019-05-30T12:18:07Z</time>
</trkpt>
<trkpt lat="49.656128" lon="10.189505">
<ele>220.736</ele>
<time>2019-05-30T12:18:08Z</time>
</trkpt>
<trkpt lat="49.656189" lon="10.189493">
<ele>220.736</ele>
<time>2019-05-30T12:18:09Z</time>
</trkpt>
<trkpt lat="49.656254" lon="10.189482">
<ele>220.736</ele>
<time>2019-05-30T12:18:10Z</time>
</trkpt>
<trkpt lat="49.656315" lon="10.189471">
<ele>220.736</ele>
<time>2019-05-30T12:18:11Z</time>
</trkpt>
<trkpt lat="49.656376" lon="10.189462">
<ele>220.456</ele>
<time>2019-05-30T12:18:12Z</time>
</trkpt>
<trkpt lat="49.656445" lon="10.189452">
<ele>220.237</ele>
<time>2019-05-30T12:18:13Z</time>
</trkpt>
<trkpt lat="49.656509" lon="10.189442">
<ele>220.067</ele>
<time>2019-05-30T12:18:14Z</time>
</trkpt>
<trkpt lat="49.65657" lon="10.189431">
<ele>219.944</ele>
<time>2019-05-30T12:18:15Z</time>
</trkpt>
<trkpt lat="49.656635" lon="10.18942">
<ele>219.855</ele>
<time>2019-05-30T12:18:16Z</time>
</trkpt>
<trkpt lat="49.656696" lon="10.189408">
<ele>219.801</ele>
<time>2019-05-30T12:18:17Z</time>
</trkpt>
<trkpt lat="49.656757" lon="10.189393">
<ele>219.757</ele>
<time>2019-05-30T12:18:18Z</time>
</trkpt>
<trkpt lat="49.656815" lon="10.189375">
<ele>219.728</ele>
<time>2019-05-30T12:18:19Z</time>
</trkpt>
<trkpt lat="49.656876" lon="10.189351">
<ele>219.728</ele>
<time>2019-05-30T12:18:20Z</time>
</trkpt>
<trkpt lat="49.656937" lon="10.189326">
<ele>219.728</ele>
<time>2019-05-30T12:18:21Z</time>
</trkpt>
<trkpt lat="49.656998" lon="10.189295">
<ele>219.728</ele>
<time>2019-05-30T12:18:22Z</time>
</trkpt>
<trkpt lat="49.657059" lon="10.189259">
<ele>219.728</ele>
<time>2019-05-30T12:18:23Z</time>
</trkpt>
<trkpt lat="49.657124" lon="10.189219">
<ele>219.728</ele>
<time>2019-05-30T12:18:24Z</time>
</trkpt>
<trkpt lat="49.657185" lon="10.189175">
<ele>219.485</ele>
<time>2019-05-30T12:18:25Z</time>
</trkpt>
<trkpt lat="49.657249" lon="10.189132">
<ele>219.295</ele>
<time>2019-05-30T12:18:26Z</time>
</trkpt>
<trkpt lat="49.657314" lon="10.189087">
<ele>219.15</ele>
<time>2019-05-30T12:18:27Z</time>
</trkpt>
<trkpt lat="49.657375" lon="10.189043">
<ele>219.054</ele>
<time>2019-05-30T12:18:28Z</time>
</trkpt>
<trkpt lat="49.65744" lon="10.188999">
<ele>218.95</ele>
<time>2019-05-30T12:18:29Z</time>
</trkpt>
<trkpt lat="49.657501" lon="10.188953">
<ele>218.875</ele>
<time>2019-05-30T12:18:30Z</time>
</trkpt>
<trkpt lat="49.657562" lon="10.18891">
<ele>218.829</ele>
<time>2019-05-30T12:18:31Z</time>
</trkpt>
<trkpt lat="49.657627" lon="10.188865">
<ele>218.579</ele>
<time>2019-05-30T12:18:32Z</time>
</trkpt>
<trkpt lat="49.657692" lon="10.18882">
<ele>218.344</ele>
<time>2019-05-30T12:18:33Z</time>
</trkpt>
<trkpt lat="49.657753" lon="10.188775">
<ele>218.19</ele>
<time>2019-05-30T12:18:34Z</time>
</trkpt>
<trkpt lat="49.657814" lon="10.188728">
<ele>218.078</ele>
<time>2019-05-30T12:18:35Z</time>
</trkpt>
<trkpt lat="49.657875" lon="10.188684">
<ele>217.999</ele>
<time>2019-05-30T12:18:36Z</time>
</trkpt>
<trkpt lat="49.657932" lon="10.188633">
<ele>217.948</ele>
<time>2019-05-30T12:18:37Z</time>
</trkpt>
<trkpt lat="49.657997" lon="10.188581">
<ele>217.906</ele>
<time>2019-05-30T12:18:38Z</time>
</trkpt>
<trkpt lat="49.658054" lon="10.188525">
<ele>217.88</ele>
<time>2019-05-30T12:18:39Z</time>
</trkpt>
<trkpt lat="49.658112" lon="10.188467">
<ele>217.88</ele>
<time>2019-05-30T12:18:40Z</time>
</trkpt>
<trkpt lat="49.658173" lon="10.188404">
<ele>217.637</ele>
<time>2019-05-30T12:18:41Z</time>
</trkpt>
<trkpt lat="49.65823" lon="10.188337">
<ele>217.447</ele>
<time>2019-05-30T12:18:42Z</time>
</trkpt>
<trkpt lat="49.658287" lon="10.188266">
<ele>217.301</ele>
<time>2019-05-30T12:18:43Z</time>
</trkpt>
<trkpt lat="49.65834" lon="10.188189">
<ele>217.196</ele>
<time>2019-05-30T12:18:44Z</time>
</trkpt>
<trkpt lat="49.65839" lon="10.188105">
<ele>217.137</ele>
<time>2019-05-30T12:18:45Z</time>
</trkpt>
<trkpt lat="49.658443" lon="10.188021">
<ele>216.83</ele>
<time>2019-05-30T12:18:46Z</time>
</trkpt>
<trkpt lat="49.658489" lon="10.187931">
<ele>216.605</ele>
<time>2019-05-30T12:18:47Z</time>
</trkpt>
<trkpt lat="49.658535" lon="10.187837">
<ele>216.447</ele>
<time>2019-05-30T12:18:48Z</time>
</trkpt>
<trkpt lat="49.658581" lon="10.187738">
<ele>216.301</ele>
<time>2019-05-30T12:18:49Z</time>
</trkpt>
<trkpt lat="49.658619" lon="10.187637">
<ele>216.198</ele>
<time>2019-05-30T12:18:50Z</time>
</trkpt>
<trkpt lat="49.658653" lon="10.187533">
<ele>215.886</ele>
<time>2019-05-30T12:18:51Z</time>
</trkpt>
<trkpt lat="49.658684" lon="10.187428">
<ele>215.644</ele>
<time>2019-05-30T12:18:52Z</time>
</trkpt>
<trkpt lat="49.658714" lon="10.18732">
<ele>215.462</ele>
<time>2019-05-30T12:18:53Z</time>
</trkpt>
<trkpt lat="49.658745" lon="10.18721">
<ele>215.284</ele>
<time>2019-05-30T12:18:54Z</time>
</trkpt>
<trkpt lat="49.658768" lon="10.187101">
<ele>215.205</ele>
<time>2019-05-30T12:18:55Z</time>
</trkpt>
<trkpt lat="49.658791" lon="10.186995">
<ele>215.154</ele>
<time>2019-05-30T12:18:56Z</time>
</trkpt>
<trkpt lat="49.658813" lon="10.18689">
<ele>215.131</ele>
<time>2019-05-30T12:18:57Z</time>
</trkpt>
<trkpt lat="49.65884" lon="10.186785">
<ele>215.109</ele>
<time>2019-05-30T12:18:58Z</time>
</trkpt>
<trkpt lat="49.658863" lon="10.18668">
<ele>214.887</ele>
<time>2019-05-30T12:18:59Z</time>
</trkpt>
<trkpt lat="49.658886" lon="10.186575">
<ele>214.7</ele>
<time>2019-05-30T12:19:00Z</time>
</trkpt>
<trkpt lat="49.658913" lon="10.186472">
<ele>214.545</ele>
<time>2019-05-30T12:19:01Z</time>
</trkpt>
<trkpt lat="49.658936" lon="10.18637">
<ele>214.42</ele>
<time>2019-05-30T12:19:02Z</time>
</trkpt>
<trkpt lat="49.658958" lon="10.18627">
<ele>214.322</ele>
<time>2019-05-30T12:19:03Z</time>
</trkpt>
<trkpt lat="49.658978" lon="10.186172">
<ele>214.252</ele>
<time>2019-05-30T12:19:04Z</time>
</trkpt>
<trkpt lat="49.658997" lon="10.186073">
<ele>214.207</ele>
<time>2019-05-30T12:19:05Z</time>
</trkpt>
<trkpt lat="49.659008" lon="10.185975">
<ele>214.185</ele>
<time>2019-05-30T12:19:06Z</time>
</trkpt>
<trkpt lat="49.659008" lon="10.185878">
<ele>214.185</ele>
<time>2019-05-30T12:19:07Z</time>
</trkpt>
<trkpt lat="49.659" lon="10.185785">
<ele>214.185</ele>
<time>2019-05-30T12:19:08Z</time>
</trkpt>
<trkpt lat="49.658978" lon="10.185699">
<ele>214.185</ele>
<time>2019-05-30T12:19:09Z</time>
</trkpt>
<trkpt lat="49.658943" lon="10.185618">
<ele>214.185</ele>
<time>2019-05-30T12:19:10Z</time>
</trkpt>
<trkpt lat="49.658905" lon="10.185549">
<ele>214.185</ele>
<time>2019-05-30T12:19:11Z</time>
</trkpt>
<trkpt lat="49.658859" lon="10.185485">
<ele>214.185</ele>
<time>2019-05-30T12:19:12Z</time>
</trkpt>
<trkpt lat="49.65881" lon="10.185427">
<ele>214.185</ele>
<time>2019-05-30T12:19:13Z</time>
</trkpt>
<trkpt lat="49.658756" lon="10.185373">
<ele>213.964</ele>
<time>2019-05-30T12:19:14Z</time>
</trkpt>
<trkpt lat="49.658703" lon="10.185325">
<ele>213.788</ele>
<time>2019-05-30T12:19:15Z</time>
</trkpt>
<trkpt lat="49.658646" lon="10.185282">
<ele>213.653</ele>
<time>2019-05-30T12:19:16Z</time>
</trkpt>
<trkpt lat="49.658588" lon="10.185242">
<ele>213.553</ele>
<time>2019-05-30T12:19:17Z</time>
</trkpt>
<trkpt lat="49.658531" lon="10.185201">
<ele>213.484</ele>
<time>2019-05-30T12:19:18Z</time>
</trkpt>
<trkpt lat="49.658478" lon="10.185153">
<ele>213.412</ele>
<time>2019-05-30T12:19:19Z</time>
</trkpt>
<trkpt lat="49.658424" lon="10.18511">
<ele>213.367</ele>
<time>2019-05-30T12:19:20Z</time>
</trkpt>
<trkpt lat="49.658367" lon="10.185065">
<ele>213.345</ele>
<time>2019-05-30T12:19:21Z</time>
</trkpt>
<trkpt lat="49.658314" lon="10.185017">
<ele>213.345</ele>
<time>2019-05-30T12:19:22Z</time>
</trkpt>
<trkpt lat="49.658257" lon="10.184963">
<ele>213.345</ele>
<time>2019-05-30T12:19:23Z</time>
</trkpt>
<trkpt lat="49.658199" lon="10.184908">
<ele>213.345</ele>
<time>2019-05-30T12:19:24Z</time>
</trkpt>
<trkpt lat="49.65815" lon="10.184852">
<ele>213.345</ele>
<time>2019-05-30T12:19:25Z</time>
</trkpt>
<trkpt lat="49.6581" lon="10.18479">
<ele>213.345</ele>
<time>2019-05-30T12:19:26Z</time>
</trkpt>
<trkpt lat="49.658054" lon="10.184725">
<ele>213.345</ele>
<time>2019-05-30T12:19:27Z</time>
</trkpt>
<trkpt lat="49.658009" lon="10.18466">
<ele>213.345</ele>
<time>2019-05-30T12:19:28Z</time>
</trkpt>
<trkpt lat="49.657967" lon="10.184595">
<ele>213.123</ele>
<time>2019-05-30T12:19:29Z</time>
</trkpt>
<trkpt lat="49.657917" lon="10.18453">
<ele>212.937</ele>
<time>2019-05-30T12:19:30Z</time>
</trkpt>
<trkpt lat="49.657879" lon="10.184462">
<ele>212.783</ele>
<time>2019-05-30T12:19:31Z</time>
</trkpt>
<trkpt lat="49.657837" lon="10.184394">
<ele>212.657</ele>
<time>2019-05-30T12:19:32Z</time>
</trkpt>
<trkpt lat="49.657799" lon="10.184323">
<ele>212.559</ele>
<time>2019-05-30T12:19:33Z</time>
</trkpt>
<trkpt lat="49.657761" lon="10.18425">
<ele>212.489</ele>
<time>2019-05-30T12:19:34Z</time>
</trkpt>
<trkpt lat="49.657726" lon="10.184175">
<ele>212.444</ele>
<time>2019-05-30T12:19:35Z</time>
</trkpt>
<trkpt lat="49.657692" lon="10.184096">
<ele>212.422</ele>
<time>2019-05-30T12:19:36Z</time>
</trkpt>
<trkpt lat="49.657661" lon="10.184017">
<ele>212.422</ele>
<time>2019-05-30T12:19:37Z</time>
</trkpt>
<trkpt lat="49.657631" lon="10.183935">
<ele>212.422</ele>
<time>2019-05-30T12:19:38Z</time>
</trkpt>
<trkpt lat="49.657604" lon="10.183848">
<ele>212.422</ele>
<time>2019-05-30T12:19:39Z</time>
</trkpt>
<trkpt lat="49.657578" lon="10.183762">
<ele>212.422</ele>
<time>2019-05-30T12:19:40Z</time>
</trkpt>
<trkpt lat="49.657551" lon="10.183675">
<ele>212.422</ele>
<time>2019-05-30T12:19:41Z</time>
</trkpt>
<trkpt lat="49.657528" lon="10.183587">
<ele>212.422</ele>
<time>2019-05-30T12:19:42Z</time>
</trkpt>
<trkpt lat="49.657509" lon="10.183497">
<ele>212.422</ele>
<time>2019-05-30T12:19:43Z</time>
</trkpt>
<trkpt lat="49.657486" lon="10.183403">
<ele>212.422</ele>
<time>2019-05-30T12:19:44Z</time>
</trkpt>
<trkpt lat="49.657471" lon="10.183311">
<ele>212.422</ele>
<time>2019-05-30T12:19:45Z</time>
</trkpt>
<trkpt lat="49.657452" lon="10.183221">
<ele>212.422</ele>
<time>2019-05-30T12:19:46Z</time>
</trkpt>
<trkpt lat="49.657436" lon="10.183128">
<ele>212.422</ele>
<time>2019-05-30T12:19:47Z</time>
</trkpt>
<trkpt lat="49.657417" lon="10.183039">
<ele>212.422</ele>
<time>2019-05-30T12:19:48Z</time>
</trkpt>
<trkpt lat="49.657406" lon="10.182946">
<ele>212.422</ele>
<time>2019-05-30T12:19:49Z</time>
</trkpt>
<trkpt lat="49.657391" lon="10.182857">
<ele>212.422</ele>
<time>2019-05-30T12:19:50Z</time>
</trkpt>
<trkpt lat="49.657379" lon="10.182767">
<ele>212.422</ele>
<time>2019-05-30T12:19:51Z</time>
</trkpt>
<trkpt lat="49.65736" lon="10.182676">
<ele>212.422</ele>
<time>2019-05-30T12:19:52Z</time>
</trkpt>
<trkpt lat="49.657349" lon="10.182587">
<ele>212.422</ele>
<time>2019-05-30T12:19:53Z</time>
</trkpt>
<trkpt lat="49.657333" lon="10.182496">
<ele>212.422</ele>
<time>2019-05-30T12:19:54Z</time>
</trkpt>
<trkpt lat="49.657318" lon="10.182405">
<ele>212.422</ele>
<time>2019-05-30T12:19:55Z</time>
</trkpt>
<trkpt lat="49.657307" lon="10.182316">
<ele>212.422</ele>
<time>2019-05-30T12:19:56Z</time>
</trkpt>
<trkpt lat="49.657291" lon="10.182223">
<ele>212.422</ele>
<time>2019-05-30T12:19:57Z</time>
</trkpt>
<trkpt lat="49.65728" lon="10.182134">
<ele>212.217</ele>
<time>2019-05-30T12:19:58Z</time>
</trkpt>
<trkpt lat="49.657269" lon="10.182041">
<ele>212.022</ele>
<time>2019-05-30T12:19:59Z</time>
</trkpt>
<trkpt lat="49.657253" lon="10.18195">
<ele>211.863</ele>
<time>2019-05-30T12:20:00Z</time>
</trkpt>
<trkpt lat="49.657246" lon="10.181859">
<ele>211.735</ele>
<time>2019-05-30T12:20:01Z</time>
</trkpt>
<trkpt lat="49.65723" lon="10.181767">
<ele>211.637</ele>
<time>2019-05-30T12:20:02Z</time>
</trkpt>
<trkpt lat="49.657215" lon="10.181677">
<ele>211.567</ele>
<time>2019-05-30T12:20:03Z</time>
</trkpt>
<trkpt lat="49.657207" lon="10.181586">
<ele>211.521</ele>
<time>2019-05-30T12:20:04Z</time>
</trkpt>
<trkpt lat="49.657196" lon="10.181497">
<ele>211.499</ele>
<time>2019-05-30T12:20:05Z</time>
</trkpt>
<trkpt lat="49.657185" lon="10.181409">
<ele>211.499</ele>
<time>2019-05-30T12:20:06Z</time>
</trkpt>
<trkpt lat="49.657177" lon="10.181318">
<ele>211.499</ele>
<time>2019-05-30T12:20:07Z</time>
</trkpt>
<trkpt lat="49.657162" lon="10.181229">
<ele>211.499</ele>
<time>2019-05-30T12:20:08Z</time>
</trkpt>
<trkpt lat="49.65715" lon="10.181136">
<ele>211.499</ele>
<time>2019-05-30T12:20:09Z</time>
</trkpt>
<trkpt lat="49.657146" lon="10.181046">
<ele>211.499</ele>
<time>2019-05-30T12:20:10Z</time>
</trkpt>
<trkpt lat="49.657143" lon="10.180955">
<ele>211.499</ele>
<time>2019-05-30T12:20:11Z</time>
</trkpt>
<trkpt lat="49.657143" lon="10.180861">
<ele>211.499</ele>
<time>2019-05-30T12:20:12Z</time>
</trkpt>
<trkpt lat="49.657143" lon="10.180768">
<ele>211.499</ele>
<time>2019-05-30T12:20:13Z</time>
</trkpt>
<trkpt lat="49.657143" lon="10.180674">
<ele>211.499</ele>
<time>2019-05-30T12:20:14Z</time>
</trkpt>
<trkpt lat="49.657146" lon="10.18058">
<ele>211.499</ele>
<time>2019-05-30T12:20:15Z</time>
</trkpt>
<trkpt lat="49.65715" lon="10.180487">
<ele>211.288</ele>
<time>2019-05-30T12:20:16Z</time>
</trkpt>
<trkpt lat="49.657158" lon="10.180393">
<ele>211.122</ele>
<time>2019-05-30T12:20:17Z</time>
</trkpt>
<trkpt lat="49.657169" lon="10.1803">
<ele>211.079</ele>
<time>2019-05-30T12:20:18Z</time>
</trkpt>
<trkpt lat="49.657181" lon="10.180204">
<ele>211.158</ele>
<time>2019-05-30T12:20:19Z</time>
</trkpt>
<trkpt lat="49.657192" lon="10.180112">
<ele>211.229</ele>
<time>2019-05-30T12:20:20Z</time>
</trkpt>
<trkpt lat="49.657207" lon="10.180017">
<ele>211.29</ele>
<time>2019-05-30T12:20:21Z</time>
</trkpt>
<trkpt lat="49.657219" lon="10.179923">
<ele>211.345</ele>
<time>2019-05-30T12:20:22Z</time>
</trkpt>
<trkpt lat="49.657238" lon="10.17983">
<ele>211.395</ele>
<time>2019-05-30T12:20:23Z</time>
</trkpt>
<trkpt lat="49.657249" lon="10.179737">
<ele>211.44</ele>
<time>2019-05-30T12:20:24Z</time>
</trkpt>
<trkpt lat="49.657269" lon="10.179643">
<ele>211.48</ele>
<time>2019-05-30T12:20:25Z</time>
</trkpt>
<trkpt lat="49.65728" lon="10.179552">
<ele>211.499</ele>
<time>2019-05-30T12:20:26Z</time>
</trkpt>
<trkpt lat="49.657295" lon="10.179462">
<ele>211.499</ele>
<time>2019-05-30T12:20:27Z</time>
</trkpt>
<trkpt lat="49.65731" lon="10.17937">
<ele>211.499</ele>
<time>2019-05-30T12:20:28Z</time>
</trkpt>
<trkpt lat="49.657326" lon="10.17928">
<ele>211.499</ele>
<time>2019-05-30T12:20:29Z</time>
</trkpt>
<trkpt lat="49.657345" lon="10.179188">
<ele>211.499</ele>
<time>2019-05-30T12:20:30Z</time>
</trkpt>
<trkpt lat="49.657356" lon="10.179096">
<ele>211.499</ele>
<time>2019-05-30T12:20:31Z</time>
</trkpt>
<trkpt lat="49.657372" lon="10.179006">
<ele>211.499</ele>
<time>2019-05-30T12:20:32Z</time>
</trkpt>
<trkpt lat="49.657387" lon="10.178911">
<ele>211.499</ele>
<time>2019-05-30T12:20:33Z</time>
</trkpt>
<trkpt lat="49.657406" lon="10.178819">
<ele>211.499</ele>
<time>2019-05-30T12:20:34Z</time>
</trkpt>
<trkpt lat="49.657417" lon="10.178727">
<ele>211.499</ele>
<time>2019-05-30T12:20:35Z</time>
</trkpt>
<trkpt lat="49.657433" lon="10.178635">
<ele>211.499</ele>
<time>2019-05-30T12:20:36Z</time>
</trkpt>
<trkpt lat="49.657448" lon="10.178543">
<ele>211.499</ele>
<time>2019-05-30T12:20:37Z</time>
</trkpt>
<trkpt lat="49.657467" lon="10.178452">
<ele>211.499</ele>
<time>2019-05-30T12:20:38Z</time>
</trkpt>
<trkpt lat="49.657478" lon="10.178362">
<ele>211.499</ele>
<time>2019-05-30T12:20:39Z</time>
</trkpt>
<trkpt lat="49.657497" lon="10.178267">
<ele>211.499</ele>
<time>2019-05-30T12:20:40Z</time>
</trkpt>
<trkpt lat="49.657513" lon="10.178172">
<ele>211.499</ele>
<time>2019-05-30T12:20:41Z</time>
</trkpt>
<trkpt lat="49.657532" lon="10.178075">
<ele>211.499</ele>
<time>2019-05-30T12:20:42Z</time>
</trkpt>
<trkpt lat="49.657543" lon="10.177977">
<ele>211.499</ele>
<time>2019-05-30T12:20:43Z</time>
</trkpt>
<trkpt lat="49.657562" lon="10.177878">
<ele>211.251</ele>
<time>2019-05-30T12:20:44Z</time>
</trkpt>
<trkpt lat="49.657578" lon="10.177782">
<ele>211.058</ele>
<time>2019-05-30T12:20:45Z</time>
</trkpt>
<trkpt lat="49.657597" lon="10.177687">
<ele>210.91</ele>
<time>2019-05-30T12:20:46Z</time>
</trkpt>
<trkpt lat="49.657612" lon="10.177589">
<ele>210.803</ele>
<time>2019-05-30T12:20:47Z</time>
</trkpt>
<trkpt lat="49.657631" lon="10.177493">
<ele>210.728</ele>
<time>2019-05-30T12:20:48Z</time>
</trkpt>
<trkpt lat="49.657646" lon="10.177397">
<ele>210.65</ele>
<time>2019-05-30T12:20:49Z</time>
</trkpt>
<trkpt lat="49.657665" lon="10.177302">
<ele>210.6</ele>
<time>2019-05-30T12:20:50Z</time>
</trkpt>
<trkpt lat="49.657681" lon="10.177206">
<ele>210.576</ele>
<time>2019-05-30T12:20:51Z</time>
</trkpt>
<trkpt lat="49.6577" lon="10.17711">
<ele>210.576</ele>
<time>2019-05-30T12:20:52Z</time>
</trkpt>
<trkpt lat="49.657715" lon="10.177013">
<ele>210.576</ele>
<time>2019-05-30T12:20:53Z</time>
</trkpt>
<trkpt lat="49.657738" lon="10.17692">
<ele>210.576</ele>
<time>2019-05-30T12:20:54Z</time>
</trkpt>
<trkpt lat="49.657761" lon="10.176823">
<ele>210.576</ele>
<time>2019-05-30T12:20:55Z</time>
</trkpt>
<trkpt lat="49.65778" lon="10.176728">
<ele>210.576</ele>
<time>2019-05-30T12:20:56Z</time>
</trkpt>
<trkpt lat="49.657803" lon="10.176635">
<ele>210.576</ele>
<time>2019-05-30T12:20:57Z</time>
</trkpt>
<trkpt lat="49.657822" lon="10.176541">
<ele>210.576</ele>
<time>2019-05-30T12:20:58Z</time>
</trkpt>
<trkpt lat="49.657837" lon="10.176447">
<ele>210.576</ele>
<time>2019-05-30T12:20:59Z</time>
</trkpt>
<trkpt lat="49.657864" lon="10.176353">
<ele>210.576</ele>
<time>2019-05-30T12:21:00Z</time>
</trkpt>
<trkpt lat="49.657883" lon="10.17626">
<ele>210.576</ele>
<time>2019-05-30T12:21:01Z</time>
</trkpt>
<trkpt lat="49.657902" lon="10.176165">
<ele>210.576</ele>
<time>2019-05-30T12:21:02Z</time>
</trkpt>
<trkpt lat="49.657925" lon="10.176072">
<ele>210.576</ele>
<time>2019-05-30T12:21:03Z</time>
</trkpt>
<trkpt lat="49.657944" lon="10.175977">
<ele>210.576</ele>
<time>2019-05-30T12:21:04Z</time>
</trkpt>
<trkpt lat="49.657967" lon="10.175883">
<ele>210.576</ele>
<time>2019-05-30T12:21:05Z</time>
</trkpt>
<trkpt lat="49.657982" lon="10.17579">
<ele>210.576</ele>
<time>2019-05-30T12:21:06Z</time>
</trkpt>
<trkpt lat="49.658001" lon="10.175697">
<ele>210.576</ele>
<time>2019-05-30T12:21:07Z</time>
</trkpt>
<trkpt lat="49.65802" lon="10.175603">
<ele>210.576</ele>
<time>2019-05-30T12:21:08Z</time>
</trkpt>
<trkpt lat="49.658035" lon="10.175508">
<ele>210.372</ele>
<time>2019-05-30T12:21:09Z</time>
</trkpt>
<trkpt lat="49.658051" lon="10.175413">
<ele>210.345</ele>
<time>2019-05-30T12:21:10Z</time>
</trkpt>
<trkpt lat="49.658066" lon="10.175319">
<ele>210.411</ele>
<time>2019-05-30T12:21:11Z</time>
</trkpt>
<trkpt lat="49.658085" lon="10.175225">
<ele>210.466</ele>
<time>2019-05-30T12:21:12Z</time>
</trkpt>
<trkpt lat="49.658096" lon="10.175128">
<ele>210.513</ele>
<time>2019-05-30T12:21:13Z</time>
</trkpt>
<trkpt lat="49.658108" lon="10.175034">
<ele>210.553</ele>
<time>2019-05-30T12:21:14Z</time>
</trkpt>
<trkpt lat="49.658123" lon="10.17494">
<ele>210.586</ele>
<time>2019-05-30T12:21:15Z</time>
</trkpt>
<trkpt lat="49.658134" lon="10.174847">
<ele>210.614</ele>
<time>2019-05-30T12:21:16Z</time>
</trkpt>
<trkpt lat="49.658146" lon="10.174753">
<ele>210.638</ele>
<time>2019-05-30T12:21:17Z</time>
</trkpt>
<trkpt lat="49.658157" lon="10.174662">
<ele>210.659</ele>
<time>2019-05-30T12:21:18Z</time>
</trkpt>
<trkpt lat="49.658161" lon="10.17457">
<ele>210.659</ele>
<time>2019-05-30T12:21:19Z</time>
</trkpt>
<trkpt lat="49.658169" lon="10.174477">
<ele>210.659</ele>
<time>2019-05-30T12:21:20Z</time>
</trkpt>
<trkpt lat="49.658173" lon="10.174385">
<ele>210.659</ele>
<time>2019-05-30T12:21:21Z</time>
</trkpt>
<trkpt lat="49.658176" lon="10.174294">
<ele>210.659</ele>
<time>2019-05-30T12:21:22Z</time>
</trkpt>
<trkpt lat="49.658176" lon="10.1742">
<ele>210.659</ele>
<time>2019-05-30T12:21:23Z</time>
</trkpt>
<trkpt lat="49.658176" lon="10.174107">
<ele>210.659</ele>
<time>2019-05-30T12:21:24Z</time>
</trkpt>
<trkpt lat="49.658173" lon="10.174013">
<ele>210.659</ele>
<time>2019-05-30T12:21:25Z</time>
</trkpt>
<trkpt lat="49.658169" lon="10.173923">
<ele>210.659</ele>
<time>2019-05-30T12:21:26Z</time>
</trkpt>
<trkpt lat="49.658165" lon="10.173831">
<ele>210.659</ele>
<time>2019-05-30T12:21:27Z</time>
</trkpt>
<trkpt lat="49.658161" lon="10.173741">
<ele>210.659</ele>
<time>2019-05-30T12:21:28Z</time>
</trkpt>
<trkpt lat="49.658157" lon="10.173652">
<ele>210.659</ele>
<time>2019-05-30T12:21:29Z</time>
</trkpt>
<trkpt lat="49.65815" lon="10.173562">
<ele>210.659</ele>
<time>2019-05-30T12:21:30Z</time>
</trkpt>
<trkpt lat="49.658138" lon="10.173473">
<ele>210.659</ele>
<time>2019-05-30T12:21:31Z</time>
</trkpt>
<trkpt lat="49.658131" lon="10.173383">
<ele>210.659</ele>
<time>2019-05-30T12:21:32Z</time>
</trkpt>
<trkpt lat="49.658115" lon="10.173297">
<ele>210.659</ele>
<time>2019-05-30T12:21:33Z</time>
</trkpt>
<trkpt lat="49.658104" lon="10.173208">
<ele>210.659</ele>
<time>2019-05-30T12:21:34Z</time>
</trkpt>
<trkpt lat="49.658096" lon="10.17312">
<ele>210.659</ele>
<time>2019-05-30T12:21:35Z</time>
</trkpt>
<trkpt lat="49.658077" lon="10.173033">
<ele>210.659</ele>
<time>2019-05-30T12:21:36Z</time>
</trkpt>
<trkpt lat="49.658066" lon="10.172949">
<ele>210.659</ele>
<time>2019-05-30T12:21:37Z</time>
</trkpt>
<trkpt lat="49.658043" lon="10.172867">
<ele>210.659</ele>
<time>2019-05-30T12:21:38Z</time>
</trkpt>
<trkpt lat="49.658031" lon="10.172783">
<ele>210.659</ele>
<time>2019-05-30T12:21:39Z</time>
</trkpt>
<trkpt lat="49.658009" lon="10.172704">
<ele>210.659</ele>
<time>2019-05-30T12:21:40Z</time>
</trkpt>
<trkpt lat="49.657993" lon="10.172624">
<ele>210.659</ele>
<time>2019-05-30T12:21:41Z</time>
</trkpt>
<trkpt lat="49.65797" lon="10.172544">
<ele>210.891</ele>
<time>2019-05-30T12:21:42Z</time>
</trkpt>
<trkpt lat="49.657951" lon="10.172465">
<ele>211.075</ele>
<time>2019-05-30T12:21:43Z</time>
</trkpt>
<trkpt lat="49.657925" lon="10.172383">
<ele>211.216</ele>
<time>2019-05-30T12:21:44Z</time>
</trkpt>
<trkpt lat="49.657902" lon="10.172303">
<ele>211.321</ele>
<time>2019-05-30T12:21:45Z</time>
</trkpt>
<trkpt lat="49.657871" lon="10.172226">
<ele>211.394</ele>
<time>2019-05-30T12:21:46Z</time>
</trkpt>
<trkpt lat="49.657845" lon="10.172149">
<ele>211.439</ele>
<time>2019-05-30T12:21:47Z</time>
</trkpt>
<trkpt lat="49.657818" lon="10.172071">
<ele>211.476</ele>
<time>2019-05-30T12:21:48Z</time>
</trkpt>
<trkpt lat="49.657787" lon="10.171995">
<ele>211.499</ele>
<time>2019-05-30T12:21:49Z</time>
</trkpt>
<trkpt lat="49.657757" lon="10.171922">
<ele>211.499</ele>
<time>2019-05-30T12:21:50Z</time>
</trkpt>
<trkpt lat="49.657719" lon="10.171848">
<ele>211.499</ele>
<time>2019-05-30T12:21:51Z</time>
</trkpt>
<trkpt lat="49.657684" lon="10.171775">
<ele>211.499</ele>
<time>2019-05-30T12:21:52Z</time>
</trkpt>
<trkpt lat="49.657642" lon="10.171703">
<ele>211.499</ele>
<time>2019-05-30T12:21:53Z</time>
</trkpt>
<trkpt lat="49.657608" lon="10.171631">
<ele>211.499</ele>
<time>2019-05-30T12:21:54Z</time>
</trkpt>
<trkpt lat="49.657566" lon="10.171556">
<ele>211.281</ele>
<time>2019-05-30T12:21:55Z</time>
</trkpt>
<trkpt lat="49.657524" lon="10.171478">
<ele>211.109</ele>
<time>2019-05-30T12:21:56Z</time>
</trkpt>
<trkpt lat="49.657482" lon="10.171402">
<ele>211.004</ele>
<time>2019-05-30T12:21:57Z</time>
</trkpt>
<trkpt lat="49.657444" lon="10.171321">
<ele>210.677</ele>
<time>2019-05-30T12:21:58Z</time>
</trkpt>
<trkpt lat="49.657398" lon="10.171239">
<ele>210.384</ele>
<time>2019-05-30T12:21:59Z</time>
</trkpt>
<trkpt lat="49.657349" lon="10.171155">
<ele>210.181</ele>
<time>2019-05-30T12:22:00Z</time>
</trkpt>
<trkpt lat="49.657303" lon="10.17107">
<ele>209.744</ele>
<time>2019-05-30T12:22:01Z</time>
</trkpt>
<trkpt lat="49.657253" lon="10.170987">
<ele>209.412</ele>
<time>2019-05-30T12:22:02Z</time>
</trkpt>
<trkpt lat="49.657204" lon="10.170899">
<ele>209.212</ele>
<time>2019-05-30T12:22:03Z</time>
</trkpt>
<trkpt lat="49.65715" lon="10.170814">
<ele>208.762</ele>
<time>2019-05-30T12:22:04Z</time>
</trkpt>
<trkpt lat="49.657104" lon="10.170724">
<ele>208.461</ele>
<time>2019-05-30T12:22:05Z</time>
</trkpt>
<trkpt lat="49.657055" lon="10.170629">
<ele>207.878</ele>
<time>2019-05-30T12:22:06Z</time>
</trkpt>
<trkpt lat="49.657005" lon="10.170528">
<ele>207.508</ele>
<time>2019-05-30T12:22:07Z</time>
</trkpt>
<trkpt lat="49.656963" lon="10.17042">
<ele>207.241</ele>
<time>2019-05-30T12:22:08Z</time>
</trkpt>
<trkpt lat="49.656925" lon="10.170308">
<ele>206.769</ele>
<time>2019-05-30T12:22:09Z</time>
</trkpt>
<trkpt lat="49.656891" lon="10.170196">
<ele>206.403</ele>
<time>2019-05-30T12:22:10Z</time>
</trkpt>
<trkpt lat="49.656857" lon="10.170076">
<ele>206.137</ele>
<time>2019-05-30T12:22:11Z</time>
</trkpt>
<trkpt lat="49.65683" lon="10.169959">
<ele>205.959</ele>
<time>2019-05-30T12:22:12Z</time>
</trkpt>
<trkpt lat="49.656803" lon="10.169844">
<ele>205.84</ele>
<time>2019-05-30T12:22:13Z</time>
</trkpt>
<trkpt lat="49.65678" lon="10.16973">
<ele>205.784</ele>
<time>2019-05-30T12:22:14Z</time>
</trkpt>
<trkpt lat="49.65675" lon="10.16962">
<ele>205.531</ele>
<time>2019-05-30T12:22:15Z</time>
</trkpt>
<trkpt lat="49.656719" lon="10.169512">
<ele>205.337</ele>
<time>2019-05-30T12:22:16Z</time>
</trkpt>
<trkpt lat="49.656696" lon="10.169405">
<ele>205.197</ele>
<time>2019-05-30T12:22:17Z</time>
</trkpt>
<trkpt lat="49.65667" lon="10.169301">
<ele>205.107</ele>
<time>2019-05-30T12:22:18Z</time>
</trkpt>
<trkpt lat="49.656647" lon="10.169202">
<ele>205.01</ele>
<time>2019-05-30T12:22:19Z</time>
</trkpt>
<trkpt lat="49.656624" lon="10.169104">
<ele>204.939</ele>
<time>2019-05-30T12:22:20Z</time>
</trkpt>
<trkpt lat="49.656601" lon="10.169006">
<ele>204.892</ele>
<time>2019-05-30T12:22:21Z</time>
</trkpt>
<trkpt lat="49.656586" lon="10.168908">
<ele>204.869</ele>
<time>2019-05-30T12:22:22Z</time>
</trkpt>
<trkpt lat="49.656574" lon="10.168809">
<ele>204.869</ele>
<time>2019-05-30T12:22:23Z</time>
</trkpt>
<trkpt lat="49.65657" lon="10.168705">
<ele>204.869</ele>
<time>2019-05-30T12:22:24Z</time>
</trkpt>
<trkpt lat="49.656574" lon="10.168603">
<ele>204.869</ele>
<time>2019-05-30T12:22:25Z</time>
</trkpt>
<trkpt lat="49.656578" lon="10.168503">
<ele>204.869</ele>
<time>2019-05-30T12:22:26Z</time>
</trkpt>
<trkpt lat="49.656582" lon="10.168402">
<ele>204.869</ele>
<time>2019-05-30T12:22:27Z</time>
</trkpt>
<trkpt lat="49.656593" lon="10.168305">
<ele>204.869</ele>
<time>2019-05-30T12:22:28Z</time>
</trkpt>
<trkpt lat="49.656601" lon="10.168207">
<ele>204.869</ele>
<time>2019-05-30T12:22:29Z</time>
</trkpt>
<trkpt lat="49.65662" lon="10.16811">
<ele>204.869</ele>
<time>2019-05-30T12:22:30Z</time>
</trkpt>
<trkpt lat="49.656639" lon="10.168018">
<ele>204.604</ele>
<time>2019-05-30T12:22:31Z</time>
</trkpt>
<trkpt lat="49.656666" lon="10.167931">
<ele>204.398</ele>
<time>2019-05-30T12:22:32Z</time>
</trkpt>
<trkpt lat="49.656696" lon="10.167847">
<ele>204.24</ele>
<time>2019-05-30T12:22:33Z</time>
</trkpt>
<trkpt lat="49.656727" lon="10.167764">
<ele>204.123</ele>
<time>2019-05-30T12:22:34Z</time>
</trkpt>
<trkpt lat="49.656757" lon="10.167686">
<ele>204.043</ele>
<time>2019-05-30T12:22:35Z</time>
</trkpt>
<trkpt lat="49.656788" lon="10.167608">
<ele>203.995</ele>
<time>2019-05-30T12:22:36Z</time>
</trkpt>
<trkpt lat="49.656818" lon="10.167533">
<ele>203.969</ele>
<time>2019-05-30T12:22:37Z</time>
</trkpt>
<trkpt lat="49.656857" lon="10.167461">
<ele>203.947</ele>
<time>2019-05-30T12:22:38Z</time>
</trkpt>
<trkpt lat="49.656891" lon="10.167388">
<ele>203.947</ele>
<time>2019-05-30T12:22:39Z</time>
</trkpt>
<trkpt lat="49.656925" lon="10.167311">
<ele>203.947</ele>
<time>2019-05-30T12:22:40Z</time>
</trkpt>
<trkpt lat="49.65696" lon="10.167237">
<ele>203.947</ele>
<time>2019-05-30T12:22:41Z</time>
</trkpt>
<trkpt lat="49.65699" lon="10.167164">
<ele>203.947</ele>
<time>2019-05-30T12:22:42Z</time>
</trkpt>
<trkpt lat="49.657021" lon="10.167089">
<ele>203.947</ele>
<time>2019-05-30T12:22:43Z</time>
</trkpt>
<trkpt lat="49.657051" lon="10.167015">
<ele>203.947</ele>
<time>2019-05-30T12:22:44Z</time>
</trkpt>
<trkpt lat="49.657074" lon="10.166944">
<ele>203.947</ele>
<time>2019-05-30T12:22:45Z</time>
</trkpt>
<trkpt lat="49.657101" lon="10.16687">
<ele>203.947</ele>
<time>2019-05-30T12:22:46Z</time>
</trkpt>
<trkpt lat="49.657124" lon="10.166793">
<ele>203.947</ele>
<time>2019-05-30T12:22:47Z</time>
</trkpt>
<trkpt lat="49.65715" lon="10.166724">
<ele>203.947</ele>
<time>2019-05-30T12:22:48Z</time>
</trkpt>
<trkpt lat="49.657173" lon="10.166658">
<ele>204.145</ele>
<time>2019-05-30T12:22:49Z</time>
</trkpt>
<trkpt lat="49.6572" lon="10.166598">
<ele>204.313</ele>
<time>2019-05-30T12:22:50Z</time>
</trkpt>
<trkpt lat="49.65723" lon="10.166552">
<ele>204.453</ele>
<time>2019-05-30T12:22:51Z</time>
</trkpt>
<trkpt lat="49.657265" lon="10.166544">
<ele>204.566</ele>
<time>2019-05-30T12:22:52Z</time>
</trkpt>
<trkpt lat="49.65728" lon="10.166535">
<ele>204.653</ele>
<time>2019-05-30T12:22:53Z</time>
</trkpt>
<trkpt lat="49.65731" lon="10.166575">
<ele>204.717</ele>
<time>2019-05-30T12:22:54Z</time>
</trkpt>
<trkpt lat="49.657349" lon="10.166621">
<ele>204.763</ele>
<time>2019-05-30T12:22:55Z</time>
</trkpt>
<trkpt lat="49.657383" lon="10.166668">
<ele>204.786</ele>
<time>2019-05-30T12:22:56Z</time>
</trkpt>
<trkpt lat="49.657425" lon="10.166708">
<ele>204.786</ele>
<time>2019-05-30T12:22:57Z</time>
</trkpt>
<trkpt lat="49.657475" lon="10.166739">
<ele>204.786</ele>
<time>2019-05-30T12:22:58Z</time>
</trkpt>
<trkpt lat="49.65752" lon="10.166759">
<ele>204.786</ele>
<time>2019-05-30T12:22:59Z</time>
</trkpt>
<trkpt lat="49.657574" lon="10.16678">
<ele>204.786</ele>
<time>2019-05-30T12:23:00Z</time>
</trkpt>
<trkpt lat="49.657635" lon="10.166793">
<ele>204.786</ele>
<time>2019-05-30T12:23:01Z</time>
</trkpt>
<trkpt lat="49.657688" lon="10.1668">
<ele>204.786</ele>
<time>2019-05-30T12:23:02Z</time>
</trkpt>
<trkpt lat="49.657742" lon="10.166803">
<ele>204.786</ele>
<time>2019-05-30T12:23:03Z</time>
</trkpt>
<trkpt lat="49.657795" lon="10.166801">
<ele>204.786</ele>
<time>2019-05-30T12:23:04Z</time>
</trkpt>
<trkpt lat="49.657845" lon="10.166806">
<ele>204.786</ele>
<time>2019-05-30T12:23:05Z</time>
</trkpt>
<trkpt lat="49.657902" lon="10.166806">
<ele>204.786</ele>
<time>2019-05-30T12:23:06Z</time>
</trkpt>
<trkpt lat="49.657951" lon="10.166801">
<ele>204.786</ele>
<time>2019-05-30T12:23:07Z</time>
</trkpt>
<trkpt lat="49.658005" lon="10.1668">
<ele>204.786</ele>
<time>2019-05-30T12:23:08Z</time>
</trkpt>
<trkpt lat="49.658058" lon="10.166797">
<ele>204.786</ele>
<time>2019-05-30T12:23:09Z</time>
</trkpt>
<trkpt lat="49.658112" lon="10.166797">
<ele>204.786</ele>
<time>2019-05-30T12:23:10Z</time>
</trkpt>
<trkpt lat="49.658165" lon="10.1668">
<ele>204.786</ele>
<time>2019-05-30T12:23:11Z</time>
</trkpt>
<trkpt lat="49.658222" lon="10.166801">
<ele>204.786</ele>
<time>2019-05-30T12:23:12Z</time>
</trkpt>
<trkpt lat="49.658268" lon="10.166808">
<ele>204.786</ele>
<time>2019-05-30T12:23:13Z</time>
</trkpt>
<trkpt lat="49.658321" lon="10.166819">
<ele>204.786</ele>
<time>2019-05-30T12:23:14Z</time>
</trkpt>
<trkpt lat="49.658367" lon="10.166823">
<ele>204.786</ele>
<time>2019-05-30T12:23:15Z</time>
</trkpt>
<trkpt lat="49.658417" lon="10.166827">
<ele>204.786</ele>
<time>2019-05-30T12:23:16Z</time>
</trkpt>
<trkpt lat="49.65844" lon="10.166827">
<ele>204.786</ele>
<time>2019-05-30T12:23:17Z</time>
</trkpt>
<trkpt lat="49.658466" lon="10.166833">
<ele>204.786</ele>
<time>2019-05-30T12:23:18Z</time>
</trkpt>
<trkpt lat="49.65852" lon="10.166842">
<ele>204.786</ele>
<time>2019-05-30T12:23:19Z</time>
</trkpt>
<trkpt lat="49.658577" lon="10.166852">
<ele>204.523</ele>
<time>2019-05-30T12:23:20Z</time>
</trkpt>
<trkpt lat="49.658634" lon="10.166852">
<ele>204.309</ele>
<time>2019-05-30T12:23:21Z</time>
</trkpt>
<trkpt lat="49.658695" lon="10.166855">
<ele>204.14</ele>
<time>2019-05-30T12:23:22Z</time>
</trkpt>
<trkpt lat="49.658752" lon="10.166845">
<ele>204.014</ele>
<time>2019-05-30T12:23:23Z</time>
</trkpt>
<trkpt lat="49.658813" lon="10.166822">
<ele>203.929</ele>
<time>2019-05-30T12:23:24Z</time>
</trkpt>
<trkpt lat="49.658871" lon="10.166781">
<ele>203.875</ele>
<time>2019-05-30T12:23:25Z</time>
</trkpt>
<trkpt lat="49.65892" lon="10.166723">
<ele>203.863</ele>
<time>2019-05-30T12:23:26Z</time>
</trkpt>
<trkpt lat="49.658966" lon="10.166658">
<ele>203.863</ele>
<time>2019-05-30T12:23:27Z</time>
</trkpt>
<trkpt lat="49.659008" lon="10.16659">
<ele>203.863</ele>
<time>2019-05-30T12:23:28Z</time>
</trkpt>
<trkpt lat="49.659042" lon="10.166514">
<ele>203.863</ele>
<time>2019-05-30T12:23:29Z</time>
</trkpt>
<trkpt lat="49.659069" lon="10.166431">
<ele>203.863</ele>
<time>2019-05-30T12:23:30Z</time>
</trkpt>
<trkpt lat="49.659088" lon="10.166345">
<ele>203.863</ele>
<time>2019-05-30T12:23:31Z</time>
</trkpt>
<trkpt lat="49.659103" lon="10.166253">
<ele>203.863</ele>
<time>2019-05-30T12:23:32Z</time>
</trkpt>
<trkpt lat="49.659107" lon="10.166159">
<ele>203.863</ele>
<time>2019-05-30T12:23:33Z</time>
</trkpt>
<trkpt lat="49.659103" lon="10.166064">
<ele>203.863</ele>
<time>2019-05-30T12:23:34Z</time>
</trkpt>
<trkpt lat="49.659096" lon="10.165972">
<ele>203.604</ele>
<time>2019-05-30T12:23:35Z</time>
</trkpt>
<trkpt lat="49.659084" lon="10.16588">
<ele>203.399</ele>
<time>2019-05-30T12:23:36Z</time>
</trkpt>
<trkpt lat="49.659073" lon="10.16579">
<ele>203.243</ele>
<time>2019-05-30T12:23:37Z</time>
</trkpt>
<trkpt lat="49.659065" lon="10.165704">
<ele>203.136</ele>
<time>2019-05-30T12:23:38Z</time>
</trkpt>
<trkpt lat="49.659054" lon="10.165615">
<ele>203.02</ele>
<time>2019-05-30T12:23:39Z</time>
</trkpt>
<trkpt lat="49.659042" lon="10.165528">
<ele>202.937</ele>
<time>2019-05-30T12:23:40Z</time>
</trkpt>
<trkpt lat="49.659031" lon="10.165443">
<ele>202.883</ele>
<time>2019-05-30T12:23:41Z</time>
</trkpt>
<trkpt lat="49.659016" lon="10.165357">
<ele>202.856</ele>
<time>2019-05-30T12:23:42Z</time>
</trkpt>
<trkpt lat="49.659008" lon="10.16527">
<ele>202.856</ele>
<time>2019-05-30T12:23:43Z</time>
</trkpt>
<trkpt lat="49.658997" lon="10.165184">
<ele>202.856</ele>
<time>2019-05-30T12:23:44Z</time>
</trkpt>
<trkpt lat="49.658985" lon="10.165096">
<ele>202.856</ele>
<time>2019-05-30T12:23:45Z</time>
</trkpt>
<trkpt lat="49.658978" lon="10.16501">
<ele>202.856</ele>
<time>2019-05-30T12:23:46Z</time>
</trkpt>
<trkpt lat="49.658966" lon="10.164925">
<ele>202.856</ele>
<time>2019-05-30T12:23:47Z</time>
</trkpt>
<trkpt lat="49.658958" lon="10.164842">
<ele>202.856</ele>
<time>2019-05-30T12:23:48Z</time>
</trkpt>
<trkpt lat="49.658947" lon="10.164763">
<ele>202.856</ele>
<time>2019-05-30T12:23:49Z</time>
</trkpt>
<trkpt lat="49.658943" lon="10.16468">
<ele>202.856</ele>
<time>2019-05-30T12:23:50Z</time>
</trkpt>
<trkpt lat="49.658928" lon="10.164598">
<ele>202.856</ele>
<time>2019-05-30T12:23:51Z</time>
</trkpt>
<trkpt lat="49.658916" lon="10.164516">
<ele>202.856</ele>
<time>2019-05-30T12:23:52Z</time>
</trkpt>
<trkpt lat="49.658905" lon="10.164434">
<ele>202.856</ele>
<time>2019-05-30T12:23:53Z</time>
</trkpt>
<trkpt lat="49.658894" lon="10.164355">
<ele>202.856</ele>
<time>2019-05-30T12:23:54Z</time>
</trkpt>
<trkpt lat="49.658882" lon="10.164275">
<ele>202.856</ele>
<time>2019-05-30T12:23:55Z</time>
</trkpt>
<trkpt lat="49.658886" lon="10.164197">
<ele>202.856</ele>
<time>2019-05-30T12:23:56Z</time>
</trkpt>
<trkpt lat="49.658901" lon="10.164124">
<ele>202.856</ele>
<time>2019-05-30T12:23:57Z</time>
</trkpt>
<trkpt lat="49.658924" lon="10.164068">
<ele>202.856</ele>
<time>2019-05-30T12:23:58Z</time>
</trkpt>
<trkpt lat="49.658947" lon="10.164025">
<ele>202.856</ele>
<time>2019-05-30T12:23:59Z</time>
</trkpt>
<trkpt lat="49.658978" lon="10.164001">
<ele>202.856</ele>
<time>2019-05-30T12:24:00Z</time>
</trkpt>
<trkpt lat="49.659012" lon="10.163985">
<ele>202.856</ele>
<time>2019-05-30T12:24:01Z</time>
</trkpt>
<trkpt lat="49.659042" lon="10.163981">
<ele>202.856</ele>
<time>2019-05-30T12:24:02Z</time>
</trkpt>
<trkpt lat="49.659081" lon="10.163983">
<ele>203.066</ele>
<time>2019-05-30T12:24:03Z</time>
</trkpt>
<trkpt lat="49.659122" lon="10.163985">
<ele>203.243</ele>
<time>2019-05-30T12:24:04Z</time>
</trkpt>
<trkpt lat="49.659157" lon="10.163992">
<ele>203.386</ele>
<time>2019-05-30T12:24:05Z</time>
</trkpt>
<trkpt lat="49.659195" lon="10.163995">
<ele>203.496</ele>
<time>2019-05-30T12:24:06Z</time>
</trkpt>
<trkpt lat="49.659229" lon="10.164003">
<ele>203.573</ele>
<time>2019-05-30T12:24:07Z</time>
</trkpt>
<trkpt lat="49.659271" lon="10.164013">
<ele>203.628</ele>
<time>2019-05-30T12:24:08Z</time>
</trkpt>
<trkpt lat="49.659313" lon="10.164019">
<ele>203.674</ele>
<time>2019-05-30T12:24:09Z</time>
</trkpt>
<trkpt lat="49.659367" lon="10.164011">
<ele>203.695</ele>
<time>2019-05-30T12:24:10Z</time>
</trkpt>
<trkpt lat="49.65942" lon="10.163985">
<ele>203.695</ele>
<time>2019-05-30T12:24:11Z</time>
</trkpt>
<trkpt lat="49.659462" lon="10.163941">
<ele>203.695</ele>
<time>2019-05-30T12:24:12Z</time>
</trkpt>
<trkpt lat="49.659485" lon="10.163887">
<ele>203.695</ele>
<time>2019-05-30T12:24:13Z</time>
</trkpt>
<trkpt lat="49.6595" lon="10.163825">
<ele>203.695</ele>
<time>2019-05-30T12:24:14Z</time>
</trkpt>
<trkpt lat="49.659508" lon="10.163754">
<ele>203.695</ele>
<time>2019-05-30T12:24:15Z</time>
</trkpt>
<trkpt lat="49.659512" lon="10.163678">
<ele>203.695</ele>
<time>2019-05-30T12:24:16Z</time>
</trkpt>
<trkpt lat="49.659515" lon="10.163607">
<ele>203.695</ele>
<time>2019-05-30T12:24:17Z</time>
</trkpt>
<trkpt lat="49.659519" lon="10.16354">
<ele>203.895</ele>
<time>2019-05-30T12:24:18Z</time>
</trkpt>
<trkpt lat="49.659523" lon="10.16347">
<ele>204.087</ele>
<time>2019-05-30T12:24:19Z</time>
</trkpt>
<trkpt lat="49.659523" lon="10.163402">
<ele>204.253</ele>
<time>2019-05-30T12:24:20Z</time>
</trkpt>
<trkpt lat="49.659508" lon="10.163323">
<ele>204.385</ele>
<time>2019-05-30T12:24:21Z</time>
</trkpt>
<trkpt lat="49.6595" lon="10.163244">
<ele>204.482</ele>
<time>2019-05-30T12:24:22Z</time>
</trkpt>
<trkpt lat="49.659489" lon="10.163173">
<ele>204.549</ele>
<time>2019-05-30T12:24:23Z</time>
</trkpt>
<trkpt lat="49.659477" lon="10.163092">
<ele>204.595</ele>
<time>2019-05-30T12:24:24Z</time>
</trkpt>
<trkpt lat="49.659466" lon="10.163007">
<ele>204.613</ele>
<time>2019-05-30T12:24:25Z</time>
</trkpt>
<trkpt lat="49.659454" lon="10.16292">
<ele>204.377</ele>
<time>2019-05-30T12:24:26Z</time>
</trkpt>
<trkpt lat="49.659439" lon="10.162829">
<ele>204.188</ele>
<time>2019-05-30T12:24:27Z</time>
</trkpt>
<trkpt lat="49.659428" lon="10.162737">
<ele>204.067</ele>
<time>2019-05-30T12:24:28Z</time>
</trkpt>
<trkpt lat="49.659416" lon="10.162642">
<ele>203.935</ele>
<time>2019-05-30T12:24:29Z</time>
</trkpt>
<trkpt lat="49.659412" lon="10.162548">
<ele>203.84</ele>
<time>2019-05-30T12:24:30Z</time>
</trkpt>
<trkpt lat="49.659412" lon="10.162454">
<ele>203.549</ele>
<time>2019-05-30T12:24:31Z</time>
</trkpt>
<trkpt lat="49.659412" lon="10.162354">
<ele>203.333</ele>
<time>2019-05-30T12:24:32Z</time>
</trkpt>
<trkpt lat="49.65942" lon="10.16225">
<ele>203.172</ele>
<time>2019-05-30T12:24:33Z</time>
</trkpt>
<trkpt lat="49.659428" lon="10.162145">
<ele>203.034</ele>
<time>2019-05-30T12:24:34Z</time>
</trkpt>
<trkpt lat="49.659435" lon="10.162044">
<ele>202.712</ele>
<time>2019-05-30T12:24:35Z</time>
</trkpt>
<trkpt lat="49.659447" lon="10.16194">
<ele>202.474</ele>
<time>2019-05-30T12:24:36Z</time>
</trkpt>
<trkpt lat="49.659462" lon="10.161837">
<ele>202.301</ele>
<time>2019-05-30T12:24:37Z</time>
</trkpt>
<trkpt lat="49.659477" lon="10.161736">
<ele>202.182</ele>
<time>2019-05-30T12:24:38Z</time>
</trkpt>
<trkpt lat="49.659496" lon="10.161637">
<ele>202.079</ele>
<time>2019-05-30T12:24:39Z</time>
</trkpt>
<trkpt lat="49.659512" lon="10.161538">
<ele>202.005</ele>
<time>2019-05-30T12:24:40Z</time>
</trkpt>
<trkpt lat="49.659527" lon="10.161443">
<ele>201.957</ele>
<time>2019-05-30T12:24:41Z</time>
</trkpt>
<trkpt lat="49.659542" lon="10.16135">
<ele>201.934</ele>
<time>2019-05-30T12:24:42Z</time>
</trkpt>
<trkpt lat="49.659565" lon="10.161258">
<ele>201.934</ele>
<time>2019-05-30T12:24:43Z</time>
</trkpt>
<trkpt lat="49.65958" lon="10.161168">
<ele>201.934</ele>
<time>2019-05-30T12:24:44Z</time>
</trkpt>
<trkpt lat="49.659603" lon="10.16108">
<ele>201.934</ele>
<time>2019-05-30T12:24:45Z</time>
</trkpt>
<trkpt lat="49.65963" lon="10.160994">
<ele>201.934</ele>
<time>2019-05-30T12:24:46Z</time>
</trkpt>
<trkpt lat="49.659653" lon="10.160907">
<ele>201.934</ele>
<time>2019-05-30T12:24:47Z</time>
</trkpt>
<trkpt lat="49.659683" lon="10.160823">
<ele>201.934</ele>
<time>2019-05-30T12:24:48Z</time>
</trkpt>
<trkpt lat="49.65971" lon="10.16074">
<ele>201.934</ele>
<time>2019-05-30T12:24:49Z</time>
</trkpt>
<trkpt lat="49.65974" lon="10.160659">
<ele>201.934</ele>
<time>2019-05-30T12:24:50Z</time>
</trkpt>
<trkpt lat="49.659771" lon="10.160575">
<ele>201.934</ele>
<time>2019-05-30T12:24:51Z</time>
</trkpt>
<trkpt lat="49.659801" lon="10.160495">
<ele>201.934</ele>
<time>2019-05-30T12:24:52Z</time>
</trkpt>
<trkpt lat="49.659832" lon="10.160416">
<ele>201.934</ele>
<time>2019-05-30T12:24:53Z</time>
</trkpt>
<trkpt lat="49.659863" lon="10.160336">
<ele>201.934</ele>
<time>2019-05-30T12:24:54Z</time>
</trkpt>
<trkpt lat="49.659897" lon="10.160261">
<ele>201.934</ele>
<time>2019-05-30T12:24:55Z</time>
</trkpt>
<trkpt lat="49.659931" lon="10.160188">
<ele>201.934</ele>
<time>2019-05-30T12:24:56Z</time>
</trkpt>
<trkpt lat="49.659966" lon="10.160116">
<ele>201.934</ele>
<time>2019-05-30T12:24:57Z</time>
</trkpt>
<trkpt lat="49.66" lon="10.160043">
<ele>201.934</ele>
<time>2019-05-30T12:24:58Z</time>
</trkpt>
<trkpt lat="49.660034" lon="10.159968">
<ele>201.934</ele>
<time>2019-05-30T12:24:59Z</time>
</trkpt>
<trkpt lat="49.660065" lon="10.159894">
<ele>201.934</ele>
<time>2019-05-30T12:25:00Z</time>
</trkpt>
<trkpt lat="49.660095" lon="10.159819">
<ele>201.934</ele>
<time>2019-05-30T12:25:01Z</time>
</trkpt>
<trkpt lat="49.66013" lon="10.159745">
<ele>201.934</ele>
<time>2019-05-30T12:25:02Z</time>
</trkpt>
<trkpt lat="49.660164" lon="10.159672">
<ele>201.934</ele>
<time>2019-05-30T12:25:03Z</time>
</trkpt>
<trkpt lat="49.660194" lon="10.159596">
<ele>201.934</ele>
<time>2019-05-30T12:25:04Z</time>
</trkpt>
<trkpt lat="49.660225" lon="10.159523">
<ele>201.934</ele>
<time>2019-05-30T12:25:05Z</time>
</trkpt>
<trkpt lat="49.660255" lon="10.159453">
<ele>201.934</ele>
<time>2019-05-30T12:25:06Z</time>
</trkpt>
<trkpt lat="49.660286" lon="10.159385">
<ele>201.934</ele>
<time>2019-05-30T12:25:07Z</time>
</trkpt>
<trkpt lat="49.660313" lon="10.15932">
<ele>201.732</ele>
<time>2019-05-30T12:25:08Z</time>
</trkpt>
<trkpt lat="49.660343" lon="10.159257">
<ele>201.543</ele>
<time>2019-05-30T12:25:09Z</time>
</trkpt>
<trkpt lat="49.660366" lon="10.159197">
<ele>201.387</ele>
<time>2019-05-30T12:25:10Z</time>
</trkpt>
<trkpt lat="49.660389" lon="10.159143">
<ele>201.26</ele>
<time>2019-05-30T12:25:11Z</time>
</trkpt>
<trkpt lat="49.660412" lon="10.159088">
<ele>201.161</ele>
<time>2019-05-30T12:25:12Z</time>
</trkpt>
<trkpt lat="49.660439" lon="10.159037">
<ele>201.086</ele>
<time>2019-05-30T12:25:13Z</time>
</trkpt>
<trkpt lat="49.660461" lon="10.15899">
<ele>201.042</ele>
<time>2019-05-30T12:25:14Z</time>
</trkpt>
<trkpt lat="49.66048" lon="10.158949">
<ele>201.274</ele>
<time>2019-05-30T12:25:15Z</time>
</trkpt>
<trkpt lat="49.6605" lon="10.158916">
<ele>201.484</ele>
<time>2019-05-30T12:25:16Z</time>
</trkpt>
<trkpt lat="49.660511" lon="10.15888">
<ele>201.65</ele>
<time>2019-05-30T12:25:17Z</time>
</trkpt>
<trkpt lat="49.660519" lon="10.158845">
<ele>201.777</ele>
<time>2019-05-30T12:25:18Z</time>
</trkpt>
<trkpt lat="49.660526" lon="10.158803">
<ele>201.906</ele>
<time>2019-05-30T12:25:19Z</time>
</trkpt>
<trkpt lat="49.660538" lon="10.158758">
<ele>202.001</ele>
<time>2019-05-30T12:25:20Z</time>
</trkpt>
<trkpt lat="49.660553" lon="10.158712">
<ele>202.067</ele>
<time>2019-05-30T12:25:21Z</time>
</trkpt>
<trkpt lat="49.660572" lon="10.15866">
<ele>202.102</ele>
<time>2019-05-30T12:25:22Z</time>
</trkpt>
<trkpt lat="49.660599" lon="10.158613">
<ele>202.102</ele>
<time>2019-05-30T12:25:23Z</time>
</trkpt>
<trkpt lat="49.660622" lon="10.158578">
<ele>202.102</ele>
<time>2019-05-30T12:25:24Z</time>
</trkpt>
<trkpt lat="49.660652" lon="10.158557">
<ele>202.102</ele>
<time>2019-05-30T12:25:25Z</time>
</trkpt>
<trkpt lat="49.660683" lon="10.158543">
<ele>202.102</ele>
<time>2019-05-30T12:25:26Z</time>
</trkpt>
<trkpt lat="49.660706" lon="10.158535">
<ele>202.102</ele>
<time>2019-05-30T12:25:27Z</time>
</trkpt>
<trkpt lat="49.660736" lon="10.158535">
<ele>202.102</ele>
<time>2019-05-30T12:25:28Z</time>
</trkpt>
<trkpt lat="49.660759" lon="10.15853">
<ele>202.102</ele>
<time>2019-05-30T12:25:29Z</time>
</trkpt>
<trkpt lat="49.660782" lon="10.158518">
<ele>202.102</ele>
<time>2019-05-30T12:25:30Z</time>
</trkpt>
<trkpt lat="49.660805" lon="10.158501">
<ele>202.102</ele>
<time>2019-05-30T12:25:31Z</time>
</trkpt>
<trkpt lat="49.660831" lon="10.158478">
<ele>202.102</ele>
<time>2019-05-30T12:25:32Z</time>
</trkpt>
<trkpt lat="49.660862" lon="10.158446">
<ele>202.102</ele>
<time>2019-05-30T12:25:33Z</time>
</trkpt>
<trkpt lat="49.660892" lon="10.158411">
<ele>202.102</ele>
<time>2019-05-30T12:25:34Z</time>
</trkpt>
<trkpt lat="49.660919" lon="10.158373">
<ele>202.102</ele>
<time>2019-05-30T12:25:35Z</time>
</trkpt>
<trkpt lat="49.66095" lon="10.158334">
<ele>202.102</ele>
<time>2019-05-30T12:25:36Z</time>
</trkpt>
<trkpt lat="49.66098" lon="10.15829">
<ele>202.102</ele>
<time>2019-05-30T12:25:37Z</time>
</trkpt>
<trkpt lat="49.661018" lon="10.158247">
<ele>202.102</ele>
<time>2019-05-30T12:25:38Z</time>
</trkpt>
<trkpt lat="49.661049" lon="10.158199">
<ele>202.102</ele>
<time>2019-05-30T12:25:39Z</time>
</trkpt>
<trkpt lat="49.661079" lon="10.158152">
<ele>202.102</ele>
<time>2019-05-30T12:25:40Z</time>
</trkpt>
<trkpt lat="49.66111" lon="10.158098">
<ele>202.102</ele>
<time>2019-05-30T12:25:41Z</time>
</trkpt>
<trkpt lat="49.66114" lon="10.158047">
<ele>202.102</ele>
<time>2019-05-30T12:25:42Z</time>
</trkpt>
<trkpt lat="49.661171" lon="10.158002">
<ele>202.102</ele>
<time>2019-05-30T12:25:43Z</time>
</trkpt>
<trkpt lat="49.661205" lon="10.157954">
<ele>202.102</ele>
<time>2019-05-30T12:25:44Z</time>
</trkpt>
<trkpt lat="49.661236" lon="10.15791">
<ele>202.102</ele>
<time>2019-05-30T12:25:45Z</time>
</trkpt>
<trkpt lat="49.66127" lon="10.157865">
<ele>202.102</ele>
<time>2019-05-30T12:25:46Z</time>
</trkpt>
<trkpt lat="49.661297" lon="10.157818">
<ele>202.102</ele>
<time>2019-05-30T12:25:47Z</time>
</trkpt>
<trkpt lat="49.661327" lon="10.157774">
<ele>202.102</ele>
<time>2019-05-30T12:25:48Z</time>
</trkpt>
<trkpt lat="49.661358" lon="10.157725">
<ele>201.901</ele>
<time>2019-05-30T12:25:49Z</time>
</trkpt>
<trkpt lat="49.661388" lon="10.15768">
<ele>201.729</ele>
<time>2019-05-30T12:25:50Z</time>
</trkpt>
<trkpt lat="49.66143" lon="10.157628">
<ele>201.585</ele>
<time>2019-05-30T12:25:51Z</time>
</trkpt>
<trkpt lat="49.661469" lon="10.157569">
<ele>201.472</ele>
<time>2019-05-30T12:25:52Z</time>
</trkpt>
<trkpt lat="49.661499" lon="10.157503">
<ele>201.382</ele>
<time>2019-05-30T12:25:53Z</time>
</trkpt>
<trkpt lat="49.661533" lon="10.157436">
<ele>201.32</ele>
<time>2019-05-30T12:25:54Z</time>
</trkpt>
<trkpt lat="49.661568" lon="10.157382">
<ele>201.28</ele>
<time>2019-05-30T12:25:55Z</time>
</trkpt>
<trkpt lat="49.661602" lon="10.157335">
<ele>201.263</ele>
<time>2019-05-30T12:25:56Z</time>
</trkpt>
<trkpt lat="49.661636" lon="10.157294">
<ele>201.263</ele>
<time>2019-05-30T12:25:57Z</time>
</trkpt>
<trkpt lat="49.661663" lon="10.157258">
<ele>201.263</ele>
<time>2019-05-30T12:25:58Z</time>
</trkpt>
<trkpt lat="49.661701" lon="10.157225">
<ele>201.263</ele>
<time>2019-05-30T12:25:59Z</time>
</trkpt>
<trkpt lat="49.661747" lon="10.157193">
<ele>201.263</ele>
<time>2019-05-30T12:26:00Z</time>
</trkpt>
<trkpt lat="49.661793" lon="10.157164">
<ele>201.263</ele>
<time>2019-05-30T12:26:01Z</time>
</trkpt>
<trkpt lat="49.661846" lon="10.157135">
<ele>201.263</ele>
<time>2019-05-30T12:26:02Z</time>
</trkpt>
<trkpt lat="49.661892" lon="10.157102">
<ele>201.263</ele>
<time>2019-05-30T12:26:03Z</time>
</trkpt>
<trkpt lat="49.661942" lon="10.157055">
<ele>201.263</ele>
<time>2019-05-30T12:26:04Z</time>
</trkpt>
<trkpt lat="49.661987" lon="10.15702">
<ele>201.01</ele>
<time>2019-05-30T12:26:05Z</time>
</trkpt>
<trkpt lat="49.662037" lon="10.156976">
<ele>200.817</ele>
<time>2019-05-30T12:26:06Z</time>
</trkpt>
<trkpt lat="49.662083" lon="10.156932">
<ele>200.678</ele>
<time>2019-05-30T12:26:07Z</time>
</trkpt>
<trkpt lat="49.662132" lon="10.156888">
<ele>200.59</ele>
<time>2019-05-30T12:26:08Z</time>
</trkpt>
<trkpt lat="49.662174" lon="10.156837">
<ele>200.486</ele>
<time>2019-05-30T12:26:09Z</time>
</trkpt>
<trkpt lat="49.662224" lon="10.156794">
<ele>200.413</ele>
<time>2019-05-30T12:26:10Z</time>
</trkpt>
<trkpt lat="49.66227" lon="10.156752">
<ele>200.364</ele>
<time>2019-05-30T12:26:11Z</time>
</trkpt>
<trkpt lat="49.662319" lon="10.156708">
<ele>200.341</ele>
<time>2019-05-30T12:26:12Z</time>
</trkpt>
<trkpt lat="49.662369" lon="10.156668">
<ele>200.341</ele>
<time>2019-05-30T12:26:13Z</time>
</trkpt>
<trkpt lat="49.662422" lon="10.156624">
<ele>200.341</ele>
<time>2019-05-30T12:26:14Z</time>
</trkpt>
<trkpt lat="49.662468" lon="10.156577">
<ele>200.341</ele>
<time>2019-05-30T12:26:15Z</time>
</trkpt>
<trkpt lat="49.66251" lon="10.156519">
<ele>200.341</ele>
<time>2019-05-30T12:26:16Z</time>
</trkpt>
<trkpt lat="49.66256" lon="10.156466">
<ele>200.341</ele>
<time>2019-05-30T12:26:17Z</time>
</trkpt>
<trkpt lat="49.662598" lon="10.156415">
<ele>200.341</ele>
<time>2019-05-30T12:26:18Z</time>
</trkpt>
<trkpt lat="49.662647" lon="10.156365">
<ele>200.341</ele>
<time>2019-05-30T12:26:19Z</time>
</trkpt>
<trkpt lat="49.662697" lon="10.156316">
<ele>200.341</ele>
<time>2019-05-30T12:26:20Z</time>
</trkpt>
<trkpt lat="49.662743" lon="10.156261">
<ele>200.341</ele>
<time>2019-05-30T12:26:21Z</time>
</trkpt>
<trkpt lat="49.662788" lon="10.156207">
<ele>200.081</ele>
<time>2019-05-30T12:26:22Z</time>
</trkpt>
<trkpt lat="49.662823" lon="10.15615">
<ele>199.88</ele>
<time>2019-05-30T12:26:23Z</time>
</trkpt>
<trkpt lat="49.662861" lon="10.156088">
<ele>199.727</ele>
<time>2019-05-30T12:26:24Z</time>
</trkpt>
<trkpt lat="49.662895" lon="10.156002">
<ele>199.612</ele>
<time>2019-05-30T12:26:25Z</time>
</trkpt>
<trkpt lat="49.662922" lon="10.155932">
<ele>199.534</ele>
<time>2019-05-30T12:26:26Z</time>
</trkpt>
<trkpt lat="49.662952" lon="10.155862">
<ele>199.485</ele>
<time>2019-05-30T12:26:27Z</time>
</trkpt>
<trkpt lat="49.662983" lon="10.155798">
<ele>199.445</ele>
<time>2019-05-30T12:26:28Z</time>
</trkpt>
<trkpt lat="49.66301" lon="10.155726">
<ele>199.418</ele>
<time>2019-05-30T12:26:29Z</time>
</trkpt>
<trkpt lat="49.663033" lon="10.15565">
<ele>199.418</ele>
<time>2019-05-30T12:26:30Z</time>
</trkpt>
<trkpt lat="49.663059" lon="10.155572">
<ele>199.418</ele>
<time>2019-05-30T12:26:31Z</time>
</trkpt>
<trkpt lat="49.663082" lon="10.155495">
<ele>199.418</ele>
<time>2019-05-30T12:26:32Z</time>
</trkpt>
<trkpt lat="49.663097" lon="10.155418">
<ele>199.418</ele>
<time>2019-05-30T12:26:33Z</time>
</trkpt>
<trkpt lat="49.663113" lon="10.155338">
<ele>199.418</ele>
<time>2019-05-30T12:26:34Z</time>
</trkpt>
<trkpt lat="49.66312" lon="10.15526">
<ele>199.418</ele>
<time>2019-05-30T12:26:35Z</time>
</trkpt>
<trkpt lat="49.663136" lon="10.155183">
<ele>199.418</ele>
<time>2019-05-30T12:26:36Z</time>
</trkpt>
<trkpt lat="49.663151" lon="10.155108">
<ele>199.418</ele>
<time>2019-05-30T12:26:37Z</time>
</trkpt>
<trkpt lat="49.663162" lon="10.155038">
<ele>199.418</ele>
<time>2019-05-30T12:26:38Z</time>
</trkpt>
<trkpt lat="49.663174" lon="10.154964">
<ele>199.22</ele>
<time>2019-05-30T12:26:39Z</time>
</trkpt>
<trkpt lat="49.663185" lon="10.15489">
<ele>199.05</ele>
<time>2019-05-30T12:26:40Z</time>
</trkpt>
<trkpt lat="49.663193" lon="10.15481">
<ele>198.908</ele>
<time>2019-05-30T12:26:41Z</time>
</trkpt>
<trkpt lat="49.663204" lon="10.154728">
<ele>198.794</ele>
<time>2019-05-30T12:26:42Z</time>
</trkpt>
<trkpt lat="49.663216" lon="10.154642">
<ele>198.705</ele>
<time>2019-05-30T12:26:43Z</time>
</trkpt>
<trkpt lat="49.663227" lon="10.154555">
<ele>198.64</ele>
<time>2019-05-30T12:26:44Z</time>
</trkpt>
<trkpt lat="49.663242" lon="10.154473">
<ele>198.599</ele>
<time>2019-05-30T12:26:45Z</time>
</trkpt>
<trkpt lat="49.663246" lon="10.154393">
<ele>198.58</ele>
<time>2019-05-30T12:26:46Z</time>
</trkpt>
<trkpt lat="49.663258" lon="10.154317">
<ele>198.58</ele>
<time>2019-05-30T12:26:47Z</time>
</trkpt>
<trkpt lat="49.663265" lon="10.154242">
<ele>198.58</ele>
<time>2019-05-30T12:26:48Z</time>
</trkpt>
<trkpt lat="49.663269" lon="10.154168">
<ele>198.58</ele>
<time>2019-05-30T12:26:49Z</time>
</trkpt>
<trkpt lat="49.663273" lon="10.154097">
<ele>198.58</ele>
<time>2019-05-30T12:26:50Z</time>
</trkpt>
<trkpt lat="49.663277" lon="10.154025">
<ele>198.58</ele>
<time>2019-05-30T12:26:51Z</time>
</trkpt>
<trkpt lat="49.663277" lon="10.153947">
<ele>198.58</ele>
<time>2019-05-30T12:26:52Z</time>
</trkpt>
<trkpt lat="49.663277" lon="10.153869">
<ele>198.58</ele>
<time>2019-05-30T12:26:53Z</time>
</trkpt>
<trkpt lat="49.663273" lon="10.153787">
<ele>198.58</ele>
<time>2019-05-30T12:26:54Z</time>
</trkpt>
<trkpt lat="49.663269" lon="10.153705">
<ele>198.58</ele>
<time>2019-05-30T12:26:55Z</time>
</trkpt>
<trkpt lat="49.663261" lon="10.153628">
<ele>198.58</ele>
<time>2019-05-30T12:26:56Z</time>
</trkpt>
<trkpt lat="49.663261" lon="10.153552">
<ele>198.58</ele>
<time>2019-05-30T12:26:57Z</time>
</trkpt>
<trkpt lat="49.663261" lon="10.153475">
<ele>198.58</ele>
<time>2019-05-30T12:26:58Z</time>
</trkpt>
<trkpt lat="49.663258" lon="10.15339">
<ele>198.58</ele>
<time>2019-05-30T12:26:59Z</time>
</trkpt>
<trkpt lat="49.663258" lon="10.153307">
<ele>198.58</ele>
<time>2019-05-30T12:27:00Z</time>
</trkpt>
<trkpt lat="49.66325" lon="10.153218">
<ele>198.58</ele>
<time>2019-05-30T12:27:01Z</time>
</trkpt>
<trkpt lat="49.663246" lon="10.153123">
<ele>198.58</ele>
<time>2019-05-30T12:27:02Z</time>
</trkpt>
<trkpt lat="49.66325" lon="10.153039">
<ele>198.58</ele>
<time>2019-05-30T12:27:03Z</time>
</trkpt>
<trkpt lat="49.663254" lon="10.152955">
<ele>198.58</ele>
<time>2019-05-30T12:27:04Z</time>
</trkpt>
<trkpt lat="49.663258" lon="10.152875">
<ele>198.58</ele>
<time>2019-05-30T12:27:05Z</time>
</trkpt>
<trkpt lat="49.663261" lon="10.152788">
<ele>198.58</ele>
<time>2019-05-30T12:27:06Z</time>
</trkpt>
<trkpt lat="49.663261" lon="10.152701">
<ele>198.58</ele>
<time>2019-05-30T12:27:07Z</time>
</trkpt>
<trkpt lat="49.663265" lon="10.15262">
<ele>198.58</ele>
<time>2019-05-30T12:27:08Z</time>
</trkpt>
<trkpt lat="49.663261" lon="10.152534">
<ele>198.359</ele>
<time>2019-05-30T12:27:09Z</time>
</trkpt>
<trkpt lat="49.663265" lon="10.152452">
<ele>198.172</ele>
<time>2019-05-30T12:27:10Z</time>
</trkpt>
<trkpt lat="49.663269" lon="10.152373">
<ele>198.013</ele>
<time>2019-05-30T12:27:11Z</time>
</trkpt>
<trkpt lat="49.663277" lon="10.15229">
<ele>197.888</ele>
<time>2019-05-30T12:27:12Z</time>
</trkpt>
<trkpt lat="49.663269" lon="10.152209">
<ele>197.792</ele>
<time>2019-05-30T12:27:13Z</time>
</trkpt>
<trkpt lat="49.663277" lon="10.152132">
<ele>197.726</ele>
<time>2019-05-30T12:27:14Z</time>
</trkpt>
<trkpt lat="49.66328" lon="10.152054">
<ele>197.68</ele>
<time>2019-05-30T12:27:15Z</time>
</trkpt>
<trkpt lat="49.663284" lon="10.151968">
<ele>197.658</ele>
<time>2019-05-30T12:27:16Z</time>
</trkpt>
<trkpt lat="49.6633" lon="10.151892">
<ele>197.658</ele>
<time>2019-05-30T12:27:17Z</time>
</trkpt>
<trkpt lat="49.663311" lon="10.15181">
<ele>197.658</ele>
<time>2019-05-30T12:27:18Z</time>
</trkpt>
<trkpt lat="49.66333" lon="10.151727">
<ele>197.658</ele>
<time>2019-05-30T12:27:19Z</time>
</trkpt>
<trkpt lat="49.663345" lon="10.151649">
<ele>197.658</ele>
<time>2019-05-30T12:27:20Z</time>
</trkpt>
<trkpt lat="49.663361" lon="10.151568">
<ele>197.658</ele>
<time>2019-05-30T12:27:21Z</time>
</trkpt>
<trkpt lat="49.66338" lon="10.151491">
<ele>197.658</ele>
<time>2019-05-30T12:27:22Z</time>
</trkpt>
<trkpt lat="49.663395" lon="10.151411">
<ele>197.658</ele>
<time>2019-05-30T12:27:23Z</time>
</trkpt>
<trkpt lat="49.66341" lon="10.151328">
<ele>197.658</ele>
<time>2019-05-30T12:27:24Z</time>
</trkpt>
<trkpt lat="49.663433" lon="10.151247">
<ele>197.658</ele>
<time>2019-05-30T12:27:25Z</time>
</trkpt>
<trkpt lat="49.663452" lon="10.151166">
<ele>197.658</ele>
<time>2019-05-30T12:27:26Z</time>
</trkpt>
<trkpt lat="49.663475" lon="10.151087">
<ele>197.658</ele>
<time>2019-05-30T12:27:27Z</time>
</trkpt>
<trkpt lat="49.663498" lon="10.151011">
<ele>197.658</ele>
<time>2019-05-30T12:27:28Z</time>
</trkpt>
<trkpt lat="49.663521" lon="10.150933">
<ele>197.658</ele>
<time>2019-05-30T12:27:29Z</time>
</trkpt>
<trkpt lat="49.663544" lon="10.15086">
<ele>197.658</ele>
<time>2019-05-30T12:27:30Z</time>
</trkpt>
<trkpt lat="49.663574" lon="10.150786">
<ele>197.658</ele>
<time>2019-05-30T12:27:31Z</time>
</trkpt>
<trkpt lat="49.663605" lon="10.150715">
<ele>197.658</ele>
<time>2019-05-30T12:27:32Z</time>
</trkpt>
<trkpt lat="49.663631" lon="10.150644">
<ele>197.658</ele>
<time>2019-05-30T12:27:33Z</time>
</trkpt>
<trkpt lat="49.663662" lon="10.150575">
<ele>197.658</ele>
<time>2019-05-30T12:27:34Z</time>
</trkpt>
<trkpt lat="49.663689" lon="10.150505">
<ele>197.658</ele>
<time>2019-05-30T12:27:35Z</time>
</trkpt>
<trkpt lat="49.663719" lon="10.150436">
<ele>197.658</ele>
<time>2019-05-30T12:27:36Z</time>
</trkpt>
<trkpt lat="49.663754" lon="10.150367">
<ele>197.658</ele>
<time>2019-05-30T12:27:37Z</time>
</trkpt>
<trkpt lat="49.663784" lon="10.150298">
<ele>197.658</ele>
<time>2019-05-30T12:27:38Z</time>
</trkpt>
<trkpt lat="49.663818" lon="10.150227">
<ele>197.658</ele>
<time>2019-05-30T12:27:39Z</time>
</trkpt>
<trkpt lat="49.663853" lon="10.15016">
<ele>197.658</ele>
<time>2019-05-30T12:27:40Z</time>
</trkpt>
<trkpt lat="49.663887" lon="10.150093">
<ele>197.658</ele>
<time>2019-05-30T12:27:41Z</time>
</trkpt>
<trkpt lat="49.663925" lon="10.150028">
<ele>197.658</ele>
<time>2019-05-30T12:27:42Z</time>
</trkpt>
<trkpt lat="49.66396" lon="10.14996">
<ele>197.658</ele>
<time>2019-05-30T12:27:43Z</time>
</trkpt>
<trkpt lat="49.663998" lon="10.149897">
<ele>197.658</ele>
<time>2019-05-30T12:27:44Z</time>
</trkpt>
<trkpt lat="49.664032" lon="10.149837">
<ele>197.658</ele>
<time>2019-05-30T12:27:45Z</time>
</trkpt>
<trkpt lat="49.66407" lon="10.149778">
<ele>197.658</ele>
<time>2019-05-30T12:27:46Z</time>
</trkpt>
<trkpt lat="49.664112" lon="10.14972">
<ele>197.658</ele>
<time>2019-05-30T12:27:47Z</time>
</trkpt>
<trkpt lat="49.66415" lon="10.14966">
<ele>197.658</ele>
<time>2019-05-30T12:27:48Z</time>
</trkpt>
<trkpt lat="49.664192" lon="10.1496">
<ele>197.658</ele>
<time>2019-05-30T12:27:49Z</time>
</trkpt>
<trkpt lat="49.664234" lon="10.149545">
<ele>197.658</ele>
<time>2019-05-30T12:27:50Z</time>
</trkpt>
<trkpt lat="49.66428" lon="10.149492">
<ele>197.658</ele>
<time>2019-05-30T12:27:51Z</time>
</trkpt>
<trkpt lat="49.664322" lon="10.149442">
<ele>197.658</ele>
<time>2019-05-30T12:27:52Z</time>
</trkpt>
<trkpt lat="49.664371" lon="10.149389">
<ele>197.658</ele>
<time>2019-05-30T12:27:53Z</time>
</trkpt>
<trkpt lat="49.664417" lon="10.14934">
<ele>197.658</ele>
<time>2019-05-30T12:27:54Z</time>
</trkpt>
<trkpt lat="49.664459" lon="10.149288">
<ele>197.658</ele>
<time>2019-05-30T12:27:55Z</time>
</trkpt>
<trkpt lat="49.664505" lon="10.149235">
<ele>197.658</ele>
<time>2019-05-30T12:27:56Z</time>
</trkpt>
<trkpt lat="49.664551" lon="10.149184">
<ele>197.658</ele>
<time>2019-05-30T12:27:57Z</time>
</trkpt>
<trkpt lat="49.664593" lon="10.149134">
<ele>197.658</ele>
<time>2019-05-30T12:27:58Z</time>
</trkpt>
<trkpt lat="49.664639" lon="10.149074">
<ele>197.658</ele>
<time>2019-05-30T12:27:59Z</time>
</trkpt>
<trkpt lat="49.66468" lon="10.149023">
<ele>197.658</ele>
<time>2019-05-30T12:28:00Z</time>
</trkpt>
<trkpt lat="49.664722" lon="10.148973">
<ele>197.658</ele>
<time>2019-05-30T12:28:01Z</time>
</trkpt>
<trkpt lat="49.664772" lon="10.148922">
<ele>197.658</ele>
<time>2019-05-30T12:28:02Z</time>
</trkpt>
<trkpt lat="49.664814" lon="10.148868">
<ele>197.658</ele>
<time>2019-05-30T12:28:03Z</time>
</trkpt>
<trkpt lat="49.664864" lon="10.148817">
<ele>197.658</ele>
<time>2019-05-30T12:28:04Z</time>
</trkpt>
<trkpt lat="49.664909" lon="10.148765">
<ele>197.658</ele>
<time>2019-05-30T12:28:05Z</time>
</trkpt>
<trkpt lat="49.664951" lon="10.148713">
<ele>197.658</ele>
<time>2019-05-30T12:28:06Z</time>
</trkpt>
<trkpt lat="49.665001" lon="10.148664">
<ele>197.658</ele>
<time>2019-05-30T12:28:07Z</time>
</trkpt>
<trkpt lat="49.665047" lon="10.148615">
<ele>197.658</ele>
<time>2019-05-30T12:28:08Z</time>
</trkpt>
<trkpt lat="49.665092" lon="10.148568">
<ele>197.658</ele>
<time>2019-05-30T12:28:09Z</time>
</trkpt>
<trkpt lat="49.665138" lon="10.148524">
<ele>197.658</ele>
<time>2019-05-30T12:28:10Z</time>
</trkpt>
<trkpt lat="49.665184" lon="10.148482">
<ele>197.658</ele>
<time>2019-05-30T12:28:11Z</time>
</trkpt>
<trkpt lat="49.665234" lon="10.148447">
<ele>197.658</ele>
<time>2019-05-30T12:28:12Z</time>
</trkpt>
<trkpt lat="49.665279" lon="10.148409">
<ele>197.658</ele>
<time>2019-05-30T12:28:13Z</time>
</trkpt>
<trkpt lat="49.665325" lon="10.148374">
<ele>197.658</ele>
<time>2019-05-30T12:28:14Z</time>
</trkpt>
<trkpt lat="49.665367" lon="10.14834">
<ele>197.658</ele>
<time>2019-05-30T12:28:15Z</time>
</trkpt>
<trkpt lat="49.665405" lon="10.148302">
<ele>197.658</ele>
<time>2019-05-30T12:28:16Z</time>
</trkpt>
<trkpt lat="49.665443" lon="10.148258">
<ele>197.658</ele>
<time>2019-05-30T12:28:17Z</time>
</trkpt>
<trkpt lat="49.665489" lon="10.148216">
<ele>197.658</ele>
<time>2019-05-30T12:28:18Z</time>
</trkpt>
<trkpt lat="49.665535" lon="10.148176">
<ele>197.658</ele>
<time>2019-05-30T12:28:19Z</time>
</trkpt>
<trkpt lat="49.665581" lon="10.148132">
<ele>197.356</ele>
<time>2019-05-30T12:28:20Z</time>
</trkpt>
<trkpt lat="49.665627" lon="10.148088">
<ele>197.123</ele>
<time>2019-05-30T12:28:21Z</time>
</trkpt>
<trkpt lat="49.665668" lon="10.148045">
<ele>196.944</ele>
<time>2019-05-30T12:28:22Z</time>
</trkpt>
<trkpt lat="49.66571" lon="10.148002">
<ele>196.815</ele>
<time>2019-05-30T12:28:23Z</time>
</trkpt>
<trkpt lat="49.665756" lon="10.147957">
<ele>196.73</ele>
<time>2019-05-30T12:28:24Z</time>
</trkpt>
<trkpt lat="49.665798" lon="10.147908">
<ele>196.679</ele>
<time>2019-05-30T12:28:25Z</time>
</trkpt>
<trkpt lat="49.665844" lon="10.14786">
<ele>196.656</ele>
<time>2019-05-30T12:28:26Z</time>
</trkpt>
<trkpt lat="49.66589" lon="10.14781">
<ele>196.652</ele>
<time>2019-05-30T12:28:27Z</time>
</trkpt>
<trkpt lat="49.665936" lon="10.147763">
<ele>196.652</ele>
<time>2019-05-30T12:28:28Z</time>
</trkpt>
<trkpt lat="49.665985" lon="10.147717">
<ele>196.652</ele>
<time>2019-05-30T12:28:29Z</time>
</trkpt>
<trkpt lat="49.666031" lon="10.147672">
<ele>196.652</ele>
<time>2019-05-30T12:28:30Z</time>
</trkpt>
<trkpt lat="49.666077" lon="10.147621">
<ele>196.331</ele>
<time>2019-05-30T12:28:31Z</time>
</trkpt>
<trkpt lat="49.666122" lon="10.147569">
<ele>196.087</ele>
<time>2019-05-30T12:28:32Z</time>
</trkpt>
<trkpt lat="49.666172" lon="10.147509">
<ele>195.94</ele>
<time>2019-05-30T12:28:33Z</time>
</trkpt>
<trkpt lat="49.666214" lon="10.147443">
<ele>195.496</ele>
<time>2019-05-30T12:28:34Z</time>
</trkpt>
<trkpt lat="49.666248" lon="10.147359">
<ele>195.205</ele>
<time>2019-05-30T12:28:35Z</time>
</trkpt>
<trkpt lat="49.666286" lon="10.147271">
<ele>194.671</ele>
<time>2019-05-30T12:28:36Z</time>
</trkpt>
<trkpt lat="49.666321" lon="10.147185">
<ele>194.272</ele>
<time>2019-05-30T12:28:37Z</time>
</trkpt>
<trkpt lat="49.666359" lon="10.147097">
<ele>193.993</ele>
<time>2019-05-30T12:28:38Z</time>
</trkpt>
<trkpt lat="49.666397" lon="10.147001">
<ele>193.512</ele>
<time>2019-05-30T12:28:39Z</time>
</trkpt>
<trkpt lat="49.666439" lon="10.146909">
<ele>193.144</ele>
<time>2019-05-30T12:28:40Z</time>
</trkpt>
<trkpt lat="49.666477" lon="10.146823">
<ele>192.881</ele>
<time>2019-05-30T12:28:41Z</time>
</trkpt>
<trkpt lat="49.666527" lon="10.146745">
<ele>192.736</ele>
<time>2019-05-30T12:28:42Z</time>
</trkpt>
<trkpt lat="49.666576" lon="10.146674">
<ele>192.361</ele>
<time>2019-05-30T12:28:43Z</time>
</trkpt>
<trkpt lat="49.666615" lon="10.146613">
<ele>192.084</ele>
<time>2019-05-30T12:28:44Z</time>
</trkpt>
<trkpt lat="49.66666" lon="10.146553">
<ele>191.87</ele>
<time>2019-05-30T12:28:45Z</time>
</trkpt>
<trkpt lat="49.666702" lon="10.146502">
<ele>191.717</ele>
<time>2019-05-30T12:28:46Z</time>
</trkpt>
<trkpt lat="49.666744" lon="10.146452">
<ele>191.614</ele>
<time>2019-05-30T12:28:47Z</time>
</trkpt>
<trkpt lat="49.666782" lon="10.146403">
<ele>191.547</ele>
<time>2019-05-30T12:28:48Z</time>
</trkpt>
<trkpt lat="49.666821" lon="10.146356">
<ele>191.486</ele>
<time>2019-05-30T12:28:49Z</time>
</trkpt>
<trkpt lat="49.666855" lon="10.14631">
<ele>191.456</ele>
<time>2019-05-30T12:28:50Z</time>
</trkpt>
<trkpt lat="49.666889" lon="10.146259">
<ele>191.456</ele>
<time>2019-05-30T12:28:51Z</time>
</trkpt>
<trkpt lat="49.666931" lon="10.146203">
<ele>191.456</ele>
<time>2019-05-30T12:28:52Z</time>
</trkpt>
<trkpt lat="49.666965" lon="10.146145">
<ele>191.166</ele>
<time>2019-05-30T12:28:53Z</time>
</trkpt>
<trkpt lat="49.667004" lon="10.146087">
<ele>190.928</ele>
<time>2019-05-30T12:28:54Z</time>
</trkpt>
<trkpt lat="49.667042" lon="10.146031">
<ele>190.748</ele>
<time>2019-05-30T12:28:55Z</time>
</trkpt>
<trkpt lat="49.667072" lon="10.145978">
<ele>190.61</ele>
<time>2019-05-30T12:28:56Z</time>
</trkpt>
<trkpt lat="49.667099" lon="10.14593">
<ele>190.519</ele>
<time>2019-05-30T12:28:57Z</time>
</trkpt>
<trkpt lat="49.667133" lon="10.145884">
<ele>190.451</ele>
<time>2019-05-30T12:28:58Z</time>
</trkpt>
<trkpt lat="49.66716" lon="10.145832">
<ele>190.396</ele>
<time>2019-05-30T12:28:59Z</time>
</trkpt>
<trkpt lat="49.667191" lon="10.145788">
<ele>190.367</ele>
<time>2019-05-30T12:29:00Z</time>
</trkpt>
<trkpt lat="49.667213" lon="10.145752">
<ele>190.367</ele>
<time>2019-05-30T12:29:01Z</time>
</trkpt>
<trkpt lat="49.667229" lon="10.145715">
<ele>190.367</ele>
<time>2019-05-30T12:29:02Z</time>
</trkpt>
<trkpt lat="49.667248" lon="10.145677">
<ele>190.367</ele>
<time>2019-05-30T12:29:03Z</time>
</trkpt>
<trkpt lat="49.667267" lon="10.145639">
<ele>190.367</ele>
<time>2019-05-30T12:29:04Z</time>
</trkpt>
<trkpt lat="49.66729" lon="10.145603">
<ele>190.367</ele>
<time>2019-05-30T12:29:05Z</time>
</trkpt>
<trkpt lat="49.667313" lon="10.145559">
<ele>190.367</ele>
<time>2019-05-30T12:29:06Z</time>
</trkpt>
<trkpt lat="49.667332" lon="10.145518">
<ele>190.367</ele>
<time>2019-05-30T12:29:07Z</time>
</trkpt>
<trkpt lat="49.667355" lon="10.145478">
<ele>190.367</ele>
<time>2019-05-30T12:29:08Z</time>
</trkpt>
<trkpt lat="49.667374" lon="10.145433">
<ele>190.367</ele>
<time>2019-05-30T12:29:09Z</time>
</trkpt>
<trkpt lat="49.667397" lon="10.145384">
<ele>190.367</ele>
<time>2019-05-30T12:29:10Z</time>
</trkpt>
<trkpt lat="49.667423" lon="10.145335">
<ele>190.367</ele>
<time>2019-05-30T12:29:11Z</time>
</trkpt>
<trkpt lat="49.66745" lon="10.145283">
<ele>190.367</ele>
<time>2019-05-30T12:29:12Z</time>
</trkpt>
<trkpt lat="49.66748" lon="10.145233">
<ele>190.367</ele>
<time>2019-05-30T12:29:13Z</time>
</trkpt>
<trkpt lat="49.667507" lon="10.14518">
<ele>190.367</ele>
<time>2019-05-30T12:29:14Z</time>
</trkpt>
<trkpt lat="49.667538" lon="10.145132">
<ele>190.367</ele>
<time>2019-05-30T12:29:15Z</time>
</trkpt>
<trkpt lat="49.667561" lon="10.145083">
<ele>190.367</ele>
<time>2019-05-30T12:29:16Z</time>
</trkpt>
<trkpt lat="49.667587" lon="10.145037">
<ele>190.367</ele>
<time>2019-05-30T12:29:17Z</time>
</trkpt>
<trkpt lat="49.667618" lon="10.144994">
<ele>190.367</ele>
<time>2019-05-30T12:29:18Z</time>
</trkpt>
<trkpt lat="49.667645" lon="10.14495">
<ele>190.367</ele>
<time>2019-05-30T12:29:19Z</time>
</trkpt>
<trkpt lat="49.667671" lon="10.144908">
<ele>190.367</ele>
<time>2019-05-30T12:29:20Z</time>
</trkpt>
<trkpt lat="49.667698" lon="10.144865">
<ele>190.367</ele>
<time>2019-05-30T12:29:21Z</time>
</trkpt>
<trkpt lat="49.667713" lon="10.14481">
<ele>190.367</ele>
<time>2019-05-30T12:29:22Z</time>
</trkpt>
<trkpt lat="49.667736" lon="10.144768">
<ele>190.59</ele>
<time>2019-05-30T12:29:23Z</time>
</trkpt>
<trkpt lat="49.667759" lon="10.144738">
<ele>190.765</ele>
<time>2019-05-30T12:29:24Z</time>
</trkpt>
<trkpt lat="49.667778" lon="10.144698">
<ele>190.898</ele>
<time>2019-05-30T12:29:25Z</time>
</trkpt>
<trkpt lat="49.667793" lon="10.144663">
<ele>191</ele>
<time>2019-05-30T12:29:26Z</time>
</trkpt>
<trkpt lat="49.667809" lon="10.144635">
<ele>191.074</ele>
<time>2019-05-30T12:29:27Z</time>
</trkpt>
<trkpt lat="49.66782" lon="10.144612">
<ele>191.13</ele>
<time>2019-05-30T12:29:28Z</time>
</trkpt>
<trkpt lat="49.667831" lon="10.144591">
<ele>191.374</ele>
<time>2019-05-30T12:29:29Z</time>
</trkpt>
<trkpt lat="49.667843" lon="10.144573">
<ele>191.57</ele>
<time>2019-05-30T12:29:30Z</time>
</trkpt>
<trkpt lat="49.667854" lon="10.144553">
<ele>191.723</ele>
<time>2019-05-30T12:29:31Z</time>
</trkpt>
<trkpt lat="49.667858" lon="10.144531">
<ele>191.851</ele>
<time>2019-05-30T12:29:32Z</time>
</trkpt>
<trkpt lat="49.667854" lon="10.144508">
<ele>191.953</ele>
<time>2019-05-30T12:29:33Z</time>
</trkpt>
<trkpt lat="49.667847" lon="10.144477">
<ele>192.042</ele>
<time>2019-05-30T12:29:34Z</time>
</trkpt>
<trkpt lat="49.667839" lon="10.144462">
<ele>192.099</ele>
<time>2019-05-30T12:29:35Z</time>
</trkpt>
<trkpt lat="49.667831" lon="10.144455">
<ele>192.127</ele>
<time>2019-05-30T12:29:36Z</time>
</trkpt>
<trkpt lat="49.667828" lon="10.144449">
<ele>192.127</ele>
<time>2019-05-30T12:29:37Z</time>
</trkpt>
<trkpt lat="49.667824" lon="10.144444">
<ele>192.127</ele>
<time>2019-05-30T12:29:38Z</time>
</trkpt>
<trkpt lat="49.667824" lon="10.144435">
<ele>192.127</ele>
<time>2019-05-30T12:29:39Z</time>
</trkpt>
<trkpt lat="49.667824" lon="10.144465">
<ele>192.127</ele>
<time>2019-05-30T12:29:56Z</time>
</trkpt>
<trkpt lat="49.667812" lon="10.144474">
<ele>192.127</ele>
<time>2019-05-30T12:29:57Z</time>
</trkpt>
<trkpt lat="49.667809" lon="10.144483">
<ele>192.127</ele>
<time>2019-05-30T12:29:58Z</time>
</trkpt>
<trkpt lat="49.667801" lon="10.14449">
<ele>192.127</ele>
<time>2019-05-30T12:29:59Z</time>
</trkpt>
<trkpt lat="49.667797" lon="10.14449">
<ele>192.127</ele>
<time>2019-05-30T12:30:00Z</time>
</trkpt>
<trkpt lat="49.667793" lon="10.144491">
<ele>192.127</ele>
<time>2019-05-30T12:30:01Z</time>
</trkpt>
<trkpt lat="49.667789" lon="10.14449">
<ele>192.127</ele>
<time>2019-05-30T12:30:02Z</time>
</trkpt>
<trkpt lat="49.667789" lon="10.144486">
<ele>192.127</ele>
<time>2019-05-30T12:30:03Z</time>
</trkpt>
<trkpt lat="49.667793" lon="10.144515">
<ele>192.127</ele>
<time>2019-05-30T12:34:34Z</time>
</trkpt>
<trkpt lat="49.667797" lon="10.144514">
<ele>192.127</ele>
<time>2019-05-30T12:34:35Z</time>
</trkpt>
<trkpt lat="49.667801" lon="10.144514">
<ele>192.127</ele>
<time>2019-05-30T12:34:36Z</time>
</trkpt>
<trkpt lat="49.667805" lon="10.144512">
<ele>192.127</ele>
<time>2019-05-30T12:34:38Z</time>
</trkpt>
<trkpt lat="49.667812" lon="10.144516">
<ele>192.127</ele>
<time>2019-05-30T12:34:49Z</time>
</trkpt>
<trkpt lat="49.66782" lon="10.144516">
<ele>192.127</ele>
<time>2019-05-30T12:34:50Z</time>
</trkpt>
<trkpt lat="49.667828" lon="10.144515">
<ele>192.127</ele>
<time>2019-05-30T12:34:51Z</time>
</trkpt>
<trkpt lat="49.667828" lon="10.144514">
<ele>192.127</ele>
<time>2019-05-30T12:34:52Z</time>
</trkpt>
<trkpt lat="49.667828" lon="10.144512">
<ele>192.127</ele>
<time>2019-05-30T12:34:53Z</time>
</trkpt>
<trkpt lat="49.667854" lon="10.144488">
<ele>192.127</ele>
<time>2019-05-30T12:35:10Z</time>
</trkpt>
<trkpt lat="49.667858" lon="10.144486">
<ele>192.127</ele>
<time>2019-05-30T12:35:11Z</time>
</trkpt>
<trkpt lat="49.667866" lon="10.144483">
<ele>192.127</ele>
<time>2019-05-30T12:35:12Z</time>
</trkpt>
<trkpt lat="49.667873" lon="10.144483">
<ele>192.127</ele>
<time>2019-05-30T12:35:13Z</time>
</trkpt>
<trkpt lat="49.667873" lon="10.144482">
<ele>192.127</ele>
<time>2019-05-30T12:35:14Z</time>
</trkpt>
<trkpt lat="49.667873" lon="10.144477">
<ele>192.127</ele>
<time>2019-05-30T12:35:15Z</time>
</trkpt>
<trkpt lat="49.667885" lon="10.144464">
<ele>192.127</ele>
<time>2019-05-30T12:35:18Z</time>
</trkpt>
<trkpt lat="49.667896" lon="10.144453">
<ele>192.127</ele>
<time>2019-05-30T12:35:19Z</time>
</trkpt>
<trkpt lat="49.667908" lon="10.144435">
<ele>192.127</ele>
<time>2019-05-30T12:35:20Z</time>
</trkpt>
<trkpt lat="49.667919" lon="10.144411">
<ele>192.127</ele>
<time>2019-05-30T12:35:21Z</time>
</trkpt>
<trkpt lat="49.667927" lon="10.144384">
<ele>192.127</ele>
<time>2019-05-30T12:35:22Z</time>
</trkpt>
<trkpt lat="49.667942" lon="10.144357">
<ele>192.127</ele>
<time>2019-05-30T12:35:23Z</time>
</trkpt>
<trkpt lat="49.667953" lon="10.144323">
<ele>192.127</ele>
<time>2019-05-30T12:35:24Z</time>
</trkpt>
<trkpt lat="49.667973" lon="10.14429">
<ele>192.127</ele>
<time>2019-05-30T12:35:25Z</time>
</trkpt>
<trkpt lat="49.667988" lon="10.14426">
<ele>192.127</ele>
<time>2019-05-30T12:35:26Z</time>
</trkpt>
<trkpt lat="49.668007" lon="10.144229">
<ele>192.127</ele>
<time>2019-05-30T12:35:27Z</time>
</trkpt>
<trkpt lat="49.668026" lon="10.144187">
<ele>192.127</ele>
<time>2019-05-30T12:35:28Z</time>
</trkpt>
<trkpt lat="49.668041" lon="10.144154">
<ele>192.127</ele>
<time>2019-05-30T12:35:29Z</time>
</trkpt>
<trkpt lat="49.668056" lon="10.144127">
<ele>192.127</ele>
<time>2019-05-30T12:35:30Z</time>
</trkpt>
<trkpt lat="49.668072" lon="10.144107">
<ele>192.127</ele>
<time>2019-05-30T12:35:31Z</time>
</trkpt>
<trkpt lat="49.668083" lon="10.144095">
<ele>192.127</ele>
<time>2019-05-30T12:35:32Z</time>
</trkpt>
<trkpt lat="49.668095" lon="10.144089">
<ele>192.127</ele>
<time>2019-05-30T12:35:33Z</time>
</trkpt>
<trkpt lat="49.668106" lon="10.144073">
<ele>192.127</ele>
<time>2019-05-30T12:35:34Z</time>
</trkpt>
<trkpt lat="49.668114" lon="10.144049">
<ele>192.127</ele>
<time>2019-05-30T12:35:35Z</time>
</trkpt>
<trkpt lat="49.668121" lon="10.144017">
<ele>192.127</ele>
<time>2019-05-30T12:35:36Z</time>
</trkpt>
<trkpt lat="49.668106" lon="10.143967">
<ele>192.127</ele>
<time>2019-05-30T12:35:37Z</time>
</trkpt>
<trkpt lat="49.668102" lon="10.14395">
<ele>191.893</ele>
<time>2019-05-30T12:35:38Z</time>
</trkpt>
<trkpt lat="49.668095" lon="10.143949">
<ele>191.711</ele>
<time>2019-05-30T12:35:39Z</time>
</trkpt>
<trkpt lat="49.668091" lon="10.143955">
<ele>191.566</ele>
<time>2019-05-30T12:35:40Z</time>
</trkpt>
<trkpt lat="49.668087" lon="10.143952">
<ele>191.482</ele>
<time>2019-05-30T12:35:41Z</time>
</trkpt>
<trkpt lat="49.668079" lon="10.143949">
<ele>191.415</ele>
<time>2019-05-30T12:35:42Z</time>
</trkpt>
<trkpt lat="49.668079" lon="10.143945">
<ele>191.366</ele>
<time>2019-05-30T12:35:43Z</time>
</trkpt>
<trkpt lat="49.668064" lon="10.14394">
<ele>191.326</ele>
<time>2019-05-30T12:35:45Z</time>
</trkpt>
<trkpt lat="49.668053" lon="10.143938">
<ele>191.487</ele>
<time>2019-05-30T12:35:46Z</time>
</trkpt>
<trkpt lat="49.668037" lon="10.143935">
<ele>191.74</ele>
<time>2019-05-30T12:35:47Z</time>
</trkpt>
<trkpt lat="49.668026" lon="10.143942">
<ele>191.919</ele>
<time>2019-05-30T12:35:48Z</time>
</trkpt>
<trkpt lat="49.668015" lon="10.143933">
<ele>191.872</ele>
<time>2019-05-30T12:35:49Z</time>
</trkpt>
<trkpt lat="49.667995" lon="10.143938">
<ele>191.798</ele>
<time>2019-05-30T12:35:50Z</time>
</trkpt>
<trkpt lat="49.667965" lon="10.143922">
<ele>191.723</ele>
<time>2019-05-30T12:35:51Z</time>
</trkpt>
<trkpt lat="49.667912" lon="10.14392">
<ele>191.717</ele>
<time>2019-05-30T12:35:52Z</time>
</trkpt>
<trkpt lat="49.667839" lon="10.143902">
<ele>191.273</ele>
<time>2019-05-30T12:35:53Z</time>
</trkpt>
<trkpt lat="49.667786" lon="10.143873">
<ele>191.029</ele>
<time>2019-05-30T12:35:54Z</time>
</trkpt>
<trkpt lat="49.667747" lon="10.143854">
<ele>190.816</ele>
<time>2019-05-30T12:35:55Z</time>
</trkpt>
<trkpt lat="49.667709" lon="10.143838">
<ele>190.679</ele>
<time>2019-05-30T12:35:56Z</time>
</trkpt>
<trkpt lat="49.667671" lon="10.143828">
<ele>190.615</ele>
<time>2019-05-30T12:35:57Z</time>
</trkpt>
<trkpt lat="49.667648" lon="10.143812">
<ele>190.579</ele>
<time>2019-05-30T12:35:58Z</time>
</trkpt>
<trkpt lat="49.667622" lon="10.143798">
<ele>190.551</ele>
<time>2019-05-30T12:35:59Z</time>
</trkpt>
<trkpt lat="49.667618" lon="10.143781">
<ele>190.535</ele>
<time>2019-05-30T12:36:00Z</time>
</trkpt>
<trkpt lat="49.66761" lon="10.143748">
<ele>190.535</ele>
<time>2019-05-30T12:36:01Z</time>
</trkpt>
<trkpt lat="49.667606" lon="10.143739">
<ele>190.535</ele>
<time>2019-05-30T12:36:02Z</time>
</trkpt>
<trkpt lat="49.667599" lon="10.143728">
<ele>190.535</ele>
<time>2019-05-30T12:36:03Z</time>
</trkpt>
<trkpt lat="49.667599" lon="10.143718">
<ele>190.535</ele>
<time>2019-05-30T12:36:04Z</time>
</trkpt>
<trkpt lat="49.667591" lon="10.143697">
<ele>190.535</ele>
<time>2019-05-30T12:36:17Z</time>
</trkpt>
<trkpt lat="49.667587" lon="10.143682">
<ele>190.535</ele>
<time>2019-05-30T12:36:18Z</time>
</trkpt>
<trkpt lat="49.667583" lon="10.143663">
<ele>190.535</ele>
<time>2019-05-30T12:36:19Z</time>
</trkpt>
<trkpt lat="49.667568" lon="10.143645">
<ele>190.535</ele>
<time>2019-05-30T12:36:20Z</time>
</trkpt>
<trkpt lat="49.667557" lon="10.143617">
<ele>190.535</ele>
<time>2019-05-30T12:36:21Z</time>
</trkpt>
<trkpt lat="49.667545" lon="10.143583">
<ele>190.535</ele>
<time>2019-05-30T12:36:22Z</time>
</trkpt>
<trkpt lat="49.667526" lon="10.143544">
<ele>190.535</ele>
<time>2019-05-30T12:36:23Z</time>
</trkpt>
<trkpt lat="49.667503" lon="10.1435">
<ele>190.535</ele>
<time>2019-05-30T12:36:24Z</time>
</trkpt>
<trkpt lat="49.667477" lon="10.143479">
<ele>190.535</ele>
<time>2019-05-30T12:36:25Z</time>
</trkpt>
<trkpt lat="49.667461" lon="10.143458">
<ele>190.535</ele>
<time>2019-05-30T12:36:26Z</time>
</trkpt>
<trkpt lat="49.667446" lon="10.143414">
<ele>190.307</ele>
<time>2019-05-30T12:36:27Z</time>
</trkpt>
<trkpt lat="49.667435" lon="10.143364">
<ele>190.136</ele>
<time>2019-05-30T12:36:28Z</time>
</trkpt>
<trkpt lat="49.667412" lon="10.1433">
<ele>190.101</ele>
<time>2019-05-30T12:36:29Z</time>
</trkpt>
<trkpt lat="49.667389" lon="10.143238">
<ele>190.21</ele>
<time>2019-05-30T12:36:30Z</time>
</trkpt>
<trkpt lat="49.667355" lon="10.143177">
<ele>190.287</ele>
<time>2019-05-30T12:36:31Z</time>
</trkpt>
<trkpt lat="49.667332" lon="10.143113">
<ele>190.353</ele>
<time>2019-05-30T12:36:32Z</time>
</trkpt>
<trkpt lat="49.667309" lon="10.143052">
<ele>190.412</ele>
<time>2019-05-30T12:36:33Z</time>
</trkpt>
<trkpt lat="49.667297" lon="10.142979">
<ele>190.459</ele>
<time>2019-05-30T12:36:34Z</time>
</trkpt>
<trkpt lat="49.66729" lon="10.142918">
<ele>190.487</ele>
<time>2019-05-30T12:36:35Z</time>
</trkpt>
<trkpt lat="49.667278" lon="10.142855">
<ele>190.516</ele>
<time>2019-05-30T12:36:36Z</time>
</trkpt>
<trkpt lat="49.667259" lon="10.142802">
<ele>190.535</ele>
<time>2019-05-30T12:36:37Z</time>
</trkpt>
<trkpt lat="49.667244" lon="10.142748">
<ele>190.535</ele>
<time>2019-05-30T12:36:38Z</time>
</trkpt>
<trkpt lat="49.667236" lon="10.142698">
<ele>190.535</ele>
<time>2019-05-30T12:36:39Z</time>
</trkpt>
<trkpt lat="49.667225" lon="10.142638">
<ele>190.535</ele>
<time>2019-05-30T12:36:40Z</time>
</trkpt>
<trkpt lat="49.667217" lon="10.14258">
<ele>190.776</ele>
<time>2019-05-30T12:36:41Z</time>
</trkpt>
<trkpt lat="49.667198" lon="10.142513">
<ele>190.971</ele>
<time>2019-05-30T12:36:42Z</time>
</trkpt>
<trkpt lat="49.667175" lon="10.142452">
<ele>191.131</ele>
<time>2019-05-30T12:36:43Z</time>
</trkpt>
<trkpt lat="49.667171" lon="10.142379">
<ele>191.248</ele>
<time>2019-05-30T12:36:44Z</time>
</trkpt>
<trkpt lat="49.667171" lon="10.14231">
<ele>191.33</ele>
<time>2019-05-30T12:36:45Z</time>
</trkpt>
<trkpt lat="49.667168" lon="10.142243">
<ele>191.386</ele>
<time>2019-05-30T12:36:46Z</time>
</trkpt>
<trkpt lat="49.667171" lon="10.142192">
<ele>191.436</ele>
<time>2019-05-30T12:36:47Z</time>
</trkpt>
<trkpt lat="49.667171" lon="10.142126">
<ele>191.658</ele>
<time>2019-05-30T12:36:48Z</time>
</trkpt>
<trkpt lat="49.667168" lon="10.142065">
<ele>191.892</ele>
<time>2019-05-30T12:36:49Z</time>
</trkpt>
<trkpt lat="49.667164" lon="10.142009">
<ele>192.03</ele>
<time>2019-05-30T12:36:50Z</time>
</trkpt>
<trkpt lat="49.66716" lon="10.141952">
<ele>192.138</ele>
<time>2019-05-30T12:36:51Z</time>
</trkpt>
<trkpt lat="49.667152" lon="10.141898">
<ele>192.205</ele>
<time>2019-05-30T12:36:52Z</time>
</trkpt>
<trkpt lat="49.667145" lon="10.141849">
<ele>192.49</ele>
<time>2019-05-30T12:36:53Z</time>
</trkpt>
<trkpt lat="49.667145" lon="10.141799">
<ele>192.699</ele>
<time>2019-05-30T12:36:54Z</time>
</trkpt>
<trkpt lat="49.667126" lon="10.141755">
<ele>192.853</ele>
<time>2019-05-30T12:36:55Z</time>
</trkpt>
<trkpt lat="49.667118" lon="10.14171">
<ele>192.946</ele>
<time>2019-05-30T12:36:56Z</time>
</trkpt>
<trkpt lat="49.66711" lon="10.141666">
<ele>193.056</ele>
<time>2019-05-30T12:36:57Z</time>
</trkpt>
<trkpt lat="49.667118" lon="10.141631">
<ele>193.138</ele>
<time>2019-05-30T12:36:58Z</time>
</trkpt>
<trkpt lat="49.667137" lon="10.141603">
<ele>193.189</ele>
<time>2019-05-30T12:36:59Z</time>
</trkpt>
<trkpt lat="49.667168" lon="10.141585">
<ele>193.216</ele>
<time>2019-05-30T12:37:00Z</time>
</trkpt>
<trkpt lat="49.667202" lon="10.141566">
<ele>193.216</ele>
<time>2019-05-30T12:37:01Z</time>
</trkpt>
<trkpt lat="49.66724" lon="10.141557">
<ele>193.216</ele>
<time>2019-05-30T12:37:02Z</time>
</trkpt>
<trkpt lat="49.667274" lon="10.141537">
<ele>193.216</ele>
<time>2019-05-30T12:37:03Z</time>
</trkpt>
<trkpt lat="49.667305" lon="10.141517">
<ele>192.992</ele>
<time>2019-05-30T12:37:04Z</time>
</trkpt>
<trkpt lat="49.667343" lon="10.141497">
<ele>192.817</ele>
<time>2019-05-30T12:37:05Z</time>
</trkpt>
<trkpt lat="49.667374" lon="10.141483">
<ele>192.702</ele>
<time>2019-05-30T12:37:06Z</time>
</trkpt>
<trkpt lat="49.667408" lon="10.141425">
<ele>192.589</ele>
<time>2019-05-30T12:37:07Z</time>
</trkpt>
<trkpt lat="49.667454" lon="10.1414">
<ele>192.503</ele>
<time>2019-05-30T12:37:08Z</time>
</trkpt>
<trkpt lat="49.667503" lon="10.141385">
<ele>192.44</ele>
<time>2019-05-30T12:37:09Z</time>
</trkpt>
<trkpt lat="49.667549" lon="10.141383">
<ele>192.397</ele>
<time>2019-05-30T12:37:10Z</time>
</trkpt>
<trkpt lat="49.667591" lon="10.141385">
<ele>192.378</ele>
<time>2019-05-30T12:37:11Z</time>
</trkpt>
<trkpt lat="49.667633" lon="10.141388">
<ele>192.126</ele>
<time>2019-05-30T12:37:12Z</time>
</trkpt>
<trkpt lat="49.667664" lon="10.141392">
<ele>191.941</ele>
<time>2019-05-30T12:37:13Z</time>
</trkpt>
<trkpt lat="49.667686" lon="10.141392">
<ele>191.808</ele>
<time>2019-05-30T12:37:14Z</time>
</trkpt>
<trkpt lat="49.667709" lon="10.141393">
<ele>191.711</ele>
<time>2019-05-30T12:37:15Z</time>
</trkpt>
<trkpt lat="49.667721" lon="10.141401">
<ele>191.627</ele>
<time>2019-05-30T12:37:16Z</time>
</trkpt>
<trkpt lat="49.667736" lon="10.141418">
<ele>191.547</ele>
<time>2019-05-30T12:37:17Z</time>
</trkpt>
<trkpt lat="49.667751" lon="10.141437">
<ele>191.488</ele>
<time>2019-05-30T12:37:18Z</time>
</trkpt>
<trkpt lat="49.667767" lon="10.141459">
<ele>191.456</ele>
<time>2019-05-30T12:37:19Z</time>
</trkpt>
<trkpt lat="49.667778" lon="10.141485">
<ele>191.456</ele>
<time>2019-05-30T12:37:20Z</time>
</trkpt>
<trkpt lat="49.667789" lon="10.141512">
<ele>191.456</ele>
<time>2019-05-30T12:37:21Z</time>
</trkpt>
<trkpt lat="49.667805" lon="10.141533">
<ele>191.456</ele>
<time>2019-05-30T12:37:22Z</time>
</trkpt>
<trkpt lat="49.66782" lon="10.14155">
<ele>191.456</ele>
<time>2019-05-30T12:37:23Z</time>
</trkpt>
<trkpt lat="49.667835" lon="10.141556">
<ele>191.456</ele>
<time>2019-05-30T12:37:24Z</time>
</trkpt>
<trkpt lat="49.667847" lon="10.141552">
<ele>191.456</ele>
<time>2019-05-30T12:37:25Z</time>
</trkpt>
<trkpt lat="49.667862" lon="10.14155">
<ele>191.456</ele>
<time>2019-05-30T12:37:26Z</time>
</trkpt>
<trkpt lat="49.667877" lon="10.141545">
<ele>191.456</ele>
<time>2019-05-30T12:37:27Z</time>
</trkpt>
<trkpt lat="49.667889" lon="10.14154">
<ele>191.456</ele>
<time>2019-05-30T12:37:28Z</time>
</trkpt>
<trkpt lat="49.6679" lon="10.14154">
<ele>191.456</ele>
<time>2019-05-30T12:37:29Z</time>
</trkpt>
<trkpt lat="49.667912" lon="10.14154">
<ele>191.456</ele>
<time>2019-05-30T12:37:30Z</time>
</trkpt>
<trkpt lat="49.667923" lon="10.14154">
<ele>191.456</ele>
<time>2019-05-30T12:37:31Z</time>
</trkpt>
<trkpt lat="49.667938" lon="10.141547">
<ele>191.456</ele>
<time>2019-05-30T12:37:32Z</time>
</trkpt>
<trkpt lat="49.66795" lon="10.141558">
<ele>191.456</ele>
<time>2019-05-30T12:37:33Z</time>
</trkpt>
<trkpt lat="49.667961" lon="10.141575">
<ele>191.456</ele>
<time>2019-05-30T12:37:34Z</time>
</trkpt>
<trkpt lat="49.667969" lon="10.141588">
<ele>191.456</ele>
<time>2019-05-30T12:37:35Z</time>
</trkpt>
<trkpt lat="49.667976" lon="10.141595">
<ele>191.456</ele>
<time>2019-05-30T12:37:36Z</time>
</trkpt>
<trkpt lat="49.66798" lon="10.14161">
<ele>191.456</ele>
<time>2019-05-30T12:37:37Z</time>
</trkpt>
<trkpt lat="49.66798" lon="10.141638">
<ele>191.456</ele>
<time>2019-05-30T12:37:38Z</time>
</trkpt>
<trkpt lat="49.667988" lon="10.141665">
<ele>191.456</ele>
<time>2019-05-30T12:37:39Z</time>
</trkpt>
<trkpt lat="49.668007" lon="10.141686">
<ele>191.456</ele>
<time>2019-05-30T12:37:40Z</time>
</trkpt>
<trkpt lat="49.668045" lon="10.141702">
<ele>191.456</ele>
<time>2019-05-30T12:37:41Z</time>
</trkpt>
<trkpt lat="49.668079" lon="10.1417">
<ele>191.106</ele>
<time>2019-05-30T12:37:42Z</time>
</trkpt>
<trkpt lat="49.668114" lon="10.14167">
<ele>190.856</ele>
<time>2019-05-30T12:37:43Z</time>
</trkpt>
<trkpt lat="49.668156" lon="10.141637">
<ele>190.707</ele>
<time>2019-05-30T12:37:44Z</time>
</trkpt>
<trkpt lat="49.668201" lon="10.141602">
<ele>190.611</ele>
<time>2019-05-30T12:37:45Z</time>
</trkpt>
<trkpt lat="49.668247" lon="10.141572">
<ele>190.566</ele>
<time>2019-05-30T12:37:46Z</time>
</trkpt>
<trkpt lat="49.668297" lon="10.141547">
<ele>190.504</ele>
<time>2019-05-30T12:37:47Z</time>
</trkpt>
<trkpt lat="49.668343" lon="10.141523">
<ele>190.219</ele>
<time>2019-05-30T12:37:48Z</time>
</trkpt>
<trkpt lat="49.668396" lon="10.141491">
<ele>190.013</ele>
<time>2019-05-30T12:37:49Z</time>
</trkpt>
<trkpt lat="49.668434" lon="10.141445">
<ele>189.775</ele>
<time>2019-05-30T12:37:50Z</time>
</trkpt>
<trkpt lat="49.668465" lon="10.141388">
<ele>189.669</ele>
<time>2019-05-30T12:37:51Z</time>
</trkpt>
<trkpt lat="49.668484" lon="10.141321">
<ele>189.6</ele>
<time>2019-05-30T12:37:52Z</time>
</trkpt>
<trkpt lat="49.668484" lon="10.141253">
<ele>189.557</ele>
<time>2019-05-30T12:37:53Z</time>
</trkpt>
<trkpt lat="49.668472" lon="10.14119">
<ele>189.529</ele>
<time>2019-05-30T12:37:54Z</time>
</trkpt>
<trkpt lat="49.668457" lon="10.141129">
<ele>189.53</ele>
<time>2019-05-30T12:37:55Z</time>
</trkpt>
<trkpt lat="49.668434" lon="10.141067">
<ele>189.53</ele>
<time>2019-05-30T12:37:56Z</time>
</trkpt>
<trkpt lat="49.668415" lon="10.141001">
<ele>189.529</ele>
<time>2019-05-30T12:37:57Z</time>
</trkpt>
<trkpt lat="49.6684" lon="10.14093">
<ele>189.53</ele>
<time>2019-05-30T12:37:58Z</time>
</trkpt>
<trkpt lat="49.668381" lon="10.140859">
<ele>189.529</ele>
<time>2019-05-30T12:37:59Z</time>
</trkpt>
<trkpt lat="49.668365" lon="10.140787">
<ele>189.53</ele>
<time>2019-05-30T12:38:00Z</time>
</trkpt>
<trkpt lat="49.668346" lon="10.140718">
<ele>189.529</ele>
<time>2019-05-30T12:38:01Z</time>
</trkpt>
<trkpt lat="49.668331" lon="10.140649">
<ele>189.529</ele>
<time>2019-05-30T12:38:02Z</time>
</trkpt>
<trkpt lat="49.668312" lon="10.14058">
<ele>189.53</ele>
<time>2019-05-30T12:38:03Z</time>
</trkpt>
<trkpt lat="49.668297" lon="10.140511">
<ele>189.53</ele>
<time>2019-05-30T12:38:04Z</time>
</trkpt>
<trkpt lat="49.668278" lon="10.140439">
<ele>189.53</ele>
<time>2019-05-30T12:38:05Z</time>
</trkpt>
<trkpt lat="49.668262" lon="10.140368">
<ele>189.529</ele>
<time>2019-05-30T12:38:06Z</time>
</trkpt>
<trkpt lat="49.668243" lon="10.140299">
<ele>189.529</ele>
<time>2019-05-30T12:38:07Z</time>
</trkpt>
<trkpt lat="49.668224" lon="10.14023">
<ele>189.53</ele>
<time>2019-05-30T12:38:08Z</time>
</trkpt>
<trkpt lat="49.668201" lon="10.140159">
<ele>189.529</ele>
<time>2019-05-30T12:38:09Z</time>
</trkpt>
<trkpt lat="49.668186" lon="10.140081">
<ele>189.53</ele>
<time>2019-05-30T12:38:10Z</time>
</trkpt>
<trkpt lat="49.668163" lon="10.139999">
<ele>189.53</ele>
<time>2019-05-30T12:38:11Z</time>
</trkpt>
<trkpt lat="49.66814" lon="10.139921">
<ele>189.53</ele>
<time>2019-05-30T12:38:12Z</time>
</trkpt>
<trkpt lat="49.668121" lon="10.139844">
<ele>189.529</ele>
<time>2019-05-30T12:38:13Z</time>
</trkpt>
<trkpt lat="49.668098" lon="10.139773">
<ele>189.529</ele>
<time>2019-05-30T12:38:14Z</time>
</trkpt>
<trkpt lat="49.668076" lon="10.139706">
<ele>189.53</ele>
<time>2019-05-30T12:38:15Z</time>
</trkpt>
<trkpt lat="49.668056" lon="10.13963">
<ele>189.529</ele>
<time>2019-05-30T12:38:16Z</time>
</trkpt>
<trkpt lat="49.668041" lon="10.139551">
<ele>189.53</ele>
<time>2019-05-30T12:38:17Z</time>
</trkpt>
<trkpt lat="49.668018" lon="10.139473">
<ele>189.53</ele>
<time>2019-05-30T12:38:18Z</time>
</trkpt>
<trkpt lat="49.667999" lon="10.139396">
<ele>189.53</ele>
<time>2019-05-30T12:38:19Z</time>
</trkpt>
<trkpt lat="49.66798" lon="10.139317">
<ele>189.53</ele>
<time>2019-05-30T12:38:20Z</time>
</trkpt>
<trkpt lat="49.667957" lon="10.139241">
<ele>189.529</ele>
<time>2019-05-30T12:38:21Z</time>
</trkpt>
<trkpt lat="49.667938" lon="10.139163">
<ele>189.529</ele>
<time>2019-05-30T12:38:22Z</time>
</trkpt>
<trkpt lat="49.667915" lon="10.139084">
<ele>189.529</ele>
<time>2019-05-30T12:38:23Z</time>
</trkpt>
<trkpt lat="49.667896" lon="10.139004">
<ele>189.529</ele>
<time>2019-05-30T12:38:24Z</time>
</trkpt>
<trkpt lat="49.667877" lon="10.138922">
<ele>189.529</ele>
<time>2019-05-30T12:38:25Z</time>
</trkpt>
<trkpt lat="49.66785" lon="10.138843">
<ele>189.529</ele>
<time>2019-05-30T12:38:26Z</time>
</trkpt>
<trkpt lat="49.667824" lon="10.138763">
<ele>189.529</ele>
<time>2019-05-30T12:38:27Z</time>
</trkpt>
<trkpt lat="49.667801" lon="10.138685">
<ele>189.529</ele>
<time>2019-05-30T12:38:28Z</time>
</trkpt>
<trkpt lat="49.667778" lon="10.138601">
<ele>189.53</ele>
<time>2019-05-30T12:38:29Z</time>
</trkpt>
<trkpt lat="49.667759" lon="10.138522">
<ele>189.529</ele>
<time>2019-05-30T12:38:30Z</time>
</trkpt>
<trkpt lat="49.66774" lon="10.138442">
<ele>189.529</ele>
<time>2019-05-30T12:38:31Z</time>
</trkpt>
<trkpt lat="49.667717" lon="10.138361">
<ele>189.53</ele>
<time>2019-05-30T12:38:32Z</time>
</trkpt>
<trkpt lat="49.667702" lon="10.138286">
<ele>189.529</ele>
<time>2019-05-30T12:38:33Z</time>
</trkpt>
<trkpt lat="49.667683" lon="10.138208">
<ele>189.53</ele>
<time>2019-05-30T12:38:34Z</time>
</trkpt>
<trkpt lat="49.66766" lon="10.13813">
<ele>189.529</ele>
<time>2019-05-30T12:38:35Z</time>
</trkpt>
<trkpt lat="49.667641" lon="10.138053">
<ele>189.529</ele>
<time>2019-05-30T12:38:36Z</time>
</trkpt>
<trkpt lat="49.667618" lon="10.137977">
<ele>189.529</ele>
<time>2019-05-30T12:38:37Z</time>
</trkpt>
<trkpt lat="49.667595" lon="10.137902">
<ele>189.529</ele>
<time>2019-05-30T12:38:38Z</time>
</trkpt>
<trkpt lat="49.667572" lon="10.137827">
<ele>189.529</ele>
<time>2019-05-30T12:38:39Z</time>
</trkpt>
<trkpt lat="49.667549" lon="10.137752">
<ele>189.529</ele>
<time>2019-05-30T12:38:40Z</time>
</trkpt>
<trkpt lat="49.667526" lon="10.137675">
<ele>189.529</ele>
<time>2019-05-30T12:38:41Z</time>
</trkpt>
<trkpt lat="49.667503" lon="10.1376">
<ele>189.53</ele>
<time>2019-05-30T12:38:42Z</time>
</trkpt>
<trkpt lat="49.667484" lon="10.137523">
<ele>189.529</ele>
<time>2019-05-30T12:38:43Z</time>
</trkpt>
<trkpt lat="49.667458" lon="10.137448">
<ele>189.53</ele>
<time>2019-05-30T12:38:44Z</time>
</trkpt>
<trkpt lat="49.667439" lon="10.13737">
<ele>189.529</ele>
<time>2019-05-30T12:38:45Z</time>
</trkpt>
<trkpt lat="49.667419" lon="10.137294">
<ele>189.529</ele>
<time>2019-05-30T12:38:46Z</time>
</trkpt>
<trkpt lat="49.667397" lon="10.13722">
<ele>189.529</ele>
<time>2019-05-30T12:38:47Z</time>
</trkpt>
<trkpt lat="49.667374" lon="10.137147">
<ele>189.529</ele>
<time>2019-05-30T12:38:48Z</time>
</trkpt>
<trkpt lat="49.667355" lon="10.137074">
<ele>189.53</ele>
<time>2019-05-30T12:38:49Z</time>
</trkpt>
<trkpt lat="49.667336" lon="10.137001">
<ele>189.529</ele>
<time>2019-05-30T12:38:50Z</time>
</trkpt>
<trkpt lat="49.66732" lon="10.136928">
<ele>189.529</ele>
<time>2019-05-30T12:38:51Z</time>
</trkpt>
<trkpt lat="49.667297" lon="10.136852">
<ele>189.529</ele>
<time>2019-05-30T12:38:52Z</time>
</trkpt>
<trkpt lat="49.667282" lon="10.136775">
<ele>189.529</ele>
<time>2019-05-30T12:38:53Z</time>
</trkpt>
<trkpt lat="49.667259" lon="10.136697">
<ele>189.53</ele>
<time>2019-05-30T12:38:54Z</time>
</trkpt>
<trkpt lat="49.667233" lon="10.136618">
<ele>189.529</ele>
<time>2019-05-30T12:38:55Z</time>
</trkpt>
<trkpt lat="49.667213" lon="10.136539">
<ele>189.529</ele>
<time>2019-05-30T12:38:56Z</time>
</trkpt>
<trkpt lat="49.667191" lon="10.136455">
<ele>189.529</ele>
<time>2019-05-30T12:38:57Z</time>
</trkpt>
<trkpt lat="49.667171" lon="10.136373">
<ele>189.529</ele>
<time>2019-05-30T12:38:58Z</time>
</trkpt>
<trkpt lat="49.667156" lon="10.136291">
<ele>189.529</ele>
<time>2019-05-30T12:38:59Z</time>
</trkpt>
<trkpt lat="49.667133" lon="10.136205">
<ele>189.53</ele>
<time>2019-05-30T12:39:00Z</time>
</trkpt>
<trkpt lat="49.667114" lon="10.136124">
<ele>189.529</ele>
<time>2019-05-30T12:39:01Z</time>
</trkpt>
<trkpt lat="49.667095" lon="10.136042">
<ele>189.529</ele>
<time>2019-05-30T12:39:02Z</time>
</trkpt>
<trkpt lat="49.667076" lon="10.135962">
<ele>189.53</ele>
<time>2019-05-30T12:39:03Z</time>
</trkpt>
<trkpt lat="49.667053" lon="10.135883">
<ele>189.529</ele>
<time>2019-05-30T12:39:04Z</time>
</trkpt>
<trkpt lat="49.66703" lon="10.135809">
<ele>189.529</ele>
<time>2019-05-30T12:39:05Z</time>
</trkpt>
<trkpt lat="49.667007" lon="10.135736">
<ele>189.53</ele>
<time>2019-05-30T12:39:06Z</time>
</trkpt>
<trkpt lat="49.666985" lon="10.135663">
<ele>189.53</ele>
<time>2019-05-30T12:39:07Z</time>
</trkpt>
<trkpt lat="49.666965" lon="10.135592">
<ele>189.529</ele>
<time>2019-05-30T12:39:08Z</time>
</trkpt>
<trkpt lat="49.666943" lon="10.135524">
<ele>189.529</ele>
<time>2019-05-30T12:39:09Z</time>
</trkpt>
<trkpt lat="49.666924" lon="10.135455">
<ele>189.53</ele>
<time>2019-05-30T12:39:10Z</time>
</trkpt>
<trkpt lat="49.666904" lon="10.135388">
<ele>189.529</ele>
<time>2019-05-30T12:39:11Z</time>
</trkpt>
<trkpt lat="49.666885" lon="10.135329">
<ele>189.529</ele>
<time>2019-05-30T12:39:12Z</time>
</trkpt>
<trkpt lat="49.666866" lon="10.135285">
<ele>189.529</ele>
<time>2019-05-30T12:39:13Z</time>
</trkpt>
<trkpt lat="49.666851" lon="10.135248">
<ele>189.529</ele>
<time>2019-05-30T12:39:14Z</time>
</trkpt>
<trkpt lat="49.666828" lon="10.135219">
<ele>189.529</ele>
<time>2019-05-30T12:39:15Z</time>
</trkpt>
<trkpt lat="49.666805" lon="10.135191">
<ele>189.529</ele>
<time>2019-05-30T12:39:16Z</time>
</trkpt>
<trkpt lat="49.666786" lon="10.135159">
<ele>189.53</ele>
<time>2019-05-30T12:39:17Z</time>
</trkpt>
<trkpt lat="49.666767" lon="10.135125">
<ele>189.53</ele>
<time>2019-05-30T12:39:18Z</time>
</trkpt>
<trkpt lat="49.666744" lon="10.135083">
<ele>189.529</ele>
<time>2019-05-30T12:39:19Z</time>
</trkpt>
<trkpt lat="49.666733" lon="10.13504">
<ele>189.529</ele>
<time>2019-05-30T12:39:20Z</time>
</trkpt>
<trkpt lat="49.666718" lon="10.134994">
<ele>189.529</ele>
<time>2019-05-30T12:39:21Z</time>
</trkpt>
<trkpt lat="49.666702" lon="10.134942">
<ele>189.529</ele>
<time>2019-05-30T12:39:22Z</time>
</trkpt>
<trkpt lat="49.666695" lon="10.134885">
<ele>189.529</ele>
<time>2019-05-30T12:39:23Z</time>
</trkpt>
<trkpt lat="49.666679" lon="10.134824">
<ele>189.529</ele>
<time>2019-05-30T12:39:24Z</time>
</trkpt>
<trkpt lat="49.666668" lon="10.13476">
<ele>189.529</ele>
<time>2019-05-30T12:39:25Z</time>
</trkpt>
<trkpt lat="49.666649" lon="10.134695">
<ele>189.529</ele>
<time>2019-05-30T12:39:26Z</time>
</trkpt>
<trkpt lat="49.66663" lon="10.134635">
<ele>189.53</ele>
<time>2019-05-30T12:39:27Z</time>
</trkpt>
<trkpt lat="49.666611" lon="10.134571">
<ele>189.53</ele>
<time>2019-05-30T12:39:28Z</time>
</trkpt>
<trkpt lat="49.666595" lon="10.134505">
<ele>189.529</ele>
<time>2019-05-30T12:39:29Z</time>
</trkpt>
<trkpt lat="49.666573" lon="10.134437">
<ele>189.529</ele>
<time>2019-05-30T12:39:30Z</time>
</trkpt>
<trkpt lat="49.666553" lon="10.134368">
<ele>189.53</ele>
<time>2019-05-30T12:39:31Z</time>
</trkpt>
<trkpt lat="49.666534" lon="10.1343">
<ele>189.53</ele>
<time>2019-05-30T12:39:32Z</time>
</trkpt>
<trkpt lat="49.666512" lon="10.134227">
<ele>189.529</ele>
<time>2019-05-30T12:39:33Z</time>
</trkpt>
<trkpt lat="49.666489" lon="10.134155">
<ele>189.529</ele>
<time>2019-05-30T12:39:34Z</time>
</trkpt>
<trkpt lat="49.66647" lon="10.134083">
<ele>189.53</ele>
<time>2019-05-30T12:39:35Z</time>
</trkpt>
<trkpt lat="49.666447" lon="10.134011">
<ele>189.529</ele>
<time>2019-05-30T12:39:36Z</time>
</trkpt>
<trkpt lat="49.666428" lon="10.133938">
<ele>189.529</ele>
<time>2019-05-30T12:39:37Z</time>
</trkpt>
<trkpt lat="49.666405" lon="10.133864">
<ele>189.529</ele>
<time>2019-05-30T12:39:38Z</time>
</trkpt>
<trkpt lat="49.666386" lon="10.133789">
<ele>189.53</ele>
<time>2019-05-30T12:39:39Z</time>
</trkpt>
<trkpt lat="49.666367" lon="10.133712">
<ele>189.529</ele>
<time>2019-05-30T12:39:40Z</time>
</trkpt>
<trkpt lat="49.666344" lon="10.133635">
<ele>189.53</ele>
<time>2019-05-30T12:39:41Z</time>
</trkpt>
<trkpt lat="49.666328" lon="10.133558">
<ele>189.529</ele>
<time>2019-05-30T12:39:42Z</time>
</trkpt>
<trkpt lat="49.666313" lon="10.13348">
<ele>189.53</ele>
<time>2019-05-30T12:39:43Z</time>
</trkpt>
<trkpt lat="49.66629" lon="10.133404">
<ele>189.529</ele>
<time>2019-05-30T12:39:44Z</time>
</trkpt>
<trkpt lat="49.666275" lon="10.133327">
<ele>189.529</ele>
<time>2019-05-30T12:39:45Z</time>
</trkpt>
<trkpt lat="49.666256" lon="10.133246">
<ele>189.529</ele>
<time>2019-05-30T12:39:46Z</time>
</trkpt>
<trkpt lat="49.666245" lon="10.133167">
<ele>189.53</ele>
<time>2019-05-30T12:39:47Z</time>
</trkpt>
<trkpt lat="49.666229" lon="10.133088">
<ele>189.529</ele>
<time>2019-05-30T12:39:48Z</time>
</trkpt>
<trkpt lat="49.666218" lon="10.133005">
<ele>189.529</ele>
<time>2019-05-30T12:39:49Z</time>
</trkpt>
<trkpt lat="49.66621" lon="10.132922">
<ele>189.529</ele>
<time>2019-05-30T12:39:50Z</time>
</trkpt>
<trkpt lat="49.666203" lon="10.132836">
<ele>189.529</ele>
<time>2019-05-30T12:39:51Z</time>
</trkpt>
<trkpt lat="49.666195" lon="10.132751">
<ele>189.53</ele>
<time>2019-05-30T12:39:52Z</time>
</trkpt>
<trkpt lat="49.666187" lon="10.132668">
<ele>189.529</ele>
<time>2019-05-30T12:39:53Z</time>
</trkpt>
<trkpt lat="49.666183" lon="10.132586">
<ele>189.529</ele>
<time>2019-05-30T12:39:54Z</time>
</trkpt>
<trkpt lat="49.66618" lon="10.132502">
<ele>189.53</ele>
<time>2019-05-30T12:39:55Z</time>
</trkpt>
<trkpt lat="49.666172" lon="10.132417">
<ele>189.529</ele>
<time>2019-05-30T12:39:56Z</time>
</trkpt>
<trkpt lat="49.666164" lon="10.132333">
<ele>189.529</ele>
<time>2019-05-30T12:39:57Z</time>
</trkpt>
<trkpt lat="49.666157" lon="10.132248">
<ele>189.529</ele>
<time>2019-05-30T12:39:58Z</time>
</trkpt>
<trkpt lat="49.666149" lon="10.132165">
<ele>189.529</ele>
<time>2019-05-30T12:39:59Z</time>
</trkpt>
<trkpt lat="49.666149" lon="10.132077">
<ele>189.529</ele>
<time>2019-05-30T12:40:00Z</time>
</trkpt>
<trkpt lat="49.666142" lon="10.131988">
<ele>189.529</ele>
<time>2019-05-30T12:40:01Z</time>
</trkpt>
<trkpt lat="49.666134" lon="10.131897">
<ele>189.529</ele>
<time>2019-05-30T12:40:02Z</time>
</trkpt>
<trkpt lat="49.66613" lon="10.131808">
<ele>189.529</ele>
<time>2019-05-30T12:40:03Z</time>
</trkpt>
<trkpt lat="49.666122" lon="10.13172">
<ele>189.529</ele>
<time>2019-05-30T12:40:04Z</time>
</trkpt>
<trkpt lat="49.666115" lon="10.131634">
<ele>189.53</ele>
<time>2019-05-30T12:40:05Z</time>
</trkpt>
<trkpt lat="49.666115" lon="10.131548">
<ele>189.529</ele>
<time>2019-05-30T12:40:06Z</time>
</trkpt>
<trkpt lat="49.666107" lon="10.131465">
<ele>189.53</ele>
<time>2019-05-30T12:40:07Z</time>
</trkpt>
<trkpt lat="49.666103" lon="10.131382">
<ele>189.53</ele>
<time>2019-05-30T12:40:08Z</time>
</trkpt>
<trkpt lat="49.666103" lon="10.1313">
<ele>189.53</ele>
<time>2019-05-30T12:40:09Z</time>
</trkpt>
<trkpt lat="49.6661" lon="10.131217">
<ele>189.53</ele>
<time>2019-05-30T12:40:10Z</time>
</trkpt>
<trkpt lat="49.666096" lon="10.131137">
<ele>189.306</ele>
<time>2019-05-30T12:40:11Z</time>
</trkpt>
<trkpt lat="49.666096" lon="10.131055">
<ele>189.129</ele>
<time>2019-05-30T12:40:12Z</time>
</trkpt>
<trkpt lat="49.666096" lon="10.130976">
<ele>188.99</ele>
<time>2019-05-30T12:40:13Z</time>
</trkpt>
<trkpt lat="49.666096" lon="10.1309">
<ele>188.891</ele>
<time>2019-05-30T12:40:14Z</time>
</trkpt>
<trkpt lat="49.6661" lon="10.130823">
<ele>188.816</ele>
<time>2019-05-30T12:40:15Z</time>
</trkpt>
<trkpt lat="49.6661" lon="10.130749">
<ele>188.763</ele>
<time>2019-05-30T12:40:16Z</time>
</trkpt>
<trkpt lat="49.666103" lon="10.130673">
<ele>188.715</ele>
<time>2019-05-30T12:40:17Z</time>
</trkpt>
<trkpt lat="49.666111" lon="10.130598">
<ele>188.692</ele>
<time>2019-05-30T12:40:18Z</time>
</trkpt>
<trkpt lat="49.666115" lon="10.130525">
<ele>188.692</ele>
<time>2019-05-30T12:40:19Z</time>
</trkpt>
<trkpt lat="49.666115" lon="10.130452">
<ele>188.692</ele>
<time>2019-05-30T12:40:20Z</time>
</trkpt>
<trkpt lat="49.666115" lon="10.130377">
<ele>188.692</ele>
<time>2019-05-30T12:40:21Z</time>
</trkpt>
<trkpt lat="49.666115" lon="10.130305">
<ele>188.692</ele>
<time>2019-05-30T12:40:22Z</time>
</trkpt>
<trkpt lat="49.666111" lon="10.130235">
<ele>188.692</ele>
<time>2019-05-30T12:40:23Z</time>
</trkpt>
<trkpt lat="49.666107" lon="10.130169">
<ele>188.898</ele>
<time>2019-05-30T12:40:24Z</time>
</trkpt>
<trkpt lat="49.6661" lon="10.130104">
<ele>189.06</ele>
<time>2019-05-30T12:40:25Z</time>
</trkpt>
<trkpt lat="49.666092" lon="10.130041">
<ele>189.175</ele>
<time>2019-05-30T12:40:26Z</time>
</trkpt>
<trkpt lat="49.666084" lon="10.129982">
<ele>189.297</ele>
<time>2019-05-30T12:40:27Z</time>
</trkpt>
<trkpt lat="49.666077" lon="10.129911">
<ele>189.391</ele>
<time>2019-05-30T12:40:28Z</time>
</trkpt>
<trkpt lat="49.666073" lon="10.129844">
<ele>189.461</ele>
<time>2019-05-30T12:40:29Z</time>
</trkpt>
<trkpt lat="49.666069" lon="10.12977">
<ele>189.507</ele>
<time>2019-05-30T12:40:30Z</time>
</trkpt>
<trkpt lat="49.666069" lon="10.129698">
<ele>189.529</ele>
<time>2019-05-30T12:40:31Z</time>
</trkpt>
<trkpt lat="49.666061" lon="10.129624">
<ele>189.53</ele>
<time>2019-05-30T12:40:32Z</time>
</trkpt>
<trkpt lat="49.666046" lon="10.129553">
<ele>189.529</ele>
<time>2019-05-30T12:40:33Z</time>
</trkpt>
<trkpt lat="49.666042" lon="10.129478">
<ele>189.53</ele>
<time>2019-05-30T12:40:34Z</time>
</trkpt>
<trkpt lat="49.666042" lon="10.129407">
<ele>189.529</ele>
<time>2019-05-30T12:40:35Z</time>
</trkpt>
<trkpt lat="49.666042" lon="10.129332">
<ele>189.53</ele>
<time>2019-05-30T12:40:36Z</time>
</trkpt>
<trkpt lat="49.666042" lon="10.129253">
<ele>189.53</ele>
<time>2019-05-30T12:40:37Z</time>
</trkpt>
<trkpt lat="49.666042" lon="10.129178">
<ele>189.529</ele>
<time>2019-05-30T12:40:38Z</time>
</trkpt>
<trkpt lat="49.666039" lon="10.129103">
<ele>189.284</ele>
<time>2019-05-30T12:40:39Z</time>
</trkpt>
<trkpt lat="49.666035" lon="10.129028">
<ele>189.097</ele>
<time>2019-05-30T12:40:40Z</time>
</trkpt>
<trkpt lat="49.666027" lon="10.128956">
<ele>188.958</ele>
<time>2019-05-30T12:40:41Z</time>
</trkpt>
<trkpt lat="49.666023" lon="10.128879">
<ele>188.85</ele>
<time>2019-05-30T12:40:42Z</time>
</trkpt>
<trkpt lat="49.666019" lon="10.128801">
<ele>188.78</ele>
<time>2019-05-30T12:40:43Z</time>
</trkpt>
<trkpt lat="49.666019" lon="10.128727">
<ele>188.733</ele>
<time>2019-05-30T12:40:44Z</time>
</trkpt>
<trkpt lat="49.666016" lon="10.128654">
<ele>188.712</ele>
<time>2019-05-30T12:40:45Z</time>
</trkpt>
<trkpt lat="49.666012" lon="10.128581">
<ele>188.692</ele>
<time>2019-05-30T12:40:46Z</time>
</trkpt>
<trkpt lat="49.666012" lon="10.128511">
<ele>188.692</ele>
<time>2019-05-30T12:40:47Z</time>
</trkpt>
<trkpt lat="49.666008" lon="10.128442">
<ele>188.692</ele>
<time>2019-05-30T12:40:48Z</time>
</trkpt>
<trkpt lat="49.666004" lon="10.128377">
<ele>188.692</ele>
<time>2019-05-30T12:40:49Z</time>
</trkpt>
<trkpt lat="49.666004" lon="10.128317">
<ele>188.692</ele>
<time>2019-05-30T12:40:50Z</time>
</trkpt>
<trkpt lat="49.666004" lon="10.128254">
<ele>188.692</ele>
<time>2019-05-30T12:40:51Z</time>
</trkpt>
<trkpt lat="49.666" lon="10.128185">
<ele>188.692</ele>
<time>2019-05-30T12:40:52Z</time>
</trkpt>
<trkpt lat="49.666" lon="10.128112">
<ele>188.692</ele>
<time>2019-05-30T12:40:53Z</time>
</trkpt>
<trkpt lat="49.666" lon="10.12804">
<ele>188.692</ele>
<time>2019-05-30T12:40:54Z</time>
</trkpt>
<trkpt lat="49.666" lon="10.127963">
<ele>188.692</ele>
<time>2019-05-30T12:40:55Z</time>
</trkpt>
<trkpt lat="49.666004" lon="10.127885">
<ele>188.883</ele>
<time>2019-05-30T12:40:56Z</time>
</trkpt>
<trkpt lat="49.666004" lon="10.12781">
<ele>189.067</ele>
<time>2019-05-30T12:40:57Z</time>
</trkpt>
<trkpt lat="49.666" lon="10.12773">
<ele>189.215</ele>
<time>2019-05-30T12:40:58Z</time>
</trkpt>
<trkpt lat="49.666" lon="10.127648">
<ele>189.326</ele>
<time>2019-05-30T12:40:59Z</time>
</trkpt>
<trkpt lat="49.666" lon="10.127564">
<ele>189.41</ele>
<time>2019-05-30T12:41:00Z</time>
</trkpt>
<trkpt lat="49.666" lon="10.127483">
<ele>189.471</ele>
<time>2019-05-30T12:41:01Z</time>
</trkpt>
<trkpt lat="49.666" lon="10.127401">
<ele>189.511</ele>
<time>2019-05-30T12:41:02Z</time>
</trkpt>
<trkpt lat="49.666" lon="10.12732">
<ele>189.53</ele>
<time>2019-05-30T12:41:03Z</time>
</trkpt>
<trkpt lat="49.666" lon="10.127236">
<ele>189.529</ele>
<time>2019-05-30T12:41:04Z</time>
</trkpt>
<trkpt lat="49.666" lon="10.127151">
<ele>189.53</ele>
<time>2019-05-30T12:41:05Z</time>
</trkpt>
<trkpt lat="49.666004" lon="10.127064">
<ele>189.53</ele>
<time>2019-05-30T12:41:06Z</time>
</trkpt>
<trkpt lat="49.666004" lon="10.126978">
<ele>189.53</ele>
<time>2019-05-30T12:41:07Z</time>
</trkpt>
<trkpt lat="49.666004" lon="10.126894">
<ele>189.53</ele>
<time>2019-05-30T12:41:08Z</time>
</trkpt>
<trkpt lat="49.666004" lon="10.126806">
<ele>189.529</ele>
<time>2019-05-30T12:41:09Z</time>
</trkpt>
<trkpt lat="49.666008" lon="10.126722">
<ele>189.53</ele>
<time>2019-05-30T12:41:10Z</time>
</trkpt>
<trkpt lat="49.666012" lon="10.126637">
<ele>189.529</ele>
<time>2019-05-30T12:41:11Z</time>
</trkpt>
<trkpt lat="49.666016" lon="10.126554">
<ele>189.529</ele>
<time>2019-05-30T12:41:12Z</time>
</trkpt>
<trkpt lat="49.666019" lon="10.126478">
<ele>189.529</ele>
<time>2019-05-30T12:41:13Z</time>
</trkpt>
<trkpt lat="49.666019" lon="10.126398">
<ele>189.529</ele>
<time>2019-05-30T12:41:14Z</time>
</trkpt>
<trkpt lat="49.666016" lon="10.126323">
<ele>189.529</ele>
<time>2019-05-30T12:41:15Z</time>
</trkpt>
<trkpt lat="49.666012" lon="10.126248">
<ele>189.53</ele>
<time>2019-05-30T12:41:16Z</time>
</trkpt>
<trkpt lat="49.666012" lon="10.126175">
<ele>189.746</ele>
<time>2019-05-30T12:41:17Z</time>
</trkpt>
<trkpt lat="49.666008" lon="10.126104">
<ele>189.931</ele>
<time>2019-05-30T12:41:18Z</time>
</trkpt>
<trkpt lat="49.666008" lon="10.126038">
<ele>190.085</ele>
<time>2019-05-30T12:41:19Z</time>
</trkpt>
<trkpt lat="49.666004" lon="10.125968">
<ele>190.211</ele>
<time>2019-05-30T12:41:20Z</time>
</trkpt>
<trkpt lat="49.666004" lon="10.125896">
<ele>190.312</ele>
<time>2019-05-30T12:41:21Z</time>
</trkpt>
<trkpt lat="49.666" lon="10.125825">
<ele>190.381</ele>
<time>2019-05-30T12:41:22Z</time>
</trkpt>
<trkpt lat="49.666" lon="10.125752">
<ele>190.429</ele>
<time>2019-05-30T12:41:23Z</time>
</trkpt>
<trkpt lat="49.666004" lon="10.125677">
<ele>190.451</ele>
<time>2019-05-30T12:41:24Z</time>
</trkpt>
<trkpt lat="49.666004" lon="10.125606">
<ele>190.451</ele>
<time>2019-05-30T12:41:25Z</time>
</trkpt>
<trkpt lat="49.666" lon="10.12553">
<ele>190.451</ele>
<time>2019-05-30T12:41:26Z</time>
</trkpt>
<trkpt lat="49.666" lon="10.125457">
<ele>190.451</ele>
<time>2019-05-30T12:41:27Z</time>
</trkpt>
<trkpt lat="49.665997" lon="10.125381">
<ele>190.451</ele>
<time>2019-05-30T12:41:28Z</time>
</trkpt>
<trkpt lat="49.665997" lon="10.125308">
<ele>190.451</ele>
<time>2019-05-30T12:41:29Z</time>
</trkpt>
<trkpt lat="49.665997" lon="10.125235">
<ele>190.451</ele>
<time>2019-05-30T12:41:30Z</time>
</trkpt>
<trkpt lat="49.665997" lon="10.125158">
<ele>190.451</ele>
<time>2019-05-30T12:41:31Z</time>
</trkpt>
<trkpt lat="49.665997" lon="10.125082">
<ele>190.451</ele>
<time>2019-05-30T12:41:32Z</time>
</trkpt>
<trkpt lat="49.665993" lon="10.12501">
<ele>190.451</ele>
<time>2019-05-30T12:41:33Z</time>
</trkpt>
<trkpt lat="49.665993" lon="10.12494">
<ele>190.451</ele>
<time>2019-05-30T12:41:34Z</time>
</trkpt>
<trkpt lat="49.665993" lon="10.12487">
<ele>190.451</ele>
<time>2019-05-30T12:41:35Z</time>
</trkpt>
<trkpt lat="49.665993" lon="10.124802">
<ele>190.451</ele>
<time>2019-05-30T12:41:36Z</time>
</trkpt>
<trkpt lat="49.665993" lon="10.12473">
<ele>190.451</ele>
<time>2019-05-30T12:41:37Z</time>
</trkpt>
<trkpt lat="49.665993" lon="10.12466">
<ele>190.451</ele>
<time>2019-05-30T12:41:38Z</time>
</trkpt>
<trkpt lat="49.665993" lon="10.124592">
<ele>190.451</ele>
<time>2019-05-30T12:41:39Z</time>
</trkpt>
<trkpt lat="49.665993" lon="10.12452">
<ele>190.451</ele>
<time>2019-05-30T12:41:40Z</time>
</trkpt>
<trkpt lat="49.665993" lon="10.124452">
<ele>190.451</ele>
<time>2019-05-30T12:41:41Z</time>
</trkpt>
<trkpt lat="49.665993" lon="10.124378">
<ele>190.451</ele>
<time>2019-05-30T12:41:42Z</time>
</trkpt>
<trkpt lat="49.665993" lon="10.124307">
<ele>190.451</ele>
<time>2019-05-30T12:41:43Z</time>
</trkpt>
<trkpt lat="49.665993" lon="10.124236">
<ele>190.451</ele>
<time>2019-05-30T12:41:44Z</time>
</trkpt>
<trkpt lat="49.665993" lon="10.124165">
<ele>190.451</ele>
<time>2019-05-30T12:41:45Z</time>
</trkpt>
<trkpt lat="49.665989" lon="10.12409">
<ele>190.451</ele>
<time>2019-05-30T12:41:46Z</time>
</trkpt>
<trkpt lat="49.665985" lon="10.124012">
<ele>190.451</ele>
<time>2019-05-30T12:41:47Z</time>
</trkpt>
<trkpt lat="49.665985" lon="10.123934">
<ele>190.451</ele>
<time>2019-05-30T12:41:48Z</time>
</trkpt>
<trkpt lat="49.665985" lon="10.123858">
<ele>190.451</ele>
<time>2019-05-30T12:41:49Z</time>
</trkpt>
<trkpt lat="49.665985" lon="10.12379">
<ele>190.451</ele>
<time>2019-05-30T12:41:50Z</time>
</trkpt>
<trkpt lat="49.665985" lon="10.123718">
<ele>190.451</ele>
<time>2019-05-30T12:41:51Z</time>
</trkpt>
<trkpt lat="49.665981" lon="10.123647">
<ele>190.451</ele>
<time>2019-05-30T12:41:52Z</time>
</trkpt>
<trkpt lat="49.665981" lon="10.123578">
<ele>190.451</ele>
<time>2019-05-30T12:41:53Z</time>
</trkpt>
<trkpt lat="49.665981" lon="10.123511">
<ele>190.451</ele>
<time>2019-05-30T12:41:54Z</time>
</trkpt>
<trkpt lat="49.665985" lon="10.123446">
<ele>190.451</ele>
<time>2019-05-30T12:41:55Z</time>
</trkpt>
<trkpt lat="49.666" lon="10.123372">
<ele>190.451</ele>
<time>2019-05-30T12:41:56Z</time>
</trkpt>
<trkpt lat="49.666019" lon="10.123293">
<ele>190.451</ele>
<time>2019-05-30T12:41:57Z</time>
</trkpt>
<trkpt lat="49.666035" lon="10.1232">
<ele>190.451</ele>
<time>2019-05-30T12:41:58Z</time>
</trkpt>
<trkpt lat="49.66605" lon="10.1231">
<ele>190.165</ele>
<time>2019-05-30T12:41:59Z</time>
</trkpt>
<trkpt lat="49.666058" lon="10.122997">
<ele>189.986</ele>
<time>2019-05-30T12:42:00Z</time>
</trkpt>
<trkpt lat="49.666065" lon="10.122885">
<ele>189.556</ele>
<time>2019-05-30T12:42:01Z</time>
</trkpt>
<trkpt lat="49.666065" lon="10.122777">
<ele>189.251</ele>
<time>2019-05-30T12:42:02Z</time>
</trkpt>
<trkpt lat="49.666073" lon="10.122673">
<ele>189.046</ele>
<time>2019-05-30T12:42:03Z</time>
</trkpt>
<trkpt lat="49.666077" lon="10.122575">
<ele>188.912</ele>
<time>2019-05-30T12:42:04Z</time>
</trkpt>
<trkpt lat="49.666084" lon="10.122476">
<ele>188.822</ele>
<time>2019-05-30T12:42:05Z</time>
</trkpt>
<trkpt lat="49.666092" lon="10.122375">
<ele>188.758</ele>
<time>2019-05-30T12:42:06Z</time>
</trkpt>
<trkpt lat="49.666103" lon="10.122276">
<ele>188.714</ele>
<time>2019-05-30T12:42:07Z</time>
</trkpt>
<trkpt lat="49.666107" lon="10.122187">
<ele>188.692</ele>
<time>2019-05-30T12:42:08Z</time>
</trkpt>
<trkpt lat="49.666115" lon="10.122101">
<ele>188.692</ele>
<time>2019-05-30T12:42:09Z</time>
</trkpt>
<trkpt lat="49.666126" lon="10.122015">
<ele>188.692</ele>
<time>2019-05-30T12:42:10Z</time>
</trkpt>
<trkpt lat="49.666145" lon="10.121935">
<ele>188.692</ele>
<time>2019-05-30T12:42:11Z</time>
</trkpt>
<trkpt lat="49.666168" lon="10.121858">
<ele>188.692</ele>
<time>2019-05-30T12:42:12Z</time>
</trkpt>
<trkpt lat="49.666183" lon="10.121785">
<ele>188.692</ele>
<time>2019-05-30T12:42:13Z</time>
</trkpt>
<trkpt lat="49.666206" lon="10.121716">
<ele>188.692</ele>
<time>2019-05-30T12:42:14Z</time>
</trkpt>
<trkpt lat="49.666225" lon="10.121648">
<ele>188.886</ele>
<time>2019-05-30T12:42:15Z</time>
</trkpt>
<trkpt lat="49.666245" lon="10.12159">
<ele>189.032</ele>
<time>2019-05-30T12:42:16Z</time>
</trkpt>
<trkpt lat="49.666241" lon="10.121542">
<ele>189.175</ele>
<time>2019-05-30T12:42:17Z</time>
</trkpt>
<trkpt lat="49.666248" lon="10.121491">
<ele>189.291</ele>
<time>2019-05-30T12:42:18Z</time>
</trkpt>
<trkpt lat="49.666252" lon="10.121451">
<ele>189.385</ele>
<time>2019-05-30T12:42:19Z</time>
</trkpt>
<trkpt lat="49.666256" lon="10.121422">
<ele>189.455</ele>
<time>2019-05-30T12:42:20Z</time>
</trkpt>
<trkpt lat="49.666256" lon="10.121399">
<ele>189.504</ele>
<time>2019-05-30T12:42:21Z</time>
</trkpt>
<trkpt lat="49.66626" lon="10.12139">
<ele>189.529</ele>
<time>2019-05-30T12:42:22Z</time>
</trkpt>
<trkpt lat="49.666264" lon="10.121376">
<ele>189.715</ele>
<time>2019-05-30T12:42:23Z</time>
</trkpt>
<trkpt lat="49.666264" lon="10.121366">
<ele>189.869</ele>
<time>2019-05-30T12:42:24Z</time>
</trkpt>
<trkpt lat="49.66626" lon="10.12135">
<ele>190.003</ele>
<time>2019-05-30T12:42:25Z</time>
</trkpt>
<trkpt lat="49.666256" lon="10.12134">
<ele>190.11</ele>
<time>2019-05-30T12:42:26Z</time>
</trkpt>
<trkpt lat="49.666252" lon="10.121335">
<ele>190.231</ele>
<time>2019-05-30T12:42:27Z</time>
</trkpt>
<trkpt lat="49.666256" lon="10.12132">
<ele>190.337</ele>
<time>2019-05-30T12:42:28Z</time>
</trkpt>
<trkpt lat="49.666252" lon="10.12131">
<ele>190.412</ele>
<time>2019-05-30T12:42:29Z</time>
</trkpt>
<trkpt lat="49.666252" lon="10.121299">
<ele>190.451</ele>
<time>2019-05-30T12:42:30Z</time>
</trkpt>
<trkpt lat="49.666248" lon="10.121282">
<ele>190.451</ele>
<time>2019-05-30T12:42:31Z</time>
</trkpt>
<trkpt lat="49.666252" lon="10.12127">
<ele>190.451</ele>
<time>2019-05-30T12:42:32Z</time>
</trkpt>
<trkpt lat="49.666248" lon="10.121259">
<ele>190.451</ele>
<time>2019-05-30T12:42:33Z</time>
</trkpt>
<trkpt lat="49.666248" lon="10.121248">
<ele>190.451</ele>
<time>2019-05-30T12:42:34Z</time>
</trkpt>
<trkpt lat="49.666241" lon="10.121242">
<ele>190.451</ele>
<time>2019-05-30T12:42:35Z</time>
</trkpt>
<trkpt lat="49.666225" lon="10.121238">
<ele>190.451</ele>
<time>2019-05-30T12:42:36Z</time>
</trkpt>
<trkpt lat="49.666214" lon="10.121235">
<ele>190.451</ele>
<time>2019-05-30T12:42:37Z</time>
</trkpt>
<trkpt lat="49.666199" lon="10.121231">
<ele>190.451</ele>
<time>2019-05-30T12:42:38Z</time>
</trkpt>
<trkpt lat="49.666183" lon="10.121233">
<ele>190.451</ele>
<time>2019-05-30T12:42:39Z</time>
</trkpt>
<trkpt lat="49.66618" lon="10.12124">
<ele>190.451</ele>
<time>2019-05-30T12:42:40Z</time>
</trkpt>
<trkpt lat="49.666172" lon="10.121254">
<ele>190.451</ele>
<time>2019-05-30T12:42:41Z</time>
</trkpt>
<trkpt lat="49.666157" lon="10.121257">
<ele>190.451</ele>
<time>2019-05-30T12:42:42Z</time>
</trkpt>
<trkpt lat="49.666149" lon="10.12125">
<ele>190.451</ele>
<time>2019-05-30T12:42:43Z</time>
</trkpt>
<trkpt lat="49.66613" lon="10.121245">
<ele>190.451</ele>
<time>2019-05-30T12:42:44Z</time>
</trkpt>
<trkpt lat="49.666115" lon="10.121237">
<ele>190.7</ele>
<time>2019-05-30T12:42:45Z</time>
</trkpt>
<trkpt lat="49.666103" lon="10.121233">
<ele>190.877</ele>
<time>2019-05-30T12:42:46Z</time>
</trkpt>
<trkpt lat="49.666088" lon="10.121229">
<ele>191.075</ele>
<time>2019-05-30T12:42:47Z</time>
</trkpt>
<trkpt lat="49.666077" lon="10.121231">
<ele>191.219</ele>
<time>2019-05-30T12:42:48Z</time>
</trkpt>
<trkpt lat="49.666054" lon="10.121235">
<ele>191.309</ele>
<time>2019-05-30T12:42:49Z</time>
</trkpt>
<trkpt lat="49.666031" lon="10.121243">
<ele>191.614</ele>
<time>2019-05-30T12:42:50Z</time>
</trkpt>
<trkpt lat="49.666" lon="10.121246">
<ele>191.847</ele>
<time>2019-05-30T12:42:51Z</time>
</trkpt>
<trkpt lat="49.665977" lon="10.121242">
<ele>192.011</ele>
<time>2019-05-30T12:42:52Z</time>
</trkpt>
<trkpt lat="49.665947" lon="10.121229">
<ele>192.152</ele>
<time>2019-05-30T12:42:53Z</time>
</trkpt>
<trkpt lat="49.66592" lon="10.121212">
<ele>192.219</ele>
<time>2019-05-30T12:42:54Z</time>
</trkpt>
<trkpt lat="49.665894" lon="10.121183">
<ele>192.254</ele>
<time>2019-05-30T12:42:55Z</time>
</trkpt>
<trkpt lat="49.665871" lon="10.121152">
<ele>192.281</ele>
<time>2019-05-30T12:42:56Z</time>
</trkpt>
<trkpt lat="49.665852" lon="10.121119">
<ele>192.294</ele>
<time>2019-05-30T12:42:57Z</time>
</trkpt>
<trkpt lat="49.665829" lon="10.121074">
<ele>192.294</ele>
<time>2019-05-30T12:42:58Z</time>
</trkpt>
<trkpt lat="49.665813" lon="10.121026">
<ele>192.294</ele>
<time>2019-05-30T12:42:59Z</time>
</trkpt>
<trkpt lat="49.665798" lon="10.120976">
<ele>192.294</ele>
<time>2019-05-30T12:43:00Z</time>
</trkpt>
<trkpt lat="49.665791" lon="10.120925">
<ele>192.294</ele>
<time>2019-05-30T12:43:01Z</time>
</trkpt>
<trkpt lat="49.665787" lon="10.120871">
<ele>192.294</ele>
<time>2019-05-30T12:43:02Z</time>
</trkpt>
<trkpt lat="49.665779" lon="10.120811">
<ele>192.294</ele>
<time>2019-05-30T12:43:03Z</time>
</trkpt>
<trkpt lat="49.665771" lon="10.120751">
<ele>192.294</ele>
<time>2019-05-30T12:43:04Z</time>
</trkpt>
<trkpt lat="49.665768" lon="10.120693">
<ele>192.294</ele>
<time>2019-05-30T12:43:05Z</time>
</trkpt>
<trkpt lat="49.665764" lon="10.120635">
<ele>192.294</ele>
<time>2019-05-30T12:43:06Z</time>
</trkpt>
<trkpt lat="49.665756" lon="10.120575">
<ele>192.294</ele>
<time>2019-05-30T12:43:07Z</time>
</trkpt>
<trkpt lat="49.665756" lon="10.120513">
<ele>192.294</ele>
<time>2019-05-30T12:43:08Z</time>
</trkpt>
<trkpt lat="49.665752" lon="10.12045">
<ele>192.294</ele>
<time>2019-05-30T12:43:09Z</time>
</trkpt>
<trkpt lat="49.665749" lon="10.120389">
<ele>192.678</ele>
<time>2019-05-30T12:43:10Z</time>
</trkpt>
<trkpt lat="49.665745" lon="10.120324">
<ele>192.966</ele>
<time>2019-05-30T12:43:11Z</time>
</trkpt>
<trkpt lat="49.665741" lon="10.120261">
<ele>193.19</ele>
<time>2019-05-30T12:43:12Z</time>
</trkpt>
<trkpt lat="49.665733" lon="10.120198">
<ele>193.353</ele>
<time>2019-05-30T12:43:13Z</time>
</trkpt>
<trkpt lat="49.66573" lon="10.120133">
<ele>193.465</ele>
<time>2019-05-30T12:43:14Z</time>
</trkpt>
<trkpt lat="49.66573" lon="10.120069">
<ele>193.542</ele>
<time>2019-05-30T12:43:15Z</time>
</trkpt>
<trkpt lat="49.665726" lon="10.12">
<ele>193.598</ele>
<time>2019-05-30T12:43:16Z</time>
</trkpt>
<trkpt lat="49.665726" lon="10.119932">
<ele>193.635</ele>
<time>2019-05-30T12:43:17Z</time>
</trkpt>
<trkpt lat="49.665726" lon="10.119857">
<ele>193.635</ele>
<time>2019-05-30T12:43:18Z</time>
</trkpt>
<trkpt lat="49.665722" lon="10.119779">
<ele>193.357</ele>
<time>2019-05-30T12:43:19Z</time>
</trkpt>
<trkpt lat="49.665722" lon="10.119692">
<ele>193.181</ele>
<time>2019-05-30T12:43:20Z</time>
</trkpt>
<trkpt lat="49.665726" lon="10.119599">
<ele>192.765</ele>
<time>2019-05-30T12:43:21Z</time>
</trkpt>
<trkpt lat="49.665726" lon="10.119517">
<ele>192.461</ele>
<time>2019-05-30T12:43:22Z</time>
</trkpt>
<trkpt lat="49.665726" lon="10.119435">
<ele>192.239</ele>
<time>2019-05-30T12:43:23Z</time>
</trkpt>
<trkpt lat="49.665722" lon="10.119351">
<ele>192.095</ele>
<time>2019-05-30T12:43:24Z</time>
</trkpt>
<trkpt lat="49.665718" lon="10.119267">
<ele>192.006</ele>
<time>2019-05-30T12:43:25Z</time>
</trkpt>
<trkpt lat="49.66571" lon="10.119182">
<ele>191.94</ele>
<time>2019-05-30T12:43:26Z</time>
</trkpt>
<trkpt lat="49.665699" lon="10.119095">
<ele>191.896</ele>
<time>2019-05-30T12:43:27Z</time>
</trkpt>
<trkpt lat="49.665695" lon="10.119008">
<ele>191.875</ele>
<time>2019-05-30T12:43:28Z</time>
</trkpt>
<trkpt lat="49.665691" lon="10.118925">
<ele>191.875</ele>
<time>2019-05-30T12:43:29Z</time>
</trkpt>
<trkpt lat="49.665684" lon="10.118843">
<ele>191.875</ele>
<time>2019-05-30T12:43:30Z</time>
</trkpt>
<trkpt lat="49.665676" lon="10.118763">
<ele>191.875</ele>
<time>2019-05-30T12:43:31Z</time>
</trkpt>
<trkpt lat="49.665668" lon="10.118684">
<ele>191.875</ele>
<time>2019-05-30T12:43:32Z</time>
</trkpt>
<trkpt lat="49.665661" lon="10.118602">
<ele>191.875</ele>
<time>2019-05-30T12:43:33Z</time>
</trkpt>
<trkpt lat="49.665661" lon="10.118524">
<ele>191.875</ele>
<time>2019-05-30T12:43:34Z</time>
</trkpt>
<trkpt lat="49.665657" lon="10.118448">
<ele>192.074</ele>
<time>2019-05-30T12:43:35Z</time>
</trkpt>
<trkpt lat="49.665657" lon="10.118365">
<ele>192.219</ele>
<time>2019-05-30T12:43:36Z</time>
</trkpt>
<trkpt lat="49.665653" lon="10.118285">
<ele>192.37</ele>
<time>2019-05-30T12:43:37Z</time>
</trkpt>
<trkpt lat="49.665653" lon="10.118208">
<ele>192.478</ele>
<time>2019-05-30T12:43:38Z</time>
</trkpt>
<trkpt lat="49.665653" lon="10.11814">
<ele>192.796</ele>
<time>2019-05-30T12:43:39Z</time>
</trkpt>
<trkpt lat="49.665646" lon="10.118055">
<ele>193.053</ele>
<time>2019-05-30T12:43:40Z</time>
</trkpt>
<trkpt lat="49.665642" lon="10.117963">
<ele>193.256</ele>
<time>2019-05-30T12:43:41Z</time>
</trkpt>
<trkpt lat="49.66563" lon="10.11788">
<ele>193.379</ele>
<time>2019-05-30T12:43:42Z</time>
</trkpt>
<trkpt lat="49.665623" lon="10.117808">
<ele>193.765</ele>
<time>2019-05-30T12:43:43Z</time>
</trkpt>
<trkpt lat="49.665611" lon="10.117737">
<ele>194.003</ele>
<time>2019-05-30T12:43:44Z</time>
</trkpt>
<trkpt lat="49.665604" lon="10.117663">
<ele>194.181</ele>
<time>2019-05-30T12:43:45Z</time>
</trkpt>
<trkpt lat="49.665604" lon="10.117592">
<ele>194.306</ele>
<time>2019-05-30T12:43:46Z</time>
</trkpt>
<trkpt lat="49.6656" lon="10.117525">
<ele>194.627</ele>
<time>2019-05-30T12:43:47Z</time>
</trkpt>
<trkpt lat="49.665604" lon="10.117467">
<ele>194.87</ele>
<time>2019-05-30T12:43:48Z</time>
</trkpt>
<trkpt lat="49.665611" lon="10.117405">
<ele>195.073</ele>
<time>2019-05-30T12:43:49Z</time>
</trkpt>
<trkpt lat="49.665615" lon="10.117336">
<ele>195.233</ele>
<time>2019-05-30T12:43:50Z</time>
</trkpt>
<trkpt lat="49.665623" lon="10.117267">
<ele>195.336</ele>
<time>2019-05-30T12:43:51Z</time>
</trkpt>
<trkpt lat="49.665623" lon="10.1172">
<ele>195.408</ele>
<time>2019-05-30T12:43:52Z</time>
</trkpt>
<trkpt lat="49.665627" lon="10.117129">
<ele>195.449</ele>
<time>2019-05-30T12:43:53Z</time>
</trkpt>
<trkpt lat="49.665627" lon="10.117053">
<ele>195.239</ele>
<time>2019-05-30T12:43:54Z</time>
</trkpt>
<trkpt lat="49.66563" lon="10.116968">
<ele>195.052</ele>
<time>2019-05-30T12:43:55Z</time>
</trkpt>
<trkpt lat="49.66563" lon="10.116879">
<ele>194.926</ele>
<time>2019-05-30T12:43:56Z</time>
</trkpt>
<trkpt lat="49.665627" lon="10.116785">
<ele>194.792</ele>
<time>2019-05-30T12:43:57Z</time>
</trkpt>
<trkpt lat="49.665627" lon="10.116689">
<ele>194.692</ele>
<time>2019-05-30T12:43:58Z</time>
</trkpt>
<trkpt lat="49.665627" lon="10.116589">
<ele>194.62</ele>
<time>2019-05-30T12:43:59Z</time>
</trkpt>
<trkpt lat="49.665619" lon="10.116488">
<ele>194.576</ele>
<time>2019-05-30T12:44:00Z</time>
</trkpt>
<trkpt lat="49.665615" lon="10.116387">
<ele>194.557</ele>
<time>2019-05-30T12:44:01Z</time>
</trkpt>
<trkpt lat="49.665611" lon="10.116288">
<ele>194.557</ele>
<time>2019-05-30T12:44:02Z</time>
</trkpt>
<trkpt lat="49.665607" lon="10.116186">
<ele>194.291</ele>
<time>2019-05-30T12:44:03Z</time>
</trkpt>
<trkpt lat="49.665604" lon="10.116086">
<ele>194.09</ele>
<time>2019-05-30T12:44:04Z</time>
</trkpt>
<trkpt lat="49.665604" lon="10.115983">
<ele>193.933</ele>
<time>2019-05-30T12:44:05Z</time>
</trkpt>
<trkpt lat="49.6656" lon="10.115878">
<ele>193.828</ele>
<time>2019-05-30T12:44:06Z</time>
</trkpt>
<trkpt lat="49.6656" lon="10.115771">
<ele>193.713</ele>
<time>2019-05-30T12:44:07Z</time>
</trkpt>
<trkpt lat="49.665596" lon="10.115668">
<ele>193.63</ele>
<time>2019-05-30T12:44:08Z</time>
</trkpt>
<trkpt lat="49.665596" lon="10.115568">
<ele>193.577</ele>
<time>2019-05-30T12:44:09Z</time>
</trkpt>
<trkpt lat="49.665596" lon="10.115472">
<ele>193.551</ele>
<time>2019-05-30T12:44:10Z</time>
</trkpt>
<trkpt lat="49.6656" lon="10.115377">
<ele>193.551</ele>
<time>2019-05-30T12:44:11Z</time>
</trkpt>
<trkpt lat="49.665615" lon="10.115294">
<ele>193.551</ele>
<time>2019-05-30T12:44:12Z</time>
</trkpt>
<trkpt lat="49.665627" lon="10.115214">
<ele>193.551</ele>
<time>2019-05-30T12:44:13Z</time>
</trkpt>
<trkpt lat="49.665646" lon="10.11514">
<ele>193.551</ele>
<time>2019-05-30T12:44:14Z</time>
</trkpt>
<trkpt lat="49.665668" lon="10.115075">
<ele>193.551</ele>
<time>2019-05-30T12:44:15Z</time>
</trkpt>
<trkpt lat="49.665695" lon="10.115015">
<ele>193.727</ele>
<time>2019-05-30T12:44:16Z</time>
</trkpt>
<trkpt lat="49.665722" lon="10.114962">
<ele>193.894</ele>
<time>2019-05-30T12:44:17Z</time>
</trkpt>
<trkpt lat="49.665741" lon="10.114903">
<ele>194.037</ele>
<time>2019-05-30T12:44:18Z</time>
</trkpt>
<trkpt lat="49.665756" lon="10.11484">
<ele>194.155</ele>
<time>2019-05-30T12:44:19Z</time>
</trkpt>
<trkpt lat="49.66576" lon="10.114782">
<ele>194.252</ele>
<time>2019-05-30T12:44:20Z</time>
</trkpt>
<trkpt lat="49.665756" lon="10.114734">
<ele>194.321</ele>
<time>2019-05-30T12:44:21Z</time>
</trkpt>
<trkpt lat="49.665752" lon="10.11469">
<ele>194.366</ele>
<time>2019-05-30T12:44:22Z</time>
</trkpt>
<trkpt lat="49.665745" lon="10.114647">
<ele>194.389</ele>
<time>2019-05-30T12:44:23Z</time>
</trkpt>
<trkpt lat="49.66573" lon="10.114603">
<ele>194.389</ele>
<time>2019-05-30T12:44:24Z</time>
</trkpt>
<trkpt lat="49.665714" lon="10.11456">
<ele>194.389</ele>
<time>2019-05-30T12:44:25Z</time>
</trkpt>
<trkpt lat="49.665695" lon="10.114514">
<ele>194.389</ele>
<time>2019-05-30T12:44:26Z</time>
</trkpt>
<trkpt lat="49.665676" lon="10.114467">
<ele>194.389</ele>
<time>2019-05-30T12:44:27Z</time>
</trkpt>
<trkpt lat="49.665653" lon="10.114413">
<ele>194.389</ele>
<time>2019-05-30T12:44:28Z</time>
</trkpt>
<trkpt lat="49.66563" lon="10.114348">
<ele>194.389</ele>
<time>2019-05-30T12:44:29Z</time>
</trkpt>
<trkpt lat="49.665623" lon="10.114275">
<ele>194.389</ele>
<time>2019-05-30T12:44:30Z</time>
</trkpt>
<trkpt lat="49.665615" lon="10.114194">
<ele>194.389</ele>
<time>2019-05-30T12:44:31Z</time>
</trkpt>
<trkpt lat="49.665619" lon="10.114105">
<ele>194.389</ele>
<time>2019-05-30T12:44:32Z</time>
</trkpt>
<trkpt lat="49.665627" lon="10.114014">
<ele>194.389</ele>
<time>2019-05-30T12:44:33Z</time>
</trkpt>
<trkpt lat="49.665627" lon="10.113919">
<ele>194.157</ele>
<time>2019-05-30T12:44:34Z</time>
</trkpt>
<trkpt lat="49.665634" lon="10.113825">
<ele>193.984</ele>
<time>2019-05-30T12:44:35Z</time>
</trkpt>
<trkpt lat="49.665638" lon="10.11373">
<ele>193.877</ele>
<time>2019-05-30T12:44:36Z</time>
</trkpt>
<trkpt lat="49.665646" lon="10.113635">
<ele>193.767</ele>
<time>2019-05-30T12:44:37Z</time>
</trkpt>
<trkpt lat="49.665653" lon="10.11354">
<ele>193.443</ele>
<time>2019-05-30T12:44:38Z</time>
</trkpt>
<trkpt lat="49.665661" lon="10.11345">
<ele>193.193</ele>
<time>2019-05-30T12:44:39Z</time>
</trkpt>
<trkpt lat="49.665665" lon="10.11336">
<ele>193.001</ele>
<time>2019-05-30T12:44:40Z</time>
</trkpt>
<trkpt lat="49.665668" lon="10.11327">
<ele>192.86</ele>
<time>2019-05-30T12:44:41Z</time>
</trkpt>
<trkpt lat="49.665676" lon="10.11318">
<ele>192.702</ele>
<time>2019-05-30T12:44:42Z</time>
</trkpt>
<trkpt lat="49.66568" lon="10.113088">
<ele>192.653</ele>
<time>2019-05-30T12:44:43Z</time>
</trkpt>
<trkpt lat="49.665688" lon="10.113002">
<ele>192.629</ele>
<time>2019-05-30T12:44:44Z</time>
</trkpt>
<trkpt lat="49.665691" lon="10.112911">
<ele>192.629</ele>
<time>2019-05-30T12:44:45Z</time>
</trkpt>
<trkpt lat="49.665699" lon="10.112825">
<ele>192.629</ele>
<time>2019-05-30T12:44:46Z</time>
</trkpt>
<trkpt lat="49.665707" lon="10.112737">
<ele>192.629</ele>
<time>2019-05-30T12:44:47Z</time>
</trkpt>
<trkpt lat="49.665714" lon="10.112652">
<ele>192.629</ele>
<time>2019-05-30T12:44:48Z</time>
</trkpt>
<trkpt lat="49.665718" lon="10.112562">
<ele>192.629</ele>
<time>2019-05-30T12:44:49Z</time>
</trkpt>
<trkpt lat="49.665726" lon="10.112468">
<ele>192.629</ele>
<time>2019-05-30T12:44:50Z</time>
</trkpt>
<trkpt lat="49.665726" lon="10.112363">
<ele>192.629</ele>
<time>2019-05-30T12:44:51Z</time>
</trkpt>
<trkpt lat="49.66573" lon="10.112267">
<ele>192.629</ele>
<time>2019-05-30T12:44:52Z</time>
</trkpt>
<trkpt lat="49.665733" lon="10.112166">
<ele>192.629</ele>
<time>2019-05-30T12:44:53Z</time>
</trkpt>
<trkpt lat="49.665741" lon="10.112065">
<ele>192.629</ele>
<time>2019-05-30T12:44:54Z</time>
</trkpt>
<trkpt lat="49.665745" lon="10.111957">
<ele>192.629</ele>
<time>2019-05-30T12:44:55Z</time>
</trkpt>
<trkpt lat="49.665752" lon="10.111856">
<ele>192.629</ele>
<time>2019-05-30T12:44:56Z</time>
</trkpt>
<trkpt lat="49.66576" lon="10.111757">
<ele>192.629</ele>
<time>2019-05-30T12:44:57Z</time>
</trkpt>
<trkpt lat="49.665768" lon="10.111655">
<ele>192.629</ele>
<time>2019-05-30T12:44:58Z</time>
</trkpt>
<trkpt lat="49.665771" lon="10.111548">
<ele>192.629</ele>
<time>2019-05-30T12:44:59Z</time>
</trkpt>
<trkpt lat="49.665779" lon="10.111439">
<ele>192.629</ele>
<time>2019-05-30T12:45:00Z</time>
</trkpt>
<trkpt lat="49.665787" lon="10.111334">
<ele>192.629</ele>
<time>2019-05-30T12:45:01Z</time>
</trkpt>
<trkpt lat="49.665791" lon="10.111227">
<ele>192.629</ele>
<time>2019-05-30T12:45:02Z</time>
</trkpt>
<trkpt lat="49.665791" lon="10.111116">
<ele>192.629</ele>
<time>2019-05-30T12:45:03Z</time>
</trkpt>
<trkpt lat="49.665794" lon="10.111005">
<ele>192.629</ele>
<time>2019-05-30T12:45:04Z</time>
</trkpt>
<trkpt lat="49.665802" lon="10.110896">
<ele>192.629</ele>
<time>2019-05-30T12:45:05Z</time>
</trkpt>
<trkpt lat="49.665806" lon="10.110789">
<ele>192.629</ele>
<time>2019-05-30T12:45:06Z</time>
</trkpt>
<trkpt lat="49.66581" lon="10.110686">
<ele>192.629</ele>
<time>2019-05-30T12:45:07Z</time>
</trkpt>
<trkpt lat="49.665817" lon="10.11059">
<ele>192.629</ele>
<time>2019-05-30T12:45:08Z</time>
</trkpt>
<trkpt lat="49.665825" lon="10.110496">
<ele>192.629</ele>
<time>2019-05-30T12:45:09Z</time>
</trkpt>
<trkpt lat="49.665829" lon="10.110402">
<ele>192.629</ele>
<time>2019-05-30T12:45:10Z</time>
</trkpt>
<trkpt lat="49.665829" lon="10.110312">
<ele>192.87</ele>
<time>2019-05-30T12:45:11Z</time>
</trkpt>
<trkpt lat="49.665833" lon="10.110229">
<ele>193.061</ele>
<time>2019-05-30T12:45:12Z</time>
</trkpt>
<trkpt lat="49.665836" lon="10.110147">
<ele>193.21</ele>
<time>2019-05-30T12:45:13Z</time>
</trkpt>
<trkpt lat="49.665836" lon="10.11007">
<ele>193.301</ele>
<time>2019-05-30T12:45:14Z</time>
</trkpt>
<trkpt lat="49.665836" lon="10.11">
<ele>193.583</ele>
<time>2019-05-30T12:45:15Z</time>
</trkpt>
<trkpt lat="49.66584" lon="10.109939">
<ele>193.805</ele>
<time>2019-05-30T12:45:16Z</time>
</trkpt>
<trkpt lat="49.665844" lon="10.109877">
<ele>194.002</ele>
<time>2019-05-30T12:45:17Z</time>
</trkpt>
<trkpt lat="49.665848" lon="10.109813">
<ele>194.149</ele>
<time>2019-05-30T12:45:18Z</time>
</trkpt>
<trkpt lat="49.665855" lon="10.109748">
<ele>194.245</ele>
<time>2019-05-30T12:45:19Z</time>
</trkpt>
<trkpt lat="49.665855" lon="10.109687">
<ele>194.311</ele>
<time>2019-05-30T12:45:20Z</time>
</trkpt>
<trkpt lat="49.665863" lon="10.109631">
<ele>194.575</ele>
<time>2019-05-30T12:45:21Z</time>
</trkpt>
<trkpt lat="49.665878" lon="10.10958">
<ele>194.788</ele>
<time>2019-05-30T12:45:22Z</time>
</trkpt>
<trkpt lat="49.665897" lon="10.109524">
<ele>194.979</ele>
<time>2019-05-30T12:45:23Z</time>
</trkpt>
<trkpt lat="49.665916" lon="10.10946">
<ele>195.096</ele>
<time>2019-05-30T12:45:24Z</time>
</trkpt>
<trkpt lat="49.665924" lon="10.109385">
<ele>195.175</ele>
<time>2019-05-30T12:45:25Z</time>
</trkpt>
<trkpt lat="49.665932" lon="10.109312">
<ele>195.232</ele>
<time>2019-05-30T12:45:26Z</time>
</trkpt>
<trkpt lat="49.665939" lon="10.109237">
<ele>195.285</ele>
<time>2019-05-30T12:45:27Z</time>
</trkpt>
<trkpt lat="49.665947" lon="10.109159">
<ele>195.311</ele>
<time>2019-05-30T12:45:28Z</time>
</trkpt>
<trkpt lat="49.665955" lon="10.109085">
<ele>195.311</ele>
<time>2019-05-30T12:45:29Z</time>
</trkpt>
<trkpt lat="49.665958" lon="10.109012">
<ele>195.311</ele>
<time>2019-05-30T12:45:30Z</time>
</trkpt>
<trkpt lat="49.66597" lon="10.108933">
<ele>195.311</ele>
<time>2019-05-30T12:45:31Z</time>
</trkpt>
<trkpt lat="49.665981" lon="10.108855">
<ele>195.311</ele>
<time>2019-05-30T12:45:32Z</time>
</trkpt>
<trkpt lat="49.665989" lon="10.108775">
<ele>195.311</ele>
<time>2019-05-30T12:45:33Z</time>
</trkpt>
<trkpt lat="49.666" lon="10.108697">
<ele>195.311</ele>
<time>2019-05-30T12:45:34Z</time>
</trkpt>
<trkpt lat="49.666012" lon="10.108621">
<ele>195.311</ele>
<time>2019-05-30T12:45:35Z</time>
</trkpt>
<trkpt lat="49.666019" lon="10.108543">
<ele>195.311</ele>
<time>2019-05-30T12:45:36Z</time>
</trkpt>
<trkpt lat="49.666031" lon="10.108463">
<ele>195.311</ele>
<time>2019-05-30T12:45:37Z</time>
</trkpt>
<trkpt lat="49.666039" lon="10.108386">
<ele>195.311</ele>
<time>2019-05-30T12:45:38Z</time>
</trkpt>
<trkpt lat="49.66605" lon="10.108315">
<ele>195.311</ele>
<time>2019-05-30T12:45:39Z</time>
</trkpt>
<trkpt lat="49.666054" lon="10.108242">
<ele>195.311</ele>
<time>2019-05-30T12:45:40Z</time>
</trkpt>
<trkpt lat="49.666061" lon="10.108173">
<ele>195.088</ele>
<time>2019-05-30T12:45:41Z</time>
</trkpt>
<trkpt lat="49.666069" lon="10.1081">
<ele>194.913</ele>
<time>2019-05-30T12:45:42Z</time>
</trkpt>
<trkpt lat="49.66608" lon="10.108035">
<ele>194.778</ele>
<time>2019-05-30T12:45:43Z</time>
</trkpt>
<trkpt lat="49.666084" lon="10.107967">
<ele>194.677</ele>
<time>2019-05-30T12:45:44Z</time>
</trkpt>
<trkpt lat="49.666092" lon="10.1079">
<ele>194.602</ele>
<time>2019-05-30T12:45:45Z</time>
</trkpt>
<trkpt lat="49.6661" lon="10.107829">
<ele>194.546</ele>
<time>2019-05-30T12:45:46Z</time>
</trkpt>
<trkpt lat="49.666115" lon="10.107759">
<ele>194.496</ele>
<time>2019-05-30T12:45:47Z</time>
</trkpt>
<trkpt lat="49.666122" lon="10.107683">
<ele>194.473</ele>
<time>2019-05-30T12:45:48Z</time>
</trkpt>
<trkpt lat="49.666134" lon="10.10761">
<ele>194.473</ele>
<time>2019-05-30T12:45:49Z</time>
</trkpt>
<trkpt lat="49.666149" lon="10.107532">
<ele>194.473</ele>
<time>2019-05-30T12:45:50Z</time>
</trkpt>
<trkpt lat="49.666157" lon="10.107453">
<ele>194.473</ele>
<time>2019-05-30T12:45:51Z</time>
</trkpt>
<trkpt lat="49.666172" lon="10.107375">
<ele>194.473</ele>
<time>2019-05-30T12:45:52Z</time>
</trkpt>
<trkpt lat="49.666183" lon="10.107293">
<ele>194.473</ele>
<time>2019-05-30T12:45:53Z</time>
</trkpt>
<trkpt lat="49.666191" lon="10.107213">
<ele>194.473</ele>
<time>2019-05-30T12:45:54Z</time>
</trkpt>
<trkpt lat="49.666203" lon="10.10713">
<ele>194.473</ele>
<time>2019-05-30T12:45:55Z</time>
</trkpt>
<trkpt lat="49.666214" lon="10.107052">
<ele>194.473</ele>
<time>2019-05-30T12:45:56Z</time>
</trkpt>
<trkpt lat="49.666222" lon="10.106972">
<ele>194.473</ele>
<time>2019-05-30T12:45:57Z</time>
</trkpt>
<trkpt lat="49.666233" lon="10.10689">
<ele>194.473</ele>
<time>2019-05-30T12:45:58Z</time>
</trkpt>
<trkpt lat="49.666245" lon="10.106813">
<ele>194.473</ele>
<time>2019-05-30T12:45:59Z</time>
</trkpt>
<trkpt lat="49.666252" lon="10.106737">
<ele>194.473</ele>
<time>2019-05-30T12:46:00Z</time>
</trkpt>
<trkpt lat="49.666264" lon="10.106658">
<ele>194.473</ele>
<time>2019-05-30T12:46:01Z</time>
</trkpt>
<trkpt lat="49.666275" lon="10.106578">
<ele>194.473</ele>
<time>2019-05-30T12:46:02Z</time>
</trkpt>
<trkpt lat="49.666286" lon="10.106499">
<ele>194.473</ele>
<time>2019-05-30T12:46:03Z</time>
</trkpt>
<trkpt lat="49.666298" lon="10.106415">
<ele>194.22</ele>
<time>2019-05-30T12:46:04Z</time>
</trkpt>
<trkpt lat="49.666309" lon="10.106335">
<ele>194.021</ele>
<time>2019-05-30T12:46:05Z</time>
</trkpt>
<trkpt lat="49.666317" lon="10.106256">
<ele>193.884</ele>
<time>2019-05-30T12:46:06Z</time>
</trkpt>
<trkpt lat="49.666328" lon="10.106175">
<ele>193.735</ele>
<time>2019-05-30T12:46:07Z</time>
</trkpt>
<trkpt lat="49.666344" lon="10.106093">
<ele>193.623</ele>
<time>2019-05-30T12:46:08Z</time>
</trkpt>
<trkpt lat="49.666355" lon="10.106012">
<ele>193.543</ele>
<time>2019-05-30T12:46:09Z</time>
</trkpt>
<trkpt lat="49.666367" lon="10.105928">
<ele>193.492</ele>
<time>2019-05-30T12:46:10Z</time>
</trkpt>
<trkpt lat="49.666378" lon="10.105844">
<ele>193.467</ele>
<time>2019-05-30T12:46:11Z</time>
</trkpt>
<trkpt lat="49.666389" lon="10.105759">
<ele>193.467</ele>
<time>2019-05-30T12:46:12Z</time>
</trkpt>
<trkpt lat="49.666401" lon="10.10567">
<ele>193.467</ele>
<time>2019-05-30T12:46:13Z</time>
</trkpt>
<trkpt lat="49.666412" lon="10.105581">
<ele>193.467</ele>
<time>2019-05-30T12:46:14Z</time>
</trkpt>
<trkpt lat="49.666428" lon="10.105494">
<ele>193.467</ele>
<time>2019-05-30T12:46:15Z</time>
</trkpt>
<trkpt lat="49.666443" lon="10.1054">
<ele>193.467</ele>
<time>2019-05-30T12:46:16Z</time>
</trkpt>
<trkpt lat="49.666451" lon="10.105309">
<ele>193.467</ele>
<time>2019-05-30T12:46:17Z</time>
</trkpt>
<trkpt lat="49.666466" lon="10.105217">
<ele>193.133</ele>
<time>2019-05-30T12:46:18Z</time>
</trkpt>
<trkpt lat="49.666473" lon="10.105126">
<ele>192.883</ele>
<time>2019-05-30T12:46:19Z</time>
</trkpt>
<trkpt lat="49.666492" lon="10.105035">
<ele>192.696</ele>
<time>2019-05-30T12:46:20Z</time>
</trkpt>
<trkpt lat="49.666508" lon="10.104941">
<ele>192.559</ele>
<time>2019-05-30T12:46:21Z</time>
</trkpt>
<trkpt lat="49.666515" lon="10.10485">
<ele>192.462</ele>
<time>2019-05-30T12:46:22Z</time>
</trkpt>
<trkpt lat="49.666531" lon="10.10476">
<ele>192.404</ele>
<time>2019-05-30T12:46:23Z</time>
</trkpt>
<trkpt lat="49.666542" lon="10.10467">
<ele>192.382</ele>
<time>2019-05-30T12:46:24Z</time>
</trkpt>
<trkpt lat="49.666557" lon="10.104584">
<ele>192.378</ele>
<time>2019-05-30T12:46:25Z</time>
</trkpt>
<trkpt lat="49.666569" lon="10.104497">
<ele>192.378</ele>
<time>2019-05-30T12:46:26Z</time>
</trkpt>
<trkpt lat="49.66658" lon="10.104412">
<ele>192.378</ele>
<time>2019-05-30T12:46:27Z</time>
</trkpt>
<trkpt lat="49.666595" lon="10.104323">
<ele>192.378</ele>
<time>2019-05-30T12:46:28Z</time>
</trkpt>
<trkpt lat="49.666607" lon="10.104237">
<ele>192.378</ele>
<time>2019-05-30T12:46:29Z</time>
</trkpt>
<trkpt lat="49.666615" lon="10.104148">
<ele>192.378</ele>
<time>2019-05-30T12:46:30Z</time>
</trkpt>
<trkpt lat="49.666626" lon="10.104058">
<ele>192.378</ele>
<time>2019-05-30T12:46:31Z</time>
</trkpt>
<trkpt lat="49.666637" lon="10.10397">
<ele>192.378</ele>
<time>2019-05-30T12:46:32Z</time>
</trkpt>
<trkpt lat="49.666645" lon="10.103878">
<ele>192.378</ele>
<time>2019-05-30T12:46:33Z</time>
</trkpt>
<trkpt lat="49.666656" lon="10.103787">
<ele>192.378</ele>
<time>2019-05-30T12:46:34Z</time>
</trkpt>
<trkpt lat="49.666668" lon="10.103693">
<ele>192.378</ele>
<time>2019-05-30T12:46:35Z</time>
</trkpt>
<trkpt lat="49.666672" lon="10.103597">
<ele>192.378</ele>
<time>2019-05-30T12:46:36Z</time>
</trkpt>
<trkpt lat="49.666679" lon="10.103503">
<ele>192.378</ele>
<time>2019-05-30T12:46:37Z</time>
</trkpt>
<trkpt lat="49.666687" lon="10.103408">
<ele>192.378</ele>
<time>2019-05-30T12:46:38Z</time>
</trkpt>
<trkpt lat="49.666691" lon="10.103312">
<ele>192.378</ele>
<time>2019-05-30T12:46:39Z</time>
</trkpt>
<trkpt lat="49.666698" lon="10.103213">
<ele>192.378</ele>
<time>2019-05-30T12:46:40Z</time>
</trkpt>
<trkpt lat="49.666702" lon="10.10311">
<ele>192.378</ele>
<time>2019-05-30T12:46:41Z</time>
</trkpt>
<trkpt lat="49.666718" lon="10.10301">
<ele>192.129</ele>
<time>2019-05-30T12:46:42Z</time>
</trkpt>
<trkpt lat="49.666737" lon="10.10291">
<ele>191.937</ele>
<time>2019-05-30T12:46:43Z</time>
</trkpt>
<trkpt lat="49.666748" lon="10.102812">
<ele>191.792</ele>
<time>2019-05-30T12:46:44Z</time>
</trkpt>
<trkpt lat="49.666767" lon="10.102718">
<ele>191.68</ele>
<time>2019-05-30T12:46:45Z</time>
</trkpt>
<trkpt lat="49.666782" lon="10.102627">
<ele>191.606</ele>
<time>2019-05-30T12:46:46Z</time>
</trkpt>
<trkpt lat="49.666801" lon="10.102537">
<ele>191.529</ele>
<time>2019-05-30T12:46:47Z</time>
</trkpt>
<trkpt lat="49.666813" lon="10.102447">
<ele>191.48</ele>
<time>2019-05-30T12:46:48Z</time>
</trkpt>
<trkpt lat="49.666832" lon="10.102361">
<ele>191.456</ele>
<time>2019-05-30T12:46:49Z</time>
</trkpt>
<trkpt lat="49.666843" lon="10.102287">
<ele>191.456</ele>
<time>2019-05-30T12:46:50Z</time>
</trkpt>
<trkpt lat="49.666859" lon="10.102223">
<ele>191.456</ele>
<time>2019-05-30T12:46:51Z</time>
</trkpt>
<trkpt lat="49.66687" lon="10.102166">
<ele>191.456</ele>
<time>2019-05-30T12:46:52Z</time>
</trkpt>
<trkpt lat="49.666878" lon="10.102121">
<ele>191.456</ele>
<time>2019-05-30T12:46:53Z</time>
</trkpt>
<trkpt lat="49.666889" lon="10.102082">
<ele>191.456</ele>
<time>2019-05-30T12:46:54Z</time>
</trkpt>
<trkpt lat="49.666897" lon="10.102043">
<ele>191.456</ele>
<time>2019-05-30T12:46:55Z</time>
</trkpt>
<trkpt lat="49.666901" lon="10.102011">
<ele>191.456</ele>
<time>2019-05-30T12:46:56Z</time>
</trkpt>
<trkpt lat="49.666908" lon="10.101981">
<ele>191.456</ele>
<time>2019-05-30T12:46:57Z</time>
</trkpt>
<trkpt lat="49.666912" lon="10.101954">
<ele>191.456</ele>
<time>2019-05-30T12:46:58Z</time>
</trkpt>
<trkpt lat="49.666916" lon="10.101932">
<ele>191.456</ele>
<time>2019-05-30T12:46:59Z</time>
</trkpt>
<trkpt lat="49.666924" lon="10.101909">
<ele>191.456</ele>
<time>2019-05-30T12:47:00Z</time>
</trkpt>
<trkpt lat="49.666927" lon="10.10188">
<ele>191.456</ele>
<time>2019-05-30T12:47:01Z</time>
</trkpt>
<trkpt lat="49.666927" lon="10.101841">
<ele>191.456</ele>
<time>2019-05-30T12:47:02Z</time>
</trkpt>
<trkpt lat="49.666931" lon="10.1018">
<ele>191.456</ele>
<time>2019-05-30T12:47:03Z</time>
</trkpt>
<trkpt lat="49.666935" lon="10.101755">
<ele>191.456</ele>
<time>2019-05-30T12:47:04Z</time>
</trkpt>
<trkpt lat="49.666943" lon="10.101709">
<ele>191.456</ele>
<time>2019-05-30T12:47:05Z</time>
</trkpt>
<trkpt lat="49.66695" lon="10.101664">
<ele>191.456</ele>
<time>2019-05-30T12:47:06Z</time>
</trkpt>
<trkpt lat="49.666962" lon="10.101611">
<ele>191.456</ele>
<time>2019-05-30T12:47:07Z</time>
</trkpt>
<trkpt lat="49.666969" lon="10.101552">
<ele>191.456</ele>
<time>2019-05-30T12:47:08Z</time>
</trkpt>
<trkpt lat="49.666981" lon="10.101487">
<ele>191.456</ele>
<time>2019-05-30T12:47:09Z</time>
</trkpt>
<trkpt lat="49.666996" lon="10.101424">
<ele>191.456</ele>
<time>2019-05-30T12:47:10Z</time>
</trkpt>
<trkpt lat="49.667004" lon="10.101361">
<ele>191.456</ele>
<time>2019-05-30T12:47:11Z</time>
</trkpt>
<trkpt lat="49.667015" lon="10.101298">
<ele>191.456</ele>
<time>2019-05-30T12:47:12Z</time>
</trkpt>
<trkpt lat="49.667023" lon="10.101233">
<ele>191.456</ele>
<time>2019-05-30T12:47:13Z</time>
</trkpt>
<trkpt lat="49.66703" lon="10.101167">
<ele>191.456</ele>
<time>2019-05-30T12:47:14Z</time>
</trkpt>
<trkpt lat="49.667042" lon="10.101095">
<ele>191.456</ele>
<time>2019-05-30T12:47:15Z</time>
</trkpt>
<trkpt lat="49.667053" lon="10.10102">
<ele>191.456</ele>
<time>2019-05-30T12:47:16Z</time>
</trkpt>
<trkpt lat="49.667061" lon="10.100945">
<ele>191.456</ele>
<time>2019-05-30T12:47:17Z</time>
</trkpt>
<trkpt lat="49.667072" lon="10.100868">
<ele>191.456</ele>
<time>2019-05-30T12:47:18Z</time>
</trkpt>
<trkpt lat="49.66708" lon="10.10079">
<ele>191.456</ele>
<time>2019-05-30T12:47:19Z</time>
</trkpt>
<trkpt lat="49.667091" lon="10.10071">
<ele>191.456</ele>
<time>2019-05-30T12:47:20Z</time>
</trkpt>
<trkpt lat="49.667099" lon="10.10063">
<ele>191.173</ele>
<time>2019-05-30T12:47:21Z</time>
</trkpt>
<trkpt lat="49.667114" lon="10.100549">
<ele>190.956</ele>
<time>2019-05-30T12:47:22Z</time>
</trkpt>
<trkpt lat="49.667126" lon="10.100467">
<ele>190.796</ele>
<time>2019-05-30T12:47:23Z</time>
</trkpt>
<trkpt lat="49.667133" lon="10.100383">
<ele>190.68</ele>
<time>2019-05-30T12:47:24Z</time>
</trkpt>
<trkpt lat="49.667145" lon="10.100299">
<ele>190.593</ele>
<time>2019-05-30T12:47:25Z</time>
</trkpt>
<trkpt lat="49.667156" lon="10.100211">
<ele>190.532</ele>
<time>2019-05-30T12:47:26Z</time>
</trkpt>
<trkpt lat="49.66716" lon="10.100127">
<ele>190.477</ele>
<time>2019-05-30T12:47:27Z</time>
</trkpt>
<trkpt lat="49.667171" lon="10.100037">
<ele>190.451</ele>
<time>2019-05-30T12:47:28Z</time>
</trkpt>
<trkpt lat="49.667183" lon="10.099947">
<ele>190.451</ele>
<time>2019-05-30T12:47:29Z</time>
</trkpt>
<trkpt lat="49.667191" lon="10.099857">
<ele>190.451</ele>
<time>2019-05-30T12:47:30Z</time>
</trkpt>
<trkpt lat="49.667202" lon="10.099767">
<ele>190.451</ele>
<time>2019-05-30T12:47:31Z</time>
</trkpt>
<trkpt lat="49.66721" lon="10.099677">
<ele>190.451</ele>
<time>2019-05-30T12:47:32Z</time>
</trkpt>
<trkpt lat="49.667221" lon="10.09959">
<ele>190.451</ele>
<time>2019-05-30T12:47:33Z</time>
</trkpt>
<trkpt lat="49.667229" lon="10.099504">
<ele>190.451</ele>
<time>2019-05-30T12:47:34Z</time>
</trkpt>
<trkpt lat="49.667236" lon="10.099415">
<ele>190.451</ele>
<time>2019-05-30T12:47:35Z</time>
</trkpt>
<trkpt lat="49.667244" lon="10.099325">
<ele>190.451</ele>
<time>2019-05-30T12:47:36Z</time>
</trkpt>
<trkpt lat="49.667255" lon="10.099236">
<ele>190.228</ele>
<time>2019-05-30T12:47:37Z</time>
</trkpt>
<trkpt lat="49.667259" lon="10.09915">
<ele>190.04</ele>
<time>2019-05-30T12:47:38Z</time>
</trkpt>
<trkpt lat="49.667267" lon="10.099058">
<ele>189.885</ele>
<time>2019-05-30T12:47:39Z</time>
</trkpt>
<trkpt lat="49.667271" lon="10.098967">
<ele>189.759</ele>
<time>2019-05-30T12:47:40Z</time>
</trkpt>
<trkpt lat="49.667278" lon="10.098877">
<ele>189.663</ele>
<time>2019-05-30T12:47:41Z</time>
</trkpt>
<trkpt lat="49.667286" lon="10.098788">
<ele>189.594</ele>
<time>2019-05-30T12:47:42Z</time>
</trkpt>
<trkpt lat="49.66729" lon="10.098701">
<ele>189.551</ele>
<time>2019-05-30T12:47:43Z</time>
</trkpt>
<trkpt lat="49.667297" lon="10.098615">
<ele>189.53</ele>
<time>2019-05-30T12:47:44Z</time>
</trkpt>
<trkpt lat="49.667305" lon="10.098529">
<ele>189.529</ele>
<time>2019-05-30T12:47:45Z</time>
</trkpt>
<trkpt lat="49.667313" lon="10.09844">
<ele>189.529</ele>
<time>2019-05-30T12:47:46Z</time>
</trkpt>
<trkpt lat="49.66732" lon="10.098351">
<ele>189.529</ele>
<time>2019-05-30T12:47:47Z</time>
</trkpt>
<trkpt lat="49.667324" lon="10.098263">
<ele>189.529</ele>
<time>2019-05-30T12:47:48Z</time>
</trkpt>
<trkpt lat="49.667332" lon="10.098175">
<ele>189.529</ele>
<time>2019-05-30T12:47:49Z</time>
</trkpt>
<trkpt lat="49.667339" lon="10.09809">
<ele>189.53</ele>
<time>2019-05-30T12:47:50Z</time>
</trkpt>
<trkpt lat="49.667347" lon="10.098007">
<ele>189.529</ele>
<time>2019-05-30T12:47:51Z</time>
</trkpt>
<trkpt lat="49.667351" lon="10.097925">
<ele>189.529</ele>
<time>2019-05-30T12:47:52Z</time>
</trkpt>
<trkpt lat="49.667355" lon="10.097846">
<ele>189.53</ele>
<time>2019-05-30T12:47:53Z</time>
</trkpt>
<trkpt lat="49.667362" lon="10.097767">
<ele>189.53</ele>
<time>2019-05-30T12:47:54Z</time>
</trkpt>
<trkpt lat="49.667366" lon="10.097687">
<ele>189.529</ele>
<time>2019-05-30T12:47:55Z</time>
</trkpt>
<trkpt lat="49.66737" lon="10.09761">
<ele>189.53</ele>
<time>2019-05-30T12:47:56Z</time>
</trkpt>
<trkpt lat="49.667377" lon="10.097531">
<ele>189.53</ele>
<time>2019-05-30T12:47:57Z</time>
</trkpt>
<trkpt lat="49.667381" lon="10.097452">
<ele>189.53</ele>
<time>2019-05-30T12:47:58Z</time>
</trkpt>
<trkpt lat="49.667385" lon="10.097373">
<ele>189.53</ele>
<time>2019-05-30T12:47:59Z</time>
</trkpt>
<trkpt lat="49.667389" lon="10.097299">
<ele>189.81</ele>
<time>2019-05-30T12:48:00Z</time>
</trkpt>
<trkpt lat="49.667389" lon="10.097225">
<ele>190.029</ele>
<time>2019-05-30T12:48:01Z</time>
</trkpt>
<trkpt lat="49.667393" lon="10.097152">
<ele>190.192</ele>
<time>2019-05-30T12:48:02Z</time>
</trkpt>
<trkpt lat="49.667397" lon="10.097076">
<ele>190.316</ele>
<time>2019-05-30T12:48:03Z</time>
</trkpt>
<trkpt lat="49.667397" lon="10.097002">
<ele>190.403</ele>
<time>2019-05-30T12:48:04Z</time>
</trkpt>
<trkpt lat="49.6674" lon="10.096924">
<ele>190.461</ele>
<time>2019-05-30T12:48:05Z</time>
</trkpt>
<trkpt lat="49.667404" lon="10.096845">
<ele>190.506</ele>
<time>2019-05-30T12:48:06Z</time>
</trkpt>
<trkpt lat="49.667408" lon="10.096763">
<ele>190.329</ele>
<time>2019-05-30T12:48:07Z</time>
</trkpt>
<trkpt lat="49.667412" lon="10.096682">
<ele>190.278</ele>
<time>2019-05-30T12:48:08Z</time>
</trkpt>
<trkpt lat="49.667412" lon="10.096601">
<ele>190.084</ele>
<time>2019-05-30T12:48:09Z</time>
</trkpt>
<trkpt lat="49.667412" lon="10.096519">
<ele>189.936</ele>
<time>2019-05-30T12:48:10Z</time>
</trkpt>
<trkpt lat="49.667412" lon="10.09644">
<ele>189.835</ele>
<time>2019-05-30T12:48:11Z</time>
</trkpt>
<trkpt lat="49.667412" lon="10.096358">
<ele>189.764</ele>
<time>2019-05-30T12:48:12Z</time>
</trkpt>
<trkpt lat="49.667412" lon="10.096278">
<ele>189.721</ele>
<time>2019-05-30T12:48:13Z</time>
</trkpt>
<trkpt lat="49.667412" lon="10.096202">
<ele>189.7</ele>
<time>2019-05-30T12:48:14Z</time>
</trkpt>
<trkpt lat="49.667412" lon="10.096126">
<ele>189.697</ele>
<time>2019-05-30T12:48:15Z</time>
</trkpt>
<trkpt lat="49.667412" lon="10.096046">
<ele>189.697</ele>
<time>2019-05-30T12:48:16Z</time>
</trkpt>
<trkpt lat="49.667408" lon="10.095964">
<ele>189.697</ele>
<time>2019-05-30T12:48:17Z</time>
</trkpt>
<trkpt lat="49.667408" lon="10.095889">
<ele>189.697</ele>
<time>2019-05-30T12:48:18Z</time>
</trkpt>
<trkpt lat="49.667408" lon="10.095812">
<ele>189.697</ele>
<time>2019-05-30T12:48:19Z</time>
</trkpt>
<trkpt lat="49.667408" lon="10.095734">
<ele>189.697</ele>
<time>2019-05-30T12:48:20Z</time>
</trkpt>
<trkpt lat="49.667408" lon="10.095656">
<ele>189.697</ele>
<time>2019-05-30T12:48:21Z</time>
</trkpt>
<trkpt lat="49.667404" lon="10.095578">
<ele>189.697</ele>
<time>2019-05-30T12:48:22Z</time>
</trkpt>
<trkpt lat="49.6674" lon="10.095504">
<ele>189.697</ele>
<time>2019-05-30T12:48:23Z</time>
</trkpt>
<trkpt lat="49.667397" lon="10.095427">
<ele>189.697</ele>
<time>2019-05-30T12:48:24Z</time>
</trkpt>
<trkpt lat="49.667393" lon="10.095353">
<ele>189.697</ele>
<time>2019-05-30T12:48:25Z</time>
</trkpt>
<trkpt lat="49.667393" lon="10.095279">
<ele>189.697</ele>
<time>2019-05-30T12:48:26Z</time>
</trkpt>
<trkpt lat="49.667393" lon="10.095203">
<ele>189.697</ele>
<time>2019-05-30T12:48:27Z</time>
</trkpt>
<trkpt lat="49.667389" lon="10.095128">
<ele>189.697</ele>
<time>2019-05-30T12:48:28Z</time>
</trkpt>
<trkpt lat="49.667389" lon="10.095057">
<ele>189.697</ele>
<time>2019-05-30T12:48:29Z</time>
</trkpt>
<trkpt lat="49.667389" lon="10.094984">
<ele>189.697</ele>
<time>2019-05-30T12:48:30Z</time>
</trkpt>
<trkpt lat="49.667385" lon="10.094911">
<ele>189.697</ele>
<time>2019-05-30T12:48:31Z</time>
</trkpt>
<trkpt lat="49.667385" lon="10.094833">
<ele>189.697</ele>
<time>2019-05-30T12:48:32Z</time>
</trkpt>
<trkpt lat="49.667381" lon="10.094755">
<ele>189.697</ele>
<time>2019-05-30T12:48:33Z</time>
</trkpt>
<trkpt lat="49.667381" lon="10.094678">
<ele>189.697</ele>
<time>2019-05-30T12:48:34Z</time>
</trkpt>
<trkpt lat="49.667377" lon="10.094603">
<ele>189.697</ele>
<time>2019-05-30T12:48:35Z</time>
</trkpt>
<trkpt lat="49.667374" lon="10.094528">
<ele>189.697</ele>
<time>2019-05-30T12:48:36Z</time>
</trkpt>
<trkpt lat="49.667374" lon="10.094454">
<ele>189.697</ele>
<time>2019-05-30T12:48:37Z</time>
</trkpt>
<trkpt lat="49.66737" lon="10.094378">
<ele>189.949</ele>
<time>2019-05-30T12:48:38Z</time>
</trkpt>
<trkpt lat="49.66737" lon="10.094301">
<ele>190.142</ele>
<time>2019-05-30T12:48:39Z</time>
</trkpt>
<trkpt lat="49.667366" lon="10.094223">
<ele>190.286</ele>
<time>2019-05-30T12:48:40Z</time>
</trkpt>
<trkpt lat="49.667362" lon="10.094147">
<ele>190.39</ele>
<time>2019-05-30T12:48:41Z</time>
</trkpt>
<trkpt lat="49.667362" lon="10.09407">
<ele>190.465</ele>
<time>2019-05-30T12:48:42Z</time>
</trkpt>
<trkpt lat="49.667358" lon="10.093991">
<ele>190.514</ele>
<time>2019-05-30T12:48:43Z</time>
</trkpt>
<trkpt lat="49.667355" lon="10.093913">
<ele>190.535</ele>
<time>2019-05-30T12:48:44Z</time>
</trkpt>
<trkpt lat="49.667355" lon="10.093836">
<ele>190.535</ele>
<time>2019-05-30T12:48:45Z</time>
</trkpt>
<trkpt lat="49.667355" lon="10.093762">
<ele>190.535</ele>
<time>2019-05-30T12:48:46Z</time>
</trkpt>
<trkpt lat="49.667351" lon="10.09369">
<ele>190.535</ele>
<time>2019-05-30T12:48:47Z</time>
</trkpt>
<trkpt lat="49.667351" lon="10.093618">
<ele>190.535</ele>
<time>2019-05-30T12:48:48Z</time>
</trkpt>
<trkpt lat="49.667347" lon="10.093551">
<ele>190.535</ele>
<time>2019-05-30T12:48:49Z</time>
</trkpt>
<trkpt lat="49.667339" lon="10.093482">
<ele>190.535</ele>
<time>2019-05-30T12:48:50Z</time>
</trkpt>
<trkpt lat="49.667336" lon="10.09341">
<ele>190.535</ele>
<time>2019-05-30T12:48:51Z</time>
</trkpt>
<trkpt lat="49.667336" lon="10.093339">
<ele>190.535</ele>
<time>2019-05-30T12:48:52Z</time>
</trkpt>
<trkpt lat="49.667332" lon="10.09327">
<ele>190.535</ele>
<time>2019-05-30T12:48:53Z</time>
</trkpt>
<trkpt lat="49.667332" lon="10.093204">
<ele>190.535</ele>
<time>2019-05-30T12:48:54Z</time>
</trkpt>
<trkpt lat="49.667328" lon="10.093139">
<ele>190.535</ele>
<time>2019-05-30T12:48:55Z</time>
</trkpt>
<trkpt lat="49.667324" lon="10.093073">
<ele>190.535</ele>
<time>2019-05-30T12:48:56Z</time>
</trkpt>
<trkpt lat="49.667324" lon="10.093008">
<ele>190.535</ele>
<time>2019-05-30T12:48:57Z</time>
</trkpt>
<trkpt lat="49.667324" lon="10.092945">
<ele>190.535</ele>
<time>2019-05-30T12:48:58Z</time>
</trkpt>
<trkpt lat="49.667324" lon="10.092882">
<ele>190.535</ele>
<time>2019-05-30T12:48:59Z</time>
</trkpt>
<trkpt lat="49.667324" lon="10.09282">
<ele>190.535</ele>
<time>2019-05-30T12:49:00Z</time>
</trkpt>
<trkpt lat="49.667324" lon="10.092763">
<ele>190.535</ele>
<time>2019-05-30T12:49:01Z</time>
</trkpt>
<trkpt lat="49.667324" lon="10.092709">
<ele>190.535</ele>
<time>2019-05-30T12:49:02Z</time>
</trkpt>
<trkpt lat="49.667324" lon="10.092654">
<ele>190.535</ele>
<time>2019-05-30T12:49:03Z</time>
</trkpt>
<trkpt lat="49.66732" lon="10.092606">
<ele>190.535</ele>
<time>2019-05-30T12:49:04Z</time>
</trkpt>
<trkpt lat="49.667316" lon="10.092553">
<ele>190.535</ele>
<time>2019-05-30T12:49:05Z</time>
</trkpt>
<trkpt lat="49.667316" lon="10.0925">
<ele>190.535</ele>
<time>2019-05-30T12:49:06Z</time>
</trkpt>
<trkpt lat="49.667316" lon="10.092446">
<ele>190.535</ele>
<time>2019-05-30T12:49:07Z</time>
</trkpt>
<trkpt lat="49.667313" lon="10.092397">
<ele>190.535</ele>
<time>2019-05-30T12:49:08Z</time>
</trkpt>
<trkpt lat="49.667309" lon="10.092352">
<ele>190.535</ele>
<time>2019-05-30T12:49:09Z</time>
</trkpt>
<trkpt lat="49.667309" lon="10.092315">
<ele>190.783</ele>
<time>2019-05-30T12:49:10Z</time>
</trkpt>
<trkpt lat="49.667313" lon="10.092283">
<ele>190.974</ele>
<time>2019-05-30T12:49:11Z</time>
</trkpt>
<trkpt lat="49.66732" lon="10.09226">
<ele>191.122</ele>
<time>2019-05-30T12:49:12Z</time>
</trkpt>
<trkpt lat="49.667328" lon="10.092238">
<ele>191.236</ele>
<time>2019-05-30T12:49:13Z</time>
</trkpt>
<trkpt lat="49.667347" lon="10.092218">
<ele>191.311</ele>
<time>2019-05-30T12:49:14Z</time>
</trkpt>
<trkpt lat="49.667374" lon="10.092208">
<ele>191.372</ele>
<time>2019-05-30T12:49:15Z</time>
</trkpt>
<trkpt lat="49.667404" lon="10.092203">
<ele>191.423</ele>
<time>2019-05-30T12:49:16Z</time>
</trkpt>
<trkpt lat="49.667439" lon="10.092205">
<ele>191.456</ele>
<time>2019-05-30T12:49:17Z</time>
</trkpt>
<trkpt lat="49.667477" lon="10.092212">
<ele>191.456</ele>
<time>2019-05-30T12:49:18Z</time>
</trkpt>
<trkpt lat="49.667511" lon="10.092225">
<ele>191.109</ele>
<time>2019-05-30T12:49:19Z</time>
</trkpt>
<trkpt lat="49.667549" lon="10.092239">
<ele>190.913</ele>
<time>2019-05-30T12:49:20Z</time>
</trkpt>
<trkpt lat="49.667583" lon="10.092258">
<ele>190.378</ele>
<time>2019-05-30T12:49:21Z</time>
</trkpt>
<trkpt lat="49.667625" lon="10.092279">
<ele>190.009</ele>
<time>2019-05-30T12:49:22Z</time>
</trkpt>
<trkpt lat="49.667667" lon="10.092306">
<ele>189.765</ele>
<time>2019-05-30T12:49:23Z</time>
</trkpt>
<trkpt lat="49.667713" lon="10.092334">
<ele>189.572</ele>
<time>2019-05-30T12:49:24Z</time>
</trkpt>
<trkpt lat="49.667763" lon="10.092361">
<ele>189.454</ele>
<time>2019-05-30T12:49:25Z</time>
</trkpt>
<trkpt lat="49.667812" lon="10.092392">
<ele>189.369</ele>
<time>2019-05-30T12:49:26Z</time>
</trkpt>
<trkpt lat="49.667862" lon="10.092418">
<ele>189.307</ele>
<time>2019-05-30T12:49:27Z</time>
</trkpt>
<trkpt lat="49.667912" lon="10.092444">
<ele>189.037</ele>
<time>2019-05-30T12:49:28Z</time>
</trkpt>
<trkpt lat="49.667969" lon="10.092465">
<ele>188.766</ele>
<time>2019-05-30T12:49:29Z</time>
</trkpt>
<trkpt lat="49.668022" lon="10.092483">
<ele>188.609</ele>
<time>2019-05-30T12:49:30Z</time>
</trkpt>
<trkpt lat="49.668076" lon="10.092495">
<ele>188.5</ele>
<time>2019-05-30T12:49:31Z</time>
</trkpt>
<trkpt lat="49.668137" lon="10.092504">
<ele>188.426</ele>
<time>2019-05-30T12:49:32Z</time>
</trkpt>
<trkpt lat="49.668194" lon="10.09251">
<ele>188.382</ele>
<time>2019-05-30T12:49:33Z</time>
</trkpt>
<trkpt lat="49.668251" lon="10.092515">
<ele>188.357</ele>
<time>2019-05-30T12:49:34Z</time>
</trkpt>
<trkpt lat="49.668304" lon="10.09252">
<ele>188.13</ele>
<time>2019-05-30T12:49:35Z</time>
</trkpt>
<trkpt lat="49.668362" lon="10.092528">
<ele>187.97</ele>
<time>2019-05-30T12:49:36Z</time>
</trkpt>
<trkpt lat="49.668415" lon="10.092537">
<ele>187.808</ele>
<time>2019-05-30T12:49:37Z</time>
</trkpt>
<trkpt lat="49.668468" lon="10.092546">
<ele>187.679</ele>
<time>2019-05-30T12:49:38Z</time>
</trkpt>
<trkpt lat="49.668522" lon="10.092555">
<ele>187.579</ele>
<time>2019-05-30T12:49:39Z</time>
</trkpt>
<trkpt lat="49.668564" lon="10.092556">
<ele>187.506</ele>
<time>2019-05-30T12:49:40Z</time>
</trkpt>
<trkpt lat="49.668606" lon="10.092544">
<ele>187.459</ele>
<time>2019-05-30T12:49:41Z</time>
</trkpt>
<trkpt lat="49.668629" lon="10.092516">
<ele>187.436</ele>
<time>2019-05-30T12:49:42Z</time>
</trkpt>
<trkpt lat="49.668652" lon="10.092474">
<ele>187.436</ele>
<time>2019-05-30T12:49:43Z</time>
</trkpt>
<trkpt lat="49.668667" lon="10.092423">
<ele>187.436</ele>
<time>2019-05-30T12:49:44Z</time>
</trkpt>
<trkpt lat="49.668686" lon="10.092363">
<ele>187.436</ele>
<time>2019-05-30T12:49:45Z</time>
</trkpt>
<trkpt lat="49.668697" lon="10.0923">
<ele>187.261</ele>
<time>2019-05-30T12:49:46Z</time>
</trkpt>
<trkpt lat="49.668713" lon="10.092232">
<ele>187.082</ele>
<time>2019-05-30T12:49:47Z</time>
</trkpt>
<trkpt lat="49.668724" lon="10.092158">
<ele>186.923</ele>
<time>2019-05-30T12:49:48Z</time>
</trkpt>
<trkpt lat="49.668732" lon="10.092084">
<ele>186.795</ele>
<time>2019-05-30T12:49:49Z</time>
</trkpt>
<trkpt lat="49.668747" lon="10.092007">
<ele>186.703</ele>
<time>2019-05-30T12:49:50Z</time>
</trkpt>
<trkpt lat="49.668758" lon="10.091933">
<ele>186.649</ele>
<time>2019-05-30T12:49:51Z</time>
</trkpt>
<trkpt lat="49.668762" lon="10.091858">
<ele>186.614</ele>
<time>2019-05-30T12:49:52Z</time>
</trkpt>
<trkpt lat="49.668774" lon="10.091788">
<ele>186.598</ele>
<time>2019-05-30T12:49:53Z</time>
</trkpt>
<trkpt lat="49.668789" lon="10.09173">
<ele>186.598</ele>
<time>2019-05-30T12:49:54Z</time>
</trkpt>
<trkpt lat="49.668797" lon="10.091661">
<ele>186.598</ele>
<time>2019-05-30T12:49:55Z</time>
</trkpt>
<trkpt lat="49.668812" lon="10.09159">
<ele>186.598</ele>
<time>2019-05-30T12:49:56Z</time>
</trkpt>
<trkpt lat="49.668823" lon="10.091521">
<ele>186.598</ele>
<time>2019-05-30T12:49:57Z</time>
</trkpt>
<trkpt lat="49.668835" lon="10.091445">
<ele>186.598</ele>
<time>2019-05-30T12:49:58Z</time>
</trkpt>
<trkpt lat="49.668839" lon="10.091362">
<ele>186.598</ele>
<time>2019-05-30T12:49:59Z</time>
</trkpt>
<trkpt lat="49.668842" lon="10.091277">
<ele>186.89</ele>
<time>2019-05-30T12:50:00Z</time>
</trkpt>
<trkpt lat="49.668854" lon="10.091196">
<ele>187.119</ele>
<time>2019-05-30T12:50:01Z</time>
</trkpt>
<trkpt lat="49.668858" lon="10.091121">
<ele>187.288</ele>
<time>2019-05-30T12:50:02Z</time>
</trkpt>
<trkpt lat="49.668869" lon="10.091051">
<ele>187.401</ele>
<time>2019-05-30T12:50:03Z</time>
</trkpt>
<trkpt lat="49.668884" lon="10.090979">
<ele>187.483</ele>
<time>2019-05-30T12:50:04Z</time>
</trkpt>
<trkpt lat="49.668892" lon="10.090901">
<ele>187.535</ele>
<time>2019-05-30T12:50:05Z</time>
</trkpt>
<trkpt lat="49.668896" lon="10.090823">
<ele>187.575</ele>
<time>2019-05-30T12:50:06Z</time>
</trkpt>
<trkpt lat="49.6689" lon="10.090745">
<ele>187.603</ele>
<time>2019-05-30T12:50:07Z</time>
</trkpt>
<trkpt lat="49.668907" lon="10.09066">
<ele>187.603</ele>
<time>2019-05-30T12:50:08Z</time>
</trkpt>
<trkpt lat="49.668915" lon="10.090578">
<ele>187.603</ele>
<time>2019-05-30T12:50:09Z</time>
</trkpt>
<trkpt lat="49.668919" lon="10.090502">
<ele>187.603</ele>
<time>2019-05-30T12:50:10Z</time>
</trkpt>
<trkpt lat="49.668926" lon="10.090428">
<ele>187.603</ele>
<time>2019-05-30T12:50:11Z</time>
</trkpt>
<trkpt lat="49.668934" lon="10.09035">
<ele>187.603</ele>
<time>2019-05-30T12:50:12Z</time>
</trkpt>
<trkpt lat="49.668938" lon="10.090277">
<ele>187.603</ele>
<time>2019-05-30T12:50:13Z</time>
</trkpt>
<trkpt lat="49.668941" lon="10.090207">
<ele>187.603</ele>
<time>2019-05-30T12:50:14Z</time>
</trkpt>
<trkpt lat="49.668949" lon="10.090145">
<ele>187.603</ele>
<time>2019-05-30T12:50:15Z</time>
</trkpt>
<trkpt lat="49.668957" lon="10.090085">
<ele>187.603</ele>
<time>2019-05-30T12:50:16Z</time>
</trkpt>
<trkpt lat="49.668961" lon="10.090023">
<ele>187.603</ele>
<time>2019-05-30T12:50:17Z</time>
</trkpt>
<trkpt lat="49.668964" lon="10.089962">
<ele>187.603</ele>
<time>2019-05-30T12:50:18Z</time>
</trkpt>
<trkpt lat="49.668961" lon="10.089905">
<ele>187.603</ele>
<time>2019-05-30T12:50:19Z</time>
</trkpt>
<trkpt lat="49.668968" lon="10.08985">
<ele>187.603</ele>
<time>2019-05-30T12:50:20Z</time>
</trkpt>
<trkpt lat="49.668972" lon="10.089797">
<ele>187.603</ele>
<time>2019-05-30T12:50:21Z</time>
</trkpt>
<trkpt lat="49.668976" lon="10.089731">
<ele>187.603</ele>
<time>2019-05-30T12:50:22Z</time>
</trkpt>
<trkpt lat="49.66898" lon="10.089648">
<ele>187.603</ele>
<time>2019-05-30T12:50:23Z</time>
</trkpt>
<trkpt lat="49.668976" lon="10.089575">
<ele>187.603</ele>
<time>2019-05-30T12:50:24Z</time>
</trkpt>
<trkpt lat="49.668976" lon="10.08951">
<ele>187.603</ele>
<time>2019-05-30T12:50:25Z</time>
</trkpt>
<trkpt lat="49.668968" lon="10.089459">
<ele>187.797</ele>
<time>2019-05-30T12:50:26Z</time>
</trkpt>
<trkpt lat="49.668961" lon="10.089396">
<ele>187.976</ele>
<time>2019-05-30T12:50:27Z</time>
</trkpt>
<trkpt lat="49.668953" lon="10.08933">
<ele>188.118</ele>
<time>2019-05-30T12:50:28Z</time>
</trkpt>
<trkpt lat="49.668953" lon="10.089252">
<ele>188.229</ele>
<time>2019-05-30T12:50:29Z</time>
</trkpt>
<trkpt lat="49.668953" lon="10.089166">
<ele>188.309</ele>
<time>2019-05-30T12:50:30Z</time>
</trkpt>
<trkpt lat="49.668953" lon="10.089075">
<ele>188.372</ele>
<time>2019-05-30T12:50:31Z</time>
</trkpt>
<trkpt lat="49.668953" lon="10.088994">
<ele>188.419</ele>
<time>2019-05-30T12:50:32Z</time>
</trkpt>
<trkpt lat="49.668957" lon="10.08891">
<ele>188.441</ele>
<time>2019-05-30T12:50:33Z</time>
</trkpt>
<trkpt lat="49.668957" lon="10.088823">
<ele>188.441</ele>
<time>2019-05-30T12:50:34Z</time>
</trkpt>
<trkpt lat="49.668964" lon="10.088747">
<ele>188.441</ele>
<time>2019-05-30T12:50:35Z</time>
</trkpt>
<trkpt lat="49.668968" lon="10.088669">
<ele>188.441</ele>
<time>2019-05-30T12:50:36Z</time>
</trkpt>
<trkpt lat="49.668976" lon="10.088595">
<ele>188.441</ele>
<time>2019-05-30T12:50:37Z</time>
</trkpt>
<trkpt lat="49.668983" lon="10.088522">
<ele>188.441</ele>
<time>2019-05-30T12:50:38Z</time>
</trkpt>
<trkpt lat="49.668987" lon="10.088455">
<ele>188.441</ele>
<time>2019-05-30T12:50:39Z</time>
</trkpt>
<trkpt lat="49.668995" lon="10.088393">
<ele>188.44</ele>
<time>2019-05-30T12:50:40Z</time>
</trkpt>
<trkpt lat="49.66901" lon="10.088343">
<ele>188.441</ele>
<time>2019-05-30T12:50:41Z</time>
</trkpt>
<trkpt lat="49.669022" lon="10.088306">
<ele>188.441</ele>
<time>2019-05-30T12:50:42Z</time>
</trkpt>
<trkpt lat="49.669025" lon="10.088269">
<ele>188.441</ele>
<time>2019-05-30T12:50:43Z</time>
</trkpt>
<trkpt lat="49.669025" lon="10.088227">
<ele>188.441</ele>
<time>2019-05-30T12:50:44Z</time>
</trkpt>
<trkpt lat="49.669029" lon="10.088183">
<ele>188.441</ele>
<time>2019-05-30T12:50:45Z</time>
</trkpt>
<trkpt lat="49.669037" lon="10.088145">
<ele>188.441</ele>
<time>2019-05-30T12:50:46Z</time>
</trkpt>
<trkpt lat="49.669041" lon="10.08811">
<ele>188.441</ele>
<time>2019-05-30T12:50:47Z</time>
</trkpt>
<trkpt lat="49.669044" lon="10.088072">
<ele>188.441</ele>
<time>2019-05-30T12:50:48Z</time>
</trkpt>
<trkpt lat="49.669048" lon="10.088035">
<ele>188.441</ele>
<time>2019-05-30T12:50:49Z</time>
</trkpt>
<trkpt lat="49.669052" lon="10.087992">
<ele>188.441</ele>
<time>2019-05-30T12:50:50Z</time>
</trkpt>
<trkpt lat="49.669052" lon="10.087945">
<ele>188.441</ele>
<time>2019-05-30T12:50:51Z</time>
</trkpt>
<trkpt lat="49.669048" lon="10.087905">
<ele>188.441</ele>
<time>2019-05-30T12:50:52Z</time>
</trkpt>
<trkpt lat="49.669041" lon="10.087869">
<ele>188.441</ele>
<time>2019-05-30T12:50:53Z</time>
</trkpt>
<trkpt lat="49.669033" lon="10.08783">
<ele>188.441</ele>
<time>2019-05-30T12:50:54Z</time>
</trkpt>
<trkpt lat="49.669033" lon="10.087785">
<ele>188.441</ele>
<time>2019-05-30T12:50:55Z</time>
</trkpt>
<trkpt lat="49.669033" lon="10.087739">
<ele>188.441</ele>
<time>2019-05-30T12:50:56Z</time>
</trkpt>
<trkpt lat="49.669037" lon="10.087687">
<ele>188.441</ele>
<time>2019-05-30T12:50:57Z</time>
</trkpt>
<trkpt lat="49.669037" lon="10.087635">
<ele>188.441</ele>
<time>2019-05-30T12:50:58Z</time>
</trkpt>
<trkpt lat="49.669037" lon="10.087573">
<ele>188.441</ele>
<time>2019-05-30T12:50:59Z</time>
</trkpt>
<trkpt lat="49.669037" lon="10.087506">
<ele>188.441</ele>
<time>2019-05-30T12:51:00Z</time>
</trkpt>
<trkpt lat="49.669037" lon="10.087446">
<ele>188.441</ele>
<time>2019-05-30T12:51:01Z</time>
</trkpt>
<trkpt lat="49.669033" lon="10.087385">
<ele>188.441</ele>
<time>2019-05-30T12:51:02Z</time>
</trkpt>
<trkpt lat="49.669025" lon="10.087324">
<ele>188.441</ele>
<time>2019-05-30T12:51:03Z</time>
</trkpt>
<trkpt lat="49.669022" lon="10.087255">
<ele>188.441</ele>
<time>2019-05-30T12:51:04Z</time>
</trkpt>
<trkpt lat="49.669018" lon="10.087182">
<ele>188.441</ele>
<time>2019-05-30T12:51:05Z</time>
</trkpt>
<trkpt lat="49.669014" lon="10.087102">
<ele>188.441</ele>
<time>2019-05-30T12:51:06Z</time>
</trkpt>
<trkpt lat="49.669006" lon="10.08702">
<ele>188.441</ele>
<time>2019-05-30T12:51:07Z</time>
</trkpt>
<trkpt lat="49.668999" lon="10.086935">
<ele>188.441</ele>
<time>2019-05-30T12:51:08Z</time>
</trkpt>
<trkpt lat="49.668991" lon="10.086848">
<ele>188.441</ele>
<time>2019-05-30T12:51:09Z</time>
</trkpt>
<trkpt lat="49.668983" lon="10.086761">
<ele>188.441</ele>
<time>2019-05-30T12:51:10Z</time>
</trkpt>
<trkpt lat="49.66898" lon="10.086692">
<ele>188.441</ele>
<time>2019-05-30T12:51:11Z</time>
</trkpt>
<trkpt lat="49.66898" lon="10.086625">
<ele>188.683</ele>
<time>2019-05-30T12:51:12Z</time>
</trkpt>
<trkpt lat="49.668972" lon="10.086557">
<ele>188.867</ele>
<time>2019-05-30T12:51:13Z</time>
</trkpt>
<trkpt lat="49.668964" lon="10.086492">
<ele>189.009</ele>
<time>2019-05-30T12:51:14Z</time>
</trkpt>
<trkpt lat="49.668961" lon="10.086436">
<ele>189.115</ele>
<time>2019-05-30T12:51:15Z</time>
</trkpt>
<trkpt lat="49.668953" lon="10.086375">
<ele>189.193</ele>
<time>2019-05-30T12:51:16Z</time>
</trkpt>
<trkpt lat="49.668953" lon="10.0863">
<ele>189.275</ele>
<time>2019-05-30T12:51:17Z</time>
</trkpt>
<trkpt lat="49.668953" lon="10.086231">
<ele>189.332</ele>
<time>2019-05-30T12:51:18Z</time>
</trkpt>
<trkpt lat="49.668949" lon="10.08617">
<ele>189.362</ele>
<time>2019-05-30T12:51:19Z</time>
</trkpt>
<trkpt lat="49.668945" lon="10.086101">
<ele>189.362</ele>
<time>2019-05-30T12:51:20Z</time>
</trkpt>
<trkpt lat="49.668941" lon="10.086025">
<ele>189.362</ele>
<time>2019-05-30T12:51:21Z</time>
</trkpt>
<trkpt lat="49.668938" lon="10.085963">
<ele>189.362</ele>
<time>2019-05-30T12:51:22Z</time>
</trkpt>
<trkpt lat="49.66893" lon="10.085897">
<ele>189.362</ele>
<time>2019-05-30T12:51:23Z</time>
</trkpt>
<trkpt lat="49.668922" lon="10.085833">
<ele>189.362</ele>
<time>2019-05-30T12:51:24Z</time>
</trkpt>
<trkpt lat="49.668919" lon="10.085768">
<ele>189.362</ele>
<time>2019-05-30T12:51:25Z</time>
</trkpt>
<trkpt lat="49.668919" lon="10.0857">
<ele>189.362</ele>
<time>2019-05-30T12:51:26Z</time>
</trkpt>
<trkpt lat="49.668915" lon="10.085631">
<ele>189.362</ele>
<time>2019-05-30T12:51:27Z</time>
</trkpt>
<trkpt lat="49.668911" lon="10.085564">
<ele>189.362</ele>
<time>2019-05-30T12:51:28Z</time>
</trkpt>
<trkpt lat="49.668907" lon="10.085497">
<ele>189.362</ele>
<time>2019-05-30T12:51:29Z</time>
</trkpt>
<trkpt lat="49.668903" lon="10.08543">
<ele>189.362</ele>
<time>2019-05-30T12:51:30Z</time>
</trkpt>
<trkpt lat="49.6689" lon="10.085367">
<ele>189.362</ele>
<time>2019-05-30T12:51:31Z</time>
</trkpt>
<trkpt lat="49.668892" lon="10.085307">
<ele>189.362</ele>
<time>2019-05-30T12:51:32Z</time>
</trkpt>
<trkpt lat="49.668888" lon="10.085243">
<ele>189.362</ele>
<time>2019-05-30T12:51:33Z</time>
</trkpt>
<trkpt lat="49.668884" lon="10.08518">
<ele>189.362</ele>
<time>2019-05-30T12:51:34Z</time>
</trkpt>
<trkpt lat="49.668877" lon="10.08512">
<ele>189.362</ele>
<time>2019-05-30T12:51:35Z</time>
</trkpt>
<trkpt lat="49.668873" lon="10.085064">
<ele>189.362</ele>
<time>2019-05-30T12:51:36Z</time>
</trkpt>
<trkpt lat="49.668869" lon="10.085015">
<ele>189.127</ele>
<time>2019-05-30T12:51:37Z</time>
</trkpt>
<trkpt lat="49.668865" lon="10.084963">
<ele>188.927</ele>
<time>2019-05-30T12:51:38Z</time>
</trkpt>
<trkpt lat="49.668865" lon="10.084905">
<ele>188.758</ele>
<time>2019-05-30T12:51:39Z</time>
</trkpt>
<trkpt lat="49.668858" lon="10.084846">
<ele>188.62</ele>
<time>2019-05-30T12:51:40Z</time>
</trkpt>
<trkpt lat="49.668854" lon="10.084781">
<ele>188.515</ele>
<time>2019-05-30T12:51:41Z</time>
</trkpt>
<trkpt lat="49.668854" lon="10.084716">
<ele>188.434</ele>
<time>2019-05-30T12:51:42Z</time>
</trkpt>
<trkpt lat="49.668854" lon="10.084657">
<ele>188.382</ele>
<time>2019-05-30T12:51:43Z</time>
</trkpt>
<trkpt lat="49.668861" lon="10.084594">
<ele>188.357</ele>
<time>2019-05-30T12:51:44Z</time>
</trkpt>
<trkpt lat="49.668869" lon="10.084534">
<ele>188.357</ele>
<time>2019-05-30T12:51:45Z</time>
</trkpt>
<trkpt lat="49.668888" lon="10.084479">
<ele>188.357</ele>
<time>2019-05-30T12:51:46Z</time>
</trkpt>
<trkpt lat="49.668911" lon="10.084423">
<ele>188.357</ele>
<time>2019-05-30T12:51:47Z</time>
</trkpt>
<trkpt lat="49.668938" lon="10.08436">
<ele>188.357</ele>
<time>2019-05-30T12:51:48Z</time>
</trkpt>
<trkpt lat="49.668968" lon="10.0843">
<ele>188.357</ele>
<time>2019-05-30T12:51:49Z</time>
</trkpt>
<trkpt lat="49.668991" lon="10.084236">
<ele>188.357</ele>
<time>2019-05-30T12:51:50Z</time>
</trkpt>
<trkpt lat="49.669018" lon="10.084175">
<ele>188.357</ele>
<time>2019-05-30T12:51:51Z</time>
</trkpt>
<trkpt lat="49.669029" lon="10.084105">
<ele>188.357</ele>
<time>2019-05-30T12:51:52Z</time>
</trkpt>
<trkpt lat="49.669041" lon="10.084039">
<ele>188.357</ele>
<time>2019-05-30T12:51:53Z</time>
</trkpt>
<trkpt lat="49.669048" lon="10.083968">
<ele>188.357</ele>
<time>2019-05-30T12:51:54Z</time>
</trkpt>
<trkpt lat="49.669052" lon="10.083893">
<ele>188.357</ele>
<time>2019-05-30T12:51:55Z</time>
</trkpt>
<trkpt lat="49.669052" lon="10.083821">
<ele>188.154</ele>
<time>2019-05-30T12:51:56Z</time>
</trkpt>
<trkpt lat="49.669048" lon="10.083748">
<ele>187.96</ele>
<time>2019-05-30T12:51:57Z</time>
</trkpt>
<trkpt lat="49.669041" lon="10.083676">
<ele>187.799</ele>
<time>2019-05-30T12:51:58Z</time>
</trkpt>
<trkpt lat="49.669037" lon="10.083603">
<ele>187.669</ele>
<time>2019-05-30T12:51:59Z</time>
</trkpt>
<trkpt lat="49.669025" lon="10.083526">
<ele>187.572</ele>
<time>2019-05-30T12:52:00Z</time>
</trkpt>
<trkpt lat="49.669018" lon="10.083445">
<ele>187.5</ele>
<time>2019-05-30T12:52:01Z</time>
</trkpt>
<trkpt lat="49.669006" lon="10.083366">
<ele>187.457</ele>
<time>2019-05-30T12:52:02Z</time>
</trkpt>
<trkpt lat="49.668999" lon="10.083291">
<ele>187.436</ele>
<time>2019-05-30T12:52:03Z</time>
</trkpt>
<trkpt lat="49.668991" lon="10.083217">
<ele>187.436</ele>
<time>2019-05-30T12:52:04Z</time>
</trkpt>
<trkpt lat="49.668983" lon="10.083142">
<ele>187.436</ele>
<time>2019-05-30T12:52:05Z</time>
</trkpt>
<trkpt lat="49.668968" lon="10.083063">
<ele>187.436</ele>
<time>2019-05-30T12:52:06Z</time>
</trkpt>
<trkpt lat="49.668957" lon="10.08299">
<ele>187.436</ele>
<time>2019-05-30T12:52:07Z</time>
</trkpt>
<trkpt lat="49.668945" lon="10.082914">
<ele>187.436</ele>
<time>2019-05-30T12:52:08Z</time>
</trkpt>
<trkpt lat="49.66893" lon="10.082841">
<ele>187.436</ele>
<time>2019-05-30T12:52:09Z</time>
</trkpt>
<trkpt lat="49.668919" lon="10.082771">
<ele>187.436</ele>
<time>2019-05-30T12:52:10Z</time>
</trkpt>
<trkpt lat="49.668907" lon="10.0827">
<ele>187.436</ele>
<time>2019-05-30T12:52:11Z</time>
</trkpt>
<trkpt lat="49.668892" lon="10.082633">
<ele>187.436</ele>
<time>2019-05-30T12:52:12Z</time>
</trkpt>
<trkpt lat="49.66888" lon="10.082575">
<ele>187.436</ele>
<time>2019-05-30T12:52:13Z</time>
</trkpt>
<trkpt lat="49.668869" lon="10.082523">
<ele>187.436</ele>
<time>2019-05-30T12:52:14Z</time>
</trkpt>
<trkpt lat="49.668861" lon="10.082472">
<ele>187.436</ele>
<time>2019-05-30T12:52:15Z</time>
</trkpt>
<trkpt lat="49.668854" lon="10.082417">
<ele>187.436</ele>
<time>2019-05-30T12:52:16Z</time>
</trkpt>
<trkpt lat="49.668835" lon="10.082363">
<ele>187.436</ele>
<time>2019-05-30T12:52:17Z</time>
</trkpt>
<trkpt lat="49.668819" lon="10.082307">
<ele>187.436</ele>
<time>2019-05-30T12:52:18Z</time>
</trkpt>
<trkpt lat="49.668797" lon="10.082246">
<ele>187.436</ele>
<time>2019-05-30T12:52:19Z</time>
</trkpt>
<trkpt lat="49.668774" lon="10.082187">
<ele>187.436</ele>
<time>2019-05-30T12:52:20Z</time>
</trkpt>
<trkpt lat="49.668751" lon="10.082127">
<ele>187.435</ele>
<time>2019-05-30T12:52:21Z</time>
</trkpt>
<trkpt lat="49.668728" lon="10.082067">
<ele>187.436</ele>
<time>2019-05-30T12:52:22Z</time>
</trkpt>
<trkpt lat="49.668705" lon="10.082009">
<ele>187.436</ele>
<time>2019-05-30T12:52:23Z</time>
</trkpt>
<trkpt lat="49.66869" lon="10.081957">
<ele>187.436</ele>
<time>2019-05-30T12:52:24Z</time>
</trkpt>
<trkpt lat="49.668659" lon="10.081908">
<ele>187.436</ele>
<time>2019-05-30T12:52:25Z</time>
</trkpt>
<trkpt lat="49.66864" lon="10.081847">
<ele>187.436</ele>
<time>2019-05-30T12:52:26Z</time>
</trkpt>
<trkpt lat="49.668621" lon="10.081789">
<ele>187.436</ele>
<time>2019-05-30T12:52:27Z</time>
</trkpt>
<trkpt lat="49.668594" lon="10.08173">
<ele>187.187</ele>
<time>2019-05-30T12:52:28Z</time>
</trkpt>
<trkpt lat="49.668564" lon="10.081674">
<ele>186.993</ele>
<time>2019-05-30T12:52:29Z</time>
</trkpt>
<trkpt lat="49.668541" lon="10.081614">
<ele>186.841</ele>
<time>2019-05-30T12:52:30Z</time>
</trkpt>
<trkpt lat="49.668522" lon="10.081558">
<ele>186.732</ele>
<time>2019-05-30T12:52:31Z</time>
</trkpt>
<trkpt lat="49.668495" lon="10.081509">
<ele>186.66</ele>
<time>2019-05-30T12:52:32Z</time>
</trkpt>
<trkpt lat="49.668468" lon="10.081453">
<ele>186.617</ele>
<time>2019-05-30T12:52:33Z</time>
</trkpt>
<trkpt lat="49.668438" lon="10.081395">
<ele>186.598</ele>
<time>2019-05-30T12:52:34Z</time>
</trkpt>
<trkpt lat="49.668407" lon="10.081335">
<ele>186.598</ele>
<time>2019-05-30T12:52:35Z</time>
</trkpt>
<trkpt lat="49.668381" lon="10.081271">
<ele>186.598</ele>
<time>2019-05-30T12:52:36Z</time>
</trkpt>
<trkpt lat="49.668354" lon="10.081203">
<ele>186.598</ele>
<time>2019-05-30T12:52:37Z</time>
</trkpt>
<trkpt lat="49.668335" lon="10.081135">
<ele>186.598</ele>
<time>2019-05-30T12:52:38Z</time>
</trkpt>
<trkpt lat="49.668308" lon="10.081066">
<ele>186.598</ele>
<time>2019-05-30T12:52:39Z</time>
</trkpt>
<trkpt lat="49.668285" lon="10.081003">
<ele>186.598</ele>
<time>2019-05-30T12:52:40Z</time>
</trkpt>
<trkpt lat="49.668262" lon="10.080936">
<ele>186.598</ele>
<time>2019-05-30T12:52:41Z</time>
</trkpt>
<trkpt lat="49.668236" lon="10.080869">
<ele>186.598</ele>
<time>2019-05-30T12:52:42Z</time>
</trkpt>
<trkpt lat="49.668205" lon="10.0808">
<ele>186.598</ele>
<time>2019-05-30T12:52:43Z</time>
</trkpt>
<trkpt lat="49.668182" lon="10.080733">
<ele>186.598</ele>
<time>2019-05-30T12:52:44Z</time>
</trkpt>
<trkpt lat="49.668159" lon="10.080653">
<ele>186.598</ele>
<time>2019-05-30T12:52:45Z</time>
</trkpt>
<trkpt lat="49.668137" lon="10.080576">
<ele>186.598</ele>
<time>2019-05-30T12:52:46Z</time>
</trkpt>
<trkpt lat="49.668114" lon="10.080506">
<ele>186.598</ele>
<time>2019-05-30T12:52:47Z</time>
</trkpt>
<trkpt lat="49.668091" lon="10.080437">
<ele>186.598</ele>
<time>2019-05-30T12:52:48Z</time>
</trkpt>
<trkpt lat="49.668064" lon="10.080365">
<ele>186.598</ele>
<time>2019-05-30T12:52:49Z</time>
</trkpt>
<trkpt lat="49.668045" lon="10.080292">
<ele>186.598</ele>
<time>2019-05-30T12:52:50Z</time>
</trkpt>
<trkpt lat="49.668022" lon="10.080224">
<ele>186.598</ele>
<time>2019-05-30T12:52:51Z</time>
</trkpt>
<trkpt lat="49.667999" lon="10.080147">
<ele>186.598</ele>
<time>2019-05-30T12:52:52Z</time>
</trkpt>
<trkpt lat="49.66798" lon="10.080073">
<ele>186.598</ele>
<time>2019-05-30T12:52:53Z</time>
</trkpt>
<trkpt lat="49.667957" lon="10.079997">
<ele>186.598</ele>
<time>2019-05-30T12:52:54Z</time>
</trkpt>
<trkpt lat="49.667938" lon="10.079925">
<ele>186.598</ele>
<time>2019-05-30T12:52:55Z</time>
</trkpt>
<trkpt lat="49.667915" lon="10.079853">
<ele>186.598</ele>
<time>2019-05-30T12:52:56Z</time>
</trkpt>
<trkpt lat="49.667889" lon="10.079782">
<ele>186.598</ele>
<time>2019-05-30T12:52:57Z</time>
</trkpt>
<trkpt lat="49.667866" lon="10.07971">
<ele>186.598</ele>
<time>2019-05-30T12:52:58Z</time>
</trkpt>
<trkpt lat="49.667835" lon="10.079637">
<ele>186.598</ele>
<time>2019-05-30T12:52:59Z</time>
</trkpt>
<trkpt lat="49.667801" lon="10.07956">
<ele>186.598</ele>
<time>2019-05-30T12:53:00Z</time>
</trkpt>
<trkpt lat="49.667763" lon="10.079489">
<ele>186.598</ele>
<time>2019-05-30T12:53:01Z</time>
</trkpt>
<trkpt lat="49.667717" lon="10.079418">
<ele>186.598</ele>
<time>2019-05-30T12:53:02Z</time>
</trkpt>
<trkpt lat="49.667675" lon="10.079347">
<ele>186.598</ele>
<time>2019-05-30T12:53:03Z</time>
</trkpt>
<trkpt lat="49.667633" lon="10.07928">
<ele>186.598</ele>
<time>2019-05-30T12:53:04Z</time>
</trkpt>
<trkpt lat="49.667595" lon="10.079212">
<ele>186.598</ele>
<time>2019-05-30T12:53:05Z</time>
</trkpt>
<trkpt lat="49.667561" lon="10.079148">
<ele>186.617</ele>
<time>2019-05-30T12:53:06Z</time>
</trkpt>
<trkpt lat="49.66753" lon="10.079086">
<ele>186.634</ele>
<time>2019-05-30T12:53:07Z</time>
</trkpt>
<trkpt lat="49.667507" lon="10.079013">
<ele>186.646</ele>
<time>2019-05-30T12:53:08Z</time>
</trkpt>
<trkpt lat="49.667488" lon="10.078938">
<ele>186.853</ele>
<time>2019-05-30T12:53:09Z</time>
</trkpt>
<trkpt lat="49.667473" lon="10.078865">
<ele>187.028</ele>
<time>2019-05-30T12:53:10Z</time>
</trkpt>
<trkpt lat="49.667454" lon="10.078791">
<ele>187.175</ele>
<time>2019-05-30T12:53:11Z</time>
</trkpt>
<trkpt lat="49.667439" lon="10.078713">
<ele>187.299</ele>
<time>2019-05-30T12:53:12Z</time>
</trkpt>
<trkpt lat="49.667431" lon="10.078633">
<ele>187.392</ele>
<time>2019-05-30T12:53:13Z</time>
</trkpt>
<trkpt lat="49.667419" lon="10.078548">
<ele>187.475</ele>
<time>2019-05-30T12:53:14Z</time>
</trkpt>
<trkpt lat="49.667408" lon="10.078465">
<ele>187.5</ele>
<time>2019-05-30T12:53:15Z</time>
</trkpt>
<trkpt lat="49.667389" lon="10.07839">
<ele>187.519</ele>
<time>2019-05-30T12:53:16Z</time>
</trkpt>
<trkpt lat="49.66737" lon="10.078313">
<ele>187.519</ele>
<time>2019-05-30T12:53:17Z</time>
</trkpt>
<trkpt lat="49.667355" lon="10.078246">
<ele>187.519</ele>
<time>2019-05-30T12:53:18Z</time>
</trkpt>
<trkpt lat="49.667336" lon="10.078183">
<ele>187.519</ele>
<time>2019-05-30T12:53:19Z</time>
</trkpt>
<trkpt lat="49.667316" lon="10.078118">
<ele>187.519</ele>
<time>2019-05-30T12:53:20Z</time>
</trkpt>
<trkpt lat="49.667305" lon="10.078047">
<ele>187.519</ele>
<time>2019-05-30T12:53:21Z</time>
</trkpt>
<trkpt lat="49.66729" lon="10.07798">
<ele>187.519</ele>
<time>2019-05-30T12:53:22Z</time>
</trkpt>
<trkpt lat="49.667282" lon="10.077909">
<ele>187.519</ele>
<time>2019-05-30T12:53:23Z</time>
</trkpt>
<trkpt lat="49.667267" lon="10.077829">
<ele>187.519</ele>
<time>2019-05-30T12:53:24Z</time>
</trkpt>
<trkpt lat="49.667252" lon="10.07776">
<ele>187.519</ele>
<time>2019-05-30T12:53:25Z</time>
</trkpt>
<trkpt lat="49.667236" lon="10.077688">
<ele>187.331</ele>
<time>2019-05-30T12:53:26Z</time>
</trkpt>
<trkpt lat="49.667225" lon="10.077621">
<ele>187.153</ele>
<time>2019-05-30T12:53:27Z</time>
</trkpt>
<trkpt lat="49.667213" lon="10.077543">
<ele>187.008</ele>
<time>2019-05-30T12:53:28Z</time>
</trkpt>
<trkpt lat="49.667206" lon="10.07747">
<ele>186.894</ele>
<time>2019-05-30T12:53:29Z</time>
</trkpt>
<trkpt lat="49.667194" lon="10.07741">
<ele>186.806</ele>
<time>2019-05-30T12:53:30Z</time>
</trkpt>
<trkpt lat="49.667179" lon="10.077345">
<ele>186.744</ele>
<time>2019-05-30T12:53:31Z</time>
</trkpt>
<trkpt lat="49.667164" lon="10.077273">
<ele>186.703</ele>
<time>2019-05-30T12:53:32Z</time>
</trkpt>
<trkpt lat="49.667152" lon="10.077207">
<ele>186.682</ele>
<time>2019-05-30T12:53:33Z</time>
</trkpt>
<trkpt lat="49.667137" lon="10.077148">
<ele>186.682</ele>
<time>2019-05-30T12:53:34Z</time>
</trkpt>
<trkpt lat="49.667122" lon="10.077084">
<ele>186.682</ele>
<time>2019-05-30T12:53:35Z</time>
</trkpt>
<trkpt lat="49.667107" lon="10.077017">
<ele>186.682</ele>
<time>2019-05-30T12:53:36Z</time>
</trkpt>
<trkpt lat="49.667091" lon="10.076935">
<ele>186.682</ele>
<time>2019-05-30T12:53:37Z</time>
</trkpt>
<trkpt lat="49.667072" lon="10.076859">
<ele>186.682</ele>
<time>2019-05-30T12:53:38Z</time>
</trkpt>
<trkpt lat="49.667049" lon="10.076807">
<ele>186.682</ele>
<time>2019-05-30T12:53:39Z</time>
</trkpt>
<trkpt lat="49.667034" lon="10.07674">
<ele>186.682</ele>
<time>2019-05-30T12:53:40Z</time>
</trkpt>
<trkpt lat="49.66703" lon="10.076669">
<ele>186.682</ele>
<time>2019-05-30T12:53:41Z</time>
</trkpt>
<trkpt lat="49.667023" lon="10.076589">
<ele>186.682</ele>
<time>2019-05-30T12:53:42Z</time>
</trkpt>
<trkpt lat="49.667023" lon="10.076516">
<ele>186.682</ele>
<time>2019-05-30T12:53:43Z</time>
</trkpt>
<trkpt lat="49.667011" lon="10.076427">
<ele>186.682</ele>
<time>2019-05-30T12:53:44Z</time>
</trkpt>
<trkpt lat="49.667" lon="10.076345">
<ele>186.682</ele>
<time>2019-05-30T12:53:45Z</time>
</trkpt>
<trkpt lat="49.666996" lon="10.076257">
<ele>186.682</ele>
<time>2019-05-30T12:53:46Z</time>
</trkpt>
<trkpt lat="49.666985" lon="10.076168">
<ele>186.682</ele>
<time>2019-05-30T12:53:47Z</time>
</trkpt>
<trkpt lat="49.666973" lon="10.076088">
<ele>186.682</ele>
<time>2019-05-30T12:53:48Z</time>
</trkpt>
<trkpt lat="49.666965" lon="10.076007">
<ele>186.682</ele>
<time>2019-05-30T12:53:49Z</time>
</trkpt>
<trkpt lat="49.666954" lon="10.075929">
<ele>186.682</ele>
<time>2019-05-30T12:53:50Z</time>
</trkpt>
<trkpt lat="49.66695" lon="10.075841">
<ele>186.682</ele>
<time>2019-05-30T12:53:51Z</time>
</trkpt>
<trkpt lat="49.666954" lon="10.075759">
<ele>186.682</ele>
<time>2019-05-30T12:53:52Z</time>
</trkpt>
<trkpt lat="49.66695" lon="10.075684">
<ele>186.682</ele>
<time>2019-05-30T12:53:53Z</time>
</trkpt>
<trkpt lat="49.66695" lon="10.075606">
<ele>186.682</ele>
<time>2019-05-30T12:53:54Z</time>
</trkpt>
<trkpt lat="49.666943" lon="10.07554">
<ele>186.682</ele>
<time>2019-05-30T12:53:55Z</time>
</trkpt>
<trkpt lat="49.666939" lon="10.075465">
<ele>186.682</ele>
<time>2019-05-30T12:53:56Z</time>
</trkpt>
<trkpt lat="49.666931" lon="10.075385">
<ele>186.682</ele>
<time>2019-05-30T12:53:57Z</time>
</trkpt>
<trkpt lat="49.666927" lon="10.075307">
<ele>186.682</ele>
<time>2019-05-30T12:53:58Z</time>
</trkpt>
<trkpt lat="49.666924" lon="10.075233">
<ele>186.682</ele>
<time>2019-05-30T12:53:59Z</time>
</trkpt>
<trkpt lat="49.66692" lon="10.075158">
<ele>186.682</ele>
<time>2019-05-30T12:54:00Z</time>
</trkpt>
<trkpt lat="49.666912" lon="10.075087">
<ele>186.682</ele>
<time>2019-05-30T12:54:01Z</time>
</trkpt>
<trkpt lat="49.666908" lon="10.075018">
<ele>186.682</ele>
<time>2019-05-30T12:54:02Z</time>
</trkpt>
<trkpt lat="49.666901" lon="10.074944">
<ele>186.682</ele>
<time>2019-05-30T12:54:03Z</time>
</trkpt>
<trkpt lat="49.666897" lon="10.074868">
<ele>186.682</ele>
<time>2019-05-30T12:54:04Z</time>
</trkpt>
<trkpt lat="49.666885" lon="10.074798">
<ele>186.682</ele>
<time>2019-05-30T12:54:05Z</time>
</trkpt>
<trkpt lat="49.666882" lon="10.074722">
<ele>186.682</ele>
<time>2019-05-30T12:54:06Z</time>
</trkpt>
<trkpt lat="49.666878" lon="10.074652">
<ele>186.682</ele>
<time>2019-05-30T12:54:07Z</time>
</trkpt>
<trkpt lat="49.66687" lon="10.07458">
<ele>186.682</ele>
<time>2019-05-30T12:54:08Z</time>
</trkpt>
<trkpt lat="49.666866" lon="10.074513">
<ele>186.682</ele>
<time>2019-05-30T12:54:09Z</time>
</trkpt>
<trkpt lat="49.666859" lon="10.074451">
<ele>186.682</ele>
<time>2019-05-30T12:54:10Z</time>
</trkpt>
<trkpt lat="49.666851" lon="10.074389">
<ele>186.682</ele>
<time>2019-05-30T12:54:11Z</time>
</trkpt>
<trkpt lat="49.666843" lon="10.074327">
<ele>186.682</ele>
<time>2019-05-30T12:54:12Z</time>
</trkpt>
<trkpt lat="49.666836" lon="10.074257">
<ele>186.682</ele>
<time>2019-05-30T12:54:13Z</time>
</trkpt>
<trkpt lat="49.666828" lon="10.074183">
<ele>186.682</ele>
<time>2019-05-30T12:54:14Z</time>
</trkpt>
<trkpt lat="49.666821" lon="10.074104">
<ele>186.682</ele>
<time>2019-05-30T12:54:15Z</time>
</trkpt>
<trkpt lat="49.666809" lon="10.074025">
<ele>186.682</ele>
<time>2019-05-30T12:54:16Z</time>
</trkpt>
<trkpt lat="49.666801" lon="10.073947">
<ele>186.682</ele>
<time>2019-05-30T12:54:17Z</time>
</trkpt>
<trkpt lat="49.666794" lon="10.073865">
<ele>186.682</ele>
<time>2019-05-30T12:54:18Z</time>
</trkpt>
<trkpt lat="49.666782" lon="10.073788">
<ele>186.682</ele>
<time>2019-05-30T12:54:19Z</time>
</trkpt>
<trkpt lat="49.666771" lon="10.07371">
<ele>186.682</ele>
<time>2019-05-30T12:54:20Z</time>
</trkpt>
<trkpt lat="49.666767" lon="10.073633">
<ele>186.682</ele>
<time>2019-05-30T12:54:21Z</time>
</trkpt>
<trkpt lat="49.666759" lon="10.07356">
<ele>186.682</ele>
<time>2019-05-30T12:54:22Z</time>
</trkpt>
<trkpt lat="49.666752" lon="10.07349">
<ele>186.682</ele>
<time>2019-05-30T12:54:23Z</time>
</trkpt>
<trkpt lat="49.66674" lon="10.073421">
<ele>186.682</ele>
<time>2019-05-30T12:54:24Z</time>
</trkpt>
<trkpt lat="49.666737" lon="10.073345">
<ele>186.682</ele>
<time>2019-05-30T12:54:25Z</time>
</trkpt>
<trkpt lat="49.666733" lon="10.073264">
<ele>186.682</ele>
<time>2019-05-30T12:54:26Z</time>
</trkpt>
<trkpt lat="49.666721" lon="10.073176">
<ele>186.682</ele>
<time>2019-05-30T12:54:27Z</time>
</trkpt>
<trkpt lat="49.666706" lon="10.073082">
<ele>186.682</ele>
<time>2019-05-30T12:54:28Z</time>
</trkpt>
<trkpt lat="49.666691" lon="10.072996">
<ele>186.682</ele>
<time>2019-05-30T12:54:29Z</time>
</trkpt>
<trkpt lat="49.666679" lon="10.072914">
<ele>186.682</ele>
<time>2019-05-30T12:54:30Z</time>
</trkpt>
<trkpt lat="49.666672" lon="10.072835">
<ele>186.682</ele>
<time>2019-05-30T12:54:31Z</time>
</trkpt>
<trkpt lat="49.666664" lon="10.072753">
<ele>186.682</ele>
<time>2019-05-30T12:54:32Z</time>
</trkpt>
<trkpt lat="49.666656" lon="10.072665">
<ele>186.682</ele>
<time>2019-05-30T12:54:33Z</time>
</trkpt>
<trkpt lat="49.666645" lon="10.072577">
<ele>186.682</ele>
<time>2019-05-30T12:54:34Z</time>
</trkpt>
<trkpt lat="49.666637" lon="10.072487">
<ele>186.682</ele>
<time>2019-05-30T12:54:35Z</time>
</trkpt>
<trkpt lat="49.666626" lon="10.0724">
<ele>186.682</ele>
<time>2019-05-30T12:54:36Z</time>
</trkpt>
<trkpt lat="49.666615" lon="10.072315">
<ele>186.682</ele>
<time>2019-05-30T12:54:37Z</time>
</trkpt>
<trkpt lat="49.666603" lon="10.072231">
<ele>186.682</ele>
<time>2019-05-30T12:54:38Z</time>
</trkpt>
<trkpt lat="49.666592" lon="10.072153">
<ele>186.682</ele>
<time>2019-05-30T12:54:39Z</time>
</trkpt>
<trkpt lat="49.66658" lon="10.072074">
<ele>186.682</ele>
<time>2019-05-30T12:54:40Z</time>
</trkpt>
<trkpt lat="49.666573" lon="10.071999">
<ele>186.682</ele>
<time>2019-05-30T12:54:41Z</time>
</trkpt>
<trkpt lat="49.666561" lon="10.071923">
<ele>186.424</ele>
<time>2019-05-30T12:54:42Z</time>
</trkpt>
<trkpt lat="49.666546" lon="10.07185">
<ele>186.219</ele>
<time>2019-05-30T12:54:43Z</time>
</trkpt>
<trkpt lat="49.666538" lon="10.071773">
<ele>186.058</ele>
<time>2019-05-30T12:54:44Z</time>
</trkpt>
<trkpt lat="49.666527" lon="10.071697">
<ele>185.937</ele>
<time>2019-05-30T12:54:45Z</time>
</trkpt>
<trkpt lat="49.666515" lon="10.07162">
<ele>185.85</ele>
<time>2019-05-30T12:54:46Z</time>
</trkpt>
<trkpt lat="49.666508" lon="10.071542">
<ele>185.761</ele>
<time>2019-05-30T12:54:47Z</time>
</trkpt>
<trkpt lat="49.6665" lon="10.071466">
<ele>185.704</ele>
<time>2019-05-30T12:54:48Z</time>
</trkpt>
<trkpt lat="49.666492" lon="10.071388">
<ele>185.677</ele>
<time>2019-05-30T12:54:49Z</time>
</trkpt>
<trkpt lat="49.666481" lon="10.071308">
<ele>185.677</ele>
<time>2019-05-30T12:54:50Z</time>
</trkpt>
<trkpt lat="49.666473" lon="10.071228">
<ele>185.677</ele>
<time>2019-05-30T12:54:51Z</time>
</trkpt>
<trkpt lat="49.666466" lon="10.071148">
<ele>185.677</ele>
<time>2019-05-30T12:54:52Z</time>
</trkpt>
<trkpt lat="49.666454" lon="10.071073">
<ele>185.892</ele>
<time>2019-05-30T12:54:53Z</time>
</trkpt>
<trkpt lat="49.666443" lon="10.071003">
<ele>186.062</ele>
<time>2019-05-30T12:54:54Z</time>
</trkpt>
<trkpt lat="49.666435" lon="10.070933">
<ele>186.191</ele>
<time>2019-05-30T12:54:55Z</time>
</trkpt>
<trkpt lat="49.666428" lon="10.070867">
<ele>186.282</ele>
<time>2019-05-30T12:54:56Z</time>
</trkpt>
<trkpt lat="49.666424" lon="10.0708">
<ele>186.375</ele>
<time>2019-05-30T12:54:57Z</time>
</trkpt>
<trkpt lat="49.666412" lon="10.070733">
<ele>186.444</ele>
<time>2019-05-30T12:54:58Z</time>
</trkpt>
<trkpt lat="49.666409" lon="10.070672">
<ele>186.491</ele>
<time>2019-05-30T12:54:59Z</time>
</trkpt>
<trkpt lat="49.666409" lon="10.070617">
<ele>186.514</ele>
<time>2019-05-30T12:55:00Z</time>
</trkpt>
<trkpt lat="49.666397" lon="10.07056">
<ele>186.514</ele>
<time>2019-05-30T12:55:01Z</time>
</trkpt>
<trkpt lat="49.666389" lon="10.070509">
<ele>186.514</ele>
<time>2019-05-30T12:55:02Z</time>
</trkpt>
<trkpt lat="49.666382" lon="10.070452">
<ele>186.514</ele>
<time>2019-05-30T12:55:03Z</time>
</trkpt>
<trkpt lat="49.666378" lon="10.070392">
<ele>186.514</ele>
<time>2019-05-30T12:55:04Z</time>
</trkpt>
<trkpt lat="49.666378" lon="10.070329">
<ele>186.514</ele>
<time>2019-05-30T12:55:05Z</time>
</trkpt>
<trkpt lat="49.666374" lon="10.070269">
<ele>186.514</ele>
<time>2019-05-30T12:55:06Z</time>
</trkpt>
<trkpt lat="49.66637" lon="10.070207">
<ele>186.514</ele>
<time>2019-05-30T12:55:07Z</time>
</trkpt>
<trkpt lat="49.666367" lon="10.070147">
<ele>186.514</ele>
<time>2019-05-30T12:55:08Z</time>
</trkpt>
<trkpt lat="49.666355" lon="10.07009">
<ele>186.514</ele>
<time>2019-05-30T12:55:09Z</time>
</trkpt>
<trkpt lat="49.666355" lon="10.070019">
<ele>186.514</ele>
<time>2019-05-30T12:55:10Z</time>
</trkpt>
<trkpt lat="49.666355" lon="10.06995">
<ele>186.514</ele>
<time>2019-05-30T12:55:11Z</time>
</trkpt>
<trkpt lat="49.666359" lon="10.069883">
<ele>186.514</ele>
<time>2019-05-30T12:55:12Z</time>
</trkpt>
<trkpt lat="49.666359" lon="10.069821">
<ele>186.514</ele>
<time>2019-05-30T12:55:13Z</time>
</trkpt>
<trkpt lat="49.666359" lon="10.06976">
<ele>186.514</ele>
<time>2019-05-30T12:55:14Z</time>
</trkpt>
<trkpt lat="49.666363" lon="10.0697">
<ele>186.514</ele>
<time>2019-05-30T12:55:15Z</time>
</trkpt>
<trkpt lat="49.666367" lon="10.069654">
<ele>186.514</ele>
<time>2019-05-30T12:55:16Z</time>
</trkpt>
<trkpt lat="49.666363" lon="10.069605">
<ele>186.514</ele>
<time>2019-05-30T12:55:17Z</time>
</trkpt>
<trkpt lat="49.666363" lon="10.069558">
<ele>186.514</ele>
<time>2019-05-30T12:55:18Z</time>
</trkpt>
<trkpt lat="49.666359" lon="10.069504">
<ele>186.514</ele>
<time>2019-05-30T12:55:19Z</time>
</trkpt>
<trkpt lat="49.666355" lon="10.069451">
<ele>186.514</ele>
<time>2019-05-30T12:55:20Z</time>
</trkpt>
<trkpt lat="49.666351" lon="10.069393">
<ele>186.514</ele>
<time>2019-05-30T12:55:21Z</time>
</trkpt>
<trkpt lat="49.666348" lon="10.069327">
<ele>186.514</ele>
<time>2019-05-30T12:55:22Z</time>
</trkpt>
<trkpt lat="49.666351" lon="10.069257">
<ele>186.514</ele>
<time>2019-05-30T12:55:23Z</time>
</trkpt>
<trkpt lat="49.666351" lon="10.069192">
<ele>186.514</ele>
<time>2019-05-30T12:55:24Z</time>
</trkpt>
<trkpt lat="49.666363" lon="10.069124">
<ele>186.514</ele>
<time>2019-05-30T12:55:25Z</time>
</trkpt>
<trkpt lat="49.66637" lon="10.069049">
<ele>186.514</ele>
<time>2019-05-30T12:55:26Z</time>
</trkpt>
<trkpt lat="49.666378" lon="10.068978">
<ele>186.514</ele>
<time>2019-05-30T12:55:27Z</time>
</trkpt>
<trkpt lat="49.666386" lon="10.0689">
<ele>186.514</ele>
<time>2019-05-30T12:55:28Z</time>
</trkpt>
<trkpt lat="49.666389" lon="10.06882">
<ele>186.514</ele>
<time>2019-05-30T12:55:29Z</time>
</trkpt>
<trkpt lat="49.666393" lon="10.068741">
<ele>186.514</ele>
<time>2019-05-30T12:55:30Z</time>
</trkpt>
<trkpt lat="49.666397" lon="10.068666">
<ele>186.514</ele>
<time>2019-05-30T12:55:31Z</time>
</trkpt>
<trkpt lat="49.666401" lon="10.068586">
<ele>186.514</ele>
<time>2019-05-30T12:55:32Z</time>
</trkpt>
<trkpt lat="49.666401" lon="10.068508">
<ele>186.514</ele>
<time>2019-05-30T12:55:33Z</time>
</trkpt>
<trkpt lat="49.666401" lon="10.06843">
<ele>186.514</ele>
<time>2019-05-30T12:55:34Z</time>
</trkpt>
<trkpt lat="49.666401" lon="10.068365">
<ele>186.514</ele>
<time>2019-05-30T12:55:35Z</time>
</trkpt>
<trkpt lat="49.666401" lon="10.068307">
<ele>186.514</ele>
<time>2019-05-30T12:55:36Z</time>
</trkpt>
<trkpt lat="49.666401" lon="10.068244">
<ele>186.514</ele>
<time>2019-05-30T12:55:37Z</time>
</trkpt>
<trkpt lat="49.666401" lon="10.068188">
<ele>186.514</ele>
<time>2019-05-30T12:55:38Z</time>
</trkpt>
<trkpt lat="49.666401" lon="10.068122">
<ele>186.514</ele>
<time>2019-05-30T12:55:39Z</time>
</trkpt>
<trkpt lat="49.666397" lon="10.06806">
<ele>186.514</ele>
<time>2019-05-30T12:55:40Z</time>
</trkpt>
<trkpt lat="49.666397" lon="10.068004">
<ele>186.514</ele>
<time>2019-05-30T12:55:41Z</time>
</trkpt>
<trkpt lat="49.666393" lon="10.06794">
<ele>186.75</ele>
<time>2019-05-30T12:55:42Z</time>
</trkpt>
<trkpt lat="49.666393" lon="10.06788">
<ele>186.945</ele>
<time>2019-05-30T12:55:43Z</time>
</trkpt>
<trkpt lat="49.666386" lon="10.067817">
<ele>187.094</ele>
<time>2019-05-30T12:55:44Z</time>
</trkpt>
<trkpt lat="49.666382" lon="10.067757">
<ele>187.205</ele>
<time>2019-05-30T12:55:45Z</time>
</trkpt>
<trkpt lat="49.666382" lon="10.067698">
<ele>187.284</ele>
<time>2019-05-30T12:55:46Z</time>
</trkpt>
<trkpt lat="49.666378" lon="10.067641">
<ele>187.355</ele>
<time>2019-05-30T12:55:47Z</time>
</trkpt>
<trkpt lat="49.666378" lon="10.067591">
<ele>187.63</ele>
<time>2019-05-30T12:55:48Z</time>
</trkpt>
<trkpt lat="49.666378" lon="10.06754">
<ele>187.84</ele>
<time>2019-05-30T12:55:49Z</time>
</trkpt>
<trkpt lat="49.666374" lon="10.067496">
<ele>188.072</ele>
<time>2019-05-30T12:55:50Z</time>
</trkpt>
<trkpt lat="49.66637" lon="10.067456">
<ele>188.186</ele>
<time>2019-05-30T12:55:51Z</time>
</trkpt>
<trkpt lat="49.66637" lon="10.067421">
<ele>188.274</ele>
<time>2019-05-30T12:55:52Z</time>
</trkpt>
<trkpt lat="49.66637" lon="10.067396">
<ele>188.324</ele>
<time>2019-05-30T12:55:53Z</time>
</trkpt>
<trkpt lat="49.66637" lon="10.06738">
<ele>188.35</ele>
<time>2019-05-30T12:55:54Z</time>
</trkpt>
<trkpt lat="49.666374" lon="10.067355">
<ele>188.357</ele>
<time>2019-05-30T12:55:55Z</time>
</trkpt>
<trkpt lat="49.666378" lon="10.067325">
<ele>188.357</ele>
<time>2019-05-30T12:55:56Z</time>
</trkpt>
<trkpt lat="49.666389" lon="10.067291">
<ele>188.357</ele>
<time>2019-05-30T12:55:57Z</time>
</trkpt>
<trkpt lat="49.666401" lon="10.067255">
<ele>188.357</ele>
<time>2019-05-30T12:55:58Z</time>
</trkpt>
<trkpt lat="49.666412" lon="10.067211">
<ele>188.357</ele>
<time>2019-05-30T12:55:59Z</time>
</trkpt>
<trkpt lat="49.666424" lon="10.067159">
<ele>188.357</ele>
<time>2019-05-30T12:56:00Z</time>
</trkpt>
<trkpt lat="49.666439" lon="10.067097">
<ele>188.357</ele>
<time>2019-05-30T12:56:01Z</time>
</trkpt>
<trkpt lat="49.666451" lon="10.067032">
<ele>188.357</ele>
<time>2019-05-30T12:56:02Z</time>
</trkpt>
<trkpt lat="49.666462" lon="10.066964">
<ele>188.357</ele>
<time>2019-05-30T12:56:03Z</time>
</trkpt>
<trkpt lat="49.666466" lon="10.066889">
<ele>188.01</ele>
<time>2019-05-30T12:56:04Z</time>
</trkpt>
<trkpt lat="49.66647" lon="10.066807">
<ele>187.764</ele>
<time>2019-05-30T12:56:05Z</time>
</trkpt>
<trkpt lat="49.666473" lon="10.066717">
<ele>187.622</ele>
<time>2019-05-30T12:56:06Z</time>
</trkpt>
<trkpt lat="49.666477" lon="10.066627">
<ele>187.461</ele>
<time>2019-05-30T12:56:07Z</time>
</trkpt>
<trkpt lat="49.666481" lon="10.066537">
<ele>187.345</ele>
<time>2019-05-30T12:56:08Z</time>
</trkpt>
<trkpt lat="49.666485" lon="10.066451">
<ele>187.264</ele>
<time>2019-05-30T12:56:09Z</time>
</trkpt>
<trkpt lat="49.666485" lon="10.066367">
<ele>187.209</ele>
<time>2019-05-30T12:56:10Z</time>
</trkpt>
<trkpt lat="49.666489" lon="10.066285">
<ele>187.184</ele>
<time>2019-05-30T12:56:11Z</time>
</trkpt>
<trkpt lat="49.666492" lon="10.066206">
<ele>187.184</ele>
<time>2019-05-30T12:56:12Z</time>
</trkpt>
<trkpt lat="49.666492" lon="10.06613">
<ele>187.184</ele>
<time>2019-05-30T12:56:13Z</time>
</trkpt>
<trkpt lat="49.666496" lon="10.066053">
<ele>187.184</ele>
<time>2019-05-30T12:56:14Z</time>
</trkpt>
<trkpt lat="49.6665" lon="10.06598">
<ele>187.184</ele>
<time>2019-05-30T12:56:15Z</time>
</trkpt>
<trkpt lat="49.6665" lon="10.065907">
<ele>186.986</ele>
<time>2019-05-30T12:56:16Z</time>
</trkpt>
<trkpt lat="49.666504" lon="10.065831">
<ele>186.795</ele>
<time>2019-05-30T12:56:17Z</time>
</trkpt>
<trkpt lat="49.666508" lon="10.065757">
<ele>186.636</ele>
<time>2019-05-30T12:56:18Z</time>
</trkpt>
<trkpt lat="49.666508" lon="10.065684">
<ele>186.506</ele>
<time>2019-05-30T12:56:19Z</time>
</trkpt>
<trkpt lat="49.666512" lon="10.065613">
<ele>186.405</ele>
<time>2019-05-30T12:56:20Z</time>
</trkpt>
<trkpt lat="49.666515" lon="10.065545">
<ele>186.332</ele>
<time>2019-05-30T12:56:21Z</time>
</trkpt>
<trkpt lat="49.666523" lon="10.065475">
<ele>186.286</ele>
<time>2019-05-30T12:56:22Z</time>
</trkpt>
<trkpt lat="49.666523" lon="10.065403">
<ele>186.263</ele>
<time>2019-05-30T12:56:23Z</time>
</trkpt>
<trkpt lat="49.666523" lon="10.065331">
<ele>186.263</ele>
<time>2019-05-30T12:56:24Z</time>
</trkpt>
<trkpt lat="49.666527" lon="10.06526">
<ele>186.263</ele>
<time>2019-05-30T12:56:25Z</time>
</trkpt>
<trkpt lat="49.666531" lon="10.065193">
<ele>186.263</ele>
<time>2019-05-30T12:56:26Z</time>
</trkpt>
<trkpt lat="49.666531" lon="10.06513">
<ele>186.263</ele>
<time>2019-05-30T12:56:27Z</time>
</trkpt>
<trkpt lat="49.666534" lon="10.065065">
<ele>186.263</ele>
<time>2019-05-30T12:56:28Z</time>
</trkpt>
<trkpt lat="49.666534" lon="10.065001">
<ele>186.263</ele>
<time>2019-05-30T12:56:29Z</time>
</trkpt>
<trkpt lat="49.666534" lon="10.064935">
<ele>186.263</ele>
<time>2019-05-30T12:56:30Z</time>
</trkpt>
<trkpt lat="49.666534" lon="10.06487">
<ele>186.263</ele>
<time>2019-05-30T12:56:31Z</time>
</trkpt>
<trkpt lat="49.666534" lon="10.0648">
<ele>186.263</ele>
<time>2019-05-30T12:56:32Z</time>
</trkpt>
<trkpt lat="49.666538" lon="10.064729">
<ele>186.263</ele>
<time>2019-05-30T12:56:33Z</time>
</trkpt>
<trkpt lat="49.666538" lon="10.064658">
<ele>186.263</ele>
<time>2019-05-30T12:56:34Z</time>
</trkpt>
<trkpt lat="49.666542" lon="10.064585">
<ele>186.263</ele>
<time>2019-05-30T12:56:35Z</time>
</trkpt>
<trkpt lat="49.666538" lon="10.064511">
<ele>186.263</ele>
<time>2019-05-30T12:56:36Z</time>
</trkpt>
<trkpt lat="49.666538" lon="10.064437">
<ele>186.263</ele>
<time>2019-05-30T12:56:37Z</time>
</trkpt>
<trkpt lat="49.666542" lon="10.06436">
<ele>186.263</ele>
<time>2019-05-30T12:56:38Z</time>
</trkpt>
<trkpt lat="49.666542" lon="10.064282">
<ele>186.263</ele>
<time>2019-05-30T12:56:39Z</time>
</trkpt>
<trkpt lat="49.666542" lon="10.064207">
<ele>186.263</ele>
<time>2019-05-30T12:56:40Z</time>
</trkpt>
<trkpt lat="49.666538" lon="10.064136">
<ele>186.263</ele>
<time>2019-05-30T12:56:41Z</time>
</trkpt>
<trkpt lat="49.666534" lon="10.064063">
<ele>186.263</ele>
<time>2019-05-30T12:56:42Z</time>
</trkpt>
<trkpt lat="49.666534" lon="10.06399">
<ele>186.263</ele>
<time>2019-05-30T12:56:43Z</time>
</trkpt>
<trkpt lat="49.666534" lon="10.063918">
<ele>186.263</ele>
<time>2019-05-30T12:56:44Z</time>
</trkpt>
<trkpt lat="49.666534" lon="10.063848">
<ele>186.263</ele>
<time>2019-05-30T12:56:45Z</time>
</trkpt>
<trkpt lat="49.666534" lon="10.063778">
<ele>186.263</ele>
<time>2019-05-30T12:56:46Z</time>
</trkpt>
<trkpt lat="49.666534" lon="10.063706">
<ele>186.263</ele>
<time>2019-05-30T12:56:47Z</time>
</trkpt>
<trkpt lat="49.666534" lon="10.063637">
<ele>186.263</ele>
<time>2019-05-30T12:56:48Z</time>
</trkpt>
<trkpt lat="49.666531" lon="10.063572">
<ele>186.263</ele>
<time>2019-05-30T12:56:49Z</time>
</trkpt>
<trkpt lat="49.666527" lon="10.063509">
<ele>186.263</ele>
<time>2019-05-30T12:56:50Z</time>
</trkpt>
<trkpt lat="49.666527" lon="10.063449">
<ele>186.263</ele>
<time>2019-05-30T12:56:51Z</time>
</trkpt>
<trkpt lat="49.666523" lon="10.063392">
<ele>186.263</ele>
<time>2019-05-30T12:56:52Z</time>
</trkpt>
<trkpt lat="49.666527" lon="10.063338">
<ele>186.263</ele>
<time>2019-05-30T12:56:53Z</time>
</trkpt>
<trkpt lat="49.666527" lon="10.063287">
<ele>186.263</ele>
<time>2019-05-30T12:56:54Z</time>
</trkpt>
<trkpt lat="49.666523" lon="10.063233">
<ele>186.263</ele>
<time>2019-05-30T12:56:55Z</time>
</trkpt>
<trkpt lat="49.666512" lon="10.063183">
<ele>186.263</ele>
<time>2019-05-30T12:56:56Z</time>
</trkpt>
<trkpt lat="49.6665" lon="10.063147">
<ele>186.263</ele>
<time>2019-05-30T12:56:57Z</time>
</trkpt>
<trkpt lat="49.666485" lon="10.063113">
<ele>186.263</ele>
<time>2019-05-30T12:56:58Z</time>
</trkpt>
<trkpt lat="49.666466" lon="10.063088">
<ele>186.263</ele>
<time>2019-05-30T12:56:59Z</time>
</trkpt>
<trkpt lat="49.666451" lon="10.063068">
<ele>186.263</ele>
<time>2019-05-30T12:57:00Z</time>
</trkpt>
<trkpt lat="49.666435" lon="10.063062">
<ele>186.263</ele>
<time>2019-05-30T12:57:01Z</time>
</trkpt>
<trkpt lat="49.666416" lon="10.063059">
<ele>186.263</ele>
<time>2019-05-30T12:57:02Z</time>
</trkpt>
<trkpt lat="49.666405" lon="10.063057">
<ele>186.263</ele>
<time>2019-05-30T12:57:03Z</time>
</trkpt>
<trkpt lat="49.666382" lon="10.063059">
<ele>186.263</ele>
<time>2019-05-30T12:57:04Z</time>
</trkpt>
<trkpt lat="49.666363" lon="10.063059">
<ele>186.263</ele>
<time>2019-05-30T12:57:05Z</time>
</trkpt>
<trkpt lat="49.666344" lon="10.063057">
<ele>186.263</ele>
<time>2019-05-30T12:57:06Z</time>
</trkpt>
<trkpt lat="49.666325" lon="10.063055">
<ele>186.263</ele>
<time>2019-05-30T12:57:07Z</time>
</trkpt>
<trkpt lat="49.666309" lon="10.06305">
<ele>186.263</ele>
<time>2019-05-30T12:57:08Z</time>
</trkpt>
<trkpt lat="49.666286" lon="10.063044">
<ele>186.263</ele>
<time>2019-05-30T12:57:09Z</time>
</trkpt>
<trkpt lat="49.666275" lon="10.063036">
<ele>186.263</ele>
<time>2019-05-30T12:57:10Z</time>
</trkpt>
<trkpt lat="49.66626" lon="10.063033">
<ele>186.263</ele>
<time>2019-05-30T12:57:11Z</time>
</trkpt>
<trkpt lat="49.666252" lon="10.063028">
<ele>186.263</ele>
<time>2019-05-30T12:57:12Z</time>
</trkpt>
<trkpt lat="49.666233" lon="10.063028">
<ele>186.263</ele>
<time>2019-05-30T12:58:19Z</time>
</trkpt>
<trkpt lat="49.666222" lon="10.063031">
<ele>186.479</ele>
<time>2019-05-30T12:58:20Z</time>
</trkpt>
<trkpt lat="49.66621" lon="10.063033">
<ele>186.652</ele>
<time>2019-05-30T12:58:21Z</time>
</trkpt>
<trkpt lat="49.666187" lon="10.063033">
<ele>186.777</ele>
<time>2019-05-30T12:58:22Z</time>
</trkpt>
<trkpt lat="49.666168" lon="10.063027">
<ele>186.923</ele>
<time>2019-05-30T12:58:23Z</time>
</trkpt>
<trkpt lat="49.666149" lon="10.063017">
<ele>187.051</ele>
<time>2019-05-30T12:58:24Z</time>
</trkpt>
<trkpt lat="49.66613" lon="10.063011">
<ele>187.131</ele>
<time>2019-05-30T12:58:25Z</time>
</trkpt>
<trkpt lat="49.666111" lon="10.063008">
<ele>187.171</ele>
<time>2019-05-30T12:58:26Z</time>
</trkpt>
<trkpt lat="49.666103" lon="10.063">
<ele>187.184</ele>
<time>2019-05-30T12:58:27Z</time>
</trkpt>
<trkpt lat="49.666092" lon="10.063015">
<ele>187.184</ele>
<time>2019-05-30T12:58:28Z</time>
</trkpt>
<trkpt lat="49.666077" lon="10.063028">
<ele>187.184</ele>
<time>2019-05-30T12:58:29Z</time>
</trkpt>
<trkpt lat="49.66605" lon="10.063042">
<ele>187.184</ele>
<time>2019-05-30T12:58:30Z</time>
</trkpt>
<trkpt lat="49.666031" lon="10.063062">
<ele>187.184</ele>
<time>2019-05-30T12:58:31Z</time>
</trkpt>
<trkpt lat="49.666016" lon="10.063087">
<ele>187.184</ele>
<time>2019-05-30T12:58:32Z</time>
</trkpt>
<trkpt lat="49.666" lon="10.063111">
<ele>187.43</ele>
<time>2019-05-30T12:58:33Z</time>
</trkpt>
<trkpt lat="49.665985" lon="10.06314">
<ele>187.632</ele>
<time>2019-05-30T12:58:34Z</time>
</trkpt>
<trkpt lat="49.665955" lon="10.063174">
<ele>187.808</ele>
<time>2019-05-30T12:58:35Z</time>
</trkpt>
<trkpt lat="49.665936" lon="10.063206">
<ele>187.903</ele>
<time>2019-05-30T12:58:36Z</time>
</trkpt>
<trkpt lat="49.665913" lon="10.063243">
<ele>187.983</ele>
<time>2019-05-30T12:58:37Z</time>
</trkpt>
<trkpt lat="49.66589" lon="10.063281">
<ele>188.039</ele>
<time>2019-05-30T12:58:38Z</time>
</trkpt>
<trkpt lat="49.665871" lon="10.0633">
<ele>188.086</ele>
<time>2019-05-30T12:58:39Z</time>
</trkpt>
<trkpt lat="49.665852" lon="10.06331">
<ele>188.106</ele>
<time>2019-05-30T12:58:40Z</time>
</trkpt>
<trkpt lat="49.665825" lon="10.063313">
<ele>188.106</ele>
<time>2019-05-30T12:58:41Z</time>
</trkpt>
<trkpt lat="49.665791" lon="10.063312">
<ele>188.106</ele>
<time>2019-05-30T12:58:42Z</time>
</trkpt>
<trkpt lat="49.665768" lon="10.063305">
<ele>188.106</ele>
<time>2019-05-30T12:58:43Z</time>
</trkpt>
<trkpt lat="49.66573" lon="10.063295">
<ele>188.106</ele>
<time>2019-05-30T12:58:44Z</time>
</trkpt>
<trkpt lat="49.665699" lon="10.063289">
<ele>188.106</ele>
<time>2019-05-30T12:58:45Z</time>
</trkpt>
<trkpt lat="49.665661" lon="10.063276">
<ele>188.106</ele>
<time>2019-05-30T12:58:46Z</time>
</trkpt>
<trkpt lat="49.665627" lon="10.063265">
<ele>188.106</ele>
<time>2019-05-30T12:58:47Z</time>
</trkpt>
<trkpt lat="49.665596" lon="10.063256">
<ele>188.106</ele>
<time>2019-05-30T12:58:48Z</time>
</trkpt>
<trkpt lat="49.665577" lon="10.06325">
<ele>188.106</ele>
<time>2019-05-30T12:58:49Z</time>
</trkpt>
<trkpt lat="49.665543" lon="10.06326">
<ele>188.106</ele>
<time>2019-05-30T12:58:50Z</time>
</trkpt>
<trkpt lat="49.66552" lon="10.06325">
<ele>188.106</ele>
<time>2019-05-30T12:58:51Z</time>
</trkpt>
<trkpt lat="49.665497" lon="10.063241">
<ele>188.106</ele>
<time>2019-05-30T12:58:52Z</time>
</trkpt>
<trkpt lat="49.665489" lon="10.063235">
<ele>188.106</ele>
<time>2019-05-30T12:58:53Z</time>
</trkpt>
<trkpt lat="49.665474" lon="10.063231">
<ele>188.106</ele>
<time>2019-05-30T12:58:54Z</time>
</trkpt>
<trkpt lat="49.665451" lon="10.063222">
<ele>188.106</ele>
<time>2019-05-30T12:58:55Z</time>
</trkpt>
<trkpt lat="49.665428" lon="10.063218">
<ele>188.106</ele>
<time>2019-05-30T12:58:56Z</time>
</trkpt>
<trkpt lat="49.665409" lon="10.063202">
<ele>188.106</ele>
<time>2019-05-30T12:58:57Z</time>
</trkpt>
<trkpt lat="49.665386" lon="10.063199">
<ele>188.106</ele>
<time>2019-05-30T12:58:58Z</time>
</trkpt>
<trkpt lat="49.665363" lon="10.063204">
<ele>188.106</ele>
<time>2019-05-30T12:58:59Z</time>
</trkpt>
<trkpt lat="49.665344" lon="10.063204">
<ele>188.106</ele>
<time>2019-05-30T12:59:00Z</time>
</trkpt>
<trkpt lat="49.665314" lon="10.063202">
<ele>188.373</ele>
<time>2019-05-30T12:59:01Z</time>
</trkpt>
<trkpt lat="49.665283" lon="10.063195">
<ele>188.536</ele>
<time>2019-05-30T12:59:02Z</time>
</trkpt>
<trkpt lat="49.66526" lon="10.06318">
<ele>188.709</ele>
<time>2019-05-30T12:59:03Z</time>
</trkpt>
<trkpt lat="49.66523" lon="10.063164">
<ele>188.86</ele>
<time>2019-05-30T12:59:04Z</time>
</trkpt>
<trkpt lat="49.665207" lon="10.06315">
<ele>188.971</ele>
<time>2019-05-30T12:59:05Z</time>
</trkpt>
<trkpt lat="49.665184" lon="10.06315">
<ele>189.043</ele>
<time>2019-05-30T12:59:06Z</time>
</trkpt>
<trkpt lat="49.665161" lon="10.063151">
<ele>189.088</ele>
<time>2019-05-30T12:59:07Z</time>
</trkpt>
<trkpt lat="49.665138" lon="10.063138">
<ele>189.111</ele>
<time>2019-05-30T12:59:08Z</time>
</trkpt>
<trkpt lat="49.665104" lon="10.063143">
<ele>189.111</ele>
<time>2019-05-30T12:59:09Z</time>
</trkpt>
<trkpt lat="49.665073" lon="10.063153">
<ele>189.111</ele>
<time>2019-05-30T12:59:10Z</time>
</trkpt>
<trkpt lat="49.665043" lon="10.063155">
<ele>189.111</ele>
<time>2019-05-30T12:59:11Z</time>
</trkpt>
<trkpt lat="49.665009" lon="10.063155">
<ele>189.111</ele>
<time>2019-05-30T12:59:12Z</time>
</trkpt>
<trkpt lat="49.664982" lon="10.063155">
<ele>189.352</ele>
<time>2019-05-30T12:59:13Z</time>
</trkpt>
<trkpt lat="49.664951" lon="10.063153">
<ele>189.542</ele>
<time>2019-05-30T12:59:14Z</time>
</trkpt>
<trkpt lat="49.664917" lon="10.06315">
<ele>189.696</ele>
<time>2019-05-30T12:59:15Z</time>
</trkpt>
<trkpt lat="49.664879" lon="10.06315">
<ele>189.812</ele>
<time>2019-05-30T12:59:16Z</time>
</trkpt>
<trkpt lat="49.664845" lon="10.063151">
<ele>189.875</ele>
<time>2019-05-30T12:59:17Z</time>
</trkpt>
<trkpt lat="49.66481" lon="10.06315">
<ele>190.216</ele>
<time>2019-05-30T12:59:18Z</time>
</trkpt>
<trkpt lat="49.66478" lon="10.06317">
<ele>190.476</ele>
<time>2019-05-30T12:59:19Z</time>
</trkpt>
<trkpt lat="49.664749" lon="10.063166">
<ele>190.661</ele>
<time>2019-05-30T12:59:20Z</time>
</trkpt>
<trkpt lat="49.664726" lon="10.063162">
<ele>190.795</ele>
<time>2019-05-30T12:59:21Z</time>
</trkpt>
<trkpt lat="49.664715" lon="10.063147">
<ele>190.875</ele>
<time>2019-05-30T12:59:22Z</time>
</trkpt>
<trkpt lat="49.664703" lon="10.063143">
<ele>190.951</ele>
<time>2019-05-30T12:59:23Z</time>
</trkpt>
<trkpt lat="49.66468" lon="10.063153">
<ele>191.005</ele>
<time>2019-05-30T12:59:24Z</time>
</trkpt>
<trkpt lat="49.664669" lon="10.063173">
<ele>191.037</ele>
<time>2019-05-30T12:59:25Z</time>
</trkpt>
<trkpt lat="49.664654" lon="10.063202">
<ele>191.037</ele>
<time>2019-05-30T12:59:26Z</time>
</trkpt>
<trkpt lat="49.664646" lon="10.063237">
<ele>191.037</ele>
<time>2019-05-30T12:59:27Z</time>
</trkpt>
<trkpt lat="49.664639" lon="10.063273">
<ele>191.037</ele>
<time>2019-05-30T12:59:28Z</time>
</trkpt>
<trkpt lat="49.664627" lon="10.06331">
<ele>191.037</ele>
<time>2019-05-30T12:59:29Z</time>
</trkpt>
<trkpt lat="49.664616" lon="10.06335">
<ele>191.037</ele>
<time>2019-05-30T12:59:30Z</time>
</trkpt>
<trkpt lat="49.664604" lon="10.063386">
<ele>191.037</ele>
<time>2019-05-30T12:59:31Z</time>
</trkpt>
<trkpt lat="49.664589" lon="10.063425">
<ele>191.037</ele>
<time>2019-05-30T12:59:32Z</time>
</trkpt>
<trkpt lat="49.664581" lon="10.063459">
<ele>191.037</ele>
<time>2019-05-30T12:59:33Z</time>
</trkpt>
<trkpt lat="49.664566" lon="10.063486">
<ele>191.037</ele>
<time>2019-05-30T12:59:34Z</time>
</trkpt>
<trkpt lat="49.664555" lon="10.063521">
<ele>191.037</ele>
<time>2019-05-30T12:59:35Z</time>
</trkpt>
<trkpt lat="49.664547" lon="10.063553">
<ele>191.289</ele>
<time>2019-05-30T12:59:36Z</time>
</trkpt>
<trkpt lat="49.664536" lon="10.063591">
<ele>191.485</ele>
<time>2019-05-30T12:59:37Z</time>
</trkpt>
<trkpt lat="49.664528" lon="10.06363">
<ele>191.635</ele>
<time>2019-05-30T12:59:38Z</time>
</trkpt>
<trkpt lat="49.66452" lon="10.063666">
<ele>191.751</ele>
<time>2019-05-30T12:59:39Z</time>
</trkpt>
<trkpt lat="49.66452" lon="10.0637">
<ele>191.84</ele>
<time>2019-05-30T12:59:40Z</time>
</trkpt>
<trkpt lat="49.664516" lon="10.063733">
<ele>191.893</ele>
<time>2019-05-30T12:59:41Z</time>
</trkpt>
<trkpt lat="49.664513" lon="10.063766">
<ele>191.935</ele>
<time>2019-05-30T12:59:42Z</time>
</trkpt>
<trkpt lat="49.664516" lon="10.0638">
<ele>191.959</ele>
<time>2019-05-30T12:59:43Z</time>
</trkpt>
<trkpt lat="49.664516" lon="10.063831">
<ele>191.959</ele>
<time>2019-05-30T12:59:44Z</time>
</trkpt>
<trkpt lat="49.664513" lon="10.063867">
<ele>191.959</ele>
<time>2019-05-30T12:59:45Z</time>
</trkpt>
<trkpt lat="49.664513" lon="10.063893">
<ele>191.959</ele>
<time>2019-05-30T12:59:46Z</time>
</trkpt>
<trkpt lat="49.664509" lon="10.063916">
<ele>191.959</ele>
<time>2019-05-30T12:59:47Z</time>
</trkpt>
<trkpt lat="49.664497" lon="10.06394">
<ele>191.959</ele>
<time>2019-05-30T12:59:48Z</time>
</trkpt>
<trkpt lat="49.664486" lon="10.063958">
<ele>191.959</ele>
<time>2019-05-30T12:59:49Z</time>
</trkpt>
<trkpt lat="49.664478" lon="10.063971">
<ele>191.959</ele>
<time>2019-05-30T12:59:50Z</time>
</trkpt>
<trkpt lat="49.664471" lon="10.063976">
<ele>191.959</ele>
<time>2019-05-30T12:59:51Z</time>
</trkpt>
<trkpt lat="49.664452" lon="10.063998">
<ele>191.959</ele>
<time>2019-05-30T12:59:54Z</time>
</trkpt>
<trkpt lat="49.664448" lon="10.064004">
<ele>192.16</ele>
<time>2019-05-30T12:59:55Z</time>
</trkpt>
<trkpt lat="49.664448" lon="10.06401">
<ele>192.34</ele>
<time>2019-05-30T12:59:56Z</time>
</trkpt>
<trkpt lat="49.664444" lon="10.06402">
<ele>192.488</ele>
<time>2019-05-30T12:59:57Z</time>
</trkpt>
<trkpt lat="49.664444" lon="10.064022">
<ele>192.606</ele>
<time>2019-05-30T12:59:58Z</time>
</trkpt>
<trkpt lat="49.66444" lon="10.064025">
<ele>192.715</ele>
<time>2019-05-30T12:59:59Z</time>
</trkpt>
<trkpt lat="49.664394" lon="10.063875">
<ele>187.75</ele>
<time>2019-05-30T13:00:07Z</time>
</trkpt>
<trkpt lat="49.664364" lon="10.063911">
<ele>192.964</ele>
<time>2019-05-30T13:00:08Z</time>
</trkpt>
<trkpt lat="49.664375" lon="10.063913">
<ele>190.909</ele>
<time>2019-05-30T13:00:09Z</time>
</trkpt>
<trkpt lat="49.66436" lon="10.063908">
<ele>189.575</ele>
<time>2019-05-30T13:00:10Z</time>
</trkpt>
<trkpt lat="49.664371" lon="10.063911">
<ele>188.469</ele>
<time>2019-05-30T13:00:11Z</time>
</trkpt>
<trkpt lat="49.664352" lon="10.063929">
<ele>188.056</ele>
<time>2019-05-30T13:00:41Z</time>
</trkpt>
<trkpt lat="49.664356" lon="10.063929">
<ele>187.884</ele>
<time>2019-05-30T13:00:42Z</time>
</trkpt>
<trkpt lat="49.664356" lon="10.063932">
<ele>187.794</ele>
<time>2019-05-30T13:00:43Z</time>
</trkpt>
<trkpt lat="49.664356" lon="10.063931">
<ele>187.833</ele>
<time>2019-05-30T13:00:44Z</time>
</trkpt>
<trkpt lat="49.664368" lon="10.063897">
<ele>187.75</ele>
<time>2019-05-30T13:02:08Z</time>
</trkpt>
<trkpt lat="49.66436" lon="10.063893">
<ele>187.75</ele>
<time>2019-05-30T13:02:09Z</time>
</trkpt>
<trkpt lat="49.664352" lon="10.063889">
<ele>187.75</ele>
<time>2019-05-30T13:02:10Z</time>
</trkpt>
<trkpt lat="49.664356" lon="10.063891">
<ele>187.75</ele>
<time>2019-05-30T13:02:11Z</time>
</trkpt>
<trkpt lat="49.664352" lon="10.063889">
<ele>187.75</ele>
<time>2019-05-30T13:02:12Z</time>
</trkpt>
<trkpt lat="49.664352" lon="10.06388">
<ele>187.75</ele>
<time>2019-05-30T13:02:13Z</time>
</trkpt>
<trkpt lat="49.664356" lon="10.063871">
<ele>187.75</ele>
<time>2019-05-30T13:02:14Z</time>
</trkpt>
<trkpt lat="49.664356" lon="10.063862">
<ele>187.75</ele>
<time>2019-05-30T13:02:15Z</time>
</trkpt>
<trkpt lat="49.664356" lon="10.063853">
<ele>187.75</ele>
<time>2019-05-30T13:02:16Z</time>
</trkpt>
<trkpt lat="49.664356" lon="10.06385">
<ele>187.75</ele>
<time>2019-05-30T13:02:17Z</time>
</trkpt>
<trkpt lat="49.664356" lon="10.063847">
<ele>187.75</ele>
<time>2019-05-30T13:02:18Z</time>
</trkpt>
<trkpt lat="49.664375" lon="10.063836">
<ele>187.75</ele>
<time>2019-05-30T13:02:27Z</time>
</trkpt>
<trkpt lat="49.664375" lon="10.063833">
<ele>187.75</ele>
<time>2019-05-30T13:02:28Z</time>
</trkpt>
<trkpt lat="49.664375" lon="10.06383">
<ele>187.75</ele>
<time>2019-05-30T13:02:29Z</time>
</trkpt>
<trkpt lat="49.664383" lon="10.063808">
<ele>187.75</ele>
<time>2019-05-30T13:02:56Z</time>
</trkpt>
<trkpt lat="49.664391" lon="10.063778">
<ele>187.75</ele>
<time>2019-05-30T13:02:57Z</time>
</trkpt>
<trkpt lat="49.664391" lon="10.063748">
<ele>187.75</ele>
<time>2019-05-30T13:02:58Z</time>
</trkpt>
<trkpt lat="49.664406" lon="10.063715">
<ele>187.75</ele>
<time>2019-05-30T13:02:59Z</time>
</trkpt>
<trkpt lat="49.664417" lon="10.063679">
<ele>187.75</ele>
<time>2019-05-30T13:03:00Z</time>
</trkpt>
<trkpt lat="49.664421" lon="10.063643">
<ele>187.75</ele>
<time>2019-05-30T13:03:01Z</time>
</trkpt>
<trkpt lat="49.664433" lon="10.063606">
<ele>187.75</ele>
<time>2019-05-30T13:03:02Z</time>
</trkpt>
<trkpt lat="49.664444" lon="10.063561">
<ele>187.75</ele>
<time>2019-05-30T13:03:03Z</time>
</trkpt>
<trkpt lat="49.664463" lon="10.06353">
<ele>187.75</ele>
<time>2019-05-30T13:03:04Z</time>
</trkpt>
<trkpt lat="49.66449" lon="10.063503">
<ele>187.75</ele>
<time>2019-05-30T13:03:05Z</time>
</trkpt>
<trkpt lat="49.664505" lon="10.063468">
<ele>187.75</ele>
<time>2019-05-30T13:03:06Z</time>
</trkpt>
<trkpt lat="49.664516" lon="10.063432">
<ele>187.75</ele>
<time>2019-05-30T13:03:07Z</time>
</trkpt>
<trkpt lat="49.66452" lon="10.063396">
<ele>187.75</ele>
<time>2019-05-30T13:03:08Z</time>
</trkpt>
<trkpt lat="49.664551" lon="10.063365">
<ele>187.75</ele>
<time>2019-05-30T13:03:09Z</time>
</trkpt>
<trkpt lat="49.66457" lon="10.063323">
<ele>187.75</ele>
<time>2019-05-30T13:03:10Z</time>
</trkpt>
<trkpt lat="49.664585" lon="10.063281">
<ele>187.75</ele>
<time>2019-05-30T13:03:11Z</time>
</trkpt>
<trkpt lat="49.664612" lon="10.063237">
<ele>187.75</ele>
<time>2019-05-30T13:03:12Z</time>
</trkpt>
<trkpt lat="49.664619" lon="10.063189">
<ele>187.75</ele>
<time>2019-05-30T13:03:13Z</time>
</trkpt>
<trkpt lat="49.664635" lon="10.06315">
<ele>187.75</ele>
<time>2019-05-30T13:03:14Z</time>
</trkpt>
<trkpt lat="49.664639" lon="10.063097">
<ele>187.75</ele>
<time>2019-05-30T13:03:15Z</time>
</trkpt>
<trkpt lat="49.664639" lon="10.063035">
<ele>187.75</ele>
<time>2019-05-30T13:03:16Z</time>
</trkpt>
<trkpt lat="49.664642" lon="10.062988">
<ele>187.75</ele>
<time>2019-05-30T13:03:17Z</time>
</trkpt>
<trkpt lat="49.664646" lon="10.06295">
<ele>187.75</ele>
<time>2019-05-30T13:03:18Z</time>
</trkpt>
<trkpt lat="49.664654" lon="10.062905">
<ele>187.75</ele>
<time>2019-05-30T13:03:19Z</time>
</trkpt>
<trkpt lat="49.664669" lon="10.062858">
<ele>187.75</ele>
<time>2019-05-30T13:03:20Z</time>
</trkpt>
<trkpt lat="49.664677" lon="10.062819">
<ele>187.75</ele>
<time>2019-05-30T13:03:21Z</time>
</trkpt>
<trkpt lat="49.664684" lon="10.062777">
<ele>187.75</ele>
<time>2019-05-30T13:03:22Z</time>
</trkpt>
<trkpt lat="49.664692" lon="10.062737">
<ele>187.75</ele>
<time>2019-05-30T13:03:23Z</time>
</trkpt>
<trkpt lat="49.6647" lon="10.062695">
<ele>187.75</ele>
<time>2019-05-30T13:03:24Z</time>
</trkpt>
<trkpt lat="49.664711" lon="10.062642">
<ele>187.75</ele>
<time>2019-05-30T13:03:25Z</time>
</trkpt>
<trkpt lat="49.664722" lon="10.06259">
<ele>187.75</ele>
<time>2019-05-30T13:03:26Z</time>
</trkpt>
<trkpt lat="49.664734" lon="10.062537">
<ele>187.75</ele>
<time>2019-05-30T13:03:27Z</time>
</trkpt>
<trkpt lat="49.664745" lon="10.062482">
<ele>187.75</ele>
<time>2019-05-30T13:03:28Z</time>
</trkpt>
<trkpt lat="49.664753" lon="10.062433">
<ele>187.75</ele>
<time>2019-05-30T13:03:29Z</time>
</trkpt>
<trkpt lat="49.664768" lon="10.062387">
<ele>187.75</ele>
<time>2019-05-30T13:03:30Z</time>
</trkpt>
<trkpt lat="49.66478" lon="10.062338">
<ele>187.75</ele>
<time>2019-05-30T13:03:31Z</time>
</trkpt>
<trkpt lat="49.664795" lon="10.062288">
<ele>187.75</ele>
<time>2019-05-30T13:03:32Z</time>
</trkpt>
<trkpt lat="49.664806" lon="10.062243">
<ele>187.75</ele>
<time>2019-05-30T13:03:33Z</time>
</trkpt>
<trkpt lat="49.664814" lon="10.062198">
<ele>187.75</ele>
<time>2019-05-30T13:03:34Z</time>
</trkpt>
<trkpt lat="49.664825" lon="10.06215">
<ele>187.75</ele>
<time>2019-05-30T13:03:35Z</time>
</trkpt>
<trkpt lat="49.664837" lon="10.062097">
<ele>187.75</ele>
<time>2019-05-30T13:03:36Z</time>
</trkpt>
<trkpt lat="49.664848" lon="10.062045">
<ele>187.75</ele>
<time>2019-05-30T13:03:37Z</time>
</trkpt>
<trkpt lat="49.664864" lon="10.061996">
<ele>187.75</ele>
<time>2019-05-30T13:03:38Z</time>
</trkpt>
<trkpt lat="49.664875" lon="10.061956">
<ele>187.75</ele>
<time>2019-05-30T13:03:39Z</time>
</trkpt>
<trkpt lat="49.664867" lon="10.061972">
<ele>187.75</ele>
<time>2019-05-30T13:03:40Z</time>
</trkpt>
<trkpt lat="49.664864" lon="10.061967">
<ele>187.75</ele>
<time>2019-05-30T13:03:41Z</time>
</trkpt>
<trkpt lat="49.664867" lon="10.061923">
<ele>187.75</ele>
<time>2019-05-30T13:03:42Z</time>
</trkpt>
<trkpt lat="49.664879" lon="10.061848">
<ele>187.75</ele>
<time>2019-05-30T13:03:43Z</time>
</trkpt>
<trkpt lat="49.664883" lon="10.06179">
<ele>187.75</ele>
<time>2019-05-30T13:03:44Z</time>
</trkpt>
<trkpt lat="49.664909" lon="10.061747">
<ele>187.75</ele>
<time>2019-05-30T13:03:45Z</time>
</trkpt>
<trkpt lat="49.664871" lon="10.061678">
<ele>187.75</ele>
<time>2019-05-30T13:03:46Z</time>
</trkpt>
<trkpt lat="49.664845" lon="10.061618">
<ele>187.75</ele>
<time>2019-05-30T13:03:47Z</time>
</trkpt>
<trkpt lat="49.664845" lon="10.061552">
<ele>187.75</ele>
<time>2019-05-30T13:03:48Z</time>
</trkpt>
<trkpt lat="49.664845" lon="10.061492">
<ele>188.029</ele>
<time>2019-05-30T13:03:49Z</time>
</trkpt>
<trkpt lat="49.664845" lon="10.061431">
<ele>188.196</ele>
<time>2019-05-30T13:03:50Z</time>
</trkpt>
<trkpt lat="49.664852" lon="10.061392">
<ele>188.325</ele>
<time>2019-05-30T13:03:51Z</time>
</trkpt>
<trkpt lat="49.664864" lon="10.061356">
<ele>188.437</ele>
<time>2019-05-30T13:03:52Z</time>
</trkpt>
<trkpt lat="49.664875" lon="10.061314">
<ele>188.509</ele>
<time>2019-05-30T13:03:53Z</time>
</trkpt>
<trkpt lat="49.664886" lon="10.061276">
<ele>188.575</ele>
<time>2019-05-30T13:03:54Z</time>
</trkpt>
<trkpt lat="49.664898" lon="10.061236">
<ele>188.84</ele>
<time>2019-05-30T13:03:55Z</time>
</trkpt>
<trkpt lat="49.664906" lon="10.061193">
<ele>189.053</ele>
<time>2019-05-30T13:03:56Z</time>
</trkpt>
<trkpt lat="49.664909" lon="10.061151">
<ele>189.288</ele>
<time>2019-05-30T13:03:57Z</time>
</trkpt>
<trkpt lat="49.664917" lon="10.061109">
<ele>189.424</ele>
<time>2019-05-30T13:03:58Z</time>
</trkpt>
<trkpt lat="49.664917" lon="10.061071">
<ele>189.523</ele>
<time>2019-05-30T13:03:59Z</time>
</trkpt>
<trkpt lat="49.664917" lon="10.06104">
<ele>189.571</ele>
<time>2019-05-30T13:04:00Z</time>
</trkpt>
<trkpt lat="49.664913" lon="10.061007">
<ele>189.594</ele>
<time>2019-05-30T13:04:01Z</time>
</trkpt>
<trkpt lat="49.664902" lon="10.060974">
<ele>189.613</ele>
<time>2019-05-30T13:04:02Z</time>
</trkpt>
<trkpt lat="49.664879" lon="10.060945">
<ele>189.63</ele>
<time>2019-05-30T13:04:03Z</time>
</trkpt>
<trkpt lat="49.664864" lon="10.060922">
<ele>189.644</ele>
<time>2019-05-30T13:04:04Z</time>
</trkpt>
<trkpt lat="49.664837" lon="10.060899">
<ele>189.655</ele>
<time>2019-05-30T13:04:05Z</time>
</trkpt>
<trkpt lat="49.664806" lon="10.060884">
<ele>189.665</ele>
<time>2019-05-30T13:04:06Z</time>
</trkpt>
<trkpt lat="49.664776" lon="10.060873">
<ele>189.672</ele>
<time>2019-05-30T13:04:07Z</time>
</trkpt>
<trkpt lat="49.664745" lon="10.060865">
<ele>189.676</ele>
<time>2019-05-30T13:04:08Z</time>
</trkpt>
<trkpt lat="49.664715" lon="10.06086">
<ele>189.677</ele>
<time>2019-05-30T13:04:09Z</time>
</trkpt>
<trkpt lat="49.66468" lon="10.060855">
<ele>189.677</ele>
<time>2019-05-30T13:04:10Z</time>
</trkpt>
<trkpt lat="49.66465" lon="10.060851">
<ele>189.677</ele>
<time>2019-05-30T13:04:11Z</time>
</trkpt>
<trkpt lat="49.664616" lon="10.06085">
<ele>189.677</ele>
<time>2019-05-30T13:04:12Z</time>
</trkpt>
<trkpt lat="49.664585" lon="10.060848">
<ele>189.867</ele>
<time>2019-05-30T13:04:13Z</time>
</trkpt>
<trkpt lat="49.664551" lon="10.060848">
<ele>190.046</ele>
<time>2019-05-30T13:04:14Z</time>
</trkpt>
<trkpt lat="49.664516" lon="10.060848">
<ele>190.189</ele>
<time>2019-05-30T13:04:15Z</time>
</trkpt>
<trkpt lat="49.664486" lon="10.06085">
<ele>190.307</ele>
<time>2019-05-30T13:04:16Z</time>
</trkpt>
<trkpt lat="49.664452" lon="10.06085">
<ele>190.393</ele>
<time>2019-05-30T13:04:17Z</time>
</trkpt>
<trkpt lat="49.664417" lon="10.060853">
<ele>190.431</ele>
<time>2019-05-30T13:04:18Z</time>
</trkpt>
<trkpt lat="49.664383" lon="10.060855">
<ele>190.265</ele>
<time>2019-05-30T13:04:19Z</time>
</trkpt>
<trkpt lat="49.664356" lon="10.060851">
<ele>190.118</ele>
<time>2019-05-30T13:04:20Z</time>
</trkpt>
<trkpt lat="49.664322" lon="10.060846">
<ele>189.988</ele>
<time>2019-05-30T13:04:21Z</time>
</trkpt>
<trkpt lat="49.664295" lon="10.060842">
<ele>189.891</ele>
<time>2019-05-30T13:04:22Z</time>
</trkpt>
<trkpt lat="49.664272" lon="10.060838">
<ele>189.818</ele>
<time>2019-05-30T13:04:23Z</time>
</trkpt>
<trkpt lat="49.664253" lon="10.060832">
<ele>189.749</ele>
<time>2019-05-30T13:04:24Z</time>
</trkpt>
<trkpt lat="49.664227" lon="10.060825">
<ele>189.701</ele>
<time>2019-05-30T13:04:25Z</time>
</trkpt>
<trkpt lat="49.664196" lon="10.060817">
<ele>189.677</ele>
<time>2019-05-30T13:04:26Z</time>
</trkpt>
<trkpt lat="49.664169" lon="10.06081">
<ele>189.678</ele>
<time>2019-05-30T13:04:27Z</time>
</trkpt>
<trkpt lat="49.664139" lon="10.060802">
<ele>189.677</ele>
<time>2019-05-30T13:04:28Z</time>
</trkpt>
<trkpt lat="49.664108" lon="10.060799">
<ele>189.677</ele>
<time>2019-05-30T13:04:29Z</time>
</trkpt>
<trkpt lat="49.664082" lon="10.060795">
<ele>189.678</ele>
<time>2019-05-30T13:04:30Z</time>
</trkpt>
<trkpt lat="49.664051" lon="10.060788">
<ele>189.678</ele>
<time>2019-05-30T13:04:31Z</time>
</trkpt>
<trkpt lat="49.664021" lon="10.060781">
<ele>189.678</ele>
<time>2019-05-30T13:04:32Z</time>
</trkpt>
<trkpt lat="49.66399" lon="10.060771">
<ele>189.677</ele>
<time>2019-05-30T13:04:33Z</time>
</trkpt>
<trkpt lat="49.66396" lon="10.06076">
<ele>189.887</ele>
<time>2019-05-30T13:04:34Z</time>
</trkpt>
<trkpt lat="49.663929" lon="10.060746">
<ele>190.061</ele>
<time>2019-05-30T13:04:35Z</time>
</trkpt>
<trkpt lat="49.663898" lon="10.06073">
<ele>190.198</ele>
<time>2019-05-30T13:04:36Z</time>
</trkpt>
<trkpt lat="49.663868" lon="10.060712">
<ele>190.31</ele>
<time>2019-05-30T13:04:37Z</time>
</trkpt>
<trkpt lat="49.663841" lon="10.060692">
<ele>190.396</ele>
<time>2019-05-30T13:04:38Z</time>
</trkpt>
<trkpt lat="49.663818" lon="10.06067">
<ele>190.458</ele>
<time>2019-05-30T13:04:39Z</time>
</trkpt>
<trkpt lat="49.663788" lon="10.060647">
<ele>190.497</ele>
<time>2019-05-30T13:04:40Z</time>
</trkpt>
<trkpt lat="49.663761" lon="10.060625">
<ele>190.516</ele>
<time>2019-05-30T13:04:41Z</time>
</trkpt>
<trkpt lat="49.663746" lon="10.060607">
<ele>190.516</ele>
<time>2019-05-30T13:04:42Z</time>
</trkpt>
<trkpt lat="49.663731" lon="10.060585">
<ele>190.516</ele>
<time>2019-05-30T13:04:43Z</time>
</trkpt>
<trkpt lat="49.663704" lon="10.060566">
<ele>190.516</ele>
<time>2019-05-30T13:04:44Z</time>
</trkpt>
<trkpt lat="49.663677" lon="10.060543">
<ele>190.516</ele>
<time>2019-05-30T13:04:45Z</time>
</trkpt>
<trkpt lat="49.663658" lon="10.060515">
<ele>190.516</ele>
<time>2019-05-30T13:04:46Z</time>
</trkpt>
<trkpt lat="49.663639" lon="10.060485">
<ele>190.516</ele>
<time>2019-05-30T13:04:47Z</time>
</trkpt>
<trkpt lat="49.663624" lon="10.060469">
<ele>190.798</ele>
<time>2019-05-30T13:04:48Z</time>
</trkpt>
<trkpt lat="49.663612" lon="10.060453">
<ele>191.025</ele>
<time>2019-05-30T13:04:49Z</time>
</trkpt>
<trkpt lat="49.663605" lon="10.060427">
<ele>191.214</ele>
<time>2019-05-30T13:04:50Z</time>
</trkpt>
<trkpt lat="49.663593" lon="10.060403">
<ele>191.334</ele>
<time>2019-05-30T13:04:51Z</time>
</trkpt>
<trkpt lat="49.663574" lon="10.06039">
<ele>191.42</ele>
<time>2019-05-30T13:04:52Z</time>
</trkpt>
<trkpt lat="49.663544" lon="10.060391">
<ele>191.495</ele>
<time>2019-05-30T13:04:53Z</time>
</trkpt>
<trkpt lat="49.663525" lon="10.06039">
<ele>191.568</ele>
<time>2019-05-30T13:04:54Z</time>
</trkpt>
<trkpt lat="49.663513" lon="10.060371">
<ele>191.606</ele>
<time>2019-05-30T13:04:55Z</time>
</trkpt>
<trkpt lat="49.663498" lon="10.060351">
<ele>191.606</ele>
<time>2019-05-30T13:04:56Z</time>
</trkpt>
<trkpt lat="49.663483" lon="10.060333">
<ele>191.606</ele>
<time>2019-05-30T13:04:57Z</time>
</trkpt>
<trkpt lat="49.663475" lon="10.060318">
<ele>191.606</ele>
<time>2019-05-30T13:04:58Z</time>
</trkpt>
<trkpt lat="49.663475" lon="10.060313">
<ele>191.606</ele>
<time>2019-05-30T13:04:59Z</time>
</trkpt>
<trkpt lat="49.663475" lon="10.060307">
<ele>191.606</ele>
<time>2019-05-30T13:05:00Z</time>
</trkpt>
<trkpt lat="49.663475" lon="10.060246">
<ele>191.606</ele>
<time>2019-05-30T13:05:08Z</time>
</trkpt>
<trkpt lat="49.663483" lon="10.06022">
<ele>191.606</ele>
<time>2019-05-30T13:05:09Z</time>
</trkpt>
<trkpt lat="49.663486" lon="10.060204">
<ele>191.606</ele>
<time>2019-05-30T13:05:10Z</time>
</trkpt>
<trkpt lat="49.663486" lon="10.060205">
<ele>191.606</ele>
<time>2019-05-30T13:05:11Z</time>
</trkpt>
<trkpt lat="49.663486" lon="10.06021">
<ele>191.606</ele>
<time>2019-05-30T13:05:12Z</time>
</trkpt>
<trkpt lat="49.66349" lon="10.060213">
<ele>191.606</ele>
<time>2019-05-30T13:05:13Z</time>
</trkpt>
<trkpt lat="49.663486" lon="10.0602">
<ele>191.606</ele>
<time>2019-05-30T13:05:16Z</time>
</trkpt>
<trkpt lat="49.663486" lon="10.06018">
<ele>191.606</ele>
<time>2019-05-30T13:05:17Z</time>
</trkpt>
<trkpt lat="49.663486" lon="10.060162">
<ele>191.606</ele>
<time>2019-05-30T13:05:18Z</time>
</trkpt>
<trkpt lat="49.663483" lon="10.060143">
<ele>191.606</ele>
<time>2019-05-30T13:05:19Z</time>
</trkpt>
<trkpt lat="49.663475" lon="10.060126">
<ele>191.606</ele>
<time>2019-05-30T13:05:20Z</time>
</trkpt>
<trkpt lat="49.663475" lon="10.060115">
<ele>191.606</ele>
<time>2019-05-30T13:05:21Z</time>
</trkpt>
<trkpt lat="49.663471" lon="10.060101">
<ele>191.82</ele>
<time>2019-05-30T13:05:22Z</time>
</trkpt>
<trkpt lat="49.66346" lon="10.06009">
<ele>191.992</ele>
<time>2019-05-30T13:05:23Z</time>
</trkpt>
<trkpt lat="49.663452" lon="10.060083">
<ele>192.109</ele>
<time>2019-05-30T13:05:24Z</time>
</trkpt>
<trkpt lat="49.663445" lon="10.060078">
<ele>192.213</ele>
<time>2019-05-30T13:05:25Z</time>
</trkpt>
<trkpt lat="49.663437" lon="10.060078">
<ele>192.306</ele>
<time>2019-05-30T13:05:26Z</time>
</trkpt>
<trkpt lat="49.663429" lon="10.060075">
<ele>192.374</ele>
<time>2019-05-30T13:05:27Z</time>
</trkpt>
<trkpt lat="49.663422" lon="10.060059">
<ele>192.421</ele>
<time>2019-05-30T13:05:28Z</time>
</trkpt>
<trkpt lat="49.663418" lon="10.060032">
<ele>192.445</ele>
<time>2019-05-30T13:05:29Z</time>
</trkpt>
<trkpt lat="49.663418" lon="10.060002">
<ele>192.445</ele>
<time>2019-05-30T13:05:30Z</time>
</trkpt>
<trkpt lat="49.66341" lon="10.06">
<ele>192.445</ele>
<time>2019-05-30T13:05:31Z</time>
</trkpt>
<trkpt lat="49.663406" lon="10.059996">
<ele>192.445</ele>
<time>2019-05-30T13:05:33Z</time>
</trkpt>
<trkpt lat="49.663403" lon="10.059981">
<ele>192.445</ele>
<time>2019-05-30T13:05:34Z</time>
</trkpt>
<trkpt lat="49.663403" lon="10.059967">
<ele>192.445</ele>
<time>2019-05-30T13:05:35Z</time>
</trkpt>
<trkpt lat="49.663403" lon="10.059943">
<ele>192.722</ele>
<time>2019-05-30T13:05:36Z</time>
</trkpt>
<trkpt lat="49.663406" lon="10.05992">
<ele>192.948</ele>
<time>2019-05-30T13:05:37Z</time>
</trkpt>
<trkpt lat="49.66341" lon="10.059897">
<ele>193.15</ele>
<time>2019-05-30T13:05:38Z</time>
</trkpt>
<trkpt lat="49.66341" lon="10.059865">
<ele>193.334</ele>
<time>2019-05-30T13:05:39Z</time>
</trkpt>
<trkpt lat="49.663418" lon="10.059832">
<ele>193.448</ele>
<time>2019-05-30T13:05:40Z</time>
</trkpt>
<trkpt lat="49.663422" lon="10.059798">
<ele>193.484</ele>
<time>2019-05-30T13:05:41Z</time>
</trkpt>
<trkpt lat="49.663433" lon="10.059759">
<ele>193.512</ele>
<time>2019-05-30T13:05:42Z</time>
</trkpt>
<trkpt lat="49.663441" lon="10.059715">
<ele>193.535</ele>
<time>2019-05-30T13:05:43Z</time>
</trkpt>
<trkpt lat="49.663448" lon="10.059673">
<ele>193.884</ele>
<time>2019-05-30T13:05:44Z</time>
</trkpt>
<trkpt lat="49.663456" lon="10.059633">
<ele>194.131</ele>
<time>2019-05-30T13:05:45Z</time>
</trkpt>
<trkpt lat="49.663464" lon="10.059588">
<ele>194.292</ele>
<time>2019-05-30T13:05:46Z</time>
</trkpt>
<trkpt lat="49.663471" lon="10.05955">
<ele>194.366</ele>
<time>2019-05-30T13:05:47Z</time>
</trkpt>
<trkpt lat="49.663475" lon="10.059512">
<ele>194.713</ele>
<time>2019-05-30T13:05:48Z</time>
</trkpt>
<trkpt lat="49.663479" lon="10.059477">
<ele>194.941</ele>
<time>2019-05-30T13:05:49Z</time>
</trkpt>
<trkpt lat="49.66349" lon="10.059442">
<ele>195.115</ele>
<time>2019-05-30T13:05:50Z</time>
</trkpt>
<trkpt lat="49.663502" lon="10.059415">
<ele>195.222</ele>
<time>2019-05-30T13:05:51Z</time>
</trkpt>
<trkpt lat="49.663509" lon="10.059383">
<ele>195.301</ele>
<time>2019-05-30T13:05:52Z</time>
</trkpt>
<trkpt lat="49.663521" lon="10.059353">
<ele>195.595</ele>
<time>2019-05-30T13:05:53Z</time>
</trkpt>
<trkpt lat="49.663532" lon="10.059319">
<ele>195.83</ele>
<time>2019-05-30T13:05:54Z</time>
</trkpt>
<trkpt lat="49.66354" lon="10.059297">
<ele>196.019</ele>
<time>2019-05-30T13:05:55Z</time>
</trkpt>
<trkpt lat="49.663551" lon="10.059262">
<ele>196.147</ele>
<time>2019-05-30T13:05:56Z</time>
</trkpt>
<trkpt lat="49.663563" lon="10.059229">
<ele>196.247</ele>
<time>2019-05-30T13:05:57Z</time>
</trkpt>
<trkpt lat="49.663574" lon="10.059197">
<ele>196.308</ele>
<time>2019-05-30T13:05:58Z</time>
</trkpt>
<trkpt lat="49.663578" lon="10.059168">
<ele>196.59</ele>
<time>2019-05-30T13:05:59Z</time>
</trkpt>
<trkpt lat="49.663589" lon="10.059132">
<ele>196.799</ele>
<time>2019-05-30T13:06:00Z</time>
</trkpt>
<trkpt lat="49.663597" lon="10.059095">
<ele>196.956</ele>
<time>2019-05-30T13:06:01Z</time>
</trkpt>
<trkpt lat="49.663605" lon="10.05906">
<ele>197.053</ele>
<time>2019-05-30T13:06:02Z</time>
</trkpt>
<trkpt lat="49.663612" lon="10.059022">
<ele>197.395</ele>
<time>2019-05-30T13:06:03Z</time>
</trkpt>
<trkpt lat="49.663624" lon="10.058982">
<ele>197.655</ele>
<time>2019-05-30T13:06:04Z</time>
</trkpt>
<trkpt lat="49.663639" lon="10.058944">
<ele>197.867</ele>
<time>2019-05-30T13:06:05Z</time>
</trkpt>
<trkpt lat="49.663651" lon="10.058902">
<ele>198.018</ele>
<time>2019-05-30T13:06:06Z</time>
</trkpt>
<trkpt lat="49.663666" lon="10.058867">
<ele>198.092</ele>
<time>2019-05-30T13:06:07Z</time>
</trkpt>
<trkpt lat="49.663677" lon="10.05883">
<ele>198.391</ele>
<time>2019-05-30T13:06:08Z</time>
</trkpt>
<trkpt lat="49.663696" lon="10.058795">
<ele>198.63</ele>
<time>2019-05-30T13:06:09Z</time>
</trkpt>
<trkpt lat="49.663704" lon="10.058755">
<ele>198.807</ele>
<time>2019-05-30T13:06:10Z</time>
</trkpt>
<trkpt lat="49.663719" lon="10.058712">
<ele>198.926</ele>
<time>2019-05-30T13:06:11Z</time>
</trkpt>
<trkpt lat="49.663734" lon="10.058668">
<ele>199</ele>
<time>2019-05-30T13:06:12Z</time>
</trkpt>
<trkpt lat="49.663742" lon="10.058623">
<ele>199.079</ele>
<time>2019-05-30T13:06:13Z</time>
</trkpt>
<trkpt lat="49.663754" lon="10.058579">
<ele>199.13</ele>
<time>2019-05-30T13:06:14Z</time>
</trkpt>
<trkpt lat="49.663769" lon="10.05854">
<ele>199.155</ele>
<time>2019-05-30T13:06:15Z</time>
</trkpt>
<trkpt lat="49.66378" lon="10.058498">
<ele>199.155</ele>
<time>2019-05-30T13:06:16Z</time>
</trkpt>
<trkpt lat="49.663795" lon="10.058455">
<ele>199.155</ele>
<time>2019-05-30T13:06:17Z</time>
</trkpt>
<trkpt lat="49.663807" lon="10.05841">
<ele>199.155</ele>
<time>2019-05-30T13:06:18Z</time>
</trkpt>
<trkpt lat="49.663826" lon="10.058366">
<ele>199.155</ele>
<time>2019-05-30T13:06:19Z</time>
</trkpt>
<trkpt lat="49.663837" lon="10.058322">
<ele>199.155</ele>
<time>2019-05-30T13:06:20Z</time>
</trkpt>
<trkpt lat="49.663857" lon="10.05828">
<ele>199.155</ele>
<time>2019-05-30T13:06:21Z</time>
</trkpt>
<trkpt lat="49.663872" lon="10.058236">
<ele>199.155</ele>
<time>2019-05-30T13:06:22Z</time>
</trkpt>
<trkpt lat="49.663887" lon="10.058193">
<ele>199.155</ele>
<time>2019-05-30T13:06:23Z</time>
</trkpt>
<trkpt lat="49.663898" lon="10.058146">
<ele>199.155</ele>
<time>2019-05-30T13:06:24Z</time>
</trkpt>
<trkpt lat="49.663914" lon="10.058097">
<ele>199.155</ele>
<time>2019-05-30T13:06:25Z</time>
</trkpt>
<trkpt lat="49.663933" lon="10.058045">
<ele>199.155</ele>
<time>2019-05-30T13:06:26Z</time>
</trkpt>
<trkpt lat="49.663944" lon="10.057993">
<ele>199.155</ele>
<time>2019-05-30T13:06:27Z</time>
</trkpt>
<trkpt lat="49.663952" lon="10.057937">
<ele>199.155</ele>
<time>2019-05-30T13:06:28Z</time>
</trkpt>
<trkpt lat="49.663963" lon="10.057877">
<ele>199.155</ele>
<time>2019-05-30T13:06:29Z</time>
</trkpt>
<trkpt lat="49.663971" lon="10.057815">
<ele>199.155</ele>
<time>2019-05-30T13:06:30Z</time>
</trkpt>
<trkpt lat="49.663979" lon="10.057752">
<ele>199.155</ele>
<time>2019-05-30T13:06:31Z</time>
</trkpt>
<trkpt lat="49.663986" lon="10.057695">
<ele>199.155</ele>
<time>2019-05-30T13:06:32Z</time>
</trkpt>
<trkpt lat="49.663994" lon="10.057647">
<ele>199.155</ele>
<time>2019-05-30T13:06:33Z</time>
</trkpt>
<trkpt lat="49.663994" lon="10.057597">
<ele>199.155</ele>
<time>2019-05-30T13:06:34Z</time>
</trkpt>
<trkpt lat="49.663998" lon="10.057557">
<ele>199.155</ele>
<time>2019-05-30T13:06:35Z</time>
</trkpt>
<trkpt lat="49.664001" lon="10.057515">
<ele>199.155</ele>
<time>2019-05-30T13:06:36Z</time>
</trkpt>
<trkpt lat="49.664005" lon="10.057469">
<ele>199.155</ele>
<time>2019-05-30T13:06:37Z</time>
</trkpt>
<trkpt lat="49.664013" lon="10.057421">
<ele>199.155</ele>
<time>2019-05-30T13:06:38Z</time>
</trkpt>
<trkpt lat="49.664024" lon="10.057373">
<ele>199.484</ele>
<time>2019-05-30T13:06:39Z</time>
</trkpt>
<trkpt lat="49.664032" lon="10.057337">
<ele>199.757</ele>
<time>2019-05-30T13:06:40Z</time>
</trkpt>
<trkpt lat="49.664051" lon="10.057302">
<ele>199.978</ele>
<time>2019-05-30T13:06:41Z</time>
</trkpt>
<trkpt lat="49.664062" lon="10.057274">
<ele>200.128</ele>
<time>2019-05-30T13:06:42Z</time>
</trkpt>
<trkpt lat="49.664082" lon="10.057241">
<ele>200.29</ele>
<time>2019-05-30T13:06:43Z</time>
</trkpt>
<trkpt lat="49.664097" lon="10.05721">
<ele>200.394</ele>
<time>2019-05-30T13:06:44Z</time>
</trkpt>
<trkpt lat="49.66412" lon="10.057176">
<ele>200.463</ele>
<time>2019-05-30T13:06:45Z</time>
</trkpt>
<trkpt lat="49.664154" lon="10.057135">
<ele>200.498</ele>
<time>2019-05-30T13:06:46Z</time>
</trkpt>
<trkpt lat="49.664185" lon="10.057103">
<ele>200.498</ele>
<time>2019-05-30T13:06:47Z</time>
</trkpt>
<trkpt lat="49.664204" lon="10.057094">
<ele>200.498</ele>
<time>2019-05-30T13:06:48Z</time>
</trkpt>
<trkpt lat="49.664227" lon="10.05709">
<ele>200.498</ele>
<time>2019-05-30T13:06:49Z</time>
</trkpt>
<trkpt lat="49.664253" lon="10.057085">
<ele>200.497</ele>
<time>2019-05-30T13:06:50Z</time>
</trkpt>
<trkpt lat="49.664276" lon="10.057076">
<ele>200.498</ele>
<time>2019-05-30T13:06:51Z</time>
</trkpt>
<trkpt lat="49.664291" lon="10.057067">
<ele>200.498</ele>
<time>2019-05-30T13:06:52Z</time>
</trkpt>
<trkpt lat="49.664291" lon="10.057063">
<ele>200.498</ele>
<time>2019-05-30T13:06:53Z</time>
</trkpt>
<trkpt lat="49.664295" lon="10.05706">
<ele>200.498</ele>
<time>2019-05-30T13:06:54Z</time>
</trkpt>
<trkpt lat="49.664303" lon="10.057061">
<ele>200.498</ele>
<time>2019-05-30T13:06:55Z</time>
</trkpt>
<trkpt lat="49.664322" lon="10.057055">
<ele>200.498</ele>
<time>2019-05-30T13:07:01Z</time>
</trkpt>
<trkpt lat="49.664333" lon="10.057029">
<ele>200.498</ele>
<time>2019-05-30T13:07:02Z</time>
</trkpt>
<trkpt lat="49.664341" lon="10.057">
<ele>200.498</ele>
<time>2019-05-30T13:07:03Z</time>
</trkpt>
<trkpt lat="49.664349" lon="10.056962">
<ele>200.498</ele>
<time>2019-05-30T13:07:04Z</time>
</trkpt>
<trkpt lat="49.664364" lon="10.05692">
<ele>200.498</ele>
<time>2019-05-30T13:07:05Z</time>
</trkpt>
<trkpt lat="49.664383" lon="10.056874">
<ele>200.498</ele>
<time>2019-05-30T13:07:06Z</time>
</trkpt>
<trkpt lat="49.664398" lon="10.056827">
<ele>200.233</ele>
<time>2019-05-30T13:07:07Z</time>
</trkpt>
<trkpt lat="49.664417" lon="10.056778">
<ele>200.025</ele>
<time>2019-05-30T13:07:08Z</time>
</trkpt>
<trkpt lat="49.664433" lon="10.05673">
<ele>199.89</ele>
<time>2019-05-30T13:07:09Z</time>
</trkpt>
<trkpt lat="49.664455" lon="10.056679">
<ele>199.765</ele>
<time>2019-05-30T13:07:10Z</time>
</trkpt>
<trkpt lat="49.664474" lon="10.056626">
<ele>199.684</ele>
<time>2019-05-30T13:07:11Z</time>
</trkpt>
<trkpt lat="49.66449" lon="10.05657">
<ele>199.631</ele>
<time>2019-05-30T13:07:12Z</time>
</trkpt>
<trkpt lat="49.664509" lon="10.056512">
<ele>199.782</ele>
<time>2019-05-30T13:07:13Z</time>
</trkpt>
<trkpt lat="49.664528" lon="10.056452">
<ele>199.917</ele>
<time>2019-05-30T13:07:14Z</time>
</trkpt>
<trkpt lat="49.664551" lon="10.05639">
<ele>199.972</ele>
<time>2019-05-30T13:07:15Z</time>
</trkpt>
<trkpt lat="49.664574" lon="10.056332">
<ele>200.106</ele>
<time>2019-05-30T13:07:16Z</time>
</trkpt>
<trkpt lat="49.664593" lon="10.056269">
<ele>200.191</ele>
<time>2019-05-30T13:07:17Z</time>
</trkpt>
<trkpt lat="49.664612" lon="10.056209">
<ele>200.283</ele>
<time>2019-05-30T13:07:18Z</time>
</trkpt>
<trkpt lat="49.664635" lon="10.056149">
<ele>200.352</ele>
<time>2019-05-30T13:07:19Z</time>
</trkpt>
<trkpt lat="49.664654" lon="10.056088">
<ele>200.394</ele>
<time>2019-05-30T13:07:20Z</time>
</trkpt>
<trkpt lat="49.664677" lon="10.056028">
<ele>200.414</ele>
<time>2019-05-30T13:07:21Z</time>
</trkpt>
<trkpt lat="49.6647" lon="10.055965">
<ele>200.414</ele>
<time>2019-05-30T13:07:22Z</time>
</trkpt>
<trkpt lat="49.664722" lon="10.055903">
<ele>200.414</ele>
<time>2019-05-30T13:07:23Z</time>
</trkpt>
<trkpt lat="49.664749" lon="10.05584">
<ele>200.414</ele>
<time>2019-05-30T13:07:24Z</time>
</trkpt>
<trkpt lat="49.664768" lon="10.055775">
<ele>200.414</ele>
<time>2019-05-30T13:07:25Z</time>
</trkpt>
<trkpt lat="49.664791" lon="10.055712">
<ele>200.414</ele>
<time>2019-05-30T13:07:26Z</time>
</trkpt>
<trkpt lat="49.66481" lon="10.055645">
<ele>200.414</ele>
<time>2019-05-30T13:07:27Z</time>
</trkpt>
<trkpt lat="49.664841" lon="10.055577">
<ele>200.414</ele>
<time>2019-05-30T13:07:28Z</time>
</trkpt>
<trkpt lat="49.664864" lon="10.055507">
<ele>200.414</ele>
<time>2019-05-30T13:07:29Z</time>
</trkpt>
<trkpt lat="49.664886" lon="10.055442">
<ele>200.414</ele>
<time>2019-05-30T13:07:30Z</time>
</trkpt>
<trkpt lat="49.664913" lon="10.055374">
<ele>200.414</ele>
<time>2019-05-30T13:07:31Z</time>
</trkpt>
<trkpt lat="49.66494" lon="10.055305">
<ele>200.414</ele>
<time>2019-05-30T13:07:32Z</time>
</trkpt>
<trkpt lat="49.664967" lon="10.055236">
<ele>200.414</ele>
<time>2019-05-30T13:07:33Z</time>
</trkpt>
<trkpt lat="49.664989" lon="10.055168">
<ele>200.414</ele>
<time>2019-05-30T13:07:34Z</time>
</trkpt>
<trkpt lat="49.665012" lon="10.055098">
<ele>200.414</ele>
<time>2019-05-30T13:07:35Z</time>
</trkpt>
<trkpt lat="49.665039" lon="10.055033">
<ele>200.414</ele>
<time>2019-05-30T13:07:36Z</time>
</trkpt>
<trkpt lat="49.665066" lon="10.054965">
<ele>200.414</ele>
<time>2019-05-30T13:07:37Z</time>
</trkpt>
<trkpt lat="49.665092" lon="10.054896">
<ele>200.414</ele>
<time>2019-05-30T13:07:38Z</time>
</trkpt>
<trkpt lat="49.665119" lon="10.054827">
<ele>200.137</ele>
<time>2019-05-30T13:07:39Z</time>
</trkpt>
<trkpt lat="49.665146" lon="10.054751">
<ele>199.925</ele>
<time>2019-05-30T13:07:40Z</time>
</trkpt>
<trkpt lat="49.665173" lon="10.05468">
<ele>199.762</ele>
<time>2019-05-30T13:07:41Z</time>
</trkpt>
<trkpt lat="49.665203" lon="10.054611">
<ele>199.646</ele>
<time>2019-05-30T13:07:42Z</time>
</trkpt>
<trkpt lat="49.665226" lon="10.054542">
<ele>199.566</ele>
<time>2019-05-30T13:07:43Z</time>
</trkpt>
<trkpt lat="49.665245" lon="10.054469">
<ele>199.516</ele>
<time>2019-05-30T13:07:44Z</time>
</trkpt>
<trkpt lat="49.665272" lon="10.054396">
<ele>199.491</ele>
<time>2019-05-30T13:07:45Z</time>
</trkpt>
<trkpt lat="49.665302" lon="10.054318">
<ele>199.491</ele>
<time>2019-05-30T13:07:46Z</time>
</trkpt>
<trkpt lat="49.665329" lon="10.054245">
<ele>199.266</ele>
<time>2019-05-30T13:07:47Z</time>
</trkpt>
<trkpt lat="49.665352" lon="10.054175">
<ele>199.055</ele>
<time>2019-05-30T13:07:48Z</time>
</trkpt>
<trkpt lat="49.665382" lon="10.054103">
<ele>198.878</ele>
<time>2019-05-30T13:07:49Z</time>
</trkpt>
<trkpt lat="49.665413" lon="10.054031">
<ele>198.736</ele>
<time>2019-05-30T13:07:50Z</time>
</trkpt>
<trkpt lat="49.66544" lon="10.053956">
<ele>198.63</ele>
<time>2019-05-30T13:07:51Z</time>
</trkpt>
<trkpt lat="49.66547" lon="10.053883">
<ele>198.555</ele>
<time>2019-05-30T13:07:52Z</time>
</trkpt>
<trkpt lat="49.665501" lon="10.053811">
<ele>198.507</ele>
<time>2019-05-30T13:07:53Z</time>
</trkpt>
<trkpt lat="49.665531" lon="10.053736">
<ele>198.484</ele>
<time>2019-05-30T13:07:54Z</time>
</trkpt>
<trkpt lat="49.665562" lon="10.05366">
<ele>198.484</ele>
<time>2019-05-30T13:07:55Z</time>
</trkpt>
<trkpt lat="49.6656" lon="10.053581">
<ele>198.484</ele>
<time>2019-05-30T13:07:56Z</time>
</trkpt>
<trkpt lat="49.665634" lon="10.053508">
<ele>198.484</ele>
<time>2019-05-30T13:07:57Z</time>
</trkpt>
<trkpt lat="49.665668" lon="10.053438">
<ele>198.484</ele>
<time>2019-05-30T13:07:58Z</time>
</trkpt>
<trkpt lat="49.665695" lon="10.053363">
<ele>198.484</ele>
<time>2019-05-30T13:07:59Z</time>
</trkpt>
<trkpt lat="49.66573" lon="10.053289">
<ele>198.215</ele>
<time>2019-05-30T13:08:00Z</time>
</trkpt>
<trkpt lat="49.665756" lon="10.053216">
<ele>198.011</ele>
<time>2019-05-30T13:08:01Z</time>
</trkpt>
<trkpt lat="49.665791" lon="10.053146">
<ele>197.856</ele>
<time>2019-05-30T13:08:02Z</time>
</trkpt>
<trkpt lat="49.665821" lon="10.053076">
<ele>197.742</ele>
<time>2019-05-30T13:08:03Z</time>
</trkpt>
<trkpt lat="49.665852" lon="10.053005">
<ele>197.662</ele>
<time>2019-05-30T13:08:04Z</time>
</trkpt>
<trkpt lat="49.665886" lon="10.052934">
<ele>197.607</ele>
<time>2019-05-30T13:08:05Z</time>
</trkpt>
<trkpt lat="49.665916" lon="10.052862">
<ele>197.582</ele>
<time>2019-05-30T13:08:06Z</time>
</trkpt>
<trkpt lat="49.665951" lon="10.052785">
<ele>197.561</ele>
<time>2019-05-30T13:08:07Z</time>
</trkpt>
<trkpt lat="49.665985" lon="10.052711">
<ele>197.561</ele>
<time>2019-05-30T13:08:08Z</time>
</trkpt>
<trkpt lat="49.666019" lon="10.052635">
<ele>197.561</ele>
<time>2019-05-30T13:08:09Z</time>
</trkpt>
<trkpt lat="49.66605" lon="10.052558">
<ele>197.561</ele>
<time>2019-05-30T13:08:10Z</time>
</trkpt>
<trkpt lat="49.666084" lon="10.052486">
<ele>197.561</ele>
<time>2019-05-30T13:08:11Z</time>
</trkpt>
<trkpt lat="49.666115" lon="10.052412">
<ele>197.561</ele>
<time>2019-05-30T13:08:12Z</time>
</trkpt>
<trkpt lat="49.666149" lon="10.052339">
<ele>197.561</ele>
<time>2019-05-30T13:08:13Z</time>
</trkpt>
<trkpt lat="49.666183" lon="10.052265">
<ele>197.561</ele>
<time>2019-05-30T13:08:14Z</time>
</trkpt>
<trkpt lat="49.666222" lon="10.052192">
<ele>197.332</ele>
<time>2019-05-30T13:08:15Z</time>
</trkpt>
<trkpt lat="49.666264" lon="10.05212">
<ele>197.148</ele>
<time>2019-05-30T13:08:16Z</time>
</trkpt>
<trkpt lat="49.666302" lon="10.052045">
<ele>197.024</ele>
<time>2019-05-30T13:08:17Z</time>
</trkpt>
<trkpt lat="49.666332" lon="10.051973">
<ele>196.886</ele>
<time>2019-05-30T13:08:18Z</time>
</trkpt>
<trkpt lat="49.666367" lon="10.051903">
<ele>196.781</ele>
<time>2019-05-30T13:08:19Z</time>
</trkpt>
<trkpt lat="49.666393" lon="10.051833">
<ele>196.709</ele>
<time>2019-05-30T13:08:20Z</time>
</trkpt>
<trkpt lat="49.666424" lon="10.051764">
<ele>196.661</ele>
<time>2019-05-30T13:08:21Z</time>
</trkpt>
<trkpt lat="49.666458" lon="10.051695">
<ele>196.638</ele>
<time>2019-05-30T13:08:22Z</time>
</trkpt>
<trkpt lat="49.666489" lon="10.051626">
<ele>196.638</ele>
<time>2019-05-30T13:08:23Z</time>
</trkpt>
<trkpt lat="49.666527" lon="10.05156">
<ele>196.638</ele>
<time>2019-05-30T13:08:24Z</time>
</trkpt>
<trkpt lat="49.666565" lon="10.051494">
<ele>196.638</ele>
<time>2019-05-30T13:08:25Z</time>
</trkpt>
<trkpt lat="49.666603" lon="10.051429">
<ele>196.638</ele>
<time>2019-05-30T13:08:26Z</time>
</trkpt>
<trkpt lat="49.666637" lon="10.051362">
<ele>196.638</ele>
<time>2019-05-30T13:08:27Z</time>
</trkpt>
<trkpt lat="49.666672" lon="10.051293">
<ele>196.638</ele>
<time>2019-05-30T13:08:28Z</time>
</trkpt>
<trkpt lat="49.666702" lon="10.051226">
<ele>196.388</ele>
<time>2019-05-30T13:08:29Z</time>
</trkpt>
<trkpt lat="49.666729" lon="10.051159">
<ele>196.194</ele>
<time>2019-05-30T13:08:30Z</time>
</trkpt>
<trkpt lat="49.666759" lon="10.051093">
<ele>196.048</ele>
<time>2019-05-30T13:08:31Z</time>
</trkpt>
<trkpt lat="49.666794" lon="10.05103">
<ele>195.946</ele>
<time>2019-05-30T13:08:32Z</time>
</trkpt>
<trkpt lat="49.666824" lon="10.050966">
<ele>195.868</ele>
<time>2019-05-30T13:08:33Z</time>
</trkpt>
<trkpt lat="49.666855" lon="10.050907">
<ele>195.821</ele>
<time>2019-05-30T13:08:34Z</time>
</trkpt>
<trkpt lat="49.666885" lon="10.050843">
<ele>195.799</ele>
<time>2019-05-30T13:08:35Z</time>
</trkpt>
<trkpt lat="49.666924" lon="10.050777">
<ele>195.799</ele>
<time>2019-05-30T13:08:36Z</time>
</trkpt>
<trkpt lat="49.666958" lon="10.050709">
<ele>195.799</ele>
<time>2019-05-30T13:08:37Z</time>
</trkpt>
<trkpt lat="49.666992" lon="10.050643">
<ele>195.799</ele>
<time>2019-05-30T13:08:38Z</time>
</trkpt>
<trkpt lat="49.667027" lon="10.050576">
<ele>195.799</ele>
<time>2019-05-30T13:08:39Z</time>
</trkpt>
<trkpt lat="49.667061" lon="10.050508">
<ele>195.799</ele>
<time>2019-05-30T13:08:40Z</time>
</trkpt>
<trkpt lat="49.667095" lon="10.050444">
<ele>195.511</ele>
<time>2019-05-30T13:08:41Z</time>
</trkpt>
<trkpt lat="49.667126" lon="10.050379">
<ele>195.29</ele>
<time>2019-05-30T13:08:42Z</time>
</trkpt>
<trkpt lat="49.66716" lon="10.050312">
<ele>195.127</ele>
<time>2019-05-30T13:08:43Z</time>
</trkpt>
<trkpt lat="49.667194" lon="10.050245">
<ele>195.007</ele>
<time>2019-05-30T13:08:44Z</time>
</trkpt>
<trkpt lat="49.667233" lon="10.050185">
<ele>194.92</ele>
<time>2019-05-30T13:08:45Z</time>
</trkpt>
<trkpt lat="49.667263" lon="10.050121">
<ele>194.865</ele>
<time>2019-05-30T13:08:46Z</time>
</trkpt>
<trkpt lat="49.667297" lon="10.050053">
<ele>194.821</ele>
<time>2019-05-30T13:08:47Z</time>
</trkpt>
<trkpt lat="49.667324" lon="10.049988">
<ele>194.792</ele>
<time>2019-05-30T13:08:48Z</time>
</trkpt>
<trkpt lat="49.667355" lon="10.04992">
<ele>194.792</ele>
<time>2019-05-30T13:08:49Z</time>
</trkpt>
<trkpt lat="49.667389" lon="10.049853">
<ele>194.792</ele>
<time>2019-05-30T13:08:50Z</time>
</trkpt>
<trkpt lat="49.667419" lon="10.049791">
<ele>194.793</ele>
<time>2019-05-30T13:08:51Z</time>
</trkpt>
<trkpt lat="49.667454" lon="10.049734">
<ele>194.792</ele>
<time>2019-05-30T13:08:52Z</time>
</trkpt>
<trkpt lat="49.667488" lon="10.049677">
<ele>194.792</ele>
<time>2019-05-30T13:08:53Z</time>
</trkpt>
<trkpt lat="49.667526" lon="10.049621">
<ele>194.792</ele>
<time>2019-05-30T13:08:54Z</time>
</trkpt>
<trkpt lat="49.667561" lon="10.049564">
<ele>194.792</ele>
<time>2019-05-30T13:08:55Z</time>
</trkpt>
<trkpt lat="49.667595" lon="10.049506">
<ele>194.57</ele>
<time>2019-05-30T13:08:56Z</time>
</trkpt>
<trkpt lat="49.667629" lon="10.049449">
<ele>194.411</ele>
<time>2019-05-30T13:08:57Z</time>
</trkpt>
<trkpt lat="49.66766" lon="10.04939">
<ele>194.246</ele>
<time>2019-05-30T13:08:58Z</time>
</trkpt>
<trkpt lat="49.667694" lon="10.049334">
<ele>194.115</ele>
<time>2019-05-30T13:08:59Z</time>
</trkpt>
<trkpt lat="49.667725" lon="10.049277">
<ele>194.013</ele>
<time>2019-05-30T13:09:00Z</time>
</trkpt>
<trkpt lat="49.667755" lon="10.049221">
<ele>193.941</ele>
<time>2019-05-30T13:09:01Z</time>
</trkpt>
<trkpt lat="49.667786" lon="10.049165">
<ele>193.893</ele>
<time>2019-05-30T13:09:02Z</time>
</trkpt>
<trkpt lat="49.667812" lon="10.049109">
<ele>193.87</ele>
<time>2019-05-30T13:09:03Z</time>
</trkpt>
<trkpt lat="49.667843" lon="10.049064">
<ele>193.87</ele>
<time>2019-05-30T13:09:04Z</time>
</trkpt>
<trkpt lat="49.667862" lon="10.049022">
<ele>193.87</ele>
<time>2019-05-30T13:09:05Z</time>
</trkpt>
<trkpt lat="49.667881" lon="10.048986">
<ele>193.87</ele>
<time>2019-05-30T13:09:06Z</time>
</trkpt>
<trkpt lat="49.667908" lon="10.048953">
<ele>193.87</ele>
<time>2019-05-30T13:09:07Z</time>
</trkpt>
<trkpt lat="49.667927" lon="10.048917">
<ele>193.87</ele>
<time>2019-05-30T13:09:08Z</time>
</trkpt>
<trkpt lat="49.667942" lon="10.048882">
<ele>193.87</ele>
<time>2019-05-30T13:09:09Z</time>
</trkpt>
<trkpt lat="49.667965" lon="10.048855">
<ele>193.87</ele>
<time>2019-05-30T13:09:10Z</time>
</trkpt>
<trkpt lat="49.667984" lon="10.048823">
<ele>193.87</ele>
<time>2019-05-30T13:09:11Z</time>
</trkpt>
<trkpt lat="49.667999" lon="10.04879">
<ele>193.87</ele>
<time>2019-05-30T13:09:12Z</time>
</trkpt>
<trkpt lat="49.668007" lon="10.048756">
<ele>193.87</ele>
<time>2019-05-30T13:09:13Z</time>
</trkpt>
<trkpt lat="49.668018" lon="10.04872">
<ele>193.87</ele>
<time>2019-05-30T13:09:14Z</time>
</trkpt>
<trkpt lat="49.668018" lon="10.04868">
<ele>193.87</ele>
<time>2019-05-30T13:09:15Z</time>
</trkpt>
<trkpt lat="49.668007" lon="10.048642">
<ele>193.87</ele>
<time>2019-05-30T13:09:16Z</time>
</trkpt>
<trkpt lat="49.667995" lon="10.048602">
<ele>193.87</ele>
<time>2019-05-30T13:09:17Z</time>
</trkpt>
<trkpt lat="49.66798" lon="10.04856">
<ele>193.87</ele>
<time>2019-05-30T13:09:18Z</time>
</trkpt>
<trkpt lat="49.667969" lon="10.048518">
<ele>193.87</ele>
<time>2019-05-30T13:09:19Z</time>
</trkpt>
<trkpt lat="49.667957" lon="10.048463">
<ele>193.87</ele>
<time>2019-05-30T13:09:20Z</time>
</trkpt>
<trkpt lat="49.667953" lon="10.04841">
<ele>193.87</ele>
<time>2019-05-30T13:09:21Z</time>
</trkpt>
<trkpt lat="49.667953" lon="10.048355">
<ele>193.87</ele>
<time>2019-05-30T13:09:22Z</time>
</trkpt>
<trkpt lat="49.667953" lon="10.048302">
<ele>193.87</ele>
<time>2019-05-30T13:09:23Z</time>
</trkpt>
<trkpt lat="49.667957" lon="10.048246">
<ele>193.87</ele>
<time>2019-05-30T13:09:24Z</time>
</trkpt>
<trkpt lat="49.667961" lon="10.048192">
<ele>194.171</ele>
<time>2019-05-30T13:09:25Z</time>
</trkpt>
<trkpt lat="49.667965" lon="10.048138">
<ele>194.407</ele>
<time>2019-05-30T13:09:26Z</time>
</trkpt>
<trkpt lat="49.667969" lon="10.048088">
<ele>194.561</ele>
<time>2019-05-30T13:09:27Z</time>
</trkpt>
<trkpt lat="49.667973" lon="10.048037">
<ele>194.724</ele>
<time>2019-05-30T13:09:28Z</time>
</trkpt>
<trkpt lat="49.667976" lon="10.047983">
<ele>194.858</ele>
<time>2019-05-30T13:09:29Z</time>
</trkpt>
<trkpt lat="49.667976" lon="10.047934">
<ele>194.953</ele>
<time>2019-05-30T13:09:30Z</time>
</trkpt>
<trkpt lat="49.667973" lon="10.047889">
<ele>195.015</ele>
<time>2019-05-30T13:09:31Z</time>
</trkpt>
<trkpt lat="49.667973" lon="10.047847">
<ele>195.044</ele>
<time>2019-05-30T13:09:32Z</time>
</trkpt>
<trkpt lat="49.667969" lon="10.047805">
<ele>195.275</ele>
<time>2019-05-30T13:09:33Z</time>
</trkpt>
<trkpt lat="49.667965" lon="10.047758">
<ele>195.462</ele>
<time>2019-05-30T13:09:34Z</time>
</trkpt>
<trkpt lat="49.667961" lon="10.047712">
<ele>195.584</ele>
<time>2019-05-30T13:09:35Z</time>
</trkpt>
<trkpt lat="49.667957" lon="10.047665">
<ele>195.922</ele>
<time>2019-05-30T13:09:36Z</time>
</trkpt>
<trkpt lat="49.667953" lon="10.047618">
<ele>196.18</ele>
<time>2019-05-30T13:09:37Z</time>
</trkpt>
<trkpt lat="49.667953" lon="10.047574">
<ele>196.436</ele>
<time>2019-05-30T13:09:38Z</time>
</trkpt>
<trkpt lat="49.66795" lon="10.04753">
<ele>196.628</ele>
<time>2019-05-30T13:09:39Z</time>
</trkpt>
<trkpt lat="49.667946" lon="10.04749">
<ele>196.743</ele>
<time>2019-05-30T13:09:40Z</time>
</trkpt>
<trkpt lat="49.667942" lon="10.047448">
<ele>197.019</ele>
<time>2019-05-30T13:09:41Z</time>
</trkpt>
<trkpt lat="49.667942" lon="10.047406">
<ele>197.231</ele>
<time>2019-05-30T13:09:42Z</time>
</trkpt>
<trkpt lat="49.667938" lon="10.047365">
<ele>197.396</ele>
<time>2019-05-30T13:09:43Z</time>
</trkpt>
<trkpt lat="49.667934" lon="10.047323">
<ele>197.545</ele>
<time>2019-05-30T13:09:44Z</time>
</trkpt>
<trkpt lat="49.667927" lon="10.047281">
<ele>197.619</ele>
<time>2019-05-30T13:09:45Z</time>
</trkpt>
<trkpt lat="49.667923" lon="10.047236">
<ele>197.666</ele>
<time>2019-05-30T13:09:46Z</time>
</trkpt>
<trkpt lat="49.667919" lon="10.047191">
<ele>197.705</ele>
<time>2019-05-30T13:09:47Z</time>
</trkpt>
<trkpt lat="49.667912" lon="10.047143">
<ele>197.729</ele>
<time>2019-05-30T13:09:48Z</time>
</trkpt>
<trkpt lat="49.667908" lon="10.047096">
<ele>197.729</ele>
<time>2019-05-30T13:09:49Z</time>
</trkpt>
<trkpt lat="49.6679" lon="10.047052">
<ele>197.729</ele>
<time>2019-05-30T13:09:50Z</time>
</trkpt>
<trkpt lat="49.667896" lon="10.047007">
<ele>197.729</ele>
<time>2019-05-30T13:09:51Z</time>
</trkpt>
<trkpt lat="49.667892" lon="10.046962">
<ele>197.729</ele>
<time>2019-05-30T13:09:52Z</time>
</trkpt>
<trkpt lat="49.667892" lon="10.04692">
<ele>197.729</ele>
<time>2019-05-30T13:09:53Z</time>
</trkpt>
<trkpt lat="49.667892" lon="10.046881">
<ele>197.729</ele>
<time>2019-05-30T13:09:54Z</time>
</trkpt>
<trkpt lat="49.667885" lon="10.046839">
<ele>197.729</ele>
<time>2019-05-30T13:09:55Z</time>
</trkpt>
<trkpt lat="49.667877" lon="10.046802">
<ele>197.729</ele>
<time>2019-05-30T13:09:56Z</time>
</trkpt>
<trkpt lat="49.667866" lon="10.046765">
<ele>197.927</ele>
<time>2019-05-30T13:09:57Z</time>
</trkpt>
<trkpt lat="49.66785" lon="10.046728">
<ele>198.12</ele>
<time>2019-05-30T13:09:58Z</time>
</trkpt>
<trkpt lat="49.667839" lon="10.04669">
<ele>198.28</ele>
<time>2019-05-30T13:09:59Z</time>
</trkpt>
<trkpt lat="49.66782" lon="10.046657">
<ele>198.41</ele>
<time>2019-05-30T13:10:00Z</time>
</trkpt>
<trkpt lat="49.667812" lon="10.046618">
<ele>198.513</ele>
<time>2019-05-30T13:10:01Z</time>
</trkpt>
<trkpt lat="49.667801" lon="10.046581">
<ele>198.585</ele>
<time>2019-05-30T13:10:02Z</time>
</trkpt>
<trkpt lat="49.667789" lon="10.046545">
<ele>198.629</ele>
<time>2019-05-30T13:10:03Z</time>
</trkpt>
<trkpt lat="49.667778" lon="10.046512">
<ele>198.652</ele>
<time>2019-05-30T13:10:04Z</time>
</trkpt>
<trkpt lat="49.667774" lon="10.046476">
<ele>198.652</ele>
<time>2019-05-30T13:10:05Z</time>
</trkpt>
<trkpt lat="49.667759" lon="10.046438">
<ele>198.652</ele>
<time>2019-05-30T13:10:06Z</time>
</trkpt>
<trkpt lat="49.667747" lon="10.046401">
<ele>198.652</ele>
<time>2019-05-30T13:10:07Z</time>
</trkpt>
<trkpt lat="49.667728" lon="10.046363">
<ele>198.652</ele>
<time>2019-05-30T13:10:08Z</time>
</trkpt>
<trkpt lat="49.667721" lon="10.04632">
<ele>198.652</ele>
<time>2019-05-30T13:10:09Z</time>
</trkpt>
<trkpt lat="49.667713" lon="10.04628">
<ele>198.925</ele>
<time>2019-05-30T13:10:10Z</time>
</trkpt>
<trkpt lat="49.667709" lon="10.046242">
<ele>199.132</ele>
<time>2019-05-30T13:10:11Z</time>
</trkpt>
<trkpt lat="49.667694" lon="10.04621">
<ele>199.288</ele>
<time>2019-05-30T13:10:12Z</time>
</trkpt>
<trkpt lat="49.667683" lon="10.046165">
<ele>199.399</ele>
<time>2019-05-30T13:10:13Z</time>
</trkpt>
<trkpt lat="49.667675" lon="10.046122">
<ele>199.473</ele>
<time>2019-05-30T13:10:14Z</time>
</trkpt>
<trkpt lat="49.667664" lon="10.046075">
<ele>199.522</ele>
<time>2019-05-30T13:10:15Z</time>
</trkpt>
<trkpt lat="49.667652" lon="10.046035">
<ele>199.553</ele>
<time>2019-05-30T13:10:16Z</time>
</trkpt>
<trkpt lat="49.667648" lon="10.045994">
<ele>199.575</ele>
<time>2019-05-30T13:10:17Z</time>
</trkpt>
<trkpt lat="49.667641" lon="10.04595">
<ele>199.575</ele>
<time>2019-05-30T13:10:18Z</time>
</trkpt>
<trkpt lat="49.667637" lon="10.045904">
<ele>199.575</ele>
<time>2019-05-30T13:10:19Z</time>
</trkpt>
<trkpt lat="49.667629" lon="10.045867">
<ele>199.575</ele>
<time>2019-05-30T13:10:20Z</time>
</trkpt>
<trkpt lat="49.667603" lon="10.045832">
<ele>199.575</ele>
<time>2019-05-30T13:10:21Z</time>
</trkpt>
<trkpt lat="49.667564" lon="10.0458">
<ele>199.575</ele>
<time>2019-05-30T13:10:22Z</time>
</trkpt>
<trkpt lat="49.667515" lon="10.045782">
<ele>199.575</ele>
<time>2019-05-30T13:10:23Z</time>
</trkpt>
<trkpt lat="49.667484" lon="10.04575">
<ele>199.815</ele>
<time>2019-05-30T13:10:24Z</time>
</trkpt>
<trkpt lat="49.667458" lon="10.04571">
<ele>199.992</ele>
<time>2019-05-30T13:10:25Z</time>
</trkpt>
<trkpt lat="49.667439" lon="10.045665">
<ele>200.125</ele>
<time>2019-05-30T13:10:26Z</time>
</trkpt>
<trkpt lat="49.667423" lon="10.04562">
<ele>200.21</ele>
<time>2019-05-30T13:10:27Z</time>
</trkpt>
<trkpt lat="49.667408" lon="10.045577">
<ele>200.298</ele>
<time>2019-05-30T13:10:28Z</time>
</trkpt>
<trkpt lat="49.667389" lon="10.045542">
<ele>200.351</ele>
<time>2019-05-30T13:10:29Z</time>
</trkpt>
<trkpt lat="49.667366" lon="10.045504">
<ele>200.39</ele>
<time>2019-05-30T13:10:30Z</time>
</trkpt>
<trkpt lat="49.667343" lon="10.045456">
<ele>200.414</ele>
<time>2019-05-30T13:10:31Z</time>
</trkpt>
<trkpt lat="49.667316" lon="10.0454">
<ele>200.414</ele>
<time>2019-05-30T13:10:32Z</time>
</trkpt>
<trkpt lat="49.66729" lon="10.045353">
<ele>200.414</ele>
<time>2019-05-30T13:10:33Z</time>
</trkpt>
<trkpt lat="49.667259" lon="10.045305">
<ele>200.414</ele>
<time>2019-05-30T13:10:34Z</time>
</trkpt>
<trkpt lat="49.667225" lon="10.045265">
<ele>200.414</ele>
<time>2019-05-30T13:10:35Z</time>
</trkpt>
<trkpt lat="49.667191" lon="10.045227">
<ele>200.414</ele>
<time>2019-05-30T13:10:36Z</time>
</trkpt>
<trkpt lat="49.66716" lon="10.045185">
<ele>200.414</ele>
<time>2019-05-30T13:10:37Z</time>
</trkpt>
<trkpt lat="49.667126" lon="10.045155">
<ele>200.414</ele>
<time>2019-05-30T13:10:38Z</time>
</trkpt>
<trkpt lat="49.667091" lon="10.045114">
<ele>200.691</ele>
<time>2019-05-30T13:10:39Z</time>
</trkpt>
<trkpt lat="49.667057" lon="10.045072">
<ele>200.902</ele>
<time>2019-05-30T13:10:40Z</time>
</trkpt>
<trkpt lat="49.667027" lon="10.045031">
<ele>201.063</ele>
<time>2019-05-30T13:10:41Z</time>
</trkpt>
<trkpt lat="49.666996" lon="10.044991">
<ele>201.182</ele>
<time>2019-05-30T13:10:42Z</time>
</trkpt>
<trkpt lat="49.666965" lon="10.044953">
<ele>201.265</ele>
<time>2019-05-30T13:10:43Z</time>
</trkpt>
<trkpt lat="49.666927" lon="10.044918">
<ele>201.314</ele>
<time>2019-05-30T13:10:44Z</time>
</trkpt>
<trkpt lat="49.666889" lon="10.044892">
<ele>201.332</ele>
<time>2019-05-30T13:10:45Z</time>
</trkpt>
<trkpt lat="49.666851" lon="10.044861">
<ele>201.337</ele>
<time>2019-05-30T13:10:46Z</time>
</trkpt>
<trkpt lat="49.666813" lon="10.044827">
<ele>201.337</ele>
<time>2019-05-30T13:10:47Z</time>
</trkpt>
<trkpt lat="49.666779" lon="10.044798">
<ele>201.337</ele>
<time>2019-05-30T13:10:48Z</time>
</trkpt>
<trkpt lat="49.666744" lon="10.044752">
<ele>201.337</ele>
<time>2019-05-30T13:10:49Z</time>
</trkpt>
<trkpt lat="49.666706" lon="10.04471">
<ele>201.634</ele>
<time>2019-05-30T13:10:50Z</time>
</trkpt>
<trkpt lat="49.666668" lon="10.044666">
<ele>201.865</ele>
<time>2019-05-30T13:10:51Z</time>
</trkpt>
<trkpt lat="49.666622" lon="10.044632">
<ele>202.036</ele>
<time>2019-05-30T13:10:52Z</time>
</trkpt>
<trkpt lat="49.66658" lon="10.044595">
<ele>202.163</ele>
<time>2019-05-30T13:10:53Z</time>
</trkpt>
<trkpt lat="49.666542" lon="10.044563">
<ele>202.246</ele>
<time>2019-05-30T13:10:54Z</time>
</trkpt>
<trkpt lat="49.666508" lon="10.044534">
<ele>202.299</ele>
<time>2019-05-30T13:10:55Z</time>
</trkpt>
<trkpt lat="49.666473" lon="10.044502">
<ele>202.323</ele>
<time>2019-05-30T13:10:56Z</time>
</trkpt>
<trkpt lat="49.666435" lon="10.04447">
<ele>202.344</ele>
<time>2019-05-30T13:10:57Z</time>
</trkpt>
<trkpt lat="49.666393" lon="10.044442">
<ele>202.344</ele>
<time>2019-05-30T13:10:58Z</time>
</trkpt>
<trkpt lat="49.666351" lon="10.044418">
<ele>202.344</ele>
<time>2019-05-30T13:10:59Z</time>
</trkpt>
<trkpt lat="49.666313" lon="10.044395">
<ele>202.344</ele>
<time>2019-05-30T13:11:00Z</time>
</trkpt>
<trkpt lat="49.666271" lon="10.044362">
<ele>202.344</ele>
<time>2019-05-30T13:11:01Z</time>
</trkpt>
<trkpt lat="49.666229" lon="10.044331">
<ele>202.344</ele>
<time>2019-05-30T13:11:02Z</time>
</trkpt>
<trkpt lat="49.666187" lon="10.044298">
<ele>202.593</ele>
<time>2019-05-30T13:11:03Z</time>
</trkpt>
<trkpt lat="49.666149" lon="10.044266">
<ele>202.784</ele>
<time>2019-05-30T13:11:04Z</time>
</trkpt>
<trkpt lat="49.666111" lon="10.044232">
<ele>202.929</ele>
<time>2019-05-30T13:11:05Z</time>
</trkpt>
<trkpt lat="49.666073" lon="10.044197">
<ele>203.039</ele>
<time>2019-05-30T13:11:06Z</time>
</trkpt>
<trkpt lat="49.666031" lon="10.044166">
<ele>203.117</ele>
<time>2019-05-30T13:11:07Z</time>
</trkpt>
<trkpt lat="49.665989" lon="10.044133">
<ele>203.194</ele>
<time>2019-05-30T13:11:08Z</time>
</trkpt>
<trkpt lat="49.665955" lon="10.044105">
<ele>203.242</ele>
<time>2019-05-30T13:11:09Z</time>
</trkpt>
<trkpt lat="49.665916" lon="10.044075">
<ele>203.267</ele>
<time>2019-05-30T13:11:10Z</time>
</trkpt>
<trkpt lat="49.665882" lon="10.04405">
<ele>203.267</ele>
<time>2019-05-30T13:11:11Z</time>
</trkpt>
<trkpt lat="49.66584" lon="10.044013">
<ele>203.267</ele>
<time>2019-05-30T13:11:12Z</time>
</trkpt>
<trkpt lat="49.665802" lon="10.043981">
<ele>203.267</ele>
<time>2019-05-30T13:11:13Z</time>
</trkpt>
<trkpt lat="49.665756" lon="10.043941">
<ele>203.267</ele>
<time>2019-05-30T13:11:14Z</time>
</trkpt>
<trkpt lat="49.66571" lon="10.043912">
<ele>203.267</ele>
<time>2019-05-30T13:11:15Z</time>
</trkpt>
<trkpt lat="49.665668" lon="10.043877">
<ele>203.267</ele>
<time>2019-05-30T13:11:16Z</time>
</trkpt>
<trkpt lat="49.665627" lon="10.043847">
<ele>203.267</ele>
<time>2019-05-30T13:11:17Z</time>
</trkpt>
<trkpt lat="49.665588" lon="10.043807">
<ele>203.267</ele>
<time>2019-05-30T13:11:18Z</time>
</trkpt>
<trkpt lat="49.665546" lon="10.043765">
<ele>203.267</ele>
<time>2019-05-30T13:11:19Z</time>
</trkpt>
<trkpt lat="49.665501" lon="10.043721">
<ele>203.267</ele>
<time>2019-05-30T13:11:20Z</time>
</trkpt>
<trkpt lat="49.665466" lon="10.043674">
<ele>203.504</ele>
<time>2019-05-30T13:11:21Z</time>
</trkpt>
<trkpt lat="49.665421" lon="10.043618">
<ele>203.689</ele>
<time>2019-05-30T13:11:22Z</time>
</trkpt>
<trkpt lat="49.665375" lon="10.043571">
<ele>203.833</ele>
<time>2019-05-30T13:11:23Z</time>
</trkpt>
<trkpt lat="49.665333" lon="10.043529">
<ele>203.938</ele>
<time>2019-05-30T13:11:24Z</time>
</trkpt>
<trkpt lat="49.665291" lon="10.043487">
<ele>204.007</ele>
<time>2019-05-30T13:11:25Z</time>
</trkpt>
<trkpt lat="49.665241" lon="10.043457">
<ele>204.05</ele>
<time>2019-05-30T13:11:26Z</time>
</trkpt>
<trkpt lat="49.665203" lon="10.043411">
<ele>204.084</ele>
<time>2019-05-30T13:11:27Z</time>
</trkpt>
<trkpt lat="49.665165" lon="10.043368">
<ele>204.107</ele>
<time>2019-05-30T13:11:28Z</time>
</trkpt>
<trkpt lat="49.665131" lon="10.043324">
<ele>204.107</ele>
<time>2019-05-30T13:11:29Z</time>
</trkpt>
<trkpt lat="49.665096" lon="10.043279">
<ele>204.107</ele>
<time>2019-05-30T13:11:30Z</time>
</trkpt>
<trkpt lat="49.665062" lon="10.043235">
<ele>204.357</ele>
<time>2019-05-30T13:11:31Z</time>
</trkpt>
<trkpt lat="49.665028" lon="10.043195">
<ele>204.555</ele>
<time>2019-05-30T13:11:32Z</time>
</trkpt>
<trkpt lat="49.664989" lon="10.043157">
<ele>204.708</ele>
<time>2019-05-30T13:11:33Z</time>
</trkpt>
<trkpt lat="49.664959" lon="10.043112">
<ele>204.823</ele>
<time>2019-05-30T13:11:34Z</time>
</trkpt>
<trkpt lat="49.664921" lon="10.043067">
<ele>204.91</ele>
<time>2019-05-30T13:11:35Z</time>
</trkpt>
<trkpt lat="49.664879" lon="10.043025">
<ele>204.961</ele>
<time>2019-05-30T13:11:36Z</time>
</trkpt>
<trkpt lat="49.664845" lon="10.042974">
<ele>205.004</ele>
<time>2019-05-30T13:11:37Z</time>
</trkpt>
<trkpt lat="49.66481" lon="10.042921">
<ele>205.031</ele>
<time>2019-05-30T13:11:38Z</time>
</trkpt>
<trkpt lat="49.664776" lon="10.042871">
<ele>205.031</ele>
<time>2019-05-30T13:11:39Z</time>
</trkpt>
<trkpt lat="49.664734" lon="10.04282">
<ele>205.031</ele>
<time>2019-05-30T13:11:40Z</time>
</trkpt>
<trkpt lat="49.6647" lon="10.042767">
<ele>205.031</ele>
<time>2019-05-30T13:11:41Z</time>
</trkpt>
<trkpt lat="49.664661" lon="10.042718">
<ele>205.031</ele>
<time>2019-05-30T13:11:42Z</time>
</trkpt>
<trkpt lat="49.664627" lon="10.042669">
<ele>205.031</ele>
<time>2019-05-30T13:11:43Z</time>
</trkpt>
<trkpt lat="49.664589" lon="10.04262">
<ele>205.031</ele>
<time>2019-05-30T13:11:44Z</time>
</trkpt>
<trkpt lat="49.664558" lon="10.04257">
<ele>205.031</ele>
<time>2019-05-30T13:11:45Z</time>
</trkpt>
<trkpt lat="49.664524" lon="10.042521">
<ele>205.031</ele>
<time>2019-05-30T13:11:46Z</time>
</trkpt>
<trkpt lat="49.664494" lon="10.042472">
<ele>205.031</ele>
<time>2019-05-30T13:11:47Z</time>
</trkpt>
<trkpt lat="49.664463" lon="10.042423">
<ele>205.031</ele>
<time>2019-05-30T13:11:48Z</time>
</trkpt>
<trkpt lat="49.664444" lon="10.042382">
<ele>205.321</ele>
<time>2019-05-30T13:11:49Z</time>
</trkpt>
<trkpt lat="49.664421" lon="10.042334">
<ele>205.547</ele>
<time>2019-05-30T13:11:50Z</time>
</trkpt>
<trkpt lat="49.664387" lon="10.04229">
<ele>205.726</ele>
<time>2019-05-30T13:11:51Z</time>
</trkpt>
<trkpt lat="49.664349" lon="10.042244">
<ele>205.86</ele>
<time>2019-05-30T13:11:52Z</time>
</trkpt>
<trkpt lat="49.664314" lon="10.042198">
<ele>205.937</ele>
<time>2019-05-30T13:11:53Z</time>
</trkpt>
<trkpt lat="49.664284" lon="10.04215">
<ele>206.239</ele>
<time>2019-05-30T13:11:54Z</time>
</trkpt>
<trkpt lat="49.664253" lon="10.042104">
<ele>206.46</ele>
<time>2019-05-30T13:11:55Z</time>
</trkpt>
<trkpt lat="49.664219" lon="10.042058">
<ele>206.618</ele>
<time>2019-05-30T13:11:56Z</time>
</trkpt>
<trkpt lat="49.664181" lon="10.04202">
<ele>206.721</ele>
<time>2019-05-30T13:11:57Z</time>
</trkpt>
<trkpt lat="49.664154" lon="10.041982">
<ele>206.817</ele>
<time>2019-05-30T13:11:58Z</time>
</trkpt>
<trkpt lat="49.664112" lon="10.041938">
<ele>206.889</ele>
<time>2019-05-30T13:11:59Z</time>
</trkpt>
<trkpt lat="49.664082" lon="10.041894">
<ele>206.936</ele>
<time>2019-05-30T13:12:00Z</time>
</trkpt>
<trkpt lat="49.66404" lon="10.041861">
<ele>206.962</ele>
<time>2019-05-30T13:12:01Z</time>
</trkpt>
<trkpt lat="49.664009" lon="10.041819">
<ele>206.962</ele>
<time>2019-05-30T13:12:02Z</time>
</trkpt>
<trkpt lat="49.663975" lon="10.04177">
<ele>206.962</ele>
<time>2019-05-30T13:12:03Z</time>
</trkpt>
<trkpt lat="49.66394" lon="10.041722">
<ele>206.962</ele>
<time>2019-05-30T13:12:04Z</time>
</trkpt>
<trkpt lat="49.663906" lon="10.041678">
<ele>206.962</ele>
<time>2019-05-30T13:12:05Z</time>
</trkpt>
<trkpt lat="49.663872" lon="10.04164">
<ele>207.188</ele>
<time>2019-05-30T13:12:06Z</time>
</trkpt>
<trkpt lat="49.663837" lon="10.041592">
<ele>207.345</ele>
<time>2019-05-30T13:12:07Z</time>
</trkpt>
<trkpt lat="49.663803" lon="10.041549">
<ele>207.515</ele>
<time>2019-05-30T13:12:08Z</time>
</trkpt>
<trkpt lat="49.663765" lon="10.041505">
<ele>207.646</ele>
<time>2019-05-30T13:12:09Z</time>
</trkpt>
<trkpt lat="49.663723" lon="10.041465">
<ele>207.746</ele>
<time>2019-05-30T13:12:10Z</time>
</trkpt>
<trkpt lat="49.663685" lon="10.041415">
<ele>207.816</ele>
<time>2019-05-30T13:12:11Z</time>
</trkpt>
<trkpt lat="49.663654" lon="10.041368">
<ele>207.862</ele>
<time>2019-05-30T13:12:12Z</time>
</trkpt>
<trkpt lat="49.663616" lon="10.041313">
<ele>207.885</ele>
<time>2019-05-30T13:12:13Z</time>
</trkpt>
<trkpt lat="49.663582" lon="10.041255">
<ele>207.885</ele>
<time>2019-05-30T13:12:14Z</time>
</trkpt>
<trkpt lat="49.663544" lon="10.041201">
<ele>207.885</ele>
<time>2019-05-30T13:12:15Z</time>
</trkpt>
<trkpt lat="49.663513" lon="10.041142">
<ele>207.885</ele>
<time>2019-05-30T13:12:16Z</time>
</trkpt>
<trkpt lat="49.663475" lon="10.04109">
<ele>207.885</ele>
<time>2019-05-30T13:12:17Z</time>
</trkpt>
<trkpt lat="49.663445" lon="10.041027">
<ele>207.885</ele>
<time>2019-05-30T13:12:18Z</time>
</trkpt>
<trkpt lat="49.66341" lon="10.040962">
<ele>208.143</ele>
<time>2019-05-30T13:12:19Z</time>
</trkpt>
<trkpt lat="49.66338" lon="10.040905">
<ele>208.339</ele>
<time>2019-05-30T13:12:20Z</time>
</trkpt>
<trkpt lat="49.663349" lon="10.04084">
<ele>208.479</ele>
<time>2019-05-30T13:12:21Z</time>
</trkpt>
<trkpt lat="49.663326" lon="10.040786">
<ele>208.586</ele>
<time>2019-05-30T13:12:22Z</time>
</trkpt>
<trkpt lat="49.663284" lon="10.040725">
<ele>208.66</ele>
<time>2019-05-30T13:12:23Z</time>
</trkpt>
<trkpt lat="49.663254" lon="10.040665">
<ele>208.705</ele>
<time>2019-05-30T13:12:24Z</time>
</trkpt>
<trkpt lat="49.663223" lon="10.04061">
<ele>208.725</ele>
<time>2019-05-30T13:12:25Z</time>
</trkpt>
<trkpt lat="49.663193" lon="10.040564">
<ele>208.725</ele>
<time>2019-05-30T13:12:26Z</time>
</trkpt>
<trkpt lat="49.663174" lon="10.040522">
<ele>208.725</ele>
<time>2019-05-30T13:12:27Z</time>
</trkpt>
<trkpt lat="49.663155" lon="10.040478">
<ele>208.725</ele>
<time>2019-05-30T13:12:28Z</time>
</trkpt>
<trkpt lat="49.663155" lon="10.04042">
<ele>208.725</ele>
<time>2019-05-30T13:12:29Z</time>
</trkpt>
<trkpt lat="49.663136" lon="10.040354">
<ele>208.725</ele>
<time>2019-05-30T13:12:30Z</time>
</trkpt>
<trkpt lat="49.663116" lon="10.040273">
<ele>208.725</ele>
<time>2019-05-30T13:12:31Z</time>
</trkpt>
<trkpt lat="49.66309" lon="10.040214">
<ele>208.725</ele>
<time>2019-05-30T13:12:32Z</time>
</trkpt>
<trkpt lat="49.663071" lon="10.04015">
<ele>208.725</ele>
<time>2019-05-30T13:12:33Z</time>
</trkpt>
<trkpt lat="49.663044" lon="10.040085">
<ele>208.725</ele>
<time>2019-05-30T13:12:34Z</time>
</trkpt>
<trkpt lat="49.663017" lon="10.040017">
<ele>208.725</ele>
<time>2019-05-30T13:12:35Z</time>
</trkpt>
<trkpt lat="49.662998" lon="10.039956">
<ele>208.725</ele>
<time>2019-05-30T13:12:36Z</time>
</trkpt>
<trkpt lat="49.662987" lon="10.039897">
<ele>208.725</ele>
<time>2019-05-30T13:12:37Z</time>
</trkpt>
<trkpt lat="49.662968" lon="10.039844">
<ele>208.725</ele>
<time>2019-05-30T13:12:38Z</time>
</trkpt>
<trkpt lat="49.662949" lon="10.039788">
<ele>208.725</ele>
<time>2019-05-30T13:12:39Z</time>
</trkpt>
<trkpt lat="49.662918" lon="10.039739">
<ele>208.725</ele>
<time>2019-05-30T13:12:40Z</time>
</trkpt>
<trkpt lat="49.662888" lon="10.039693">
<ele>208.725</ele>
<time>2019-05-30T13:12:41Z</time>
</trkpt>
<trkpt lat="49.662865" lon="10.039646">
<ele>208.725</ele>
<time>2019-05-30T13:12:42Z</time>
</trkpt>
<trkpt lat="49.662846" lon="10.039603">
<ele>208.725</ele>
<time>2019-05-30T13:12:43Z</time>
</trkpt>
<trkpt lat="49.662807" lon="10.039552">
<ele>208.725</ele>
<time>2019-05-30T13:12:44Z</time>
</trkpt>
<trkpt lat="49.662777" lon="10.039501">
<ele>208.725</ele>
<time>2019-05-30T13:12:45Z</time>
</trkpt>
<trkpt lat="49.662746" lon="10.039449">
<ele>208.725</ele>
<time>2019-05-30T13:12:46Z</time>
</trkpt>
<trkpt lat="49.662724" lon="10.039392">
<ele>208.725</ele>
<time>2019-05-30T13:12:47Z</time>
</trkpt>
<trkpt lat="49.662697" lon="10.039336">
<ele>208.725</ele>
<time>2019-05-30T13:12:48Z</time>
</trkpt>
<trkpt lat="49.662666" lon="10.039287">
<ele>208.725</ele>
<time>2019-05-30T13:12:49Z</time>
</trkpt>
<trkpt lat="49.662632" lon="10.039222">
<ele>208.725</ele>
<time>2019-05-30T13:12:50Z</time>
</trkpt>
<trkpt lat="49.662598" lon="10.039162">
<ele>208.725</ele>
<time>2019-05-30T13:12:51Z</time>
</trkpt>
<trkpt lat="49.662567" lon="10.039112">
<ele>208.725</ele>
<time>2019-05-30T13:12:52Z</time>
</trkpt>
<trkpt lat="49.66254" lon="10.03906">
<ele>208.725</ele>
<time>2019-05-30T13:12:53Z</time>
</trkpt>
<trkpt lat="49.662498" lon="10.039009">
<ele>208.725</ele>
<time>2019-05-30T13:12:54Z</time>
</trkpt>
<trkpt lat="49.662457" lon="10.038946">
<ele>208.725</ele>
<time>2019-05-30T13:12:55Z</time>
</trkpt>
<trkpt lat="49.662426" lon="10.038894">
<ele>208.725</ele>
<time>2019-05-30T13:12:56Z</time>
</trkpt>
<trkpt lat="49.662392" lon="10.038854">
<ele>208.725</ele>
<time>2019-05-30T13:12:57Z</time>
</trkpt>
<trkpt lat="49.662357" lon="10.038805">
<ele>208.966</ele>
<time>2019-05-30T13:12:58Z</time>
</trkpt>
<trkpt lat="49.662323" lon="10.038758">
<ele>209.173</ele>
<time>2019-05-30T13:12:59Z</time>
</trkpt>
<trkpt lat="49.662281" lon="10.038713">
<ele>209.343</ele>
<time>2019-05-30T13:13:00Z</time>
</trkpt>
<trkpt lat="49.662235" lon="10.038671">
<ele>209.475</ele>
<time>2019-05-30T13:13:01Z</time>
</trkpt>
<trkpt lat="49.662205" lon="10.038613">
<ele>209.573</ele>
<time>2019-05-30T13:13:02Z</time>
</trkpt>
<trkpt lat="49.662167" lon="10.038571">
<ele>209.654</ele>
<time>2019-05-30T13:13:03Z</time>
</trkpt>
<trkpt lat="49.662128" lon="10.038533">
<ele>209.71</ele>
<time>2019-05-30T13:13:04Z</time>
</trkpt>
<trkpt lat="49.662083" lon="10.038487">
<ele>209.733</ele>
<time>2019-05-30T13:13:05Z</time>
</trkpt>
<trkpt lat="49.662037" lon="10.038448">
<ele>209.733</ele>
<time>2019-05-30T13:13:06Z</time>
</trkpt>
<trkpt lat="49.661991" lon="10.038408">
<ele>209.733</ele>
<time>2019-05-30T13:13:07Z</time>
</trkpt>
<trkpt lat="49.661938" lon="10.038372">
<ele>209.733</ele>
<time>2019-05-30T13:13:08Z</time>
</trkpt>
<trkpt lat="49.661884" lon="10.038335">
<ele>209.733</ele>
<time>2019-05-30T13:13:09Z</time>
</trkpt>
<trkpt lat="49.661846" lon="10.038292">
<ele>209.733</ele>
<time>2019-05-30T13:13:10Z</time>
</trkpt>
<trkpt lat="49.661804" lon="10.038255">
<ele>209.733</ele>
<time>2019-05-30T13:13:11Z</time>
</trkpt>
<trkpt lat="49.661766" lon="10.03821">
<ele>209.733</ele>
<time>2019-05-30T13:13:12Z</time>
</trkpt>
<trkpt lat="49.661724" lon="10.038169">
<ele>209.733</ele>
<time>2019-05-30T13:13:13Z</time>
</trkpt>
<trkpt lat="49.661686" lon="10.038127">
<ele>209.733</ele>
<time>2019-05-30T13:13:14Z</time>
</trkpt>
<trkpt lat="49.661652" lon="10.038085">
<ele>209.953</ele>
<time>2019-05-30T13:13:15Z</time>
</trkpt>
<trkpt lat="49.661602" lon="10.038062">
<ele>210.131</ele>
<time>2019-05-30T13:13:16Z</time>
</trkpt>
<trkpt lat="49.66156" lon="10.038041">
<ele>210.261</ele>
<time>2019-05-30T13:13:17Z</time>
</trkpt>
<trkpt lat="49.661514" lon="10.038023">
<ele>210.404</ele>
<time>2019-05-30T13:13:18Z</time>
</trkpt>
<trkpt lat="49.661484" lon="10.038002">
<ele>210.508</ele>
<time>2019-05-30T13:13:19Z</time>
</trkpt>
<trkpt lat="49.661453" lon="10.037976">
<ele>210.583</ele>
<time>2019-05-30T13:13:20Z</time>
</trkpt>
<trkpt lat="49.661423" lon="10.037949">
<ele>210.632</ele>
<time>2019-05-30T13:13:21Z</time>
</trkpt>
<trkpt lat="49.661388" lon="10.037918">
<ele>210.657</ele>
<time>2019-05-30T13:13:22Z</time>
</trkpt>
<trkpt lat="49.66135" lon="10.037892">
<ele>210.657</ele>
<time>2019-05-30T13:13:23Z</time>
</trkpt>
<trkpt lat="49.661312" lon="10.037864">
<ele>210.657</ele>
<time>2019-05-30T13:13:24Z</time>
</trkpt>
<trkpt lat="49.66127" lon="10.037831">
<ele>210.657</ele>
<time>2019-05-30T13:13:25Z</time>
</trkpt>
<trkpt lat="49.661228" lon="10.037802">
<ele>210.657</ele>
<time>2019-05-30T13:13:26Z</time>
</trkpt>
<trkpt lat="49.661186" lon="10.037777">
<ele>210.657</ele>
<time>2019-05-30T13:13:27Z</time>
</trkpt>
<trkpt lat="49.661148" lon="10.037746">
<ele>210.657</ele>
<time>2019-05-30T13:13:28Z</time>
</trkpt>
<trkpt lat="49.661114" lon="10.03771">
<ele>210.657</ele>
<time>2019-05-30T13:13:29Z</time>
</trkpt>
<trkpt lat="49.661083" lon="10.037672">
<ele>210.657</ele>
<time>2019-05-30T13:13:30Z</time>
</trkpt>
<trkpt lat="49.661049" lon="10.037633">
<ele>210.657</ele>
<time>2019-05-30T13:13:31Z</time>
</trkpt>
<trkpt lat="49.661015" lon="10.037597">
<ele>210.657</ele>
<time>2019-05-30T13:13:32Z</time>
</trkpt>
<trkpt lat="49.660984" lon="10.037561">
<ele>210.657</ele>
<time>2019-05-30T13:13:33Z</time>
</trkpt>
<trkpt lat="49.660946" lon="10.037534">
<ele>210.657</ele>
<time>2019-05-30T13:13:34Z</time>
</trkpt>
<trkpt lat="49.660915" lon="10.0375">
<ele>210.657</ele>
<time>2019-05-30T13:13:35Z</time>
</trkpt>
<trkpt lat="49.660877" lon="10.037457">
<ele>210.657</ele>
<time>2019-05-30T13:13:36Z</time>
</trkpt>
<trkpt lat="49.660839" lon="10.037413">
<ele>210.657</ele>
<time>2019-05-30T13:13:37Z</time>
</trkpt>
<trkpt lat="49.660805" lon="10.037372">
<ele>210.657</ele>
<time>2019-05-30T13:13:38Z</time>
</trkpt>
<trkpt lat="49.66077" lon="10.037322">
<ele>210.657</ele>
<time>2019-05-30T13:13:39Z</time>
</trkpt>
<trkpt lat="49.660736" lon="10.037274">
<ele>210.657</ele>
<time>2019-05-30T13:13:40Z</time>
</trkpt>
<trkpt lat="49.660702" lon="10.037235">
<ele>210.657</ele>
<time>2019-05-30T13:13:41Z</time>
</trkpt>
<trkpt lat="49.660664" lon="10.037204">
<ele>210.889</ele>
<time>2019-05-30T13:13:42Z</time>
</trkpt>
<trkpt lat="49.660633" lon="10.037169">
<ele>211.064</ele>
<time>2019-05-30T13:13:43Z</time>
</trkpt>
<trkpt lat="49.660603" lon="10.037128">
<ele>211.191</ele>
<time>2019-05-30T13:13:44Z</time>
</trkpt>
<trkpt lat="49.660564" lon="10.037093">
<ele>211.293</ele>
<time>2019-05-30T13:13:45Z</time>
</trkpt>
<trkpt lat="49.660534" lon="10.037053">
<ele>211.367</ele>
<time>2019-05-30T13:13:46Z</time>
</trkpt>
<trkpt lat="49.660496" lon="10.037015">
<ele>211.421</ele>
<time>2019-05-30T13:13:47Z</time>
</trkpt>
<trkpt lat="49.660458" lon="10.036977">
<ele>211.473</ele>
<time>2019-05-30T13:13:48Z</time>
</trkpt>
<trkpt lat="49.660435" lon="10.036942">
<ele>211.498</ele>
<time>2019-05-30T13:13:49Z</time>
</trkpt>
<trkpt lat="49.660408" lon="10.036898">
<ele>211.498</ele>
<time>2019-05-30T13:13:50Z</time>
</trkpt>
<trkpt lat="49.660378" lon="10.03687">
<ele>211.497</ele>
<time>2019-05-30T13:13:51Z</time>
</trkpt>
<trkpt lat="49.660347" lon="10.03683">
<ele>211.498</ele>
<time>2019-05-30T13:13:52Z</time>
</trkpt>
<trkpt lat="49.66032" lon="10.036788">
<ele>211.497</ele>
<time>2019-05-30T13:13:53Z</time>
</trkpt>
<trkpt lat="49.660286" lon="10.036753">
<ele>211.497</ele>
<time>2019-05-30T13:13:54Z</time>
</trkpt>
<trkpt lat="49.660248" lon="10.036716">
<ele>211.498</ele>
<time>2019-05-30T13:13:55Z</time>
</trkpt>
<trkpt lat="49.660217" lon="10.036678">
<ele>211.497</ele>
<time>2019-05-30T13:13:56Z</time>
</trkpt>
<trkpt lat="49.660183" lon="10.036638">
<ele>211.498</ele>
<time>2019-05-30T13:13:57Z</time>
</trkpt>
<trkpt lat="49.660149" lon="10.036593">
<ele>211.73</ele>
<time>2019-05-30T13:13:58Z</time>
</trkpt>
<trkpt lat="49.660118" lon="10.03655">
<ele>211.925</ele>
<time>2019-05-30T13:13:59Z</time>
</trkpt>
<trkpt lat="49.66008" lon="10.036511">
<ele>212.077</ele>
<time>2019-05-30T13:14:00Z</time>
</trkpt>
<trkpt lat="49.660042" lon="10.036474">
<ele>212.197</ele>
<time>2019-05-30T13:14:01Z</time>
</trkpt>
<trkpt lat="49.660011" lon="10.036445">
<ele>212.288</ele>
<time>2019-05-30T13:14:02Z</time>
</trkpt>
<trkpt lat="49.659977" lon="10.036409">
<ele>212.354</ele>
<time>2019-05-30T13:14:03Z</time>
</trkpt>
<trkpt lat="49.659946" lon="10.036368">
<ele>212.401</ele>
<time>2019-05-30T13:14:04Z</time>
</trkpt>
<trkpt lat="49.65992" lon="10.03632">
<ele>212.422</ele>
<time>2019-05-30T13:14:05Z</time>
</trkpt>
<trkpt lat="49.659889" lon="10.036279">
<ele>212.422</ele>
<time>2019-05-30T13:14:06Z</time>
</trkpt>
<trkpt lat="49.659851" lon="10.036237">
<ele>212.422</ele>
<time>2019-05-30T13:14:07Z</time>
</trkpt>
<trkpt lat="49.659824" lon="10.0362">
<ele>212.422</ele>
<time>2019-05-30T13:14:08Z</time>
</trkpt>
<trkpt lat="49.65979" lon="10.036157">
<ele>212.422</ele>
<time>2019-05-30T13:14:09Z</time>
</trkpt>
<trkpt lat="49.659763" lon="10.036114">
<ele>212.421</ele>
<time>2019-05-30T13:14:10Z</time>
</trkpt>
<trkpt lat="49.659729" lon="10.036072">
<ele>212.422</ele>
<time>2019-05-30T13:14:11Z</time>
</trkpt>
<trkpt lat="49.659695" lon="10.036035">
<ele>212.422</ele>
<time>2019-05-30T13:14:12Z</time>
</trkpt>
<trkpt lat="49.659653" lon="10.036">
<ele>212.422</ele>
<time>2019-05-30T13:14:13Z</time>
</trkpt>
<trkpt lat="49.659615" lon="10.035954">
<ele>212.422</ele>
<time>2019-05-30T13:14:14Z</time>
</trkpt>
<trkpt lat="49.659573" lon="10.035913">
<ele>212.66</ele>
<time>2019-05-30T13:14:15Z</time>
</trkpt>
<trkpt lat="49.659534" lon="10.035875">
<ele>212.852</ele>
<time>2019-05-30T13:14:16Z</time>
</trkpt>
<trkpt lat="49.6595" lon="10.03584">
<ele>212.97</ele>
<time>2019-05-30T13:14:17Z</time>
</trkpt>
<trkpt lat="49.659462" lon="10.035798">
<ele>213.105</ele>
<time>2019-05-30T13:14:18Z</time>
</trkpt>
<trkpt lat="49.65942" lon="10.035753">
<ele>213.204</ele>
<time>2019-05-30T13:14:19Z</time>
</trkpt>
<trkpt lat="49.659378" lon="10.035707">
<ele>213.277</ele>
<time>2019-05-30T13:14:20Z</time>
</trkpt>
<trkpt lat="49.65934" lon="10.035662">
<ele>213.324</ele>
<time>2019-05-30T13:14:21Z</time>
</trkpt>
<trkpt lat="49.659302" lon="10.03562">
<ele>213.346</ele>
<time>2019-05-30T13:14:22Z</time>
</trkpt>
<trkpt lat="49.659267" lon="10.035575">
<ele>213.346</ele>
<time>2019-05-30T13:14:23Z</time>
</trkpt>
<trkpt lat="49.659233" lon="10.035527">
<ele>213.346</ele>
<time>2019-05-30T13:14:24Z</time>
</trkpt>
<trkpt lat="49.659206" lon="10.035481">
<ele>213.346</ele>
<time>2019-05-30T13:14:25Z</time>
</trkpt>
<trkpt lat="49.659172" lon="10.035441">
<ele>213.346</ele>
<time>2019-05-30T13:14:26Z</time>
</trkpt>
<trkpt lat="49.659138" lon="10.035394">
<ele>213.346</ele>
<time>2019-05-30T13:14:27Z</time>
</trkpt>
<trkpt lat="49.6591" lon="10.035347">
<ele>213.346</ele>
<time>2019-05-30T13:14:28Z</time>
</trkpt>
<trkpt lat="49.659073" lon="10.035296">
<ele>213.346</ele>
<time>2019-05-30T13:14:29Z</time>
</trkpt>
<trkpt lat="49.659042" lon="10.035252">
<ele>213.346</ele>
<time>2019-05-30T13:14:30Z</time>
</trkpt>
<trkpt lat="49.659016" lon="10.035207">
<ele>213.346</ele>
<time>2019-05-30T13:14:31Z</time>
</trkpt>
<trkpt lat="49.658993" lon="10.03516">
<ele>213.346</ele>
<time>2019-05-30T13:14:32Z</time>
</trkpt>
<trkpt lat="49.658962" lon="10.03511">
<ele>213.587</ele>
<time>2019-05-30T13:14:33Z</time>
</trkpt>
<trkpt lat="49.658936" lon="10.035058">
<ele>213.775</ele>
<time>2019-05-30T13:14:34Z</time>
</trkpt>
<trkpt lat="49.658905" lon="10.035007">
<ele>213.915</ele>
<time>2019-05-30T13:14:35Z</time>
</trkpt>
<trkpt lat="49.658875" lon="10.034958">
<ele>214.033</ele>
<time>2019-05-30T13:14:36Z</time>
</trkpt>
<trkpt lat="49.658848" lon="10.034911">
<ele>214.114</ele>
<time>2019-05-30T13:14:37Z</time>
</trkpt>
<trkpt lat="49.658825" lon="10.034867">
<ele>214.196</ele>
<time>2019-05-30T13:14:38Z</time>
</trkpt>
<trkpt lat="49.658802" lon="10.034822">
<ele>214.248</ele>
<time>2019-05-30T13:14:39Z</time>
</trkpt>
<trkpt lat="49.658783" lon="10.034775">
<ele>214.27</ele>
<time>2019-05-30T13:14:40Z</time>
</trkpt>
<trkpt lat="49.658768" lon="10.034727">
<ele>214.27</ele>
<time>2019-05-30T13:14:41Z</time>
</trkpt>
<trkpt lat="49.658752" lon="10.034675">
<ele>214.27</ele>
<time>2019-05-30T13:14:42Z</time>
</trkpt>
<trkpt lat="49.658737" lon="10.034622">
<ele>214.27</ele>
<time>2019-05-30T13:14:43Z</time>
</trkpt>
<trkpt lat="49.658703" lon="10.03457">
<ele>214.27</ele>
<time>2019-05-30T13:14:44Z</time>
</trkpt>
<trkpt lat="49.658672" lon="10.034526">
<ele>214.27</ele>
<time>2019-05-30T13:14:45Z</time>
</trkpt>
<trkpt lat="49.658642" lon="10.034487">
<ele>214.27</ele>
<time>2019-05-30T13:14:46Z</time>
</trkpt>
<trkpt lat="49.658619" lon="10.03443">
<ele>214.27</ele>
<time>2019-05-30T13:14:47Z</time>
</trkpt>
<trkpt lat="49.6586" lon="10.034387">
<ele>214.27</ele>
<time>2019-05-30T13:14:48Z</time>
</trkpt>
<trkpt lat="49.658588" lon="10.034351">
<ele>214.27</ele>
<time>2019-05-30T13:14:49Z</time>
</trkpt>
<trkpt lat="49.658569" lon="10.034312">
<ele>214.27</ele>
<time>2019-05-30T13:14:50Z</time>
</trkpt>
<trkpt lat="49.65855" lon="10.034268">
<ele>214.27</ele>
<time>2019-05-30T13:14:51Z</time>
</trkpt>
<trkpt lat="49.658527" lon="10.034222">
<ele>214.27</ele>
<time>2019-05-30T13:14:52Z</time>
</trkpt>
<trkpt lat="49.658493" lon="10.034168">
<ele>214.27</ele>
<time>2019-05-30T13:14:53Z</time>
</trkpt>
<trkpt lat="49.658466" lon="10.034117">
<ele>214.27</ele>
<time>2019-05-30T13:14:54Z</time>
</trkpt>
<trkpt lat="49.65844" lon="10.034057">
<ele>214.27</ele>
<time>2019-05-30T13:14:55Z</time>
</trkpt>
<trkpt lat="49.658417" lon="10.034008">
<ele>214.27</ele>
<time>2019-05-30T13:14:56Z</time>
</trkpt>
<trkpt lat="49.658394" lon="10.03396">
<ele>214.27</ele>
<time>2019-05-30T13:14:57Z</time>
</trkpt>
<trkpt lat="49.658379" lon="10.033901">
<ele>214.27</ele>
<time>2019-05-30T13:14:58Z</time>
</trkpt>
<trkpt lat="49.65834" lon="10.03386">
<ele>214.27</ele>
<time>2019-05-30T13:14:59Z</time>
</trkpt>
<trkpt lat="49.658321" lon="10.033812">
<ele>214.27</ele>
<time>2019-05-30T13:15:00Z</time>
</trkpt>
<trkpt lat="49.658302" lon="10.033749">
<ele>214.27</ele>
<time>2019-05-30T13:15:01Z</time>
</trkpt>
<trkpt lat="49.658291" lon="10.033687">
<ele>214.27</ele>
<time>2019-05-30T13:15:02Z</time>
</trkpt>
<trkpt lat="49.658257" lon="10.033631">
<ele>214.27</ele>
<time>2019-05-30T13:15:03Z</time>
</trkpt>
<trkpt lat="49.658222" lon="10.03357">
<ele>214.27</ele>
<time>2019-05-30T13:15:04Z</time>
</trkpt>
<trkpt lat="49.65818" lon="10.033528">
<ele>214.27</ele>
<time>2019-05-30T13:15:05Z</time>
</trkpt>
<trkpt lat="49.658146" lon="10.033465">
<ele>214.506</ele>
<time>2019-05-30T13:15:06Z</time>
</trkpt>
<trkpt lat="49.658115" lon="10.033403">
<ele>214.67</ele>
<time>2019-05-30T13:15:07Z</time>
</trkpt>
<trkpt lat="49.658089" lon="10.033325">
<ele>214.841</ele>
<time>2019-05-30T13:15:08Z</time>
</trkpt>
<trkpt lat="49.658066" lon="10.033255">
<ele>214.964</ele>
<time>2019-05-30T13:15:09Z</time>
</trkpt>
<trkpt lat="49.658035" lon="10.03319">
<ele>215.061</ele>
<time>2019-05-30T13:15:10Z</time>
</trkpt>
<trkpt lat="49.658005" lon="10.033124">
<ele>215.125</ele>
<time>2019-05-30T13:15:11Z</time>
</trkpt>
<trkpt lat="49.657978" lon="10.033055">
<ele>215.171</ele>
<time>2019-05-30T13:15:12Z</time>
</trkpt>
<trkpt lat="49.657944" lon="10.032998">
<ele>215.194</ele>
<time>2019-05-30T13:15:13Z</time>
</trkpt>
<trkpt lat="49.657913" lon="10.032945">
<ele>215.194</ele>
<time>2019-05-30T13:15:14Z</time>
</trkpt>
<trkpt lat="49.657875" lon="10.032896">
<ele>215.4</ele>
<time>2019-05-30T13:15:15Z</time>
</trkpt>
<trkpt lat="49.657852" lon="10.032839">
<ele>215.561</ele>
<time>2019-05-30T13:15:16Z</time>
</trkpt>
<trkpt lat="49.657822" lon="10.032783">
<ele>215.68</ele>
<time>2019-05-30T13:15:17Z</time>
</trkpt>
<trkpt lat="49.657787" lon="10.032742">
<ele>215.801</ele>
<time>2019-05-30T13:15:18Z</time>
</trkpt>
<trkpt lat="49.657761" lon="10.032695">
<ele>215.894</ele>
<time>2019-05-30T13:15:19Z</time>
</trkpt>
<trkpt lat="49.65773" lon="10.032643">
<ele>215.965</ele>
<time>2019-05-30T13:15:20Z</time>
</trkpt>
<trkpt lat="49.657696" lon="10.032586">
<ele>216.013</ele>
<time>2019-05-30T13:15:21Z</time>
</trkpt>
<trkpt lat="49.65765" lon="10.032545">
<ele>216.035</ele>
<time>2019-05-30T13:15:22Z</time>
</trkpt>
<trkpt lat="49.6576" lon="10.032513">
<ele>216.035</ele>
<time>2019-05-30T13:15:23Z</time>
</trkpt>
<trkpt lat="49.657547" lon="10.032472">
<ele>216.035</ele>
<time>2019-05-30T13:15:24Z</time>
</trkpt>
<trkpt lat="49.657501" lon="10.032439">
<ele>216.035</ele>
<time>2019-05-30T13:15:25Z</time>
</trkpt>
<trkpt lat="49.657455" lon="10.032405">
<ele>216.035</ele>
<time>2019-05-30T13:15:26Z</time>
</trkpt>
<trkpt lat="49.657417" lon="10.032366">
<ele>216.035</ele>
<time>2019-05-30T13:15:27Z</time>
</trkpt>
<trkpt lat="49.657387" lon="10.032311">
<ele>216.035</ele>
<time>2019-05-30T13:15:28Z</time>
</trkpt>
<trkpt lat="49.657349" lon="10.032269">
<ele>216.035</ele>
<time>2019-05-30T13:15:29Z</time>
</trkpt>
<trkpt lat="49.657303" lon="10.032238">
<ele>216.035</ele>
<time>2019-05-30T13:15:30Z</time>
</trkpt>
<trkpt lat="49.657257" lon="10.032203">
<ele>216.035</ele>
<time>2019-05-30T13:15:31Z</time>
</trkpt>
<trkpt lat="49.657219" lon="10.032173">
<ele>216.28</ele>
<time>2019-05-30T13:15:32Z</time>
</trkpt>
<trkpt lat="49.657185" lon="10.03214">
<ele>216.477</ele>
<time>2019-05-30T13:15:33Z</time>
</trkpt>
<trkpt lat="49.657154" lon="10.032105">
<ele>216.63</ele>
<time>2019-05-30T13:15:34Z</time>
</trkpt>
<trkpt lat="49.657124" lon="10.032064">
<ele>216.742</ele>
<time>2019-05-30T13:15:35Z</time>
</trkpt>
<trkpt lat="49.657089" lon="10.03202">
<ele>216.819</ele>
<time>2019-05-30T13:15:36Z</time>
</trkpt>
<trkpt lat="49.657055" lon="10.031975">
<ele>216.878</ele>
<time>2019-05-30T13:15:37Z</time>
</trkpt>
<trkpt lat="49.657017" lon="10.031939">
<ele>216.93</ele>
<time>2019-05-30T13:15:38Z</time>
</trkpt>
<trkpt lat="49.656975" lon="10.031903">
<ele>216.959</ele>
<time>2019-05-30T13:15:39Z</time>
</trkpt>
<trkpt lat="49.656929" lon="10.031879">
<ele>216.959</ele>
<time>2019-05-30T13:15:40Z</time>
</trkpt>
<trkpt lat="49.656898" lon="10.031837">
<ele>216.959</ele>
<time>2019-05-30T13:15:41Z</time>
</trkpt>
<trkpt lat="49.656857" lon="10.031804">
<ele>216.959</ele>
<time>2019-05-30T13:15:42Z</time>
</trkpt>
<trkpt lat="49.656815" lon="10.031776">
<ele>216.959</ele>
<time>2019-05-30T13:15:43Z</time>
</trkpt>
<trkpt lat="49.656784" lon="10.03175">
<ele>216.959</ele>
<time>2019-05-30T13:15:44Z</time>
</trkpt>
<trkpt lat="49.656738" lon="10.031722">
<ele>216.959</ele>
<time>2019-05-30T13:15:45Z</time>
</trkpt>
<trkpt lat="49.6567" lon="10.031698">
<ele>216.959</ele>
<time>2019-05-30T13:15:46Z</time>
</trkpt>
<trkpt lat="49.656662" lon="10.031665">
<ele>216.959</ele>
<time>2019-05-30T13:15:47Z</time>
</trkpt>
<trkpt lat="49.656624" lon="10.031609">
<ele>216.959</ele>
<time>2019-05-30T13:15:48Z</time>
</trkpt>
<trkpt lat="49.656586" lon="10.031568">
<ele>216.959</ele>
<time>2019-05-30T13:15:49Z</time>
</trkpt>
<trkpt lat="49.656551" lon="10.031535">
<ele>216.959</ele>
<time>2019-05-30T13:15:50Z</time>
</trkpt>
<trkpt lat="49.656517" lon="10.031495">
<ele>216.959</ele>
<time>2019-05-30T13:15:51Z</time>
</trkpt>
<trkpt lat="49.656483" lon="10.031453">
<ele>216.959</ele>
<time>2019-05-30T13:15:52Z</time>
</trkpt>
<trkpt lat="49.656445" lon="10.031398">
<ele>216.959</ele>
<time>2019-05-30T13:15:53Z</time>
</trkpt>
<trkpt lat="49.656406" lon="10.03135">
<ele>216.959</ele>
<time>2019-05-30T13:15:54Z</time>
</trkpt>
<trkpt lat="49.656364" lon="10.031308">
<ele>216.959</ele>
<time>2019-05-30T13:15:55Z</time>
</trkpt>
<trkpt lat="49.656322" lon="10.031274">
<ele>216.959</ele>
<time>2019-05-30T13:15:56Z</time>
</trkpt>
<trkpt lat="49.656288" lon="10.031232">
<ele>216.959</ele>
<time>2019-05-30T13:15:57Z</time>
</trkpt>
<trkpt lat="49.65625" lon="10.031188">
<ele>216.959</ele>
<time>2019-05-30T13:15:58Z</time>
</trkpt>
<trkpt lat="49.656212" lon="10.031127">
<ele>216.959</ele>
<time>2019-05-30T13:15:59Z</time>
</trkpt>
<trkpt lat="49.656189" lon="10.031075">
<ele>216.959</ele>
<time>2019-05-30T13:16:00Z</time>
</trkpt>
<trkpt lat="49.656174" lon="10.031027">
<ele>217.232</ele>
<time>2019-05-30T13:16:01Z</time>
</trkpt>
<trkpt lat="49.656136" lon="10.030974">
<ele>217.448</ele>
<time>2019-05-30T13:16:02Z</time>
</trkpt>
<trkpt lat="49.656094" lon="10.030918">
<ele>217.622</ele>
<time>2019-05-30T13:16:03Z</time>
</trkpt>
<trkpt lat="49.656059" lon="10.030869">
<ele>217.749</ele>
<time>2019-05-30T13:16:04Z</time>
</trkpt>
<trkpt lat="49.65604" lon="10.030809">
<ele>217.835</ele>
<time>2019-05-30T13:16:05Z</time>
</trkpt>
<trkpt lat="49.65601" lon="10.030753">
<ele>217.891</ele>
<time>2019-05-30T13:16:06Z</time>
</trkpt>
<trkpt lat="49.655987" lon="10.030695">
<ele>217.935</ele>
<time>2019-05-30T13:16:07Z</time>
</trkpt>
<trkpt lat="49.65596" lon="10.030639">
<ele>217.968</ele>
<time>2019-05-30T13:16:08Z</time>
</trkpt>
<trkpt lat="49.655941" lon="10.030583">
<ele>217.968</ele>
<time>2019-05-30T13:16:09Z</time>
</trkpt>
<trkpt lat="49.655914" lon="10.030533">
<ele>217.968</ele>
<time>2019-05-30T13:16:10Z</time>
</trkpt>
<trkpt lat="49.655876" lon="10.030485">
<ele>218.198</ele>
<time>2019-05-30T13:16:11Z</time>
</trkpt>
<trkpt lat="49.65583" lon="10.030423">
<ele>218.392</ele>
<time>2019-05-30T13:16:12Z</time>
</trkpt>
<trkpt lat="49.655796" lon="10.03036">
<ele>218.537</ele>
<time>2019-05-30T13:16:13Z</time>
</trkpt>
<trkpt lat="49.655758" lon="10.030305">
<ele>218.636</ele>
<time>2019-05-30T13:16:14Z</time>
</trkpt>
<trkpt lat="49.655731" lon="10.030252">
<ele>218.707</ele>
<time>2019-05-30T13:16:15Z</time>
</trkpt>
<trkpt lat="49.655701" lon="10.030195">
<ele>218.753</ele>
<time>2019-05-30T13:16:16Z</time>
</trkpt>
<trkpt lat="49.655663" lon="10.030138">
<ele>218.789</ele>
<time>2019-05-30T13:16:17Z</time>
</trkpt>
<trkpt lat="49.655621" lon="10.030084">
<ele>218.809</ele>
<time>2019-05-30T13:16:18Z</time>
</trkpt>
<trkpt lat="49.655582" lon="10.03004">
<ele>218.809</ele>
<time>2019-05-30T13:16:19Z</time>
</trkpt>
<trkpt lat="49.655533" lon="10.029995">
<ele>218.809</ele>
<time>2019-05-30T13:16:20Z</time>
</trkpt>
<trkpt lat="49.655495" lon="10.029946">
<ele>218.809</ele>
<time>2019-05-30T13:16:21Z</time>
</trkpt>
<trkpt lat="49.655457" lon="10.029898">
<ele>219.063</ele>
<time>2019-05-30T13:16:22Z</time>
</trkpt>
<trkpt lat="49.655422" lon="10.029852">
<ele>219.26</ele>
<time>2019-05-30T13:16:23Z</time>
</trkpt>
<trkpt lat="49.655388" lon="10.029805">
<ele>219.404</ele>
<time>2019-05-30T13:16:24Z</time>
</trkpt>
<trkpt lat="49.655346" lon="10.029757">
<ele>219.511</ele>
<time>2019-05-30T13:16:25Z</time>
</trkpt>
<trkpt lat="49.655312" lon="10.029707">
<ele>219.593</ele>
<time>2019-05-30T13:16:26Z</time>
</trkpt>
<trkpt lat="49.655266" lon="10.029661">
<ele>219.654</ele>
<time>2019-05-30T13:16:27Z</time>
</trkpt>
<trkpt lat="49.655228" lon="10.029618">
<ele>219.706</ele>
<time>2019-05-30T13:16:28Z</time>
</trkpt>
<trkpt lat="49.655186" lon="10.029577">
<ele>219.734</ele>
<time>2019-05-30T13:16:29Z</time>
</trkpt>
<trkpt lat="49.655148" lon="10.029538">
<ele>219.734</ele>
<time>2019-05-30T13:16:30Z</time>
</trkpt>
<trkpt lat="49.655109" lon="10.029502">
<ele>219.734</ele>
<time>2019-05-30T13:16:31Z</time>
</trkpt>
<trkpt lat="49.655067" lon="10.029469">
<ele>220.005</ele>
<time>2019-05-30T13:16:32Z</time>
</trkpt>
<trkpt lat="49.655033" lon="10.029432">
<ele>220.216</ele>
<time>2019-05-30T13:16:33Z</time>
</trkpt>
<trkpt lat="49.654991" lon="10.029393">
<ele>220.379</ele>
<time>2019-05-30T13:16:34Z</time>
</trkpt>
<trkpt lat="49.654949" lon="10.029362">
<ele>220.501</ele>
<time>2019-05-30T13:16:35Z</time>
</trkpt>
<trkpt lat="49.654907" lon="10.029332">
<ele>220.589</ele>
<time>2019-05-30T13:16:36Z</time>
</trkpt>
<trkpt lat="49.654869" lon="10.029301">
<ele>220.656</ele>
<time>2019-05-30T13:16:37Z</time>
</trkpt>
<trkpt lat="49.654831" lon="10.029271">
<ele>220.715</ele>
<time>2019-05-30T13:16:38Z</time>
</trkpt>
<trkpt lat="49.654789" lon="10.02924">
<ele>220.742</ele>
<time>2019-05-30T13:16:39Z</time>
</trkpt>
<trkpt lat="49.654747" lon="10.029212">
<ele>220.742</ele>
<time>2019-05-30T13:16:40Z</time>
</trkpt>
<trkpt lat="49.654709" lon="10.02919">
<ele>220.743</ele>
<time>2019-05-30T13:16:41Z</time>
</trkpt>
<trkpt lat="49.654675" lon="10.029168">
<ele>220.986</ele>
<time>2019-05-30T13:16:42Z</time>
</trkpt>
<trkpt lat="49.654644" lon="10.029152">
<ele>221.179</ele>
<time>2019-05-30T13:16:43Z</time>
</trkpt>
<trkpt lat="49.654629" lon="10.02914">
<ele>221.324</ele>
<time>2019-05-30T13:16:44Z</time>
</trkpt>
<trkpt lat="49.654613" lon="10.029129">
<ele>221.427</ele>
<time>2019-05-30T13:16:45Z</time>
</trkpt>
<trkpt lat="49.654591" lon="10.029114">
<ele>221.508</ele>
<time>2019-05-30T13:16:46Z</time>
</trkpt>
<trkpt lat="49.654564" lon="10.029103">
<ele>221.575</ele>
<time>2019-05-30T13:16:47Z</time>
</trkpt>
<trkpt lat="49.654541" lon="10.029095">
<ele>221.635</ele>
<time>2019-05-30T13:16:48Z</time>
</trkpt>
<trkpt lat="49.65451" lon="10.02909">
<ele>221.667</ele>
<time>2019-05-30T13:16:49Z</time>
</trkpt>
<trkpt lat="49.654491" lon="10.029087">
<ele>221.667</ele>
<time>2019-05-30T13:16:50Z</time>
</trkpt>
<trkpt lat="49.654476" lon="10.029074">
<ele>221.667</ele>
<time>2019-05-30T13:16:51Z</time>
</trkpt>
<trkpt lat="49.654457" lon="10.029056">
<ele>221.667</ele>
<time>2019-05-30T13:16:52Z</time>
</trkpt>
<trkpt lat="49.654434" lon="10.029038">
<ele>221.667</ele>
<time>2019-05-30T13:16:53Z</time>
</trkpt>
<trkpt lat="49.654396" lon="10.02903">
<ele>221.889</ele>
<time>2019-05-30T13:16:54Z</time>
</trkpt>
<trkpt lat="49.654362" lon="10.029024">
<ele>222.064</ele>
<time>2019-05-30T13:16:55Z</time>
</trkpt>
<trkpt lat="49.654331" lon="10.029016">
<ele>222.204</ele>
<time>2019-05-30T13:16:56Z</time>
</trkpt>
<trkpt lat="49.654297" lon="10.029001">
<ele>222.297</ele>
<time>2019-05-30T13:16:57Z</time>
</trkpt>
<trkpt lat="49.654263" lon="10.028989">
<ele>222.404</ele>
<time>2019-05-30T13:16:58Z</time>
</trkpt>
<trkpt lat="49.654221" lon="10.028978">
<ele>222.461</ele>
<time>2019-05-30T13:16:59Z</time>
</trkpt>
<trkpt lat="49.654182" lon="10.028959">
<ele>222.493</ele>
<time>2019-05-30T13:17:00Z</time>
</trkpt>
<trkpt lat="49.654137" lon="10.028942">
<ele>222.509</ele>
<time>2019-05-30T13:17:01Z</time>
</trkpt>
<trkpt lat="49.654095" lon="10.028918">
<ele>222.509</ele>
<time>2019-05-30T13:17:02Z</time>
</trkpt>
<trkpt lat="49.654045" lon="10.028911">
<ele>222.509</ele>
<time>2019-05-30T13:17:03Z</time>
</trkpt>
<trkpt lat="49.653992" lon="10.028894">
<ele>222.509</ele>
<time>2019-05-30T13:17:04Z</time>
</trkpt>
<trkpt lat="49.653946" lon="10.02887">
<ele>222.509</ele>
<time>2019-05-30T13:17:05Z</time>
</trkpt>
<trkpt lat="49.653896" lon="10.02885">
<ele>222.509</ele>
<time>2019-05-30T13:17:06Z</time>
</trkpt>
<trkpt lat="49.653851" lon="10.02883">
<ele>222.509</ele>
<time>2019-05-30T13:17:07Z</time>
</trkpt>
<trkpt lat="49.653809" lon="10.028809">
<ele>222.509</ele>
<time>2019-05-30T13:17:08Z</time>
</trkpt>
<trkpt lat="49.653767" lon="10.028787">
<ele>222.509</ele>
<time>2019-05-30T13:17:09Z</time>
</trkpt>
<trkpt lat="49.653725" lon="10.028773">
<ele>222.509</ele>
<time>2019-05-30T13:17:10Z</time>
</trkpt>
<trkpt lat="49.653687" lon="10.028758">
<ele>222.509</ele>
<time>2019-05-30T13:17:11Z</time>
</trkpt>
<trkpt lat="49.653648" lon="10.028742">
<ele>222.509</ele>
<time>2019-05-30T13:17:12Z</time>
</trkpt>
<trkpt lat="49.653603" lon="10.028725">
<ele>222.509</ele>
<time>2019-05-30T13:17:13Z</time>
</trkpt>
<trkpt lat="49.653564" lon="10.028704">
<ele>222.509</ele>
<time>2019-05-30T13:17:14Z</time>
</trkpt>
<trkpt lat="49.653526" lon="10.028687">
<ele>222.509</ele>
<time>2019-05-30T13:17:15Z</time>
</trkpt>
<trkpt lat="49.653484" lon="10.028675">
<ele>222.509</ele>
<time>2019-05-30T13:17:16Z</time>
</trkpt>
<trkpt lat="49.653439" lon="10.028666">
<ele>222.509</ele>
<time>2019-05-30T13:17:17Z</time>
</trkpt>
<trkpt lat="49.6534" lon="10.028658">
<ele>222.509</ele>
<time>2019-05-30T13:17:18Z</time>
</trkpt>
<trkpt lat="49.653366" lon="10.028639">
<ele>222.509</ele>
<time>2019-05-30T13:17:19Z</time>
</trkpt>
<trkpt lat="49.653328" lon="10.028606">
<ele>222.509</ele>
<time>2019-05-30T13:17:20Z</time>
</trkpt>
<trkpt lat="49.653294" lon="10.028573">
<ele>222.509</ele>
<time>2019-05-30T13:17:21Z</time>
</trkpt>
<trkpt lat="49.653259" lon="10.028534">
<ele>222.509</ele>
<time>2019-05-30T13:17:22Z</time>
</trkpt>
<trkpt lat="49.653221" lon="10.028497">
<ele>222.509</ele>
<time>2019-05-30T13:17:23Z</time>
</trkpt>
<trkpt lat="49.653179" lon="10.028457">
<ele>222.509</ele>
<time>2019-05-30T13:17:24Z</time>
</trkpt>
<trkpt lat="49.653141" lon="10.028414">
<ele>222.509</ele>
<time>2019-05-30T13:17:25Z</time>
</trkpt>
<trkpt lat="49.653099" lon="10.028368">
<ele>222.509</ele>
<time>2019-05-30T13:17:26Z</time>
</trkpt>
<trkpt lat="49.653053" lon="10.028323">
<ele>222.509</ele>
<time>2019-05-30T13:17:27Z</time>
</trkpt>
<trkpt lat="49.653011" lon="10.028278">
<ele>222.509</ele>
<time>2019-05-30T13:17:28Z</time>
</trkpt>
<trkpt lat="49.652962" lon="10.028242">
<ele>222.509</ele>
<time>2019-05-30T13:17:29Z</time>
</trkpt>
<trkpt lat="49.652912" lon="10.028224">
<ele>222.509</ele>
<time>2019-05-30T13:17:30Z</time>
</trkpt>
<trkpt lat="49.652863" lon="10.028222">
<ele>222.509</ele>
<time>2019-05-30T13:17:31Z</time>
</trkpt>
<trkpt lat="49.652821" lon="10.028228">
<ele>222.509</ele>
<time>2019-05-30T13:17:32Z</time>
</trkpt>
<trkpt lat="49.652782" lon="10.028238">
<ele>222.509</ele>
<time>2019-05-30T13:17:33Z</time>
</trkpt>
<trkpt lat="49.65274" lon="10.028255">
<ele>222.509</ele>
<time>2019-05-30T13:17:34Z</time>
</trkpt>
<trkpt lat="49.652702" lon="10.028274">
<ele>222.509</ele>
<time>2019-05-30T13:17:35Z</time>
</trkpt>
<trkpt lat="49.652672" lon="10.028285">
<ele>222.715</ele>
<time>2019-05-30T13:17:36Z</time>
</trkpt>
<trkpt lat="49.652645" lon="10.028293">
<ele>222.874</ele>
<time>2019-05-30T13:17:37Z</time>
</trkpt>
<trkpt lat="49.652615" lon="10.028299">
<ele>223.031</ele>
<time>2019-05-30T13:17:38Z</time>
</trkpt>
<trkpt lat="49.652584" lon="10.028298">
<ele>223.167</ele>
<time>2019-05-30T13:17:39Z</time>
</trkpt>
<trkpt lat="49.65255" lon="10.028292">
<ele>223.264</ele>
<time>2019-05-30T13:17:40Z</time>
</trkpt>
<trkpt lat="49.652519" lon="10.028276">
<ele>223.56</ele>
<time>2019-05-30T13:17:41Z</time>
</trkpt>
<trkpt lat="49.652481" lon="10.028258">
<ele>223.807</ele>
<time>2019-05-30T13:17:42Z</time>
</trkpt>
<trkpt lat="49.652447" lon="10.028242">
<ele>224.005</ele>
<time>2019-05-30T13:17:43Z</time>
</trkpt>
<trkpt lat="49.652412" lon="10.028218">
<ele>224.175</ele>
<time>2019-05-30T13:17:44Z</time>
</trkpt>
<trkpt lat="49.652374" lon="10.028192">
<ele>224.25</ele>
<time>2019-05-30T13:17:45Z</time>
</trkpt>
<trkpt lat="49.652336" lon="10.028165">
<ele>224.301</ele>
<time>2019-05-30T13:17:46Z</time>
</trkpt>
<trkpt lat="49.652317" lon="10.02814">
<ele>224.336</ele>
<time>2019-05-30T13:17:47Z</time>
</trkpt>
<trkpt lat="49.65229" lon="10.028111">
<ele>224.359</ele>
<time>2019-05-30T13:17:48Z</time>
</trkpt>
<trkpt lat="49.652264" lon="10.028075">
<ele>224.359</ele>
<time>2019-05-30T13:17:49Z</time>
</trkpt>
<trkpt lat="49.652241" lon="10.028044">
<ele>224.359</ele>
<time>2019-05-30T13:17:50Z</time>
</trkpt>
<trkpt lat="49.65221" lon="10.028014">
<ele>224.359</ele>
<time>2019-05-30T13:17:51Z</time>
</trkpt>
<trkpt lat="49.652168" lon="10.027982">
<ele>224.359</ele>
<time>2019-05-30T13:17:52Z</time>
</trkpt>
<trkpt lat="49.652138" lon="10.027942">
<ele>224.359</ele>
<time>2019-05-30T13:17:53Z</time>
</trkpt>
<trkpt lat="49.652107" lon="10.0279">
<ele>224.359</ele>
<time>2019-05-30T13:17:54Z</time>
</trkpt>
<trkpt lat="49.652073" lon="10.027859">
<ele>224.359</ele>
<time>2019-05-30T13:17:55Z</time>
</trkpt>
<trkpt lat="49.652039" lon="10.027813">
<ele>224.359</ele>
<time>2019-05-30T13:17:56Z</time>
</trkpt>
<trkpt lat="49.652004" lon="10.027769">
<ele>224.359</ele>
<time>2019-05-30T13:17:57Z</time>
</trkpt>
<trkpt lat="49.651966" lon="10.027737">
<ele>224.359</ele>
<time>2019-05-30T13:17:58Z</time>
</trkpt>
<trkpt lat="49.651936" lon="10.027699">
<ele>224.359</ele>
<time>2019-05-30T13:17:59Z</time>
</trkpt>
<trkpt lat="49.651913" lon="10.027658">
<ele>224.359</ele>
<time>2019-05-30T13:18:00Z</time>
</trkpt>
<trkpt lat="49.65189" lon="10.027614">
<ele>224.359</ele>
<time>2019-05-30T13:18:01Z</time>
</trkpt>
<trkpt lat="49.651867" lon="10.027565">
<ele>224.359</ele>
<time>2019-05-30T13:18:02Z</time>
</trkpt>
<trkpt lat="49.651848" lon="10.027516">
<ele>224.592</ele>
<time>2019-05-30T13:18:03Z</time>
</trkpt>
<trkpt lat="49.65181" lon="10.027489">
<ele>224.779</ele>
<time>2019-05-30T13:18:04Z</time>
</trkpt>
<trkpt lat="49.651772" lon="10.027455">
<ele>224.929</ele>
<time>2019-05-30T13:18:05Z</time>
</trkpt>
<trkpt lat="49.651756" lon="10.02742">
<ele>225.045</ele>
<time>2019-05-30T13:18:06Z</time>
</trkpt>
<trkpt lat="49.651741" lon="10.027384">
<ele>225.132</ele>
<time>2019-05-30T13:18:07Z</time>
</trkpt>
<trkpt lat="49.651726" lon="10.027353">
<ele>225.21</ele>
<time>2019-05-30T13:18:08Z</time>
</trkpt>
<trkpt lat="49.651691" lon="10.027346">
<ele>225.259</ele>
<time>2019-05-30T13:18:09Z</time>
</trkpt>
<trkpt lat="49.651669" lon="10.027335">
<ele>225.284</ele>
<time>2019-05-30T13:18:10Z</time>
</trkpt>
<trkpt lat="49.651646" lon="10.027333">
<ele>225.284</ele>
<time>2019-05-30T13:18:11Z</time>
</trkpt>
<trkpt lat="49.651627" lon="10.027325">
<ele>225.284</ele>
<time>2019-05-30T13:18:12Z</time>
</trkpt>
<trkpt lat="49.651604" lon="10.027315">
<ele>225.284</ele>
<time>2019-05-30T13:18:13Z</time>
</trkpt>
<trkpt lat="49.651577" lon="10.027304">
<ele>225.284</ele>
<time>2019-05-30T13:18:14Z</time>
</trkpt>
<trkpt lat="49.651562" lon="10.027288">
<ele>225.284</ele>
<time>2019-05-30T13:18:15Z</time>
</trkpt>
<trkpt lat="49.651535" lon="10.02726">
<ele>225.485</ele>
<time>2019-05-30T13:18:16Z</time>
</trkpt>
<trkpt lat="49.651516" lon="10.027224">
<ele>225.624</ele>
<time>2019-05-30T13:18:17Z</time>
</trkpt>
<trkpt lat="49.651505" lon="10.027183">
<ele>225.797</ele>
<time>2019-05-30T13:18:18Z</time>
</trkpt>
<trkpt lat="49.651489" lon="10.027144">
<ele>225.919</ele>
<time>2019-05-30T13:18:19Z</time>
</trkpt>
<trkpt lat="49.651466" lon="10.027113">
<ele>226.007</ele>
<time>2019-05-30T13:18:20Z</time>
</trkpt>
<trkpt lat="49.651447" lon="10.027072">
<ele>226.069</ele>
<time>2019-05-30T13:18:21Z</time>
</trkpt>
<trkpt lat="49.651432" lon="10.027023">
<ele>226.108</ele>
<time>2019-05-30T13:18:22Z</time>
</trkpt>
<trkpt lat="49.651413" lon="10.027">
<ele>226.125</ele>
<time>2019-05-30T13:18:23Z</time>
</trkpt>
<trkpt lat="49.651409" lon="10.026965">
<ele>226.125</ele>
<time>2019-05-30T13:18:24Z</time>
</trkpt>
<trkpt lat="49.651394" lon="10.026932">
<ele>226.125</ele>
<time>2019-05-30T13:18:25Z</time>
</trkpt>
<trkpt lat="49.651382" lon="10.026881">
<ele>226.125</ele>
<time>2019-05-30T13:18:26Z</time>
</trkpt>
<trkpt lat="49.651375" lon="10.026825">
<ele>226.125</ele>
<time>2019-05-30T13:18:27Z</time>
</trkpt>
<trkpt lat="49.65136" lon="10.026768">
<ele>226.125</ele>
<time>2019-05-30T13:18:28Z</time>
</trkpt>
<trkpt lat="49.651348" lon="10.026703">
<ele>226.125</ele>
<time>2019-05-30T13:18:29Z</time>
</trkpt>
<trkpt lat="49.651325" lon="10.026652">
<ele>226.125</ele>
<time>2019-05-30T13:18:30Z</time>
</trkpt>
<trkpt lat="49.651306" lon="10.026605">
<ele>226.125</ele>
<time>2019-05-30T13:18:31Z</time>
</trkpt>
<trkpt lat="49.651279" lon="10.026553">
<ele>226.125</ele>
<time>2019-05-30T13:18:32Z</time>
</trkpt>
<trkpt lat="49.651249" lon="10.026493">
<ele>226.125</ele>
<time>2019-05-30T13:18:33Z</time>
</trkpt>
<trkpt lat="49.65123" lon="10.02641">
<ele>226.125</ele>
<time>2019-05-30T13:18:34Z</time>
</trkpt>
<trkpt lat="49.651203" lon="10.026351">
<ele>226.125</ele>
<time>2019-05-30T13:18:35Z</time>
</trkpt>
<trkpt lat="49.651173" lon="10.026288">
<ele>226.125</ele>
<time>2019-05-30T13:18:36Z</time>
</trkpt>
<trkpt lat="49.65115" lon="10.026218">
<ele>226.125</ele>
<time>2019-05-30T13:18:37Z</time>
</trkpt>
<trkpt lat="49.651115" lon="10.026155">
<ele>226.365</ele>
<time>2019-05-30T13:18:38Z</time>
</trkpt>
<trkpt lat="49.651089" lon="10.026097">
<ele>226.555</ele>
<time>2019-05-30T13:18:39Z</time>
</trkpt>
<trkpt lat="49.651077" lon="10.02604">
<ele>226.697</ele>
<time>2019-05-30T13:18:40Z</time>
</trkpt>
<trkpt lat="49.651054" lon="10.025973">
<ele>226.815</ele>
<time>2019-05-30T13:18:41Z</time>
</trkpt>
<trkpt lat="49.651024" lon="10.0259">
<ele>226.909</ele>
<time>2019-05-30T13:18:42Z</time>
</trkpt>
<trkpt lat="49.651001" lon="10.025831">
<ele>226.985</ele>
<time>2019-05-30T13:18:43Z</time>
</trkpt>
<trkpt lat="49.650978" lon="10.025768">
<ele>227.028</ele>
<time>2019-05-30T13:18:44Z</time>
</trkpt>
<trkpt lat="49.650955" lon="10.025691">
<ele>227.051</ele>
<time>2019-05-30T13:18:45Z</time>
</trkpt>
<trkpt lat="49.650932" lon="10.025607">
<ele>227.051</ele>
<time>2019-05-30T13:18:46Z</time>
</trkpt>
<trkpt lat="49.650917" lon="10.025525">
<ele>227.051</ele>
<time>2019-05-30T13:18:47Z</time>
</trkpt>
<trkpt lat="49.650902" lon="10.025441">
<ele>227.051</ele>
<time>2019-05-30T13:18:48Z</time>
</trkpt>
<trkpt lat="49.65089" lon="10.025353">
<ele>227.051</ele>
<time>2019-05-30T13:18:49Z</time>
</trkpt>
<trkpt lat="49.650871" lon="10.025275">
<ele>227.051</ele>
<time>2019-05-30T13:18:50Z</time>
</trkpt>
<trkpt lat="49.650856" lon="10.025198">
<ele>227.051</ele>
<time>2019-05-30T13:18:51Z</time>
</trkpt>
<trkpt lat="49.650841" lon="10.025126">
<ele>227.051</ele>
<time>2019-05-30T13:18:52Z</time>
</trkpt>
<trkpt lat="49.650833" lon="10.025052">
<ele>227.051</ele>
<time>2019-05-30T13:18:53Z</time>
</trkpt>
<trkpt lat="49.650826" lon="10.024957">
<ele>227.051</ele>
<time>2019-05-30T13:18:54Z</time>
</trkpt>
<trkpt lat="49.650799" lon="10.024872">
<ele>227.051</ele>
<time>2019-05-30T13:18:55Z</time>
</trkpt>
<trkpt lat="49.650791" lon="10.024788">
<ele>227.051</ele>
<time>2019-05-30T13:18:56Z</time>
</trkpt>
<trkpt lat="49.650784" lon="10.02472">
<ele>227.051</ele>
<time>2019-05-30T13:18:57Z</time>
</trkpt>
<trkpt lat="49.650772" lon="10.02464">
<ele>227.051</ele>
<time>2019-05-30T13:18:58Z</time>
</trkpt>
<trkpt lat="49.650764" lon="10.024567">
<ele>227.051</ele>
<time>2019-05-30T13:18:59Z</time>
</trkpt>
<trkpt lat="49.650761" lon="10.024492">
<ele>227.051</ele>
<time>2019-05-30T13:19:00Z</time>
</trkpt>
<trkpt lat="49.650753" lon="10.024411">
<ele>227.051</ele>
<time>2019-05-30T13:19:01Z</time>
</trkpt>
<trkpt lat="49.650753" lon="10.024335">
<ele>227.051</ele>
<time>2019-05-30T13:19:02Z</time>
</trkpt>
<trkpt lat="49.650745" lon="10.024258">
<ele>227.051</ele>
<time>2019-05-30T13:19:03Z</time>
</trkpt>
<trkpt lat="49.650742" lon="10.024188">
<ele>227.051</ele>
<time>2019-05-30T13:19:04Z</time>
</trkpt>
<trkpt lat="49.650757" lon="10.024107">
<ele>227.051</ele>
<time>2019-05-30T13:19:05Z</time>
</trkpt>
<trkpt lat="49.650772" lon="10.02403">
<ele>227.051</ele>
<time>2019-05-30T13:19:06Z</time>
</trkpt>
<trkpt lat="49.650772" lon="10.023956">
<ele>227.051</ele>
<time>2019-05-30T13:19:07Z</time>
</trkpt>
<trkpt lat="49.650764" lon="10.023897">
<ele>227.051</ele>
<time>2019-05-30T13:19:08Z</time>
</trkpt>
<trkpt lat="49.650772" lon="10.023824">
<ele>227.051</ele>
<time>2019-05-30T13:19:09Z</time>
</trkpt>
<trkpt lat="49.650776" lon="10.023753">
<ele>227.051</ele>
<time>2019-05-30T13:19:10Z</time>
</trkpt>
<trkpt lat="49.650776" lon="10.023686">
<ele>227.051</ele>
<time>2019-05-30T13:19:11Z</time>
</trkpt>
<trkpt lat="49.65078" lon="10.023622">
<ele>227.051</ele>
<time>2019-05-30T13:19:12Z</time>
</trkpt>
<trkpt lat="49.650799" lon="10.02353">
<ele>227.051</ele>
<time>2019-05-30T13:19:13Z</time>
</trkpt>
<trkpt lat="49.65081" lon="10.023441">
<ele>227.051</ele>
<time>2019-05-30T13:19:14Z</time>
</trkpt>
<trkpt lat="49.650818" lon="10.02336">
<ele>227.051</ele>
<time>2019-05-30T13:19:15Z</time>
</trkpt>
<trkpt lat="49.650826" lon="10.023283">
<ele>227.051</ele>
<time>2019-05-30T13:19:16Z</time>
</trkpt>
<trkpt lat="49.650833" lon="10.023193">
<ele>227.051</ele>
<time>2019-05-30T13:19:17Z</time>
</trkpt>
<trkpt lat="49.650822" lon="10.023115">
<ele>227.051</ele>
<time>2019-05-30T13:19:18Z</time>
</trkpt>
<trkpt lat="49.650833" lon="10.023024">
<ele>227.341</ele>
<time>2019-05-30T13:19:19Z</time>
</trkpt>
<trkpt lat="49.650837" lon="10.02293">
<ele>227.552</ele>
<time>2019-05-30T13:19:20Z</time>
</trkpt>
<trkpt lat="49.650826" lon="10.022848">
<ele>227.699</ele>
<time>2019-05-30T13:19:21Z</time>
</trkpt>
<trkpt lat="49.650829" lon="10.022768">
<ele>227.82</ele>
<time>2019-05-30T13:19:22Z</time>
</trkpt>
<trkpt lat="49.650841" lon="10.022692">
<ele>227.903</ele>
<time>2019-05-30T13:19:23Z</time>
</trkpt>
<trkpt lat="49.650837" lon="10.022607">
<ele>227.951</ele>
<time>2019-05-30T13:19:24Z</time>
</trkpt>
<trkpt lat="49.650814" lon="10.022547">
<ele>227.973</ele>
<time>2019-05-30T13:19:25Z</time>
</trkpt>
<trkpt lat="49.650795" lon="10.022487">
<ele>227.976</ele>
<time>2019-05-30T13:19:26Z</time>
</trkpt>
<trkpt lat="49.650764" lon="10.022416">
<ele>227.976</ele>
<time>2019-05-30T13:19:27Z</time>
</trkpt>
<trkpt lat="49.650749" lon="10.022346">
<ele>227.976</ele>
<time>2019-05-30T13:19:28Z</time>
</trkpt>
<trkpt lat="49.650742" lon="10.022278">
<ele>227.976</ele>
<time>2019-05-30T13:19:29Z</time>
</trkpt>
<trkpt lat="49.650738" lon="10.022202">
<ele>227.976</ele>
<time>2019-05-30T13:19:30Z</time>
</trkpt>
<trkpt lat="49.65073" lon="10.022127">
<ele>227.976</ele>
<time>2019-05-30T13:19:31Z</time>
</trkpt>
<trkpt lat="49.650719" lon="10.022057">
<ele>227.976</ele>
<time>2019-05-30T13:19:32Z</time>
</trkpt>
<trkpt lat="49.650707" lon="10.021983">
<ele>228.224</ele>
<time>2019-05-30T13:19:33Z</time>
</trkpt>
<trkpt lat="49.650692" lon="10.021907">
<ele>228.416</ele>
<time>2019-05-30T13:19:34Z</time>
</trkpt>
<trkpt lat="49.650684" lon="10.021828">
<ele>228.561</ele>
<time>2019-05-30T13:19:35Z</time>
</trkpt>
<trkpt lat="49.650673" lon="10.021749">
<ele>228.674</ele>
<time>2019-05-30T13:19:36Z</time>
</trkpt>
<trkpt lat="49.650665" lon="10.021677">
<ele>228.752</ele>
<time>2019-05-30T13:19:37Z</time>
</trkpt>
<trkpt lat="49.650654" lon="10.021604">
<ele>228.827</ele>
<time>2019-05-30T13:19:38Z</time>
</trkpt>
<trkpt lat="49.650642" lon="10.021534">
<ele>228.877</ele>
<time>2019-05-30T13:19:39Z</time>
</trkpt>
<trkpt lat="49.650631" lon="10.021461">
<ele>228.902</ele>
<time>2019-05-30T13:19:40Z</time>
</trkpt>
<trkpt lat="49.65062" lon="10.021388">
<ele>228.902</ele>
<time>2019-05-30T13:19:41Z</time>
</trkpt>
<trkpt lat="49.650608" lon="10.021318">
<ele>228.902</ele>
<time>2019-05-30T13:19:42Z</time>
</trkpt>
<trkpt lat="49.650597" lon="10.021249">
<ele>228.902</ele>
<time>2019-05-30T13:19:43Z</time>
</trkpt>
<trkpt lat="49.650589" lon="10.021173">
<ele>228.902</ele>
<time>2019-05-30T13:19:44Z</time>
</trkpt>
<trkpt lat="49.650581" lon="10.021102">
<ele>228.902</ele>
<time>2019-05-30T13:19:45Z</time>
</trkpt>
<trkpt lat="49.65057" lon="10.021025">
<ele>229.107</ele>
<time>2019-05-30T13:19:46Z</time>
</trkpt>
<trkpt lat="49.650562" lon="10.020951">
<ele>229.254</ele>
<time>2019-05-30T13:19:47Z</time>
</trkpt>
<trkpt lat="49.650547" lon="10.02088">
<ele>229.403</ele>
<time>2019-05-30T13:19:48Z</time>
</trkpt>
<trkpt lat="49.650532" lon="10.020811">
<ele>229.522</ele>
<time>2019-05-30T13:19:49Z</time>
</trkpt>
<trkpt lat="49.650517" lon="10.020744">
<ele>229.616</ele>
<time>2019-05-30T13:19:50Z</time>
</trkpt>
<trkpt lat="49.65049" lon="10.020683">
<ele>229.681</ele>
<time>2019-05-30T13:19:51Z</time>
</trkpt>
<trkpt lat="49.650467" lon="10.02062">
<ele>229.723</ele>
<time>2019-05-30T13:19:52Z</time>
</trkpt>
<trkpt lat="49.650448" lon="10.020558">
<ele>229.744</ele>
<time>2019-05-30T13:19:53Z</time>
</trkpt>
<trkpt lat="49.650433" lon="10.020492">
<ele>229.977</ele>
<time>2019-05-30T13:19:54Z</time>
</trkpt>
<trkpt lat="49.65041" lon="10.020426">
<ele>230.163</ele>
<time>2019-05-30T13:19:55Z</time>
</trkpt>
<trkpt lat="49.650394" lon="10.020357">
<ele>230.311</ele>
<time>2019-05-30T13:19:56Z</time>
</trkpt>
<trkpt lat="49.650379" lon="10.020293">
<ele>230.411</ele>
<time>2019-05-30T13:19:57Z</time>
</trkpt>
<trkpt lat="49.650372" lon="10.020225">
<ele>230.518</ele>
<time>2019-05-30T13:19:58Z</time>
</trkpt>
<trkpt lat="49.650356" lon="10.020165">
<ele>230.595</ele>
<time>2019-05-30T13:19:59Z</time>
</trkpt>
<trkpt lat="49.650337" lon="10.020105">
<ele>230.645</ele>
<time>2019-05-30T13:20:00Z</time>
</trkpt>
<trkpt lat="49.650318" lon="10.020048">
<ele>230.669</ele>
<time>2019-05-30T13:20:01Z</time>
</trkpt>
<trkpt lat="49.650291" lon="10.019995">
<ele>230.669</ele>
<time>2019-05-30T13:20:02Z</time>
</trkpt>
<trkpt lat="49.650261" lon="10.019937">
<ele>230.669</ele>
<time>2019-05-30T13:20:03Z</time>
</trkpt>
<trkpt lat="49.650238" lon="10.019888">
<ele>230.669</ele>
<time>2019-05-30T13:20:04Z</time>
</trkpt>
<trkpt lat="49.650215" lon="10.019838">
<ele>230.669</ele>
<time>2019-05-30T13:20:05Z</time>
</trkpt>
<trkpt lat="49.650192" lon="10.019792">
<ele>230.669</ele>
<time>2019-05-30T13:20:06Z</time>
</trkpt>
<trkpt lat="49.650162" lon="10.019738">
<ele>230.669</ele>
<time>2019-05-30T13:20:07Z</time>
</trkpt>
<trkpt lat="49.650131" lon="10.019685">
<ele>230.669</ele>
<time>2019-05-30T13:20:08Z</time>
</trkpt>
<trkpt lat="49.650101" lon="10.01964">
<ele>230.947</ele>
<time>2019-05-30T13:20:09Z</time>
</trkpt>
<trkpt lat="49.650066" lon="10.01959">
<ele>231.16</ele>
<time>2019-05-30T13:20:10Z</time>
</trkpt>
<trkpt lat="49.650036" lon="10.019547">
<ele>231.321</ele>
<time>2019-05-30T13:20:11Z</time>
</trkpt>
<trkpt lat="49.650013" lon="10.019498">
<ele>231.451</ele>
<time>2019-05-30T13:20:12Z</time>
</trkpt>
<trkpt lat="49.649979" lon="10.019445">
<ele>231.529</ele>
<time>2019-05-30T13:20:13Z</time>
</trkpt>
<trkpt lat="49.64994" lon="10.019397">
<ele>231.57</ele>
<time>2019-05-30T13:20:14Z</time>
</trkpt>
<trkpt lat="49.649902" lon="10.019337">
<ele>231.591</ele>
<time>2019-05-30T13:20:15Z</time>
</trkpt>
<trkpt lat="49.649864" lon="10.019277">
<ele>231.595</ele>
<time>2019-05-30T13:20:16Z</time>
</trkpt>
<trkpt lat="49.649826" lon="10.019221">
<ele>231.595</ele>
<time>2019-05-30T13:20:17Z</time>
</trkpt>
<trkpt lat="49.649792" lon="10.019167">
<ele>231.595</ele>
<time>2019-05-30T13:20:18Z</time>
</trkpt>
<trkpt lat="49.649754" lon="10.019102">
<ele>231.595</ele>
<time>2019-05-30T13:20:19Z</time>
</trkpt>
<trkpt lat="49.649723" lon="10.019043">
<ele>231.595</ele>
<time>2019-05-30T13:20:20Z</time>
</trkpt>
<trkpt lat="49.649696" lon="10.018991">
<ele>231.595</ele>
<time>2019-05-30T13:20:21Z</time>
</trkpt>
<trkpt lat="49.649662" lon="10.018934">
<ele>231.595</ele>
<time>2019-05-30T13:20:22Z</time>
</trkpt>
<trkpt lat="49.649624" lon="10.018871">
<ele>231.595</ele>
<time>2019-05-30T13:20:23Z</time>
</trkpt>
<trkpt lat="49.649593" lon="10.018815">
<ele>231.595</ele>
<time>2019-05-30T13:20:24Z</time>
</trkpt>
<trkpt lat="49.649559" lon="10.018766">
<ele>231.801</ele>
<time>2019-05-30T13:20:25Z</time>
</trkpt>
<trkpt lat="49.649532" lon="10.018714">
<ele>231.966</ele>
<time>2019-05-30T13:20:26Z</time>
</trkpt>
<trkpt lat="49.649494" lon="10.018658">
<ele>232.081</ele>
<time>2019-05-30T13:20:27Z</time>
</trkpt>
<trkpt lat="49.649456" lon="10.018605">
<ele>232.21</ele>
<time>2019-05-30T13:20:28Z</time>
</trkpt>
<trkpt lat="49.649422" lon="10.01855">
<ele>232.306</ele>
<time>2019-05-30T13:20:29Z</time>
</trkpt>
<trkpt lat="49.649391" lon="10.018494">
<ele>232.37</ele>
<time>2019-05-30T13:20:30Z</time>
</trkpt>
<trkpt lat="49.649353" lon="10.018448">
<ele>232.414</ele>
<time>2019-05-30T13:20:31Z</time>
</trkpt>
<trkpt lat="49.649315" lon="10.018407">
<ele>232.437</ele>
<time>2019-05-30T13:20:32Z</time>
</trkpt>
<trkpt lat="49.649281" lon="10.018358">
<ele>232.437</ele>
<time>2019-05-30T13:20:33Z</time>
</trkpt>
<trkpt lat="49.649254" lon="10.018318">
<ele>232.437</ele>
<time>2019-05-30T13:20:34Z</time>
</trkpt>
<trkpt lat="49.649227" lon="10.018269">
<ele>232.437</ele>
<time>2019-05-30T13:20:35Z</time>
</trkpt>
<trkpt lat="49.649193" lon="10.018203">
<ele>232.437</ele>
<time>2019-05-30T13:20:36Z</time>
</trkpt>
<trkpt lat="49.649162" lon="10.01816">
<ele>232.437</ele>
<time>2019-05-30T13:20:37Z</time>
</trkpt>
<trkpt lat="49.649124" lon="10.018106">
<ele>232.437</ele>
<time>2019-05-30T13:20:38Z</time>
</trkpt>
<trkpt lat="49.64909" lon="10.01805">
<ele>232.437</ele>
<time>2019-05-30T13:20:39Z</time>
</trkpt>
<trkpt lat="49.649052" lon="10.017979">
<ele>232.437</ele>
<time>2019-05-30T13:20:40Z</time>
</trkpt>
<trkpt lat="49.649014" lon="10.017916">
<ele>232.437</ele>
<time>2019-05-30T13:20:41Z</time>
</trkpt>
<trkpt lat="49.648975" lon="10.017851">
<ele>232.437</ele>
<time>2019-05-30T13:20:42Z</time>
</trkpt>
<trkpt lat="49.648937" lon="10.01779">
<ele>232.437</ele>
<time>2019-05-30T13:20:43Z</time>
</trkpt>
<trkpt lat="49.648903" lon="10.01773">
<ele>232.437</ele>
<time>2019-05-30T13:20:44Z</time>
</trkpt>
<trkpt lat="49.648865" lon="10.017675">
<ele>232.437</ele>
<time>2019-05-30T13:20:45Z</time>
</trkpt>
<trkpt lat="49.648827" lon="10.017625">
<ele>232.437</ele>
<time>2019-05-30T13:20:46Z</time>
</trkpt>
<trkpt lat="49.648788" lon="10.017573">
<ele>232.437</ele>
<time>2019-05-30T13:20:47Z</time>
</trkpt>
<trkpt lat="49.64875" lon="10.017518">
<ele>232.437</ele>
<time>2019-05-30T13:20:48Z</time>
</trkpt>
<trkpt lat="49.64872" lon="10.017462">
<ele>232.437</ele>
<time>2019-05-30T13:20:49Z</time>
</trkpt>
<trkpt lat="49.648697" lon="10.017415">
<ele>232.437</ele>
<time>2019-05-30T13:20:50Z</time>
</trkpt>
<trkpt lat="49.648663" lon="10.017365">
<ele>232.437</ele>
<time>2019-05-30T13:20:51Z</time>
</trkpt>
<trkpt lat="49.648628" lon="10.017319">
<ele>232.437</ele>
<time>2019-05-30T13:20:52Z</time>
</trkpt>
<trkpt lat="49.64859" lon="10.01726">
<ele>232.437</ele>
<time>2019-05-30T13:20:53Z</time>
</trkpt>
<trkpt lat="49.64856" lon="10.01721">
<ele>232.437</ele>
<time>2019-05-30T13:20:54Z</time>
</trkpt>
<trkpt lat="49.648525" lon="10.017158">
<ele>232.437</ele>
<time>2019-05-30T13:20:55Z</time>
</trkpt>
<trkpt lat="49.648487" lon="10.017103">
<ele>232.437</ele>
<time>2019-05-30T13:20:56Z</time>
</trkpt>
<trkpt lat="49.648449" lon="10.017044">
<ele>232.437</ele>
<time>2019-05-30T13:20:57Z</time>
</trkpt>
<trkpt lat="49.648407" lon="10.016988">
<ele>232.437</ele>
<time>2019-05-30T13:20:58Z</time>
</trkpt>
<trkpt lat="49.648373" lon="10.016929">
<ele>232.437</ele>
<time>2019-05-30T13:20:59Z</time>
</trkpt>
<trkpt lat="49.648338" lon="10.016875">
<ele>232.437</ele>
<time>2019-05-30T13:21:00Z</time>
</trkpt>
<trkpt lat="49.648304" lon="10.016813">
<ele>232.437</ele>
<time>2019-05-30T13:21:01Z</time>
</trkpt>
<trkpt lat="49.648262" lon="10.016766">
<ele>232.437</ele>
<time>2019-05-30T13:21:02Z</time>
</trkpt>
<trkpt lat="49.64822" lon="10.016706">
<ele>232.437</ele>
<time>2019-05-30T13:21:03Z</time>
</trkpt>
<trkpt lat="49.648174" lon="10.016648">
<ele>232.437</ele>
<time>2019-05-30T13:21:04Z</time>
</trkpt>
<trkpt lat="49.648136" lon="10.016583">
<ele>232.67</ele>
<time>2019-05-30T13:21:05Z</time>
</trkpt>
<trkpt lat="49.648094" lon="10.016527">
<ele>232.855</ele>
<time>2019-05-30T13:21:06Z</time>
</trkpt>
<trkpt lat="49.648056" lon="10.016465">
<ele>232.987</ele>
<time>2019-05-30T13:21:07Z</time>
</trkpt>
<trkpt lat="49.648022" lon="10.016408">
<ele>233.12</ele>
<time>2019-05-30T13:21:08Z</time>
</trkpt>
<trkpt lat="49.647991" lon="10.016349">
<ele>233.22</ele>
<time>2019-05-30T13:21:09Z</time>
</trkpt>
<trkpt lat="49.647957" lon="10.016282">
<ele>233.293</ele>
<time>2019-05-30T13:21:10Z</time>
</trkpt>
<trkpt lat="49.647923" lon="10.01622">
<ele>233.338</ele>
<time>2019-05-30T13:21:11Z</time>
</trkpt>
<trkpt lat="49.647888" lon="10.016156">
<ele>233.363</ele>
<time>2019-05-30T13:21:12Z</time>
</trkpt>
<trkpt lat="49.64785" lon="10.016102">
<ele>233.363</ele>
<time>2019-05-30T13:21:13Z</time>
</trkpt>
<trkpt lat="49.647812" lon="10.016047">
<ele>233.363</ele>
<time>2019-05-30T13:21:14Z</time>
</trkpt>
<trkpt lat="49.647781" lon="10.015985">
<ele>233.363</ele>
<time>2019-05-30T13:21:15Z</time>
</trkpt>
<trkpt lat="49.647751" lon="10.015919">
<ele>233.363</ele>
<time>2019-05-30T13:21:16Z</time>
</trkpt>
<trkpt lat="49.64772" lon="10.015859">
<ele>233.363</ele>
<time>2019-05-30T13:21:17Z</time>
</trkpt>
<trkpt lat="49.64769" lon="10.015794">
<ele>233.363</ele>
<time>2019-05-30T13:21:18Z</time>
</trkpt>
<trkpt lat="49.647659" lon="10.015738">
<ele>233.363</ele>
<time>2019-05-30T13:21:19Z</time>
</trkpt>
<trkpt lat="49.647629" lon="10.015685">
<ele>233.363</ele>
<time>2019-05-30T13:21:20Z</time>
</trkpt>
<trkpt lat="49.647598" lon="10.015617">
<ele>233.363</ele>
<time>2019-05-30T13:21:21Z</time>
</trkpt>
<trkpt lat="49.647579" lon="10.015545">
<ele>233.363</ele>
<time>2019-05-30T13:21:22Z</time>
</trkpt>
<trkpt lat="49.64756" lon="10.015473">
<ele>233.363</ele>
<time>2019-05-30T13:21:23Z</time>
</trkpt>
<trkpt lat="49.647545" lon="10.015404">
<ele>233.363</ele>
<time>2019-05-30T13:21:24Z</time>
</trkpt>
<trkpt lat="49.64753" lon="10.015335">
<ele>233.363</ele>
<time>2019-05-30T13:21:25Z</time>
</trkpt>
<trkpt lat="49.647507" lon="10.015268">
<ele>233.363</ele>
<time>2019-05-30T13:21:26Z</time>
</trkpt>
<trkpt lat="49.647499" lon="10.015205">
<ele>233.363</ele>
<time>2019-05-30T13:21:27Z</time>
</trkpt>
<trkpt lat="49.647469" lon="10.015143">
<ele>233.363</ele>
<time>2019-05-30T13:21:28Z</time>
</trkpt>
<trkpt lat="49.647438" lon="10.015081">
<ele>233.363</ele>
<time>2019-05-30T13:21:29Z</time>
</trkpt>
<trkpt lat="49.647415" lon="10.015003">
<ele>233.363</ele>
<time>2019-05-30T13:21:30Z</time>
</trkpt>
<trkpt lat="49.647404" lon="10.014927">
<ele>233.363</ele>
<time>2019-05-30T13:21:31Z</time>
</trkpt>
<trkpt lat="49.647392" lon="10.014849">
<ele>233.363</ele>
<time>2019-05-30T13:21:32Z</time>
</trkpt>
<trkpt lat="49.647377" lon="10.014769">
<ele>233.363</ele>
<time>2019-05-30T13:21:33Z</time>
</trkpt>
<trkpt lat="49.647358" lon="10.014704">
<ele>233.363</ele>
<time>2019-05-30T13:21:34Z</time>
</trkpt>
<trkpt lat="49.647339" lon="10.014622">
<ele>233.363</ele>
<time>2019-05-30T13:21:35Z</time>
</trkpt>
<trkpt lat="49.647327" lon="10.014537">
<ele>233.363</ele>
<time>2019-05-30T13:21:36Z</time>
</trkpt>
<trkpt lat="49.647331" lon="10.014455">
<ele>233.363</ele>
<time>2019-05-30T13:21:37Z</time>
</trkpt>
<trkpt lat="49.647335" lon="10.014373">
<ele>233.363</ele>
<time>2019-05-30T13:21:38Z</time>
</trkpt>
<trkpt lat="49.647339" lon="10.014296">
<ele>233.363</ele>
<time>2019-05-30T13:21:39Z</time>
</trkpt>
<trkpt lat="49.647339" lon="10.014216">
<ele>233.363</ele>
<time>2019-05-30T13:21:40Z</time>
</trkpt>
<trkpt lat="49.647327" lon="10.014145">
<ele>233.363</ele>
<time>2019-05-30T13:21:41Z</time>
</trkpt>
<trkpt lat="49.647316" lon="10.014077">
<ele>233.363</ele>
<time>2019-05-30T13:21:42Z</time>
</trkpt>
<trkpt lat="49.647293" lon="10.014013">
<ele>233.363</ele>
<time>2019-05-30T13:21:43Z</time>
</trkpt>
<trkpt lat="49.647285" lon="10.013954">
<ele>233.363</ele>
<time>2019-05-30T13:21:44Z</time>
</trkpt>
<trkpt lat="49.647274" lon="10.013889">
<ele>233.363</ele>
<time>2019-05-30T13:21:45Z</time>
</trkpt>
<trkpt lat="49.64727" lon="10.013795">
<ele>233.363</ele>
<time>2019-05-30T13:21:46Z</time>
</trkpt>
<trkpt lat="49.64724" lon="10.013717">
<ele>233.363</ele>
<time>2019-05-30T13:21:47Z</time>
</trkpt>
<trkpt lat="49.647224" lon="10.013623">
<ele>233.363</ele>
<time>2019-05-30T13:21:48Z</time>
</trkpt>
<trkpt lat="49.647217" lon="10.013541">
<ele>233.363</ele>
<time>2019-05-30T13:21:49Z</time>
</trkpt>
<trkpt lat="49.647213" lon="10.013458">
<ele>233.363</ele>
<time>2019-05-30T13:21:50Z</time>
</trkpt>
<trkpt lat="49.647213" lon="10.013375">
<ele>233.363</ele>
<time>2019-05-30T13:21:51Z</time>
</trkpt>
<trkpt lat="49.647213" lon="10.013294">
<ele>233.363</ele>
<time>2019-05-30T13:21:52Z</time>
</trkpt>
<trkpt lat="49.647213" lon="10.013208">
<ele>233.363</ele>
<time>2019-05-30T13:21:53Z</time>
</trkpt>
<trkpt lat="49.647221" lon="10.013124">
<ele>233.363</ele>
<time>2019-05-30T13:21:54Z</time>
</trkpt>
<trkpt lat="49.647217" lon="10.013039">
<ele>233.363</ele>
<time>2019-05-30T13:21:55Z</time>
</trkpt>
<trkpt lat="49.647217" lon="10.012952">
<ele>233.363</ele>
<time>2019-05-30T13:21:56Z</time>
</trkpt>
<trkpt lat="49.647217" lon="10.012865">
<ele>233.363</ele>
<time>2019-05-30T13:21:57Z</time>
</trkpt>
<trkpt lat="49.647224" lon="10.012783">
<ele>233.363</ele>
<time>2019-05-30T13:21:58Z</time>
</trkpt>
<trkpt lat="49.647228" lon="10.012701">
<ele>233.363</ele>
<time>2019-05-30T13:21:59Z</time>
</trkpt>
<trkpt lat="49.647232" lon="10.012624">
<ele>233.363</ele>
<time>2019-05-30T13:22:00Z</time>
</trkpt>
<trkpt lat="49.647236" lon="10.012544">
<ele>233.363</ele>
<time>2019-05-30T13:22:01Z</time>
</trkpt>
<trkpt lat="49.64724" lon="10.012465">
<ele>233.363</ele>
<time>2019-05-30T13:22:02Z</time>
</trkpt>
<trkpt lat="49.64724" lon="10.012385">
<ele>233.363</ele>
<time>2019-05-30T13:22:03Z</time>
</trkpt>
<trkpt lat="49.64724" lon="10.012305">
<ele>233.363</ele>
<time>2019-05-30T13:22:04Z</time>
</trkpt>
<trkpt lat="49.647243" lon="10.012227">
<ele>233.363</ele>
<time>2019-05-30T13:22:05Z</time>
</trkpt>
<trkpt lat="49.647247" lon="10.01215">
<ele>233.363</ele>
<time>2019-05-30T13:22:06Z</time>
</trkpt>
<trkpt lat="49.647247" lon="10.012081">
<ele>233.363</ele>
<time>2019-05-30T13:22:07Z</time>
</trkpt>
<trkpt lat="49.647259" lon="10.012018">
<ele>233.363</ele>
<time>2019-05-30T13:22:08Z</time>
</trkpt>
<trkpt lat="49.647263" lon="10.011953">
<ele>233.363</ele>
<time>2019-05-30T13:22:09Z</time>
</trkpt>
<trkpt lat="49.647251" lon="10.011892">
<ele>233.363</ele>
<time>2019-05-30T13:22:10Z</time>
</trkpt>
<trkpt lat="49.647228" lon="10.01184">
<ele>233.363</ele>
<time>2019-05-30T13:22:11Z</time>
</trkpt>
<trkpt lat="49.647205" lon="10.011779">
<ele>233.606</ele>
<time>2019-05-30T13:22:12Z</time>
</trkpt>
<trkpt lat="49.647182" lon="10.011708">
<ele>233.802</ele>
<time>2019-05-30T13:22:13Z</time>
</trkpt>
<trkpt lat="49.647167" lon="10.011645">
<ele>233.958</ele>
<time>2019-05-30T13:22:14Z</time>
</trkpt>
<trkpt lat="49.647144" lon="10.011577">
<ele>234.079</ele>
<time>2019-05-30T13:22:15Z</time>
</trkpt>
<trkpt lat="49.647125" lon="10.011498">
<ele>234.159</ele>
<time>2019-05-30T13:22:16Z</time>
</trkpt>
<trkpt lat="49.64711" lon="10.011427">
<ele>234.216</ele>
<time>2019-05-30T13:22:17Z</time>
</trkpt>
<trkpt lat="49.647091" lon="10.011358">
<ele>234.266</ele>
<time>2019-05-30T13:22:18Z</time>
</trkpt>
<trkpt lat="49.647076" lon="10.011283">
<ele>234.289</ele>
<time>2019-05-30T13:22:19Z</time>
</trkpt>
<trkpt lat="49.64706" lon="10.011203">
<ele>234.562</ele>
<time>2019-05-30T13:22:20Z</time>
</trkpt>
<trkpt lat="49.647045" lon="10.011128">
<ele>234.771</ele>
<time>2019-05-30T13:22:21Z</time>
</trkpt>
<trkpt lat="49.64703" lon="10.011059">
<ele>234.931</ele>
<time>2019-05-30T13:22:22Z</time>
</trkpt>
<trkpt lat="49.647018" lon="10.010988">
<ele>235.041</ele>
<time>2019-05-30T13:22:23Z</time>
</trkpt>
<trkpt lat="49.647011" lon="10.010922">
<ele>235.118</ele>
<time>2019-05-30T13:22:24Z</time>
</trkpt>
<trkpt lat="49.646996" lon="10.010855">
<ele>235.17</ele>
<time>2019-05-30T13:22:25Z</time>
</trkpt>
<trkpt lat="49.646984" lon="10.010793">
<ele>235.194</ele>
<time>2019-05-30T13:22:26Z</time>
</trkpt>
<trkpt lat="49.64698" lon="10.010734">
<ele>235.215</ele>
<time>2019-05-30T13:22:27Z</time>
</trkpt>
<trkpt lat="49.646965" lon="10.010675">
<ele>235.215</ele>
<time>2019-05-30T13:22:28Z</time>
</trkpt>
<trkpt lat="49.646946" lon="10.010613">
<ele>235.215</ele>
<time>2019-05-30T13:22:29Z</time>
</trkpt>
<trkpt lat="49.646927" lon="10.010558">
<ele>235.215</ele>
<time>2019-05-30T13:22:30Z</time>
</trkpt>
<trkpt lat="49.646915" lon="10.010507">
<ele>235.215</ele>
<time>2019-05-30T13:22:31Z</time>
</trkpt>
<trkpt lat="49.646893" lon="10.010464">
<ele>235.215</ele>
<time>2019-05-30T13:22:32Z</time>
</trkpt>
<trkpt lat="49.64687" lon="10.010382">
<ele>235.215</ele>
<time>2019-05-30T13:22:33Z</time>
</trkpt>
<trkpt lat="49.646839" lon="10.010306">
<ele>235.215</ele>
<time>2019-05-30T13:22:34Z</time>
</trkpt>
<trkpt lat="49.646816" lon="10.010223">
<ele>235.215</ele>
<time>2019-05-30T13:22:35Z</time>
</trkpt>
<trkpt lat="49.646797" lon="10.010152">
<ele>235.215</ele>
<time>2019-05-30T13:22:36Z</time>
</trkpt>
<trkpt lat="49.646755" lon="10.010097">
<ele>235.215</ele>
<time>2019-05-30T13:22:37Z</time>
</trkpt>
<trkpt lat="49.646709" lon="10.010051">
<ele>235.215</ele>
<time>2019-05-30T13:22:38Z</time>
</trkpt>
<trkpt lat="49.646671" lon="10.009996">
<ele>235.215</ele>
<time>2019-05-30T13:22:39Z</time>
</trkpt>
<trkpt lat="49.646645" lon="10.009923">
<ele>235.215</ele>
<time>2019-05-30T13:22:40Z</time>
</trkpt>
<trkpt lat="49.646622" lon="10.00985">
<ele>235.471</ele>
<time>2019-05-30T13:22:41Z</time>
</trkpt>
<trkpt lat="49.646614" lon="10.009782">
<ele>235.671</ele>
<time>2019-05-30T13:22:42Z</time>
</trkpt>
<trkpt lat="49.646595" lon="10.009713">
<ele>235.823</ele>
<time>2019-05-30T13:22:43Z</time>
</trkpt>
<trkpt lat="49.646576" lon="10.009648">
<ele>235.94</ele>
<time>2019-05-30T13:22:44Z</time>
</trkpt>
<trkpt lat="49.646564" lon="10.009575">
<ele>236.018</ele>
<time>2019-05-30T13:22:45Z</time>
</trkpt>
<trkpt lat="49.646561" lon="10.009483">
<ele>236.073</ele>
<time>2019-05-30T13:22:46Z</time>
</trkpt>
<trkpt lat="49.646557" lon="10.009405">
<ele>236.115</ele>
<time>2019-05-30T13:22:47Z</time>
</trkpt>
<trkpt lat="49.646557" lon="10.00932">
<ele>236.142</ele>
<time>2019-05-30T13:22:48Z</time>
</trkpt>
<trkpt lat="49.646557" lon="10.009245">
<ele>236.142</ele>
<time>2019-05-30T13:22:49Z</time>
</trkpt>
<trkpt lat="49.646561" lon="10.009171">
<ele>236.142</ele>
<time>2019-05-30T13:22:50Z</time>
</trkpt>
<trkpt lat="49.646557" lon="10.009104">
<ele>236.142</ele>
<time>2019-05-30T13:22:51Z</time>
</trkpt>
<trkpt lat="49.646561" lon="10.009007">
<ele>236.142</ele>
<time>2019-05-30T13:22:52Z</time>
</trkpt>
<trkpt lat="49.646561" lon="10.008925">
<ele>236.142</ele>
<time>2019-05-30T13:22:53Z</time>
</trkpt>
<trkpt lat="49.646553" lon="10.008852">
<ele>236.142</ele>
<time>2019-05-30T13:22:54Z</time>
</trkpt>
<trkpt lat="49.646542" lon="10.008783">
<ele>236.371</ele>
<time>2019-05-30T13:22:55Z</time>
</trkpt>
<trkpt lat="49.646523" lon="10.008715">
<ele>236.553</ele>
<time>2019-05-30T13:22:56Z</time>
</trkpt>
<trkpt lat="49.646519" lon="10.00865">
<ele>236.684</ele>
<time>2019-05-30T13:22:57Z</time>
</trkpt>
<trkpt lat="49.646523" lon="10.008561">
<ele>236.818</ele>
<time>2019-05-30T13:22:58Z</time>
</trkpt>
<trkpt lat="49.646526" lon="10.00847">
<ele>236.919</ele>
<time>2019-05-30T13:22:59Z</time>
</trkpt>
<trkpt lat="49.646519" lon="10.008407">
<ele>236.987</ele>
<time>2019-05-30T13:23:00Z</time>
</trkpt>
<trkpt lat="49.646503" lon="10.008337">
<ele>237.043</ele>
<time>2019-05-30T13:23:01Z</time>
</trkpt>
<trkpt lat="49.6465" lon="10.008258">
<ele>237.068</ele>
<time>2019-05-30T13:23:02Z</time>
</trkpt>
<trkpt lat="49.646507" lon="10.00818">
<ele>237.068</ele>
<time>2019-05-30T13:23:03Z</time>
</trkpt>
<trkpt lat="49.646511" lon="10.008092">
<ele>237.068</ele>
<time>2019-05-30T13:23:04Z</time>
</trkpt>
<trkpt lat="49.646511" lon="10.008023">
<ele>237.068</ele>
<time>2019-05-30T13:23:05Z</time>
</trkpt>
<trkpt lat="49.646519" lon="10.007948">
<ele>237.068</ele>
<time>2019-05-30T13:23:06Z</time>
</trkpt>
<trkpt lat="49.646526" lon="10.007874">
<ele>237.068</ele>
<time>2019-05-30T13:23:07Z</time>
</trkpt>
<trkpt lat="49.646545" lon="10.007801">
<ele>237.068</ele>
<time>2019-05-30T13:23:08Z</time>
</trkpt>
<trkpt lat="49.646557" lon="10.007727">
<ele>237.068</ele>
<time>2019-05-30T13:23:09Z</time>
</trkpt>
<trkpt lat="49.646572" lon="10.00765">
<ele>237.068</ele>
<time>2019-05-30T13:23:10Z</time>
</trkpt>
<trkpt lat="49.646587" lon="10.00757">
<ele>237.068</ele>
<time>2019-05-30T13:23:11Z</time>
</trkpt>
<trkpt lat="49.646599" lon="10.007491">
<ele>237.068</ele>
<time>2019-05-30T13:23:12Z</time>
</trkpt>
<trkpt lat="49.646614" lon="10.007423">
<ele>237.068</ele>
<time>2019-05-30T13:23:13Z</time>
</trkpt>
<trkpt lat="49.646626" lon="10.007346">
<ele>237.068</ele>
<time>2019-05-30T13:23:14Z</time>
</trkpt>
<trkpt lat="49.646645" lon="10.007273">
<ele>237.068</ele>
<time>2019-05-30T13:23:15Z</time>
</trkpt>
<trkpt lat="49.646652" lon="10.007192">
<ele>237.068</ele>
<time>2019-05-30T13:23:16Z</time>
</trkpt>
<trkpt lat="49.646664" lon="10.00711">
<ele>237.293</ele>
<time>2019-05-30T13:23:17Z</time>
</trkpt>
<trkpt lat="49.646675" lon="10.007028">
<ele>237.506</ele>
<time>2019-05-30T13:23:18Z</time>
</trkpt>
<trkpt lat="49.646687" lon="10.006958">
<ele>237.68</ele>
<time>2019-05-30T13:23:19Z</time>
</trkpt>
<trkpt lat="49.646694" lon="10.006875">
<ele>237.824</ele>
<time>2019-05-30T13:23:20Z</time>
</trkpt>
<trkpt lat="49.646702" lon="10.006802">
<ele>237.933</ele>
<time>2019-05-30T13:23:21Z</time>
</trkpt>
<trkpt lat="49.646717" lon="10.006735">
<ele>238.005</ele>
<time>2019-05-30T13:23:22Z</time>
</trkpt>
<trkpt lat="49.646717" lon="10.006672">
<ele>238.055</ele>
<time>2019-05-30T13:23:23Z</time>
</trkpt>
<trkpt lat="49.646721" lon="10.006602">
<ele>238.078</ele>
<time>2019-05-30T13:23:24Z</time>
</trkpt>
<trkpt lat="49.646729" lon="10.006529">
<ele>238.078</ele>
<time>2019-05-30T13:23:25Z</time>
</trkpt>
<trkpt lat="49.646736" lon="10.006452">
<ele>238.299</ele>
<time>2019-05-30T13:23:26Z</time>
</trkpt>
<trkpt lat="49.646736" lon="10.006371">
<ele>238.461</ele>
<time>2019-05-30T13:23:27Z</time>
</trkpt>
<trkpt lat="49.646736" lon="10.006289">
<ele>238.626</ele>
<time>2019-05-30T13:23:28Z</time>
</trkpt>
<trkpt lat="49.646732" lon="10.006215">
<ele>238.767</ele>
<time>2019-05-30T13:23:29Z</time>
</trkpt>
<trkpt lat="49.646721" lon="10.006133">
<ele>238.872</ele>
<time>2019-05-30T13:23:30Z</time>
</trkpt>
<trkpt lat="49.646721" lon="10.006049">
<ele>238.943</ele>
<time>2019-05-30T13:23:31Z</time>
</trkpt>
<trkpt lat="49.646717" lon="10.005986">
<ele>238.984</ele>
<time>2019-05-30T13:23:32Z</time>
</trkpt>
<trkpt lat="49.646717" lon="10.005921">
<ele>239.005</ele>
<time>2019-05-30T13:23:33Z</time>
</trkpt>
<trkpt lat="49.646717" lon="10.005848">
<ele>239.005</ele>
<time>2019-05-30T13:23:34Z</time>
</trkpt>
<trkpt lat="49.646717" lon="10.005774">
<ele>239.005</ele>
<time>2019-05-30T13:23:35Z</time>
</trkpt>
<trkpt lat="49.646732" lon="10.005695">
<ele>239.005</ele>
<time>2019-05-30T13:23:36Z</time>
</trkpt>
<trkpt lat="49.646748" lon="10.005617">
<ele>239.005</ele>
<time>2019-05-30T13:23:37Z</time>
</trkpt>
<trkpt lat="49.646763" lon="10.005535">
<ele>239.005</ele>
<time>2019-05-30T13:23:38Z</time>
</trkpt>
<trkpt lat="49.64677" lon="10.005463">
<ele>239.263</ele>
<time>2019-05-30T13:23:39Z</time>
</trkpt>
<trkpt lat="49.646774" lon="10.005385">
<ele>239.47</ele>
<time>2019-05-30T13:23:40Z</time>
</trkpt>
<trkpt lat="49.646767" lon="10.005322">
<ele>239.611</ele>
<time>2019-05-30T13:23:41Z</time>
</trkpt>
<trkpt lat="49.646759" lon="10.005259">
<ele>239.71</ele>
<time>2019-05-30T13:23:42Z</time>
</trkpt>
<trkpt lat="49.646729" lon="10.005212">
<ele>239.777</ele>
<time>2019-05-30T13:23:43Z</time>
</trkpt>
<trkpt lat="49.646698" lon="10.005152">
<ele>239.821</ele>
<time>2019-05-30T13:23:44Z</time>
</trkpt>
<trkpt lat="49.646687" lon="10.005081">
<ele>239.844</ele>
<time>2019-05-30T13:23:45Z</time>
</trkpt>
<trkpt lat="49.646671" lon="10.005008">
<ele>239.847</ele>
<time>2019-05-30T13:23:46Z</time>
</trkpt>
<trkpt lat="49.64666" lon="10.004922">
<ele>239.847</ele>
<time>2019-05-30T13:23:47Z</time>
</trkpt>
<trkpt lat="49.646652" lon="10.004847">
<ele>239.847</ele>
<time>2019-05-30T13:23:48Z</time>
</trkpt>
<trkpt lat="49.646652" lon="10.004768">
<ele>239.847</ele>
<time>2019-05-30T13:23:49Z</time>
</trkpt>
<trkpt lat="49.646626" lon="10.004704">
<ele>239.847</ele>
<time>2019-05-30T13:23:50Z</time>
</trkpt>
<trkpt lat="49.646603" lon="10.004639">
<ele>239.847</ele>
<time>2019-05-30T13:23:51Z</time>
</trkpt>
<trkpt lat="49.64658" lon="10.00457">
<ele>239.847</ele>
<time>2019-05-30T13:23:52Z</time>
</trkpt>
<trkpt lat="49.646557" lon="10.004493">
<ele>239.847</ele>
<time>2019-05-30T13:23:53Z</time>
</trkpt>
<trkpt lat="49.646545" lon="10.004412">
<ele>239.847</ele>
<time>2019-05-30T13:23:54Z</time>
</trkpt>
<trkpt lat="49.646523" lon="10.004344">
<ele>239.847</ele>
<time>2019-05-30T13:23:55Z</time>
</trkpt>
<trkpt lat="49.646492" lon="10.004269">
<ele>239.847</ele>
<time>2019-05-30T13:23:56Z</time>
</trkpt>
<trkpt lat="49.646465" lon="10.004195">
<ele>239.847</ele>
<time>2019-05-30T13:23:57Z</time>
</trkpt>
<trkpt lat="49.646435" lon="10.004124">
<ele>239.847</ele>
<time>2019-05-30T13:23:58Z</time>
</trkpt>
<trkpt lat="49.646412" lon="10.004055">
<ele>239.847</ele>
<time>2019-05-30T13:23:59Z</time>
</trkpt>
<trkpt lat="49.646381" lon="10.003988">
<ele>239.847</ele>
<time>2019-05-30T13:24:00Z</time>
</trkpt>
<trkpt lat="49.646355" lon="10.003921">
<ele>239.847</ele>
<time>2019-05-30T13:24:01Z</time>
</trkpt>
<trkpt lat="49.646324" lon="10.003857">
<ele>239.847</ele>
<time>2019-05-30T13:24:02Z</time>
</trkpt>
<trkpt lat="49.646294" lon="10.003793">
<ele>239.847</ele>
<time>2019-05-30T13:24:03Z</time>
</trkpt>
<trkpt lat="49.646263" lon="10.00373">
<ele>239.847</ele>
<time>2019-05-30T13:24:04Z</time>
</trkpt>
<trkpt lat="49.646233" lon="10.003669">
<ele>240.075</ele>
<time>2019-05-30T13:24:05Z</time>
</trkpt>
<trkpt lat="49.646202" lon="10.003609">
<ele>240.257</ele>
<time>2019-05-30T13:24:06Z</time>
</trkpt>
<trkpt lat="49.646175" lon="10.003551">
<ele>240.385</ele>
<time>2019-05-30T13:24:07Z</time>
</trkpt>
<trkpt lat="49.646145" lon="10.003498">
<ele>240.52</ele>
<time>2019-05-30T13:24:08Z</time>
</trkpt>
<trkpt lat="49.646118" lon="10.003447">
<ele>240.623</ele>
<time>2019-05-30T13:24:09Z</time>
</trkpt>
<trkpt lat="49.646088" lon="10.003393">
<ele>240.7</ele>
<time>2019-05-30T13:24:10Z</time>
</trkpt>
<trkpt lat="49.646057" lon="10.003336">
<ele>240.749</ele>
<time>2019-05-30T13:24:11Z</time>
</trkpt>
<trkpt lat="49.64603" lon="10.003271">
<ele>240.774</ele>
<time>2019-05-30T13:24:12Z</time>
</trkpt>
<trkpt lat="49.646" lon="10.003212">
<ele>240.774</ele>
<time>2019-05-30T13:24:13Z</time>
</trkpt>
<trkpt lat="49.645973" lon="10.003148">
<ele>240.774</ele>
<time>2019-05-30T13:24:14Z</time>
</trkpt>
<trkpt lat="49.64595" lon="10.003085">
<ele>240.774</ele>
<time>2019-05-30T13:24:15Z</time>
</trkpt>
<trkpt lat="49.645927" lon="10.003022">
<ele>240.774</ele>
<time>2019-05-30T13:24:16Z</time>
</trkpt>
<trkpt lat="49.645905" lon="10.002953">
<ele>240.982</ele>
<time>2019-05-30T13:24:17Z</time>
</trkpt>
<trkpt lat="49.645878" lon="10.00289">
<ele>241.176</ele>
<time>2019-05-30T13:24:18Z</time>
</trkpt>
<trkpt lat="49.645859" lon="10.002827">
<ele>241.334</ele>
<time>2019-05-30T13:24:19Z</time>
</trkpt>
<trkpt lat="49.645836" lon="10.00276">
<ele>241.461</ele>
<time>2019-05-30T13:24:20Z</time>
</trkpt>
<trkpt lat="49.645813" lon="10.002693">
<ele>241.562</ele>
<time>2019-05-30T13:24:21Z</time>
</trkpt>
<trkpt lat="49.645798" lon="10.00263">
<ele>241.633</ele>
<time>2019-05-30T13:24:22Z</time>
</trkpt>
<trkpt lat="49.645779" lon="10.002565">
<ele>241.679</ele>
<time>2019-05-30T13:24:23Z</time>
</trkpt>
<trkpt lat="49.645763" lon="10.002501">
<ele>241.701</ele>
<time>2019-05-30T13:24:24Z</time>
</trkpt>
<trkpt lat="49.645741" lon="10.002433">
<ele>241.701</ele>
<time>2019-05-30T13:24:25Z</time>
</trkpt>
<trkpt lat="49.645725" lon="10.002365">
<ele>241.701</ele>
<time>2019-05-30T13:24:26Z</time>
</trkpt>
<trkpt lat="49.64571" lon="10.002295">
<ele>241.701</ele>
<time>2019-05-30T13:24:27Z</time>
</trkpt>
<trkpt lat="49.645699" lon="10.002225">
<ele>241.701</ele>
<time>2019-05-30T13:24:28Z</time>
</trkpt>
<trkpt lat="49.645687" lon="10.002154">
<ele>241.701</ele>
<time>2019-05-30T13:24:29Z</time>
</trkpt>
<trkpt lat="49.645676" lon="10.002085">
<ele>241.701</ele>
<time>2019-05-30T13:24:30Z</time>
</trkpt>
<trkpt lat="49.645664" lon="10.002013">
<ele>241.701</ele>
<time>2019-05-30T13:24:31Z</time>
</trkpt>
<trkpt lat="49.645649" lon="10.001944">
<ele>241.701</ele>
<time>2019-05-30T13:24:32Z</time>
</trkpt>
<trkpt lat="49.645641" lon="10.001875">
<ele>241.701</ele>
<time>2019-05-30T13:24:33Z</time>
</trkpt>
<trkpt lat="49.645641" lon="10.001803">
<ele>241.701</ele>
<time>2019-05-30T13:24:34Z</time>
</trkpt>
<trkpt lat="49.645634" lon="10.001729">
<ele>241.701</ele>
<time>2019-05-30T13:24:35Z</time>
</trkpt>
<trkpt lat="49.645626" lon="10.001652">
<ele>241.701</ele>
<time>2019-05-30T13:24:36Z</time>
</trkpt>
<trkpt lat="49.645615" lon="10.001578">
<ele>241.701</ele>
<time>2019-05-30T13:24:37Z</time>
</trkpt>
<trkpt lat="49.645611" lon="10.001507">
<ele>241.701</ele>
<time>2019-05-30T13:24:38Z</time>
</trkpt>
<trkpt lat="49.645599" lon="10.001438">
<ele>241.978</ele>
<time>2019-05-30T13:24:39Z</time>
</trkpt>
<trkpt lat="49.645592" lon="10.00137">
<ele>242.192</ele>
<time>2019-05-30T13:24:40Z</time>
</trkpt>
<trkpt lat="49.64558" lon="10.001302">
<ele>242.352</ele>
<time>2019-05-30T13:24:41Z</time>
</trkpt>
<trkpt lat="49.645576" lon="10.001235">
<ele>242.467</ele>
<time>2019-05-30T13:24:42Z</time>
</trkpt>
<trkpt lat="49.645565" lon="10.001166">
<ele>242.547</ele>
<time>2019-05-30T13:24:43Z</time>
</trkpt>
<trkpt lat="49.645554" lon="10.001101">
<ele>242.598</ele>
<time>2019-05-30T13:24:44Z</time>
</trkpt>
<trkpt lat="49.645546" lon="10.001032">
<ele>242.627</ele>
<time>2019-05-30T13:24:45Z</time>
</trkpt>
<trkpt lat="49.645535" lon="10.000965">
<ele>242.627</ele>
<time>2019-05-30T13:24:46Z</time>
</trkpt>
<trkpt lat="49.645512" lon="10.000906">
<ele>242.627</ele>
<time>2019-05-30T13:24:47Z</time>
</trkpt>
<trkpt lat="49.645489" lon="10.000849">
<ele>242.627</ele>
<time>2019-05-30T13:24:48Z</time>
</trkpt>
<trkpt lat="49.645466" lon="10.000785">
<ele>242.627</ele>
<time>2019-05-30T13:24:49Z</time>
</trkpt>
<trkpt lat="49.645447" lon="10.000715">
<ele>242.627</ele>
<time>2019-05-30T13:24:50Z</time>
</trkpt>
<trkpt lat="49.645432" lon="10.000644">
<ele>242.627</ele>
<time>2019-05-30T13:24:51Z</time>
</trkpt>
<trkpt lat="49.645416" lon="10.000568">
<ele>242.627</ele>
<time>2019-05-30T13:24:52Z</time>
</trkpt>
<trkpt lat="49.64539" lon="10.000493">
<ele>242.627</ele>
<time>2019-05-30T13:24:53Z</time>
</trkpt>
<trkpt lat="49.64537" lon="10.000425">
<ele>242.627</ele>
<time>2019-05-30T13:24:54Z</time>
</trkpt>
<trkpt lat="49.645351" lon="10.000355">
<ele>242.627</ele>
<time>2019-05-30T13:24:55Z</time>
</trkpt>
<trkpt lat="49.645329" lon="10.000283">
<ele>242.627</ele>
<time>2019-05-30T13:24:56Z</time>
</trkpt>
<trkpt lat="49.645313" lon="10.000216">
<ele>242.627</ele>
<time>2019-05-30T13:24:57Z</time>
</trkpt>
<trkpt lat="49.645298" lon="10.00015">
<ele>242.627</ele>
<time>2019-05-30T13:24:58Z</time>
</trkpt>
<trkpt lat="49.645279" lon="10.000091">
<ele>242.627</ele>
<time>2019-05-30T13:24:59Z</time>
</trkpt>
<trkpt lat="49.645252" lon="10.000036">
<ele>242.627</ele>
<time>2019-05-30T13:25:00Z</time>
</trkpt>
<trkpt lat="49.645229" lon="9.999982">
<ele>242.627</ele>
<time>2019-05-30T13:25:01Z</time>
</trkpt>
<trkpt lat="49.64521" lon="9.999927">
<ele>242.627</ele>
<time>2019-05-30T13:25:02Z</time>
</trkpt>
<trkpt lat="49.645187" lon="9.999873">
<ele>242.627</ele>
<time>2019-05-30T13:25:03Z</time>
</trkpt>
<trkpt lat="49.645161" lon="9.999822">
<ele>242.627</ele>
<time>2019-05-30T13:25:04Z</time>
</trkpt>
<trkpt lat="49.645142" lon="9.999772">
<ele>242.627</ele>
<time>2019-05-30T13:25:05Z</time>
</trkpt>
<trkpt lat="49.645123" lon="9.999728">
<ele>242.627</ele>
<time>2019-05-30T13:25:06Z</time>
</trkpt>
<trkpt lat="49.645107" lon="9.999684">
<ele>242.627</ele>
<time>2019-05-30T13:25:07Z</time>
</trkpt>
<trkpt lat="49.645088" lon="9.999639">
<ele>242.627</ele>
<time>2019-05-30T13:25:08Z</time>
</trkpt>
<trkpt lat="49.645061" lon="9.999595">
<ele>242.627</ele>
<time>2019-05-30T13:25:09Z</time>
</trkpt>
<trkpt lat="49.645039" lon="9.999553">
<ele>242.627</ele>
<time>2019-05-30T13:25:10Z</time>
</trkpt>
<trkpt lat="49.645023" lon="9.999513">
<ele>242.627</ele>
<time>2019-05-30T13:25:11Z</time>
</trkpt>
<trkpt lat="49.645012" lon="9.999473">
<ele>242.627</ele>
<time>2019-05-30T13:25:12Z</time>
</trkpt>
<trkpt lat="49.644993" lon="9.999431">
<ele>242.627</ele>
<time>2019-05-30T13:25:13Z</time>
</trkpt>
<trkpt lat="49.64497" lon="9.999389">
<ele>242.627</ele>
<time>2019-05-30T13:25:14Z</time>
</trkpt>
<trkpt lat="49.644951" lon="9.999352">
<ele>242.627</ele>
<time>2019-05-30T13:25:15Z</time>
</trkpt>
<trkpt lat="49.644928" lon="9.999313">
<ele>242.627</ele>
<time>2019-05-30T13:25:16Z</time>
</trkpt>
<trkpt lat="49.644905" lon="9.999271">
<ele>242.627</ele>
<time>2019-05-30T13:25:17Z</time>
</trkpt>
<trkpt lat="49.644882" lon="9.999229">
<ele>242.627</ele>
<time>2019-05-30T13:25:18Z</time>
</trkpt>
<trkpt lat="49.644859" lon="9.999192">
<ele>242.627</ele>
<time>2019-05-30T13:25:19Z</time>
</trkpt>
<trkpt lat="49.64484" lon="9.999142">
<ele>242.627</ele>
<time>2019-05-30T13:25:20Z</time>
</trkpt>
<trkpt lat="49.644814" lon="9.999108">
<ele>242.627</ele>
<time>2019-05-30T13:25:21Z</time>
</trkpt>
<trkpt lat="49.644764" lon="9.999075">
<ele>242.627</ele>
<time>2019-05-30T13:25:22Z</time>
</trkpt>
<trkpt lat="49.644714" lon="9.999039">
<ele>242.627</ele>
<time>2019-05-30T13:25:23Z</time>
</trkpt>
<trkpt lat="49.644665" lon="9.998997">
<ele>242.627</ele>
<time>2019-05-30T13:25:24Z</time>
</trkpt>
<trkpt lat="49.644619" lon="9.998945">
<ele>242.627</ele>
<time>2019-05-30T13:25:25Z</time>
</trkpt>
<trkpt lat="49.644569" lon="9.998909">
<ele>242.627</ele>
<time>2019-05-30T13:25:26Z</time>
</trkpt>
<trkpt lat="49.644527" lon="9.998878">
<ele>242.627</ele>
<time>2019-05-30T13:25:27Z</time>
</trkpt>
<trkpt lat="49.644485" lon="9.998844">
<ele>242.627</ele>
<time>2019-05-30T13:25:28Z</time>
</trkpt>
<trkpt lat="49.64444" lon="9.998812">
<ele>242.884</ele>
<time>2019-05-30T13:25:29Z</time>
</trkpt>
<trkpt lat="49.644398" lon="9.998781">
<ele>243.065</ele>
<time>2019-05-30T13:25:30Z</time>
</trkpt>
<trkpt lat="49.64436" lon="9.99874">
<ele>243.204</ele>
<time>2019-05-30T13:25:31Z</time>
</trkpt>
<trkpt lat="49.644314" lon="9.99871">
<ele>243.314</ele>
<time>2019-05-30T13:25:32Z</time>
</trkpt>
<trkpt lat="49.644276" lon="9.998671">
<ele>243.393</ele>
<time>2019-05-30T13:25:33Z</time>
</trkpt>
<trkpt lat="49.644241" lon="9.998627">
<ele>243.443</ele>
<time>2019-05-30T13:25:34Z</time>
</trkpt>
<trkpt lat="49.644207" lon="9.998582">
<ele>243.467</ele>
<time>2019-05-30T13:25:35Z</time>
</trkpt>
<trkpt lat="49.644176" lon="9.998549">
<ele>243.47</ele>
<time>2019-05-30T13:25:36Z</time>
</trkpt>
<trkpt lat="49.644135" lon="9.998526">
<ele>243.47</ele>
<time>2019-05-30T13:25:37Z</time>
</trkpt>
<trkpt lat="49.644093" lon="9.998513">
<ele>243.47</ele>
<time>2019-05-30T13:25:38Z</time>
</trkpt>
<trkpt lat="49.644047" lon="9.998497">
<ele>243.47</ele>
<time>2019-05-30T13:25:39Z</time>
</trkpt>
<trkpt lat="49.644001" lon="9.998473">
<ele>243.47</ele>
<time>2019-05-30T13:25:40Z</time>
</trkpt>
<trkpt lat="49.643951" lon="9.99845">
<ele>243.47</ele>
<time>2019-05-30T13:25:41Z</time>
</trkpt>
<trkpt lat="49.643913" lon="9.998429">
<ele>243.47</ele>
<time>2019-05-30T13:25:42Z</time>
</trkpt>
<trkpt lat="49.643875" lon="9.998415">
<ele>243.47</ele>
<time>2019-05-30T13:25:43Z</time>
</trkpt>
<trkpt lat="49.643845" lon="9.998398">
<ele>243.47</ele>
<time>2019-05-30T13:25:44Z</time>
</trkpt>
<trkpt lat="49.643803" lon="9.998387">
<ele>243.47</ele>
<time>2019-05-30T13:25:45Z</time>
</trkpt>
<trkpt lat="49.643761" lon="9.998377">
<ele>243.47</ele>
<time>2019-05-30T13:25:46Z</time>
</trkpt>
<trkpt lat="49.643719" lon="9.99837">
<ele>243.47</ele>
<time>2019-05-30T13:25:47Z</time>
</trkpt>
<trkpt lat="49.643681" lon="9.998362">
<ele>243.47</ele>
<time>2019-05-30T13:25:48Z</time>
</trkpt>
<trkpt lat="49.643635" lon="9.998352">
<ele>243.47</ele>
<time>2019-05-30T13:25:49Z</time>
</trkpt>
<trkpt lat="49.643597" lon="9.998337">
<ele>243.47</ele>
<time>2019-05-30T13:25:50Z</time>
</trkpt>
<trkpt lat="49.643555" lon="9.998326">
<ele>243.738</ele>
<time>2019-05-30T13:25:51Z</time>
</trkpt>
<trkpt lat="49.643513" lon="9.998323">
<ele>243.945</ele>
<time>2019-05-30T13:25:52Z</time>
</trkpt>
<trkpt lat="49.643467" lon="9.998315">
<ele>244.09</ele>
<time>2019-05-30T13:25:53Z</time>
</trkpt>
<trkpt lat="49.643425" lon="9.998303">
<ele>244.204</ele>
<time>2019-05-30T13:25:54Z</time>
</trkpt>
<trkpt lat="49.643383" lon="9.998295">
<ele>244.282</ele>
<time>2019-05-30T13:25:55Z</time>
</trkpt>
<trkpt lat="49.643337" lon="9.998277">
<ele>244.33</ele>
<time>2019-05-30T13:25:56Z</time>
</trkpt>
<trkpt lat="49.643295" lon="9.998263">
<ele>244.372</ele>
<time>2019-05-30T13:25:57Z</time>
</trkpt>
<trkpt lat="49.643246" lon="9.99825">
<ele>244.397</ele>
<time>2019-05-30T13:25:58Z</time>
</trkpt>
<trkpt lat="49.643196" lon="9.998237">
<ele>244.397</ele>
<time>2019-05-30T13:25:59Z</time>
</trkpt>
<trkpt lat="49.643147" lon="9.998228">
<ele>244.397</ele>
<time>2019-05-30T13:26:00Z</time>
</trkpt>
<trkpt lat="49.643101" lon="9.998219">
<ele>244.397</ele>
<time>2019-05-30T13:26:01Z</time>
</trkpt>
<trkpt lat="49.643055" lon="9.998207">
<ele>244.397</ele>
<time>2019-05-30T13:26:02Z</time>
</trkpt>
<trkpt lat="49.643013" lon="9.998192">
<ele>244.397</ele>
<time>2019-05-30T13:26:03Z</time>
</trkpt>
<trkpt lat="49.642971" lon="9.998182">
<ele>244.397</ele>
<time>2019-05-30T13:26:04Z</time>
</trkpt>
<trkpt lat="49.642937" lon="9.998159">
<ele>244.397</ele>
<time>2019-05-30T13:26:05Z</time>
</trkpt>
<trkpt lat="49.642891" lon="9.998147">
<ele>244.397</ele>
<time>2019-05-30T13:26:06Z</time>
</trkpt>
<trkpt lat="49.642853" lon="9.998134">
<ele>244.397</ele>
<time>2019-05-30T13:26:07Z</time>
</trkpt>
<trkpt lat="49.642807" lon="9.998125">
<ele>244.397</ele>
<time>2019-05-30T13:26:08Z</time>
</trkpt>
<trkpt lat="49.642769" lon="9.998107">
<ele>244.397</ele>
<time>2019-05-30T13:26:09Z</time>
</trkpt>
<trkpt lat="49.642719" lon="9.998105">
<ele>244.397</ele>
<time>2019-05-30T13:26:10Z</time>
</trkpt>
<trkpt lat="49.642677" lon="9.9981">
<ele>244.397</ele>
<time>2019-05-30T13:26:11Z</time>
</trkpt>
<trkpt lat="49.642643" lon="9.998085">
<ele>244.645</ele>
<time>2019-05-30T13:26:12Z</time>
</trkpt>
<trkpt lat="49.642601" lon="9.99809">
<ele>244.845</ele>
<time>2019-05-30T13:26:13Z</time>
</trkpt>
<trkpt lat="49.642551" lon="9.998092">
<ele>244.995</ele>
<time>2019-05-30T13:26:14Z</time>
</trkpt>
<trkpt lat="49.642509" lon="9.998086">
<ele>245.104</ele>
<time>2019-05-30T13:26:15Z</time>
</trkpt>
<trkpt lat="49.64246" lon="9.998085">
<ele>245.183</ele>
<time>2019-05-30T13:26:16Z</time>
</trkpt>
<trkpt lat="49.642422" lon="9.998075">
<ele>245.246</ele>
<time>2019-05-30T13:26:17Z</time>
</trkpt>
<trkpt lat="49.64238" lon="9.998061">
<ele>245.297</ele>
<time>2019-05-30T13:26:18Z</time>
</trkpt>
<trkpt lat="49.64233" lon="9.998046">
<ele>245.324</ele>
<time>2019-05-30T13:26:19Z</time>
</trkpt>
<trkpt lat="49.642281" lon="9.99803">
<ele>245.324</ele>
<time>2019-05-30T13:26:20Z</time>
</trkpt>
<trkpt lat="49.642231" lon="9.998013">
<ele>245.324</ele>
<time>2019-05-30T13:26:21Z</time>
</trkpt>
<trkpt lat="49.642185" lon="9.997995">
<ele>245.324</ele>
<time>2019-05-30T13:26:22Z</time>
</trkpt>
<trkpt lat="49.642136" lon="9.99798">
<ele>245.324</ele>
<time>2019-05-30T13:26:23Z</time>
</trkpt>
<trkpt lat="49.642086" lon="9.997964">
<ele>245.568</ele>
<time>2019-05-30T13:26:24Z</time>
</trkpt>
<trkpt lat="49.642036" lon="9.99794">
<ele>245.759</ele>
<time>2019-05-30T13:26:25Z</time>
</trkpt>
<trkpt lat="49.641987" lon="9.99792">
<ele>245.9</ele>
<time>2019-05-30T13:26:26Z</time>
</trkpt>
<trkpt lat="49.641933" lon="9.9979">
<ele>245.993</ele>
<time>2019-05-30T13:26:27Z</time>
</trkpt>
<trkpt lat="49.641884" lon="9.99788">
<ele>246.099</ele>
<time>2019-05-30T13:26:28Z</time>
</trkpt>
<trkpt lat="49.64183" lon="9.997862">
<ele>246.18</ele>
<time>2019-05-30T13:26:29Z</time>
</trkpt>
<trkpt lat="49.641785" lon="9.997847">
<ele>246.228</ele>
<time>2019-05-30T13:26:30Z</time>
</trkpt>
<trkpt lat="49.641739" lon="9.997828">
<ele>246.251</ele>
<time>2019-05-30T13:26:31Z</time>
</trkpt>
<trkpt lat="49.641693" lon="9.997811">
<ele>246.251</ele>
<time>2019-05-30T13:26:32Z</time>
</trkpt>
<trkpt lat="49.641651" lon="9.997797">
<ele>246.251</ele>
<time>2019-05-30T13:26:33Z</time>
</trkpt>
<trkpt lat="49.641609" lon="9.99778">
<ele>246.251</ele>
<time>2019-05-30T13:26:34Z</time>
</trkpt>
<trkpt lat="49.641567" lon="9.997762">
<ele>246.251</ele>
<time>2019-05-30T13:26:35Z</time>
</trkpt>
<trkpt lat="49.641525" lon="9.997746">
<ele>246.251</ele>
<time>2019-05-30T13:26:36Z</time>
</trkpt>
<trkpt lat="49.641476" lon="9.997732">
<ele>246.251</ele>
<time>2019-05-30T13:26:37Z</time>
</trkpt>
<trkpt lat="49.64143" lon="9.997717">
<ele>246.251</ele>
<time>2019-05-30T13:26:38Z</time>
</trkpt>
<trkpt lat="49.641384" lon="9.997695">
<ele>246.251</ele>
<time>2019-05-30T13:26:39Z</time>
</trkpt>
<trkpt lat="49.641338" lon="9.997675">
<ele>246.251</ele>
<time>2019-05-30T13:26:40Z</time>
</trkpt>
<trkpt lat="49.641293" lon="9.997657">
<ele>246.251</ele>
<time>2019-05-30T13:26:41Z</time>
</trkpt>
<trkpt lat="49.641243" lon="9.997643">
<ele>246.251</ele>
<time>2019-05-30T13:26:42Z</time>
</trkpt>
<trkpt lat="49.641197" lon="9.997623">
<ele>246.251</ele>
<time>2019-05-30T13:26:43Z</time>
</trkpt>
<trkpt lat="49.641151" lon="9.997605">
<ele>246.251</ele>
<time>2019-05-30T13:26:44Z</time>
</trkpt>
<trkpt lat="49.641113" lon="9.997589">
<ele>246.251</ele>
<time>2019-05-30T13:26:45Z</time>
</trkpt>
<trkpt lat="49.641071" lon="9.997572">
<ele>246.251</ele>
<time>2019-05-30T13:26:46Z</time>
</trkpt>
<trkpt lat="49.641029" lon="9.997556">
<ele>246.251</ele>
<time>2019-05-30T13:26:47Z</time>
</trkpt>
<trkpt lat="49.640984" lon="9.997537">
<ele>246.251</ele>
<time>2019-05-30T13:26:48Z</time>
</trkpt>
<trkpt lat="49.640945" lon="9.99752">
<ele>246.251</ele>
<time>2019-05-30T13:26:49Z</time>
</trkpt>
<trkpt lat="49.6409" lon="9.997508">
<ele>246.251</ele>
<time>2019-05-30T13:26:50Z</time>
</trkpt>
<trkpt lat="49.640858" lon="9.997493">
<ele>246.482</ele>
<time>2019-05-30T13:26:51Z</time>
</trkpt>
<trkpt lat="49.64082" lon="9.997474">
<ele>246.667</ele>
<time>2019-05-30T13:26:52Z</time>
</trkpt>
<trkpt lat="49.640781" lon="9.997452">
<ele>246.809</ele>
<time>2019-05-30T13:26:53Z</time>
</trkpt>
<trkpt lat="49.640739" lon="9.997434">
<ele>246.917</ele>
<time>2019-05-30T13:26:54Z</time>
</trkpt>
<trkpt lat="49.640697" lon="9.997418">
<ele>246.988</ele>
<time>2019-05-30T13:26:55Z</time>
</trkpt>
<trkpt lat="49.640656" lon="9.997398">
<ele>247.033</ele>
<time>2019-05-30T13:26:56Z</time>
</trkpt>
<trkpt lat="49.640614" lon="9.997376">
<ele>247.07</ele>
<time>2019-05-30T13:26:57Z</time>
</trkpt>
<trkpt lat="49.640564" lon="9.997353">
<ele>247.094</ele>
<time>2019-05-30T13:26:58Z</time>
</trkpt>
<trkpt lat="49.640522" lon="9.997328">
<ele>247.094</ele>
<time>2019-05-30T13:26:59Z</time>
</trkpt>
<trkpt lat="49.640476" lon="9.997309">
<ele>247.094</ele>
<time>2019-05-30T13:27:00Z</time>
</trkpt>
<trkpt lat="49.640427" lon="9.997296">
<ele>247.094</ele>
<time>2019-05-30T13:27:01Z</time>
</trkpt>
<trkpt lat="49.640385" lon="9.997279">
<ele>247.094</ele>
<time>2019-05-30T13:27:02Z</time>
</trkpt>
<trkpt lat="49.640335" lon="9.997269">
<ele>247.094</ele>
<time>2019-05-30T13:27:03Z</time>
</trkpt>
<trkpt lat="49.640289" lon="9.997254">
<ele>247.094</ele>
<time>2019-05-30T13:27:04Z</time>
</trkpt>
<trkpt lat="49.640244" lon="9.997233">
<ele>247.094</ele>
<time>2019-05-30T13:27:05Z</time>
</trkpt>
<trkpt lat="49.640198" lon="9.997213">
<ele>247.094</ele>
<time>2019-05-30T13:27:06Z</time>
</trkpt>
<trkpt lat="49.640152" lon="9.997193">
<ele>247.094</ele>
<time>2019-05-30T13:27:07Z</time>
</trkpt>
<trkpt lat="49.640106" lon="9.997176">
<ele>247.094</ele>
<time>2019-05-30T13:27:08Z</time>
</trkpt>
<trkpt lat="49.64006" lon="9.997157">
<ele>247.094</ele>
<time>2019-05-30T13:27:09Z</time>
</trkpt>
<trkpt lat="49.640007" lon="9.997145">
<ele>247.094</ele>
<time>2019-05-30T13:27:10Z</time>
</trkpt>
<trkpt lat="49.639961" lon="9.997135">
<ele>247.094</ele>
<time>2019-05-30T13:27:11Z</time>
</trkpt>
<trkpt lat="49.639915" lon="9.997125">
<ele>247.094</ele>
<time>2019-05-30T13:27:12Z</time>
</trkpt>
<trkpt lat="49.639874" lon="9.997113">
<ele>247.094</ele>
<time>2019-05-30T13:27:13Z</time>
</trkpt>
<trkpt lat="49.639835" lon="9.997104">
<ele>247.094</ele>
<time>2019-05-30T13:27:14Z</time>
</trkpt>
<trkpt lat="49.639793" lon="9.997091">
<ele>247.094</ele>
<time>2019-05-30T13:27:15Z</time>
</trkpt>
<trkpt lat="49.639755" lon="9.99708">
<ele>247.094</ele>
<time>2019-05-30T13:27:16Z</time>
</trkpt>
<trkpt lat="49.639713" lon="9.997073">
<ele>247.095</ele>
<time>2019-05-30T13:27:17Z</time>
</trkpt>
<trkpt lat="49.639675" lon="9.99707">
<ele>247.094</ele>
<time>2019-05-30T13:27:18Z</time>
</trkpt>
<trkpt lat="49.639629" lon="9.997075">
<ele>247.094</ele>
<time>2019-05-30T13:27:19Z</time>
</trkpt>
<trkpt lat="49.639587" lon="9.997076">
<ele>247.094</ele>
<time>2019-05-30T13:27:20Z</time>
</trkpt>
<trkpt lat="49.639542" lon="9.997073">
<ele>247.094</ele>
<time>2019-05-30T13:27:21Z</time>
</trkpt>
<trkpt lat="49.6395" lon="9.99707">
<ele>247.094</ele>
<time>2019-05-30T13:27:22Z</time>
</trkpt>
<trkpt lat="49.639458" lon="9.997068">
<ele>247.094</ele>
<time>2019-05-30T13:27:23Z</time>
</trkpt>
<trkpt lat="49.639412" lon="9.997071">
<ele>247.095</ele>
<time>2019-05-30T13:27:24Z</time>
</trkpt>
<trkpt lat="49.63937" lon="9.997073">
<ele>247.094</ele>
<time>2019-05-30T13:27:25Z</time>
</trkpt>
<trkpt lat="49.639317" lon="9.997073">
<ele>247.094</ele>
<time>2019-05-30T13:27:26Z</time>
</trkpt>
<trkpt lat="49.639271" lon="9.997075">
<ele>247.094</ele>
<time>2019-05-30T13:27:27Z</time>
</trkpt>
<trkpt lat="49.639225" lon="9.997073">
<ele>247.094</ele>
<time>2019-05-30T13:27:28Z</time>
</trkpt>
<trkpt lat="49.639179" lon="9.997076">
<ele>247.094</ele>
<time>2019-05-30T13:27:29Z</time>
</trkpt>
<trkpt lat="49.639133" lon="9.997084">
<ele>247.094</ele>
<time>2019-05-30T13:27:30Z</time>
</trkpt>
<trkpt lat="49.639091" lon="9.997093">
<ele>247.357</ele>
<time>2019-05-30T13:27:31Z</time>
</trkpt>
<trkpt lat="49.639046" lon="9.997106">
<ele>247.558</ele>
<time>2019-05-30T13:27:32Z</time>
</trkpt>
<trkpt lat="49.639" lon="9.997124">
<ele>247.712</ele>
<time>2019-05-30T13:27:33Z</time>
</trkpt>
<trkpt lat="49.638962" lon="9.997139">
<ele>247.822</ele>
<time>2019-05-30T13:27:34Z</time>
</trkpt>
<trkpt lat="49.63892" lon="9.997155">
<ele>247.899</ele>
<time>2019-05-30T13:27:35Z</time>
</trkpt>
<trkpt lat="49.638878" lon="9.997175">
<ele>247.954</ele>
<time>2019-05-30T13:27:36Z</time>
</trkpt>
<trkpt lat="49.638828" lon="9.997195">
<ele>247.996</ele>
<time>2019-05-30T13:27:37Z</time>
</trkpt>
<trkpt lat="49.638783" lon="9.997218">
<ele>248.022</ele>
<time>2019-05-30T13:27:38Z</time>
</trkpt>
<trkpt lat="49.638737" lon="9.99724">
<ele>248.022</ele>
<time>2019-05-30T13:27:39Z</time>
</trkpt>
<trkpt lat="49.638695" lon="9.997258">
<ele>248.022</ele>
<time>2019-05-30T13:27:40Z</time>
</trkpt>
<trkpt lat="49.638653" lon="9.997273">
<ele>248.285</ele>
<time>2019-05-30T13:27:41Z</time>
</trkpt>
<trkpt lat="49.638611" lon="9.997293">
<ele>248.485</ele>
<time>2019-05-30T13:27:42Z</time>
</trkpt>
<trkpt lat="49.638569" lon="9.997318">
<ele>248.634</ele>
<time>2019-05-30T13:27:43Z</time>
</trkpt>
<trkpt lat="49.638535" lon="9.997345">
<ele>248.745</ele>
<time>2019-05-30T13:27:44Z</time>
</trkpt>
<trkpt lat="49.638493" lon="9.997372">
<ele>248.822</ele>
<time>2019-05-30T13:27:45Z</time>
</trkpt>
<trkpt lat="49.638454" lon="9.997403">
<ele>248.878</ele>
<time>2019-05-30T13:27:46Z</time>
</trkpt>
<trkpt lat="49.63842" lon="9.997437">
<ele>248.921</ele>
<time>2019-05-30T13:27:47Z</time>
</trkpt>
<trkpt lat="49.638382" lon="9.997468">
<ele>248.949</ele>
<time>2019-05-30T13:27:48Z</time>
</trkpt>
<trkpt lat="49.63834" lon="9.997501">
<ele>248.949</ele>
<time>2019-05-30T13:27:49Z</time>
</trkpt>
<trkpt lat="49.638298" lon="9.997533">
<ele>248.949</ele>
<time>2019-05-30T13:27:50Z</time>
</trkpt>
<trkpt lat="49.638256" lon="9.997566">
<ele>248.949</ele>
<time>2019-05-30T13:27:51Z</time>
</trkpt>
<trkpt lat="49.638218" lon="9.9976">
<ele>248.949</ele>
<time>2019-05-30T13:27:52Z</time>
</trkpt>
<trkpt lat="49.63818" lon="9.997637">
<ele>248.949</ele>
<time>2019-05-30T13:27:53Z</time>
</trkpt>
<trkpt lat="49.638145" lon="9.997675">
<ele>249.166</ele>
<time>2019-05-30T13:27:54Z</time>
</trkpt>
<trkpt lat="49.638111" lon="9.997715">
<ele>249.336</ele>
<time>2019-05-30T13:27:55Z</time>
</trkpt>
<trkpt lat="49.638073" lon="9.997759">
<ele>249.466</ele>
<time>2019-05-30T13:27:56Z</time>
</trkpt>
<trkpt lat="49.638035" lon="9.997803">
<ele>249.553</ele>
<time>2019-05-30T13:27:57Z</time>
</trkpt>
<trkpt lat="49.637997" lon="9.997849">
<ele>249.653</ele>
<time>2019-05-30T13:27:58Z</time>
</trkpt>
<trkpt lat="49.637959" lon="9.997897">
<ele>249.726</ele>
<time>2019-05-30T13:27:59Z</time>
</trkpt>
<trkpt lat="49.637924" lon="9.997948">
<ele>249.771</ele>
<time>2019-05-30T13:28:00Z</time>
</trkpt>
<trkpt lat="49.63789" lon="9.997996">
<ele>249.792</ele>
<time>2019-05-30T13:28:01Z</time>
</trkpt>
<trkpt lat="49.637852" lon="9.998044">
<ele>249.792</ele>
<time>2019-05-30T13:28:02Z</time>
</trkpt>
<trkpt lat="49.637817" lon="9.998092">
<ele>249.792</ele>
<time>2019-05-30T13:28:03Z</time>
</trkpt>
<trkpt lat="49.637787" lon="9.998143">
<ele>250.029</ele>
<time>2019-05-30T13:28:04Z</time>
</trkpt>
<trkpt lat="49.637756" lon="9.998199">
<ele>250.216</ele>
<time>2019-05-30T13:28:05Z</time>
</trkpt>
<trkpt lat="49.637726" lon="9.998255">
<ele>250.36</ele>
<time>2019-05-30T13:28:06Z</time>
</trkpt>
<trkpt lat="49.637695" lon="9.998312">
<ele>250.46</ele>
<time>2019-05-30T13:28:07Z</time>
</trkpt>
<trkpt lat="49.637665" lon="9.99837">
<ele>250.568</ele>
<time>2019-05-30T13:28:08Z</time>
</trkpt>
<trkpt lat="49.637638" lon="9.998428">
<ele>250.647</ele>
<time>2019-05-30T13:28:09Z</time>
</trkpt>
<trkpt lat="49.637608" lon="9.998488">
<ele>250.696</ele>
<time>2019-05-30T13:28:10Z</time>
</trkpt>
<trkpt lat="49.637581" lon="9.99855">
<ele>250.72</ele>
<time>2019-05-30T13:28:11Z</time>
</trkpt>
<trkpt lat="49.637554" lon="9.998611">
<ele>250.72</ele>
<time>2019-05-30T13:28:12Z</time>
</trkpt>
<trkpt lat="49.637524" lon="9.998678">
<ele>250.72</ele>
<time>2019-05-30T13:28:13Z</time>
</trkpt>
<trkpt lat="49.637501" lon="9.998743">
<ele>250.72</ele>
<time>2019-05-30T13:28:14Z</time>
</trkpt>
<trkpt lat="49.637478" lon="9.998807">
<ele>250.953</ele>
<time>2019-05-30T13:28:15Z</time>
</trkpt>
<trkpt lat="49.637455" lon="9.99887">
<ele>251.136</ele>
<time>2019-05-30T13:28:16Z</time>
</trkpt>
<trkpt lat="49.637432" lon="9.998934">
<ele>251.262</ele>
<time>2019-05-30T13:28:17Z</time>
</trkpt>
<trkpt lat="49.637413" lon="9.998999">
<ele>251.395</ele>
<time>2019-05-30T13:28:18Z</time>
</trkpt>
<trkpt lat="49.637394" lon="9.99906">
<ele>251.5</ele>
<time>2019-05-30T13:28:19Z</time>
</trkpt>
<trkpt lat="49.637375" lon="9.999119">
<ele>251.574</ele>
<time>2019-05-30T13:28:20Z</time>
</trkpt>
<trkpt lat="49.63736" lon="9.999178">
<ele>251.623</ele>
<time>2019-05-30T13:28:21Z</time>
</trkpt>
<trkpt lat="49.637341" lon="9.999242">
<ele>251.647</ele>
<time>2019-05-30T13:28:22Z</time>
</trkpt>
<trkpt lat="49.637329" lon="9.999305">
<ele>251.647</ele>
<time>2019-05-30T13:28:23Z</time>
</trkpt>
<trkpt lat="49.637318" lon="9.999373">
<ele>251.882</ele>
<time>2019-05-30T13:28:24Z</time>
</trkpt>
<trkpt lat="49.637302" lon="9.999438">
<ele>252.071</ele>
<time>2019-05-30T13:28:25Z</time>
</trkpt>
<trkpt lat="49.637295" lon="9.999504">
<ele>252.216</ele>
<time>2019-05-30T13:28:26Z</time>
</trkpt>
<trkpt lat="49.637287" lon="9.999572">
<ele>252.319</ele>
<time>2019-05-30T13:28:27Z</time>
</trkpt>
<trkpt lat="49.637272" lon="9.999635">
<ele>252.426</ele>
<time>2019-05-30T13:28:28Z</time>
</trkpt>
<trkpt lat="49.637264" lon="9.999693">
<ele>252.503</ele>
<time>2019-05-30T13:28:29Z</time>
</trkpt>
<trkpt lat="49.63726" lon="9.99975">
<ele>252.551</ele>
<time>2019-05-30T13:28:30Z</time>
</trkpt>
<trkpt lat="49.637257" lon="9.999817">
<ele>252.575</ele>
<time>2019-05-30T13:28:31Z</time>
</trkpt>
<trkpt lat="49.637249" lon="9.999887">
<ele>252.575</ele>
<time>2019-05-30T13:28:32Z</time>
</trkpt>
<trkpt lat="49.637238" lon="9.99996">
<ele>252.575</ele>
<time>2019-05-30T13:28:33Z</time>
</trkpt>
<trkpt lat="49.63723" lon="10.00003">
<ele>252.575</ele>
<time>2019-05-30T13:28:34Z</time>
</trkpt>
<trkpt lat="49.637215" lon="10.000097">
<ele>252.575</ele>
<time>2019-05-30T13:28:35Z</time>
</trkpt>
<trkpt lat="49.637203" lon="10.000167">
<ele>252.788</ele>
<time>2019-05-30T13:28:36Z</time>
</trkpt>
<trkpt lat="49.637199" lon="10.000234">
<ele>252.938</ele>
<time>2019-05-30T13:28:37Z</time>
</trkpt>
<trkpt lat="49.637196" lon="10.000302">
<ele>253.086</ele>
<time>2019-05-30T13:28:38Z</time>
</trkpt>
<trkpt lat="49.637188" lon="10.000376">
<ele>253.198</ele>
<time>2019-05-30T13:28:39Z</time>
</trkpt>
<trkpt lat="49.637177" lon="10.000447">
<ele>253.288</ele>
<time>2019-05-30T13:28:40Z</time>
</trkpt>
<trkpt lat="49.637169" lon="10.000512">
<ele>253.354</ele>
<time>2019-05-30T13:28:41Z</time>
</trkpt>
<trkpt lat="49.637165" lon="10.000586">
<ele>253.398</ele>
<time>2019-05-30T13:28:42Z</time>
</trkpt>
<trkpt lat="49.637161" lon="10.000655">
<ele>253.419</ele>
<time>2019-05-30T13:28:43Z</time>
</trkpt>
<trkpt lat="49.637157" lon="10.000736">
<ele>253.419</ele>
<time>2019-05-30T13:28:44Z</time>
</trkpt>
<trkpt lat="49.63715" lon="10.000818">
<ele>253.419</ele>
<time>2019-05-30T13:28:45Z</time>
</trkpt>
<trkpt lat="49.637142" lon="10.000896">
<ele>253.419</ele>
<time>2019-05-30T13:28:46Z</time>
</trkpt>
<trkpt lat="49.637135" lon="10.000978">
<ele>253.419</ele>
<time>2019-05-30T13:28:47Z</time>
</trkpt>
<trkpt lat="49.637127" lon="10.001059">
<ele>253.419</ele>
<time>2019-05-30T13:28:48Z</time>
</trkpt>
<trkpt lat="49.637119" lon="10.001139">
<ele>253.419</ele>
<time>2019-05-30T13:28:49Z</time>
</trkpt>
<trkpt lat="49.637112" lon="10.001218">
<ele>253.419</ele>
<time>2019-05-30T13:28:50Z</time>
</trkpt>
<trkpt lat="49.6371" lon="10.001288">
<ele>253.419</ele>
<time>2019-05-30T13:28:51Z</time>
</trkpt>
<trkpt lat="49.637089" lon="10.001358">
<ele>253.419</ele>
<time>2019-05-30T13:28:52Z</time>
</trkpt>
<trkpt lat="49.637081" lon="10.00143">
<ele>253.419</ele>
<time>2019-05-30T13:28:53Z</time>
</trkpt>
<trkpt lat="49.63707" lon="10.001503">
<ele>253.419</ele>
<time>2019-05-30T13:28:54Z</time>
</trkpt>
<trkpt lat="49.637062" lon="10.001576">
<ele>253.419</ele>
<time>2019-05-30T13:28:55Z</time>
</trkpt>
<trkpt lat="49.637054" lon="10.00165">
<ele>253.419</ele>
<time>2019-05-30T13:28:56Z</time>
</trkpt>
<trkpt lat="49.637043" lon="10.001721">
<ele>253.419</ele>
<time>2019-05-30T13:28:57Z</time>
</trkpt>
<trkpt lat="49.637035" lon="10.001794">
<ele>253.419</ele>
<time>2019-05-30T13:28:58Z</time>
</trkpt>
<trkpt lat="49.637024" lon="10.001863">
<ele>253.419</ele>
<time>2019-05-30T13:28:59Z</time>
</trkpt>
<trkpt lat="49.637016" lon="10.001937">
<ele>253.419</ele>
<time>2019-05-30T13:29:00Z</time>
</trkpt>
<trkpt lat="49.637005" lon="10.002004">
<ele>253.419</ele>
<time>2019-05-30T13:29:01Z</time>
</trkpt>
<trkpt lat="49.63699" lon="10.002069">
<ele>253.419</ele>
<time>2019-05-30T13:29:02Z</time>
</trkpt>
<trkpt lat="49.636974" lon="10.002135">
<ele>253.419</ele>
<time>2019-05-30T13:29:03Z</time>
</trkpt>
<trkpt lat="49.636959" lon="10.002203">
<ele>253.419</ele>
<time>2019-05-30T13:29:04Z</time>
</trkpt>
<trkpt lat="49.636944" lon="10.00228">
<ele>253.419</ele>
<time>2019-05-30T13:29:05Z</time>
</trkpt>
<trkpt lat="49.636936" lon="10.002357">
<ele>253.419</ele>
<time>2019-05-30T13:29:06Z</time>
</trkpt>
<trkpt lat="49.636917" lon="10.002431">
<ele>253.419</ele>
<time>2019-05-30T13:29:07Z</time>
</trkpt>
<trkpt lat="49.636902" lon="10.002506">
<ele>253.419</ele>
<time>2019-05-30T13:29:08Z</time>
</trkpt>
<trkpt lat="49.636883" lon="10.002584">
<ele>253.419</ele>
<time>2019-05-30T13:29:09Z</time>
</trkpt>
<trkpt lat="49.636864" lon="10.002657">
<ele>253.419</ele>
<time>2019-05-30T13:29:10Z</time>
</trkpt>
<trkpt lat="49.636841" lon="10.002728">
<ele>253.419</ele>
<time>2019-05-30T13:29:11Z</time>
</trkpt>
<trkpt lat="49.636818" lon="10.0028">
<ele>253.419</ele>
<time>2019-05-30T13:29:12Z</time>
</trkpt>
<trkpt lat="49.636803" lon="10.002873">
<ele>253.419</ele>
<time>2019-05-30T13:29:13Z</time>
</trkpt>
<trkpt lat="49.636776" lon="10.002945">
<ele>253.419</ele>
<time>2019-05-30T13:29:14Z</time>
</trkpt>
<trkpt lat="49.636757" lon="10.003016">
<ele>253.419</ele>
<time>2019-05-30T13:29:15Z</time>
</trkpt>
<trkpt lat="49.636738" lon="10.003089">
<ele>253.419</ele>
<time>2019-05-30T13:29:16Z</time>
</trkpt>
<trkpt lat="49.636711" lon="10.003156">
<ele>253.419</ele>
<time>2019-05-30T13:29:17Z</time>
</trkpt>
<trkpt lat="49.636681" lon="10.003222">
<ele>253.419</ele>
<time>2019-05-30T13:29:18Z</time>
</trkpt>
<trkpt lat="49.636658" lon="10.003286">
<ele>253.419</ele>
<time>2019-05-30T13:29:19Z</time>
</trkpt>
<trkpt lat="49.636635" lon="10.003353">
<ele>253.419</ele>
<time>2019-05-30T13:29:20Z</time>
</trkpt>
<trkpt lat="49.636608" lon="10.003425">
<ele>253.419</ele>
<time>2019-05-30T13:29:21Z</time>
</trkpt>
<trkpt lat="49.636581" lon="10.003489">
<ele>253.419</ele>
<time>2019-05-30T13:29:22Z</time>
</trkpt>
<trkpt lat="49.636547" lon="10.003556">
<ele>253.419</ele>
<time>2019-05-30T13:29:23Z</time>
</trkpt>
<trkpt lat="49.636517" lon="10.003627">
<ele>253.419</ele>
<time>2019-05-30T13:29:24Z</time>
</trkpt>
<trkpt lat="49.636482" lon="10.003694">
<ele>253.419</ele>
<time>2019-05-30T13:29:25Z</time>
</trkpt>
<trkpt lat="49.636452" lon="10.003759">
<ele>253.419</ele>
<time>2019-05-30T13:29:26Z</time>
</trkpt>
<trkpt lat="49.636421" lon="10.003832">
<ele>253.419</ele>
<time>2019-05-30T13:29:27Z</time>
</trkpt>
<trkpt lat="49.636387" lon="10.0039">
<ele>253.419</ele>
<time>2019-05-30T13:29:28Z</time>
</trkpt>
<trkpt lat="49.636356" lon="10.003964">
<ele>253.419</ele>
<time>2019-05-30T13:29:29Z</time>
</trkpt>
<trkpt lat="49.636326" lon="10.004027">
<ele>253.419</ele>
<time>2019-05-30T13:29:30Z</time>
</trkpt>
<trkpt lat="49.636292" lon="10.00409">
<ele>253.419</ele>
<time>2019-05-30T13:29:31Z</time>
</trkpt>
<trkpt lat="49.636261" lon="10.004151">
<ele>253.419</ele>
<time>2019-05-30T13:29:32Z</time>
</trkpt>
<trkpt lat="49.636227" lon="10.004211">
<ele>253.419</ele>
<time>2019-05-30T13:29:33Z</time>
</trkpt>
<trkpt lat="49.636189" lon="10.004273">
<ele>253.419</ele>
<time>2019-05-30T13:29:34Z</time>
</trkpt>
<trkpt lat="49.636154" lon="10.004335">
<ele>253.419</ele>
<time>2019-05-30T13:29:35Z</time>
</trkpt>
<trkpt lat="49.636112" lon="10.004395">
<ele>253.419</ele>
<time>2019-05-30T13:29:36Z</time>
</trkpt>
<trkpt lat="49.636078" lon="10.004453">
<ele>253.419</ele>
<time>2019-05-30T13:29:37Z</time>
</trkpt>
<trkpt lat="49.63604" lon="10.004508">
<ele>253.419</ele>
<time>2019-05-30T13:29:38Z</time>
</trkpt>
<trkpt lat="49.635998" lon="10.00456">
<ele>253.419</ele>
<time>2019-05-30T13:29:39Z</time>
</trkpt>
<trkpt lat="49.63596" lon="10.004614">
<ele>253.419</ele>
<time>2019-05-30T13:29:40Z</time>
</trkpt>
<trkpt lat="49.635918" lon="10.004664">
<ele>253.419</ele>
<time>2019-05-30T13:29:41Z</time>
</trkpt>
<trkpt lat="49.63588" lon="10.004724">
<ele>253.419</ele>
<time>2019-05-30T13:29:42Z</time>
</trkpt>
<trkpt lat="49.635838" lon="10.004777">
<ele>253.419</ele>
<time>2019-05-30T13:29:43Z</time>
</trkpt>
<trkpt lat="49.635796" lon="10.004828">
<ele>253.419</ele>
<time>2019-05-30T13:29:44Z</time>
</trkpt>
<trkpt lat="49.635754" lon="10.004882">
<ele>253.419</ele>
<time>2019-05-30T13:29:45Z</time>
</trkpt>
<trkpt lat="49.635708" lon="10.004933">
<ele>253.419</ele>
<time>2019-05-30T13:29:46Z</time>
</trkpt>
<trkpt lat="49.635666" lon="10.00498">
<ele>253.419</ele>
<time>2019-05-30T13:29:47Z</time>
</trkpt>
<trkpt lat="49.635624" lon="10.005025">
<ele>253.419</ele>
<time>2019-05-30T13:29:48Z</time>
</trkpt>
<trkpt lat="49.635578" lon="10.005071">
<ele>253.419</ele>
<time>2019-05-30T13:29:49Z</time>
</trkpt>
<trkpt lat="49.635536" lon="10.005115">
<ele>253.419</ele>
<time>2019-05-30T13:29:50Z</time>
</trkpt>
<trkpt lat="49.635494" lon="10.005153">
<ele>253.419</ele>
<time>2019-05-30T13:29:51Z</time>
</trkpt>
<trkpt lat="49.635448" lon="10.005192">
<ele>253.419</ele>
<time>2019-05-30T13:29:52Z</time>
</trkpt>
<trkpt lat="49.635406" lon="10.005228">
<ele>253.419</ele>
<time>2019-05-30T13:29:53Z</time>
</trkpt>
<trkpt lat="49.635361" lon="10.005268">
<ele>253.419</ele>
<time>2019-05-30T13:29:54Z</time>
</trkpt>
<trkpt lat="49.635315" lon="10.00531">
<ele>253.419</ele>
<time>2019-05-30T13:29:55Z</time>
</trkpt>
<trkpt lat="49.635273" lon="10.005352">
<ele>253.419</ele>
<time>2019-05-30T13:29:56Z</time>
</trkpt>
<trkpt lat="49.635223" lon="10.005398">
<ele>253.419</ele>
<time>2019-05-30T13:29:57Z</time>
</trkpt>
<trkpt lat="49.635178" lon="10.005444">
<ele>253.419</ele>
<time>2019-05-30T13:29:58Z</time>
</trkpt>
<trkpt lat="49.635128" lon="10.005486">
<ele>253.419</ele>
<time>2019-05-30T13:29:59Z</time>
</trkpt>
<trkpt lat="49.635078" lon="10.005527">
<ele>253.419</ele>
<time>2019-05-30T13:30:00Z</time>
</trkpt>
<trkpt lat="49.635033" lon="10.005559">
<ele>253.419</ele>
<time>2019-05-30T13:30:01Z</time>
</trkpt>
<trkpt lat="49.634983" lon="10.005589">
<ele>253.419</ele>
<time>2019-05-30T13:30:02Z</time>
</trkpt>
<trkpt lat="49.634937" lon="10.005618">
<ele>253.419</ele>
<time>2019-05-30T13:30:03Z</time>
</trkpt>
<trkpt lat="49.634888" lon="10.005649">
<ele>253.419</ele>
<time>2019-05-30T13:30:04Z</time>
</trkpt>
<trkpt lat="49.634838" lon="10.00568">
<ele>253.419</ele>
<time>2019-05-30T13:30:05Z</time>
</trkpt>
<trkpt lat="49.634789" lon="10.005705">
<ele>253.419</ele>
<time>2019-05-30T13:30:06Z</time>
</trkpt>
<trkpt lat="49.634739" lon="10.005732">
<ele>253.419</ele>
<time>2019-05-30T13:30:07Z</time>
</trkpt>
<trkpt lat="49.634689" lon="10.005752">
<ele>253.419</ele>
<time>2019-05-30T13:30:08Z</time>
</trkpt>
<trkpt lat="49.634647" lon="10.005774">
<ele>253.419</ele>
<time>2019-05-30T13:30:09Z</time>
</trkpt>
<trkpt lat="49.634598" lon="10.005798">
<ele>253.419</ele>
<time>2019-05-30T13:30:10Z</time>
</trkpt>
<trkpt lat="49.63456" lon="10.005821">
<ele>253.419</ele>
<time>2019-05-30T13:30:11Z</time>
</trkpt>
<trkpt lat="49.63451" lon="10.005842">
<ele>253.419</ele>
<time>2019-05-30T13:30:12Z</time>
</trkpt>
<trkpt lat="49.634468" lon="10.005855">
<ele>253.419</ele>
<time>2019-05-30T13:30:13Z</time>
</trkpt>
<trkpt lat="49.63443" lon="10.005867">
<ele>253.419</ele>
<time>2019-05-30T13:30:14Z</time>
</trkpt>
<trkpt lat="49.634396" lon="10.005879">
<ele>253.419</ele>
<time>2019-05-30T13:30:15Z</time>
</trkpt>
<trkpt lat="49.634361" lon="10.005895">
<ele>253.419</ele>
<time>2019-05-30T13:30:16Z</time>
</trkpt>
<trkpt lat="49.634331" lon="10.005909">
<ele>253.419</ele>
<time>2019-05-30T13:30:17Z</time>
</trkpt>
<trkpt lat="49.634296" lon="10.005917">
<ele>253.419</ele>
<time>2019-05-30T13:30:18Z</time>
</trkpt>
<trkpt lat="49.634266" lon="10.005925">
<ele>253.419</ele>
<time>2019-05-30T13:30:19Z</time>
</trkpt>
<trkpt lat="49.634235" lon="10.005928">
<ele>253.419</ele>
<time>2019-05-30T13:30:20Z</time>
</trkpt>
<trkpt lat="49.634212" lon="10.005932">
<ele>253.419</ele>
<time>2019-05-30T13:30:21Z</time>
</trkpt>
<trkpt lat="49.63419" lon="10.005935">
<ele>253.419</ele>
<time>2019-05-30T13:30:22Z</time>
</trkpt>
<trkpt lat="49.634171" lon="10.005939">
<ele>253.419</ele>
<time>2019-05-30T13:30:23Z</time>
</trkpt>
<trkpt lat="49.634155" lon="10.005939">
<ele>253.419</ele>
<time>2019-05-30T13:30:24Z</time>
</trkpt>
<trkpt lat="49.634136" lon="10.00593">
<ele>253.419</ele>
<time>2019-05-30T13:30:25Z</time>
</trkpt>
<trkpt lat="49.634129" lon="10.00593">
<ele>253.419</ele>
<time>2019-05-30T13:30:26Z</time>
</trkpt>
<trkpt lat="49.634125" lon="10.00593">
<ele>253.419</ele>
<time>2019-05-30T13:30:27Z</time>
</trkpt>
<trkpt lat="49.634113" lon="10.005926">
<ele>253.599</ele>
<time>2019-05-30T13:30:28Z</time>
</trkpt>
<trkpt lat="49.634094" lon="10.005925">
<ele>253.775</ele>
<time>2019-05-30T13:30:29Z</time>
</trkpt>
<trkpt lat="49.634071" lon="10.005928">
<ele>253.94</ele>
<time>2019-05-30T13:30:30Z</time>
</trkpt>
<trkpt lat="49.634048" lon="10.005934">
<ele>254.085</ele>
<time>2019-05-30T13:30:31Z</time>
</trkpt>
<trkpt lat="49.634026" lon="10.005937">
<ele>254.198</ele>
<time>2019-05-30T13:30:32Z</time>
</trkpt>
<trkpt lat="49.633999" lon="10.00594">
<ele>254.284</ele>
<time>2019-05-30T13:30:33Z</time>
</trkpt>
<trkpt lat="49.633968" lon="10.005943">
<ele>254.332</ele>
<time>2019-05-30T13:30:34Z</time>
</trkpt>
<trkpt lat="49.633938" lon="10.005948">
<ele>254.347</ele>
<time>2019-05-30T13:30:35Z</time>
</trkpt>
<trkpt lat="49.633907" lon="10.005953">
<ele>254.347</ele>
<time>2019-05-30T13:30:36Z</time>
</trkpt>
<trkpt lat="49.633881" lon="10.005963">
<ele>254.347</ele>
<time>2019-05-30T13:30:37Z</time>
</trkpt>
<trkpt lat="49.633854" lon="10.00597">
<ele>254.347</ele>
<time>2019-05-30T13:30:38Z</time>
</trkpt>
<trkpt lat="49.633823" lon="10.005972">
<ele>254.347</ele>
<time>2019-05-30T13:30:39Z</time>
</trkpt>
<trkpt lat="49.633793" lon="10.005972">
<ele>254.05</ele>
<time>2019-05-30T13:30:40Z</time>
</trkpt>
<trkpt lat="49.633762" lon="10.005977">
<ele>253.826</ele>
<time>2019-05-30T13:30:41Z</time>
</trkpt>
<trkpt lat="49.633732" lon="10.005981">
<ele>253.655</ele>
<time>2019-05-30T13:30:42Z</time>
</trkpt>
<trkpt lat="49.633694" lon="10.005983">
<ele>253.524</ele>
<time>2019-05-30T13:30:43Z</time>
</trkpt>
<trkpt lat="49.633659" lon="10.005984">
<ele>253.441</ele>
<time>2019-05-30T13:30:44Z</time>
</trkpt>
<trkpt lat="49.633621" lon="10.005986">
<ele>253.387</ele>
<time>2019-05-30T13:30:45Z</time>
</trkpt>
<trkpt lat="49.633587" lon="10.005993">
<ele>253.355</ele>
<time>2019-05-30T13:30:46Z</time>
</trkpt>
<trkpt lat="49.633553" lon="10.005997">
<ele>253.334</ele>
<time>2019-05-30T13:30:47Z</time>
</trkpt>
<trkpt lat="49.633514" lon="10.005993">
<ele>253.334</ele>
<time>2019-05-30T13:30:48Z</time>
</trkpt>
<trkpt lat="49.63348" lon="10.005988">
<ele>253.334</ele>
<time>2019-05-30T13:30:49Z</time>
</trkpt>
<trkpt lat="49.633438" lon="10.005983">
<ele>253.334</ele>
<time>2019-05-30T13:30:50Z</time>
</trkpt>
<trkpt lat="49.633396" lon="10.00598">
<ele>253.334</ele>
<time>2019-05-30T13:30:51Z</time>
</trkpt>
<trkpt lat="49.633358" lon="10.005976">
<ele>253.334</ele>
<time>2019-05-30T13:30:52Z</time>
</trkpt>
<trkpt lat="49.63332" lon="10.005968">
<ele>253.334</ele>
<time>2019-05-30T13:30:53Z</time>
</trkpt>
<trkpt lat="49.633278" lon="10.005961">
<ele>253.334</ele>
<time>2019-05-30T13:30:54Z</time>
</trkpt>
<trkpt lat="49.633236" lon="10.005959">
<ele>253.334</ele>
<time>2019-05-30T13:30:55Z</time>
</trkpt>
<trkpt lat="49.633186" lon="10.00596">
<ele>253.334</ele>
<time>2019-05-30T13:30:56Z</time>
</trkpt>
<trkpt lat="49.633133" lon="10.005965">
<ele>253.334</ele>
<time>2019-05-30T13:30:57Z</time>
</trkpt>
<trkpt lat="49.633087" lon="10.00597">
<ele>253.334</ele>
<time>2019-05-30T13:30:58Z</time>
</trkpt>
<trkpt lat="49.633041" lon="10.005965">
<ele>253.52</ele>
<time>2019-05-30T13:30:59Z</time>
</trkpt>
<trkpt lat="49.632992" lon="10.005959">
<ele>253.661</ele>
<time>2019-05-30T13:31:00Z</time>
</trkpt>
<trkpt lat="49.632938" lon="10.005951">
<ele>253.763</ele>
<time>2019-05-30T13:31:01Z</time>
</trkpt>
<trkpt lat="49.632893" lon="10.005946">
<ele>253.833</ele>
<time>2019-05-30T13:31:02Z</time>
</trkpt>
<trkpt lat="49.632839" lon="10.00594">
<ele>253.878</ele>
<time>2019-05-30T13:31:03Z</time>
</trkpt>
<trkpt lat="49.632793" lon="10.005934">
<ele>253.909</ele>
<time>2019-05-30T13:31:04Z</time>
</trkpt>
<trkpt lat="49.632744" lon="10.005925">
<ele>253.922</ele>
<time>2019-05-30T13:31:05Z</time>
</trkpt>
<trkpt lat="49.632698" lon="10.005917">
<ele>253.925</ele>
<time>2019-05-30T13:31:06Z</time>
</trkpt>
<trkpt lat="49.632645" lon="10.005907">
<ele>253.925</ele>
<time>2019-05-30T13:31:07Z</time>
</trkpt>
<trkpt lat="49.632595" lon="10.0059">
<ele>253.925</ele>
<time>2019-05-30T13:31:08Z</time>
</trkpt>
<trkpt lat="49.632545" lon="10.005895">
<ele>253.925</ele>
<time>2019-05-30T13:31:09Z</time>
</trkpt>
<trkpt lat="49.6325" lon="10.00589">
<ele>253.925</ele>
<time>2019-05-30T13:31:10Z</time>
</trkpt>
<trkpt lat="49.63245" lon="10.005886">
<ele>253.925</ele>
<time>2019-05-30T13:31:11Z</time>
</trkpt>
<trkpt lat="49.632408" lon="10.005881">
<ele>253.925</ele>
<time>2019-05-30T13:31:12Z</time>
</trkpt>
<trkpt lat="49.632362" lon="10.005876">
<ele>253.925</ele>
<time>2019-05-30T13:31:13Z</time>
</trkpt>
<trkpt lat="49.632317" lon="10.005874">
<ele>253.925</ele>
<time>2019-05-30T13:31:14Z</time>
</trkpt>
<trkpt lat="49.632275" lon="10.005867">
<ele>253.925</ele>
<time>2019-05-30T13:31:15Z</time>
</trkpt>
<trkpt lat="49.632233" lon="10.005861">
<ele>253.925</ele>
<time>2019-05-30T13:31:16Z</time>
</trkpt>
<trkpt lat="49.632187" lon="10.005858">
<ele>253.925</ele>
<time>2019-05-30T13:31:17Z</time>
</trkpt>
<trkpt lat="49.632145" lon="10.005854">
<ele>253.925</ele>
<time>2019-05-30T13:31:18Z</time>
</trkpt>
<trkpt lat="49.632095" lon="10.005846">
<ele>253.925</ele>
<time>2019-05-30T13:31:19Z</time>
</trkpt>
<trkpt lat="49.63205" lon="10.005836">
<ele>253.925</ele>
<time>2019-05-30T13:31:20Z</time>
</trkpt>
<trkpt lat="49.632004" lon="10.005834">
<ele>253.925</ele>
<time>2019-05-30T13:31:21Z</time>
</trkpt>
<trkpt lat="49.631958" lon="10.005827">
<ele>253.925</ele>
<time>2019-05-30T13:31:22Z</time>
</trkpt>
<trkpt lat="49.631916" lon="10.00583">
<ele>253.925</ele>
<time>2019-05-30T13:31:23Z</time>
</trkpt>
<trkpt lat="49.63187" lon="10.005829">
<ele>253.925</ele>
<time>2019-05-30T13:31:24Z</time>
</trkpt>
<trkpt lat="49.631828" lon="10.005823">
<ele>253.925</ele>
<time>2019-05-30T13:31:25Z</time>
</trkpt>
<trkpt lat="49.631786" lon="10.005812">
<ele>253.925</ele>
<time>2019-05-30T13:31:26Z</time>
</trkpt>
<trkpt lat="49.631737" lon="10.005798">
<ele>253.925</ele>
<time>2019-05-30T13:31:27Z</time>
</trkpt>
<trkpt lat="49.631691" lon="10.005794">
<ele>253.925</ele>
<time>2019-05-30T13:31:28Z</time>
</trkpt>
<trkpt lat="49.631649" lon="10.005788">
<ele>253.925</ele>
<time>2019-05-30T13:31:29Z</time>
</trkpt>
<trkpt lat="49.631599" lon="10.005785">
<ele>253.925</ele>
<time>2019-05-30T13:31:30Z</time>
</trkpt>
<trkpt lat="49.631554" lon="10.005787">
<ele>253.925</ele>
<time>2019-05-30T13:31:31Z</time>
</trkpt>
<trkpt lat="49.631512" lon="10.005795">
<ele>253.925</ele>
<time>2019-05-30T13:31:32Z</time>
</trkpt>
<trkpt lat="49.63147" lon="10.005798">
<ele>253.925</ele>
<time>2019-05-30T13:31:33Z</time>
</trkpt>
<trkpt lat="49.631432" lon="10.005802">
<ele>253.925</ele>
<time>2019-05-30T13:31:34Z</time>
</trkpt>
<trkpt lat="49.63139" lon="10.005807">
<ele>254.17</ele>
<time>2019-05-30T13:31:35Z</time>
</trkpt>
<trkpt lat="49.631351" lon="10.005813">
<ele>254.367</ele>
<time>2019-05-30T13:31:36Z</time>
</trkpt>
<trkpt lat="49.631313" lon="10.005823">
<ele>254.502</ele>
<time>2019-05-30T13:31:37Z</time>
</trkpt>
<trkpt lat="49.631275" lon="10.005832">
<ele>254.651</ele>
<time>2019-05-30T13:31:38Z</time>
</trkpt>
<trkpt lat="49.631237" lon="10.005838">
<ele>254.766</ele>
<time>2019-05-30T13:31:39Z</time>
</trkpt>
<trkpt lat="49.631199" lon="10.005848">
<ele>254.856</ele>
<time>2019-05-30T13:31:40Z</time>
</trkpt>
<trkpt lat="49.631161" lon="10.005858">
<ele>254.911</ele>
<time>2019-05-30T13:31:41Z</time>
</trkpt>
<trkpt lat="49.631119" lon="10.005872">
<ele>254.937</ele>
<time>2019-05-30T13:31:42Z</time>
</trkpt>
<trkpt lat="49.631081" lon="10.005881">
<ele>254.937</ele>
<time>2019-05-30T13:31:43Z</time>
</trkpt>
<trkpt lat="49.631039" lon="10.005888">
<ele>254.937</ele>
<time>2019-05-30T13:31:44Z</time>
</trkpt>
<trkpt lat="49.631001" lon="10.005895">
<ele>254.937</ele>
<time>2019-05-30T13:31:45Z</time>
</trkpt>
<trkpt lat="49.630951" lon="10.00591">
<ele>254.937</ele>
<time>2019-05-30T13:31:46Z</time>
</trkpt>
<trkpt lat="49.630898" lon="10.005923">
<ele>254.937</ele>
<time>2019-05-30T13:31:47Z</time>
</trkpt>
<trkpt lat="49.63084" lon="10.005943">
<ele>254.937</ele>
<time>2019-05-30T13:31:48Z</time>
</trkpt>
<trkpt lat="49.630802" lon="10.005977">
<ele>254.937</ele>
<time>2019-05-30T13:31:49Z</time>
</trkpt>
<trkpt lat="49.630753" lon="10.006007">
<ele>254.937</ele>
<time>2019-05-30T13:31:50Z</time>
</trkpt>
<trkpt lat="49.630711" lon="10.006042">
<ele>254.937</ele>
<time>2019-05-30T13:31:51Z</time>
</trkpt>
<trkpt lat="49.630676" lon="10.006077">
<ele>254.937</ele>
<time>2019-05-30T13:31:52Z</time>
</trkpt>
<trkpt lat="49.63063" lon="10.006108">
<ele>254.937</ele>
<time>2019-05-30T13:31:53Z</time>
</trkpt>
<trkpt lat="49.630581" lon="10.006139">
<ele>254.937</ele>
<time>2019-05-30T13:31:54Z</time>
</trkpt>
<trkpt lat="49.630531" lon="10.006168">
<ele>254.937</ele>
<time>2019-05-30T13:31:55Z</time>
</trkpt>
<trkpt lat="49.630482" lon="10.006202">
<ele>254.937</ele>
<time>2019-05-30T13:31:56Z</time>
</trkpt>
<trkpt lat="49.63044" lon="10.006236">
<ele>254.937</ele>
<time>2019-05-30T13:31:57Z</time>
</trkpt>
<trkpt lat="49.630402" lon="10.006263">
<ele>254.937</ele>
<time>2019-05-30T13:31:58Z</time>
</trkpt>
<trkpt lat="49.63036" lon="10.006293">
<ele>254.937</ele>
<time>2019-05-30T13:31:59Z</time>
</trkpt>
<trkpt lat="49.630322" lon="10.00633">
<ele>254.937</ele>
<time>2019-05-30T13:32:00Z</time>
</trkpt>
<trkpt lat="49.630276" lon="10.00637">
<ele>254.937</ele>
<time>2019-05-30T13:32:01Z</time>
</trkpt>
<trkpt lat="49.630234" lon="10.006408">
<ele>254.937</ele>
<time>2019-05-30T13:32:02Z</time>
</trkpt>
<trkpt lat="49.630188" lon="10.006454">
<ele>254.937</ele>
<time>2019-05-30T13:32:03Z</time>
</trkpt>
<trkpt lat="49.630138" lon="10.006497">
<ele>254.937</ele>
<time>2019-05-30T13:32:04Z</time>
</trkpt>
<trkpt lat="49.630093" lon="10.006537">
<ele>254.937</ele>
<time>2019-05-30T13:32:05Z</time>
</trkpt>
<trkpt lat="49.630054" lon="10.006585">
<ele>254.937</ele>
<time>2019-05-30T13:32:06Z</time>
</trkpt>
<trkpt lat="49.630009" lon="10.00663">
<ele>254.937</ele>
<time>2019-05-30T13:32:07Z</time>
</trkpt>
<trkpt lat="49.629967" lon="10.006676">
<ele>254.937</ele>
<time>2019-05-30T13:32:08Z</time>
</trkpt>
<trkpt lat="49.629925" lon="10.006721">
<ele>254.937</ele>
<time>2019-05-30T13:32:09Z</time>
</trkpt>
<trkpt lat="49.629883" lon="10.006766">
<ele>255.203</ele>
<time>2019-05-30T13:32:10Z</time>
</trkpt>
<trkpt lat="49.629841" lon="10.006814">
<ele>255.41</ele>
<time>2019-05-30T13:32:11Z</time>
</trkpt>
<trkpt lat="49.629799" lon="10.006862">
<ele>255.567</ele>
<time>2019-05-30T13:32:12Z</time>
</trkpt>
<trkpt lat="49.629753" lon="10.006908">
<ele>255.685</ele>
<time>2019-05-30T13:32:13Z</time>
</trkpt>
<trkpt lat="49.629707" lon="10.006955">
<ele>255.77</ele>
<time>2019-05-30T13:32:14Z</time>
</trkpt>
<trkpt lat="49.629669" lon="10.007003">
<ele>255.816</ele>
<time>2019-05-30T13:32:15Z</time>
</trkpt>
<trkpt lat="49.629627" lon="10.007049">
<ele>255.843</ele>
<time>2019-05-30T13:32:16Z</time>
</trkpt>
<trkpt lat="49.629585" lon="10.007095">
<ele>255.865</ele>
<time>2019-05-30T13:32:17Z</time>
</trkpt>
<trkpt lat="49.629543" lon="10.007136">
<ele>255.865</ele>
<time>2019-05-30T13:32:18Z</time>
</trkpt>
<trkpt lat="49.629505" lon="10.007178">
<ele>255.865</ele>
<time>2019-05-30T13:32:19Z</time>
</trkpt>
<trkpt lat="49.629463" lon="10.007218">
<ele>255.865</ele>
<time>2019-05-30T13:32:20Z</time>
</trkpt>
<trkpt lat="49.629417" lon="10.007257">
<ele>255.865</ele>
<time>2019-05-30T13:32:21Z</time>
</trkpt>
<trkpt lat="49.629375" lon="10.007296">
<ele>255.865</ele>
<time>2019-05-30T13:32:22Z</time>
</trkpt>
<trkpt lat="49.62933" lon="10.007332">
<ele>255.865</ele>
<time>2019-05-30T13:32:23Z</time>
</trkpt>
<trkpt lat="49.629284" lon="10.007369">
<ele>255.865</ele>
<time>2019-05-30T13:32:24Z</time>
</trkpt>
<trkpt lat="49.629238" lon="10.007405">
<ele>255.865</ele>
<time>2019-05-30T13:32:25Z</time>
</trkpt>
<trkpt lat="49.629192" lon="10.007439">
<ele>255.865</ele>
<time>2019-05-30T13:32:26Z</time>
</trkpt>
<trkpt lat="49.629147" lon="10.00747">
<ele>255.865</ele>
<time>2019-05-30T13:32:27Z</time>
</trkpt>
<trkpt lat="49.629101" lon="10.0075">
<ele>255.865</ele>
<time>2019-05-30T13:32:28Z</time>
</trkpt>
<trkpt lat="49.629055" lon="10.007533">
<ele>255.865</ele>
<time>2019-05-30T13:32:29Z</time>
</trkpt>
<trkpt lat="49.629013" lon="10.007565">
<ele>255.865</ele>
<time>2019-05-30T13:32:30Z</time>
</trkpt>
<trkpt lat="49.628967" lon="10.007591">
<ele>255.865</ele>
<time>2019-05-30T13:32:31Z</time>
</trkpt>
<trkpt lat="49.628918" lon="10.00762">
<ele>255.865</ele>
<time>2019-05-30T13:32:32Z</time>
</trkpt>
<trkpt lat="49.628876" lon="10.007652">
<ele>255.865</ele>
<time>2019-05-30T13:32:33Z</time>
</trkpt>
<trkpt lat="49.628826" lon="10.007673">
<ele>255.865</ele>
<time>2019-05-30T13:32:34Z</time>
</trkpt>
<trkpt lat="49.628777" lon="10.007693">
<ele>255.865</ele>
<time>2019-05-30T13:32:35Z</time>
</trkpt>
<trkpt lat="49.628723" lon="10.00771">
<ele>255.865</ele>
<time>2019-05-30T13:32:36Z</time>
</trkpt>
<trkpt lat="49.628674" lon="10.007727">
<ele>255.865</ele>
<time>2019-05-30T13:32:37Z</time>
</trkpt>
<trkpt lat="49.628624" lon="10.00774">
<ele>255.865</ele>
<time>2019-05-30T13:32:38Z</time>
</trkpt>
<trkpt lat="49.628571" lon="10.007753">
<ele>255.865</ele>
<time>2019-05-30T13:32:39Z</time>
</trkpt>
<trkpt lat="49.628525" lon="10.00777">
<ele>255.865</ele>
<time>2019-05-30T13:32:40Z</time>
</trkpt>
<trkpt lat="49.628471" lon="10.007784">
<ele>255.865</ele>
<time>2019-05-30T13:32:41Z</time>
</trkpt>
<trkpt lat="49.628426" lon="10.007798">
<ele>255.865</ele>
<time>2019-05-30T13:32:42Z</time>
</trkpt>
<trkpt lat="49.628372" lon="10.007815">
<ele>256.109</ele>
<time>2019-05-30T13:32:43Z</time>
</trkpt>
<trkpt lat="49.628323" lon="10.007833">
<ele>256.301</ele>
<time>2019-05-30T13:32:44Z</time>
</trkpt>
<trkpt lat="49.628269" lon="10.007847">
<ele>256.447</ele>
<time>2019-05-30T13:32:45Z</time>
</trkpt>
<trkpt lat="49.628227" lon="10.007855">
<ele>256.56</ele>
<time>2019-05-30T13:32:46Z</time>
</trkpt>
<trkpt lat="49.628174" lon="10.00786">
<ele>256.639</ele>
<time>2019-05-30T13:32:47Z</time>
</trkpt>
<trkpt lat="49.628132" lon="10.007861">
<ele>256.718</ele>
<time>2019-05-30T13:32:48Z</time>
</trkpt>
<trkpt lat="49.628086" lon="10.007861">
<ele>256.768</ele>
<time>2019-05-30T13:32:49Z</time>
</trkpt>
<trkpt lat="49.62804" lon="10.007865">
<ele>256.793</ele>
<time>2019-05-30T13:32:50Z</time>
</trkpt>
<trkpt lat="49.628002" lon="10.007868">
<ele>256.793</ele>
<time>2019-05-30T13:32:51Z</time>
</trkpt>
<trkpt lat="49.627964" lon="10.007868">
<ele>256.793</ele>
<time>2019-05-30T13:32:52Z</time>
</trkpt>
<trkpt lat="49.627922" lon="10.00787">
<ele>256.793</ele>
<time>2019-05-30T13:32:53Z</time>
</trkpt>
<trkpt lat="49.62788" lon="10.007874">
<ele>256.793</ele>
<time>2019-05-30T13:32:54Z</time>
</trkpt>
<trkpt lat="49.627831" lon="10.007872">
<ele>256.793</ele>
<time>2019-05-30T13:32:55Z</time>
</trkpt>
<trkpt lat="49.627785" lon="10.007863">
<ele>256.793</ele>
<time>2019-05-30T13:32:56Z</time>
</trkpt>
<trkpt lat="49.627739" lon="10.007855">
<ele>256.793</ele>
<time>2019-05-30T13:32:57Z</time>
</trkpt>
<trkpt lat="49.627689" lon="10.007847">
<ele>256.793</ele>
<time>2019-05-30T13:32:58Z</time>
</trkpt>
<trkpt lat="49.627644" lon="10.00785">
<ele>256.793</ele>
<time>2019-05-30T13:32:59Z</time>
</trkpt>
<trkpt lat="49.627594" lon="10.007861">
<ele>256.793</ele>
<time>2019-05-30T13:33:00Z</time>
</trkpt>
<trkpt lat="49.627548" lon="10.007868">
<ele>256.793</ele>
<time>2019-05-30T13:33:01Z</time>
</trkpt>
<trkpt lat="49.627499" lon="10.007872">
<ele>256.793</ele>
<time>2019-05-30T13:33:02Z</time>
</trkpt>
<trkpt lat="49.627453" lon="10.007883">
<ele>256.793</ele>
<time>2019-05-30T13:33:03Z</time>
</trkpt>
<trkpt lat="49.627411" lon="10.007896">
<ele>256.793</ele>
<time>2019-05-30T13:33:04Z</time>
</trkpt>
<trkpt lat="49.627373" lon="10.007908">
<ele>256.793</ele>
<time>2019-05-30T13:33:05Z</time>
</trkpt>
<trkpt lat="49.627327" lon="10.007916">
<ele>256.793</ele>
<time>2019-05-30T13:33:06Z</time>
</trkpt>
<trkpt lat="49.627289" lon="10.007922">
<ele>256.793</ele>
<time>2019-05-30T13:33:07Z</time>
</trkpt>
<trkpt lat="49.627239" lon="10.007931">
<ele>256.793</ele>
<time>2019-05-30T13:33:08Z</time>
</trkpt>
<trkpt lat="49.627197" lon="10.007941">
<ele>256.793</ele>
<time>2019-05-30T13:33:09Z</time>
</trkpt>
<trkpt lat="49.627159" lon="10.00796">
<ele>256.793</ele>
<time>2019-05-30T13:33:10Z</time>
</trkpt>
<trkpt lat="49.627117" lon="10.007968">
<ele>256.793</ele>
<time>2019-05-30T13:33:11Z</time>
</trkpt>
<trkpt lat="49.627068" lon="10.007978">
<ele>256.793</ele>
<time>2019-05-30T13:33:12Z</time>
</trkpt>
<trkpt lat="49.627026" lon="10.007989">
<ele>256.793</ele>
<time>2019-05-30T13:33:13Z</time>
</trkpt>
<trkpt lat="49.626976" lon="10.008005">
<ele>256.793</ele>
<time>2019-05-30T13:33:14Z</time>
</trkpt>
<trkpt lat="49.626926" lon="10.008017">
<ele>257.032</ele>
<time>2019-05-30T13:33:15Z</time>
</trkpt>
<trkpt lat="49.626873" lon="10.008023">
<ele>257.219</ele>
<time>2019-05-30T13:33:16Z</time>
</trkpt>
<trkpt lat="49.626823" lon="10.008027">
<ele>257.35</ele>
<time>2019-05-30T13:33:17Z</time>
</trkpt>
<trkpt lat="49.626774" lon="10.008034">
<ele>257.484</ele>
<time>2019-05-30T13:33:18Z</time>
</trkpt>
<trkpt lat="49.626724" lon="10.008039">
<ele>257.581</ele>
<time>2019-05-30T13:33:19Z</time>
</trkpt>
<trkpt lat="49.626675" lon="10.008046">
<ele>257.652</ele>
<time>2019-05-30T13:33:20Z</time>
</trkpt>
<trkpt lat="49.626629" lon="10.008055">
<ele>257.7</ele>
<time>2019-05-30T13:33:21Z</time>
</trkpt>
<trkpt lat="49.626575" lon="10.008065">
<ele>257.722</ele>
<time>2019-05-30T13:33:22Z</time>
</trkpt>
<trkpt lat="49.626534" lon="10.008077">
<ele>257.722</ele>
<time>2019-05-30T13:33:23Z</time>
</trkpt>
<trkpt lat="49.626484" lon="10.008086">
<ele>257.722</ele>
<time>2019-05-30T13:33:24Z</time>
</trkpt>
<trkpt lat="49.626442" lon="10.008099">
<ele>257.722</ele>
<time>2019-05-30T13:33:25Z</time>
</trkpt>
<trkpt lat="49.6264" lon="10.008111">
<ele>257.722</ele>
<time>2019-05-30T13:33:26Z</time>
</trkpt>
<trkpt lat="49.626358" lon="10.008127">
<ele>257.722</ele>
<time>2019-05-30T13:33:27Z</time>
</trkpt>
<trkpt lat="49.626312" lon="10.008148">
<ele>257.721</ele>
<time>2019-05-30T13:33:28Z</time>
</trkpt>
<trkpt lat="49.62627" lon="10.00817">
<ele>257.722</ele>
<time>2019-05-30T13:33:29Z</time>
</trkpt>
<trkpt lat="49.626228" lon="10.00819">
<ele>257.722</ele>
<time>2019-05-30T13:33:30Z</time>
</trkpt>
<trkpt lat="49.626183" lon="10.008208">
<ele>257.722</ele>
<time>2019-05-30T13:33:31Z</time>
</trkpt>
<trkpt lat="49.626141" lon="10.00823">
<ele>257.722</ele>
<time>2019-05-30T13:33:32Z</time>
</trkpt>
<trkpt lat="49.626095" lon="10.008251">
<ele>257.722</ele>
<time>2019-05-30T13:33:33Z</time>
</trkpt>
<trkpt lat="49.626049" lon="10.008274">
<ele>257.722</ele>
<time>2019-05-30T13:33:34Z</time>
</trkpt>
<trkpt lat="49.626003" lon="10.008293">
<ele>257.722</ele>
<time>2019-05-30T13:33:35Z</time>
</trkpt>
<trkpt lat="49.625957" lon="10.008312">
<ele>257.722</ele>
<time>2019-05-30T13:33:36Z</time>
</trkpt>
<trkpt lat="49.625916" lon="10.008328">
<ele>257.722</ele>
<time>2019-05-30T13:33:37Z</time>
</trkpt>
<trkpt lat="49.625874" lon="10.008348">
<ele>257.722</ele>
<time>2019-05-30T13:33:38Z</time>
</trkpt>
<trkpt lat="49.625832" lon="10.008362">
<ele>257.722</ele>
<time>2019-05-30T13:33:39Z</time>
</trkpt>
<trkpt lat="49.625793" lon="10.00838">
<ele>257.722</ele>
<time>2019-05-30T13:33:40Z</time>
</trkpt>
<trkpt lat="49.625755" lon="10.008404">
<ele>257.722</ele>
<time>2019-05-30T13:33:41Z</time>
</trkpt>
<trkpt lat="49.625713" lon="10.008427">
<ele>257.722</ele>
<time>2019-05-30T13:33:42Z</time>
</trkpt>
<trkpt lat="49.625668" lon="10.008445">
<ele>257.722</ele>
<time>2019-05-30T13:33:43Z</time>
</trkpt>
<trkpt lat="49.625622" lon="10.008461">
<ele>257.722</ele>
<time>2019-05-30T13:33:44Z</time>
</trkpt>
<trkpt lat="49.625572" lon="10.008484">
<ele>257.722</ele>
<time>2019-05-30T13:33:45Z</time>
</trkpt>
<trkpt lat="49.625526" lon="10.008507">
<ele>257.722</ele>
<time>2019-05-30T13:33:46Z</time>
</trkpt>
<trkpt lat="49.625488" lon="10.00853">
<ele>257.722</ele>
<time>2019-05-30T13:33:47Z</time>
</trkpt>
<trkpt lat="49.625439" lon="10.008551">
<ele>257.722</ele>
<time>2019-05-30T13:33:48Z</time>
</trkpt>
<trkpt lat="49.625393" lon="10.00857">
<ele>257.722</ele>
<time>2019-05-30T13:33:49Z</time>
</trkpt>
<trkpt lat="49.625347" lon="10.008595">
<ele>257.722</ele>
<time>2019-05-30T13:33:50Z</time>
</trkpt>
<trkpt lat="49.625301" lon="10.00862">
<ele>257.722</ele>
<time>2019-05-30T13:33:51Z</time>
</trkpt>
<trkpt lat="49.625256" lon="10.00865">
<ele>257.722</ele>
<time>2019-05-30T13:33:52Z</time>
</trkpt>
<trkpt lat="49.625214" lon="10.008675">
<ele>257.722</ele>
<time>2019-05-30T13:33:53Z</time>
</trkpt>
<trkpt lat="49.625168" lon="10.008697">
<ele>257.722</ele>
<time>2019-05-30T13:33:54Z</time>
</trkpt>
<trkpt lat="49.625126" lon="10.008714">
<ele>257.721</ele>
<time>2019-05-30T13:33:55Z</time>
</trkpt>
<trkpt lat="49.625084" lon="10.008729">
<ele>257.962</ele>
<time>2019-05-30T13:33:56Z</time>
</trkpt>
<trkpt lat="49.625038" lon="10.008748">
<ele>258.136</ele>
<time>2019-05-30T13:33:57Z</time>
</trkpt>
<trkpt lat="49.625" lon="10.008766">
<ele>258.316</ele>
<time>2019-05-30T13:33:58Z</time>
</trkpt>
<trkpt lat="49.624954" lon="10.008785">
<ele>258.461</ele>
<time>2019-05-30T13:33:59Z</time>
</trkpt>
<trkpt lat="49.624908" lon="10.008808">
<ele>258.576</ele>
<time>2019-05-30T13:34:00Z</time>
</trkpt>
<trkpt lat="49.624866" lon="10.008832">
<ele>258.658</ele>
<time>2019-05-30T13:34:01Z</time>
</trkpt>
<trkpt lat="49.624825" lon="10.008855">
<ele>258.708</ele>
<time>2019-05-30T13:34:02Z</time>
</trkpt>
<trkpt lat="49.624786" lon="10.008873">
<ele>258.734</ele>
<time>2019-05-30T13:34:03Z</time>
</trkpt>
<trkpt lat="49.624744" lon="10.00889">
<ele>258.734</ele>
<time>2019-05-30T13:34:04Z</time>
</trkpt>
<trkpt lat="49.624706" lon="10.008908">
<ele>258.734</ele>
<time>2019-05-30T13:34:05Z</time>
</trkpt>
<trkpt lat="49.624668" lon="10.008925">
<ele>258.734</ele>
<time>2019-05-30T13:34:06Z</time>
</trkpt>
<trkpt lat="49.62463" lon="10.008941">
<ele>258.734</ele>
<time>2019-05-30T13:34:07Z</time>
</trkpt>
<trkpt lat="49.624592" lon="10.008953">
<ele>258.734</ele>
<time>2019-05-30T13:34:08Z</time>
</trkpt>
<trkpt lat="49.62455" lon="10.008974">
<ele>258.734</ele>
<time>2019-05-30T13:34:09Z</time>
</trkpt>
<trkpt lat="49.624508" lon="10.008993">
<ele>259.002</ele>
<time>2019-05-30T13:34:10Z</time>
</trkpt>
<trkpt lat="49.624458" lon="10.009015">
<ele>259.216</ele>
<time>2019-05-30T13:34:11Z</time>
</trkpt>
<trkpt lat="49.624413" lon="10.009037">
<ele>259.375</ele>
<time>2019-05-30T13:34:12Z</time>
</trkpt>
<trkpt lat="49.624363" lon="10.00906">
<ele>259.491</ele>
<time>2019-05-30T13:34:13Z</time>
</trkpt>
<trkpt lat="49.624321" lon="10.009077">
<ele>259.572</ele>
<time>2019-05-30T13:34:14Z</time>
</trkpt>
<trkpt lat="49.624275" lon="10.009097">
<ele>259.619</ele>
<time>2019-05-30T13:34:15Z</time>
</trkpt>
<trkpt lat="49.624226" lon="10.00912">
<ele>259.641</ele>
<time>2019-05-30T13:34:16Z</time>
</trkpt>
<trkpt lat="49.62418" lon="10.009146">
<ele>259.871</ele>
<time>2019-05-30T13:34:17Z</time>
</trkpt>
<trkpt lat="49.62413" lon="10.009173">
<ele>260.066</ele>
<time>2019-05-30T13:34:18Z</time>
</trkpt>
<trkpt lat="49.624088" lon="10.009198">
<ele>260.223</ele>
<time>2019-05-30T13:34:19Z</time>
</trkpt>
<trkpt lat="49.624043" lon="10.009221">
<ele>260.353</ele>
<time>2019-05-30T13:34:20Z</time>
</trkpt>
<trkpt lat="49.623997" lon="10.009244">
<ele>260.454</ele>
<time>2019-05-30T13:34:21Z</time>
</trkpt>
<trkpt lat="49.623955" lon="10.009263">
<ele>260.526</ele>
<time>2019-05-30T13:34:22Z</time>
</trkpt>
<trkpt lat="49.623909" lon="10.009282">
<ele>260.569</ele>
<time>2019-05-30T13:34:23Z</time>
</trkpt>
<trkpt lat="49.623867" lon="10.0093">
<ele>260.591</ele>
<time>2019-05-30T13:34:24Z</time>
</trkpt>
<trkpt lat="49.623821" lon="10.00932">
<ele>260.591</ele>
<time>2019-05-30T13:34:25Z</time>
</trkpt>
<trkpt lat="49.623775" lon="10.009341">
<ele>260.794</ele>
<time>2019-05-30T13:34:26Z</time>
</trkpt>
<trkpt lat="49.623734" lon="10.009363">
<ele>260.941</ele>
<time>2019-05-30T13:34:27Z</time>
</trkpt>
<trkpt lat="49.623688" lon="10.009383">
<ele>261.092</ele>
<time>2019-05-30T13:34:28Z</time>
</trkpt>
<trkpt lat="49.623642" lon="10.009407">
<ele>261.214</ele>
<time>2019-05-30T13:34:29Z</time>
</trkpt>
<trkpt lat="49.623596" lon="10.00943">
<ele>261.306</ele>
<time>2019-05-30T13:34:30Z</time>
</trkpt>
<trkpt lat="49.623554" lon="10.009454">
<ele>261.373</ele>
<time>2019-05-30T13:34:31Z</time>
</trkpt>
<trkpt lat="49.623508" lon="10.009475">
<ele>261.415</ele>
<time>2019-05-30T13:34:32Z</time>
</trkpt>
<trkpt lat="49.623466" lon="10.009496">
<ele>261.435</ele>
<time>2019-05-30T13:34:33Z</time>
</trkpt>
<trkpt lat="49.623421" lon="10.009515">
<ele>261.435</ele>
<time>2019-05-30T13:34:34Z</time>
</trkpt>
<trkpt lat="49.623375" lon="10.009537">
<ele>261.435</ele>
<time>2019-05-30T13:34:35Z</time>
</trkpt>
<trkpt lat="49.623337" lon="10.009557">
<ele>261.435</ele>
<time>2019-05-30T13:34:36Z</time>
</trkpt>
<trkpt lat="49.623291" lon="10.009578">
<ele>261.435</ele>
<time>2019-05-30T13:34:37Z</time>
</trkpt>
<trkpt lat="49.623245" lon="10.009599">
<ele>261.435</ele>
<time>2019-05-30T13:34:38Z</time>
</trkpt>
<trkpt lat="49.623203" lon="10.009617">
<ele>261.712</ele>
<time>2019-05-30T13:34:39Z</time>
</trkpt>
<trkpt lat="49.623158" lon="10.009635">
<ele>261.929</ele>
<time>2019-05-30T13:34:40Z</time>
</trkpt>
<trkpt lat="49.623112" lon="10.009657">
<ele>262.088</ele>
<time>2019-05-30T13:34:41Z</time>
</trkpt>
<trkpt lat="49.623062" lon="10.00968">
<ele>262.205</ele>
<time>2019-05-30T13:34:42Z</time>
</trkpt>
<trkpt lat="49.623016" lon="10.009702">
<ele>262.292</ele>
<time>2019-05-30T13:34:43Z</time>
</trkpt>
<trkpt lat="49.622974" lon="10.009725">
<ele>262.337</ele>
<time>2019-05-30T13:34:44Z</time>
</trkpt>
<trkpt lat="49.622925" lon="10.009747">
<ele>262.359</ele>
<time>2019-05-30T13:34:45Z</time>
</trkpt>
<trkpt lat="49.622883" lon="10.009767">
<ele>262.364</ele>
<time>2019-05-30T13:34:46Z</time>
</trkpt>
<trkpt lat="49.622833" lon="10.009789">
<ele>262.364</ele>
<time>2019-05-30T13:34:47Z</time>
</trkpt>
<trkpt lat="49.622787" lon="10.009813">
<ele>262.364</ele>
<time>2019-05-30T13:34:48Z</time>
</trkpt>
<trkpt lat="49.622742" lon="10.009835">
<ele>262.364</ele>
<time>2019-05-30T13:34:49Z</time>
</trkpt>
<trkpt lat="49.622692" lon="10.009858">
<ele>262.364</ele>
<time>2019-05-30T13:34:50Z</time>
</trkpt>
<trkpt lat="49.622646" lon="10.009879">
<ele>262.65</ele>
<time>2019-05-30T13:34:51Z</time>
</trkpt>
<trkpt lat="49.622601" lon="10.0099">
<ele>262.871</ele>
<time>2019-05-30T13:34:52Z</time>
</trkpt>
<trkpt lat="49.622555" lon="10.009921">
<ele>263.038</ele>
<time>2019-05-30T13:34:53Z</time>
</trkpt>
<trkpt lat="49.622509" lon="10.009944">
<ele>263.162</ele>
<time>2019-05-30T13:34:54Z</time>
</trkpt>
<trkpt lat="49.622463" lon="10.009965">
<ele>263.248</ele>
<time>2019-05-30T13:34:55Z</time>
</trkpt>
<trkpt lat="49.622421" lon="10.009988">
<ele>263.303</ele>
<time>2019-05-30T13:34:56Z</time>
</trkpt>
<trkpt lat="49.622375" lon="10.010009">
<ele>263.349</ele>
<time>2019-05-30T13:34:57Z</time>
</trkpt>
<trkpt lat="49.62233" lon="10.010028">
<ele>263.377</ele>
<time>2019-05-30T13:34:58Z</time>
</trkpt>
<trkpt lat="49.622284" lon="10.010054">
<ele>263.377</ele>
<time>2019-05-30T13:34:59Z</time>
</trkpt>
<trkpt lat="49.622242" lon="10.010075">
<ele>263.377</ele>
<time>2019-05-30T13:35:00Z</time>
</trkpt>
<trkpt lat="49.6222" lon="10.010095">
<ele>263.377</ele>
<time>2019-05-30T13:35:01Z</time>
</trkpt>
<trkpt lat="49.622154" lon="10.010116">
<ele>263.628</ele>
<time>2019-05-30T13:35:02Z</time>
</trkpt>
<trkpt lat="49.622108" lon="10.010137">
<ele>263.825</ele>
<time>2019-05-30T13:35:03Z</time>
</trkpt>
<trkpt lat="49.622066" lon="10.010156">
<ele>263.977</ele>
<time>2019-05-30T13:35:04Z</time>
</trkpt>
<trkpt lat="49.622021" lon="10.010175">
<ele>264.089</ele>
<time>2019-05-30T13:35:05Z</time>
</trkpt>
<trkpt lat="49.621979" lon="10.010197">
<ele>264.168</ele>
<time>2019-05-30T13:35:06Z</time>
</trkpt>
<trkpt lat="49.621933" lon="10.010219">
<ele>264.227</ele>
<time>2019-05-30T13:35:07Z</time>
</trkpt>
<trkpt lat="49.621887" lon="10.010238">
<ele>264.281</ele>
<time>2019-05-30T13:35:08Z</time>
</trkpt>
<trkpt lat="49.621845" lon="10.010261">
<ele>264.305</ele>
<time>2019-05-30T13:35:09Z</time>
</trkpt>
<trkpt lat="49.621799" lon="10.01028">
<ele>264.305</ele>
<time>2019-05-30T13:35:10Z</time>
</trkpt>
<trkpt lat="49.621758" lon="10.010303">
<ele>264.305</ele>
<time>2019-05-30T13:35:11Z</time>
</trkpt>
<trkpt lat="49.621716" lon="10.010325">
<ele>264.305</ele>
<time>2019-05-30T13:35:12Z</time>
</trkpt>
<trkpt lat="49.62167" lon="10.010346">
<ele>264.305</ele>
<time>2019-05-30T13:35:13Z</time>
</trkpt>
<trkpt lat="49.621628" lon="10.010368">
<ele>264.305</ele>
<time>2019-05-30T13:35:14Z</time>
</trkpt>
<trkpt lat="49.621582" lon="10.010388">
<ele>264.516</ele>
<time>2019-05-30T13:35:15Z</time>
</trkpt>
<trkpt lat="49.62154" lon="10.010411">
<ele>264.683</ele>
<time>2019-05-30T13:35:16Z</time>
</trkpt>
<trkpt lat="49.621494" lon="10.010434">
<ele>264.798</ele>
<time>2019-05-30T13:35:17Z</time>
</trkpt>
<trkpt lat="49.621452" lon="10.010453">
<ele>264.924</ele>
<time>2019-05-30T13:35:18Z</time>
</trkpt>
<trkpt lat="49.621407" lon="10.010471">
<ele>265.018</ele>
<time>2019-05-30T13:35:19Z</time>
</trkpt>
<trkpt lat="49.621368" lon="10.010491">
<ele>265.085</ele>
<time>2019-05-30T13:35:20Z</time>
</trkpt>
<trkpt lat="49.621326" lon="10.010509">
<ele>265.128</ele>
<time>2019-05-30T13:35:21Z</time>
</trkpt>
<trkpt lat="49.621288" lon="10.010531">
<ele>265.15</ele>
<time>2019-05-30T13:35:22Z</time>
</trkpt>
<trkpt lat="49.621246" lon="10.010547">
<ele>265.15</ele>
<time>2019-05-30T13:35:23Z</time>
</trkpt>
<trkpt lat="49.621201" lon="10.010564">
<ele>265.15</ele>
<time>2019-05-30T13:35:24Z</time>
</trkpt>
<trkpt lat="49.621159" lon="10.010578">
<ele>265.381</ele>
<time>2019-05-30T13:35:25Z</time>
</trkpt>
<trkpt lat="49.621113" lon="10.0106">
<ele>265.566</ele>
<time>2019-05-30T13:35:26Z</time>
</trkpt>
<trkpt lat="49.621071" lon="10.01062">
<ele>265.696</ele>
<time>2019-05-30T13:35:27Z</time>
</trkpt>
<trkpt lat="49.621025" lon="10.010642">
<ele>265.836</ele>
<time>2019-05-30T13:35:28Z</time>
</trkpt>
<trkpt lat="49.620975" lon="10.010663">
<ele>265.938</ele>
<time>2019-05-30T13:35:29Z</time>
</trkpt>
<trkpt lat="49.620934" lon="10.010681">
<ele>266.004</ele>
<time>2019-05-30T13:35:30Z</time>
</trkpt>
<trkpt lat="49.620892" lon="10.010702">
<ele>266.283</ele>
<time>2019-05-30T13:35:31Z</time>
</trkpt>
<trkpt lat="49.620846" lon="10.010725">
<ele>266.495</ele>
<time>2019-05-30T13:35:32Z</time>
</trkpt>
<trkpt lat="49.6208" lon="10.010749">
<ele>266.698</ele>
<time>2019-05-30T13:35:33Z</time>
</trkpt>
<trkpt lat="49.620762" lon="10.010772">
<ele>266.806</ele>
<time>2019-05-30T13:35:34Z</time>
</trkpt>
<trkpt lat="49.62072" lon="10.010793">
<ele>266.886</ele>
<time>2019-05-30T13:35:35Z</time>
</trkpt>
<trkpt lat="49.620674" lon="10.010814">
<ele>266.938</ele>
<time>2019-05-30T13:35:36Z</time>
</trkpt>
<trkpt lat="49.620636" lon="10.010832">
<ele>266.98</ele>
<time>2019-05-30T13:35:37Z</time>
</trkpt>
<trkpt lat="49.620594" lon="10.010847">
<ele>267.008</ele>
<time>2019-05-30T13:35:38Z</time>
</trkpt>
<trkpt lat="49.620548" lon="10.010865">
<ele>267.008</ele>
<time>2019-05-30T13:35:39Z</time>
</trkpt>
<trkpt lat="49.620506" lon="10.010883">
<ele>267.008</ele>
<time>2019-05-30T13:35:40Z</time>
</trkpt>
<trkpt lat="49.620461" lon="10.010903">
<ele>267.008</ele>
<time>2019-05-30T13:35:41Z</time>
</trkpt>
<trkpt lat="49.620415" lon="10.010922">
<ele>267.264</ele>
<time>2019-05-30T13:35:42Z</time>
</trkpt>
<trkpt lat="49.620377" lon="10.010942">
<ele>267.46</ele>
<time>2019-05-30T13:35:43Z</time>
</trkpt>
<trkpt lat="49.620327" lon="10.010959">
<ele>267.613</ele>
<time>2019-05-30T13:35:44Z</time>
</trkpt>
<trkpt lat="49.620285" lon="10.010973">
<ele>267.724</ele>
<time>2019-05-30T13:35:45Z</time>
</trkpt>
<trkpt lat="49.620243" lon="10.01099">
<ele>267.805</ele>
<time>2019-05-30T13:35:46Z</time>
</trkpt>
<trkpt lat="49.620197" lon="10.011008">
<ele>267.859</ele>
<time>2019-05-30T13:35:47Z</time>
</trkpt>
<trkpt lat="49.620155" lon="10.011025">
<ele>267.912</ele>
<time>2019-05-30T13:35:48Z</time>
</trkpt>
<trkpt lat="49.620113" lon="10.011038">
<ele>267.937</ele>
<time>2019-05-30T13:35:49Z</time>
</trkpt>
<trkpt lat="49.620068" lon="10.011053">
<ele>267.937</ele>
<time>2019-05-30T13:35:50Z</time>
</trkpt>
<trkpt lat="49.620022" lon="10.011065">
<ele>268.173</ele>
<time>2019-05-30T13:35:51Z</time>
</trkpt>
<trkpt lat="49.619976" lon="10.011077">
<ele>268.36</ele>
<time>2019-05-30T13:35:52Z</time>
</trkpt>
<trkpt lat="49.619934" lon="10.011092">
<ele>268.502</ele>
<time>2019-05-30T13:35:53Z</time>
</trkpt>
<trkpt lat="49.619888" lon="10.011108">
<ele>268.605</ele>
<time>2019-05-30T13:35:54Z</time>
</trkpt>
<trkpt lat="49.61985" lon="10.011124">
<ele>268.677</ele>
<time>2019-05-30T13:35:55Z</time>
</trkpt>
<trkpt lat="49.619804" lon="10.011136">
<ele>268.722</ele>
<time>2019-05-30T13:35:56Z</time>
</trkpt>
<trkpt lat="49.619759" lon="10.011145">
<ele>268.759</ele>
<time>2019-05-30T13:35:57Z</time>
</trkpt>
<trkpt lat="49.619713" lon="10.011157">
<ele>268.782</ele>
<time>2019-05-30T13:35:58Z</time>
</trkpt>
<trkpt lat="49.619667" lon="10.011168">
<ele>268.782</ele>
<time>2019-05-30T13:35:59Z</time>
</trkpt>
<trkpt lat="49.619617" lon="10.01118">
<ele>268.782</ele>
<time>2019-05-30T13:36:00Z</time>
</trkpt>
<trkpt lat="49.619572" lon="10.011193">
<ele>268.782</ele>
<time>2019-05-30T13:36:01Z</time>
</trkpt>
<trkpt lat="49.61953" lon="10.011205">
<ele>268.782</ele>
<time>2019-05-30T13:36:02Z</time>
</trkpt>
<trkpt lat="49.61948" lon="10.011218">
<ele>268.782</ele>
<time>2019-05-30T13:36:03Z</time>
</trkpt>
<trkpt lat="49.619434" lon="10.011232">
<ele>269.043</ele>
<time>2019-05-30T13:36:04Z</time>
</trkpt>
<trkpt lat="49.619392" lon="10.01124">
<ele>269.247</ele>
<time>2019-05-30T13:36:05Z</time>
</trkpt>
<trkpt lat="49.619347" lon="10.011245">
<ele>269.401</ele>
<time>2019-05-30T13:36:06Z</time>
</trkpt>
<trkpt lat="49.619301" lon="10.011251">
<ele>269.511</ele>
<time>2019-05-30T13:36:07Z</time>
</trkpt>
<trkpt lat="49.619259" lon="10.011258">
<ele>269.628</ele>
<time>2019-05-30T13:36:08Z</time>
</trkpt>
<trkpt lat="49.619213" lon="10.011265">
<ele>269.716</ele>
<time>2019-05-30T13:36:09Z</time>
</trkpt>
<trkpt lat="49.619171" lon="10.011272">
<ele>269.77</ele>
<time>2019-05-30T13:36:10Z</time>
</trkpt>
<trkpt lat="49.619125" lon="10.011281">
<ele>269.796</ele>
<time>2019-05-30T13:36:11Z</time>
</trkpt>
<trkpt lat="49.61908" lon="10.011287">
<ele>269.796</ele>
<time>2019-05-30T13:36:12Z</time>
</trkpt>
<trkpt lat="49.619041" lon="10.011293">
<ele>269.796</ele>
<time>2019-05-30T13:36:13Z</time>
</trkpt>
<trkpt lat="49.618992" lon="10.0113">
<ele>270.056</ele>
<time>2019-05-30T13:36:14Z</time>
</trkpt>
<trkpt lat="49.618946" lon="10.011306">
<ele>270.261</ele>
<time>2019-05-30T13:36:15Z</time>
</trkpt>
<trkpt lat="49.618904" lon="10.011312">
<ele>270.42</ele>
<time>2019-05-30T13:36:16Z</time>
</trkpt>
<trkpt lat="49.618855" lon="10.011316">
<ele>270.529</ele>
<time>2019-05-30T13:36:17Z</time>
</trkpt>
<trkpt lat="49.618813" lon="10.011318">
<ele>270.645</ele>
<time>2019-05-30T13:36:18Z</time>
</trkpt>
<trkpt lat="49.618763" lon="10.011316">
<ele>270.731</ele>
<time>2019-05-30T13:36:19Z</time>
</trkpt>
<trkpt lat="49.618713" lon="10.011318">
<ele>270.784</ele>
<time>2019-05-30T13:36:20Z</time>
</trkpt>
<trkpt lat="49.618671" lon="10.011318">
<ele>270.809</ele>
<time>2019-05-30T13:36:21Z</time>
</trkpt>
<trkpt lat="49.618626" lon="10.011318">
<ele>270.809</ele>
<time>2019-05-30T13:36:22Z</time>
</trkpt>
<trkpt lat="49.61858" lon="10.011322">
<ele>270.809</ele>
<time>2019-05-30T13:36:23Z</time>
</trkpt>
<trkpt lat="49.618534" lon="10.011322">
<ele>270.809</ele>
<time>2019-05-30T13:36:24Z</time>
</trkpt>
<trkpt lat="49.618484" lon="10.011325">
<ele>270.809</ele>
<time>2019-05-30T13:36:25Z</time>
</trkpt>
<trkpt lat="49.618443" lon="10.011327">
<ele>271.034</ele>
<time>2019-05-30T13:36:26Z</time>
</trkpt>
<trkpt lat="49.618393" lon="10.011329">
<ele>271.196</ele>
<time>2019-05-30T13:36:27Z</time>
</trkpt>
<trkpt lat="49.618351" lon="10.011331">
<ele>271.361</ele>
<time>2019-05-30T13:36:28Z</time>
</trkpt>
<trkpt lat="49.618305" lon="10.011329">
<ele>271.494</ele>
<time>2019-05-30T13:36:29Z</time>
</trkpt>
<trkpt lat="49.618259" lon="10.011332">
<ele>271.595</ele>
<time>2019-05-30T13:36:30Z</time>
</trkpt>
<trkpt lat="49.618214" lon="10.011333">
<ele>271.669</ele>
<time>2019-05-30T13:36:31Z</time>
</trkpt>
<trkpt lat="49.618164" lon="10.011335">
<ele>271.716</ele>
<time>2019-05-30T13:36:32Z</time>
</trkpt>
<trkpt lat="49.618122" lon="10.011337">
<ele>271.739</ele>
<time>2019-05-30T13:36:33Z</time>
</trkpt>
<trkpt lat="49.618076" lon="10.011338">
<ele>271.739</ele>
<time>2019-05-30T13:36:34Z</time>
</trkpt>
<trkpt lat="49.618031" lon="10.011342">
<ele>271.739</ele>
<time>2019-05-30T13:36:35Z</time>
</trkpt>
<trkpt lat="49.617985" lon="10.011342">
<ele>271.739</ele>
<time>2019-05-30T13:36:36Z</time>
</trkpt>
<trkpt lat="49.617939" lon="10.011342">
<ele>271.739</ele>
<time>2019-05-30T13:36:37Z</time>
</trkpt>
<trkpt lat="49.617893" lon="10.01134">
<ele>271.739</ele>
<time>2019-05-30T13:36:38Z</time>
</trkpt>
<trkpt lat="49.617844" lon="10.01134">
<ele>271.739</ele>
<time>2019-05-30T13:36:39Z</time>
</trkpt>
<trkpt lat="49.617802" lon="10.011338">
<ele>271.739</ele>
<time>2019-05-30T13:36:40Z</time>
</trkpt>
<trkpt lat="49.617752" lon="10.011335">
<ele>271.739</ele>
<time>2019-05-30T13:36:41Z</time>
</trkpt>
<trkpt lat="49.617706" lon="10.011333">
<ele>271.968</ele>
<time>2019-05-30T13:36:42Z</time>
</trkpt>
<trkpt lat="49.617664" lon="10.011331">
<ele>272.148</ele>
<time>2019-05-30T13:36:43Z</time>
</trkpt>
<trkpt lat="49.617619" lon="10.011327">
<ele>272.283</ele>
<time>2019-05-30T13:36:44Z</time>
</trkpt>
<trkpt lat="49.617573" lon="10.011325">
<ele>272.387</ele>
<time>2019-05-30T13:36:45Z</time>
</trkpt>
<trkpt lat="49.617527" lon="10.011325">
<ele>272.458</ele>
<time>2019-05-30T13:36:46Z</time>
</trkpt>
<trkpt lat="49.617481" lon="10.01132">
<ele>272.512</ele>
<time>2019-05-30T13:36:47Z</time>
</trkpt>
<trkpt lat="49.617439" lon="10.01131">
<ele>272.56</ele>
<time>2019-05-30T13:36:48Z</time>
</trkpt>
<trkpt lat="49.61739" lon="10.011302">
<ele>272.584</ele>
<time>2019-05-30T13:36:49Z</time>
</trkpt>
<trkpt lat="49.617344" lon="10.011297">
<ele>272.584</ele>
<time>2019-05-30T13:36:50Z</time>
</trkpt>
<trkpt lat="49.617298" lon="10.01129">
<ele>272.584</ele>
<time>2019-05-30T13:36:51Z</time>
</trkpt>
<trkpt lat="49.617249" lon="10.011285">
<ele>272.584</ele>
<time>2019-05-30T13:36:52Z</time>
</trkpt>
<trkpt lat="49.617207" lon="10.01128">
<ele>272.584</ele>
<time>2019-05-30T13:36:53Z</time>
</trkpt>
<trkpt lat="49.617157" lon="10.011273">
<ele>272.584</ele>
<time>2019-05-30T13:36:54Z</time>
</trkpt>
<trkpt lat="49.617111" lon="10.011264">
<ele>272.584</ele>
<time>2019-05-30T13:36:55Z</time>
</trkpt>
<trkpt lat="49.617065" lon="10.011253">
<ele>272.831</ele>
<time>2019-05-30T13:36:56Z</time>
</trkpt>
<trkpt lat="49.617023" lon="10.011241">
<ele>273.006</ele>
<time>2019-05-30T13:36:57Z</time>
</trkpt>
<trkpt lat="49.616985" lon="10.011232">
<ele>273.185</ele>
<time>2019-05-30T13:36:58Z</time>
</trkpt>
<trkpt lat="49.616943" lon="10.011224">
<ele>273.328</ele>
<time>2019-05-30T13:36:59Z</time>
</trkpt>
<trkpt lat="49.616898" lon="10.011216">
<ele>273.44</ele>
<time>2019-05-30T13:37:00Z</time>
</trkpt>
<trkpt lat="49.616856" lon="10.011208">
<ele>273.519</ele>
<time>2019-05-30T13:37:01Z</time>
</trkpt>
<trkpt lat="49.616814" lon="10.011202">
<ele>273.572</ele>
<time>2019-05-30T13:37:02Z</time>
</trkpt>
<trkpt lat="49.616772" lon="10.011195">
<ele>273.598</ele>
<time>2019-05-30T13:37:03Z</time>
</trkpt>
<trkpt lat="49.61673" lon="10.011187">
<ele>273.598</ele>
<time>2019-05-30T13:37:04Z</time>
</trkpt>
<trkpt lat="49.616688" lon="10.011178">
<ele>273.83</ele>
<time>2019-05-30T13:37:05Z</time>
</trkpt>
<trkpt lat="49.616642" lon="10.011168">
<ele>274.015</ele>
<time>2019-05-30T13:37:06Z</time>
</trkpt>
<trkpt lat="49.616596" lon="10.011157">
<ele>274.141</ele>
<time>2019-05-30T13:37:07Z</time>
</trkpt>
<trkpt lat="49.616554" lon="10.011143">
<ele>274.277</ele>
<time>2019-05-30T13:37:08Z</time>
</trkpt>
<trkpt lat="49.616512" lon="10.01113">
<ele>274.381</ele>
<time>2019-05-30T13:37:09Z</time>
</trkpt>
<trkpt lat="49.61647" lon="10.011115">
<ele>274.457</ele>
<time>2019-05-30T13:37:10Z</time>
</trkpt>
<trkpt lat="49.616425" lon="10.011098">
<ele>274.505</ele>
<time>2019-05-30T13:37:11Z</time>
</trkpt>
<trkpt lat="49.616379" lon="10.011082">
<ele>274.528</ele>
<time>2019-05-30T13:37:12Z</time>
</trkpt>
<trkpt lat="49.616333" lon="10.011063">
<ele>274.528</ele>
<time>2019-05-30T13:37:13Z</time>
</trkpt>
<trkpt lat="49.616287" lon="10.011045">
<ele>274.528</ele>
<time>2019-05-30T13:37:14Z</time>
</trkpt>
<trkpt lat="49.616241" lon="10.011029">
<ele>274.528</ele>
<time>2019-05-30T13:37:15Z</time>
</trkpt>
<trkpt lat="49.616199" lon="10.011019">
<ele>274.528</ele>
<time>2019-05-30T13:37:16Z</time>
</trkpt>
<trkpt lat="49.616154" lon="10.011004">
<ele>274.774</ele>
<time>2019-05-30T13:37:17Z</time>
</trkpt>
<trkpt lat="49.616108" lon="10.01099">
<ele>275.003</ele>
<time>2019-05-30T13:37:18Z</time>
</trkpt>
<trkpt lat="49.616066" lon="10.010975">
<ele>275.19</ele>
<time>2019-05-30T13:37:19Z</time>
</trkpt>
<trkpt lat="49.61602" lon="10.01096">
<ele>275.342</ele>
<time>2019-05-30T13:37:20Z</time>
</trkpt>
<trkpt lat="49.615974" lon="10.010942">
<ele>275.458</ele>
<time>2019-05-30T13:37:21Z</time>
</trkpt>
<trkpt lat="49.615929" lon="10.010923">
<ele>275.545</ele>
<time>2019-05-30T13:37:22Z</time>
</trkpt>
<trkpt lat="49.615887" lon="10.010903">
<ele>275.6</ele>
<time>2019-05-30T13:37:23Z</time>
</trkpt>
<trkpt lat="49.615841" lon="10.010887">
<ele>275.626</ele>
<time>2019-05-30T13:37:24Z</time>
</trkpt>
<trkpt lat="49.615795" lon="10.010868">
<ele>275.626</ele>
<time>2019-05-30T13:37:25Z</time>
</trkpt>
<trkpt lat="49.615753" lon="10.01085">
<ele>275.626</ele>
<time>2019-05-30T13:37:26Z</time>
</trkpt>
<trkpt lat="49.615711" lon="10.01083">
<ele>275.832</ele>
<time>2019-05-30T13:37:27Z</time>
</trkpt>
<trkpt lat="49.615665" lon="10.010809">
<ele>276.027</ele>
<time>2019-05-30T13:37:28Z</time>
</trkpt>
<trkpt lat="49.615623" lon="10.01079">
<ele>276.187</ele>
<time>2019-05-30T13:37:29Z</time>
</trkpt>
<trkpt lat="49.615582" lon="10.01077">
<ele>276.315</ele>
<time>2019-05-30T13:37:30Z</time>
</trkpt>
<trkpt lat="49.61554" lon="10.010752">
<ele>276.415</ele>
<time>2019-05-30T13:37:31Z</time>
</trkpt>
<trkpt lat="49.615498" lon="10.010732">
<ele>276.486</ele>
<time>2019-05-30T13:37:32Z</time>
</trkpt>
<trkpt lat="49.615456" lon="10.010709">
<ele>276.534</ele>
<time>2019-05-30T13:37:33Z</time>
</trkpt>
<trkpt lat="49.615414" lon="10.010688">
<ele>276.556</ele>
<time>2019-05-30T13:37:34Z</time>
</trkpt>
<trkpt lat="49.615372" lon="10.010665">
<ele>276.556</ele>
<time>2019-05-30T13:37:35Z</time>
</trkpt>
<trkpt lat="49.615326" lon="10.010644">
<ele>276.556</ele>
<time>2019-05-30T13:37:36Z</time>
</trkpt>
<trkpt lat="49.615292" lon="10.010623">
<ele>276.556</ele>
<time>2019-05-30T13:37:37Z</time>
</trkpt>
<trkpt lat="49.615246" lon="10.0106">
<ele>276.556</ele>
<time>2019-05-30T13:37:38Z</time>
</trkpt>
<trkpt lat="49.615204" lon="10.010575">
<ele>276.556</ele>
<time>2019-05-30T13:37:39Z</time>
</trkpt>
<trkpt lat="49.615162" lon="10.010551">
<ele>276.556</ele>
<time>2019-05-30T13:37:40Z</time>
</trkpt>
<trkpt lat="49.615124" lon="10.010529">
<ele>276.817</ele>
<time>2019-05-30T13:37:41Z</time>
</trkpt>
<trkpt lat="49.615082" lon="10.010507">
<ele>277.02</ele>
<time>2019-05-30T13:37:42Z</time>
</trkpt>
<trkpt lat="49.61504" lon="10.010482">
<ele>277.171</ele>
<time>2019-05-30T13:37:43Z</time>
</trkpt>
<trkpt lat="49.614998" lon="10.010457">
<ele>277.286</ele>
<time>2019-05-30T13:37:44Z</time>
</trkpt>
<trkpt lat="49.614956" lon="10.010434">
<ele>277.367</ele>
<time>2019-05-30T13:37:45Z</time>
</trkpt>
<trkpt lat="49.614914" lon="10.010408">
<ele>277.419</ele>
<time>2019-05-30T13:37:46Z</time>
</trkpt>
<trkpt lat="49.614872" lon="10.010385">
<ele>277.46</ele>
<time>2019-05-30T13:37:47Z</time>
</trkpt>
<trkpt lat="49.61483" lon="10.010364">
<ele>277.486</ele>
<time>2019-05-30T13:37:48Z</time>
</trkpt>
<trkpt lat="49.614784" lon="10.010342">
<ele>277.486</ele>
<time>2019-05-30T13:37:49Z</time>
</trkpt>
<trkpt lat="49.614738" lon="10.010317">
<ele>277.486</ele>
<time>2019-05-30T13:37:50Z</time>
</trkpt>
<trkpt lat="49.6147" lon="10.010292">
<ele>277.486</ele>
<time>2019-05-30T13:37:51Z</time>
</trkpt>
<trkpt lat="49.614655" lon="10.010268">
<ele>277.486</ele>
<time>2019-05-30T13:37:52Z</time>
</trkpt>
<trkpt lat="49.614613" lon="10.010243">
<ele>277.486</ele>
<time>2019-05-30T13:37:53Z</time>
</trkpt>
<trkpt lat="49.614571" lon="10.010219">
<ele>277.486</ele>
<time>2019-05-30T13:37:54Z</time>
</trkpt>
<trkpt lat="49.614529" lon="10.010193">
<ele>277.486</ele>
<time>2019-05-30T13:37:55Z</time>
</trkpt>
<trkpt lat="49.614479" lon="10.010168">
<ele>277.486</ele>
<time>2019-05-30T13:37:56Z</time>
</trkpt>
<trkpt lat="49.614437" lon="10.010141">
<ele>277.486</ele>
<time>2019-05-30T13:37:57Z</time>
</trkpt>
<trkpt lat="49.614391" lon="10.010117">
<ele>277.486</ele>
<time>2019-05-30T13:37:58Z</time>
</trkpt>
<trkpt lat="49.614346" lon="10.01009">
<ele>277.486</ele>
<time>2019-05-30T13:37:59Z</time>
</trkpt>
<trkpt lat="49.6143" lon="10.010065">
<ele>277.486</ele>
<time>2019-05-30T13:38:00Z</time>
</trkpt>
<trkpt lat="49.61425" lon="10.01004">
<ele>277.486</ele>
<time>2019-05-30T13:38:01Z</time>
</trkpt>
<trkpt lat="49.614208" lon="10.010015">
<ele>277.486</ele>
<time>2019-05-30T13:38:02Z</time>
</trkpt>
<trkpt lat="49.614162" lon="10.009988">
<ele>277.486</ele>
<time>2019-05-30T13:38:03Z</time>
</trkpt>
<trkpt lat="49.614117" lon="10.009963">
<ele>277.486</ele>
<time>2019-05-30T13:38:04Z</time>
</trkpt>
<trkpt lat="49.614079" lon="10.009938">
<ele>277.486</ele>
<time>2019-05-30T13:38:05Z</time>
</trkpt>
<trkpt lat="49.614033" lon="10.009913">
<ele>277.69</ele>
<time>2019-05-30T13:38:06Z</time>
</trkpt>
<trkpt lat="49.613987" lon="10.009892">
<ele>277.836</ele>
<time>2019-05-30T13:38:07Z</time>
</trkpt>
<trkpt lat="49.613945" lon="10.009869">
<ele>277.985</ele>
<time>2019-05-30T13:38:08Z</time>
</trkpt>
<trkpt lat="49.613899" lon="10.009846">
<ele>278.106</ele>
<time>2019-05-30T13:38:09Z</time>
</trkpt>
<trkpt lat="49.613853" lon="10.009822">
<ele>278.2</ele>
<time>2019-05-30T13:38:10Z</time>
</trkpt>
<trkpt lat="49.613808" lon="10.009798">
<ele>278.268</ele>
<time>2019-05-30T13:38:11Z</time>
</trkpt>
<trkpt lat="49.613762" lon="10.009776">
<ele>278.311</ele>
<time>2019-05-30T13:38:12Z</time>
</trkpt>
<trkpt lat="49.61372" lon="10.009753">
<ele>278.332</ele>
<time>2019-05-30T13:38:13Z</time>
</trkpt>
<trkpt lat="49.613674" lon="10.00973">
<ele>278.332</ele>
<time>2019-05-30T13:38:14Z</time>
</trkpt>
<trkpt lat="49.613628" lon="10.009708">
<ele>278.332</ele>
<time>2019-05-30T13:38:15Z</time>
</trkpt>
<trkpt lat="49.613594" lon="10.009686">
<ele>278.332</ele>
<time>2019-05-30T13:38:16Z</time>
</trkpt>
<trkpt lat="49.613552" lon="10.009662">
<ele>278.332</ele>
<time>2019-05-30T13:38:17Z</time>
</trkpt>
<trkpt lat="49.613514" lon="10.009636">
<ele>278.332</ele>
<time>2019-05-30T13:38:18Z</time>
</trkpt>
<trkpt lat="49.613472" lon="10.009611">
<ele>278.332</ele>
<time>2019-05-30T13:38:19Z</time>
</trkpt>
<trkpt lat="49.61343" lon="10.009585">
<ele>278.068</ele>
<time>2019-05-30T13:38:20Z</time>
</trkpt>
<trkpt lat="49.613388" lon="10.009559">
<ele>277.861</ele>
<time>2019-05-30T13:38:21Z</time>
</trkpt>
<trkpt lat="49.613346" lon="10.009535">
<ele>277.915</ele>
<time>2019-05-30T13:38:22Z</time>
</trkpt>
<trkpt lat="49.613308" lon="10.009512">
<ele>277.966</ele>
<time>2019-05-30T13:38:23Z</time>
</trkpt>
<trkpt lat="49.61327" lon="10.009492">
<ele>278.017</ele>
<time>2019-05-30T13:38:24Z</time>
</trkpt>
<trkpt lat="49.613235" lon="10.009472">
<ele>278.064</ele>
<time>2019-05-30T13:38:25Z</time>
</trkpt>
<trkpt lat="49.613197" lon="10.00945">
<ele>278.109</ele>
<time>2019-05-30T13:38:26Z</time>
</trkpt>
<trkpt lat="49.613159" lon="10.009428">
<ele>278.147</ele>
<time>2019-05-30T13:38:27Z</time>
</trkpt>
<trkpt lat="49.613129" lon="10.00941">
<ele>278.175</ele>
<time>2019-05-30T13:38:28Z</time>
</trkpt>
<trkpt lat="49.613098" lon="10.009392">
<ele>278.223</ele>
<time>2019-05-30T13:38:29Z</time>
</trkpt>
<trkpt lat="49.613071" lon="10.009377">
<ele>278.247</ele>
<time>2019-05-30T13:38:30Z</time>
</trkpt>
<trkpt lat="49.613045" lon="10.009357">
<ele>278.247</ele>
<time>2019-05-30T13:38:31Z</time>
</trkpt>
<trkpt lat="49.613022" lon="10.009335">
<ele>278.247</ele>
<time>2019-05-30T13:38:32Z</time>
</trkpt>
<trkpt lat="49.612999" lon="10.009315">
<ele>278.247</ele>
<time>2019-05-30T13:38:33Z</time>
</trkpt>
<trkpt lat="49.612961" lon="10.009293">
<ele>278.247</ele>
<time>2019-05-30T13:38:34Z</time>
</trkpt>
<trkpt lat="49.612923" lon="10.009272">
<ele>278.247</ele>
<time>2019-05-30T13:38:35Z</time>
</trkpt>
<trkpt lat="49.612885" lon="10.009252">
<ele>278.247</ele>
<time>2019-05-30T13:38:36Z</time>
</trkpt>
<trkpt lat="49.612843" lon="10.00923">
<ele>278.247</ele>
<time>2019-05-30T13:38:37Z</time>
</trkpt>
<trkpt lat="49.612801" lon="10.009207">
<ele>278.247</ele>
<time>2019-05-30T13:38:38Z</time>
</trkpt>
<trkpt lat="49.612755" lon="10.009182">
<ele>278.247</ele>
<time>2019-05-30T13:38:39Z</time>
</trkpt>
<trkpt lat="49.612717" lon="10.009158">
<ele>278.247</ele>
<time>2019-05-30T13:38:40Z</time>
</trkpt>
<trkpt lat="49.612667" lon="10.009135">
<ele>278.247</ele>
<time>2019-05-30T13:38:41Z</time>
</trkpt>
<trkpt lat="49.612617" lon="10.00911">
<ele>278.247</ele>
<time>2019-05-30T13:38:42Z</time>
</trkpt>
<trkpt lat="49.612572" lon="10.009087">
<ele>278.247</ele>
<time>2019-05-30T13:38:43Z</time>
</trkpt>
<trkpt lat="49.612522" lon="10.00906">
<ele>278.247</ele>
<time>2019-05-30T13:38:44Z</time>
</trkpt>
<trkpt lat="49.612476" lon="10.009032">
<ele>278.247</ele>
<time>2019-05-30T13:38:45Z</time>
</trkpt>
<trkpt lat="49.612427" lon="10.009002">
<ele>278.247</ele>
<time>2019-05-30T13:38:46Z</time>
</trkpt>
<trkpt lat="49.612381" lon="10.008974">
<ele>278.017</ele>
<time>2019-05-30T13:38:47Z</time>
</trkpt>
<trkpt lat="49.612331" lon="10.008948">
<ele>277.802</ele>
<time>2019-05-30T13:38:48Z</time>
</trkpt>
<trkpt lat="49.612286" lon="10.008924">
<ele>277.63</ele>
<time>2019-05-30T13:38:49Z</time>
</trkpt>
<trkpt lat="49.612236" lon="10.008897">
<ele>277.49</ele>
<time>2019-05-30T13:38:50Z</time>
</trkpt>
<trkpt lat="49.61219" lon="10.00887">
<ele>277.384</ele>
<time>2019-05-30T13:38:51Z</time>
</trkpt>
<trkpt lat="49.612141" lon="10.008842">
<ele>277.306</ele>
<time>2019-05-30T13:38:52Z</time>
</trkpt>
<trkpt lat="49.612091" lon="10.008812">
<ele>277.257</ele>
<time>2019-05-30T13:38:53Z</time>
</trkpt>
<trkpt lat="49.612038" lon="10.008783">
<ele>277.233</ele>
<time>2019-05-30T13:38:54Z</time>
</trkpt>
<trkpt lat="49.611992" lon="10.008755">
<ele>277.233</ele>
<time>2019-05-30T13:38:55Z</time>
</trkpt>
<trkpt lat="49.611938" lon="10.008729">
<ele>277.233</ele>
<time>2019-05-30T13:38:56Z</time>
</trkpt>
<trkpt lat="49.611893" lon="10.008701">
<ele>277.233</ele>
<time>2019-05-30T13:38:57Z</time>
</trkpt>
<trkpt lat="49.611843" lon="10.008677">
<ele>277.233</ele>
<time>2019-05-30T13:38:58Z</time>
</trkpt>
<trkpt lat="49.611797" lon="10.00865">
<ele>276.956</ele>
<time>2019-05-30T13:38:59Z</time>
</trkpt>
<trkpt lat="49.611748" lon="10.008622">
<ele>276.745</ele>
<time>2019-05-30T13:39:00Z</time>
</trkpt>
<trkpt lat="49.611702" lon="10.008596">
<ele>276.582</ele>
<time>2019-05-30T13:39:01Z</time>
</trkpt>
<trkpt lat="49.611656" lon="10.00857">
<ele>276.46</ele>
<time>2019-05-30T13:39:02Z</time>
</trkpt>
<trkpt lat="49.611607" lon="10.008543">
<ele>276.381</ele>
<time>2019-05-30T13:39:03Z</time>
</trkpt>
<trkpt lat="49.611565" lon="10.008517">
<ele>276.331</ele>
<time>2019-05-30T13:39:04Z</time>
</trkpt>
<trkpt lat="49.611515" lon="10.00849">
<ele>276.306</ele>
<time>2019-05-30T13:39:05Z</time>
</trkpt>
<trkpt lat="49.611469" lon="10.008463">
<ele>276.302</ele>
<time>2019-05-30T13:39:06Z</time>
</trkpt>
<trkpt lat="49.611416" lon="10.008435">
<ele>276.302</ele>
<time>2019-05-30T13:39:07Z</time>
</trkpt>
<trkpt lat="49.611366" lon="10.008405">
<ele>276.072</ele>
<time>2019-05-30T13:39:08Z</time>
</trkpt>
<trkpt lat="49.611317" lon="10.008375">
<ele>275.88</ele>
<time>2019-05-30T13:39:09Z</time>
</trkpt>
<trkpt lat="49.611267" lon="10.008346">
<ele>275.722</ele>
<time>2019-05-30T13:39:10Z</time>
</trkpt>
<trkpt lat="49.611217" lon="10.008316">
<ele>275.599</ele>
<time>2019-05-30T13:39:11Z</time>
</trkpt>
<trkpt lat="49.611164" lon="10.008286">
<ele>275.505</ele>
<time>2019-05-30T13:39:12Z</time>
</trkpt>
<trkpt lat="49.611118" lon="10.008257">
<ele>275.437</ele>
<time>2019-05-30T13:39:13Z</time>
</trkpt>
<trkpt lat="49.611065" lon="10.008232">
<ele>275.398</ele>
<time>2019-05-30T13:39:14Z</time>
</trkpt>
<trkpt lat="49.611015" lon="10.008207">
<ele>275.147</ele>
<time>2019-05-30T13:39:15Z</time>
</trkpt>
<trkpt lat="49.610966" lon="10.008182">
<ele>274.958</ele>
<time>2019-05-30T13:39:16Z</time>
</trkpt>
<trkpt lat="49.610924" lon="10.00816">
<ele>274.832</ele>
<time>2019-05-30T13:39:17Z</time>
</trkpt>
<trkpt lat="49.610882" lon="10.008142">
<ele>274.698</ele>
<time>2019-05-30T13:39:18Z</time>
</trkpt>
<trkpt lat="49.610844" lon="10.008125">
<ele>274.595</ele>
<time>2019-05-30T13:39:19Z</time>
</trkpt>
<trkpt lat="49.610813" lon="10.008111">
<ele>274.52</ele>
<time>2019-05-30T13:39:20Z</time>
</trkpt>
<trkpt lat="49.610786" lon="10.008099">
<ele>274.469</ele>
<time>2019-05-30T13:39:21Z</time>
</trkpt>
<trkpt lat="49.61076" lon="10.008079">
<ele>274.443</ele>
<time>2019-05-30T13:39:22Z</time>
</trkpt>
<trkpt lat="49.610733" lon="10.008052">
<ele>274.443</ele>
<time>2019-05-30T13:39:23Z</time>
</trkpt>
<trkpt lat="49.61071" lon="10.008023">
<ele>274.443</ele>
<time>2019-05-30T13:39:24Z</time>
</trkpt>
<trkpt lat="49.610683" lon="10.008001">
<ele>274.443</ele>
<time>2019-05-30T13:39:25Z</time>
</trkpt>
<trkpt lat="49.610657" lon="10.007983">
<ele>274.443</ele>
<time>2019-05-30T13:39:26Z</time>
</trkpt>
<trkpt lat="49.61063" lon="10.007972">
<ele>274.443</ele>
<time>2019-05-30T13:39:27Z</time>
</trkpt>
<trkpt lat="49.610603" lon="10.007954">
<ele>274.443</ele>
<time>2019-05-30T13:39:28Z</time>
</trkpt>
<trkpt lat="49.610565" lon="10.007931">
<ele>274.443</ele>
<time>2019-05-30T13:39:29Z</time>
</trkpt>
<trkpt lat="49.610531" lon="10.007915">
<ele>274.443</ele>
<time>2019-05-30T13:39:30Z</time>
</trkpt>
<trkpt lat="49.610493" lon="10.007896">
<ele>274.443</ele>
<time>2019-05-30T13:39:31Z</time>
</trkpt>
<trkpt lat="49.610447" lon="10.00787">
<ele>274.443</ele>
<time>2019-05-30T13:39:32Z</time>
</trkpt>
<trkpt lat="49.610405" lon="10.007847">
<ele>274.443</ele>
<time>2019-05-30T13:39:33Z</time>
</trkpt>
<trkpt lat="49.610359" lon="10.007832">
<ele>274.443</ele>
<time>2019-05-30T13:39:34Z</time>
</trkpt>
<trkpt lat="49.610313" lon="10.007818">
<ele>274.443</ele>
<time>2019-05-30T13:39:35Z</time>
</trkpt>
<trkpt lat="49.610275" lon="10.007801">
<ele>274.443</ele>
<time>2019-05-30T13:39:36Z</time>
</trkpt>
<trkpt lat="49.610233" lon="10.00778">
<ele>274.443</ele>
<time>2019-05-30T13:39:37Z</time>
</trkpt>
<trkpt lat="49.610195" lon="10.00776">
<ele>274.443</ele>
<time>2019-05-30T13:39:38Z</time>
</trkpt>
<trkpt lat="49.610153" lon="10.007742">
<ele>274.443</ele>
<time>2019-05-30T13:39:39Z</time>
</trkpt>
<trkpt lat="49.610107" lon="10.007719">
<ele>274.443</ele>
<time>2019-05-30T13:39:40Z</time>
</trkpt>
<trkpt lat="49.610065" lon="10.007686">
<ele>274.443</ele>
<time>2019-05-30T13:39:41Z</time>
</trkpt>
<trkpt lat="49.61002" lon="10.00765">
<ele>274.443</ele>
<time>2019-05-30T13:39:42Z</time>
</trkpt>
<trkpt lat="49.609974" lon="10.007622">
<ele>274.443</ele>
<time>2019-05-30T13:39:43Z</time>
</trkpt>
<trkpt lat="49.609928" lon="10.007598">
<ele>274.443</ele>
<time>2019-05-30T13:39:44Z</time>
</trkpt>
<trkpt lat="49.609879" lon="10.007568">
<ele>274.443</ele>
<time>2019-05-30T13:39:45Z</time>
</trkpt>
<trkpt lat="49.609833" lon="10.007537">
<ele>274.443</ele>
<time>2019-05-30T13:39:46Z</time>
</trkpt>
<trkpt lat="49.609783" lon="10.007508">
<ele>274.443</ele>
<time>2019-05-30T13:39:47Z</time>
</trkpt>
<trkpt lat="49.609734" lon="10.007478">
<ele>274.443</ele>
<time>2019-05-30T13:39:48Z</time>
</trkpt>
<trkpt lat="49.609684" lon="10.007451">
<ele>274.443</ele>
<time>2019-05-30T13:39:49Z</time>
</trkpt>
<trkpt lat="49.609638" lon="10.007423">
<ele>274.443</ele>
<time>2019-05-30T13:39:50Z</time>
</trkpt>
<trkpt lat="49.609589" lon="10.007395">
<ele>274.443</ele>
<time>2019-05-30T13:39:51Z</time>
</trkpt>
<trkpt lat="49.609547" lon="10.007367">
<ele>274.443</ele>
<time>2019-05-30T13:39:52Z</time>
</trkpt>
<trkpt lat="49.609501" lon="10.007341">
<ele>274.707</ele>
<time>2019-05-30T13:39:53Z</time>
</trkpt>
<trkpt lat="49.609455" lon="10.007317">
<ele>274.914</ele>
<time>2019-05-30T13:39:54Z</time>
</trkpt>
<trkpt lat="49.609413" lon="10.00729">
<ele>275.071</ele>
<time>2019-05-30T13:39:55Z</time>
</trkpt>
<trkpt lat="49.609367" lon="10.007263">
<ele>275.195</ele>
<time>2019-05-30T13:39:56Z</time>
</trkpt>
<trkpt lat="49.609325" lon="10.007236">
<ele>275.283</ele>
<time>2019-05-30T13:39:57Z</time>
</trkpt>
<trkpt lat="49.60928" lon="10.00721">
<ele>275.372</ele>
<time>2019-05-30T13:39:58Z</time>
</trkpt>
<trkpt lat="49.609238" lon="10.007185">
<ele>275.43</ele>
<time>2019-05-30T13:39:59Z</time>
</trkpt>
<trkpt lat="49.609196" lon="10.00716">
<ele>275.457</ele>
<time>2019-05-30T13:40:00Z</time>
</trkpt>
<trkpt lat="49.609154" lon="10.00714">
<ele>275.457</ele>
<time>2019-05-30T13:40:01Z</time>
</trkpt>
<trkpt lat="49.609104" lon="10.007116">
<ele>275.457</ele>
<time>2019-05-30T13:40:02Z</time>
</trkpt>
<trkpt lat="49.609062" lon="10.007093">
<ele>275.457</ele>
<time>2019-05-30T13:40:03Z</time>
</trkpt>
<trkpt lat="49.609013" lon="10.007068">
<ele>275.457</ele>
<time>2019-05-30T13:40:04Z</time>
</trkpt>
<trkpt lat="49.608967" lon="10.007045">
<ele>275.457</ele>
<time>2019-05-30T13:40:05Z</time>
</trkpt>
<trkpt lat="49.608921" lon="10.00702">
<ele>275.457</ele>
<time>2019-05-30T13:40:06Z</time>
</trkpt>
<trkpt lat="49.608875" lon="10.006996">
<ele>275.667</ele>
<time>2019-05-30T13:40:07Z</time>
</trkpt>
<trkpt lat="49.608829" lon="10.006971">
<ele>275.865</ele>
<time>2019-05-30T13:40:08Z</time>
</trkpt>
<trkpt lat="49.608784" lon="10.006947">
<ele>276.024</ele>
<time>2019-05-30T13:40:09Z</time>
</trkpt>
<trkpt lat="49.608738" lon="10.006919">
<ele>276.149</ele>
<time>2019-05-30T13:40:10Z</time>
</trkpt>
<trkpt lat="49.608696" lon="10.006893">
<ele>276.247</ele>
<time>2019-05-30T13:40:11Z</time>
</trkpt>
<trkpt lat="49.60865" lon="10.006868">
<ele>276.317</ele>
<time>2019-05-30T13:40:12Z</time>
</trkpt>
<trkpt lat="49.608608" lon="10.006845">
<ele>276.364</ele>
<time>2019-05-30T13:40:13Z</time>
</trkpt>
<trkpt lat="49.608559" lon="10.006824">
<ele>276.387</ele>
<time>2019-05-30T13:40:14Z</time>
</trkpt>
<trkpt lat="49.608517" lon="10.0068">
<ele>276.387</ele>
<time>2019-05-30T13:40:15Z</time>
</trkpt>
<trkpt lat="49.608475" lon="10.006777">
<ele>276.59</ele>
<time>2019-05-30T13:40:16Z</time>
</trkpt>
<trkpt lat="49.608429" lon="10.00675">
<ele>276.737</ele>
<time>2019-05-30T13:40:17Z</time>
</trkpt>
<trkpt lat="49.608387" lon="10.006725">
<ele>276.886</ele>
<time>2019-05-30T13:40:18Z</time>
</trkpt>
<trkpt lat="49.608345" lon="10.006701">
<ele>277.007</ele>
<time>2019-05-30T13:40:19Z</time>
</trkpt>
<trkpt lat="49.608299" lon="10.006677">
<ele>277.1</ele>
<time>2019-05-30T13:40:20Z</time>
</trkpt>
<trkpt lat="49.608257" lon="10.006653">
<ele>277.168</ele>
<time>2019-05-30T13:40:21Z</time>
</trkpt>
<trkpt lat="49.608215" lon="10.006634">
<ele>277.212</ele>
<time>2019-05-30T13:40:22Z</time>
</trkpt>
<trkpt lat="49.60817" lon="10.006613">
<ele>277.233</ele>
<time>2019-05-30T13:40:23Z</time>
</trkpt>
<trkpt lat="49.608124" lon="10.006588">
<ele>277.233</ele>
<time>2019-05-30T13:40:24Z</time>
</trkpt>
<trkpt lat="49.608082" lon="10.006565">
<ele>277.233</ele>
<time>2019-05-30T13:40:25Z</time>
</trkpt>
<trkpt lat="49.60804" lon="10.006541">
<ele>277.458</ele>
<time>2019-05-30T13:40:26Z</time>
</trkpt>
<trkpt lat="49.607994" lon="10.006518">
<ele>277.619</ele>
<time>2019-05-30T13:40:27Z</time>
</trkpt>
<trkpt lat="49.607956" lon="10.006497">
<ele>277.786</ele>
<time>2019-05-30T13:40:28Z</time>
</trkpt>
<trkpt lat="49.60791" lon="10.006474">
<ele>277.918</ele>
<time>2019-05-30T13:40:29Z</time>
</trkpt>
<trkpt lat="49.607864" lon="10.00645">
<ele>278.018</ele>
<time>2019-05-30T13:40:30Z</time>
</trkpt>
<trkpt lat="49.607826" lon="10.006422">
<ele>278.092</ele>
<time>2019-05-30T13:40:31Z</time>
</trkpt>
<trkpt lat="49.60778" lon="10.006392">
<ele>278.136</ele>
<time>2019-05-30T13:40:32Z</time>
</trkpt>
<trkpt lat="49.607735" lon="10.006365">
<ele>278.412</ele>
<time>2019-05-30T13:40:33Z</time>
</trkpt>
<trkpt lat="49.607693" lon="10.006338">
<ele>278.646</ele>
<time>2019-05-30T13:40:34Z</time>
</trkpt>
<trkpt lat="49.607647" lon="10.006311">
<ele>278.807</ele>
<time>2019-05-30T13:40:35Z</time>
</trkpt>
<trkpt lat="49.607601" lon="10.006287">
<ele>278.927</ele>
<time>2019-05-30T13:40:36Z</time>
</trkpt>
<trkpt lat="49.607563" lon="10.006261">
<ele>279.011</ele>
<time>2019-05-30T13:40:37Z</time>
</trkpt>
<trkpt lat="49.607517" lon="10.00624">
<ele>279.096</ele>
<time>2019-05-30T13:40:38Z</time>
</trkpt>
<trkpt lat="49.607471" lon="10.006219">
<ele>279.151</ele>
<time>2019-05-30T13:40:39Z</time>
</trkpt>
<trkpt lat="49.607433" lon="10.006195">
<ele>279.177</ele>
<time>2019-05-30T13:40:40Z</time>
</trkpt>
<trkpt lat="49.607388" lon="10.006171">
<ele>279.177</ele>
<time>2019-05-30T13:40:41Z</time>
</trkpt>
<trkpt lat="49.607346" lon="10.006148">
<ele>279.177</ele>
<time>2019-05-30T13:40:42Z</time>
</trkpt>
<trkpt lat="49.607304" lon="10.006124">
<ele>279.177</ele>
<time>2019-05-30T13:40:43Z</time>
</trkpt>
<trkpt lat="49.607258" lon="10.006102">
<ele>279.177</ele>
<time>2019-05-30T13:40:44Z</time>
</trkpt>
<trkpt lat="49.607216" lon="10.006075">
<ele>279.177</ele>
<time>2019-05-30T13:40:45Z</time>
</trkpt>
<trkpt lat="49.607174" lon="10.006049">
<ele>279.177</ele>
<time>2019-05-30T13:40:46Z</time>
</trkpt>
<trkpt lat="49.607132" lon="10.006023">
<ele>279.385</ele>
<time>2019-05-30T13:40:47Z</time>
</trkpt>
<trkpt lat="49.607086" lon="10.005997">
<ele>279.582</ele>
<time>2019-05-30T13:40:48Z</time>
</trkpt>
<trkpt lat="49.607044" lon="10.005968">
<ele>279.741</ele>
<time>2019-05-30T13:40:49Z</time>
</trkpt>
<trkpt lat="49.607006" lon="10.005942">
<ele>279.869</ele>
<time>2019-05-30T13:40:50Z</time>
</trkpt>
<trkpt lat="49.606964" lon="10.005919">
<ele>279.966</ele>
<time>2019-05-30T13:40:51Z</time>
</trkpt>
<trkpt lat="49.606918" lon="10.005894">
<ele>280.039</ele>
<time>2019-05-30T13:40:52Z</time>
</trkpt>
<trkpt lat="49.606876" lon="10.005867">
<ele>280.085</ele>
<time>2019-05-30T13:40:53Z</time>
</trkpt>
<trkpt lat="49.606834" lon="10.005842">
<ele>280.107</ele>
<time>2019-05-30T13:40:54Z</time>
</trkpt>
<trkpt lat="49.606789" lon="10.005818">
<ele>280.107</ele>
<time>2019-05-30T13:40:55Z</time>
</trkpt>
<trkpt lat="49.606747" lon="10.005794">
<ele>280.314</ele>
<time>2019-05-30T13:40:56Z</time>
</trkpt>
<trkpt lat="49.606705" lon="10.005769">
<ele>280.463</ele>
<time>2019-05-30T13:40:57Z</time>
</trkpt>
<trkpt lat="49.606659" lon="10.005743">
<ele>280.612</ele>
<time>2019-05-30T13:40:58Z</time>
</trkpt>
<trkpt lat="49.606621" lon="10.00572">
<ele>280.732</ele>
<time>2019-05-30T13:40:59Z</time>
</trkpt>
<trkpt lat="49.606575" lon="10.005697">
<ele>280.822</ele>
<time>2019-05-30T13:41:00Z</time>
</trkpt>
<trkpt lat="49.606529" lon="10.005673">
<ele>280.889</ele>
<time>2019-05-30T13:41:01Z</time>
</trkpt>
<trkpt lat="49.606487" lon="10.005649">
<ele>280.933</ele>
<time>2019-05-30T13:41:02Z</time>
</trkpt>
<trkpt lat="49.606445" lon="10.005624">
<ele>280.953</ele>
<time>2019-05-30T13:41:03Z</time>
</trkpt>
<trkpt lat="49.6064" lon="10.0056">
<ele>280.953</ele>
<time>2019-05-30T13:41:04Z</time>
</trkpt>
<trkpt lat="49.606358" lon="10.005575">
<ele>280.953</ele>
<time>2019-05-30T13:41:05Z</time>
</trkpt>
<trkpt lat="49.606316" lon="10.005553">
<ele>280.953</ele>
<time>2019-05-30T13:41:06Z</time>
</trkpt>
<trkpt lat="49.60627" lon="10.005531">
<ele>281.179</ele>
<time>2019-05-30T13:41:07Z</time>
</trkpt>
<trkpt lat="49.606228" lon="10.005508">
<ele>281.391</ele>
<time>2019-05-30T13:41:08Z</time>
</trkpt>
<trkpt lat="49.606186" lon="10.005486">
<ele>281.565</ele>
<time>2019-05-30T13:41:09Z</time>
</trkpt>
<trkpt lat="49.60614" lon="10.005462">
<ele>281.705</ele>
<time>2019-05-30T13:41:10Z</time>
</trkpt>
<trkpt lat="49.606098" lon="10.005437">
<ele>281.815</ele>
<time>2019-05-30T13:41:11Z</time>
</trkpt>
<trkpt lat="49.606056" lon="10.005412">
<ele>281.894</ele>
<time>2019-05-30T13:41:12Z</time>
</trkpt>
<trkpt lat="49.60601" lon="10.005388">
<ele>281.944</ele>
<time>2019-05-30T13:41:13Z</time>
</trkpt>
<trkpt lat="49.605968" lon="10.005368">
<ele>281.968</ele>
<time>2019-05-30T13:41:14Z</time>
</trkpt>
<trkpt lat="49.605927" lon="10.005347">
<ele>281.968</ele>
<time>2019-05-30T13:41:15Z</time>
</trkpt>
<trkpt lat="49.605881" lon="10.005323">
<ele>281.968</ele>
<time>2019-05-30T13:41:16Z</time>
</trkpt>
<trkpt lat="49.605835" lon="10.005299">
<ele>281.968</ele>
<time>2019-05-30T13:41:17Z</time>
</trkpt>
<trkpt lat="49.605797" lon="10.005274">
<ele>281.968</ele>
<time>2019-05-30T13:41:18Z</time>
</trkpt>
<trkpt lat="49.605751" lon="10.005249">
<ele>282.249</ele>
<time>2019-05-30T13:41:19Z</time>
</trkpt>
<trkpt lat="49.605705" lon="10.005225">
<ele>282.462</ele>
<time>2019-05-30T13:41:20Z</time>
</trkpt>
<trkpt lat="49.605667" lon="10.0052">
<ele>282.626</ele>
<time>2019-05-30T13:41:21Z</time>
</trkpt>
<trkpt lat="49.605621" lon="10.005176">
<ele>282.741</ele>
<time>2019-05-30T13:41:22Z</time>
</trkpt>
<trkpt lat="49.605579" lon="10.00515">
<ele>282.821</ele>
<time>2019-05-30T13:41:23Z</time>
</trkpt>
<trkpt lat="49.605537" lon="10.005125">
<ele>282.871</ele>
<time>2019-05-30T13:41:24Z</time>
</trkpt>
<trkpt lat="49.605492" lon="10.005102">
<ele>282.894</ele>
<time>2019-05-30T13:41:25Z</time>
</trkpt>
<trkpt lat="49.605446" lon="10.005079">
<ele>282.899</ele>
<time>2019-05-30T13:41:26Z</time>
</trkpt>
<trkpt lat="49.605404" lon="10.005054">
<ele>282.898</ele>
<time>2019-05-30T13:41:27Z</time>
</trkpt>
<trkpt lat="49.605358" lon="10.005032">
<ele>282.899</ele>
<time>2019-05-30T13:41:28Z</time>
</trkpt>
<trkpt lat="49.605316" lon="10.005007">
<ele>282.898</ele>
<time>2019-05-30T13:41:29Z</time>
</trkpt>
<trkpt lat="49.605274" lon="10.004981">
<ele>282.899</ele>
<time>2019-05-30T13:41:30Z</time>
</trkpt>
<trkpt lat="49.605228" lon="10.004956">
<ele>282.898</ele>
<time>2019-05-30T13:41:31Z</time>
</trkpt>
<trkpt lat="49.605186" lon="10.00493">
<ele>282.899</ele>
<time>2019-05-30T13:41:32Z</time>
</trkpt>
<trkpt lat="49.605145" lon="10.004902">
<ele>283.144</ele>
<time>2019-05-30T13:41:33Z</time>
</trkpt>
<trkpt lat="49.605099" lon="10.004873">
<ele>283.338</ele>
<time>2019-05-30T13:41:34Z</time>
</trkpt>
<trkpt lat="49.605057" lon="10.00485">
<ele>283.486</ele>
<time>2019-05-30T13:41:35Z</time>
</trkpt>
<trkpt lat="49.605011" lon="10.004826">
<ele>283.597</ele>
<time>2019-05-30T13:41:36Z</time>
</trkpt>
<trkpt lat="49.604965" lon="10.004797">
<ele>283.675</ele>
<time>2019-05-30T13:41:37Z</time>
</trkpt>
<trkpt lat="49.604923" lon="10.004769">
<ele>283.754</ele>
<time>2019-05-30T13:41:38Z</time>
</trkpt>
<trkpt lat="49.604874" lon="10.004745">
<ele>283.805</ele>
<time>2019-05-30T13:41:39Z</time>
</trkpt>
<trkpt lat="49.604828" lon="10.004722">
<ele>283.829</ele>
<time>2019-05-30T13:41:40Z</time>
</trkpt>
<trkpt lat="49.604782" lon="10.004698">
<ele>283.829</ele>
<time>2019-05-30T13:41:41Z</time>
</trkpt>
<trkpt lat="49.604729" lon="10.004673">
<ele>283.829</ele>
<time>2019-05-30T13:41:42Z</time>
</trkpt>
<trkpt lat="49.604687" lon="10.004648">
<ele>283.829</ele>
<time>2019-05-30T13:41:43Z</time>
</trkpt>
<trkpt lat="49.604637" lon="10.004622">
<ele>283.829</ele>
<time>2019-05-30T13:41:44Z</time>
</trkpt>
<trkpt lat="49.604588" lon="10.004593">
<ele>283.829</ele>
<time>2019-05-30T13:41:45Z</time>
</trkpt>
<trkpt lat="49.604538" lon="10.004566">
<ele>283.829</ele>
<time>2019-05-30T13:41:46Z</time>
</trkpt>
<trkpt lat="49.604496" lon="10.00454">
<ele>283.829</ele>
<time>2019-05-30T13:41:47Z</time>
</trkpt>
<trkpt lat="49.604443" lon="10.00451">
<ele>283.829</ele>
<time>2019-05-30T13:41:48Z</time>
</trkpt>
<trkpt lat="49.604397" lon="10.004482">
<ele>283.829</ele>
<time>2019-05-30T13:41:49Z</time>
</trkpt>
<trkpt lat="49.604343" lon="10.004453">
<ele>283.829</ele>
<time>2019-05-30T13:41:50Z</time>
</trkpt>
<trkpt lat="49.604294" lon="10.004427">
<ele>283.829</ele>
<time>2019-05-30T13:41:51Z</time>
</trkpt>
<trkpt lat="49.604244" lon="10.004403">
<ele>283.829</ele>
<time>2019-05-30T13:41:52Z</time>
</trkpt>
<trkpt lat="49.604195" lon="10.004377">
<ele>283.56</ele>
<time>2019-05-30T13:41:53Z</time>
</trkpt>
<trkpt lat="49.604141" lon="10.004342">
<ele>283.347</ele>
<time>2019-05-30T13:41:54Z</time>
</trkpt>
<trkpt lat="49.604088" lon="10.004309">
<ele>283.186</ele>
<time>2019-05-30T13:41:55Z</time>
</trkpt>
<trkpt lat="49.604034" lon="10.004272">
<ele>283.064</ele>
<time>2019-05-30T13:41:56Z</time>
</trkpt>
<trkpt lat="49.603973" lon="10.004239">
<ele>282.981</ele>
<time>2019-05-30T13:41:57Z</time>
</trkpt>
<trkpt lat="49.603912" lon="10.0042">
<ele>282.658</ele>
<time>2019-05-30T13:41:58Z</time>
</trkpt>
<trkpt lat="49.603848" lon="10.004164">
<ele>282.442</ele>
<time>2019-05-30T13:41:59Z</time>
</trkpt>
<trkpt lat="49.603783" lon="10.004126">
<ele>282.002</ele>
<time>2019-05-30T13:42:00Z</time>
</trkpt>
<trkpt lat="49.603722" lon="10.004084">
<ele>281.681</ele>
<time>2019-05-30T13:42:01Z</time>
</trkpt>
<trkpt lat="49.603661" lon="10.004044">
<ele>281.651</ele>
<time>2019-05-30T13:42:02Z</time>
</trkpt>
<trkpt lat="49.6036" lon="10.00401">
<ele>281.64</ele>
<time>2019-05-30T13:42:03Z</time>
</trkpt>
<trkpt lat="49.603539" lon="10.003977">
<ele>281.653</ele>
<time>2019-05-30T13:42:04Z</time>
</trkpt>
<trkpt lat="49.603481" lon="10.003942">
<ele>281.682</ele>
<time>2019-05-30T13:42:05Z</time>
</trkpt>
<trkpt lat="49.603424" lon="10.00391">
<ele>281.729</ele>
<time>2019-05-30T13:42:06Z</time>
</trkpt>
<trkpt lat="49.603374" lon="10.003881">
<ele>281.747</ele>
<time>2019-05-30T13:42:07Z</time>
</trkpt>
<trkpt lat="49.603325" lon="10.003854">
<ele>281.804</ele>
<time>2019-05-30T13:42:08Z</time>
</trkpt>
<trkpt lat="49.603283" lon="10.003828">
<ele>281.857</ele>
<time>2019-05-30T13:42:09Z</time>
</trkpt>
<trkpt lat="49.603233" lon="10.003805">
<ele>281.884</ele>
<time>2019-05-30T13:42:10Z</time>
</trkpt>
<trkpt lat="49.603188" lon="10.00378">
<ele>282.152</ele>
<time>2019-05-30T13:42:11Z</time>
</trkpt>
<trkpt lat="49.603142" lon="10.003755">
<ele>282.368</ele>
<time>2019-05-30T13:42:12Z</time>
</trkpt>
<trkpt lat="49.6031" lon="10.003734">
<ele>282.542</ele>
<time>2019-05-30T13:42:13Z</time>
</trkpt>
<trkpt lat="49.60305" lon="10.003712">
<ele>282.67</ele>
<time>2019-05-30T13:42:14Z</time>
</trkpt>
<trkpt lat="49.603004" lon="10.003688">
<ele>282.763</ele>
<time>2019-05-30T13:42:15Z</time>
</trkpt>
<trkpt lat="49.602962" lon="10.003661">
<ele>282.825</ele>
<time>2019-05-30T13:42:16Z</time>
</trkpt>
<trkpt lat="49.602917" lon="10.003638">
<ele>282.87</ele>
<time>2019-05-30T13:42:17Z</time>
</trkpt>
<trkpt lat="49.602875" lon="10.003614">
<ele>282.898</ele>
<time>2019-05-30T13:42:18Z</time>
</trkpt>
<trkpt lat="49.602837" lon="10.003592">
<ele>283.198</ele>
<time>2019-05-30T13:42:19Z</time>
</trkpt>
<trkpt lat="49.602795" lon="10.003571">
<ele>283.429</ele>
<time>2019-05-30T13:42:20Z</time>
</trkpt>
<trkpt lat="49.602757" lon="10.00355">
<ele>283.577</ele>
<time>2019-05-30T13:42:21Z</time>
</trkpt>
<trkpt lat="49.602715" lon="10.003531">
<ele>283.967</ele>
<time>2019-05-30T13:42:22Z</time>
</trkpt>
<trkpt lat="49.60268" lon="10.00351">
<ele>284.261</ele>
<time>2019-05-30T13:42:23Z</time>
</trkpt>
<trkpt lat="49.602642" lon="10.003493">
<ele>284.474</ele>
<time>2019-05-30T13:42:24Z</time>
</trkpt>
<trkpt lat="49.602604" lon="10.003476">
<ele>284.619</ele>
<time>2019-05-30T13:42:25Z</time>
</trkpt>
<trkpt lat="49.602566" lon="10.003458">
<ele>284.681</ele>
<time>2019-05-30T13:42:26Z</time>
</trkpt>
<trkpt lat="49.602531" lon="10.003435">
<ele>284.947</ele>
<time>2019-05-30T13:42:27Z</time>
</trkpt>
<trkpt lat="49.602489" lon="10.003413">
<ele>285.181</ele>
<time>2019-05-30T13:42:28Z</time>
</trkpt>
<trkpt lat="49.602451" lon="10.003392">
<ele>285.355</ele>
<time>2019-05-30T13:42:29Z</time>
</trkpt>
<trkpt lat="49.602413" lon="10.00337">
<ele>285.473</ele>
<time>2019-05-30T13:42:30Z</time>
</trkpt>
<trkpt lat="49.602379" lon="10.003351">
<ele>285.565</ele>
<time>2019-05-30T13:42:31Z</time>
</trkpt>
<trkpt lat="49.602341" lon="10.00333">
<ele>285.629</ele>
<time>2019-05-30T13:42:32Z</time>
</trkpt>
<trkpt lat="49.602299" lon="10.003308">
<ele>285.67</ele>
<time>2019-05-30T13:42:33Z</time>
</trkpt>
<trkpt lat="49.602261" lon="10.003288">
<ele>285.69</ele>
<time>2019-05-30T13:42:34Z</time>
</trkpt>
<trkpt lat="49.602219" lon="10.003266">
<ele>285.69</ele>
<time>2019-05-30T13:42:35Z</time>
</trkpt>
<trkpt lat="49.602184" lon="10.003243">
<ele>285.69</ele>
<time>2019-05-30T13:42:36Z</time>
</trkpt>
<trkpt lat="49.602142" lon="10.003219">
<ele>285.691</ele>
<time>2019-05-30T13:42:37Z</time>
</trkpt>
<trkpt lat="49.602104" lon="10.003197">
<ele>285.69</ele>
<time>2019-05-30T13:42:38Z</time>
</trkpt>
<trkpt lat="49.602066" lon="10.003177">
<ele>285.69</ele>
<time>2019-05-30T13:42:39Z</time>
</trkpt>
<trkpt lat="49.602024" lon="10.003154">
<ele>285.69</ele>
<time>2019-05-30T13:42:40Z</time>
</trkpt>
<trkpt lat="49.601986" lon="10.00313">
<ele>285.954</ele>
<time>2019-05-30T13:42:41Z</time>
</trkpt>
<trkpt lat="49.601948" lon="10.003105">
<ele>286.157</ele>
<time>2019-05-30T13:42:42Z</time>
</trkpt>
<trkpt lat="49.601906" lon="10.003078">
<ele>286.311</ele>
<time>2019-05-30T13:42:43Z</time>
</trkpt>
<trkpt lat="49.601864" lon="10.003052">
<ele>286.426</ele>
<time>2019-05-30T13:42:44Z</time>
</trkpt>
<trkpt lat="49.601826" lon="10.00303">
<ele>286.502</ele>
<time>2019-05-30T13:42:45Z</time>
</trkpt>
<trkpt lat="49.601788" lon="10.003009">
<ele>286.557</ele>
<time>2019-05-30T13:42:46Z</time>
</trkpt>
<trkpt lat="49.601746" lon="10.002985">
<ele>286.596</ele>
<time>2019-05-30T13:42:47Z</time>
</trkpt>
<trkpt lat="49.601704" lon="10.002958">
<ele>286.621</ele>
<time>2019-05-30T13:42:48Z</time>
</trkpt>
<trkpt lat="49.601665" lon="10.002934">
<ele>286.621</ele>
<time>2019-05-30T13:42:49Z</time>
</trkpt>
<trkpt lat="49.601627" lon="10.002909">
<ele>286.621</ele>
<time>2019-05-30T13:42:50Z</time>
</trkpt>
<trkpt lat="49.601585" lon="10.002887">
<ele>286.621</ele>
<time>2019-05-30T13:42:51Z</time>
</trkpt>
<trkpt lat="49.601547" lon="10.002867">
<ele>286.621</ele>
<time>2019-05-30T13:42:52Z</time>
</trkpt>
<trkpt lat="49.601505" lon="10.002847">
<ele>286.621</ele>
<time>2019-05-30T13:42:53Z</time>
</trkpt>
<trkpt lat="49.601467" lon="10.002827">
<ele>286.621</ele>
<time>2019-05-30T13:42:54Z</time>
</trkpt>
<trkpt lat="49.601425" lon="10.002805">
<ele>286.621</ele>
<time>2019-05-30T13:42:55Z</time>
</trkpt>
<trkpt lat="49.601379" lon="10.002781">
<ele>286.621</ele>
<time>2019-05-30T13:42:56Z</time>
</trkpt>
<trkpt lat="49.601337" lon="10.002756">
<ele>286.621</ele>
<time>2019-05-30T13:42:57Z</time>
</trkpt>
<trkpt lat="49.601299" lon="10.002733">
<ele>286.872</ele>
<time>2019-05-30T13:42:58Z</time>
</trkpt>
<trkpt lat="49.601257" lon="10.002708">
<ele>287.08</ele>
<time>2019-05-30T13:42:59Z</time>
</trkpt>
<trkpt lat="49.601215" lon="10.002683">
<ele>287.251</ele>
<time>2019-05-30T13:43:00Z</time>
</trkpt>
<trkpt lat="49.601173" lon="10.00266">
<ele>287.386</ele>
<time>2019-05-30T13:43:01Z</time>
</trkpt>
<trkpt lat="49.601131" lon="10.002637">
<ele>287.49</ele>
<time>2019-05-30T13:43:02Z</time>
</trkpt>
<trkpt lat="49.601089" lon="10.002615">
<ele>287.563</ele>
<time>2019-05-30T13:43:03Z</time>
</trkpt>
<trkpt lat="49.601048" lon="10.002592">
<ele>287.613</ele>
<time>2019-05-30T13:43:04Z</time>
</trkpt>
<trkpt lat="49.601009" lon="10.002567">
<ele>287.637</ele>
<time>2019-05-30T13:43:05Z</time>
</trkpt>
<trkpt lat="49.600964" lon="10.002543">
<ele>287.863</ele>
<time>2019-05-30T13:43:06Z</time>
</trkpt>
<trkpt lat="49.600922" lon="10.00252">
<ele>288.025</ele>
<time>2019-05-30T13:43:07Z</time>
</trkpt>
<trkpt lat="49.60088" lon="10.002497">
<ele>288.189</ele>
<time>2019-05-30T13:43:08Z</time>
</trkpt>
<trkpt lat="49.600838" lon="10.002475">
<ele>288.322</ele>
<time>2019-05-30T13:43:09Z</time>
</trkpt>
<trkpt lat="49.600796" lon="10.002454">
<ele>288.423</ele>
<time>2019-05-30T13:43:10Z</time>
</trkpt>
<trkpt lat="49.60075" lon="10.002431">
<ele>288.498</ele>
<time>2019-05-30T13:43:11Z</time>
</trkpt>
<trkpt lat="49.600712" lon="10.002408">
<ele>288.545</ele>
<time>2019-05-30T13:43:12Z</time>
</trkpt>
<trkpt lat="49.60067" lon="10.002383">
<ele>288.567</ele>
<time>2019-05-30T13:43:13Z</time>
</trkpt>
<trkpt lat="49.600628" lon="10.002357">
<ele>288.567</ele>
<time>2019-05-30T13:43:14Z</time>
</trkpt>
<trkpt lat="49.60059" lon="10.00233">
<ele>288.567</ele>
<time>2019-05-30T13:43:15Z</time>
</trkpt>
<trkpt lat="49.600544" lon="10.002307">
<ele>288.567</ele>
<time>2019-05-30T13:43:16Z</time>
</trkpt>
<trkpt lat="49.600502" lon="10.002285">
<ele>288.756</ele>
<time>2019-05-30T13:43:17Z</time>
</trkpt>
<trkpt lat="49.60046" lon="10.002259">
<ele>288.933</ele>
<time>2019-05-30T13:43:18Z</time>
</trkpt>
<trkpt lat="49.600422" lon="10.002238">
<ele>289.08</ele>
<time>2019-05-30T13:43:19Z</time>
</trkpt>
<trkpt lat="49.60038" lon="10.002217">
<ele>289.197</ele>
<time>2019-05-30T13:43:20Z</time>
</trkpt>
<trkpt lat="49.600334" lon="10.002192">
<ele>289.286</ele>
<time>2019-05-30T13:43:21Z</time>
</trkpt>
<trkpt lat="49.600296" lon="10.002167">
<ele>289.351</ele>
<time>2019-05-30T13:43:22Z</time>
</trkpt>
<trkpt lat="49.600258" lon="10.002144">
<ele>289.394</ele>
<time>2019-05-30T13:43:23Z</time>
</trkpt>
<trkpt lat="49.600212" lon="10.002121">
<ele>289.414</ele>
<time>2019-05-30T13:43:24Z</time>
</trkpt>
<trkpt lat="49.60017" lon="10.002098">
<ele>289.414</ele>
<time>2019-05-30T13:43:25Z</time>
</trkpt>
<trkpt lat="49.600128" lon="10.00208">
<ele>289.414</ele>
<time>2019-05-30T13:43:26Z</time>
</trkpt>
<trkpt lat="49.600086" lon="10.002058">
<ele>289.414</ele>
<time>2019-05-30T13:43:27Z</time>
</trkpt>
<trkpt lat="49.60004" lon="10.002039">
<ele>289.414</ele>
<time>2019-05-30T13:43:28Z</time>
</trkpt>
<trkpt lat="49.599998" lon="10.00202">
<ele>289.414</ele>
<time>2019-05-30T13:43:29Z</time>
</trkpt>
<trkpt lat="49.599953" lon="10.002002">
<ele>289.414</ele>
<time>2019-05-30T13:43:30Z</time>
</trkpt>
<trkpt lat="49.599907" lon="10.001983">
<ele>289.414</ele>
<time>2019-05-30T13:43:31Z</time>
</trkpt>
<trkpt lat="49.599865" lon="10.001966">
<ele>289.414</ele>
<time>2019-05-30T13:43:32Z</time>
</trkpt>
<trkpt lat="49.599819" lon="10.001953">
<ele>289.414</ele>
<time>2019-05-30T13:43:33Z</time>
</trkpt>
<trkpt lat="49.599773" lon="10.001939">
<ele>289.653</ele>
<time>2019-05-30T13:43:34Z</time>
</trkpt>
<trkpt lat="49.599728" lon="10.001925">
<ele>289.839</ele>
<time>2019-05-30T13:43:35Z</time>
</trkpt>
<trkpt lat="49.599682" lon="10.001915">
<ele>289.987</ele>
<time>2019-05-30T13:43:36Z</time>
</trkpt>
<trkpt lat="49.599636" lon="10.001908">
<ele>290.085</ele>
<time>2019-05-30T13:43:37Z</time>
</trkpt>
<trkpt lat="49.59959" lon="10.001901">
<ele>290.194</ele>
<time>2019-05-30T13:43:38Z</time>
</trkpt>
<trkpt lat="49.599548" lon="10.001888">
<ele>290.272</ele>
<time>2019-05-30T13:43:39Z</time>
</trkpt>
<trkpt lat="49.599503" lon="10.001882">
<ele>290.321</ele>
<time>2019-05-30T13:43:40Z</time>
</trkpt>
<trkpt lat="49.599457" lon="10.001878">
<ele>290.345</ele>
<time>2019-05-30T13:43:41Z</time>
</trkpt>
<trkpt lat="49.599415" lon="10.001874">
<ele>290.345</ele>
<time>2019-05-30T13:43:42Z</time>
</trkpt>
<trkpt lat="49.599369" lon="10.001872">
<ele>290.345</ele>
<time>2019-05-30T13:43:43Z</time>
</trkpt>
<trkpt lat="49.599323" lon="10.00187">
<ele>290.582</ele>
<time>2019-05-30T13:43:44Z</time>
</trkpt>
<trkpt lat="49.599285" lon="10.001874">
<ele>290.768</ele>
<time>2019-05-30T13:43:45Z</time>
</trkpt>
<trkpt lat="49.599236" lon="10.001878">
<ele>290.916</ele>
<time>2019-05-30T13:43:46Z</time>
</trkpt>
<trkpt lat="49.59919" lon="10.00188">
<ele>291.017</ele>
<time>2019-05-30T13:43:47Z</time>
</trkpt>
<trkpt lat="49.599152" lon="10.001884">
<ele>291.123</ele>
<time>2019-05-30T13:43:48Z</time>
</trkpt>
<trkpt lat="49.599117" lon="10.001878">
<ele>291.2</ele>
<time>2019-05-30T13:43:49Z</time>
</trkpt>
<trkpt lat="49.599075" lon="10.001874">
<ele>291.252</ele>
<time>2019-05-30T13:43:50Z</time>
</trkpt>
<trkpt lat="49.59903" lon="10.00188">
<ele>291.276</ele>
<time>2019-05-30T13:43:51Z</time>
</trkpt>
<trkpt lat="49.598991" lon="10.001882">
<ele>291.276</ele>
<time>2019-05-30T13:43:52Z</time>
</trkpt>
<trkpt lat="49.598953" lon="10.00189">
<ele>291.518</ele>
<time>2019-05-30T13:43:53Z</time>
</trkpt>
<trkpt lat="49.598907" lon="10.001899">
<ele>291.71</ele>
<time>2019-05-30T13:43:54Z</time>
</trkpt>
<trkpt lat="49.598869" lon="10.001905">
<ele>291.863</ele>
<time>2019-05-30T13:43:55Z</time>
</trkpt>
<trkpt lat="49.598835" lon="10.001909">
<ele>291.979</ele>
<time>2019-05-30T13:43:56Z</time>
</trkpt>
<trkpt lat="49.598797" lon="10.001918">
<ele>292.058</ele>
<time>2019-05-30T13:43:57Z</time>
</trkpt>
<trkpt lat="49.598759" lon="10.001935">
<ele>292.13</ele>
<time>2019-05-30T13:43:58Z</time>
</trkpt>
<trkpt lat="49.598721" lon="10.001941">
<ele>292.18</ele>
<time>2019-05-30T13:43:59Z</time>
</trkpt>
<trkpt lat="49.598671" lon="10.001945">
<ele>292.207</ele>
<time>2019-05-30T13:44:00Z</time>
</trkpt>
<trkpt lat="49.598621" lon="10.001962">
<ele>292.207</ele>
<time>2019-05-30T13:44:01Z</time>
</trkpt>
<trkpt lat="49.598576" lon="10.00198">
<ele>292.207</ele>
<time>2019-05-30T13:44:02Z</time>
</trkpt>
<trkpt lat="49.598526" lon="10.002">
<ele>292.207</ele>
<time>2019-05-30T13:44:03Z</time>
</trkpt>
<trkpt lat="49.598476" lon="10.002028">
<ele>292.207</ele>
<time>2019-05-30T13:44:04Z</time>
</trkpt>
<trkpt lat="49.598431" lon="10.002048">
<ele>292.207</ele>
<time>2019-05-30T13:44:05Z</time>
</trkpt>
<trkpt lat="49.598377" lon="10.002079">
<ele>292.207</ele>
<time>2019-05-30T13:44:06Z</time>
</trkpt>
<trkpt lat="49.598335" lon="10.002095">
<ele>291.994</ele>
<time>2019-05-30T13:44:07Z</time>
</trkpt>
<trkpt lat="49.598286" lon="10.00212">
<ele>291.801</ele>
<time>2019-05-30T13:44:08Z</time>
</trkpt>
<trkpt lat="49.598232" lon="10.002153">
<ele>291.641</ele>
<time>2019-05-30T13:44:09Z</time>
</trkpt>
<trkpt lat="49.598183" lon="10.00218">
<ele>291.511</ele>
<time>2019-05-30T13:44:10Z</time>
</trkpt>
<trkpt lat="49.598141" lon="10.002207">
<ele>291.415</ele>
<time>2019-05-30T13:44:11Z</time>
</trkpt>
<trkpt lat="49.598095" lon="10.002245">
<ele>291.345</ele>
<time>2019-05-30T13:44:12Z</time>
</trkpt>
<trkpt lat="49.598045" lon="10.002289">
<ele>291.297</ele>
<time>2019-05-30T13:44:13Z</time>
</trkpt>
<trkpt lat="49.598" lon="10.002337">
<ele>291.276</ele>
<time>2019-05-30T13:44:14Z</time>
</trkpt>
<trkpt lat="49.597961" lon="10.002357">
<ele>291.276</ele>
<time>2019-05-30T13:44:15Z</time>
</trkpt>
<trkpt lat="49.597919" lon="10.002396">
<ele>291.276</ele>
<time>2019-05-30T13:44:16Z</time>
</trkpt>
<trkpt lat="49.59787" lon="10.002445">
<ele>291.276</ele>
<time>2019-05-30T13:44:17Z</time>
</trkpt>
<trkpt lat="49.597824" lon="10.002492">
<ele>291.276</ele>
<time>2019-05-30T13:44:18Z</time>
</trkpt>
<trkpt lat="49.597786" lon="10.002536">
<ele>291.276</ele>
<time>2019-05-30T13:44:19Z</time>
</trkpt>
<trkpt lat="49.597752" lon="10.00258">
<ele>291.276</ele>
<time>2019-05-30T13:44:20Z</time>
</trkpt>
<trkpt lat="49.597713" lon="10.002617">
<ele>291.022</ele>
<time>2019-05-30T13:44:21Z</time>
</trkpt>
<trkpt lat="49.597683" lon="10.00266">
<ele>290.819</ele>
<time>2019-05-30T13:44:22Z</time>
</trkpt>
<trkpt lat="49.597649" lon="10.002707">
<ele>290.66</ele>
<time>2019-05-30T13:44:23Z</time>
</trkpt>
<trkpt lat="49.597614" lon="10.002753">
<ele>290.557</ele>
<time>2019-05-30T13:44:24Z</time>
</trkpt>
<trkpt lat="49.597584" lon="10.002804">
<ele>290.479</ele>
<time>2019-05-30T13:44:25Z</time>
</trkpt>
<trkpt lat="49.597553" lon="10.002869">
<ele>290.418</ele>
<time>2019-05-30T13:44:26Z</time>
</trkpt>
<trkpt lat="49.59753" lon="10.00294">
<ele>290.373</ele>
<time>2019-05-30T13:44:27Z</time>
</trkpt>
<trkpt lat="49.597519" lon="10.003007">
<ele>290.345</ele>
<time>2019-05-30T13:44:28Z</time>
</trkpt>
<trkpt lat="49.597492" lon="10.003072">
<ele>290.345</ele>
<time>2019-05-30T13:44:29Z</time>
</trkpt>
<trkpt lat="49.597458" lon="10.003135">
<ele>290.345</ele>
<time>2019-05-30T13:44:30Z</time>
</trkpt>
<trkpt lat="49.597416" lon="10.003188">
<ele>290.076</ele>
<time>2019-05-30T13:44:31Z</time>
</trkpt>
<trkpt lat="49.597374" lon="10.003242">
<ele>289.87</ele>
<time>2019-05-30T13:44:32Z</time>
</trkpt>
<trkpt lat="49.597332" lon="10.003297">
<ele>289.714</ele>
<time>2019-05-30T13:44:33Z</time>
</trkpt>
<trkpt lat="49.597294" lon="10.00335">
<ele>289.604</ele>
<time>2019-05-30T13:44:34Z</time>
</trkpt>
<trkpt lat="49.59726" lon="10.003406">
<ele>289.524</ele>
<time>2019-05-30T13:44:35Z</time>
</trkpt>
<trkpt lat="49.597218" lon="10.003464">
<ele>289.474</ele>
<time>2019-05-30T13:44:36Z</time>
</trkpt>
<trkpt lat="49.597179" lon="10.003518">
<ele>289.438</ele>
<time>2019-05-30T13:44:37Z</time>
</trkpt>
<trkpt lat="49.597137" lon="10.003571">
<ele>289.414</ele>
<time>2019-05-30T13:44:38Z</time>
</trkpt>
<trkpt lat="49.597099" lon="10.003623">
<ele>289.414</ele>
<time>2019-05-30T13:44:39Z</time>
</trkpt>
<trkpt lat="49.597065" lon="10.003677">
<ele>289.414</ele>
<time>2019-05-30T13:44:40Z</time>
</trkpt>
<trkpt lat="49.597027" lon="10.003734">
<ele>289.414</ele>
<time>2019-05-30T13:44:41Z</time>
</trkpt>
<trkpt lat="49.596989" lon="10.003789">
<ele>289.414</ele>
<time>2019-05-30T13:44:42Z</time>
</trkpt>
<trkpt lat="49.596951" lon="10.003845">
<ele>289.169</ele>
<time>2019-05-30T13:44:43Z</time>
</trkpt>
<trkpt lat="49.596912" lon="10.003905">
<ele>288.977</ele>
<time>2019-05-30T13:44:44Z</time>
</trkpt>
<trkpt lat="49.59687" lon="10.003963">
<ele>288.827</ele>
<time>2019-05-30T13:44:45Z</time>
</trkpt>
<trkpt lat="49.596836" lon="10.00402">
<ele>288.714</ele>
<time>2019-05-30T13:44:46Z</time>
</trkpt>
<trkpt lat="49.596798" lon="10.00408">
<ele>288.636</ele>
<time>2019-05-30T13:44:47Z</time>
</trkpt>
<trkpt lat="49.59676" lon="10.004142">
<ele>288.557</ele>
<time>2019-05-30T13:44:48Z</time>
</trkpt>
<trkpt lat="49.596718" lon="10.004202">
<ele>288.507</ele>
<time>2019-05-30T13:44:49Z</time>
</trkpt>
<trkpt lat="49.59668" lon="10.004262">
<ele>288.483</ele>
<time>2019-05-30T13:44:50Z</time>
</trkpt>
<trkpt lat="49.596642" lon="10.004321">
<ele>288.483</ele>
<time>2019-05-30T13:44:51Z</time>
</trkpt>
<trkpt lat="49.5966" lon="10.004378">
<ele>288.483</ele>
<time>2019-05-30T13:44:52Z</time>
</trkpt>
<trkpt lat="49.596558" lon="10.004436">
<ele>288.483</ele>
<time>2019-05-30T13:44:53Z</time>
</trkpt>
<trkpt lat="49.596516" lon="10.004493">
<ele>288.483</ele>
<time>2019-05-30T13:44:54Z</time>
</trkpt>
<trkpt lat="49.596481" lon="10.004552">
<ele>288.483</ele>
<time>2019-05-30T13:44:55Z</time>
</trkpt>
<trkpt lat="49.596436" lon="10.004603">
<ele>288.483</ele>
<time>2019-05-30T13:44:56Z</time>
</trkpt>
<trkpt lat="49.596394" lon="10.004654">
<ele>288.483</ele>
<time>2019-05-30T13:44:57Z</time>
</trkpt>
<trkpt lat="49.596348" lon="10.0047">
<ele>288.483</ele>
<time>2019-05-30T13:44:58Z</time>
</trkpt>
<trkpt lat="49.596302" lon="10.004738">
<ele>288.483</ele>
<time>2019-05-30T13:44:59Z</time>
</trkpt>
<trkpt lat="49.596256" lon="10.004775">
<ele>288.483</ele>
<time>2019-05-30T13:45:00Z</time>
</trkpt>
<trkpt lat="49.596218" lon="10.004811">
<ele>288.483</ele>
<time>2019-05-30T13:45:01Z</time>
</trkpt>
<trkpt lat="49.596176" lon="10.004851">
<ele>288.706</ele>
<time>2019-05-30T13:45:02Z</time>
</trkpt>
<trkpt lat="49.596142" lon="10.004897">
<ele>288.882</ele>
<time>2019-05-30T13:45:03Z</time>
</trkpt>
<trkpt lat="49.596107" lon="10.004945">
<ele>289.019</ele>
<time>2019-05-30T13:45:04Z</time>
</trkpt>
<trkpt lat="49.596073" lon="10.004993">
<ele>289.124</ele>
<time>2019-05-30T13:45:05Z</time>
</trkpt>
<trkpt lat="49.596039" lon="10.005045">
<ele>289.18</ele>
<time>2019-05-30T13:45:06Z</time>
</trkpt>
<trkpt lat="49.596004" lon="10.005092">
<ele>289.497</ele>
<time>2019-05-30T13:45:07Z</time>
</trkpt>
<trkpt lat="49.595963" lon="10.00514">
<ele>289.78</ele>
<time>2019-05-30T13:45:08Z</time>
</trkpt>
<trkpt lat="49.595928" lon="10.005185">
<ele>289.996</ele>
<time>2019-05-30T13:45:09Z</time>
</trkpt>
<trkpt lat="49.59589" lon="10.00523">
<ele>290.15</ele>
<time>2019-05-30T13:45:10Z</time>
</trkpt>
<trkpt lat="49.595852" lon="10.005272">
<ele>290.269</ele>
<time>2019-05-30T13:45:11Z</time>
</trkpt>
<trkpt lat="49.59581" lon="10.005314">
<ele>290.351</ele>
<time>2019-05-30T13:45:12Z</time>
</trkpt>
<trkpt lat="49.595768" lon="10.005355">
<ele>290.404</ele>
<time>2019-05-30T13:45:13Z</time>
</trkpt>
<trkpt lat="49.59573" lon="10.005397">
<ele>290.43</ele>
<time>2019-05-30T13:45:14Z</time>
</trkpt>
<trkpt lat="49.595684" lon="10.005437">
<ele>290.43</ele>
<time>2019-05-30T13:45:15Z</time>
</trkpt>
<trkpt lat="49.595642" lon="10.005478">
<ele>290.43</ele>
<time>2019-05-30T13:45:16Z</time>
</trkpt>
<trkpt lat="49.5956" lon="10.005522">
<ele>290.658</ele>
<time>2019-05-30T13:45:17Z</time>
</trkpt>
<trkpt lat="49.595554" lon="10.005564">
<ele>290.873</ele>
<time>2019-05-30T13:45:18Z</time>
</trkpt>
<trkpt lat="49.595509" lon="10.005601">
<ele>291.052</ele>
<time>2019-05-30T13:45:19Z</time>
</trkpt>
<trkpt lat="49.595463" lon="10.00564">
<ele>291.19</ele>
<time>2019-05-30T13:45:20Z</time>
</trkpt>
<trkpt lat="49.595417" lon="10.005676">
<ele>291.296</ele>
<time>2019-05-30T13:45:21Z</time>
</trkpt>
<trkpt lat="49.595371" lon="10.00571">
<ele>291.373</ele>
<time>2019-05-30T13:45:22Z</time>
</trkpt>
<trkpt lat="49.595325" lon="10.005743">
<ele>291.422</ele>
<time>2019-05-30T13:45:23Z</time>
</trkpt>
<trkpt lat="49.595276" lon="10.005772">
<ele>291.446</ele>
<time>2019-05-30T13:45:24Z</time>
</trkpt>
<trkpt lat="49.595234" lon="10.005802">
<ele>291.446</ele>
<time>2019-05-30T13:45:25Z</time>
</trkpt>
<trkpt lat="49.595184" lon="10.00583">
<ele>291.446</ele>
<time>2019-05-30T13:45:26Z</time>
</trkpt>
<trkpt lat="49.595139" lon="10.005858">
<ele>291.446</ele>
<time>2019-05-30T13:45:27Z</time>
</trkpt>
<trkpt lat="49.595093" lon="10.005883">
<ele>291.446</ele>
<time>2019-05-30T13:45:28Z</time>
</trkpt>
<trkpt lat="49.595047" lon="10.005905">
<ele>291.446</ele>
<time>2019-05-30T13:45:29Z</time>
</trkpt>
<trkpt lat="49.594997" lon="10.005926">
<ele>291.714</ele>
<time>2019-05-30T13:45:30Z</time>
</trkpt>
<trkpt lat="49.594952" lon="10.005946">
<ele>291.92</ele>
<time>2019-05-30T13:45:31Z</time>
</trkpt>
<trkpt lat="49.594906" lon="10.005965">
<ele>292.082</ele>
<time>2019-05-30T13:45:32Z</time>
</trkpt>
<trkpt lat="49.594856" lon="10.005981">
<ele>292.195</ele>
<time>2019-05-30T13:45:33Z</time>
</trkpt>
<trkpt lat="49.59481" lon="10.005999">
<ele>292.277</ele>
<time>2019-05-30T13:45:34Z</time>
</trkpt>
<trkpt lat="49.594761" lon="10.006014">
<ele>292.327</ele>
<time>2019-05-30T13:45:35Z</time>
</trkpt>
<trkpt lat="49.594715" lon="10.006026">
<ele>292.356</ele>
<time>2019-05-30T13:45:36Z</time>
</trkpt>
<trkpt lat="49.594662" lon="10.006041">
<ele>292.377</ele>
<time>2019-05-30T13:45:37Z</time>
</trkpt>
<trkpt lat="49.594616" lon="10.006051">
<ele>292.377</ele>
<time>2019-05-30T13:45:38Z</time>
</trkpt>
<trkpt lat="49.594559" lon="10.006063">
<ele>292.66</ele>
<time>2019-05-30T13:45:39Z</time>
</trkpt>
<trkpt lat="49.594509" lon="10.006079">
<ele>292.877</ele>
<time>2019-05-30T13:45:40Z</time>
</trkpt>
<trkpt lat="49.59446" lon="10.006093">
<ele>293.039</ele>
<time>2019-05-30T13:45:41Z</time>
</trkpt>
<trkpt lat="49.59441" lon="10.006105">
<ele>293.153</ele>
<time>2019-05-30T13:45:42Z</time>
</trkpt>
<trkpt lat="49.59436" lon="10.006121">
<ele>293.236</ele>
<time>2019-05-30T13:45:43Z</time>
</trkpt>
<trkpt lat="49.594315" lon="10.006133">
<ele>293.286</ele>
<time>2019-05-30T13:45:44Z</time>
</trkpt>
<trkpt lat="49.594265" lon="10.006148">
<ele>293.304</ele>
<time>2019-05-30T13:45:45Z</time>
</trkpt>
<trkpt lat="49.594212" lon="10.006163">
<ele>293.308</ele>
<time>2019-05-30T13:45:46Z</time>
</trkpt>
<trkpt lat="49.594162" lon="10.00618">
<ele>293.308</ele>
<time>2019-05-30T13:45:47Z</time>
</trkpt>
<trkpt lat="49.594109" lon="10.006193">
<ele>293.308</ele>
<time>2019-05-30T13:45:48Z</time>
</trkpt>
<trkpt lat="49.594059" lon="10.006208">
<ele>293.308</ele>
<time>2019-05-30T13:45:49Z</time>
</trkpt>
<trkpt lat="49.594002" lon="10.006222">
<ele>293.308</ele>
<time>2019-05-30T13:45:50Z</time>
</trkpt>
<trkpt lat="49.593952" lon="10.006236">
<ele>293.308</ele>
<time>2019-05-30T13:45:51Z</time>
</trkpt>
<trkpt lat="49.593903" lon="10.006253">
<ele>293.308</ele>
<time>2019-05-30T13:45:52Z</time>
</trkpt>
<trkpt lat="49.593849" lon="10.006269">
<ele>293.308</ele>
<time>2019-05-30T13:45:53Z</time>
</trkpt>
<trkpt lat="49.593792" lon="10.006287">
<ele>293.308</ele>
<time>2019-05-30T13:45:54Z</time>
</trkpt>
<trkpt lat="49.593742" lon="10.0063">
<ele>293.308</ele>
<time>2019-05-30T13:45:55Z</time>
</trkpt>
<trkpt lat="49.593689" lon="10.006311">
<ele>293.308</ele>
<time>2019-05-30T13:45:56Z</time>
</trkpt>
<trkpt lat="49.593636" lon="10.006324">
<ele>293.308</ele>
<time>2019-05-30T13:45:57Z</time>
</trkpt>
<trkpt lat="49.593578" lon="10.00634">
<ele>293.308</ele>
<time>2019-05-30T13:45:58Z</time>
</trkpt>
<trkpt lat="49.593533" lon="10.006357">
<ele>293.308</ele>
<time>2019-05-30T13:45:59Z</time>
</trkpt>
<trkpt lat="49.593483" lon="10.006371">
<ele>293.308</ele>
<time>2019-05-30T13:46:00Z</time>
</trkpt>
<trkpt lat="49.593441" lon="10.006385">
<ele>293.308</ele>
<time>2019-05-30T13:46:01Z</time>
</trkpt>
<trkpt lat="49.593399" lon="10.006399">
<ele>293.308</ele>
<time>2019-05-30T13:46:02Z</time>
</trkpt>
<trkpt lat="49.593365" lon="10.006408">
<ele>293.308</ele>
<time>2019-05-30T13:46:03Z</time>
</trkpt>
<trkpt lat="49.593327" lon="10.006418">
<ele>293.308</ele>
<time>2019-05-30T13:46:04Z</time>
</trkpt>
<trkpt lat="49.593288" lon="10.006431">
<ele>293.308</ele>
<time>2019-05-30T13:46:05Z</time>
</trkpt>
<trkpt lat="49.593258" lon="10.006432">
<ele>293.308</ele>
<time>2019-05-30T13:46:06Z</time>
</trkpt>
<trkpt lat="49.593208" lon="10.006456">
<ele>293.308</ele>
<time>2019-05-30T13:46:07Z</time>
</trkpt>
<trkpt lat="49.593155" lon="10.00647">
<ele>293.308</ele>
<time>2019-05-30T13:46:08Z</time>
</trkpt>
<trkpt lat="49.593102" lon="10.006494">
<ele>293.308</ele>
<time>2019-05-30T13:46:09Z</time>
</trkpt>
<trkpt lat="49.593037" lon="10.006518">
<ele>293.308</ele>
<time>2019-05-30T13:46:10Z</time>
</trkpt>
<trkpt lat="49.592976" lon="10.006532">
<ele>293.308</ele>
<time>2019-05-30T13:46:11Z</time>
</trkpt>
<trkpt lat="49.592918" lon="10.006536">
<ele>293.564</ele>
<time>2019-05-30T13:46:12Z</time>
</trkpt>
<trkpt lat="49.592857" lon="10.006555">
<ele>293.749</ele>
<time>2019-05-30T13:46:13Z</time>
</trkpt>
<trkpt lat="49.5928" lon="10.006571">
<ele>293.882</ele>
<time>2019-05-30T13:46:14Z</time>
</trkpt>
<trkpt lat="49.592754" lon="10.006588">
<ele>293.963</ele>
<time>2019-05-30T13:46:15Z</time>
</trkpt>
<trkpt lat="49.592705" lon="10.0066">
<ele>294.034</ele>
<time>2019-05-30T13:46:16Z</time>
</trkpt>
<trkpt lat="49.592659" lon="10.006602">
<ele>294.085</ele>
<time>2019-05-30T13:46:17Z</time>
</trkpt>
<trkpt lat="49.592602" lon="10.006611">
<ele>294.129</ele>
<time>2019-05-30T13:46:18Z</time>
</trkpt>
<trkpt lat="49.592548" lon="10.006625">
<ele>294.155</ele>
<time>2019-05-30T13:46:19Z</time>
</trkpt>
<trkpt lat="49.592491" lon="10.006648">
<ele>294.42</ele>
<time>2019-05-30T13:46:20Z</time>
</trkpt>
<trkpt lat="49.592438" lon="10.006667">
<ele>294.629</ele>
<time>2019-05-30T13:46:21Z</time>
</trkpt>
<trkpt lat="49.592384" lon="10.006677">
<ele>294.8</ele>
<time>2019-05-30T13:46:22Z</time>
</trkpt>
<trkpt lat="49.592327" lon="10.006683">
<ele>294.92</ele>
<time>2019-05-30T13:46:23Z</time>
</trkpt>
<trkpt lat="49.592266" lon="10.006705">
<ele>294.996</ele>
<time>2019-05-30T13:46:24Z</time>
</trkpt>
<trkpt lat="49.592213" lon="10.006718">
<ele>295.044</ele>
<time>2019-05-30T13:46:25Z</time>
</trkpt>
<trkpt lat="49.592155" lon="10.006735">
<ele>295.066</ele>
<time>2019-05-30T13:46:26Z</time>
</trkpt>
<trkpt lat="49.592102" lon="10.006751">
<ele>295.086</ele>
<time>2019-05-30T13:46:27Z</time>
</trkpt>
<trkpt lat="49.592045" lon="10.006768">
<ele>295.087</ele>
<time>2019-05-30T13:46:28Z</time>
</trkpt>
<trkpt lat="49.591988" lon="10.006784">
<ele>295.087</ele>
<time>2019-05-30T13:46:29Z</time>
</trkpt>
<trkpt lat="49.591934" lon="10.006799">
<ele>295.087</ele>
<time>2019-05-30T13:46:30Z</time>
</trkpt>
<trkpt lat="49.591885" lon="10.00681">
<ele>295.087</ele>
<time>2019-05-30T13:46:31Z</time>
</trkpt>
<trkpt lat="49.591835" lon="10.006826">
<ele>295.335</ele>
<time>2019-05-30T13:46:32Z</time>
</trkpt>
<trkpt lat="49.591785" lon="10.006848">
<ele>295.533</ele>
<time>2019-05-30T13:46:33Z</time>
</trkpt>
<trkpt lat="49.591743" lon="10.006865">
<ele>295.681</ele>
<time>2019-05-30T13:46:34Z</time>
</trkpt>
<trkpt lat="49.591686" lon="10.00688">
<ele>295.795</ele>
<time>2019-05-30T13:46:35Z</time>
</trkpt>
<trkpt lat="49.591637" lon="10.006895">
<ele>295.876</ele>
<time>2019-05-30T13:46:36Z</time>
</trkpt>
<trkpt lat="49.591587" lon="10.006908">
<ele>295.934</ele>
<time>2019-05-30T13:46:37Z</time>
</trkpt>
<trkpt lat="49.591534" lon="10.006925">
<ele>295.991</ele>
<time>2019-05-30T13:46:38Z</time>
</trkpt>
<trkpt lat="49.591488" lon="10.00694">
<ele>296.018</ele>
<time>2019-05-30T13:46:39Z</time>
</trkpt>
<trkpt lat="49.591434" lon="10.006955">
<ele>296.018</ele>
<time>2019-05-30T13:46:40Z</time>
</trkpt>
<trkpt lat="49.591385" lon="10.006971">
<ele>296.018</ele>
<time>2019-05-30T13:46:41Z</time>
</trkpt>
<trkpt lat="49.591335" lon="10.006982">
<ele>296.248</ele>
<time>2019-05-30T13:46:42Z</time>
</trkpt>
<trkpt lat="49.59129" lon="10.006991">
<ele>296.423</ele>
<time>2019-05-30T13:46:43Z</time>
</trkpt>
<trkpt lat="49.591244" lon="10.007003">
<ele>296.561</ele>
<time>2019-05-30T13:46:44Z</time>
</trkpt>
<trkpt lat="49.591198" lon="10.007015">
<ele>296.663</ele>
<time>2019-05-30T13:46:45Z</time>
</trkpt>
<trkpt lat="49.591152" lon="10.007026">
<ele>296.737</ele>
<time>2019-05-30T13:46:46Z</time>
</trkpt>
<trkpt lat="49.591103" lon="10.007042">
<ele>296.793</ele>
<time>2019-05-30T13:46:47Z</time>
</trkpt>
<trkpt lat="49.591057" lon="10.00706">
<ele>296.842</ele>
<time>2019-05-30T13:46:48Z</time>
</trkpt>
<trkpt lat="49.591003" lon="10.007071">
<ele>296.865</ele>
<time>2019-05-30T13:46:49Z</time>
</trkpt>
<trkpt lat="49.59095" lon="10.007087">
<ele>296.865</ele>
<time>2019-05-30T13:46:50Z</time>
</trkpt>
<trkpt lat="49.5909" lon="10.007103">
<ele>296.865</ele>
<time>2019-05-30T13:46:51Z</time>
</trkpt>
<trkpt lat="49.590855" lon="10.007118">
<ele>296.865</ele>
<time>2019-05-30T13:46:52Z</time>
</trkpt>
<trkpt lat="49.590809" lon="10.007127">
<ele>296.865</ele>
<time>2019-05-30T13:46:53Z</time>
</trkpt>
<trkpt lat="49.590759" lon="10.007136">
<ele>296.865</ele>
<time>2019-05-30T13:46:54Z</time>
</trkpt>
<trkpt lat="49.59071" lon="10.007143">
<ele>296.865</ele>
<time>2019-05-30T13:46:55Z</time>
</trkpt>
<trkpt lat="49.590664" lon="10.007154">
<ele>296.865</ele>
<time>2019-05-30T13:46:56Z</time>
</trkpt>
<trkpt lat="49.590618" lon="10.007155">
<ele>296.865</ele>
<time>2019-05-30T13:46:57Z</time>
</trkpt>
<trkpt lat="49.590565" lon="10.007176">
<ele>297.091</ele>
<time>2019-05-30T13:46:58Z</time>
</trkpt>
<trkpt lat="49.590515" lon="10.007192">
<ele>297.283</ele>
<time>2019-05-30T13:46:59Z</time>
</trkpt>
<trkpt lat="49.590466" lon="10.007201">
<ele>297.445</ele>
<time>2019-05-30T13:47:00Z</time>
</trkpt>
<trkpt lat="49.590416" lon="10.007218">
<ele>297.571</ele>
<time>2019-05-30T13:47:01Z</time>
</trkpt>
<trkpt lat="49.590363" lon="10.007229">
<ele>297.664</ele>
<time>2019-05-30T13:47:02Z</time>
</trkpt>
<trkpt lat="49.590313" lon="10.007236">
<ele>297.733</ele>
<time>2019-05-30T13:47:03Z</time>
</trkpt>
<trkpt lat="49.59026" lon="10.007252">
<ele>297.777</ele>
<time>2019-05-30T13:47:04Z</time>
</trkpt>
<trkpt lat="49.590206" lon="10.007263">
<ele>297.797</ele>
<time>2019-05-30T13:47:05Z</time>
</trkpt>
<trkpt lat="49.590149" lon="10.007279">
<ele>297.797</ele>
<time>2019-05-30T13:47:06Z</time>
</trkpt>
<trkpt lat="49.590096" lon="10.007297">
<ele>297.797</ele>
<time>2019-05-30T13:47:07Z</time>
</trkpt>
<trkpt lat="49.590046" lon="10.007306">
<ele>297.797</ele>
<time>2019-05-30T13:47:08Z</time>
</trkpt>
<trkpt lat="49.589993" lon="10.007321">
<ele>297.797</ele>
<time>2019-05-30T13:47:09Z</time>
</trkpt>
<trkpt lat="49.589947" lon="10.007336">
<ele>297.797</ele>
<time>2019-05-30T13:47:10Z</time>
</trkpt>
<trkpt lat="49.589893" lon="10.007341">
<ele>297.797</ele>
<time>2019-05-30T13:47:11Z</time>
</trkpt>
<trkpt lat="49.589836" lon="10.007363">
<ele>297.797</ele>
<time>2019-05-30T13:47:12Z</time>
</trkpt>
<trkpt lat="49.589779" lon="10.007385">
<ele>297.797</ele>
<time>2019-05-30T13:47:13Z</time>
</trkpt>
<trkpt lat="49.589718" lon="10.007413">
<ele>297.797</ele>
<time>2019-05-30T13:47:14Z</time>
</trkpt>
<trkpt lat="49.589649" lon="10.007435">
<ele>297.797</ele>
<time>2019-05-30T13:47:15Z</time>
</trkpt>
<trkpt lat="49.589588" lon="10.007455">
<ele>297.797</ele>
<time>2019-05-30T13:47:16Z</time>
</trkpt>
<trkpt lat="49.589531" lon="10.007475">
<ele>297.797</ele>
<time>2019-05-30T13:47:17Z</time>
</trkpt>
<trkpt lat="49.58947" lon="10.007495">
<ele>297.797</ele>
<time>2019-05-30T13:47:18Z</time>
</trkpt>
<trkpt lat="49.589413" lon="10.007507">
<ele>297.797</ele>
<time>2019-05-30T13:47:19Z</time>
</trkpt>
<trkpt lat="49.589359" lon="10.00752">
<ele>297.797</ele>
<time>2019-05-30T13:47:20Z</time>
</trkpt>
<trkpt lat="49.589306" lon="10.007537">
<ele>297.797</ele>
<time>2019-05-30T13:47:21Z</time>
</trkpt>
<trkpt lat="49.589249" lon="10.007551">
<ele>297.797</ele>
<time>2019-05-30T13:47:22Z</time>
</trkpt>
<trkpt lat="49.589191" lon="10.007566">
<ele>297.797</ele>
<time>2019-05-30T13:47:23Z</time>
</trkpt>
<trkpt lat="49.589138" lon="10.007582">
<ele>297.797</ele>
<time>2019-05-30T13:47:24Z</time>
</trkpt>
<trkpt lat="49.589081" lon="10.007598">
<ele>297.797</ele>
<time>2019-05-30T13:47:25Z</time>
</trkpt>
<trkpt lat="49.589024" lon="10.007618">
<ele>297.797</ele>
<time>2019-05-30T13:47:26Z</time>
</trkpt>
<trkpt lat="49.588963" lon="10.007637">
<ele>297.797</ele>
<time>2019-05-30T13:47:27Z</time>
</trkpt>
<trkpt lat="49.588905" lon="10.007652">
<ele>297.797</ele>
<time>2019-05-30T13:47:28Z</time>
</trkpt>
<trkpt lat="49.588848" lon="10.007665">
<ele>297.797</ele>
<time>2019-05-30T13:47:29Z</time>
</trkpt>
<trkpt lat="49.588787" lon="10.007682">
<ele>297.797</ele>
<time>2019-05-30T13:47:30Z</time>
</trkpt>
<trkpt lat="49.588734" lon="10.007698">
<ele>297.797</ele>
<time>2019-05-30T13:47:31Z</time>
</trkpt>
<trkpt lat="49.588676" lon="10.007715">
<ele>297.797</ele>
<time>2019-05-30T13:47:32Z</time>
</trkpt>
<trkpt lat="49.588623" lon="10.007728">
<ele>297.797</ele>
<time>2019-05-30T13:47:33Z</time>
</trkpt>
<trkpt lat="49.588562" lon="10.007747">
<ele>297.797</ele>
<time>2019-05-30T13:47:34Z</time>
</trkpt>
<trkpt lat="49.588512" lon="10.00777">
<ele>297.797</ele>
<time>2019-05-30T13:47:35Z</time>
</trkpt>
<trkpt lat="49.588459" lon="10.007793">
<ele>297.797</ele>
<time>2019-05-30T13:47:36Z</time>
</trkpt>
<trkpt lat="49.588406" lon="10.007812">
<ele>297.797</ele>
<time>2019-05-30T13:47:37Z</time>
</trkpt>
<trkpt lat="49.588348" lon="10.00783">
<ele>297.797</ele>
<time>2019-05-30T13:47:38Z</time>
</trkpt>
<trkpt lat="49.588299" lon="10.00784">
<ele>297.797</ele>
<time>2019-05-30T13:47:39Z</time>
</trkpt>
<trkpt lat="49.588253" lon="10.007849">
<ele>297.797</ele>
<time>2019-05-30T13:47:40Z</time>
</trkpt>
<trkpt lat="49.588203" lon="10.007854">
<ele>297.797</ele>
<time>2019-05-30T13:47:41Z</time>
</trkpt>
<trkpt lat="49.588165" lon="10.007854">
<ele>297.797</ele>
<time>2019-05-30T13:47:42Z</time>
</trkpt>
<trkpt lat="49.58812" lon="10.007855">
<ele>297.797</ele>
<time>2019-05-30T13:47:43Z</time>
</trkpt>
<trkpt lat="49.58807" lon="10.007855">
<ele>297.797</ele>
<time>2019-05-30T13:47:44Z</time>
</trkpt>
<trkpt lat="49.588005" lon="10.007889">
<ele>297.797</ele>
<time>2019-05-30T13:47:45Z</time>
</trkpt>
<trkpt lat="49.587948" lon="10.007907">
<ele>298.029</ele>
<time>2019-05-30T13:47:46Z</time>
</trkpt>
<trkpt lat="49.587898" lon="10.007915">
<ele>298.2</ele>
<time>2019-05-30T13:47:47Z</time>
</trkpt>
<trkpt lat="49.587841" lon="10.007938">
<ele>298.371</ele>
<time>2019-05-30T13:47:48Z</time>
</trkpt>
<trkpt lat="49.587776" lon="10.007956">
<ele>298.507</ele>
<time>2019-05-30T13:47:49Z</time>
</trkpt>
<trkpt lat="49.587711" lon="10.007965">
<ele>298.61</ele>
<time>2019-05-30T13:47:50Z</time>
</trkpt>
<trkpt lat="49.58765" lon="10.007983">
<ele>298.671</ele>
<time>2019-05-30T13:47:51Z</time>
</trkpt>
<trkpt lat="49.587593" lon="10.008005">
<ele>298.71</ele>
<time>2019-05-30T13:47:52Z</time>
</trkpt>
<trkpt lat="49.58754" lon="10.008023">
<ele>298.729</ele>
<time>2019-05-30T13:47:53Z</time>
</trkpt>
<trkpt lat="49.587494" lon="10.008038">
<ele>298.729</ele>
<time>2019-05-30T13:47:54Z</time>
</trkpt>
<trkpt lat="49.587448" lon="10.00805">
<ele>298.729</ele>
<time>2019-05-30T13:47:55Z</time>
</trkpt>
<trkpt lat="49.587402" lon="10.008055">
<ele>298.729</ele>
<time>2019-05-30T13:47:56Z</time>
</trkpt>
<trkpt lat="49.587349" lon="10.00808">
<ele>298.994</ele>
<time>2019-05-30T13:47:57Z</time>
</trkpt>
<trkpt lat="49.587296" lon="10.008094">
<ele>299.256</ele>
<time>2019-05-30T13:47:58Z</time>
</trkpt>
<trkpt lat="49.587246" lon="10.008111">
<ele>299.479</ele>
<time>2019-05-30T13:47:59Z</time>
</trkpt>
<trkpt lat="49.587196" lon="10.008125">
<ele>299.663</ele>
<time>2019-05-30T13:48:00Z</time>
</trkpt>
<trkpt lat="49.587151" lon="10.008139">
<ele>299.81</ele>
<time>2019-05-30T13:48:01Z</time>
</trkpt>
<trkpt lat="49.587093" lon="10.008152">
<ele>299.915</ele>
<time>2019-05-30T13:48:02Z</time>
</trkpt>
<trkpt lat="49.58704" lon="10.008167">
<ele>299.973</ele>
<time>2019-05-30T13:48:03Z</time>
</trkpt>
<trkpt lat="49.586994" lon="10.008184">
<ele>300</ele>
<time>2019-05-30T13:48:04Z</time>
</trkpt>
<trkpt lat="49.586945" lon="10.008193">
<ele>300</ele>
<time>2019-05-30T13:48:05Z</time>
</trkpt>
<trkpt lat="49.586891" lon="10.008209">
<ele>300</ele>
<time>2019-05-30T13:48:06Z</time>
</trkpt>
<trkpt lat="49.58683" lon="10.008225">
<ele>300</ele>
<time>2019-05-30T13:48:07Z</time>
</trkpt>
<trkpt lat="49.586777" lon="10.008244">
<ele>300</ele>
<time>2019-05-30T13:48:08Z</time>
</trkpt>
<trkpt lat="49.58672" lon="10.008262">
<ele>300</ele>
<time>2019-05-30T13:48:09Z</time>
</trkpt>
<trkpt lat="49.586658" lon="10.008282">
<ele>300</ele>
<time>2019-05-30T13:48:10Z</time>
</trkpt>
<trkpt lat="49.586601" lon="10.008298">
<ele>300</ele>
<time>2019-05-30T13:48:11Z</time>
</trkpt>
<trkpt lat="49.586544" lon="10.008314">
<ele>300.26</ele>
<time>2019-05-30T13:48:12Z</time>
</trkpt>
<trkpt lat="49.586491" lon="10.008325">
<ele>300.457</ele>
<time>2019-05-30T13:48:13Z</time>
</trkpt>
<trkpt lat="49.586437" lon="10.00834">
<ele>300.602</ele>
<time>2019-05-30T13:48:14Z</time>
</trkpt>
<trkpt lat="49.58638" lon="10.008353">
<ele>300.713</ele>
<time>2019-05-30T13:48:15Z</time>
</trkpt>
<trkpt lat="49.586327" lon="10.008368">
<ele>300.793</ele>
<time>2019-05-30T13:48:16Z</time>
</trkpt>
<trkpt lat="49.586273" lon="10.008382">
<ele>300.852</ele>
<time>2019-05-30T13:48:17Z</time>
</trkpt>
<trkpt lat="49.586216" lon="10.008396">
<ele>300.905</ele>
<time>2019-05-30T13:48:18Z</time>
</trkpt>
<trkpt lat="49.586166" lon="10.00841">
<ele>300.932</ele>
<time>2019-05-30T13:48:19Z</time>
</trkpt>
<trkpt lat="49.586113" lon="10.008425">
<ele>300.932</ele>
<time>2019-05-30T13:48:20Z</time>
</trkpt>
<trkpt lat="49.586056" lon="10.008438">
<ele>300.932</ele>
<time>2019-05-30T13:48:21Z</time>
</trkpt>
<trkpt lat="49.586002" lon="10.008453">
<ele>300.932</ele>
<time>2019-05-30T13:48:22Z</time>
</trkpt>
<trkpt lat="49.585945" lon="10.00847">
<ele>300.932</ele>
<time>2019-05-30T13:48:23Z</time>
</trkpt>
<trkpt lat="49.585884" lon="10.008486">
<ele>301.175</ele>
<time>2019-05-30T13:48:24Z</time>
</trkpt>
<trkpt lat="49.585827" lon="10.008498">
<ele>301.366</ele>
<time>2019-05-30T13:48:25Z</time>
</trkpt>
<trkpt lat="49.585773" lon="10.008515">
<ele>301.512</ele>
<time>2019-05-30T13:48:26Z</time>
</trkpt>
<trkpt lat="49.58572" lon="10.008528">
<ele>301.612</ele>
<time>2019-05-30T13:48:27Z</time>
</trkpt>
<trkpt lat="49.585667" lon="10.008542">
<ele>301.713</ele>
<time>2019-05-30T13:48:28Z</time>
</trkpt>
<trkpt lat="49.585621" lon="10.008557">
<ele>302.013</ele>
<time>2019-05-30T13:48:29Z</time>
</trkpt>
<trkpt lat="49.585567" lon="10.008572">
<ele>302.247</ele>
<time>2019-05-30T13:48:30Z</time>
</trkpt>
<trkpt lat="49.585518" lon="10.008587">
<ele>302.426</ele>
<time>2019-05-30T13:48:31Z</time>
</trkpt>
<trkpt lat="49.585464" lon="10.0086">
<ele>302.627</ele>
<time>2019-05-30T13:48:32Z</time>
</trkpt>
<trkpt lat="49.585419" lon="10.008615">
<ele>302.714</ele>
<time>2019-05-30T13:48:33Z</time>
</trkpt>
<trkpt lat="49.585365" lon="10.008628">
<ele>302.762</ele>
<time>2019-05-30T13:48:34Z</time>
</trkpt>
<trkpt lat="49.585323" lon="10.008636">
<ele>302.999</ele>
<time>2019-05-30T13:48:35Z</time>
</trkpt>
<trkpt lat="49.585278" lon="10.008641">
<ele>303.17</ele>
<time>2019-05-30T13:48:36Z</time>
</trkpt>
<trkpt lat="49.585232" lon="10.008649">
<ele>303.286</ele>
<time>2019-05-30T13:48:37Z</time>
</trkpt>
<trkpt lat="49.585182" lon="10.008658">
<ele>303.409</ele>
<time>2019-05-30T13:48:38Z</time>
</trkpt>
<trkpt lat="49.58514" lon="10.008672">
<ele>303.504</ele>
<time>2019-05-30T13:48:39Z</time>
</trkpt>
<trkpt lat="49.585098" lon="10.008687">
<ele>303.575</ele>
<time>2019-05-30T13:48:40Z</time>
</trkpt>
<trkpt lat="49.585049" lon="10.008705">
<ele>303.621</ele>
<time>2019-05-30T13:48:41Z</time>
</trkpt>
<trkpt lat="49.585003" lon="10.008717">
<ele>303.644</ele>
<time>2019-05-30T13:48:42Z</time>
</trkpt>
<trkpt lat="49.584953" lon="10.008729">
<ele>303.644</ele>
<time>2019-05-30T13:48:43Z</time>
</trkpt>
<trkpt lat="49.584904" lon="10.008745">
<ele>303.91</ele>
<time>2019-05-30T13:48:44Z</time>
</trkpt>
<trkpt lat="49.58485" lon="10.00876">
<ele>304.118</ele>
<time>2019-05-30T13:48:45Z</time>
</trkpt>
<trkpt lat="49.584801" lon="10.00877">
<ele>304.28</ele>
<time>2019-05-30T13:48:46Z</time>
</trkpt>
<trkpt lat="49.584743" lon="10.008779">
<ele>304.391</ele>
<time>2019-05-30T13:48:47Z</time>
</trkpt>
<trkpt lat="49.584698" lon="10.008794">
<ele>304.505</ele>
<time>2019-05-30T13:48:48Z</time>
</trkpt>
<trkpt lat="49.584644" lon="10.008815">
<ele>304.584</ele>
<time>2019-05-30T13:48:49Z</time>
</trkpt>
<trkpt lat="49.584591" lon="10.008836">
<ele>304.637</ele>
<time>2019-05-30T13:48:50Z</time>
</trkpt>
<trkpt lat="49.584538" lon="10.008855">
<ele>304.661</ele>
<time>2019-05-30T13:48:51Z</time>
</trkpt>
<trkpt lat="49.584484" lon="10.008869">
<ele>304.661</ele>
<time>2019-05-30T13:48:52Z</time>
</trkpt>
<trkpt lat="49.584442" lon="10.008882">
<ele>304.661</ele>
<time>2019-05-30T13:48:53Z</time>
</trkpt>
<trkpt lat="49.584393" lon="10.008893">
<ele>304.661</ele>
<time>2019-05-30T13:48:54Z</time>
</trkpt>
<trkpt lat="49.584347" lon="10.008909">
<ele>304.661</ele>
<time>2019-05-30T13:48:55Z</time>
</trkpt>
<trkpt lat="49.584301" lon="10.008926">
<ele>304.661</ele>
<time>2019-05-30T13:48:56Z</time>
</trkpt>
<trkpt lat="49.584251" lon="10.008942">
<ele>304.661</ele>
<time>2019-05-30T13:48:57Z</time>
</trkpt>
<trkpt lat="49.584206" lon="10.008957">
<ele>304.661</ele>
<time>2019-05-30T13:48:58Z</time>
</trkpt>
<trkpt lat="49.584156" lon="10.008968">
<ele>304.959</ele>
<time>2019-05-30T13:48:59Z</time>
</trkpt>
<trkpt lat="49.584099" lon="10.008986">
<ele>305.2</ele>
<time>2019-05-30T13:49:00Z</time>
</trkpt>
<trkpt lat="49.584045" lon="10.009007">
<ele>305.386</ele>
<time>2019-05-30T13:49:01Z</time>
</trkpt>
<trkpt lat="49.583996" lon="10.009024">
<ele>305.514</ele>
<time>2019-05-30T13:49:02Z</time>
</trkpt>
<trkpt lat="49.583946" lon="10.009042">
<ele>305.601</ele>
<time>2019-05-30T13:49:03Z</time>
</trkpt>
<trkpt lat="49.583897" lon="10.009056">
<ele>305.655</ele>
<time>2019-05-30T13:49:04Z</time>
</trkpt>
<trkpt lat="49.583843" lon="10.009075">
<ele>305.678</ele>
<time>2019-05-30T13:49:05Z</time>
</trkpt>
<trkpt lat="49.583794" lon="10.009087">
<ele>305.678</ele>
<time>2019-05-30T13:49:06Z</time>
</trkpt>
<trkpt lat="49.583744" lon="10.009091">
<ele>305.678</ele>
<time>2019-05-30T13:49:07Z</time>
</trkpt>
<trkpt lat="49.583694" lon="10.009105">
<ele>305.678</ele>
<time>2019-05-30T13:49:08Z</time>
</trkpt>
<trkpt lat="49.583641" lon="10.00912">
<ele>305.678</ele>
<time>2019-05-30T13:49:09Z</time>
</trkpt>
<trkpt lat="49.583588" lon="10.009137">
<ele>305.678</ele>
<time>2019-05-30T13:49:10Z</time>
</trkpt>
<trkpt lat="49.583538" lon="10.009153">
<ele>305.678</ele>
<time>2019-05-30T13:49:11Z</time>
</trkpt>
<trkpt lat="49.583485" lon="10.009169">
<ele>305.678</ele>
<time>2019-05-30T13:49:12Z</time>
</trkpt>
<trkpt lat="49.583435" lon="10.009182">
<ele>305.678</ele>
<time>2019-05-30T13:49:13Z</time>
</trkpt>
<trkpt lat="49.583382" lon="10.009196">
<ele>305.678</ele>
<time>2019-05-30T13:49:14Z</time>
</trkpt>
<trkpt lat="49.583328" lon="10.009215">
<ele>305.678</ele>
<time>2019-05-30T13:49:15Z</time>
</trkpt>
<trkpt lat="49.583275" lon="10.009233">
<ele>305.678</ele>
<time>2019-05-30T13:49:16Z</time>
</trkpt>
<trkpt lat="49.583218" lon="10.009251">
<ele>305.678</ele>
<time>2019-05-30T13:49:17Z</time>
</trkpt>
<trkpt lat="49.583164" lon="10.009267">
<ele>305.678</ele>
<time>2019-05-30T13:49:18Z</time>
</trkpt>
<trkpt lat="49.583111" lon="10.009282">
<ele>305.678</ele>
<time>2019-05-30T13:49:19Z</time>
</trkpt>
<trkpt lat="49.583057" lon="10.009296">
<ele>305.678</ele>
<time>2019-05-30T13:49:20Z</time>
</trkpt>
<trkpt lat="49.583004" lon="10.00931">
<ele>305.678</ele>
<time>2019-05-30T13:49:21Z</time>
</trkpt>
<trkpt lat="49.582954" lon="10.009323">
<ele>305.678</ele>
<time>2019-05-30T13:49:22Z</time>
</trkpt>
<trkpt lat="49.582909" lon="10.009334">
<ele>305.678</ele>
<time>2019-05-30T13:49:23Z</time>
</trkpt>
<trkpt lat="49.582863" lon="10.009341">
<ele>305.678</ele>
<time>2019-05-30T13:49:24Z</time>
</trkpt>
<trkpt lat="49.582829" lon="10.009349">
<ele>305.678</ele>
<time>2019-05-30T13:49:25Z</time>
</trkpt>
<trkpt lat="49.582794" lon="10.009356">
<ele>305.678</ele>
<time>2019-05-30T13:49:26Z</time>
</trkpt>
<trkpt lat="49.582771" lon="10.00937">
<ele>305.869</ele>
<time>2019-05-30T13:49:27Z</time>
</trkpt>
<trkpt lat="49.582745" lon="10.009385">
<ele>306.046</ele>
<time>2019-05-30T13:49:28Z</time>
</trkpt>
<trkpt lat="49.582718" lon="10.009389">
<ele>306.199</ele>
<time>2019-05-30T13:49:29Z</time>
</trkpt>
<trkpt lat="49.582684" lon="10.009387">
<ele>306.331</ele>
<time>2019-05-30T13:49:30Z</time>
</trkpt>
<trkpt lat="49.582653" lon="10.009392">
<ele>306.441</ele>
<time>2019-05-30T13:49:31Z</time>
</trkpt>
<trkpt lat="49.582619" lon="10.009403">
<ele>306.529</ele>
<time>2019-05-30T13:49:32Z</time>
</trkpt>
<trkpt lat="49.582581" lon="10.00942">
<ele>306.585</ele>
<time>2019-05-30T13:49:33Z</time>
</trkpt>
<trkpt lat="49.582546" lon="10.009433">
<ele>306.611</ele>
<time>2019-05-30T13:49:34Z</time>
</trkpt>
<trkpt lat="49.582508" lon="10.009439">
<ele>306.61</ele>
<time>2019-05-30T13:49:35Z</time>
</trkpt>
<trkpt lat="49.58247" lon="10.009441">
<ele>306.61</ele>
<time>2019-05-30T13:49:36Z</time>
</trkpt>
<trkpt lat="49.582432" lon="10.009448">
<ele>306.611</ele>
<time>2019-05-30T13:49:37Z</time>
</trkpt>
<trkpt lat="49.582397" lon="10.009456">
<ele>306.61</ele>
<time>2019-05-30T13:49:38Z</time>
</trkpt>
<trkpt lat="49.582363" lon="10.009464">
<ele>306.611</ele>
<time>2019-05-30T13:49:39Z</time>
</trkpt>
<trkpt lat="49.582329" lon="10.009477">
<ele>306.611</ele>
<time>2019-05-30T13:49:40Z</time>
</trkpt>
<trkpt lat="49.582294" lon="10.009485">
<ele>306.611</ele>
<time>2019-05-30T13:49:41Z</time>
</trkpt>
<trkpt lat="49.582256" lon="10.009494">
<ele>306.61</ele>
<time>2019-05-30T13:49:42Z</time>
</trkpt>
<trkpt lat="49.582222" lon="10.009506">
<ele>306.61</ele>
<time>2019-05-30T13:49:43Z</time>
</trkpt>
<trkpt lat="49.582188" lon="10.009517">
<ele>306.61</ele>
<time>2019-05-30T13:49:44Z</time>
</trkpt>
<trkpt lat="49.582153" lon="10.009527">
<ele>306.61</ele>
<time>2019-05-30T13:49:45Z</time>
</trkpt>
<trkpt lat="49.582115" lon="10.009533">
<ele>306.611</ele>
<time>2019-05-30T13:49:46Z</time>
</trkpt>
<trkpt lat="49.582081" lon="10.009545">
<ele>306.611</ele>
<time>2019-05-30T13:49:47Z</time>
</trkpt>
<trkpt lat="49.582039" lon="10.009554">
<ele>306.611</ele>
<time>2019-05-30T13:49:48Z</time>
</trkpt>
<trkpt lat="49.582001" lon="10.009562">
<ele>306.61</ele>
<time>2019-05-30T13:49:49Z</time>
</trkpt>
<trkpt lat="49.581951" lon="10.009577">
<ele>306.611</ele>
<time>2019-05-30T13:49:50Z</time>
</trkpt>
<trkpt lat="49.581905" lon="10.009594">
<ele>306.61</ele>
<time>2019-05-30T13:49:51Z</time>
</trkpt>
<trkpt lat="49.58186" lon="10.009608">
<ele>306.61</ele>
<time>2019-05-30T13:49:52Z</time>
</trkpt>
<trkpt lat="49.58181" lon="10.009619">
<ele>306.61</ele>
<time>2019-05-30T13:49:53Z</time>
</trkpt>
<trkpt lat="49.581768" lon="10.00963">
<ele>306.611</ele>
<time>2019-05-30T13:49:54Z</time>
</trkpt>
<trkpt lat="49.581715" lon="10.009644">
<ele>306.611</ele>
<time>2019-05-30T13:49:55Z</time>
</trkpt>
<trkpt lat="49.581669" lon="10.009657">
<ele>306.61</ele>
<time>2019-05-30T13:49:56Z</time>
</trkpt>
<trkpt lat="49.581615" lon="10.00967">
<ele>306.61</ele>
<time>2019-05-30T13:49:57Z</time>
</trkpt>
<trkpt lat="49.58157" lon="10.009685">
<ele>306.611</ele>
<time>2019-05-30T13:49:58Z</time>
</trkpt>
<trkpt lat="49.581516" lon="10.0097">
<ele>306.611</ele>
<time>2019-05-30T13:49:59Z</time>
</trkpt>
<trkpt lat="49.581467" lon="10.009715">
<ele>306.61</ele>
<time>2019-05-30T13:50:00Z</time>
</trkpt>
<trkpt lat="49.581417" lon="10.009728">
<ele>306.61</ele>
<time>2019-05-30T13:50:01Z</time>
</trkpt>
<trkpt lat="49.581371" lon="10.009741">
<ele>306.611</ele>
<time>2019-05-30T13:50:02Z</time>
</trkpt>
<trkpt lat="49.581322" lon="10.009753">
<ele>306.61</ele>
<time>2019-05-30T13:50:03Z</time>
</trkpt>
<trkpt lat="49.581272" lon="10.00977">
<ele>306.61</ele>
<time>2019-05-30T13:50:04Z</time>
</trkpt>
<trkpt lat="49.581223" lon="10.009785">
<ele>306.61</ele>
<time>2019-05-30T13:50:05Z</time>
</trkpt>
<trkpt lat="49.581173" lon="10.0098">
<ele>306.61</ele>
<time>2019-05-30T13:50:06Z</time>
</trkpt>
<trkpt lat="49.581123" lon="10.009813">
<ele>306.61</ele>
<time>2019-05-30T13:50:07Z</time>
</trkpt>
<trkpt lat="49.58107" lon="10.009825">
<ele>306.611</ele>
<time>2019-05-30T13:50:08Z</time>
</trkpt>
<trkpt lat="49.581024" lon="10.009839">
<ele>306.61</ele>
<time>2019-05-30T13:50:09Z</time>
</trkpt>
<trkpt lat="49.580971" lon="10.009853">
<ele>306.61</ele>
<time>2019-05-30T13:50:10Z</time>
</trkpt>
<trkpt lat="49.580921" lon="10.009871">
<ele>306.611</ele>
<time>2019-05-30T13:50:11Z</time>
</trkpt>
<trkpt lat="49.580868" lon="10.009887">
<ele>306.61</ele>
<time>2019-05-30T13:50:12Z</time>
</trkpt>
<trkpt lat="49.580818" lon="10.009902">
<ele>306.61</ele>
<time>2019-05-30T13:50:13Z</time>
</trkpt>
<trkpt lat="49.580765" lon="10.009918">
<ele>306.61</ele>
<time>2019-05-30T13:50:14Z</time>
</trkpt>
<trkpt lat="49.580708" lon="10.009935">
<ele>306.61</ele>
<time>2019-05-30T13:50:15Z</time>
</trkpt>
<trkpt lat="49.580654" lon="10.009952">
<ele>306.611</ele>
<time>2019-05-30T13:50:16Z</time>
</trkpt>
<trkpt lat="49.580605" lon="10.009967">
<ele>306.61</ele>
<time>2019-05-30T13:50:17Z</time>
</trkpt>
<trkpt lat="49.580547" lon="10.009982">
<ele>306.61</ele>
<time>2019-05-30T13:50:18Z</time>
</trkpt>
<trkpt lat="49.58049" lon="10.009996">
<ele>306.611</ele>
<time>2019-05-30T13:50:19Z</time>
</trkpt>
<trkpt lat="49.580437" lon="10.010014">
<ele>306.61</ele>
<time>2019-05-30T13:50:20Z</time>
</trkpt>
<trkpt lat="49.580379" lon="10.010026">
<ele>306.611</ele>
<time>2019-05-30T13:50:21Z</time>
</trkpt>
<trkpt lat="49.580326" lon="10.010043">
<ele>306.61</ele>
<time>2019-05-30T13:50:22Z</time>
</trkpt>
<trkpt lat="49.580273" lon="10.010063">
<ele>306.61</ele>
<time>2019-05-30T13:50:23Z</time>
</trkpt>
<trkpt lat="49.580212" lon="10.01008">
<ele>306.61</ele>
<time>2019-05-30T13:50:24Z</time>
</trkpt>
<trkpt lat="49.580158" lon="10.010097">
<ele>306.61</ele>
<time>2019-05-30T13:50:25Z</time>
</trkpt>
<trkpt lat="49.580101" lon="10.010112">
<ele>306.61</ele>
<time>2019-05-30T13:50:26Z</time>
</trkpt>
<trkpt lat="49.580048" lon="10.010128">
<ele>306.611</ele>
<time>2019-05-30T13:50:27Z</time>
</trkpt>
<trkpt lat="49.57999" lon="10.010145">
<ele>306.61</ele>
<time>2019-05-30T13:50:28Z</time>
</trkpt>
<trkpt lat="49.579933" lon="10.010163">
<ele>306.611</ele>
<time>2019-05-30T13:50:29Z</time>
</trkpt>
<trkpt lat="49.579876" lon="10.010179">
<ele>306.611</ele>
<time>2019-05-30T13:50:30Z</time>
</trkpt>
<trkpt lat="49.579823" lon="10.010193">
<ele>306.61</ele>
<time>2019-05-30T13:50:31Z</time>
</trkpt>
<trkpt lat="49.579765" lon="10.010206">
<ele>306.61</ele>
<time>2019-05-30T13:50:32Z</time>
</trkpt>
<trkpt lat="49.579708" lon="10.010219">
<ele>306.61</ele>
<time>2019-05-30T13:50:33Z</time>
</trkpt>
<trkpt lat="49.579655" lon="10.010233">
<ele>306.61</ele>
<time>2019-05-30T13:50:34Z</time>
</trkpt>
<trkpt lat="49.579594" lon="10.010248">
<ele>306.61</ele>
<time>2019-05-30T13:50:35Z</time>
</trkpt>
<trkpt lat="49.579536" lon="10.010264">
<ele>306.61</ele>
<time>2019-05-30T13:50:36Z</time>
</trkpt>
<trkpt lat="49.579479" lon="10.010283">
<ele>306.611</ele>
<time>2019-05-30T13:50:37Z</time>
</trkpt>
<trkpt lat="49.579422" lon="10.010302">
<ele>306.61</ele>
<time>2019-05-30T13:50:38Z</time>
</trkpt>
<trkpt lat="49.579365" lon="10.010319">
<ele>306.61</ele>
<time>2019-05-30T13:50:39Z</time>
</trkpt>
<trkpt lat="49.579304" lon="10.010335">
<ele>306.611</ele>
<time>2019-05-30T13:50:40Z</time>
</trkpt>
<trkpt lat="49.579247" lon="10.01035">
<ele>306.61</ele>
<time>2019-05-30T13:50:41Z</time>
</trkpt>
<trkpt lat="49.579189" lon="10.010368">
<ele>306.611</ele>
<time>2019-05-30T13:50:42Z</time>
</trkpt>
<trkpt lat="49.579136" lon="10.010386">
<ele>306.61</ele>
<time>2019-05-30T13:50:43Z</time>
</trkpt>
<trkpt lat="49.579075" lon="10.010402">
<ele>306.827</ele>
<time>2019-05-30T13:50:44Z</time>
</trkpt>
<trkpt lat="49.579021" lon="10.010418">
<ele>306.996</ele>
<time>2019-05-30T13:50:45Z</time>
</trkpt>
<trkpt lat="49.578964" lon="10.010434">
<ele>307.13</ele>
<time>2019-05-30T13:50:46Z</time>
</trkpt>
<trkpt lat="49.578907" lon="10.010448">
<ele>307.221</ele>
<time>2019-05-30T13:50:47Z</time>
</trkpt>
<trkpt lat="49.57885" lon="10.010464">
<ele>307.319</ele>
<time>2019-05-30T13:50:48Z</time>
</trkpt>
<trkpt lat="49.578796" lon="10.01048">
<ele>307.391</ele>
<time>2019-05-30T13:50:49Z</time>
</trkpt>
<trkpt lat="49.578739" lon="10.010499">
<ele>307.437</ele>
<time>2019-05-30T13:50:50Z</time>
</trkpt>
<trkpt lat="49.578678" lon="10.010515">
<ele>307.459</ele>
<time>2019-05-30T13:50:51Z</time>
</trkpt>
<trkpt lat="49.578625" lon="10.010531">
<ele>307.459</ele>
<time>2019-05-30T13:50:52Z</time>
</trkpt>
<trkpt lat="49.578568" lon="10.010547">
<ele>307.459</ele>
<time>2019-05-30T13:50:53Z</time>
</trkpt>
<trkpt lat="49.57851" lon="10.010562">
<ele>307.459</ele>
<time>2019-05-30T13:50:54Z</time>
</trkpt>
<trkpt lat="49.578453" lon="10.010578">
<ele>307.459</ele>
<time>2019-05-30T13:50:55Z</time>
</trkpt>
<trkpt lat="49.578392" lon="10.010592">
<ele>307.459</ele>
<time>2019-05-30T13:50:56Z</time>
</trkpt>
<trkpt lat="49.578331" lon="10.010605">
<ele>307.459</ele>
<time>2019-05-30T13:50:57Z</time>
</trkpt>
<trkpt lat="49.578278" lon="10.010621">
<ele>307.459</ele>
<time>2019-05-30T13:50:58Z</time>
</trkpt>
<trkpt lat="49.57822" lon="10.010637">
<ele>307.459</ele>
<time>2019-05-30T13:50:59Z</time>
</trkpt>
<trkpt lat="49.578159" lon="10.010652">
<ele>307.459</ele>
<time>2019-05-30T13:51:00Z</time>
</trkpt>
<trkpt lat="49.578106" lon="10.010665">
<ele>307.459</ele>
<time>2019-05-30T13:51:01Z</time>
</trkpt>
<trkpt lat="49.578049" lon="10.010678">
<ele>307.459</ele>
<time>2019-05-30T13:51:02Z</time>
</trkpt>
<trkpt lat="49.577991" lon="10.010695">
<ele>307.459</ele>
<time>2019-05-30T13:51:03Z</time>
</trkpt>
<trkpt lat="49.57793" lon="10.010715">
<ele>307.459</ele>
<time>2019-05-30T13:51:04Z</time>
</trkpt>
<trkpt lat="49.577877" lon="10.010734">
<ele>307.459</ele>
<time>2019-05-30T13:51:05Z</time>
</trkpt>
<trkpt lat="49.57782" lon="10.010751">
<ele>307.459</ele>
<time>2019-05-30T13:51:06Z</time>
</trkpt>
<trkpt lat="49.577763" lon="10.010765">
<ele>307.459</ele>
<time>2019-05-30T13:51:07Z</time>
</trkpt>
<trkpt lat="49.577702" lon="10.01078">
<ele>307.459</ele>
<time>2019-05-30T13:51:08Z</time>
</trkpt>
<trkpt lat="49.577644" lon="10.010795">
<ele>307.459</ele>
<time>2019-05-30T13:51:09Z</time>
</trkpt>
<trkpt lat="49.577591" lon="10.010812">
<ele>307.459</ele>
<time>2019-05-30T13:51:10Z</time>
</trkpt>
<trkpt lat="49.577534" lon="10.010828">
<ele>307.459</ele>
<time>2019-05-30T13:51:11Z</time>
</trkpt>
<trkpt lat="49.577477" lon="10.010847">
<ele>307.205</ele>
<time>2019-05-30T13:51:12Z</time>
</trkpt>
<trkpt lat="49.577419" lon="10.010865">
<ele>307.008</ele>
<time>2019-05-30T13:51:13Z</time>
</trkpt>
<trkpt lat="49.577358" lon="10.010882">
<ele>306.857</ele>
<time>2019-05-30T13:51:14Z</time>
</trkpt>
<trkpt lat="49.577301" lon="10.0109">
<ele>306.741</ele>
<time>2019-05-30T13:51:15Z</time>
</trkpt>
<trkpt lat="49.577244" lon="10.010915">
<ele>306.661</ele>
<time>2019-05-30T13:51:16Z</time>
</trkpt>
<trkpt lat="49.577183" lon="10.010931">
<ele>306.603</ele>
<time>2019-05-30T13:51:17Z</time>
</trkpt>
<trkpt lat="49.577126" lon="10.010948">
<ele>306.55</ele>
<time>2019-05-30T13:51:18Z</time>
</trkpt>
<trkpt lat="49.577068" lon="10.010964">
<ele>306.526</ele>
<time>2019-05-30T13:51:19Z</time>
</trkpt>
<trkpt lat="49.577007" lon="10.01098">
<ele>306.526</ele>
<time>2019-05-30T13:51:20Z</time>
</trkpt>
<trkpt lat="49.57695" lon="10.010995">
<ele>306.526</ele>
<time>2019-05-30T13:51:21Z</time>
</trkpt>
<trkpt lat="49.576893" lon="10.011012">
<ele>306.526</ele>
<time>2019-05-30T13:51:22Z</time>
</trkpt>
<trkpt lat="49.576836" lon="10.011028">
<ele>306.526</ele>
<time>2019-05-30T13:51:23Z</time>
</trkpt>
<trkpt lat="49.576782" lon="10.011045">
<ele>306.526</ele>
<time>2019-05-30T13:51:24Z</time>
</trkpt>
<trkpt lat="49.576725" lon="10.011062">
<ele>306.526</ele>
<time>2019-05-30T13:51:25Z</time>
</trkpt>
<trkpt lat="49.576664" lon="10.011078">
<ele>306.526</ele>
<time>2019-05-30T13:51:26Z</time>
</trkpt>
<trkpt lat="49.576603" lon="10.011095">
<ele>306.526</ele>
<time>2019-05-30T13:51:27Z</time>
</trkpt>
<trkpt lat="49.576546" lon="10.01111">
<ele>306.526</ele>
<time>2019-05-30T13:51:28Z</time>
</trkpt>
<trkpt lat="49.576488" lon="10.011124">
<ele>306.526</ele>
<time>2019-05-30T13:51:29Z</time>
</trkpt>
<trkpt lat="49.576431" lon="10.01114">
<ele>306.526</ele>
<time>2019-05-30T13:51:30Z</time>
</trkpt>
<trkpt lat="49.576374" lon="10.011155">
<ele>306.526</ele>
<time>2019-05-30T13:51:31Z</time>
</trkpt>
<trkpt lat="49.576313" lon="10.011171">
<ele>306.526</ele>
<time>2019-05-30T13:51:32Z</time>
</trkpt>
<trkpt lat="49.576256" lon="10.011189">
<ele>306.526</ele>
<time>2019-05-30T13:51:33Z</time>
</trkpt>
<trkpt lat="49.576199" lon="10.011205">
<ele>306.526</ele>
<time>2019-05-30T13:51:34Z</time>
</trkpt>
<trkpt lat="49.576141" lon="10.01122">
<ele>306.526</ele>
<time>2019-05-30T13:51:35Z</time>
</trkpt>
<trkpt lat="49.576084" lon="10.011233">
<ele>306.526</ele>
<time>2019-05-30T13:51:36Z</time>
</trkpt>
<trkpt lat="49.576031" lon="10.011247">
<ele>306.526</ele>
<time>2019-05-30T13:51:37Z</time>
</trkpt>
<trkpt lat="49.575974" lon="10.011262">
<ele>306.526</ele>
<time>2019-05-30T13:51:38Z</time>
</trkpt>
<trkpt lat="49.575916" lon="10.011276">
<ele>306.25</ele>
<time>2019-05-30T13:51:39Z</time>
</trkpt>
<trkpt lat="49.575863" lon="10.011292">
<ele>306.038</ele>
<time>2019-05-30T13:51:40Z</time>
</trkpt>
<trkpt lat="49.575809" lon="10.011307">
<ele>305.875</ele>
<time>2019-05-30T13:51:41Z</time>
</trkpt>
<trkpt lat="49.575752" lon="10.011322">
<ele>305.755</ele>
<time>2019-05-30T13:51:42Z</time>
</trkpt>
<trkpt lat="49.575699" lon="10.011335">
<ele>305.672</ele>
<time>2019-05-30T13:51:43Z</time>
</trkpt>
<trkpt lat="49.575645" lon="10.01135">
<ele>305.621</ele>
<time>2019-05-30T13:51:44Z</time>
</trkpt>
<trkpt lat="49.575588" lon="10.011365">
<ele>305.593</ele>
<time>2019-05-30T13:51:45Z</time>
</trkpt>
<trkpt lat="49.575535" lon="10.011378">
<ele>305.593</ele>
<time>2019-05-30T13:51:46Z</time>
</trkpt>
<trkpt lat="49.575481" lon="10.011395">
<ele>305.593</ele>
<time>2019-05-30T13:51:47Z</time>
</trkpt>
<trkpt lat="49.575428" lon="10.011411">
<ele>305.593</ele>
<time>2019-05-30T13:51:48Z</time>
</trkpt>
<trkpt lat="49.575375" lon="10.011427">
<ele>305.593</ele>
<time>2019-05-30T13:51:49Z</time>
</trkpt>
<trkpt lat="49.575325" lon="10.011442">
<ele>305.593</ele>
<time>2019-05-30T13:51:50Z</time>
</trkpt>
<trkpt lat="49.575275" lon="10.011455">
<ele>305.593</ele>
<time>2019-05-30T13:51:51Z</time>
</trkpt>
<trkpt lat="49.575226" lon="10.011467">
<ele>305.593</ele>
<time>2019-05-30T13:51:52Z</time>
</trkpt>
<trkpt lat="49.575176" lon="10.011478">
<ele>305.593</ele>
<time>2019-05-30T13:51:53Z</time>
</trkpt>
<trkpt lat="49.575127" lon="10.011492">
<ele>305.357</ele>
<time>2019-05-30T13:51:54Z</time>
</trkpt>
<trkpt lat="49.575073" lon="10.011501">
<ele>305.17</ele>
<time>2019-05-30T13:51:55Z</time>
</trkpt>
<trkpt lat="49.575027" lon="10.011512">
<ele>305.025</ele>
<time>2019-05-30T13:51:56Z</time>
</trkpt>
<trkpt lat="49.574986" lon="10.011523">
<ele>304.924</ele>
<time>2019-05-30T13:51:57Z</time>
</trkpt>
<trkpt lat="49.574944" lon="10.011535">
<ele>304.615</ele>
<time>2019-05-30T13:51:58Z</time>
</trkpt>
<trkpt lat="49.574909" lon="10.011545">
<ele>304.371</ele>
<time>2019-05-30T13:51:59Z</time>
</trkpt>
<trkpt lat="49.574867" lon="10.011551">
<ele>304.181</ele>
<time>2019-05-30T13:52:00Z</time>
</trkpt>
<trkpt lat="49.574829" lon="10.01155">
<ele>304.042</ele>
<time>2019-05-30T13:52:01Z</time>
</trkpt>
<trkpt lat="49.574783" lon="10.011534">
<ele>303.967</ele>
<time>2019-05-30T13:52:02Z</time>
</trkpt>
<trkpt lat="49.574738" lon="10.011509">
<ele>303.664</ele>
<time>2019-05-30T13:52:03Z</time>
</trkpt>
<trkpt lat="49.574692" lon="10.011492">
<ele>303.417</ele>
<time>2019-05-30T13:52:04Z</time>
</trkpt>
<trkpt lat="49.574642" lon="10.011495">
<ele>303.228</ele>
<time>2019-05-30T13:52:05Z</time>
</trkpt>
<trkpt lat="49.574596" lon="10.011509">
<ele>303.098</ele>
<time>2019-05-30T13:52:06Z</time>
</trkpt>
<trkpt lat="49.574547" lon="10.011521">
<ele>303.022</ele>
<time>2019-05-30T13:52:07Z</time>
</trkpt>
<trkpt lat="49.574497" lon="10.011534">
<ele>302.948</ele>
<time>2019-05-30T13:52:08Z</time>
</trkpt>
<trkpt lat="49.574444" lon="10.011547">
<ele>302.903</ele>
<time>2019-05-30T13:52:09Z</time>
</trkpt>
<trkpt lat="49.574394" lon="10.011563">
<ele>302.881</ele>
<time>2019-05-30T13:52:10Z</time>
</trkpt>
<trkpt lat="49.574345" lon="10.01158">
<ele>302.881</ele>
<time>2019-05-30T13:52:11Z</time>
</trkpt>
<trkpt lat="49.574291" lon="10.011595">
<ele>302.881</ele>
<time>2019-05-30T13:52:12Z</time>
</trkpt>
<trkpt lat="49.574238" lon="10.011608">
<ele>302.881</ele>
<time>2019-05-30T13:52:13Z</time>
</trkpt>
<trkpt lat="49.574188" lon="10.011623">
<ele>302.881</ele>
<time>2019-05-30T13:52:14Z</time>
</trkpt>
<trkpt lat="49.574139" lon="10.011637">
<ele>302.881</ele>
<time>2019-05-30T13:52:15Z</time>
</trkpt>
<trkpt lat="49.574085" lon="10.01165">
<ele>302.881</ele>
<time>2019-05-30T13:52:16Z</time>
</trkpt>
<trkpt lat="49.574039" lon="10.011658">
<ele>302.881</ele>
<time>2019-05-30T13:52:17Z</time>
</trkpt>
<trkpt lat="49.573986" lon="10.011663">
<ele>302.881</ele>
<time>2019-05-30T13:52:18Z</time>
</trkpt>
<trkpt lat="49.573944" lon="10.011664">
<ele>302.881</ele>
<time>2019-05-30T13:52:19Z</time>
</trkpt>
<trkpt lat="49.573891" lon="10.011666">
<ele>302.881</ele>
<time>2019-05-30T13:52:20Z</time>
</trkpt>
<trkpt lat="49.573849" lon="10.011663">
<ele>302.881</ele>
<time>2019-05-30T13:52:21Z</time>
</trkpt>
<trkpt lat="49.573799" lon="10.011658">
<ele>302.881</ele>
<time>2019-05-30T13:52:22Z</time>
</trkpt>
<trkpt lat="49.573753" lon="10.011655">
<ele>302.881</ele>
<time>2019-05-30T13:52:23Z</time>
</trkpt>
<trkpt lat="49.573704" lon="10.011654">
<ele>302.881</ele>
<time>2019-05-30T13:52:24Z</time>
</trkpt>
<trkpt lat="49.573654" lon="10.011652">
<ele>302.881</ele>
<time>2019-05-30T13:52:25Z</time>
</trkpt>
<trkpt lat="49.573601" lon="10.011648">
<ele>302.881</ele>
<time>2019-05-30T13:52:26Z</time>
</trkpt>
<trkpt lat="49.573551" lon="10.011645">
<ele>302.881</ele>
<time>2019-05-30T13:52:27Z</time>
</trkpt>
<trkpt lat="49.573502" lon="10.01164">
<ele>302.881</ele>
<time>2019-05-30T13:52:28Z</time>
</trkpt>
<trkpt lat="49.573456" lon="10.011633">
<ele>302.881</ele>
<time>2019-05-30T13:52:29Z</time>
</trkpt>
<trkpt lat="49.573402" lon="10.011626">
<ele>302.881</ele>
<time>2019-05-30T13:52:30Z</time>
</trkpt>
<trkpt lat="49.57336" lon="10.011623">
<ele>302.881</ele>
<time>2019-05-30T13:52:31Z</time>
</trkpt>
<trkpt lat="49.573311" lon="10.011624">
<ele>302.881</ele>
<time>2019-05-30T13:52:32Z</time>
</trkpt>
<trkpt lat="49.573269" lon="10.011637">
<ele>302.881</ele>
<time>2019-05-30T13:52:33Z</time>
</trkpt>
<trkpt lat="49.573231" lon="10.01166">
<ele>302.881</ele>
<time>2019-05-30T13:52:34Z</time>
</trkpt>
<trkpt lat="49.573196" lon="10.011705">
<ele>302.881</ele>
<time>2019-05-30T13:52:35Z</time>
</trkpt>
<trkpt lat="49.573177" lon="10.011762">
<ele>302.881</ele>
<time>2019-05-30T13:52:36Z</time>
</trkpt>
<trkpt lat="49.573162" lon="10.011824">
<ele>302.881</ele>
<time>2019-05-30T13:52:37Z</time>
</trkpt>
<trkpt lat="49.573147" lon="10.011884">
<ele>302.881</ele>
<time>2019-05-30T13:52:38Z</time>
</trkpt>
<trkpt lat="49.573135" lon="10.011949">
<ele>302.881</ele>
<time>2019-05-30T13:52:39Z</time>
</trkpt>
<trkpt lat="49.57312" lon="10.012014">
<ele>302.881</ele>
<time>2019-05-30T13:52:40Z</time>
</trkpt>
<trkpt lat="49.573109" lon="10.01208">
<ele>302.881</ele>
<time>2019-05-30T13:52:41Z</time>
</trkpt>
<trkpt lat="49.573097" lon="10.01215">
<ele>302.881</ele>
<time>2019-05-30T13:52:42Z</time>
</trkpt>
<trkpt lat="49.573086" lon="10.012218">
<ele>302.881</ele>
<time>2019-05-30T13:52:43Z</time>
</trkpt>
<trkpt lat="49.573074" lon="10.012284">
<ele>302.881</ele>
<time>2019-05-30T13:52:44Z</time>
</trkpt>
<trkpt lat="49.573074" lon="10.01235">
<ele>302.881</ele>
<time>2019-05-30T13:52:45Z</time>
</trkpt>
<trkpt lat="49.573067" lon="10.012414">
<ele>302.881</ele>
<time>2019-05-30T13:52:46Z</time>
</trkpt>
<trkpt lat="49.573051" lon="10.012473">
<ele>302.881</ele>
<time>2019-05-30T13:52:47Z</time>
</trkpt>
<trkpt lat="49.573036" lon="10.012527">
<ele>303.081</ele>
<time>2019-05-30T13:52:48Z</time>
</trkpt>
<trkpt lat="49.573006" lon="10.012568">
<ele>303.251</ele>
<time>2019-05-30T13:52:49Z</time>
</trkpt>
<trkpt lat="49.572971" lon="10.012609">
<ele>303.392</ele>
<time>2019-05-30T13:52:50Z</time>
</trkpt>
<trkpt lat="49.572941" lon="10.012653">
<ele>303.509</ele>
<time>2019-05-30T13:52:51Z</time>
</trkpt>
<trkpt lat="49.572906" lon="10.012699">
<ele>303.601</ele>
<time>2019-05-30T13:52:52Z</time>
</trkpt>
<trkpt lat="49.572872" lon="10.012743">
<ele>303.667</ele>
<time>2019-05-30T13:52:53Z</time>
</trkpt>
<trkpt lat="49.572834" lon="10.012789">
<ele>303.709</ele>
<time>2019-05-30T13:52:54Z</time>
</trkpt>
<trkpt lat="49.572796" lon="10.012836">
<ele>303.729</ele>
<time>2019-05-30T13:52:55Z</time>
</trkpt>
<trkpt lat="49.572758" lon="10.012883">
<ele>303.729</ele>
<time>2019-05-30T13:52:56Z</time>
</trkpt>
<trkpt lat="49.572716" lon="10.012936">
<ele>303.729</ele>
<time>2019-05-30T13:52:57Z</time>
</trkpt>
<trkpt lat="49.572681" lon="10.01299">
<ele>303.729</ele>
<time>2019-05-30T13:52:58Z</time>
</trkpt>
<trkpt lat="49.572651" lon="10.013048">
<ele>303.729</ele>
<time>2019-05-30T13:52:59Z</time>
</trkpt>
<trkpt lat="49.572617" lon="10.013103">
<ele>303.729</ele>
<time>2019-05-30T13:53:00Z</time>
</trkpt>
<trkpt lat="49.572582" lon="10.013162">
<ele>303.729</ele>
<time>2019-05-30T13:53:01Z</time>
</trkpt>
<trkpt lat="49.572552" lon="10.013212">
<ele>303.729</ele>
<time>2019-05-30T13:53:02Z</time>
</trkpt>
<trkpt lat="49.572521" lon="10.013263">
<ele>303.729</ele>
<time>2019-05-30T13:53:03Z</time>
</trkpt>
<trkpt lat="49.572498" lon="10.013317">
<ele>303.729</ele>
<time>2019-05-30T13:53:04Z</time>
</trkpt>
<trkpt lat="49.572475" lon="10.013363">
<ele>303.729</ele>
<time>2019-05-30T13:53:05Z</time>
</trkpt>
<trkpt lat="49.572453" lon="10.013407">
<ele>303.729</ele>
<time>2019-05-30T13:53:06Z</time>
</trkpt>
<trkpt lat="49.572426" lon="10.01345">
<ele>303.729</ele>
<time>2019-05-30T13:53:07Z</time>
</trkpt>
<trkpt lat="49.572411" lon="10.013487">
<ele>303.729</ele>
<time>2019-05-30T13:53:08Z</time>
</trkpt>
<trkpt lat="49.572392" lon="10.013523">
<ele>303.729</ele>
<time>2019-05-30T13:53:09Z</time>
</trkpt>
<trkpt lat="49.57238" lon="10.013556">
<ele>303.729</ele>
<time>2019-05-30T13:53:10Z</time>
</trkpt>
<trkpt lat="49.572369" lon="10.013594">
<ele>303.729</ele>
<time>2019-05-30T13:53:11Z</time>
</trkpt>
<trkpt lat="49.572357" lon="10.013645">
<ele>303.729</ele>
<time>2019-05-30T13:53:12Z</time>
</trkpt>
<trkpt lat="49.572353" lon="10.013705">
<ele>303.729</ele>
<time>2019-05-30T13:53:13Z</time>
</trkpt>
<trkpt lat="49.572357" lon="10.013772">
<ele>303.728</ele>
<time>2019-05-30T13:53:14Z</time>
</trkpt>
<trkpt lat="49.572357" lon="10.013837">
<ele>303.729</ele>
<time>2019-05-30T13:53:15Z</time>
</trkpt>
<trkpt lat="49.572369" lon="10.0139">
<ele>303.729</ele>
<time>2019-05-30T13:53:16Z</time>
</trkpt>
<trkpt lat="49.572384" lon="10.013965">
<ele>303.521</ele>
<time>2019-05-30T13:53:17Z</time>
</trkpt>
<trkpt lat="49.572395" lon="10.01403">
<ele>303.33</ele>
<time>2019-05-30T13:53:18Z</time>
</trkpt>
<trkpt lat="49.572407" lon="10.014093">
<ele>303.19</ele>
<time>2019-05-30T13:53:19Z</time>
</trkpt>
<trkpt lat="49.572418" lon="10.014158">
<ele>303.087</ele>
<time>2019-05-30T13:53:20Z</time>
</trkpt>
<trkpt lat="49.572422" lon="10.014224">
<ele>303.004</ele>
<time>2019-05-30T13:53:21Z</time>
</trkpt>
<trkpt lat="49.572414" lon="10.014285">
<ele>302.943</ele>
<time>2019-05-30T13:53:22Z</time>
</trkpt>
<trkpt lat="49.572395" lon="10.014339">
<ele>302.901</ele>
<time>2019-05-30T13:53:23Z</time>
</trkpt>
<trkpt lat="49.572372" lon="10.014392">
<ele>302.881</ele>
<time>2019-05-30T13:53:24Z</time>
</trkpt>
<trkpt lat="49.57235" lon="10.014444">
<ele>302.881</ele>
<time>2019-05-30T13:53:25Z</time>
</trkpt>
<trkpt lat="49.572323" lon="10.014503">
<ele>302.881</ele>
<time>2019-05-30T13:53:26Z</time>
</trkpt>
<trkpt lat="49.5723" lon="10.014565">
<ele>302.881</ele>
<time>2019-05-30T13:53:27Z</time>
</trkpt>
<trkpt lat="49.572277" lon="10.01463">
<ele>302.881</ele>
<time>2019-05-30T13:53:28Z</time>
</trkpt>
<trkpt lat="49.572258" lon="10.014709">
<ele>302.881</ele>
<time>2019-05-30T13:53:29Z</time>
</trkpt>
<trkpt lat="49.572239" lon="10.014784">
<ele>302.881</ele>
<time>2019-05-30T13:53:30Z</time>
</trkpt>
<trkpt lat="49.572216" lon="10.014857">
<ele>302.881</ele>
<time>2019-05-30T13:53:31Z</time>
</trkpt>
<trkpt lat="49.572193" lon="10.014925">
<ele>302.881</ele>
<time>2019-05-30T13:53:32Z</time>
</trkpt>
<trkpt lat="49.572166" lon="10.014997">
<ele>302.881</ele>
<time>2019-05-30T13:53:33Z</time>
</trkpt>
<trkpt lat="49.572144" lon="10.01507">
<ele>302.881</ele>
<time>2019-05-30T13:53:34Z</time>
</trkpt>
<trkpt lat="49.572117" lon="10.015146">
<ele>302.881</ele>
<time>2019-05-30T13:53:35Z</time>
</trkpt>
<trkpt lat="49.572094" lon="10.015224">
<ele>302.881</ele>
<time>2019-05-30T13:53:36Z</time>
</trkpt>
<trkpt lat="49.572063" lon="10.015302">
<ele>302.881</ele>
<time>2019-05-30T13:53:37Z</time>
</trkpt>
<trkpt lat="49.572041" lon="10.015377">
<ele>302.881</ele>
<time>2019-05-30T13:53:38Z</time>
</trkpt>
<trkpt lat="49.572014" lon="10.015453">
<ele>302.881</ele>
<time>2019-05-30T13:53:39Z</time>
</trkpt>
<trkpt lat="49.571995" lon="10.015532">
<ele>302.881</ele>
<time>2019-05-30T13:53:40Z</time>
</trkpt>
<trkpt lat="49.571968" lon="10.01561">
<ele>302.881</ele>
<time>2019-05-30T13:53:41Z</time>
</trkpt>
<trkpt lat="49.571941" lon="10.015689">
<ele>302.881</ele>
<time>2019-05-30T13:53:42Z</time>
</trkpt>
<trkpt lat="49.571915" lon="10.01577">
<ele>302.881</ele>
<time>2019-05-30T13:53:43Z</time>
</trkpt>
<trkpt lat="49.571888" lon="10.015854">
<ele>302.881</ele>
<time>2019-05-30T13:53:44Z</time>
</trkpt>
<trkpt lat="49.571861" lon="10.015936">
<ele>302.881</ele>
<time>2019-05-30T13:53:45Z</time>
</trkpt>
<trkpt lat="49.571838" lon="10.016022">
<ele>302.881</ele>
<time>2019-05-30T13:53:46Z</time>
</trkpt>
<trkpt lat="49.571812" lon="10.016104">
<ele>302.881</ele>
<time>2019-05-30T13:53:47Z</time>
</trkpt>
<trkpt lat="49.571789" lon="10.016185">
<ele>302.881</ele>
<time>2019-05-30T13:53:48Z</time>
</trkpt>
<trkpt lat="49.571766" lon="10.016265">
<ele>302.881</ele>
<time>2019-05-30T13:53:49Z</time>
</trkpt>
<trkpt lat="49.571739" lon="10.016342">
<ele>302.881</ele>
<time>2019-05-30T13:53:50Z</time>
</trkpt>
<trkpt lat="49.571712" lon="10.01642">
<ele>302.881</ele>
<time>2019-05-30T13:53:51Z</time>
</trkpt>
<trkpt lat="49.57169" lon="10.016495">
<ele>302.881</ele>
<time>2019-05-30T13:53:52Z</time>
</trkpt>
<trkpt lat="49.571667" lon="10.016568">
<ele>302.881</ele>
<time>2019-05-30T13:53:53Z</time>
</trkpt>
<trkpt lat="49.57164" lon="10.016644">
<ele>302.881</ele>
<time>2019-05-30T13:53:54Z</time>
</trkpt>
<trkpt lat="49.571621" lon="10.016713">
<ele>302.881</ele>
<time>2019-05-30T13:53:55Z</time>
</trkpt>
<trkpt lat="49.571602" lon="10.016782">
<ele>302.881</ele>
<time>2019-05-30T13:53:56Z</time>
</trkpt>
<trkpt lat="49.571575" lon="10.016853">
<ele>303.083</ele>
<time>2019-05-30T13:53:57Z</time>
</trkpt>
<trkpt lat="49.571556" lon="10.016925">
<ele>303.276</ele>
<time>2019-05-30T13:53:58Z</time>
</trkpt>
<trkpt lat="49.571533" lon="10.016994">
<ele>303.436</ele>
<time>2019-05-30T13:53:59Z</time>
</trkpt>
<trkpt lat="49.571507" lon="10.017061">
<ele>303.568</ele>
<time>2019-05-30T13:54:00Z</time>
</trkpt>
<trkpt lat="49.571487" lon="10.017126">
<ele>303.67</ele>
<time>2019-05-30T13:54:01Z</time>
</trkpt>
<trkpt lat="49.571468" lon="10.017195">
<ele>303.742</ele>
<time>2019-05-30T13:54:02Z</time>
</trkpt>
<trkpt lat="49.571442" lon="10.017264">
<ele>303.791</ele>
<time>2019-05-30T13:54:03Z</time>
</trkpt>
<trkpt lat="49.571423" lon="10.017337">
<ele>303.813</ele>
<time>2019-05-30T13:54:04Z</time>
</trkpt>
<trkpt lat="49.571404" lon="10.017408">
<ele>303.813</ele>
<time>2019-05-30T13:54:05Z</time>
</trkpt>
<trkpt lat="49.571377" lon="10.01748">
<ele>303.813</ele>
<time>2019-05-30T13:54:06Z</time>
</trkpt>
<trkpt lat="49.571362" lon="10.017549">
<ele>303.813</ele>
<time>2019-05-30T13:54:07Z</time>
</trkpt>
<trkpt lat="49.571339" lon="10.017614">
<ele>303.813</ele>
<time>2019-05-30T13:54:08Z</time>
</trkpt>
<trkpt lat="49.571312" lon="10.017681">
<ele>303.813</ele>
<time>2019-05-30T13:54:09Z</time>
</trkpt>
<trkpt lat="49.571293" lon="10.01775">
<ele>303.813</ele>
<time>2019-05-30T13:54:10Z</time>
</trkpt>
<trkpt lat="49.57127" lon="10.017817">
<ele>303.813</ele>
<time>2019-05-30T13:54:11Z</time>
</trkpt>
<trkpt lat="49.571247" lon="10.017886">
<ele>303.813</ele>
<time>2019-05-30T13:54:12Z</time>
</trkpt>
<trkpt lat="49.571224" lon="10.017957">
<ele>304.058</ele>
<time>2019-05-30T13:54:13Z</time>
</trkpt>
<trkpt lat="49.571209" lon="10.018024">
<ele>304.251</ele>
<time>2019-05-30T13:54:14Z</time>
</trkpt>
<trkpt lat="49.57119" lon="10.018096">
<ele>304.401</ele>
<time>2019-05-30T13:54:15Z</time>
</trkpt>
<trkpt lat="49.571171" lon="10.018165">
<ele>304.513</ele>
<time>2019-05-30T13:54:16Z</time>
</trkpt>
<trkpt lat="49.571148" lon="10.018233">
<ele>304.59</ele>
<time>2019-05-30T13:54:17Z</time>
</trkpt>
<trkpt lat="49.571133" lon="10.018302">
<ele>304.669</ele>
<time>2019-05-30T13:54:18Z</time>
</trkpt>
<trkpt lat="49.571117" lon="10.018369">
<ele>304.721</ele>
<time>2019-05-30T13:54:19Z</time>
</trkpt>
<trkpt lat="49.571098" lon="10.018435">
<ele>304.746</ele>
<time>2019-05-30T13:54:20Z</time>
</trkpt>
<trkpt lat="49.571083" lon="10.018503">
<ele>304.746</ele>
<time>2019-05-30T13:54:21Z</time>
</trkpt>
<trkpt lat="49.571072" lon="10.01857">
<ele>304.996</ele>
<time>2019-05-30T13:54:22Z</time>
</trkpt>
<trkpt lat="49.57106" lon="10.018637">
<ele>305.193</ele>
<time>2019-05-30T13:54:23Z</time>
</trkpt>
<trkpt lat="49.571049" lon="10.0187">
<ele>305.342</ele>
<time>2019-05-30T13:54:24Z</time>
</trkpt>
<trkpt lat="49.571037" lon="10.018762">
<ele>305.454</ele>
<time>2019-05-30T13:54:25Z</time>
</trkpt>
<trkpt lat="49.571026" lon="10.018824">
<ele>305.538</ele>
<time>2019-05-30T13:54:26Z</time>
</trkpt>
<trkpt lat="49.571018" lon="10.018882">
<ele>305.599</ele>
<time>2019-05-30T13:54:27Z</time>
</trkpt>
<trkpt lat="49.571007" lon="10.018934">
<ele>305.652</ele>
<time>2019-05-30T13:54:28Z</time>
</trkpt>
<trkpt lat="49.570992" lon="10.018978">
<ele>305.678</ele>
<time>2019-05-30T13:54:29Z</time>
</trkpt>
<trkpt lat="49.570965" lon="10.01901">
<ele>305.678</ele>
<time>2019-05-30T13:54:30Z</time>
</trkpt>
<trkpt lat="49.570927" lon="10.019027">
<ele>305.678</ele>
<time>2019-05-30T13:54:31Z</time>
</trkpt>
<trkpt lat="49.570889" lon="10.019038">
<ele>305.678</ele>
<time>2019-05-30T13:54:32Z</time>
</trkpt>
<trkpt lat="49.570843" lon="10.019049">
<ele>305.678</ele>
<time>2019-05-30T13:54:33Z</time>
</trkpt>
<trkpt lat="49.570793" lon="10.01906">
<ele>305.678</ele>
<time>2019-05-30T13:54:34Z</time>
</trkpt>
<trkpt lat="49.570747" lon="10.019072">
<ele>305.453</ele>
<time>2019-05-30T13:54:35Z</time>
</trkpt>
<trkpt lat="49.570702" lon="10.019083">
<ele>305.003</ele>
<time>2019-05-30T13:54:36Z</time>
</trkpt>
<trkpt lat="49.57066" lon="10.019105">
<ele>304.691</ele>
<time>2019-05-30T13:54:37Z</time>
</trkpt>
<trkpt lat="49.570629" lon="10.019138">
<ele>304.402</ele>
<time>2019-05-30T13:54:38Z</time>
</trkpt>
<trkpt lat="49.570602" lon="10.019183">
<ele>304.188</ele>
<time>2019-05-30T13:54:39Z</time>
</trkpt>
<trkpt lat="49.570583" lon="10.019237">
<ele>304.026</ele>
<time>2019-05-30T13:54:40Z</time>
</trkpt>
<trkpt lat="49.570564" lon="10.019293">
<ele>303.91</ele>
<time>2019-05-30T13:54:41Z</time>
</trkpt>
<trkpt lat="49.570549" lon="10.019353">
<ele>303.838</ele>
<time>2019-05-30T13:54:42Z</time>
</trkpt>
<trkpt lat="49.57053" lon="10.01941">
<ele>303.813</ele>
<time>2019-05-30T13:54:43Z</time>
</trkpt>
<trkpt lat="49.570515" lon="10.019466">
<ele>303.813</ele>
<time>2019-05-30T13:54:44Z</time>
</trkpt>
<trkpt lat="49.570499" lon="10.019522">
<ele>303.813</ele>
<time>2019-05-30T13:54:45Z</time>
</trkpt>
<trkpt lat="49.57048" lon="10.019577">
<ele>303.813</ele>
<time>2019-05-30T13:54:46Z</time>
</trkpt>
<trkpt lat="49.570465" lon="10.019635">
<ele>303.813</ele>
<time>2019-05-30T13:54:47Z</time>
</trkpt>
<trkpt lat="49.570438" lon="10.019701">
<ele>303.813</ele>
<time>2019-05-30T13:54:48Z</time>
</trkpt>
<trkpt lat="49.570415" lon="10.019774">
<ele>303.813</ele>
<time>2019-05-30T13:54:49Z</time>
</trkpt>
<trkpt lat="49.5704" lon="10.01985">
<ele>303.813</ele>
<time>2019-05-30T13:54:50Z</time>
</trkpt>
<trkpt lat="49.570377" lon="10.019917">
<ele>303.813</ele>
<time>2019-05-30T13:54:51Z</time>
</trkpt>
<trkpt lat="49.570362" lon="10.019981">
<ele>303.813</ele>
<time>2019-05-30T13:54:52Z</time>
</trkpt>
<trkpt lat="49.570339" lon="10.020044">
<ele>303.813</ele>
<time>2019-05-30T13:54:53Z</time>
</trkpt>
<trkpt lat="49.57032" lon="10.020112">
<ele>303.813</ele>
<time>2019-05-30T13:54:54Z</time>
</trkpt>
<trkpt lat="49.570297" lon="10.020185">
<ele>303.813</ele>
<time>2019-05-30T13:54:55Z</time>
</trkpt>
<trkpt lat="49.570278" lon="10.020248">
<ele>303.813</ele>
<time>2019-05-30T13:54:56Z</time>
</trkpt>
<trkpt lat="49.570255" lon="10.020312">
<ele>303.813</ele>
<time>2019-05-30T13:54:57Z</time>
</trkpt>
<trkpt lat="49.570236" lon="10.020371">
<ele>304.036</ele>
<time>2019-05-30T13:54:58Z</time>
</trkpt>
<trkpt lat="49.570213" lon="10.020433">
<ele>304.228</ele>
<time>2019-05-30T13:54:59Z</time>
</trkpt>
<trkpt lat="49.57019" lon="10.020501">
<ele>304.386</ele>
<time>2019-05-30T13:55:00Z</time>
</trkpt>
<trkpt lat="49.570171" lon="10.020573">
<ele>304.511</ele>
<time>2019-05-30T13:55:01Z</time>
</trkpt>
<trkpt lat="49.570141" lon="10.020645">
<ele>304.606</ele>
<time>2019-05-30T13:55:02Z</time>
</trkpt>
<trkpt lat="49.570114" lon="10.020711">
<ele>304.676</ele>
<time>2019-05-30T13:55:03Z</time>
</trkpt>
<trkpt lat="49.570095" lon="10.020778">
<ele>304.725</ele>
<time>2019-05-30T13:55:04Z</time>
</trkpt>
<trkpt lat="49.570068" lon="10.02085">
<ele>304.746</ele>
<time>2019-05-30T13:55:05Z</time>
</trkpt>
<trkpt lat="49.570042" lon="10.020915">
<ele>304.746</ele>
<time>2019-05-30T13:55:06Z</time>
</trkpt>
<trkpt lat="49.570019" lon="10.020984">
<ele>304.746</ele>
<time>2019-05-30T13:55:07Z</time>
</trkpt>
<trkpt lat="49.57" lon="10.021054">
<ele>304.746</ele>
<time>2019-05-30T13:55:08Z</time>
</trkpt>
<trkpt lat="49.569977" lon="10.021127">
<ele>304.746</ele>
<time>2019-05-30T13:55:09Z</time>
</trkpt>
<trkpt lat="49.56995" lon="10.021209">
<ele>304.746</ele>
<time>2019-05-30T13:55:10Z</time>
</trkpt>
<trkpt lat="49.569927" lon="10.02129">
<ele>304.746</ele>
<time>2019-05-30T13:55:11Z</time>
</trkpt>
<trkpt lat="49.569904" lon="10.021372">
<ele>304.746</ele>
<time>2019-05-30T13:55:12Z</time>
</trkpt>
<trkpt lat="49.569881" lon="10.02145">
<ele>304.746</ele>
<time>2019-05-30T13:55:13Z</time>
</trkpt>
<trkpt lat="49.569859" lon="10.021528">
<ele>304.746</ele>
<time>2019-05-30T13:55:14Z</time>
</trkpt>
<trkpt lat="49.569836" lon="10.021607">
<ele>304.746</ele>
<time>2019-05-30T13:55:15Z</time>
</trkpt>
<trkpt lat="49.569813" lon="10.021681">
<ele>304.746</ele>
<time>2019-05-30T13:55:16Z</time>
</trkpt>
<trkpt lat="49.569786" lon="10.021754">
<ele>304.746</ele>
<time>2019-05-30T13:55:17Z</time>
</trkpt>
<trkpt lat="49.569767" lon="10.021832">
<ele>304.746</ele>
<time>2019-05-30T13:55:18Z</time>
</trkpt>
<trkpt lat="49.569744" lon="10.021909">
<ele>304.746</ele>
<time>2019-05-30T13:55:19Z</time>
</trkpt>
<trkpt lat="49.569717" lon="10.021987">
<ele>305.038</ele>
<time>2019-05-30T13:55:20Z</time>
</trkpt>
<trkpt lat="49.569698" lon="10.022063">
<ele>305.268</ele>
<time>2019-05-30T13:55:21Z</time>
</trkpt>
<trkpt lat="49.569675" lon="10.022138">
<ele>305.442</ele>
<time>2019-05-30T13:55:22Z</time>
</trkpt>
<trkpt lat="49.569649" lon="10.022215">
<ele>305.566</ele>
<time>2019-05-30T13:55:23Z</time>
</trkpt>
<trkpt lat="49.569622" lon="10.02229">
<ele>305.656</ele>
<time>2019-05-30T13:55:24Z</time>
</trkpt>
<trkpt lat="49.569603" lon="10.022367">
<ele>305.71</ele>
<time>2019-05-30T13:55:25Z</time>
</trkpt>
<trkpt lat="49.56958" lon="10.022442">
<ele>305.739</ele>
<time>2019-05-30T13:55:26Z</time>
</trkpt>
<trkpt lat="49.569557" lon="10.022516">
<ele>305.763</ele>
<time>2019-05-30T13:55:27Z</time>
</trkpt>
<trkpt lat="49.569538" lon="10.022593">
<ele>305.763</ele>
<time>2019-05-30T13:55:28Z</time>
</trkpt>
<trkpt lat="49.569519" lon="10.022672">
<ele>306.041</ele>
<time>2019-05-30T13:55:29Z</time>
</trkpt>
<trkpt lat="49.569492" lon="10.022749">
<ele>306.256</ele>
<time>2019-05-30T13:55:30Z</time>
</trkpt>
<trkpt lat="49.569473" lon="10.022825">
<ele>306.416</ele>
<time>2019-05-30T13:55:31Z</time>
</trkpt>
<trkpt lat="49.56945" lon="10.022902">
<ele>306.537</ele>
<time>2019-05-30T13:55:32Z</time>
</trkpt>
<trkpt lat="49.569427" lon="10.02298">
<ele>306.618</ele>
<time>2019-05-30T13:55:33Z</time>
</trkpt>
<trkpt lat="49.569412" lon="10.023057">
<ele>306.669</ele>
<time>2019-05-30T13:55:34Z</time>
</trkpt>
<trkpt lat="49.569389" lon="10.023135">
<ele>306.692</ele>
<time>2019-05-30T13:55:35Z</time>
</trkpt>
<trkpt lat="49.569374" lon="10.023211">
<ele>306.695</ele>
<time>2019-05-30T13:55:36Z</time>
</trkpt>
<trkpt lat="49.569355" lon="10.023288">
<ele>306.695</ele>
<time>2019-05-30T13:55:37Z</time>
</trkpt>
<trkpt lat="49.569332" lon="10.023367">
<ele>306.695</ele>
<time>2019-05-30T13:55:38Z</time>
</trkpt>
<trkpt lat="49.569317" lon="10.023445">
<ele>306.695</ele>
<time>2019-05-30T13:55:39Z</time>
</trkpt>
<trkpt lat="49.569298" lon="10.023523">
<ele>306.695</ele>
<time>2019-05-30T13:55:40Z</time>
</trkpt>
<trkpt lat="49.569283" lon="10.023602">
<ele>306.695</ele>
<time>2019-05-30T13:55:41Z</time>
</trkpt>
<trkpt lat="49.569263" lon="10.023682">
<ele>306.695</ele>
<time>2019-05-30T13:55:42Z</time>
</trkpt>
<trkpt lat="49.569244" lon="10.02376">
<ele>306.695</ele>
<time>2019-05-30T13:55:43Z</time>
</trkpt>
<trkpt lat="49.569225" lon="10.02384">
<ele>306.695</ele>
<time>2019-05-30T13:55:44Z</time>
</trkpt>
<trkpt lat="49.569206" lon="10.02392">
<ele>306.695</ele>
<time>2019-05-30T13:55:45Z</time>
</trkpt>
<trkpt lat="49.569187" lon="10.023995">
<ele>306.695</ele>
<time>2019-05-30T13:55:46Z</time>
</trkpt>
<trkpt lat="49.569164" lon="10.024074">
<ele>306.695</ele>
<time>2019-05-30T13:55:47Z</time>
</trkpt>
<trkpt lat="49.569149" lon="10.024149">
<ele>306.695</ele>
<time>2019-05-30T13:55:48Z</time>
</trkpt>
<trkpt lat="49.569126" lon="10.024223">
<ele>306.695</ele>
<time>2019-05-30T13:55:49Z</time>
</trkpt>
<trkpt lat="49.569111" lon="10.024298">
<ele>306.695</ele>
<time>2019-05-30T13:55:50Z</time>
</trkpt>
<trkpt lat="49.569092" lon="10.024377">
<ele>306.695</ele>
<time>2019-05-30T13:55:51Z</time>
</trkpt>
<trkpt lat="49.569073" lon="10.024453">
<ele>306.695</ele>
<time>2019-05-30T13:55:52Z</time>
</trkpt>
<trkpt lat="49.569057" lon="10.024532">
<ele>306.695</ele>
<time>2019-05-30T13:55:53Z</time>
</trkpt>
<trkpt lat="49.569035" lon="10.02461">
<ele>306.936</ele>
<time>2019-05-30T13:55:54Z</time>
</trkpt>
<trkpt lat="49.569019" lon="10.02469">
<ele>307.125</ele>
<time>2019-05-30T13:55:55Z</time>
</trkpt>
<trkpt lat="49.569" lon="10.024769">
<ele>307.273</ele>
<time>2019-05-30T13:55:56Z</time>
</trkpt>
<trkpt lat="49.568981" lon="10.024848">
<ele>307.371</ele>
<time>2019-05-30T13:55:57Z</time>
</trkpt>
<trkpt lat="49.568962" lon="10.024928">
<ele>307.479</ele>
<time>2019-05-30T13:55:58Z</time>
</trkpt>
<trkpt lat="49.568939" lon="10.025008">
<ele>307.555</ele>
<time>2019-05-30T13:55:59Z</time>
</trkpt>
<trkpt lat="49.568924" lon="10.02509">
<ele>307.605</ele>
<time>2019-05-30T13:56:00Z</time>
</trkpt>
<trkpt lat="49.568901" lon="10.025168">
<ele>307.628</ele>
<time>2019-05-30T13:56:01Z</time>
</trkpt>
<trkpt lat="49.568886" lon="10.025249">
<ele>307.628</ele>
<time>2019-05-30T13:56:02Z</time>
</trkpt>
<trkpt lat="49.568867" lon="10.025329">
<ele>307.628</ele>
<time>2019-05-30T13:56:03Z</time>
</trkpt>
<trkpt lat="49.568848" lon="10.025408">
<ele>307.628</ele>
<time>2019-05-30T13:56:04Z</time>
</trkpt>
<trkpt lat="49.568829" lon="10.025487">
<ele>307.628</ele>
<time>2019-05-30T13:56:05Z</time>
</trkpt>
<trkpt lat="49.56881" lon="10.025565">
<ele>307.628</ele>
<time>2019-05-30T13:56:06Z</time>
</trkpt>
<trkpt lat="49.568794" lon="10.025645">
<ele>307.628</ele>
<time>2019-05-30T13:56:07Z</time>
</trkpt>
<trkpt lat="49.568775" lon="10.025723">
<ele>307.628</ele>
<time>2019-05-30T13:56:08Z</time>
</trkpt>
<trkpt lat="49.568756" lon="10.025805">
<ele>307.628</ele>
<time>2019-05-30T13:56:09Z</time>
</trkpt>
<trkpt lat="49.568737" lon="10.025884">
<ele>307.628</ele>
<time>2019-05-30T13:56:10Z</time>
</trkpt>
<trkpt lat="49.568722" lon="10.025961">
<ele>307.628</ele>
<time>2019-05-30T13:56:11Z</time>
</trkpt>
<trkpt lat="49.568703" lon="10.026042">
<ele>307.628</ele>
<time>2019-05-30T13:56:12Z</time>
</trkpt>
<trkpt lat="49.568684" lon="10.026118">
<ele>307.628</ele>
<time>2019-05-30T13:56:13Z</time>
</trkpt>
<trkpt lat="49.568665" lon="10.026196">
<ele>307.628</ele>
<time>2019-05-30T13:56:14Z</time>
</trkpt>
<trkpt lat="49.568645" lon="10.026274">
<ele>307.628</ele>
<time>2019-05-30T13:56:15Z</time>
</trkpt>
<trkpt lat="49.56863" lon="10.026351">
<ele>307.628</ele>
<time>2019-05-30T13:56:16Z</time>
</trkpt>
<trkpt lat="49.568607" lon="10.026428">
<ele>307.628</ele>
<time>2019-05-30T13:56:17Z</time>
</trkpt>
<trkpt lat="49.568592" lon="10.026505">
<ele>307.628</ele>
<time>2019-05-30T13:56:18Z</time>
</trkpt>
<trkpt lat="49.568573" lon="10.026582">
<ele>307.628</ele>
<time>2019-05-30T13:56:19Z</time>
</trkpt>
<trkpt lat="49.568554" lon="10.026658">
<ele>307.628</ele>
<time>2019-05-30T13:56:20Z</time>
</trkpt>
<trkpt lat="49.568535" lon="10.02673">
<ele>307.628</ele>
<time>2019-05-30T13:56:21Z</time>
</trkpt>
<trkpt lat="49.568516" lon="10.026801">
<ele>307.628</ele>
<time>2019-05-30T13:56:22Z</time>
</trkpt>
<trkpt lat="49.568501" lon="10.026875">
<ele>307.628</ele>
<time>2019-05-30T13:56:23Z</time>
</trkpt>
<trkpt lat="49.568485" lon="10.026946">
<ele>307.628</ele>
<time>2019-05-30T13:56:24Z</time>
</trkpt>
<trkpt lat="49.56847" lon="10.027013">
<ele>307.628</ele>
<time>2019-05-30T13:56:25Z</time>
</trkpt>
<trkpt lat="49.568451" lon="10.02708">
<ele>307.628</ele>
<time>2019-05-30T13:56:26Z</time>
</trkpt>
<trkpt lat="49.568436" lon="10.027144">
<ele>307.628</ele>
<time>2019-05-30T13:56:27Z</time>
</trkpt>
<trkpt lat="49.568417" lon="10.02721">
<ele>307.628</ele>
<time>2019-05-30T13:56:28Z</time>
</trkpt>
<trkpt lat="49.568401" lon="10.027275">
<ele>307.628</ele>
<time>2019-05-30T13:56:29Z</time>
</trkpt>
<trkpt lat="49.568378" lon="10.027346">
<ele>307.628</ele>
<time>2019-05-30T13:56:30Z</time>
</trkpt>
<trkpt lat="49.568363" lon="10.02742">
<ele>307.628</ele>
<time>2019-05-30T13:56:31Z</time>
</trkpt>
<trkpt lat="49.568344" lon="10.027496">
<ele>307.628</ele>
<time>2019-05-30T13:56:32Z</time>
</trkpt>
<trkpt lat="49.568325" lon="10.027563">
<ele>307.628</ele>
<time>2019-05-30T13:56:33Z</time>
</trkpt>
<trkpt lat="49.56831" lon="10.027629">
<ele>307.628</ele>
<time>2019-05-30T13:56:34Z</time>
</trkpt>
<trkpt lat="49.568298" lon="10.027699">
<ele>307.84</ele>
<time>2019-05-30T13:56:35Z</time>
</trkpt>
<trkpt lat="49.568279" lon="10.027771">
<ele>308.008</ele>
<time>2019-05-30T13:56:36Z</time>
</trkpt>
<trkpt lat="49.568264" lon="10.027844">
<ele>308.121</ele>
<time>2019-05-30T13:56:37Z</time>
</trkpt>
<trkpt lat="49.568249" lon="10.027922">
<ele>308.242</ele>
<time>2019-05-30T13:56:38Z</time>
</trkpt>
<trkpt lat="49.56823" lon="10.027995">
<ele>308.337</ele>
<time>2019-05-30T13:56:39Z</time>
</trkpt>
<trkpt lat="49.568214" lon="10.028069">
<ele>308.408</ele>
<time>2019-05-30T13:56:40Z</time>
</trkpt>
<trkpt lat="49.568195" lon="10.028142">
<ele>308.456</ele>
<time>2019-05-30T13:56:41Z</time>
</trkpt>
<trkpt lat="49.568176" lon="10.028215">
<ele>308.476</ele>
<time>2019-05-30T13:56:42Z</time>
</trkpt>
<trkpt lat="49.568157" lon="10.028283">
<ele>308.476</ele>
<time>2019-05-30T13:56:43Z</time>
</trkpt>
<trkpt lat="49.568138" lon="10.028354">
<ele>308.476</ele>
<time>2019-05-30T13:56:44Z</time>
</trkpt>
<trkpt lat="49.568119" lon="10.028427">
<ele>308.476</ele>
<time>2019-05-30T13:56:45Z</time>
</trkpt>
<trkpt lat="49.5681" lon="10.028503">
<ele>308.476</ele>
<time>2019-05-30T13:56:46Z</time>
</trkpt>
<trkpt lat="49.568085" lon="10.02858">
<ele>308.476</ele>
<time>2019-05-30T13:56:47Z</time>
</trkpt>
<trkpt lat="49.568069" lon="10.028653">
<ele>308.476</ele>
<time>2019-05-30T13:56:48Z</time>
</trkpt>
<trkpt lat="49.56805" lon="10.028731">
<ele>308.476</ele>
<time>2019-05-30T13:56:49Z</time>
</trkpt>
<trkpt lat="49.568027" lon="10.028809">
<ele>308.476</ele>
<time>2019-05-30T13:56:50Z</time>
</trkpt>
<trkpt lat="49.568012" lon="10.028885">
<ele>308.476</ele>
<time>2019-05-30T13:56:51Z</time>
</trkpt>
<trkpt lat="49.567993" lon="10.028959">
<ele>308.476</ele>
<time>2019-05-30T13:56:52Z</time>
</trkpt>
<trkpt lat="49.567978" lon="10.029033">
<ele>308.476</ele>
<time>2019-05-30T13:56:53Z</time>
</trkpt>
<trkpt lat="49.567959" lon="10.029106">
<ele>308.476</ele>
<time>2019-05-30T13:56:54Z</time>
</trkpt>
<trkpt lat="49.56794" lon="10.029177">
<ele>308.476</ele>
<time>2019-05-30T13:56:55Z</time>
</trkpt>
<trkpt lat="49.567921" lon="10.02925">
<ele>308.476</ele>
<time>2019-05-30T13:56:56Z</time>
</trkpt>
<trkpt lat="49.567898" lon="10.02932">
<ele>308.476</ele>
<time>2019-05-30T13:56:57Z</time>
</trkpt>
<trkpt lat="49.567883" lon="10.029393">
<ele>308.476</ele>
<time>2019-05-30T13:56:58Z</time>
</trkpt>
<trkpt lat="49.567863" lon="10.029469">
<ele>308.476</ele>
<time>2019-05-30T13:56:59Z</time>
</trkpt>
<trkpt lat="49.567848" lon="10.029546">
<ele>308.476</ele>
<time>2019-05-30T13:57:00Z</time>
</trkpt>
<trkpt lat="49.567825" lon="10.029621">
<ele>308.476</ele>
<time>2019-05-30T13:57:01Z</time>
</trkpt>
<trkpt lat="49.56781" lon="10.029698">
<ele>308.476</ele>
<time>2019-05-30T13:57:02Z</time>
</trkpt>
<trkpt lat="49.567791" lon="10.029775">
<ele>308.476</ele>
<time>2019-05-30T13:57:03Z</time>
</trkpt>
<trkpt lat="49.567772" lon="10.029856">
<ele>308.476</ele>
<time>2019-05-30T13:57:04Z</time>
</trkpt>
<trkpt lat="49.567757" lon="10.029933">
<ele>308.476</ele>
<time>2019-05-30T13:57:05Z</time>
</trkpt>
<trkpt lat="49.567741" lon="10.030015">
<ele>308.476</ele>
<time>2019-05-30T13:57:06Z</time>
</trkpt>
<trkpt lat="49.567726" lon="10.030095">
<ele>308.476</ele>
<time>2019-05-30T13:57:07Z</time>
</trkpt>
<trkpt lat="49.567707" lon="10.030174">
<ele>308.476</ele>
<time>2019-05-30T13:57:08Z</time>
</trkpt>
<trkpt lat="49.567692" lon="10.030255">
<ele>308.476</ele>
<time>2019-05-30T13:57:09Z</time>
</trkpt>
<trkpt lat="49.56768" lon="10.030338">
<ele>308.476</ele>
<time>2019-05-30T13:57:10Z</time>
</trkpt>
<trkpt lat="49.567661" lon="10.030419">
<ele>308.476</ele>
<time>2019-05-30T13:57:11Z</time>
</trkpt>
<trkpt lat="49.56765" lon="10.030501">
<ele>308.476</ele>
<time>2019-05-30T13:57:12Z</time>
</trkpt>
<trkpt lat="49.567631" lon="10.030583">
<ele>308.476</ele>
<time>2019-05-30T13:57:13Z</time>
</trkpt>
<trkpt lat="49.567619" lon="10.030666">
<ele>308.476</ele>
<time>2019-05-30T13:57:14Z</time>
</trkpt>
<trkpt lat="49.5676" lon="10.030748">
<ele>308.476</ele>
<time>2019-05-30T13:57:15Z</time>
</trkpt>
<trkpt lat="49.567589" lon="10.030834">
<ele>308.476</ele>
<time>2019-05-30T13:57:16Z</time>
</trkpt>
<trkpt lat="49.567574" lon="10.030918">
<ele>308.685</ele>
<time>2019-05-30T13:57:17Z</time>
</trkpt>
<trkpt lat="49.567562" lon="10.031004">
<ele>308.881</ele>
<time>2019-05-30T13:57:18Z</time>
</trkpt>
<trkpt lat="49.567547" lon="10.03109">
<ele>309.043</ele>
<time>2019-05-30T13:57:19Z</time>
</trkpt>
<trkpt lat="49.567532" lon="10.031177">
<ele>309.173</ele>
<time>2019-05-30T13:57:20Z</time>
</trkpt>
<trkpt lat="49.567516" lon="10.031263">
<ele>309.271</ele>
<time>2019-05-30T13:57:21Z</time>
</trkpt>
<trkpt lat="49.567501" lon="10.031345">
<ele>309.342</ele>
<time>2019-05-30T13:57:22Z</time>
</trkpt>
<trkpt lat="49.56749" lon="10.031426">
<ele>309.387</ele>
<time>2019-05-30T13:57:23Z</time>
</trkpt>
<trkpt lat="49.567474" lon="10.031507">
<ele>309.409</ele>
<time>2019-05-30T13:57:24Z</time>
</trkpt>
<trkpt lat="49.567467" lon="10.031589">
<ele>309.409</ele>
<time>2019-05-30T13:57:25Z</time>
</trkpt>
<trkpt lat="49.567455" lon="10.031667">
<ele>309.409</ele>
<time>2019-05-30T13:57:26Z</time>
</trkpt>
<trkpt lat="49.567444" lon="10.031747">
<ele>309.409</ele>
<time>2019-05-30T13:57:27Z</time>
</trkpt>
<trkpt lat="49.567432" lon="10.031828">
<ele>309.409</ele>
<time>2019-05-30T13:57:28Z</time>
</trkpt>
<trkpt lat="49.567425" lon="10.031907">
<ele>309.409</ele>
<time>2019-05-30T13:57:29Z</time>
</trkpt>
<trkpt lat="49.56741" lon="10.031986">
<ele>309.409</ele>
<time>2019-05-30T13:57:30Z</time>
</trkpt>
<trkpt lat="49.567398" lon="10.032066">
<ele>309.409</ele>
<time>2019-05-30T13:57:31Z</time>
</trkpt>
<trkpt lat="49.567387" lon="10.032148">
<ele>309.409</ele>
<time>2019-05-30T13:57:32Z</time>
</trkpt>
<trkpt lat="49.567371" lon="10.032228">
<ele>309.409</ele>
<time>2019-05-30T13:57:33Z</time>
</trkpt>
<trkpt lat="49.56736" lon="10.032311">
<ele>309.409</ele>
<time>2019-05-30T13:57:34Z</time>
</trkpt>
<trkpt lat="49.567345" lon="10.032392">
<ele>309.409</ele>
<time>2019-05-30T13:57:35Z</time>
</trkpt>
<trkpt lat="49.567333" lon="10.032473">
<ele>309.409</ele>
<time>2019-05-30T13:57:36Z</time>
</trkpt>
<trkpt lat="49.567322" lon="10.032555">
<ele>309.409</ele>
<time>2019-05-30T13:57:37Z</time>
</trkpt>
<trkpt lat="49.567307" lon="10.032637">
<ele>309.409</ele>
<time>2019-05-30T13:57:38Z</time>
</trkpt>
<trkpt lat="49.567299" lon="10.032717">
<ele>309.409</ele>
<time>2019-05-30T13:57:39Z</time>
</trkpt>
<trkpt lat="49.567284" lon="10.032797">
<ele>309.409</ele>
<time>2019-05-30T13:57:40Z</time>
</trkpt>
<trkpt lat="49.567268" lon="10.032875">
<ele>309.409</ele>
<time>2019-05-30T13:57:41Z</time>
</trkpt>
<trkpt lat="49.567261" lon="10.032955">
<ele>309.409</ele>
<time>2019-05-30T13:57:42Z</time>
</trkpt>
<trkpt lat="49.567245" lon="10.033034">
<ele>309.409</ele>
<time>2019-05-30T13:57:43Z</time>
</trkpt>
<trkpt lat="49.567238" lon="10.033116">
<ele>309.409</ele>
<time>2019-05-30T13:57:44Z</time>
</trkpt>
<trkpt lat="49.567223" lon="10.033195">
<ele>309.409</ele>
<time>2019-05-30T13:57:45Z</time>
</trkpt>
<trkpt lat="49.567207" lon="10.033277">
<ele>309.409</ele>
<time>2019-05-30T13:57:46Z</time>
</trkpt>
<trkpt lat="49.567196" lon="10.033359">
<ele>309.409</ele>
<time>2019-05-30T13:57:47Z</time>
</trkpt>
<trkpt lat="49.567181" lon="10.033441">
<ele>309.409</ele>
<time>2019-05-30T13:57:48Z</time>
</trkpt>
<trkpt lat="49.567173" lon="10.03352">
<ele>309.409</ele>
<time>2019-05-30T13:57:49Z</time>
</trkpt>
<trkpt lat="49.567158" lon="10.033602">
<ele>309.681</ele>
<time>2019-05-30T13:57:50Z</time>
</trkpt>
<trkpt lat="49.567142" lon="10.033686">
<ele>309.891</ele>
<time>2019-05-30T13:57:51Z</time>
</trkpt>
<trkpt lat="49.567135" lon="10.033768">
<ele>310.047</ele>
<time>2019-05-30T13:57:52Z</time>
</trkpt>
<trkpt lat="49.56712" lon="10.033852">
<ele>310.163</ele>
<time>2019-05-30T13:57:53Z</time>
</trkpt>
<trkpt lat="49.567108" lon="10.033935">
<ele>310.246</ele>
<time>2019-05-30T13:57:54Z</time>
</trkpt>
<trkpt lat="49.567093" lon="10.034017">
<ele>310.296</ele>
<time>2019-05-30T13:57:55Z</time>
</trkpt>
<trkpt lat="49.567078" lon="10.034101">
<ele>310.32</ele>
<time>2019-05-30T13:57:56Z</time>
</trkpt>
<trkpt lat="49.56707" lon="10.034184">
<ele>310.342</ele>
<time>2019-05-30T13:57:57Z</time>
</trkpt>
<trkpt lat="49.567055" lon="10.034266">
<ele>310.342</ele>
<time>2019-05-30T13:57:58Z</time>
</trkpt>
<trkpt lat="49.567043" lon="10.034348">
<ele>310.342</ele>
<time>2019-05-30T13:57:59Z</time>
</trkpt>
<trkpt lat="49.567032" lon="10.03443">
<ele>310.342</ele>
<time>2019-05-30T13:58:00Z</time>
</trkpt>
<trkpt lat="49.56702" lon="10.034513">
<ele>310.342</ele>
<time>2019-05-30T13:58:01Z</time>
</trkpt>
<trkpt lat="49.567009" lon="10.034596">
<ele>310.342</ele>
<time>2019-05-30T13:58:02Z</time>
</trkpt>
<trkpt lat="49.566994" lon="10.03468">
<ele>310.342</ele>
<time>2019-05-30T13:58:03Z</time>
</trkpt>
<trkpt lat="49.566982" lon="10.034762">
<ele>310.342</ele>
<time>2019-05-30T13:58:04Z</time>
</trkpt>
<trkpt lat="49.566975" lon="10.034844">
<ele>310.342</ele>
<time>2019-05-30T13:58:05Z</time>
</trkpt>
<trkpt lat="49.566959" lon="10.034928">
<ele>310.342</ele>
<time>2019-05-30T13:58:06Z</time>
</trkpt>
<trkpt lat="49.566948" lon="10.035011">
<ele>310.549</ele>
<time>2019-05-30T13:58:07Z</time>
</trkpt>
<trkpt lat="49.566933" lon="10.035095">
<ele>310.746</ele>
<time>2019-05-30T13:58:08Z</time>
</trkpt>
<trkpt lat="49.566917" lon="10.035178">
<ele>310.907</ele>
<time>2019-05-30T13:58:09Z</time>
</trkpt>
<trkpt lat="49.56691" lon="10.035261">
<ele>311.036</ele>
<time>2019-05-30T13:58:10Z</time>
</trkpt>
<trkpt lat="49.566895" lon="10.035345">
<ele>311.135</ele>
<time>2019-05-30T13:58:11Z</time>
</trkpt>
<trkpt lat="49.566879" lon="10.035429">
<ele>311.207</ele>
<time>2019-05-30T13:58:12Z</time>
</trkpt>
<trkpt lat="49.566872" lon="10.035512">
<ele>311.252</ele>
<time>2019-05-30T13:58:13Z</time>
</trkpt>
<trkpt lat="49.566856" lon="10.035597">
<ele>311.275</ele>
<time>2019-05-30T13:58:14Z</time>
</trkpt>
<trkpt lat="49.566845" lon="10.035682">
<ele>311.275</ele>
<time>2019-05-30T13:58:15Z</time>
</trkpt>
<trkpt lat="49.56683" lon="10.035769">
<ele>311.274</ele>
<time>2019-05-30T13:58:16Z</time>
</trkpt>
<trkpt lat="49.566814" lon="10.035853">
<ele>311.274</ele>
<time>2019-05-30T13:58:17Z</time>
</trkpt>
<trkpt lat="49.566799" lon="10.035938">
<ele>311.275</ele>
<time>2019-05-30T13:58:18Z</time>
</trkpt>
<trkpt lat="49.566784" lon="10.036021">
<ele>311.275</ele>
<time>2019-05-30T13:58:19Z</time>
</trkpt>
<trkpt lat="49.566776" lon="10.036107">
<ele>311.275</ele>
<time>2019-05-30T13:58:20Z</time>
</trkpt>
<trkpt lat="49.566761" lon="10.036187">
<ele>311.275</ele>
<time>2019-05-30T13:58:21Z</time>
</trkpt>
<trkpt lat="49.56675" lon="10.03627">
<ele>311.275</ele>
<time>2019-05-30T13:58:22Z</time>
</trkpt>
<trkpt lat="49.566734" lon="10.036352">
<ele>311.274</ele>
<time>2019-05-30T13:58:23Z</time>
</trkpt>
<trkpt lat="49.566719" lon="10.036435">
<ele>311.274</ele>
<time>2019-05-30T13:58:24Z</time>
</trkpt>
<trkpt lat="49.566708" lon="10.036518">
<ele>311.274</ele>
<time>2019-05-30T13:58:25Z</time>
</trkpt>
<trkpt lat="49.566692" lon="10.0366">
<ele>311.275</ele>
<time>2019-05-30T13:58:26Z</time>
</trkpt>
<trkpt lat="49.566681" lon="10.036683">
<ele>311.275</ele>
<time>2019-05-30T13:58:27Z</time>
</trkpt>
<trkpt lat="49.566669" lon="10.036767">
<ele>311.481</ele>
<time>2019-05-30T13:58:28Z</time>
</trkpt>
<trkpt lat="49.56665" lon="10.036849">
<ele>311.655</ele>
<time>2019-05-30T13:58:29Z</time>
</trkpt>
<trkpt lat="49.566639" lon="10.036931">
<ele>311.797</ele>
<time>2019-05-30T13:58:30Z</time>
</trkpt>
<trkpt lat="49.566628" lon="10.037015">
<ele>311.912</ele>
<time>2019-05-30T13:58:31Z</time>
</trkpt>
<trkpt lat="49.566616" lon="10.0371">
<ele>311.999</ele>
<time>2019-05-30T13:58:32Z</time>
</trkpt>
<trkpt lat="49.566601" lon="10.037185">
<ele>312.062</ele>
<time>2019-05-30T13:58:33Z</time>
</trkpt>
<trkpt lat="49.566586" lon="10.037271">
<ele>312.104</ele>
<time>2019-05-30T13:58:34Z</time>
</trkpt>
<trkpt lat="49.566574" lon="10.037354">
<ele>312.123</ele>
<time>2019-05-30T13:58:35Z</time>
</trkpt>
<trkpt lat="49.566563" lon="10.03744">
<ele>312.123</ele>
<time>2019-05-30T13:58:36Z</time>
</trkpt>
<trkpt lat="49.566551" lon="10.037525">
<ele>312.123</ele>
<time>2019-05-30T13:58:37Z</time>
</trkpt>
<trkpt lat="49.566536" lon="10.03761">
<ele>312.351</ele>
<time>2019-05-30T13:58:38Z</time>
</trkpt>
<trkpt lat="49.566521" lon="10.037693">
<ele>312.541</ele>
<time>2019-05-30T13:58:39Z</time>
</trkpt>
<trkpt lat="49.566509" lon="10.037777">
<ele>312.696</ele>
<time>2019-05-30T13:58:40Z</time>
</trkpt>
<trkpt lat="49.566498" lon="10.037862">
<ele>312.822</ele>
<time>2019-05-30T13:58:41Z</time>
</trkpt>
<trkpt lat="49.566486" lon="10.037947">
<ele>312.919</ele>
<time>2019-05-30T13:58:42Z</time>
</trkpt>
<trkpt lat="49.566471" lon="10.038032">
<ele>312.989</ele>
<time>2019-05-30T13:58:43Z</time>
</trkpt>
<trkpt lat="49.566456" lon="10.038116">
<ele>313.034</ele>
<time>2019-05-30T13:58:44Z</time>
</trkpt>
<trkpt lat="49.566444" lon="10.038198">
<ele>313.056</ele>
<time>2019-05-30T13:58:45Z</time>
</trkpt>
<trkpt lat="49.566429" lon="10.038283">
<ele>313.056</ele>
<time>2019-05-30T13:58:46Z</time>
</trkpt>
<trkpt lat="49.566418" lon="10.038368">
<ele>313.056</ele>
<time>2019-05-30T13:58:47Z</time>
</trkpt>
<trkpt lat="49.566402" lon="10.038448">
<ele>313.056</ele>
<time>2019-05-30T13:58:48Z</time>
</trkpt>
<trkpt lat="49.566391" lon="10.038529">
<ele>313.056</ele>
<time>2019-05-30T13:58:49Z</time>
</trkpt>
<trkpt lat="49.566376" lon="10.038609">
<ele>313.056</ele>
<time>2019-05-30T13:58:50Z</time>
</trkpt>
<trkpt lat="49.56636" lon="10.038691">
<ele>313.056</ele>
<time>2019-05-30T13:58:51Z</time>
</trkpt>
<trkpt lat="49.566353" lon="10.038771">
<ele>313.056</ele>
<time>2019-05-30T13:58:52Z</time>
</trkpt>
<trkpt lat="49.566341" lon="10.038852">
<ele>313.056</ele>
<time>2019-05-30T13:58:53Z</time>
</trkpt>
<trkpt lat="49.566326" lon="10.038937">
<ele>313.056</ele>
<time>2019-05-30T13:58:54Z</time>
</trkpt>
<trkpt lat="49.566315" lon="10.03902">
<ele>313.056</ele>
<time>2019-05-30T13:58:55Z</time>
</trkpt>
<trkpt lat="49.566303" lon="10.039102">
<ele>313.056</ele>
<time>2019-05-30T13:58:56Z</time>
</trkpt>
<trkpt lat="49.566292" lon="10.039184">
<ele>313.056</ele>
<time>2019-05-30T13:58:57Z</time>
</trkpt>
<trkpt lat="49.56628" lon="10.039262">
<ele>313.056</ele>
<time>2019-05-30T13:58:58Z</time>
</trkpt>
<trkpt lat="49.566265" lon="10.039343">
<ele>313.056</ele>
<time>2019-05-30T13:58:59Z</time>
</trkpt>
<trkpt lat="49.566257" lon="10.039425">
<ele>313.056</ele>
<time>2019-05-30T13:59:00Z</time>
</trkpt>
<trkpt lat="49.566242" lon="10.03951">
<ele>313.056</ele>
<time>2019-05-30T13:59:01Z</time>
</trkpt>
<trkpt lat="49.566227" lon="10.039596">
<ele>313.309</ele>
<time>2019-05-30T13:59:02Z</time>
</trkpt>
<trkpt lat="49.566219" lon="10.03968">
<ele>313.51</ele>
<time>2019-05-30T13:59:03Z</time>
</trkpt>
<trkpt lat="49.566204" lon="10.039765">
<ele>313.663</ele>
<time>2019-05-30T13:59:04Z</time>
</trkpt>
<trkpt lat="49.566193" lon="10.039851">
<ele>313.775</ele>
<time>2019-05-30T13:59:05Z</time>
</trkpt>
<trkpt lat="49.566177" lon="10.039937">
<ele>313.857</ele>
<time>2019-05-30T13:59:06Z</time>
</trkpt>
<trkpt lat="49.566162" lon="10.040019">
<ele>313.914</ele>
<time>2019-05-30T13:59:07Z</time>
</trkpt>
<trkpt lat="49.566151" lon="10.040105">
<ele>313.965</ele>
<time>2019-05-30T13:59:08Z</time>
</trkpt>
<trkpt lat="49.566135" lon="10.040189">
<ele>313.989</ele>
<time>2019-05-30T13:59:09Z</time>
</trkpt>
<trkpt lat="49.566124" lon="10.040273">
<ele>313.989</ele>
<time>2019-05-30T13:59:10Z</time>
</trkpt>
<trkpt lat="49.566109" lon="10.040359">
<ele>313.989</ele>
<time>2019-05-30T13:59:11Z</time>
</trkpt>
<trkpt lat="49.566097" lon="10.040444">
<ele>313.989</ele>
<time>2019-05-30T13:59:12Z</time>
</trkpt>
<trkpt lat="49.566082" lon="10.040528">
<ele>313.989</ele>
<time>2019-05-30T13:59:13Z</time>
</trkpt>
<trkpt lat="49.566071" lon="10.040614">
<ele>313.989</ele>
<time>2019-05-30T13:59:14Z</time>
</trkpt>
<trkpt lat="49.566063" lon="10.040698">
<ele>313.989</ele>
<time>2019-05-30T13:59:15Z</time>
</trkpt>
<trkpt lat="49.566051" lon="10.040782">
<ele>314.195</ele>
<time>2019-05-30T13:59:16Z</time>
</trkpt>
<trkpt lat="49.566036" lon="10.040867">
<ele>314.342</ele>
<time>2019-05-30T13:59:17Z</time>
</trkpt>
<trkpt lat="49.566025" lon="10.04095">
<ele>314.492</ele>
<time>2019-05-30T13:59:18Z</time>
</trkpt>
<trkpt lat="49.56601" lon="10.041035">
<ele>314.613</ele>
<time>2019-05-30T13:59:19Z</time>
</trkpt>
<trkpt lat="49.565998" lon="10.041121">
<ele>314.706</ele>
<time>2019-05-30T13:59:20Z</time>
</trkpt>
<trkpt lat="49.565987" lon="10.041206">
<ele>314.775</ele>
<time>2019-05-30T13:59:21Z</time>
</trkpt>
<trkpt lat="49.565971" lon="10.041288">
<ele>314.817</ele>
<time>2019-05-30T13:59:22Z</time>
</trkpt>
<trkpt lat="49.56596" lon="10.041372">
<ele>314.838</ele>
<time>2019-05-30T13:59:23Z</time>
</trkpt>
<trkpt lat="49.565945" lon="10.041451">
<ele>314.838</ele>
<time>2019-05-30T13:59:24Z</time>
</trkpt>
<trkpt lat="49.565933" lon="10.041533">
<ele>314.838</ele>
<time>2019-05-30T13:59:25Z</time>
</trkpt>
<trkpt lat="49.565922" lon="10.041614">
<ele>314.838</ele>
<time>2019-05-30T13:59:26Z</time>
</trkpt>
<trkpt lat="49.565907" lon="10.041692">
<ele>314.838</ele>
<time>2019-05-30T13:59:27Z</time>
</trkpt>
<trkpt lat="49.565895" lon="10.041773">
<ele>314.838</ele>
<time>2019-05-30T13:59:28Z</time>
</trkpt>
<trkpt lat="49.565876" lon="10.041857">
<ele>314.838</ele>
<time>2019-05-30T13:59:29Z</time>
</trkpt>
<trkpt lat="49.565865" lon="10.041938">
<ele>314.838</ele>
<time>2019-05-30T13:59:30Z</time>
</trkpt>
<trkpt lat="49.565845" lon="10.04202">
<ele>314.838</ele>
<time>2019-05-30T13:59:31Z</time>
</trkpt>
<trkpt lat="49.56583" lon="10.042106">
<ele>314.838</ele>
<time>2019-05-30T13:59:32Z</time>
</trkpt>
<trkpt lat="49.565815" lon="10.04219">
<ele>314.838</ele>
<time>2019-05-30T13:59:33Z</time>
</trkpt>
<trkpt lat="49.5658" lon="10.042275">
<ele>314.838</ele>
<time>2019-05-30T13:59:34Z</time>
</trkpt>
<trkpt lat="49.565781" lon="10.042358">
<ele>314.838</ele>
<time>2019-05-30T13:59:35Z</time>
</trkpt>
<trkpt lat="49.565765" lon="10.042447">
<ele>314.838</ele>
<time>2019-05-30T13:59:36Z</time>
</trkpt>
<trkpt lat="49.565742" lon="10.042537">
<ele>314.838</ele>
<time>2019-05-30T13:59:37Z</time>
</trkpt>
<trkpt lat="49.565727" lon="10.042624">
<ele>314.838</ele>
<time>2019-05-30T13:59:38Z</time>
</trkpt>
<trkpt lat="49.565704" lon="10.042708">
<ele>314.838</ele>
<time>2019-05-30T13:59:39Z</time>
</trkpt>
<trkpt lat="49.565681" lon="10.042791">
<ele>314.838</ele>
<time>2019-05-30T13:59:40Z</time>
</trkpt>
<trkpt lat="49.565666" lon="10.042875">
<ele>314.838</ele>
<time>2019-05-30T13:59:41Z</time>
</trkpt>
<trkpt lat="49.565643" lon="10.042958">
<ele>314.838</ele>
<time>2019-05-30T13:59:42Z</time>
</trkpt>
<trkpt lat="49.565628" lon="10.04304">
<ele>314.838</ele>
<time>2019-05-30T13:59:43Z</time>
</trkpt>
<trkpt lat="49.565605" lon="10.043121">
<ele>314.838</ele>
<time>2019-05-30T13:59:44Z</time>
</trkpt>
<trkpt lat="49.565586" lon="10.043203">
<ele>314.838</ele>
<time>2019-05-30T13:59:45Z</time>
</trkpt>
<trkpt lat="49.565567" lon="10.043287">
<ele>314.838</ele>
<time>2019-05-30T13:59:46Z</time>
</trkpt>
<trkpt lat="49.565544" lon="10.043368">
<ele>314.838</ele>
<time>2019-05-30T13:59:47Z</time>
</trkpt>
<trkpt lat="49.565525" lon="10.043451">
<ele>314.838</ele>
<time>2019-05-30T13:59:48Z</time>
</trkpt>
<trkpt lat="49.565506" lon="10.043537">
<ele>314.838</ele>
<time>2019-05-30T13:59:49Z</time>
</trkpt>
<trkpt lat="49.565483" lon="10.043623">
<ele>314.838</ele>
<time>2019-05-30T13:59:50Z</time>
</trkpt>
<trkpt lat="49.565464" lon="10.043709">
<ele>314.838</ele>
<time>2019-05-30T13:59:51Z</time>
</trkpt>
<trkpt lat="49.565445" lon="10.043793">
<ele>314.838</ele>
<time>2019-05-30T13:59:52Z</time>
</trkpt>
<trkpt lat="49.565418" lon="10.043875">
<ele>314.838</ele>
<time>2019-05-30T13:59:53Z</time>
</trkpt>
<trkpt lat="49.565395" lon="10.043956">
<ele>314.838</ele>
<time>2019-05-30T13:59:54Z</time>
</trkpt>
<trkpt lat="49.565372" lon="10.044037">
<ele>314.838</ele>
<time>2019-05-30T13:59:55Z</time>
</trkpt>
<trkpt lat="49.565346" lon="10.044115">
<ele>314.838</ele>
<time>2019-05-30T13:59:56Z</time>
</trkpt>
<trkpt lat="49.565323" lon="10.044195">
<ele>314.838</ele>
<time>2019-05-30T13:59:57Z</time>
</trkpt>
<trkpt lat="49.565304" lon="10.044273">
<ele>314.838</ele>
<time>2019-05-30T13:59:58Z</time>
</trkpt>
<trkpt lat="49.565281" lon="10.044352">
<ele>314.838</ele>
<time>2019-05-30T13:59:59Z</time>
</trkpt>
<trkpt lat="49.565258" lon="10.04443">
<ele>314.838</ele>
<time>2019-05-30T14:00:00Z</time>
</trkpt>
<trkpt lat="49.565235" lon="10.044505">
<ele>314.838</ele>
<time>2019-05-30T14:00:01Z</time>
</trkpt>
<trkpt lat="49.565212" lon="10.044582">
<ele>314.838</ele>
<time>2019-05-30T14:00:02Z</time>
</trkpt>
<trkpt lat="49.565186" lon="10.044658">
<ele>314.838</ele>
<time>2019-05-30T14:00:03Z</time>
</trkpt>
<trkpt lat="49.565166" lon="10.044735">
<ele>314.838</ele>
<time>2019-05-30T14:00:04Z</time>
</trkpt>
<trkpt lat="49.56514" lon="10.04481">
<ele>314.838</ele>
<time>2019-05-30T14:00:05Z</time>
</trkpt>
<trkpt lat="49.565117" lon="10.044885">
<ele>314.838</ele>
<time>2019-05-30T14:00:06Z</time>
</trkpt>
<trkpt lat="49.56509" lon="10.04496">
<ele>314.838</ele>
<time>2019-05-30T14:00:07Z</time>
</trkpt>
<trkpt lat="49.565063" lon="10.045035">
<ele>314.838</ele>
<time>2019-05-30T14:00:08Z</time>
</trkpt>
<trkpt lat="49.565041" lon="10.04511">
<ele>314.838</ele>
<time>2019-05-30T14:00:09Z</time>
</trkpt>
<trkpt lat="49.565018" lon="10.045185">
<ele>314.838</ele>
<time>2019-05-30T14:00:10Z</time>
</trkpt>
<trkpt lat="49.564987" lon="10.045261">
<ele>314.838</ele>
<time>2019-05-30T14:00:11Z</time>
</trkpt>
<trkpt lat="49.564964" lon="10.045337">
<ele>315.092</ele>
<time>2019-05-30T14:00:12Z</time>
</trkpt>
<trkpt lat="49.564938" lon="10.045414">
<ele>315.291</ele>
<time>2019-05-30T14:00:13Z</time>
</trkpt>
<trkpt lat="49.564911" lon="10.045487">
<ele>315.442</ele>
<time>2019-05-30T14:00:14Z</time>
</trkpt>
<trkpt lat="49.564884" lon="10.045562">
<ele>315.554</ele>
<time>2019-05-30T14:00:15Z</time>
</trkpt>
<trkpt lat="49.564857" lon="10.045636">
<ele>315.636</ele>
<time>2019-05-30T14:00:16Z</time>
</trkpt>
<trkpt lat="49.564827" lon="10.04571">
<ele>315.694</ele>
<time>2019-05-30T14:00:17Z</time>
</trkpt>
<trkpt lat="49.5648" lon="10.045785">
<ele>315.746</ele>
<time>2019-05-30T14:00:18Z</time>
</trkpt>
<trkpt lat="49.56477" lon="10.04586">
<ele>315.771</ele>
<time>2019-05-30T14:00:19Z</time>
</trkpt>
<trkpt lat="49.564743" lon="10.045937">
<ele>315.771</ele>
<time>2019-05-30T14:00:20Z</time>
</trkpt>
<trkpt lat="49.564716" lon="10.04601">
<ele>315.771</ele>
<time>2019-05-30T14:00:21Z</time>
</trkpt>
<trkpt lat="49.564686" lon="10.046084">
<ele>315.771</ele>
<time>2019-05-30T14:00:22Z</time>
</trkpt>
<trkpt lat="49.564659" lon="10.04616">
<ele>315.771</ele>
<time>2019-05-30T14:00:23Z</time>
</trkpt>
<trkpt lat="49.564629" lon="10.046233">
<ele>315.771</ele>
<time>2019-05-30T14:00:24Z</time>
</trkpt>
<trkpt lat="49.564598" lon="10.046307">
<ele>315.771</ele>
<time>2019-05-30T14:00:25Z</time>
</trkpt>
<trkpt lat="49.564564" lon="10.04638">
<ele>315.998</ele>
<time>2019-05-30T14:00:26Z</time>
</trkpt>
<trkpt lat="49.564533" lon="10.046453">
<ele>316.16</ele>
<time>2019-05-30T14:00:27Z</time>
</trkpt>
<trkpt lat="49.564503" lon="10.046529">
<ele>316.326</ele>
<time>2019-05-30T14:00:28Z</time>
</trkpt>
<trkpt lat="49.564476" lon="10.046602">
<ele>316.46</ele>
<time>2019-05-30T14:00:29Z</time>
</trkpt>
<trkpt lat="49.564442" lon="10.046675">
<ele>316.561</ele>
<time>2019-05-30T14:00:30Z</time>
</trkpt>
<trkpt lat="49.564411" lon="10.046748">
<ele>316.635</ele>
<time>2019-05-30T14:00:31Z</time>
</trkpt>
<trkpt lat="49.564377" lon="10.046824">
<ele>316.682</ele>
<time>2019-05-30T14:00:32Z</time>
</trkpt>
<trkpt lat="49.564342" lon="10.046898">
<ele>316.705</ele>
<time>2019-05-30T14:00:33Z</time>
</trkpt>
<trkpt lat="49.564312" lon="10.046971">
<ele>316.705</ele>
<time>2019-05-30T14:00:34Z</time>
</trkpt>
<trkpt lat="49.564278" lon="10.047045">
<ele>316.705</ele>
<time>2019-05-30T14:00:35Z</time>
</trkpt>
<trkpt lat="49.564247" lon="10.047115">
<ele>316.705</ele>
<time>2019-05-30T14:00:36Z</time>
</trkpt>
<trkpt lat="49.564213" lon="10.047187">
<ele>316.705</ele>
<time>2019-05-30T14:00:37Z</time>
</trkpt>
<trkpt lat="49.564178" lon="10.047254">
<ele>316.705</ele>
<time>2019-05-30T14:00:38Z</time>
</trkpt>
<trkpt lat="49.564148" lon="10.047318">
<ele>316.705</ele>
<time>2019-05-30T14:00:39Z</time>
</trkpt>
<trkpt lat="49.564114" lon="10.047385">
<ele>316.705</ele>
<time>2019-05-30T14:00:40Z</time>
</trkpt>
<trkpt lat="49.564079" lon="10.047452">
<ele>316.705</ele>
<time>2019-05-30T14:00:41Z</time>
</trkpt>
<trkpt lat="49.564049" lon="10.047515">
<ele>316.705</ele>
<time>2019-05-30T14:00:42Z</time>
</trkpt>
<trkpt lat="49.564011" lon="10.047582">
<ele>316.705</ele>
<time>2019-05-30T14:00:43Z</time>
</trkpt>
<trkpt lat="49.563976" lon="10.047649">
<ele>316.705</ele>
<time>2019-05-30T14:00:44Z</time>
</trkpt>
<trkpt lat="49.563938" lon="10.047718">
<ele>316.705</ele>
<time>2019-05-30T14:00:45Z</time>
</trkpt>
<trkpt lat="49.563908" lon="10.047787">
<ele>316.705</ele>
<time>2019-05-30T14:00:46Z</time>
</trkpt>
<trkpt lat="49.563869" lon="10.047849">
<ele>316.705</ele>
<time>2019-05-30T14:00:47Z</time>
</trkpt>
<trkpt lat="49.563835" lon="10.047907">
<ele>316.705</ele>
<time>2019-05-30T14:00:48Z</time>
</trkpt>
<trkpt lat="49.563797" lon="10.047966">
<ele>316.705</ele>
<time>2019-05-30T14:00:49Z</time>
</trkpt>
<trkpt lat="49.563755" lon="10.04803">
<ele>316.705</ele>
<time>2019-05-30T14:00:50Z</time>
</trkpt>
<trkpt lat="49.563717" lon="10.048092">
<ele>316.705</ele>
<time>2019-05-30T14:00:51Z</time>
</trkpt>
<trkpt lat="49.563683" lon="10.048155">
<ele>316.705</ele>
<time>2019-05-30T14:00:52Z</time>
</trkpt>
<trkpt lat="49.563641" lon="10.048219">
<ele>316.705</ele>
<time>2019-05-30T14:00:53Z</time>
</trkpt>
<trkpt lat="49.563599" lon="10.048282">
<ele>316.705</ele>
<time>2019-05-30T14:00:54Z</time>
</trkpt>
<trkpt lat="49.56356" lon="10.048347">
<ele>316.705</ele>
<time>2019-05-30T14:00:55Z</time>
</trkpt>
<trkpt lat="49.563519" lon="10.048406">
<ele>316.705</ele>
<time>2019-05-30T14:00:56Z</time>
</trkpt>
<trkpt lat="49.56348" lon="10.048471">
<ele>316.705</ele>
<time>2019-05-30T14:00:57Z</time>
</trkpt>
<trkpt lat="49.563438" lon="10.048538">
<ele>316.705</ele>
<time>2019-05-30T14:00:58Z</time>
</trkpt>
<trkpt lat="49.563393" lon="10.048609">
<ele>316.705</ele>
<time>2019-05-30T14:00:59Z</time>
</trkpt>
<trkpt lat="49.563354" lon="10.048675">
<ele>316.705</ele>
<time>2019-05-30T14:01:00Z</time>
</trkpt>
<trkpt lat="49.563309" lon="10.048743">
<ele>316.705</ele>
<time>2019-05-30T14:01:01Z</time>
</trkpt>
<trkpt lat="49.563259" lon="10.048819">
<ele>316.705</ele>
<time>2019-05-30T14:01:02Z</time>
</trkpt>
<trkpt lat="49.563213" lon="10.048888">
<ele>316.705</ele>
<time>2019-05-30T14:01:03Z</time>
</trkpt>
<trkpt lat="49.563164" lon="10.048957">
<ele>316.435</ele>
<time>2019-05-30T14:01:04Z</time>
</trkpt>
<trkpt lat="49.563118" lon="10.049022">
<ele>316.229</ele>
<time>2019-05-30T14:01:05Z</time>
</trkpt>
<trkpt lat="49.563068" lon="10.049083">
<ele>316.071</ele>
<time>2019-05-30T14:01:06Z</time>
</trkpt>
<trkpt lat="49.563019" lon="10.049148">
<ele>315.964</ele>
<time>2019-05-30T14:01:07Z</time>
</trkpt>
<trkpt lat="49.562965" lon="10.049212">
<ele>315.852</ele>
<time>2019-05-30T14:01:08Z</time>
</trkpt>
<trkpt lat="49.562916" lon="10.049277">
<ele>315.54</ele>
<time>2019-05-30T14:01:09Z</time>
</trkpt>
<trkpt lat="49.562866" lon="10.049342">
<ele>315.297</ele>
<time>2019-05-30T14:01:10Z</time>
</trkpt>
<trkpt lat="49.562809" lon="10.049405">
<ele>315.111</ele>
<time>2019-05-30T14:01:11Z</time>
</trkpt>
<trkpt lat="49.562759" lon="10.04947">
<ele>314.907</ele>
<time>2019-05-30T14:01:12Z</time>
</trkpt>
<trkpt lat="49.562706" lon="10.049535">
<ele>314.828</ele>
<time>2019-05-30T14:01:13Z</time>
</trkpt>
<trkpt lat="49.562653" lon="10.049603">
<ele>314.775</ele>
<time>2019-05-30T14:01:14Z</time>
</trkpt>
<trkpt lat="49.562599" lon="10.049668">
<ele>314.753</ele>
<time>2019-05-30T14:01:15Z</time>
</trkpt>
<trkpt lat="49.562542" lon="10.049734">
<ele>314.753</ele>
<time>2019-05-30T14:01:16Z</time>
</trkpt>
<trkpt lat="49.562489" lon="10.0498">
<ele>314.563</ele>
<time>2019-05-30T14:01:17Z</time>
</trkpt>
<trkpt lat="49.562439" lon="10.049864">
<ele>314.384</ele>
<time>2019-05-30T14:01:18Z</time>
</trkpt>
<trkpt lat="49.562382" lon="10.049929">
<ele>314.237</ele>
<time>2019-05-30T14:01:19Z</time>
</trkpt>
<trkpt lat="49.562325" lon="10.049994">
<ele>314.12</ele>
<time>2019-05-30T14:01:20Z</time>
</trkpt>
<trkpt lat="49.562271" lon="10.050058">
<ele>314.031</ele>
<time>2019-05-30T14:01:21Z</time>
</trkpt>
<trkpt lat="49.562218" lon="10.050121">
<ele>313.967</ele>
<time>2019-05-30T14:01:22Z</time>
</trkpt>
<trkpt lat="49.562164" lon="10.050188">
<ele>313.928</ele>
<time>2019-05-30T14:01:23Z</time>
</trkpt>
<trkpt lat="49.562111" lon="10.050254">
<ele>313.636</ele>
<time>2019-05-30T14:01:24Z</time>
</trkpt>
<trkpt lat="49.562057" lon="10.050319">
<ele>313.4</ele>
<time>2019-05-30T14:01:25Z</time>
</trkpt>
<trkpt lat="49.562008" lon="10.050382">
<ele>313.226</ele>
<time>2019-05-30T14:01:26Z</time>
</trkpt>
<trkpt lat="49.561954" lon="10.050445">
<ele>313.11</ele>
<time>2019-05-30T14:01:27Z</time>
</trkpt>
<trkpt lat="49.561901" lon="10.050505">
<ele>312.982</ele>
<time>2019-05-30T14:01:28Z</time>
</trkpt>
<trkpt lat="49.561855" lon="10.050564">
<ele>312.89</ele>
<time>2019-05-30T14:01:29Z</time>
</trkpt>
<trkpt lat="49.561806" lon="10.050623">
<ele>312.83</ele>
<time>2019-05-30T14:01:30Z</time>
</trkpt>
<trkpt lat="49.561752" lon="10.050683">
<ele>312.802</ele>
<time>2019-05-30T14:01:31Z</time>
</trkpt>
<trkpt lat="49.561699" lon="10.050745">
<ele>312.802</ele>
<time>2019-05-30T14:01:32Z</time>
</trkpt>
<trkpt lat="49.561646" lon="10.050811">
<ele>312.802</ele>
<time>2019-05-30T14:01:33Z</time>
</trkpt>
<trkpt lat="49.561592" lon="10.050874">
<ele>312.802</ele>
<time>2019-05-30T14:01:34Z</time>
</trkpt>
<trkpt lat="49.561535" lon="10.050941">
<ele>312.544</ele>
<time>2019-05-30T14:01:35Z</time>
</trkpt>
<trkpt lat="49.561481" lon="10.051006">
<ele>312.338</ele>
<time>2019-05-30T14:01:36Z</time>
</trkpt>
<trkpt lat="49.561424" lon="10.051075">
<ele>312.199</ele>
<time>2019-05-30T14:01:37Z</time>
</trkpt>
<trkpt lat="49.561367" lon="10.051144">
<ele>312.05</ele>
<time>2019-05-30T14:01:38Z</time>
</trkpt>
<trkpt lat="49.561306" lon="10.051213">
<ele>311.939</ele>
<time>2019-05-30T14:01:39Z</time>
</trkpt>
<trkpt lat="49.561256" lon="10.051282">
<ele>311.858</ele>
<time>2019-05-30T14:01:40Z</time>
</trkpt>
<trkpt lat="49.561203" lon="10.051349">
<ele>311.811</ele>
<time>2019-05-30T14:01:41Z</time>
</trkpt>
<trkpt lat="49.561146" lon="10.05142">
<ele>311.556</ele>
<time>2019-05-30T14:01:42Z</time>
</trkpt>
<trkpt lat="49.561096" lon="10.051487">
<ele>311.334</ele>
<time>2019-05-30T14:01:43Z</time>
</trkpt>
<trkpt lat="49.561043" lon="10.051553">
<ele>311.184</ele>
<time>2019-05-30T14:01:44Z</time>
</trkpt>
<trkpt lat="49.560986" lon="10.051621">
<ele>311.069</ele>
<time>2019-05-30T14:01:45Z</time>
</trkpt>
<trkpt lat="49.560932" lon="10.051688">
<ele>310.99</ele>
<time>2019-05-30T14:01:46Z</time>
</trkpt>
<trkpt lat="49.560883" lon="10.051748">
<ele>310.93</ele>
<time>2019-05-30T14:01:47Z</time>
</trkpt>
<trkpt lat="49.560833" lon="10.051813">
<ele>310.876</ele>
<time>2019-05-30T14:01:48Z</time>
</trkpt>
<trkpt lat="49.56078" lon="10.051877">
<ele>310.851</ele>
<time>2019-05-30T14:01:49Z</time>
</trkpt>
<trkpt lat="49.560722" lon="10.05194">
<ele>310.851</ele>
<time>2019-05-30T14:01:50Z</time>
</trkpt>
<trkpt lat="49.560665" lon="10.052003">
<ele>310.85</ele>
<time>2019-05-30T14:01:51Z</time>
</trkpt>
<trkpt lat="49.560608" lon="10.052068">
<ele>310.851</ele>
<time>2019-05-30T14:01:52Z</time>
</trkpt>
<trkpt lat="49.560555" lon="10.052132">
<ele>310.851</ele>
<time>2019-05-30T14:01:53Z</time>
</trkpt>
<trkpt lat="49.560501" lon="10.052197">
<ele>310.85</ele>
<time>2019-05-30T14:01:54Z</time>
</trkpt>
<trkpt lat="49.560448" lon="10.05226">
<ele>310.573</ele>
<time>2019-05-30T14:01:55Z</time>
</trkpt>
<trkpt lat="49.56039" lon="10.052326">
<ele>310.356</ele>
<time>2019-05-30T14:01:56Z</time>
</trkpt>
<trkpt lat="49.560341" lon="10.052388">
<ele>310.207</ele>
<time>2019-05-30T14:01:57Z</time>
</trkpt>
<trkpt lat="49.560291" lon="10.052455">
<ele>310.048</ele>
<time>2019-05-30T14:01:58Z</time>
</trkpt>
<trkpt lat="49.560234" lon="10.052522">
<ele>309.925</ele>
<time>2019-05-30T14:01:59Z</time>
</trkpt>
<trkpt lat="49.560181" lon="10.052589">
<ele>309.835</ele>
<time>2019-05-30T14:02:00Z</time>
</trkpt>
<trkpt lat="49.560123" lon="10.05266">
<ele>309.775</ele>
<time>2019-05-30T14:02:01Z</time>
</trkpt>
<trkpt lat="49.560066" lon="10.052733">
<ele>309.748</ele>
<time>2019-05-30T14:02:02Z</time>
</trkpt>
<trkpt lat="49.560013" lon="10.052801">
<ele>309.497</ele>
<time>2019-05-30T14:02:03Z</time>
</trkpt>
<trkpt lat="49.559956" lon="10.052867">
<ele>309.303</ele>
<time>2019-05-30T14:02:04Z</time>
</trkpt>
<trkpt lat="49.559898" lon="10.052932">
<ele>309.153</ele>
<time>2019-05-30T14:02:05Z</time>
</trkpt>
<trkpt lat="49.559845" lon="10.052992">
<ele>309.045</ele>
<time>2019-05-30T14:02:06Z</time>
</trkpt>
<trkpt lat="49.559795" lon="10.053055">
<ele>308.969</ele>
<time>2019-05-30T14:02:07Z</time>
</trkpt>
<trkpt lat="49.559738" lon="10.053118">
<ele>308.891</ele>
<time>2019-05-30T14:02:08Z</time>
</trkpt>
<trkpt lat="49.559681" lon="10.053185">
<ele>308.84</ele>
<time>2019-05-30T14:02:09Z</time>
</trkpt>
<trkpt lat="49.559628" lon="10.053248">
<ele>308.815</ele>
<time>2019-05-30T14:02:10Z</time>
</trkpt>
<trkpt lat="49.559574" lon="10.053312">
<ele>308.815</ele>
<time>2019-05-30T14:02:11Z</time>
</trkpt>
<trkpt lat="49.559521" lon="10.053375">
<ele>308.815</ele>
<time>2019-05-30T14:02:12Z</time>
</trkpt>
<trkpt lat="49.559467" lon="10.053436">
<ele>308.815</ele>
<time>2019-05-30T14:02:13Z</time>
</trkpt>
<trkpt lat="49.559414" lon="10.0535">
<ele>308.815</ele>
<time>2019-05-30T14:02:14Z</time>
</trkpt>
<trkpt lat="49.559361" lon="10.053562">
<ele>308.815</ele>
<time>2019-05-30T14:02:15Z</time>
</trkpt>
<trkpt lat="49.559311" lon="10.053625">
<ele>308.815</ele>
<time>2019-05-30T14:02:16Z</time>
</trkpt>
<trkpt lat="49.559254" lon="10.05369">
<ele>308.61</ele>
<time>2019-05-30T14:02:17Z</time>
</trkpt>
<trkpt lat="49.5592" lon="10.053757">
<ele>308.412</ele>
<time>2019-05-30T14:02:18Z</time>
</trkpt>
<trkpt lat="49.559147" lon="10.053823">
<ele>308.25</ele>
<time>2019-05-30T14:02:19Z</time>
</trkpt>
<trkpt lat="49.559093" lon="10.053888">
<ele>308.14</ele>
<time>2019-05-30T14:02:20Z</time>
</trkpt>
<trkpt lat="49.55904" lon="10.053953">
<ele>307.824</ele>
<time>2019-05-30T14:02:21Z</time>
</trkpt>
<trkpt lat="49.558987" lon="10.054015">
<ele>307.574</ele>
<time>2019-05-30T14:02:22Z</time>
</trkpt>
<trkpt lat="49.558929" lon="10.054077">
<ele>307.383</ele>
<time>2019-05-30T14:02:23Z</time>
</trkpt>
<trkpt lat="49.55888" lon="10.054142">
<ele>307.247</ele>
<time>2019-05-30T14:02:24Z</time>
</trkpt>
<trkpt lat="49.558826" lon="10.054207">
<ele>307.141</ele>
<time>2019-05-30T14:02:25Z</time>
</trkpt>
<trkpt lat="49.558773" lon="10.05427">
<ele>307.096</ele>
<time>2019-05-30T14:02:26Z</time>
</trkpt>
<trkpt lat="49.558723" lon="10.054331">
<ele>307.058</ele>
<time>2019-05-30T14:02:27Z</time>
</trkpt>
<trkpt lat="49.558666" lon="10.054394">
<ele>307.034</ele>
<time>2019-05-30T14:02:28Z</time>
</trkpt>
<trkpt lat="49.558613" lon="10.054454">
<ele>307.034</ele>
<time>2019-05-30T14:02:29Z</time>
</trkpt>
<trkpt lat="49.558559" lon="10.054515">
<ele>306.764</ele>
<time>2019-05-30T14:02:30Z</time>
</trkpt>
<trkpt lat="49.558498" lon="10.054573">
<ele>306.554</ele>
<time>2019-05-30T14:02:31Z</time>
</trkpt>
<trkpt lat="49.558441" lon="10.054625">
<ele>306.397</ele>
<time>2019-05-30T14:02:32Z</time>
</trkpt>
<trkpt lat="49.558384" lon="10.054673">
<ele>306.278</ele>
<time>2019-05-30T14:02:33Z</time>
</trkpt>
<trkpt lat="49.558327" lon="10.054722">
<ele>306.2</ele>
<time>2019-05-30T14:02:34Z</time>
</trkpt>
<trkpt lat="49.55827" lon="10.05477">
<ele>306.15</ele>
<time>2019-05-30T14:02:35Z</time>
</trkpt>
<trkpt lat="49.558205" lon="10.054813">
<ele>306.124</ele>
<time>2019-05-30T14:02:36Z</time>
</trkpt>
<trkpt lat="49.558144" lon="10.054854">
<ele>306.102</ele>
<time>2019-05-30T14:02:37Z</time>
</trkpt>
<trkpt lat="49.558083" lon="10.054894">
<ele>306.102</ele>
<time>2019-05-30T14:02:38Z</time>
</trkpt>
<trkpt lat="49.558022" lon="10.054932">
<ele>306.102</ele>
<time>2019-05-30T14:02:39Z</time>
</trkpt>
<trkpt lat="49.557957" lon="10.054961">
<ele>305.832</ele>
<time>2019-05-30T14:02:40Z</time>
</trkpt>
<trkpt lat="49.557892" lon="10.054989">
<ele>305.623</ele>
<time>2019-05-30T14:02:41Z</time>
</trkpt>
<trkpt lat="49.557827" lon="10.055014">
<ele>305.462</ele>
<time>2019-05-30T14:02:42Z</time>
</trkpt>
<trkpt lat="49.557762" lon="10.055037">
<ele>305.349</ele>
<time>2019-05-30T14:02:43Z</time>
</trkpt>
<trkpt lat="49.557697" lon="10.055058">
<ele>305.267</ele>
<time>2019-05-30T14:02:44Z</time>
</trkpt>
<trkpt lat="49.557629" lon="10.055077">
<ele>305.218</ele>
<time>2019-05-30T14:02:45Z</time>
</trkpt>
<trkpt lat="49.557564" lon="10.055092">
<ele>305.191</ele>
<time>2019-05-30T14:02:46Z</time>
</trkpt>
<trkpt lat="49.557495" lon="10.055106">
<ele>305.169</ele>
<time>2019-05-30T14:02:47Z</time>
</trkpt>
<trkpt lat="49.55743" lon="10.055115">
<ele>305.169</ele>
<time>2019-05-30T14:02:48Z</time>
</trkpt>
<trkpt lat="49.557365" lon="10.055119">
<ele>305.169</ele>
<time>2019-05-30T14:02:49Z</time>
</trkpt>
<trkpt lat="49.557297" lon="10.055121">
<ele>305.169</ele>
<time>2019-05-30T14:02:50Z</time>
</trkpt>
<trkpt lat="49.557232" lon="10.055121">
<ele>305.169</ele>
<time>2019-05-30T14:02:51Z</time>
</trkpt>
<trkpt lat="49.557167" lon="10.055119">
<ele>304.917</ele>
<time>2019-05-30T14:02:52Z</time>
</trkpt>
<trkpt lat="49.557098" lon="10.05511">
<ele>304.718</ele>
<time>2019-05-30T14:02:53Z</time>
</trkpt>
<trkpt lat="49.557034" lon="10.055098">
<ele>304.568</ele>
<time>2019-05-30T14:02:54Z</time>
</trkpt>
<trkpt lat="49.556969" lon="10.055085">
<ele>304.453</ele>
<time>2019-05-30T14:02:55Z</time>
</trkpt>
<trkpt lat="49.556904" lon="10.055068">
<ele>304.373</ele>
<time>2019-05-30T14:02:56Z</time>
</trkpt>
<trkpt lat="49.556839" lon="10.05505">
<ele>304.315</ele>
<time>2019-05-30T14:02:57Z</time>
</trkpt>
<trkpt lat="49.556774" lon="10.05503">
<ele>304.263</ele>
<time>2019-05-30T14:02:58Z</time>
</trkpt>
<trkpt lat="49.556713" lon="10.055005">
<ele>304.237</ele>
<time>2019-05-30T14:02:59Z</time>
</trkpt>
<trkpt lat="49.556656" lon="10.054978">
<ele>304.237</ele>
<time>2019-05-30T14:03:00Z</time>
</trkpt>
<trkpt lat="49.556595" lon="10.054947">
<ele>303.979</ele>
<time>2019-05-30T14:03:01Z</time>
</trkpt>
<trkpt lat="49.556538" lon="10.05491">
<ele>303.774</ele>
<time>2019-05-30T14:03:02Z</time>
</trkpt>
<trkpt lat="49.556473" lon="10.054875">
<ele>303.618</ele>
<time>2019-05-30T14:03:03Z</time>
</trkpt>
<trkpt lat="49.556412" lon="10.054836">
<ele>303.506</ele>
<time>2019-05-30T14:03:04Z</time>
</trkpt>
<trkpt lat="49.556347" lon="10.054796">
<ele>303.424</ele>
<time>2019-05-30T14:03:05Z</time>
</trkpt>
<trkpt lat="49.556282" lon="10.054751">
<ele>303.382</ele>
<time>2019-05-30T14:03:06Z</time>
</trkpt>
<trkpt lat="49.556217" lon="10.054706">
<ele>303.119</ele>
<time>2019-05-30T14:03:07Z</time>
</trkpt>
<trkpt lat="49.556156" lon="10.05466">
<ele>302.894</ele>
<time>2019-05-30T14:03:08Z</time>
</trkpt>
<trkpt lat="49.556091" lon="10.054613">
<ele>302.733</ele>
<time>2019-05-30T14:03:09Z</time>
</trkpt>
<trkpt lat="49.55603" lon="10.054568">
<ele>302.606</ele>
<time>2019-05-30T14:03:10Z</time>
</trkpt>
<trkpt lat="49.555965" lon="10.05452">
<ele>302.509</ele>
<time>2019-05-30T14:03:11Z</time>
</trkpt>
<trkpt lat="49.555904" lon="10.054473">
<ele>302.439</ele>
<time>2019-05-30T14:03:12Z</time>
</trkpt>
<trkpt lat="49.555843" lon="10.054425">
<ele>302.394</ele>
<time>2019-05-30T14:03:13Z</time>
</trkpt>
<trkpt lat="49.555779" lon="10.054379">
<ele>302.372</ele>
<time>2019-05-30T14:03:14Z</time>
</trkpt>
<trkpt lat="49.555717" lon="10.054331">
<ele>302.372</ele>
<time>2019-05-30T14:03:15Z</time>
</trkpt>
<trkpt lat="49.555653" lon="10.054287">
<ele>302.372</ele>
<time>2019-05-30T14:03:16Z</time>
</trkpt>
<trkpt lat="49.555592" lon="10.05424">
<ele>302.147</ele>
<time>2019-05-30T14:03:17Z</time>
</trkpt>
<trkpt lat="49.555531" lon="10.054196">
<ele>301.934</ele>
<time>2019-05-30T14:03:18Z</time>
</trkpt>
<trkpt lat="49.55547" lon="10.054155">
<ele>301.758</ele>
<time>2019-05-30T14:03:19Z</time>
</trkpt>
<trkpt lat="49.555405" lon="10.054113">
<ele>301.617</ele>
<time>2019-05-30T14:03:20Z</time>
</trkpt>
<trkpt lat="49.555347" lon="10.054071">
<ele>301.51</ele>
<time>2019-05-30T14:03:21Z</time>
</trkpt>
<trkpt lat="49.555286" lon="10.054029">
<ele>301.431</ele>
<time>2019-05-30T14:03:22Z</time>
</trkpt>
<trkpt lat="49.555222" lon="10.053983">
<ele>301.384</ele>
<time>2019-05-30T14:03:23Z</time>
</trkpt>
<trkpt lat="49.555161" lon="10.053942">
<ele>301.109</ele>
<time>2019-05-30T14:03:24Z</time>
</trkpt>
<trkpt lat="49.555099" lon="10.053902">
<ele>300.889</ele>
<time>2019-05-30T14:03:25Z</time>
</trkpt>
<trkpt lat="49.555042" lon="10.053862">
<ele>300.73</ele>
<time>2019-05-30T14:03:26Z</time>
</trkpt>
<trkpt lat="49.554981" lon="10.053822">
<ele>300.621</ele>
<time>2019-05-30T14:03:27Z</time>
</trkpt>
<trkpt lat="49.554924" lon="10.053782">
<ele>300.503</ele>
<time>2019-05-30T14:03:28Z</time>
</trkpt>
<trkpt lat="49.554871" lon="10.053743">
<ele>300.419</ele>
<time>2019-05-30T14:03:29Z</time>
</trkpt>
<trkpt lat="49.55481" lon="10.053706">
<ele>300.365</ele>
<time>2019-05-30T14:03:30Z</time>
</trkpt>
<trkpt lat="49.554752" lon="10.053667">
<ele>300.339</ele>
<time>2019-05-30T14:03:31Z</time>
</trkpt>
<trkpt lat="49.554699" lon="10.053627">
<ele>300.09</ele>
<time>2019-05-30T14:03:32Z</time>
</trkpt>
<trkpt lat="49.554646" lon="10.053592">
<ele>299.893</ele>
<time>2019-05-30T14:03:33Z</time>
</trkpt>
<trkpt lat="49.554588" lon="10.053557">
<ele>299.74</ele>
<time>2019-05-30T14:03:34Z</time>
</trkpt>
<trkpt lat="49.554527" lon="10.053524">
<ele>299.625</ele>
<time>2019-05-30T14:03:35Z</time>
</trkpt>
<trkpt lat="49.55447" lon="10.053492">
<ele>299.545</ele>
<time>2019-05-30T14:03:36Z</time>
</trkpt>
<trkpt lat="49.554413" lon="10.053459">
<ele>299.485</ele>
<time>2019-05-30T14:03:37Z</time>
</trkpt>
<trkpt lat="49.554352" lon="10.053427">
<ele>299.432</ele>
<time>2019-05-30T14:03:38Z</time>
</trkpt>
<trkpt lat="49.554295" lon="10.053391">
<ele>299.407</ele>
<time>2019-05-30T14:03:39Z</time>
</trkpt>
<trkpt lat="49.554234" lon="10.05336">
<ele>299.407</ele>
<time>2019-05-30T14:03:40Z</time>
</trkpt>
<trkpt lat="49.554173" lon="10.053329">
<ele>299.407</ele>
<time>2019-05-30T14:03:41Z</time>
</trkpt>
<trkpt lat="49.554108" lon="10.053304">
<ele>299.407</ele>
<time>2019-05-30T14:03:42Z</time>
</trkpt>
<trkpt lat="49.554047" lon="10.053279">
<ele>299.181</ele>
<time>2019-05-30T14:03:43Z</time>
</trkpt>
<trkpt lat="49.553978" lon="10.053258">
<ele>299.004</ele>
<time>2019-05-30T14:03:44Z</time>
</trkpt>
<trkpt lat="49.553913" lon="10.053237">
<ele>298.869</ele>
<time>2019-05-30T14:03:45Z</time>
</trkpt>
<trkpt lat="49.553848" lon="10.053216">
<ele>298.768</ele>
<time>2019-05-30T14:03:46Z</time>
</trkpt>
<trkpt lat="49.55378" lon="10.053197">
<ele>298.697</ele>
<time>2019-05-30T14:03:47Z</time>
</trkpt>
<trkpt lat="49.553711" lon="10.053182">
<ele>298.626</ele>
<time>2019-05-30T14:03:48Z</time>
</trkpt>
<trkpt lat="49.553646" lon="10.053166">
<ele>298.58</ele>
<time>2019-05-30T14:03:49Z</time>
</trkpt>
<trkpt lat="49.553577" lon="10.053151">
<ele>298.559</ele>
<time>2019-05-30T14:03:50Z</time>
</trkpt>
<trkpt lat="49.553513" lon="10.053135">
<ele>298.559</ele>
<time>2019-05-30T14:03:51Z</time>
</trkpt>
<trkpt lat="49.553448" lon="10.05312">
<ele>298.305</ele>
<time>2019-05-30T14:03:52Z</time>
</trkpt>
<trkpt lat="49.553383" lon="10.053105">
<ele>298.107</ele>
<time>2019-05-30T14:03:53Z</time>
</trkpt>
<trkpt lat="49.553318" lon="10.053086">
<ele>298.095</ele>
<time>2019-05-30T14:03:54Z</time>
</trkpt>
<trkpt lat="49.553249" lon="10.05307">
<ele>298.205</ele>
<time>2019-05-30T14:03:55Z</time>
</trkpt>
<trkpt lat="49.553185" lon="10.053055">
<ele>298.056</ele>
<time>2019-05-30T14:03:56Z</time>
</trkpt>
<trkpt lat="49.55312" lon="10.053041">
<ele>297.943</ele>
<time>2019-05-30T14:03:57Z</time>
</trkpt>
<trkpt lat="49.553055" lon="10.053027">
<ele>297.866</ele>
<time>2019-05-30T14:03:58Z</time>
</trkpt>
<trkpt lat="49.55299" lon="10.053015">
<ele>297.818</ele>
<time>2019-05-30T14:03:59Z</time>
</trkpt>
<trkpt lat="49.552925" lon="10.053005">
<ele>297.795</ele>
<time>2019-05-30T14:04:00Z</time>
</trkpt>
<trkpt lat="49.55286" lon="10.052983">
<ele>297.776</ele>
<time>2019-05-30T14:04:01Z</time>
</trkpt>
<trkpt lat="49.552803" lon="10.052969">
<ele>297.755</ele>
<time>2019-05-30T14:04:02Z</time>
</trkpt>
<trkpt lat="49.55275" lon="10.052962">
<ele>297.735</ele>
<time>2019-05-30T14:04:03Z</time>
</trkpt>
<trkpt lat="49.552692" lon="10.052946">
<ele>297.712</ele>
<time>2019-05-30T14:04:04Z</time>
</trkpt>
<trkpt lat="49.552628" lon="10.052929">
<ele>297.712</ele>
<time>2019-05-30T14:04:05Z</time>
</trkpt>
<trkpt lat="49.552567" lon="10.052915">
<ele>297.712</ele>
<time>2019-05-30T14:04:06Z</time>
</trkpt>
<trkpt lat="49.552502" lon="10.052913">
<ele>297.712</ele>
<time>2019-05-30T14:04:07Z</time>
</trkpt>
<trkpt lat="49.552448" lon="10.052912">
<ele>297.712</ele>
<time>2019-05-30T14:04:08Z</time>
</trkpt>
<trkpt lat="49.552399" lon="10.052906">
<ele>297.712</ele>
<time>2019-05-30T14:04:09Z</time>
</trkpt>
<trkpt lat="49.552349" lon="10.052902">
<ele>297.712</ele>
<time>2019-05-30T14:04:10Z</time>
</trkpt>
<trkpt lat="49.552296" lon="10.052894">
<ele>297.712</ele>
<time>2019-05-30T14:04:11Z</time>
</trkpt>
<trkpt lat="49.552254" lon="10.05285">
<ele>297.712</ele>
<time>2019-05-30T14:04:12Z</time>
</trkpt>
<trkpt lat="49.5522" lon="10.052832">
<ele>297.712</ele>
<time>2019-05-30T14:04:13Z</time>
</trkpt>
<trkpt lat="49.552143" lon="10.052822">
<ele>297.712</ele>
<time>2019-05-30T14:04:14Z</time>
</trkpt>
<trkpt lat="49.55209" lon="10.052814">
<ele>297.712</ele>
<time>2019-05-30T14:04:15Z</time>
</trkpt>
<trkpt lat="49.552044" lon="10.052799">
<ele>297.712</ele>
<time>2019-05-30T14:04:16Z</time>
</trkpt>
<trkpt lat="49.552002" lon="10.052782">
<ele>297.712</ele>
<time>2019-05-30T14:04:17Z</time>
</trkpt>
<trkpt lat="49.551949" lon="10.05278">
<ele>297.712</ele>
<time>2019-05-30T14:04:18Z</time>
</trkpt>
<trkpt lat="49.551903" lon="10.05277">
<ele>297.712</ele>
<time>2019-05-30T14:04:19Z</time>
</trkpt>
<trkpt lat="49.551868" lon="10.052767">
<ele>297.712</ele>
<time>2019-05-30T14:04:20Z</time>
</trkpt>
<trkpt lat="49.551834" lon="10.052767">
<ele>297.712</ele>
<time>2019-05-30T14:04:21Z</time>
</trkpt>
<trkpt lat="49.551811" lon="10.052767">
<ele>297.712</ele>
<time>2019-05-30T14:04:22Z</time>
</trkpt>
<trkpt lat="49.551785" lon="10.052765">
<ele>297.712</ele>
<time>2019-05-30T14:04:23Z</time>
</trkpt>
<trkpt lat="49.551754" lon="10.052767">
<ele>297.712</ele>
<time>2019-05-30T14:04:24Z</time>
</trkpt>
<trkpt lat="49.551731" lon="10.052767">
<ele>297.712</ele>
<time>2019-05-30T14:04:25Z</time>
</trkpt>
<trkpt lat="49.551712" lon="10.052763">
<ele>297.712</ele>
<time>2019-05-30T14:04:26Z</time>
</trkpt>
<trkpt lat="49.551697" lon="10.052762">
<ele>297.712</ele>
<time>2019-05-30T14:04:27Z</time>
</trkpt>
<trkpt lat="49.551685" lon="10.052772">
<ele>297.712</ele>
<time>2019-05-30T14:04:28Z</time>
</trkpt>
<trkpt lat="49.551682" lon="10.052789">
<ele>297.712</ele>
<time>2019-05-30T14:04:29Z</time>
</trkpt>
<trkpt lat="49.551682" lon="10.052801">
<ele>297.712</ele>
<time>2019-05-30T14:04:30Z</time>
</trkpt>
<trkpt lat="49.551685" lon="10.052807">
<ele>297.712</ele>
<time>2019-05-30T14:04:31Z</time>
</trkpt>
<trkpt lat="49.551685" lon="10.05281">
<ele>297.712</ele>
<time>2019-05-30T14:04:32Z</time>
</trkpt>
<trkpt lat="49.551685" lon="10.052815">
<ele>297.712</ele>
<time>2019-05-30T14:04:33Z</time>
</trkpt>
<trkpt lat="49.551666" lon="10.052827">
<ele>297.712</ele>
<time>2019-05-30T14:04:50Z</time>
</trkpt>
<trkpt lat="49.551662" lon="10.052833">
<ele>297.712</ele>
<time>2019-05-30T14:04:51Z</time>
</trkpt>
<trkpt lat="49.551666" lon="10.052833">
<ele>297.712</ele>
<time>2019-05-30T14:04:52Z</time>
</trkpt>
<trkpt lat="49.551659" lon="10.052838">
<ele>297.712</ele>
<time>2019-05-30T14:04:53Z</time>
</trkpt>
<trkpt lat="49.551662" lon="10.052838">
<ele>297.464</ele>
<time>2019-05-30T14:04:54Z</time>
</trkpt>
<trkpt lat="49.551651" lon="10.052791">
<ele>297.436</ele>
<time>2019-05-30T14:09:32Z</time>
</trkpt>
<trkpt lat="49.551651" lon="10.052783">
<ele>297.535</ele>
<time>2019-05-30T14:09:33Z</time>
</trkpt>
<trkpt lat="49.551647" lon="10.052782">
<ele>297.606</ele>
<time>2019-05-30T14:09:34Z</time>
</trkpt>
<trkpt lat="49.551647" lon="10.052778">
<ele>297.652</ele>
<time>2019-05-30T14:09:35Z</time>
</trkpt>
<trkpt lat="49.551647" lon="10.05278">
<ele>297.72</ele>
<time>2019-05-30T14:09:36Z</time>
</trkpt>
<trkpt lat="49.551613" lon="10.05277">
<ele>297.76</ele>
<time>2019-05-30T14:09:59Z</time>
</trkpt>
<trkpt lat="49.551601" lon="10.052765">
<ele>297.774</ele>
<time>2019-05-30T14:10:00Z</time>
</trkpt>
<trkpt lat="49.55159" lon="10.05276">
<ele>297.793</ele>
<time>2019-05-30T14:10:01Z</time>
</trkpt>
<trkpt lat="49.551567" lon="10.052751">
<ele>297.797</ele>
<time>2019-05-30T14:10:02Z</time>
</trkpt>
<trkpt lat="49.551548" lon="10.052743">
<ele>297.797</ele>
<time>2019-05-30T14:10:03Z</time>
</trkpt>
<trkpt lat="49.551521" lon="10.052738">
<ele>297.797</ele>
<time>2019-05-30T14:10:04Z</time>
</trkpt>
<trkpt lat="49.551495" lon="10.052732">
<ele>297.797</ele>
<time>2019-05-30T14:10:05Z</time>
</trkpt>
<trkpt lat="49.551472" lon="10.052717">
<ele>297.797</ele>
<time>2019-05-30T14:10:06Z</time>
</trkpt>
<trkpt lat="49.551449" lon="10.052703">
<ele>297.797</ele>
<time>2019-05-30T14:10:07Z</time>
</trkpt>
<trkpt lat="49.551426" lon="10.052693">
<ele>297.797</ele>
<time>2019-05-30T14:10:08Z</time>
</trkpt>
<trkpt lat="49.551403" lon="10.052682">
<ele>297.797</ele>
<time>2019-05-30T14:10:09Z</time>
</trkpt>
<trkpt lat="49.551384" lon="10.05267">
<ele>297.797</ele>
<time>2019-05-30T14:10:10Z</time>
</trkpt>
<trkpt lat="49.551357" lon="10.05266">
<ele>297.797</ele>
<time>2019-05-30T14:10:11Z</time>
</trkpt>
<trkpt lat="49.551331" lon="10.052647">
<ele>297.797</ele>
<time>2019-05-30T14:10:12Z</time>
</trkpt>
<trkpt lat="49.551308" lon="10.052636">
<ele>297.797</ele>
<time>2019-05-30T14:10:13Z</time>
</trkpt>
<trkpt lat="49.551281" lon="10.052622">
<ele>297.797</ele>
<time>2019-05-30T14:10:14Z</time>
</trkpt>
<trkpt lat="49.551262" lon="10.052607">
<ele>297.797</ele>
<time>2019-05-30T14:10:15Z</time>
</trkpt>
<trkpt lat="49.551239" lon="10.052591">
<ele>297.797</ele>
<time>2019-05-30T14:10:16Z</time>
</trkpt>
<trkpt lat="49.551224" lon="10.052577">
<ele>297.797</ele>
<time>2019-05-30T14:10:17Z</time>
</trkpt>
<trkpt lat="49.551197" lon="10.052568">
<ele>297.797</ele>
<time>2019-05-30T14:10:18Z</time>
</trkpt>
<trkpt lat="49.551174" lon="10.052554">
<ele>297.797</ele>
<time>2019-05-30T14:10:19Z</time>
</trkpt>
<trkpt lat="49.551147" lon="10.052542">
<ele>297.797</ele>
<time>2019-05-30T14:10:20Z</time>
</trkpt>
<trkpt lat="49.551117" lon="10.052526">
<ele>297.797</ele>
<time>2019-05-30T14:10:21Z</time>
</trkpt>
<trkpt lat="49.551094" lon="10.052515">
<ele>297.797</ele>
<time>2019-05-30T14:10:22Z</time>
</trkpt>
<trkpt lat="49.551067" lon="10.052504">
<ele>297.797</ele>
<time>2019-05-30T14:10:23Z</time>
</trkpt>
<trkpt lat="49.551041" lon="10.052482">
<ele>297.797</ele>
<time>2019-05-30T14:10:24Z</time>
</trkpt>
<trkpt lat="49.551014" lon="10.052455">
<ele>297.797</ele>
<time>2019-05-30T14:10:25Z</time>
</trkpt>
<trkpt lat="49.550987" lon="10.052424">
<ele>297.797</ele>
<time>2019-05-30T14:10:26Z</time>
</trkpt>
<trkpt lat="49.550964" lon="10.052393">
<ele>297.797</ele>
<time>2019-05-30T14:10:27Z</time>
</trkpt>
<trkpt lat="49.550938" lon="10.052361">
<ele>297.797</ele>
<time>2019-05-30T14:10:28Z</time>
</trkpt>
<trkpt lat="49.550907" lon="10.052328">
<ele>297.797</ele>
<time>2019-05-30T14:10:29Z</time>
</trkpt>
<trkpt lat="49.55088" lon="10.052297">
<ele>297.797</ele>
<time>2019-05-30T14:10:30Z</time>
</trkpt>
<trkpt lat="49.550854" lon="10.052267">
<ele>297.797</ele>
<time>2019-05-30T14:10:31Z</time>
</trkpt>
<trkpt lat="49.550823" lon="10.052234">
<ele>297.797</ele>
<time>2019-05-30T14:10:32Z</time>
</trkpt>
<trkpt lat="49.550789" lon="10.052202">
<ele>297.797</ele>
<time>2019-05-30T14:10:33Z</time>
</trkpt>
<trkpt lat="49.550758" lon="10.052172">
<ele>297.797</ele>
<time>2019-05-30T14:10:34Z</time>
</trkpt>
<trkpt lat="49.550724" lon="10.052139">
<ele>297.797</ele>
<time>2019-05-30T14:10:35Z</time>
</trkpt>
<trkpt lat="49.55069" lon="10.052108">
<ele>297.797</ele>
<time>2019-05-30T14:10:36Z</time>
</trkpt>
<trkpt lat="49.550655" lon="10.052076">
<ele>297.797</ele>
<time>2019-05-30T14:10:37Z</time>
</trkpt>
<trkpt lat="49.550617" lon="10.052041">
<ele>297.797</ele>
<time>2019-05-30T14:10:38Z</time>
</trkpt>
<trkpt lat="49.550583" lon="10.052005">
<ele>297.797</ele>
<time>2019-05-30T14:10:39Z</time>
</trkpt>
<trkpt lat="49.550549" lon="10.051967">
<ele>297.797</ele>
<time>2019-05-30T14:10:40Z</time>
</trkpt>
<trkpt lat="49.550514" lon="10.051927">
<ele>297.797</ele>
<time>2019-05-30T14:10:41Z</time>
</trkpt>
<trkpt lat="49.55048" lon="10.051886">
<ele>297.797</ele>
<time>2019-05-30T14:10:42Z</time>
</trkpt>
<trkpt lat="49.550446" lon="10.051847">
<ele>297.797</ele>
<time>2019-05-30T14:10:43Z</time>
</trkpt>
<trkpt lat="49.550415" lon="10.051806">
<ele>297.797</ele>
<time>2019-05-30T14:10:44Z</time>
</trkpt>
<trkpt lat="49.550381" lon="10.051764">
<ele>297.797</ele>
<time>2019-05-30T14:10:45Z</time>
</trkpt>
<trkpt lat="49.55035" lon="10.05172">
<ele>297.797</ele>
<time>2019-05-30T14:10:46Z</time>
</trkpt>
<trkpt lat="49.550316" lon="10.051674">
<ele>297.797</ele>
<time>2019-05-30T14:10:47Z</time>
</trkpt>
<trkpt lat="49.550285" lon="10.051626">
<ele>297.797</ele>
<time>2019-05-30T14:10:48Z</time>
</trkpt>
<trkpt lat="49.550251" lon="10.051579">
<ele>297.797</ele>
<time>2019-05-30T14:10:49Z</time>
</trkpt>
<trkpt lat="49.55022" lon="10.05153">
<ele>297.797</ele>
<time>2019-05-30T14:10:50Z</time>
</trkpt>
<trkpt lat="49.550186" lon="10.051481">
<ele>297.566</ele>
<time>2019-05-30T14:10:51Z</time>
</trkpt>
<trkpt lat="49.550156" lon="10.051434">
<ele>297.403</ele>
<time>2019-05-30T14:10:52Z</time>
</trkpt>
<trkpt lat="49.550129" lon="10.051385">
<ele>297.239</ele>
<time>2019-05-30T14:10:53Z</time>
</trkpt>
<trkpt lat="49.550102" lon="10.051343">
<ele>297.11</ele>
<time>2019-05-30T14:10:54Z</time>
</trkpt>
<trkpt lat="49.550072" lon="10.051305">
<ele>297.011</ele>
<time>2019-05-30T14:10:55Z</time>
</trkpt>
<trkpt lat="49.550049" lon="10.051268">
<ele>296.937</ele>
<time>2019-05-30T14:10:56Z</time>
</trkpt>
<trkpt lat="49.550022" lon="10.051231">
<ele>296.889</ele>
<time>2019-05-30T14:10:57Z</time>
</trkpt>
<trkpt lat="49.549995" lon="10.0512">
<ele>296.865</ele>
<time>2019-05-30T14:10:58Z</time>
</trkpt>
<trkpt lat="49.549969" lon="10.051171">
<ele>296.865</ele>
<time>2019-05-30T14:10:59Z</time>
</trkpt>
<trkpt lat="49.54995" lon="10.051148">
<ele>296.865</ele>
<time>2019-05-30T14:11:00Z</time>
</trkpt>
<trkpt lat="49.549931" lon="10.051127">
<ele>296.865</ele>
<time>2019-05-30T14:11:01Z</time>
</trkpt>
<trkpt lat="49.549927" lon="10.05111">
<ele>296.865</ele>
<time>2019-05-30T14:11:02Z</time>
</trkpt>
<trkpt lat="49.549923" lon="10.051104">
<ele>297.053</ele>
<time>2019-05-30T14:11:03Z</time>
</trkpt>
<trkpt lat="49.549919" lon="10.051098">
<ele>297.213</ele>
<time>2019-05-30T14:11:04Z</time>
</trkpt>
<trkpt lat="49.549911" lon="10.051092">
<ele>297.35</ele>
<time>2019-05-30T14:11:05Z</time>
</trkpt>
<trkpt lat="49.549904" lon="10.051079">
<ele>297.474</ele>
<time>2019-05-30T14:11:06Z</time>
</trkpt>
<trkpt lat="49.549892" lon="10.051064">
<ele>297.586</ele>
<time>2019-05-30T14:11:07Z</time>
</trkpt>
<trkpt lat="49.549881" lon="10.051037">
<ele>297.686</ele>
<time>2019-05-30T14:11:08Z</time>
</trkpt>
<trkpt lat="49.54987" lon="10.051006">
<ele>297.759</ele>
<time>2019-05-30T14:11:09Z</time>
</trkpt>
<trkpt lat="49.549858" lon="10.050968">
<ele>297.797</ele>
<time>2019-05-30T14:11:10Z</time>
</trkpt>
<trkpt lat="49.549847" lon="10.050921">
<ele>297.797</ele>
<time>2019-05-30T14:11:11Z</time>
</trkpt>
<trkpt lat="49.549831" lon="10.05087">
<ele>297.797</ele>
<time>2019-05-30T14:11:12Z</time>
</trkpt>
<trkpt lat="49.549809" lon="10.050818">
<ele>297.797</ele>
<time>2019-05-30T14:11:13Z</time>
</trkpt>
<trkpt lat="49.549789" lon="10.05077">
<ele>297.797</ele>
<time>2019-05-30T14:11:14Z</time>
</trkpt>
<trkpt lat="49.549763" lon="10.050723">
<ele>297.797</ele>
<time>2019-05-30T14:11:15Z</time>
</trkpt>
<trkpt lat="49.54974" lon="10.050672">
<ele>297.797</ele>
<time>2019-05-30T14:11:16Z</time>
</trkpt>
<trkpt lat="49.549721" lon="10.050616">
<ele>297.797</ele>
<time>2019-05-30T14:11:17Z</time>
</trkpt>
<trkpt lat="49.549706" lon="10.050562">
<ele>297.797</ele>
<time>2019-05-30T14:11:18Z</time>
</trkpt>
<trkpt lat="49.549686" lon="10.050503">
<ele>297.797</ele>
<time>2019-05-30T14:11:19Z</time>
</trkpt>
<trkpt lat="49.549664" lon="10.05045">
<ele>297.797</ele>
<time>2019-05-30T14:11:20Z</time>
</trkpt>
<trkpt lat="49.549648" lon="10.050408">
<ele>297.797</ele>
<time>2019-05-30T14:11:21Z</time>
</trkpt>
<trkpt lat="49.549625" lon="10.050357">
<ele>297.797</ele>
<time>2019-05-30T14:11:22Z</time>
</trkpt>
<trkpt lat="49.549599" lon="10.050302">
<ele>297.797</ele>
<time>2019-05-30T14:11:23Z</time>
</trkpt>
<trkpt lat="49.549576" lon="10.050245">
<ele>297.797</ele>
<time>2019-05-30T14:11:24Z</time>
</trkpt>
<trkpt lat="49.549557" lon="10.050188">
<ele>297.797</ele>
<time>2019-05-30T14:11:25Z</time>
</trkpt>
<trkpt lat="49.549534" lon="10.050134">
<ele>297.797</ele>
<time>2019-05-30T14:11:26Z</time>
</trkpt>
<trkpt lat="49.549507" lon="10.050082">
<ele>297.797</ele>
<time>2019-05-30T14:11:27Z</time>
</trkpt>
<trkpt lat="49.549484" lon="10.050023">
<ele>297.797</ele>
<time>2019-05-30T14:11:28Z</time>
</trkpt>
<trkpt lat="49.549454" lon="10.049967">
<ele>297.797</ele>
<time>2019-05-30T14:11:29Z</time>
</trkpt>
<trkpt lat="49.549431" lon="10.049904">
<ele>297.797</ele>
<time>2019-05-30T14:11:30Z</time>
</trkpt>
<trkpt lat="49.549404" lon="10.049841">
<ele>297.797</ele>
<time>2019-05-30T14:11:31Z</time>
</trkpt>
<trkpt lat="49.549381" lon="10.04978">
<ele>297.797</ele>
<time>2019-05-30T14:11:32Z</time>
</trkpt>
<trkpt lat="49.54937" lon="10.049736">
<ele>297.797</ele>
<time>2019-05-30T14:11:33Z</time>
</trkpt>
<trkpt lat="49.549351" lon="10.049694">
<ele>297.797</ele>
<time>2019-05-30T14:11:34Z</time>
</trkpt>
<trkpt lat="49.549324" lon="10.04963">
<ele>297.797</ele>
<time>2019-05-30T14:11:35Z</time>
</trkpt>
<trkpt lat="49.549301" lon="10.049563">
<ele>297.797</ele>
<time>2019-05-30T14:11:36Z</time>
</trkpt>
<trkpt lat="49.549274" lon="10.049499">
<ele>297.797</ele>
<time>2019-05-30T14:11:37Z</time>
</trkpt>
<trkpt lat="49.54924" lon="10.04943">
<ele>297.797</ele>
<time>2019-05-30T14:11:38Z</time>
</trkpt>
<trkpt lat="49.549213" lon="10.049365">
<ele>297.797</ele>
<time>2019-05-30T14:11:39Z</time>
</trkpt>
<trkpt lat="49.549187" lon="10.049294">
<ele>297.797</ele>
<time>2019-05-30T14:11:40Z</time>
</trkpt>
<trkpt lat="49.54916" lon="10.049227">
<ele>297.797</ele>
<time>2019-05-30T14:11:41Z</time>
</trkpt>
<trkpt lat="49.549133" lon="10.049164">
<ele>297.797</ele>
<time>2019-05-30T14:11:42Z</time>
</trkpt>
<trkpt lat="49.549107" lon="10.049102">
<ele>297.797</ele>
<time>2019-05-30T14:11:43Z</time>
</trkpt>
<trkpt lat="49.54908" lon="10.04904">
<ele>297.797</ele>
<time>2019-05-30T14:11:44Z</time>
</trkpt>
<trkpt lat="49.549057" lon="10.048975">
<ele>298.061</ele>
<time>2019-05-30T14:11:45Z</time>
</trkpt>
<trkpt lat="49.54903" lon="10.048913">
<ele>298.266</ele>
<time>2019-05-30T14:11:46Z</time>
</trkpt>
<trkpt lat="49.549004" lon="10.04885">
<ele>298.429</ele>
<time>2019-05-30T14:11:47Z</time>
</trkpt>
<trkpt lat="49.548977" lon="10.048785">
<ele>298.546</ele>
<time>2019-05-30T14:11:48Z</time>
</trkpt>
<trkpt lat="49.548946" lon="10.04872">
<ele>298.631</ele>
<time>2019-05-30T14:11:49Z</time>
</trkpt>
<trkpt lat="49.548916" lon="10.048656">
<ele>298.683</ele>
<time>2019-05-30T14:11:50Z</time>
</trkpt>
<trkpt lat="49.548893" lon="10.048594">
<ele>298.707</ele>
<time>2019-05-30T14:11:51Z</time>
</trkpt>
<trkpt lat="49.548866" lon="10.04853">
<ele>298.729</ele>
<time>2019-05-30T14:11:52Z</time>
</trkpt>
<trkpt lat="49.54884" lon="10.048467">
<ele>298.729</ele>
<time>2019-05-30T14:11:53Z</time>
</trkpt>
<trkpt lat="49.548817" lon="10.048404">
<ele>298.729</ele>
<time>2019-05-30T14:11:54Z</time>
</trkpt>
<trkpt lat="49.548786" lon="10.048339">
<ele>298.729</ele>
<time>2019-05-30T14:11:55Z</time>
</trkpt>
<trkpt lat="49.548756" lon="10.048276">
<ele>298.966</ele>
<time>2019-05-30T14:11:56Z</time>
</trkpt>
<trkpt lat="49.548733" lon="10.048215">
<ele>299.149</ele>
<time>2019-05-30T14:11:57Z</time>
</trkpt>
<trkpt lat="49.548702" lon="10.048153">
<ele>299.29</ele>
<time>2019-05-30T14:11:58Z</time>
</trkpt>
<trkpt lat="49.548676" lon="10.048092">
<ele>299.398</ele>
<time>2019-05-30T14:11:59Z</time>
</trkpt>
<trkpt lat="49.548649" lon="10.048031">
<ele>299.466</ele>
<time>2019-05-30T14:12:00Z</time>
</trkpt>
<trkpt lat="49.548622" lon="10.047968">
<ele>299.516</ele>
<time>2019-05-30T14:12:01Z</time>
</trkpt>
<trkpt lat="49.548595" lon="10.047903">
<ele>299.553</ele>
<time>2019-05-30T14:12:02Z</time>
</trkpt>
<trkpt lat="49.548569" lon="10.04784">
<ele>299.576</ele>
<time>2019-05-30T14:12:03Z</time>
</trkpt>
<trkpt lat="49.548538" lon="10.047773">
<ele>299.882</ele>
<time>2019-05-30T14:12:04Z</time>
</trkpt>
<trkpt lat="49.548515" lon="10.047709">
<ele>300.117</ele>
<time>2019-05-30T14:12:05Z</time>
</trkpt>
<trkpt lat="49.548489" lon="10.047644">
<ele>300.293</ele>
<time>2019-05-30T14:12:06Z</time>
</trkpt>
<trkpt lat="49.548462" lon="10.047576">
<ele>300.422</ele>
<time>2019-05-30T14:12:07Z</time>
</trkpt>
<trkpt lat="49.548435" lon="10.047508">
<ele>300.511</ele>
<time>2019-05-30T14:12:08Z</time>
</trkpt>
<trkpt lat="49.548412" lon="10.047441">
<ele>300.563</ele>
<time>2019-05-30T14:12:09Z</time>
</trkpt>
<trkpt lat="49.548386" lon="10.047377">
<ele>300.588</ele>
<time>2019-05-30T14:12:10Z</time>
</trkpt>
<trkpt lat="49.548359" lon="10.047308">
<ele>300.593</ele>
<time>2019-05-30T14:12:11Z</time>
</trkpt>
<trkpt lat="49.548328" lon="10.047243">
<ele>300.593</ele>
<time>2019-05-30T14:12:12Z</time>
</trkpt>
<trkpt lat="49.548309" lon="10.047182">
<ele>300.593</ele>
<time>2019-05-30T14:12:13Z</time>
</trkpt>
<trkpt lat="49.54829" lon="10.047124">
<ele>300.593</ele>
<time>2019-05-30T14:12:14Z</time>
</trkpt>
<trkpt lat="49.548267" lon="10.047073">
<ele>300.593</ele>
<time>2019-05-30T14:12:15Z</time>
</trkpt>
<trkpt lat="49.548248" lon="10.047012">
<ele>300.845</ele>
<time>2019-05-30T14:12:16Z</time>
</trkpt>
<trkpt lat="49.548225" lon="10.046951">
<ele>301.046</ele>
<time>2019-05-30T14:12:17Z</time>
</trkpt>
<trkpt lat="49.548199" lon="10.046893">
<ele>301.197</ele>
<time>2019-05-30T14:12:18Z</time>
</trkpt>
<trkpt lat="49.548172" lon="10.046828">
<ele>301.315</ele>
<time>2019-05-30T14:12:19Z</time>
</trkpt>
<trkpt lat="49.548149" lon="10.046759">
<ele>301.401</ele>
<time>2019-05-30T14:12:20Z</time>
</trkpt>
<trkpt lat="49.548122" lon="10.046685">
<ele>301.459</ele>
<time>2019-05-30T14:12:21Z</time>
</trkpt>
<trkpt lat="49.5481" lon="10.046615">
<ele>301.499</ele>
<time>2019-05-30T14:12:22Z</time>
</trkpt>
<trkpt lat="49.548065" lon="10.046554">
<ele>301.525</ele>
<time>2019-05-30T14:12:23Z</time>
</trkpt>
<trkpt lat="49.548035" lon="10.046489">
<ele>301.525</ele>
<time>2019-05-30T14:12:24Z</time>
</trkpt>
<trkpt lat="49.548008" lon="10.046427">
<ele>301.799</ele>
<time>2019-05-30T14:12:25Z</time>
</trkpt>
<trkpt lat="49.547985" lon="10.046363">
<ele>302.006</ele>
<time>2019-05-30T14:12:26Z</time>
</trkpt>
<trkpt lat="49.547958" lon="10.046295">
<ele>302.162</ele>
<time>2019-05-30T14:12:27Z</time>
</trkpt>
<trkpt lat="49.547932" lon="10.046223">
<ele>302.274</ele>
<time>2019-05-30T14:12:28Z</time>
</trkpt>
<trkpt lat="49.547905" lon="10.046155">
<ele>302.354</ele>
<time>2019-05-30T14:12:29Z</time>
</trkpt>
<trkpt lat="49.547874" lon="10.04609">
<ele>302.406</ele>
<time>2019-05-30T14:12:30Z</time>
</trkpt>
<trkpt lat="49.547848" lon="10.046025">
<ele>302.434</ele>
<time>2019-05-30T14:12:31Z</time>
</trkpt>
<trkpt lat="49.547825" lon="10.045961">
<ele>302.457</ele>
<time>2019-05-30T14:12:32Z</time>
</trkpt>
<trkpt lat="49.547798" lon="10.045902">
<ele>302.457</ele>
<time>2019-05-30T14:12:33Z</time>
</trkpt>
<trkpt lat="49.547783" lon="10.045855">
<ele>302.457</ele>
<time>2019-05-30T14:12:34Z</time>
</trkpt>
<trkpt lat="49.54776" lon="10.045792">
<ele>302.457</ele>
<time>2019-05-30T14:12:35Z</time>
</trkpt>
<trkpt lat="49.547733" lon="10.045724">
<ele>302.686</ele>
<time>2019-05-30T14:12:36Z</time>
</trkpt>
<trkpt lat="49.547707" lon="10.045663">
<ele>302.87</ele>
<time>2019-05-30T14:12:37Z</time>
</trkpt>
<trkpt lat="49.547684" lon="10.045592">
<ele>303.015</ele>
<time>2019-05-30T14:12:38Z</time>
</trkpt>
<trkpt lat="49.547657" lon="10.045533">
<ele>303.126</ele>
<time>2019-05-30T14:12:39Z</time>
</trkpt>
<trkpt lat="49.547626" lon="10.045473">
<ele>303.202</ele>
<time>2019-05-30T14:12:40Z</time>
</trkpt>
<trkpt lat="49.5476" lon="10.045414">
<ele>303.249</ele>
<time>2019-05-30T14:12:41Z</time>
</trkpt>
<trkpt lat="49.547573" lon="10.045347">
<ele>303.287</ele>
<time>2019-05-30T14:12:42Z</time>
</trkpt>
<trkpt lat="49.547546" lon="10.045284">
<ele>303.304</ele>
<time>2019-05-30T14:12:43Z</time>
</trkpt>
<trkpt lat="49.547527" lon="10.045213">
<ele>303.304</ele>
<time>2019-05-30T14:12:44Z</time>
</trkpt>
<trkpt lat="49.547504" lon="10.045148">
<ele>303.304</ele>
<time>2019-05-30T14:12:45Z</time>
</trkpt>
<trkpt lat="49.547485" lon="10.04508">
<ele>303.304</ele>
<time>2019-05-30T14:12:46Z</time>
</trkpt>
<trkpt lat="49.547462" lon="10.045018">
<ele>303.557</ele>
<time>2019-05-30T14:12:47Z</time>
</trkpt>
<trkpt lat="49.547443" lon="10.04495">
<ele>303.752</ele>
<time>2019-05-30T14:12:48Z</time>
</trkpt>
<trkpt lat="49.547417" lon="10.044882">
<ele>303.908</ele>
<time>2019-05-30T14:12:49Z</time>
</trkpt>
<trkpt lat="49.547394" lon="10.04482">
<ele>304.016</ele>
<time>2019-05-30T14:12:50Z</time>
</trkpt>
<trkpt lat="49.547367" lon="10.04476">
<ele>304.1</ele>
<time>2019-05-30T14:12:51Z</time>
</trkpt>
<trkpt lat="49.547344" lon="10.044691">
<ele>304.157</ele>
<time>2019-05-30T14:12:52Z</time>
</trkpt>
<trkpt lat="49.547318" lon="10.044623">
<ele>304.212</ele>
<time>2019-05-30T14:12:53Z</time>
</trkpt>
<trkpt lat="49.547287" lon="10.044557">
<ele>304.236</ele>
<time>2019-05-30T14:12:54Z</time>
</trkpt>
<trkpt lat="49.54726" lon="10.044495">
<ele>304.236</ele>
<time>2019-05-30T14:12:55Z</time>
</trkpt>
<trkpt lat="49.54723" lon="10.044436">
<ele>304.236</ele>
<time>2019-05-30T14:12:56Z</time>
</trkpt>
<trkpt lat="49.547203" lon="10.044378">
<ele>304.489</ele>
<time>2019-05-30T14:12:57Z</time>
</trkpt>
<trkpt lat="49.547165" lon="10.044325">
<ele>304.688</ele>
<time>2019-05-30T14:12:58Z</time>
</trkpt>
<trkpt lat="49.547131" lon="10.044267">
<ele>304.838</ele>
<time>2019-05-30T14:12:59Z</time>
</trkpt>
<trkpt lat="49.547092" lon="10.044209">
<ele>304.948</ele>
<time>2019-05-30T14:13:00Z</time>
</trkpt>
<trkpt lat="49.547058" lon="10.044155">
<ele>305.031</ele>
<time>2019-05-30T14:13:01Z</time>
</trkpt>
<trkpt lat="49.54702" lon="10.044098">
<ele>305.09</ele>
<time>2019-05-30T14:13:02Z</time>
</trkpt>
<trkpt lat="49.546986" lon="10.044042">
<ele>305.144</ele>
<time>2019-05-30T14:13:03Z</time>
</trkpt>
<trkpt lat="49.546951" lon="10.04399">
<ele>305.169</ele>
<time>2019-05-30T14:13:04Z</time>
</trkpt>
<trkpt lat="49.546913" lon="10.043945">
<ele>305.169</ele>
<time>2019-05-30T14:13:05Z</time>
</trkpt>
<trkpt lat="49.546871" lon="10.043903">
<ele>305.169</ele>
<time>2019-05-30T14:13:06Z</time>
</trkpt>
<trkpt lat="49.546841" lon="10.043853">
<ele>305.169</ele>
<time>2019-05-30T14:13:07Z</time>
</trkpt>
<trkpt lat="49.546803" lon="10.0438">
<ele>305.169</ele>
<time>2019-05-30T14:13:08Z</time>
</trkpt>
<trkpt lat="49.546764" lon="10.043755">
<ele>305.425</ele>
<time>2019-05-30T14:13:09Z</time>
</trkpt>
<trkpt lat="49.54673" lon="10.043712">
<ele>305.629</ele>
<time>2019-05-30T14:13:10Z</time>
</trkpt>
<trkpt lat="49.546692" lon="10.043671">
<ele>305.79</ele>
<time>2019-05-30T14:13:11Z</time>
</trkpt>
<trkpt lat="49.546654" lon="10.04363">
<ele>305.904</ele>
<time>2019-05-30T14:13:12Z</time>
</trkpt>
<trkpt lat="49.546604" lon="10.043587">
<ele>306.022</ele>
<time>2019-05-30T14:13:13Z</time>
</trkpt>
<trkpt lat="49.546566" lon="10.043549">
<ele>306.107</ele>
<time>2019-05-30T14:13:14Z</time>
</trkpt>
<trkpt lat="49.546516" lon="10.043513">
<ele>306.161</ele>
<time>2019-05-30T14:13:15Z</time>
</trkpt>
<trkpt lat="49.546471" lon="10.043475">
<ele>306.186</ele>
<time>2019-05-30T14:13:16Z</time>
</trkpt>
<trkpt lat="49.546432" lon="10.04344">
<ele>306.443</ele>
<time>2019-05-30T14:13:17Z</time>
</trkpt>
<trkpt lat="49.546383" lon="10.043406">
<ele>306.643</ele>
<time>2019-05-30T14:13:18Z</time>
</trkpt>
<trkpt lat="49.546341" lon="10.043366">
<ele>306.789</ele>
<time>2019-05-30T14:13:19Z</time>
</trkpt>
<trkpt lat="49.546295" lon="10.043335">
<ele>306.903</ele>
<time>2019-05-30T14:13:20Z</time>
</trkpt>
<trkpt lat="49.546242" lon="10.043302">
<ele>306.979</ele>
<time>2019-05-30T14:13:21Z</time>
</trkpt>
<trkpt lat="49.546196" lon="10.043259">
<ele>307.04</ele>
<time>2019-05-30T14:13:22Z</time>
</trkpt>
<trkpt lat="49.546146" lon="10.043217">
<ele>307.093</ele>
<time>2019-05-30T14:13:23Z</time>
</trkpt>
<trkpt lat="49.546104" lon="10.043179">
<ele>307.118</ele>
<time>2019-05-30T14:13:24Z</time>
</trkpt>
<trkpt lat="49.546051" lon="10.04315">
<ele>307.118</ele>
<time>2019-05-30T14:13:25Z</time>
</trkpt>
<trkpt lat="49.546001" lon="10.043123">
<ele>307.118</ele>
<time>2019-05-30T14:13:26Z</time>
</trkpt>
<trkpt lat="49.545948" lon="10.04311">
<ele>307.118</ele>
<time>2019-05-30T14:13:27Z</time>
</trkpt>
<trkpt lat="49.545898" lon="10.043098">
<ele>307.118</ele>
<time>2019-05-30T14:13:28Z</time>
</trkpt>
<trkpt lat="49.545849" lon="10.043082">
<ele>307.353</ele>
<time>2019-05-30T14:13:29Z</time>
</trkpt>
<trkpt lat="49.545803" lon="10.043058">
<ele>307.54</ele>
<time>2019-05-30T14:13:30Z</time>
</trkpt>
<trkpt lat="49.545753" lon="10.043034">
<ele>307.686</ele>
<time>2019-05-30T14:13:31Z</time>
</trkpt>
<trkpt lat="49.545708" lon="10.043007">
<ele>307.789</ele>
<time>2019-05-30T14:13:32Z</time>
</trkpt>
<trkpt lat="49.545654" lon="10.042982">
<ele>307.895</ele>
<time>2019-05-30T14:13:33Z</time>
</trkpt>
<trkpt lat="49.545609" lon="10.042952">
<ele>307.974</ele>
<time>2019-05-30T14:13:34Z</time>
</trkpt>
<trkpt lat="49.545559" lon="10.042923">
<ele>308.026</ele>
<time>2019-05-30T14:13:35Z</time>
</trkpt>
<trkpt lat="49.545509" lon="10.042895">
<ele>308.051</ele>
<time>2019-05-30T14:13:36Z</time>
</trkpt>
<trkpt lat="49.545464" lon="10.042865">
<ele>308.051</ele>
<time>2019-05-30T14:13:37Z</time>
</trkpt>
<trkpt lat="49.545422" lon="10.042845">
<ele>308.051</ele>
<time>2019-05-30T14:13:38Z</time>
</trkpt>
<trkpt lat="49.545383" lon="10.04282">
<ele>308.051</ele>
<time>2019-05-30T14:13:39Z</time>
</trkpt>
<trkpt lat="49.545345" lon="10.042804">
<ele>308.051</ele>
<time>2019-05-30T14:13:40Z</time>
</trkpt>
<trkpt lat="49.545315" lon="10.042783">
<ele>308.051</ele>
<time>2019-05-30T14:13:41Z</time>
</trkpt>
<trkpt lat="49.545273" lon="10.042768">
<ele>308.051</ele>
<time>2019-05-30T14:13:42Z</time>
</trkpt>
<trkpt lat="49.545235" lon="10.042749">
<ele>308.051</ele>
<time>2019-05-30T14:13:43Z</time>
</trkpt>
<trkpt lat="49.545181" lon="10.042737">
<ele>308.32</ele>
<time>2019-05-30T14:13:44Z</time>
</trkpt>
<trkpt lat="49.545135" lon="10.042706">
<ele>308.539</ele>
<time>2019-05-30T14:13:45Z</time>
</trkpt>
<trkpt lat="49.545082" lon="10.042675">
<ele>308.714</ele>
<time>2019-05-30T14:13:46Z</time>
</trkpt>
<trkpt lat="49.545029" lon="10.042653">
<ele>308.839</ele>
<time>2019-05-30T14:13:47Z</time>
</trkpt>
<trkpt lat="49.544983" lon="10.042628">
<ele>308.922</ele>
<time>2019-05-30T14:13:48Z</time>
</trkpt>
<trkpt lat="49.544941" lon="10.04259">
<ele>308.966</ele>
<time>2019-05-30T14:13:49Z</time>
</trkpt>
<trkpt lat="49.544899" lon="10.042568">
<ele>308.984</ele>
<time>2019-05-30T14:13:50Z</time>
</trkpt>
<trkpt lat="49.544849" lon="10.042546">
<ele>308.984</ele>
<time>2019-05-30T14:13:51Z</time>
</trkpt>
<trkpt lat="49.544804" lon="10.042521">
<ele>308.984</ele>
<time>2019-05-30T14:13:52Z</time>
</trkpt>
<trkpt lat="49.544754" lon="10.04249">
<ele>308.984</ele>
<time>2019-05-30T14:13:53Z</time>
</trkpt>
<trkpt lat="49.544708" lon="10.042463">
<ele>308.984</ele>
<time>2019-05-30T14:13:54Z</time>
</trkpt>
<trkpt lat="49.544655" lon="10.042432">
<ele>308.984</ele>
<time>2019-05-30T14:13:55Z</time>
</trkpt>
<trkpt lat="49.544609" lon="10.042389">
<ele>308.984</ele>
<time>2019-05-30T14:13:56Z</time>
</trkpt>
<trkpt lat="49.544552" lon="10.042372">
<ele>308.984</ele>
<time>2019-05-30T14:13:57Z</time>
</trkpt>
<trkpt lat="49.544498" lon="10.042358">
<ele>308.984</ele>
<time>2019-05-30T14:13:58Z</time>
</trkpt>
<trkpt lat="49.544441" lon="10.042335">
<ele>308.984</ele>
<time>2019-05-30T14:13:59Z</time>
</trkpt>
<trkpt lat="49.544388" lon="10.042312">
<ele>308.984</ele>
<time>2019-05-30T14:14:00Z</time>
</trkpt>
<trkpt lat="49.544334" lon="10.042285">
<ele>308.984</ele>
<time>2019-05-30T14:14:01Z</time>
</trkpt>
<trkpt lat="49.544285" lon="10.042258">
<ele>308.984</ele>
<time>2019-05-30T14:14:02Z</time>
</trkpt>
<trkpt lat="49.544228" lon="10.042235">
<ele>308.984</ele>
<time>2019-05-30T14:14:03Z</time>
</trkpt>
<trkpt lat="49.544178" lon="10.042211">
<ele>308.984</ele>
<time>2019-05-30T14:14:04Z</time>
</trkpt>
<trkpt lat="49.544125" lon="10.042183">
<ele>308.984</ele>
<time>2019-05-30T14:14:05Z</time>
</trkpt>
<trkpt lat="49.544079" lon="10.04216">
<ele>308.984</ele>
<time>2019-05-30T14:14:06Z</time>
</trkpt>
<trkpt lat="49.544025" lon="10.042135">
<ele>308.984</ele>
<time>2019-05-30T14:14:07Z</time>
</trkpt>
<trkpt lat="49.543976" lon="10.042107">
<ele>308.984</ele>
<time>2019-05-30T14:14:08Z</time>
</trkpt>
<trkpt lat="49.543922" lon="10.042077">
<ele>308.984</ele>
<time>2019-05-30T14:14:09Z</time>
</trkpt>
<trkpt lat="49.543869" lon="10.042048">
<ele>308.984</ele>
<time>2019-05-30T14:14:10Z</time>
</trkpt>
<trkpt lat="49.543816" lon="10.042024">
<ele>308.984</ele>
<time>2019-05-30T14:14:11Z</time>
</trkpt>
<trkpt lat="49.543762" lon="10.041999">
<ele>308.984</ele>
<time>2019-05-30T14:14:12Z</time>
</trkpt>
<trkpt lat="49.543716" lon="10.041972">
<ele>308.984</ele>
<time>2019-05-30T14:14:13Z</time>
</trkpt>
<trkpt lat="49.543667" lon="10.041945">
<ele>308.984</ele>
<time>2019-05-30T14:14:14Z</time>
</trkpt>
<trkpt lat="49.543613" lon="10.041919">
<ele>308.984</ele>
<time>2019-05-30T14:14:15Z</time>
</trkpt>
<trkpt lat="49.543568" lon="10.041892">
<ele>308.984</ele>
<time>2019-05-30T14:14:16Z</time>
</trkpt>
<trkpt lat="49.54351" lon="10.041867">
<ele>308.984</ele>
<time>2019-05-30T14:14:17Z</time>
</trkpt>
<trkpt lat="49.543461" lon="10.041842">
<ele>308.984</ele>
<time>2019-05-30T14:14:18Z</time>
</trkpt>
<trkpt lat="49.543404" lon="10.041815">
<ele>308.984</ele>
<time>2019-05-30T14:14:19Z</time>
</trkpt>
<trkpt lat="49.543358" lon="10.04179">
<ele>308.984</ele>
<time>2019-05-30T14:14:20Z</time>
</trkpt>
<trkpt lat="49.543308" lon="10.041762">
<ele>308.984</ele>
<time>2019-05-30T14:14:21Z</time>
</trkpt>
<trkpt lat="49.543251" lon="10.041739">
<ele>308.984</ele>
<time>2019-05-30T14:14:22Z</time>
</trkpt>
<trkpt lat="49.543201" lon="10.041714">
<ele>308.984</ele>
<time>2019-05-30T14:14:23Z</time>
</trkpt>
<trkpt lat="49.543148" lon="10.041687">
<ele>308.984</ele>
<time>2019-05-30T14:14:24Z</time>
</trkpt>
<trkpt lat="49.543098" lon="10.041659">
<ele>308.984</ele>
<time>2019-05-30T14:14:25Z</time>
</trkpt>
<trkpt lat="49.543049" lon="10.041638">
<ele>308.984</ele>
<time>2019-05-30T14:14:26Z</time>
</trkpt>
<trkpt lat="49.543003" lon="10.041615">
<ele>308.984</ele>
<time>2019-05-30T14:14:27Z</time>
</trkpt>
<trkpt lat="49.542953" lon="10.041593">
<ele>308.984</ele>
<time>2019-05-30T14:14:28Z</time>
</trkpt>
<trkpt lat="49.542908" lon="10.041572">
<ele>308.984</ele>
<time>2019-05-30T14:14:29Z</time>
</trkpt>
<trkpt lat="49.542858" lon="10.041554">
<ele>308.984</ele>
<time>2019-05-30T14:14:30Z</time>
</trkpt>
<trkpt lat="49.542809" lon="10.041536">
<ele>308.984</ele>
<time>2019-05-30T14:14:31Z</time>
</trkpt>
<trkpt lat="49.542755" lon="10.041515">
<ele>308.984</ele>
<time>2019-05-30T14:14:32Z</time>
</trkpt>
<trkpt lat="49.542702" lon="10.041494">
<ele>308.984</ele>
<time>2019-05-30T14:14:33Z</time>
</trkpt>
<trkpt lat="49.542656" lon="10.041478">
<ele>308.984</ele>
<time>2019-05-30T14:14:34Z</time>
</trkpt>
<trkpt lat="49.542603" lon="10.041462">
<ele>308.984</ele>
<time>2019-05-30T14:14:35Z</time>
</trkpt>
<trkpt lat="49.542549" lon="10.041447">
<ele>308.984</ele>
<time>2019-05-30T14:14:36Z</time>
</trkpt>
<trkpt lat="49.542496" lon="10.04143">
<ele>308.984</ele>
<time>2019-05-30T14:14:37Z</time>
</trkpt>
<trkpt lat="49.54245" lon="10.041415">
<ele>308.984</ele>
<time>2019-05-30T14:14:38Z</time>
</trkpt>
<trkpt lat="49.542397" lon="10.041402">
<ele>308.984</ele>
<time>2019-05-30T14:14:39Z</time>
</trkpt>
<trkpt lat="49.542347" lon="10.041391">
<ele>309.235</ele>
<time>2019-05-30T14:14:40Z</time>
</trkpt>
<trkpt lat="49.542297" lon="10.041383">
<ele>309.436</ele>
<time>2019-05-30T14:14:41Z</time>
</trkpt>
<trkpt lat="49.542248" lon="10.041373">
<ele>309.575</ele>
<time>2019-05-30T14:14:42Z</time>
</trkpt>
<trkpt lat="49.542198" lon="10.04136">
<ele>309.723</ele>
<time>2019-05-30T14:14:43Z</time>
</trkpt>
<trkpt lat="49.542141" lon="10.041351">
<ele>309.838</ele>
<time>2019-05-30T14:14:44Z</time>
</trkpt>
<trkpt lat="49.542095" lon="10.041344">
<ele>309.922</ele>
<time>2019-05-30T14:14:45Z</time>
</trkpt>
<trkpt lat="49.542042" lon="10.041335">
<ele>309.976</ele>
<time>2019-05-30T14:14:46Z</time>
</trkpt>
<trkpt lat="49.541992" lon="10.041328">
<ele>310.001</ele>
<time>2019-05-30T14:14:47Z</time>
</trkpt>
<trkpt lat="49.541939" lon="10.041322">
<ele>310.001</ele>
<time>2019-05-30T14:14:48Z</time>
</trkpt>
<trkpt lat="49.541889" lon="10.041318">
<ele>310.001</ele>
<time>2019-05-30T14:14:49Z</time>
</trkpt>
<trkpt lat="49.54184" lon="10.041315">
<ele>310.001</ele>
<time>2019-05-30T14:14:50Z</time>
</trkpt>
<trkpt lat="49.541782" lon="10.041311">
<ele>310.001</ele>
<time>2019-05-30T14:14:51Z</time>
</trkpt>
<trkpt lat="49.541733" lon="10.041311">
<ele>310.001</ele>
<time>2019-05-30T14:14:52Z</time>
</trkpt>
<trkpt lat="49.541679" lon="10.04131">
<ele>310.001</ele>
<time>2019-05-30T14:14:53Z</time>
</trkpt>
<trkpt lat="49.541634" lon="10.041308">
<ele>310.001</ele>
<time>2019-05-30T14:14:54Z</time>
</trkpt>
<trkpt lat="49.54158" lon="10.041304">
<ele>310.001</ele>
<time>2019-05-30T14:14:55Z</time>
</trkpt>
<trkpt lat="49.541538" lon="10.041306">
<ele>310.001</ele>
<time>2019-05-30T14:14:56Z</time>
</trkpt>
<trkpt lat="49.541489" lon="10.041313">
<ele>310.001</ele>
<time>2019-05-30T14:14:57Z</time>
</trkpt>
<trkpt lat="49.541439" lon="10.04132">
<ele>310.001</ele>
<time>2019-05-30T14:14:58Z</time>
</trkpt>
<trkpt lat="49.541386" lon="10.041322">
<ele>310.001</ele>
<time>2019-05-30T14:14:59Z</time>
</trkpt>
<trkpt lat="49.541336" lon="10.041331">
<ele>310.001</ele>
<time>2019-05-30T14:15:00Z</time>
</trkpt>
<trkpt lat="49.541286" lon="10.041342">
<ele>310.001</ele>
<time>2019-05-30T14:15:01Z</time>
</trkpt>
<trkpt lat="49.541229" lon="10.041349">
<ele>310.001</ele>
<time>2019-05-30T14:15:02Z</time>
</trkpt>
<trkpt lat="49.541183" lon="10.041351">
<ele>310.001</ele>
<time>2019-05-30T14:15:03Z</time>
</trkpt>
<trkpt lat="49.54113" lon="10.041351">
<ele>310.001</ele>
<time>2019-05-30T14:15:04Z</time>
</trkpt>
<trkpt lat="49.541088" lon="10.041331">
<ele>310.001</ele>
<time>2019-05-30T14:15:05Z</time>
</trkpt>
<trkpt lat="49.541042" lon="10.041327">
<ele>310.001</ele>
<time>2019-05-30T14:15:06Z</time>
</trkpt>
<trkpt lat="49.540993" lon="10.041331">
<ele>310.001</ele>
<time>2019-05-30T14:15:07Z</time>
</trkpt>
<trkpt lat="49.540943" lon="10.041339">
<ele>310.001</ele>
<time>2019-05-30T14:15:08Z</time>
</trkpt>
<trkpt lat="49.540886" lon="10.041358">
<ele>310.243</ele>
<time>2019-05-30T14:15:09Z</time>
</trkpt>
<trkpt lat="49.540833" lon="10.041364">
<ele>310.432</ele>
<time>2019-05-30T14:15:10Z</time>
</trkpt>
<trkpt lat="49.540787" lon="10.041368">
<ele>310.583</ele>
<time>2019-05-30T14:15:11Z</time>
</trkpt>
<trkpt lat="49.540733" lon="10.041381">
<ele>310.682</ele>
<time>2019-05-30T14:15:12Z</time>
</trkpt>
<trkpt lat="49.540684" lon="10.041389">
<ele>310.791</ele>
<time>2019-05-30T14:15:13Z</time>
</trkpt>
<trkpt lat="49.540634" lon="10.041404">
<ele>310.864</ele>
<time>2019-05-30T14:15:14Z</time>
</trkpt>
<trkpt lat="49.540577" lon="10.041421">
<ele>310.911</ele>
<time>2019-05-30T14:15:15Z</time>
</trkpt>
<trkpt lat="49.540527" lon="10.04144">
<ele>310.934</ele>
<time>2019-05-30T14:15:16Z</time>
</trkpt>
<trkpt lat="49.54047" lon="10.041456">
<ele>310.934</ele>
<time>2019-05-30T14:15:17Z</time>
</trkpt>
<trkpt lat="49.540421" lon="10.041473">
<ele>310.934</ele>
<time>2019-05-30T14:15:18Z</time>
</trkpt>
<trkpt lat="49.540367" lon="10.041496">
<ele>310.934</ele>
<time>2019-05-30T14:15:19Z</time>
</trkpt>
<trkpt lat="49.540314" lon="10.041515">
<ele>310.934</ele>
<time>2019-05-30T14:15:20Z</time>
</trkpt>
<trkpt lat="49.54026" lon="10.041535">
<ele>310.934</ele>
<time>2019-05-30T14:15:21Z</time>
</trkpt>
<trkpt lat="49.540211" lon="10.041553">
<ele>310.934</ele>
<time>2019-05-30T14:15:22Z</time>
</trkpt>
<trkpt lat="49.540154" lon="10.041575">
<ele>310.934</ele>
<time>2019-05-30T14:15:23Z</time>
</trkpt>
<trkpt lat="49.540096" lon="10.041596">
<ele>310.934</ele>
<time>2019-05-30T14:15:24Z</time>
</trkpt>
<trkpt lat="49.540043" lon="10.041615">
<ele>310.934</ele>
<time>2019-05-30T14:15:25Z</time>
</trkpt>
<trkpt lat="49.539986" lon="10.041635">
<ele>310.934</ele>
<time>2019-05-30T14:15:26Z</time>
</trkpt>
<trkpt lat="49.539932" lon="10.041654">
<ele>310.934</ele>
<time>2019-05-30T14:15:27Z</time>
</trkpt>
<trkpt lat="49.539883" lon="10.041666">
<ele>310.934</ele>
<time>2019-05-30T14:15:28Z</time>
</trkpt>
<trkpt lat="49.539833" lon="10.041682">
<ele>310.934</ele>
<time>2019-05-30T14:15:29Z</time>
</trkpt>
<trkpt lat="49.53978" lon="10.041694">
<ele>310.934</ele>
<time>2019-05-30T14:15:30Z</time>
</trkpt>
<trkpt lat="49.539726" lon="10.041706">
<ele>310.934</ele>
<time>2019-05-30T14:15:31Z</time>
</trkpt>
<trkpt lat="49.539677" lon="10.041722">
<ele>310.934</ele>
<time>2019-05-30T14:15:32Z</time>
</trkpt>
<trkpt lat="49.539623" lon="10.041733">
<ele>310.934</ele>
<time>2019-05-30T14:15:33Z</time>
</trkpt>
<trkpt lat="49.539574" lon="10.041737">
<ele>310.934</ele>
<time>2019-05-30T14:15:34Z</time>
</trkpt>
<trkpt lat="49.539524" lon="10.041741">
<ele>310.934</ele>
<time>2019-05-30T14:15:35Z</time>
</trkpt>
<trkpt lat="49.539478" lon="10.041737">
<ele>310.934</ele>
<time>2019-05-30T14:15:36Z</time>
</trkpt>
<trkpt lat="49.539429" lon="10.041737">
<ele>310.934</ele>
<time>2019-05-30T14:15:37Z</time>
</trkpt>
<trkpt lat="49.539375" lon="10.041737">
<ele>310.934</ele>
<time>2019-05-30T14:15:38Z</time>
</trkpt>
<trkpt lat="49.53933" lon="10.041737">
<ele>310.934</ele>
<time>2019-05-30T14:15:39Z</time>
</trkpt>
<trkpt lat="49.539276" lon="10.041737">
<ele>310.934</ele>
<time>2019-05-30T14:15:40Z</time>
</trkpt>
<trkpt lat="49.539223" lon="10.041733">
<ele>310.934</ele>
<time>2019-05-30T14:15:41Z</time>
</trkpt>
<trkpt lat="49.539173" lon="10.04172">
<ele>310.934</ele>
<time>2019-05-30T14:15:42Z</time>
</trkpt>
<trkpt lat="49.53912" lon="10.041715">
<ele>310.934</ele>
<time>2019-05-30T14:15:43Z</time>
</trkpt>
<trkpt lat="49.53907" lon="10.041706">
<ele>310.934</ele>
<time>2019-05-30T14:15:44Z</time>
</trkpt>
<trkpt lat="49.539017" lon="10.04168">
<ele>310.934</ele>
<time>2019-05-30T14:15:45Z</time>
</trkpt>
<trkpt lat="49.538971" lon="10.041663">
<ele>310.934</ele>
<time>2019-05-30T14:15:46Z</time>
</trkpt>
<trkpt lat="49.538918" lon="10.041649">
<ele>310.934</ele>
<time>2019-05-30T14:15:47Z</time>
</trkpt>
<trkpt lat="49.538868" lon="10.041633">
<ele>310.934</ele>
<time>2019-05-30T14:15:48Z</time>
</trkpt>
<trkpt lat="49.538815" lon="10.041616">
<ele>310.934</ele>
<time>2019-05-30T14:15:49Z</time>
</trkpt>
<trkpt lat="49.538769" lon="10.041601">
<ele>310.934</ele>
<time>2019-05-30T14:15:50Z</time>
</trkpt>
<trkpt lat="49.538715" lon="10.041587">
<ele>310.934</ele>
<time>2019-05-30T14:15:51Z</time>
</trkpt>
<trkpt lat="49.53867" lon="10.041572">
<ele>310.934</ele>
<time>2019-05-30T14:15:52Z</time>
</trkpt>
<trkpt lat="49.538616" lon="10.041551">
<ele>310.934</ele>
<time>2019-05-30T14:15:53Z</time>
</trkpt>
<trkpt lat="49.53857" lon="10.041528">
<ele>310.934</ele>
<time>2019-05-30T14:15:54Z</time>
</trkpt>
<trkpt lat="49.538517" lon="10.041505">
<ele>310.934</ele>
<time>2019-05-30T14:15:55Z</time>
</trkpt>
<trkpt lat="49.538464" lon="10.041478">
<ele>310.934</ele>
<time>2019-05-30T14:15:56Z</time>
</trkpt>
<trkpt lat="49.538418" lon="10.041451">
<ele>310.934</ele>
<time>2019-05-30T14:15:57Z</time>
</trkpt>
<trkpt lat="49.538368" lon="10.041418">
<ele>310.934</ele>
<time>2019-05-30T14:15:58Z</time>
</trkpt>
<trkpt lat="49.538319" lon="10.041387">
<ele>310.934</ele>
<time>2019-05-30T14:15:59Z</time>
</trkpt>
<trkpt lat="49.538265" lon="10.041351">
<ele>310.934</ele>
<time>2019-05-30T14:16:00Z</time>
</trkpt>
<trkpt lat="49.538219" lon="10.041313">
<ele>310.934</ele>
<time>2019-05-30T14:16:01Z</time>
</trkpt>
<trkpt lat="49.538162" lon="10.041272">
<ele>310.934</ele>
<time>2019-05-30T14:16:02Z</time>
</trkpt>
<trkpt lat="49.538113" lon="10.041226">
<ele>310.934</ele>
<time>2019-05-30T14:16:03Z</time>
</trkpt>
<trkpt lat="49.538063" lon="10.04118">
<ele>310.934</ele>
<time>2019-05-30T14:16:04Z</time>
</trkpt>
<trkpt lat="49.538013" lon="10.041137">
<ele>310.934</ele>
<time>2019-05-30T14:16:05Z</time>
</trkpt>
<trkpt lat="49.53796" lon="10.041097">
<ele>310.934</ele>
<time>2019-05-30T14:16:06Z</time>
</trkpt>
<trkpt lat="49.53791" lon="10.041055">
<ele>311.166</ele>
<time>2019-05-30T14:16:07Z</time>
</trkpt>
<trkpt lat="49.537865" lon="10.041014">
<ele>311.344</ele>
<time>2019-05-30T14:16:08Z</time>
</trkpt>
<trkpt lat="49.537815" lon="10.040973">
<ele>311.482</ele>
<time>2019-05-30T14:16:09Z</time>
</trkpt>
<trkpt lat="49.537766" lon="10.040935">
<ele>311.58</ele>
<time>2019-05-30T14:16:10Z</time>
</trkpt>
<trkpt lat="49.53772" lon="10.040894">
<ele>311.654</ele>
<time>2019-05-30T14:16:11Z</time>
</trkpt>
<trkpt lat="49.537674" lon="10.040854">
<ele>311.71</ele>
<time>2019-05-30T14:16:12Z</time>
</trkpt>
<trkpt lat="49.537624" lon="10.040812">
<ele>311.758</ele>
<time>2019-05-30T14:16:13Z</time>
</trkpt>
<trkpt lat="49.537575" lon="10.04077">
<ele>311.782</ele>
<time>2019-05-30T14:16:14Z</time>
</trkpt>
<trkpt lat="49.537525" lon="10.04073">
<ele>311.782</ele>
<time>2019-05-30T14:16:15Z</time>
</trkpt>
<trkpt lat="49.537472" lon="10.040691">
<ele>311.783</ele>
<time>2019-05-30T14:16:16Z</time>
</trkpt>
<trkpt lat="49.537426" lon="10.040651">
<ele>311.782</ele>
<time>2019-05-30T14:16:17Z</time>
</trkpt>
<trkpt lat="49.537376" lon="10.040612">
<ele>311.783</ele>
<time>2019-05-30T14:16:18Z</time>
</trkpt>
<trkpt lat="49.537327" lon="10.04057">
<ele>311.782</ele>
<time>2019-05-30T14:16:19Z</time>
</trkpt>
<trkpt lat="49.537277" lon="10.040528">
<ele>311.783</ele>
<time>2019-05-30T14:16:20Z</time>
</trkpt>
<trkpt lat="49.537228" lon="10.040488">
<ele>311.783</ele>
<time>2019-05-30T14:16:21Z</time>
</trkpt>
<trkpt lat="49.537178" lon="10.040446">
<ele>311.783</ele>
<time>2019-05-30T14:16:22Z</time>
</trkpt>
<trkpt lat="49.537128" lon="10.040403">
<ele>312.051</ele>
<time>2019-05-30T14:16:23Z</time>
</trkpt>
<trkpt lat="49.537083" lon="10.040361">
<ele>312.276</ele>
<time>2019-05-30T14:16:24Z</time>
</trkpt>
<trkpt lat="49.537033" lon="10.040323">
<ele>312.46</ele>
<time>2019-05-30T14:16:25Z</time>
</trkpt>
<trkpt lat="49.536987" lon="10.04029">
<ele>312.608</ele>
<time>2019-05-30T14:16:26Z</time>
</trkpt>
<trkpt lat="49.536949" lon="10.040254">
<ele>312.72</ele>
<time>2019-05-30T14:16:27Z</time>
</trkpt>
<trkpt lat="49.536919" lon="10.040233">
<ele>312.803</ele>
<time>2019-05-30T14:16:28Z</time>
</trkpt>
<trkpt lat="49.536884" lon="10.040203">
<ele>312.858</ele>
<time>2019-05-30T14:16:29Z</time>
</trkpt>
<trkpt lat="49.536839" lon="10.040165">
<ele>312.885</ele>
<time>2019-05-30T14:16:30Z</time>
</trkpt>
<trkpt lat="49.536797" lon="10.040128">
<ele>312.885</ele>
<time>2019-05-30T14:16:31Z</time>
</trkpt>
<trkpt lat="49.536755" lon="10.040084">
<ele>312.885</ele>
<time>2019-05-30T14:16:32Z</time>
</trkpt>
<trkpt lat="49.536701" lon="10.040044">
<ele>312.885</ele>
<time>2019-05-30T14:16:33Z</time>
</trkpt>
<trkpt lat="49.536655" lon="10.040007">
<ele>312.885</ele>
<time>2019-05-30T14:16:34Z</time>
</trkpt>
<trkpt lat="49.536606" lon="10.039956">
<ele>312.885</ele>
<time>2019-05-30T14:16:35Z</time>
</trkpt>
<trkpt lat="49.536552" lon="10.03991">
<ele>312.885</ele>
<time>2019-05-30T14:16:36Z</time>
</trkpt>
<trkpt lat="49.536495" lon="10.039864">
<ele>312.885</ele>
<time>2019-05-30T14:16:37Z</time>
</trkpt>
<trkpt lat="49.536449" lon="10.039824">
<ele>312.885</ele>
<time>2019-05-30T14:16:38Z</time>
</trkpt>
<trkpt lat="49.536404" lon="10.039782">
<ele>312.885</ele>
<time>2019-05-30T14:16:39Z</time>
</trkpt>
<trkpt lat="49.536354" lon="10.039735">
<ele>312.885</ele>
<time>2019-05-30T14:16:40Z</time>
</trkpt>
<trkpt lat="49.536301" lon="10.039688">
<ele>312.885</ele>
<time>2019-05-30T14:16:41Z</time>
</trkpt>
<trkpt lat="49.536255" lon="10.039648">
<ele>312.885</ele>
<time>2019-05-30T14:16:42Z</time>
</trkpt>
<trkpt lat="49.536205" lon="10.03961">
<ele>312.885</ele>
<time>2019-05-30T14:16:43Z</time>
</trkpt>
<trkpt lat="49.536156" lon="10.039569">
<ele>312.885</ele>
<time>2019-05-30T14:16:44Z</time>
</trkpt>
<trkpt lat="49.536106" lon="10.039525">
<ele>313.154</ele>
<time>2019-05-30T14:16:45Z</time>
</trkpt>
<trkpt lat="49.536057" lon="10.039492">
<ele>313.367</ele>
<time>2019-05-30T14:16:46Z</time>
</trkpt>
<trkpt lat="49.536003" lon="10.039454">
<ele>313.523</ele>
<time>2019-05-30T14:16:47Z</time>
</trkpt>
<trkpt lat="49.535954" lon="10.0394">
<ele>313.637</ele>
<time>2019-05-30T14:16:48Z</time>
</trkpt>
<trkpt lat="49.5359" lon="10.039363">
<ele>313.718</ele>
<time>2019-05-30T14:16:49Z</time>
</trkpt>
<trkpt lat="49.535847" lon="10.039318">
<ele>313.771</ele>
<time>2019-05-30T14:16:50Z</time>
</trkpt>
<trkpt lat="49.535801" lon="10.039275">
<ele>313.797</ele>
<time>2019-05-30T14:16:51Z</time>
</trkpt>
<trkpt lat="49.535748" lon="10.039228">
<ele>313.818</ele>
<time>2019-05-30T14:16:52Z</time>
</trkpt>
<trkpt lat="49.535698" lon="10.039187">
<ele>313.818</ele>
<time>2019-05-30T14:16:53Z</time>
</trkpt>
<trkpt lat="49.535652" lon="10.03915">
<ele>313.818</ele>
<time>2019-05-30T14:16:54Z</time>
</trkpt>
<trkpt lat="49.535614" lon="10.039122">
<ele>313.818</ele>
<time>2019-05-30T14:16:55Z</time>
</trkpt>
<trkpt lat="49.535572" lon="10.039077">
<ele>313.818</ele>
<time>2019-05-30T14:16:56Z</time>
</trkpt>
<trkpt lat="49.535522" lon="10.039033">
<ele>313.818</ele>
<time>2019-05-30T14:16:57Z</time>
</trkpt>
<trkpt lat="49.53548" lon="10.038995">
<ele>313.818</ele>
<time>2019-05-30T14:16:58Z</time>
</trkpt>
<trkpt lat="49.535435" lon="10.038959">
<ele>313.818</ele>
<time>2019-05-30T14:16:59Z</time>
</trkpt>
<trkpt lat="49.535385" lon="10.038923">
<ele>313.818</ele>
<time>2019-05-30T14:17:00Z</time>
</trkpt>
<trkpt lat="49.535339" lon="10.03889">
<ele>313.818</ele>
<time>2019-05-30T14:17:01Z</time>
</trkpt>
<trkpt lat="49.535282" lon="10.038845">
<ele>313.818</ele>
<time>2019-05-30T14:17:02Z</time>
</trkpt>
<trkpt lat="49.535221" lon="10.038796">
<ele>313.818</ele>
<time>2019-05-30T14:17:03Z</time>
</trkpt>
<trkpt lat="49.535164" lon="10.03874">
<ele>313.818</ele>
<time>2019-05-30T14:17:04Z</time>
</trkpt>
<trkpt lat="49.53511" lon="10.038699">
<ele>313.818</ele>
<time>2019-05-30T14:17:05Z</time>
</trkpt>
<trkpt lat="49.535061" lon="10.038662">
<ele>313.818</ele>
<time>2019-05-30T14:17:06Z</time>
</trkpt>
<trkpt lat="49.535007" lon="10.038618">
<ele>313.818</ele>
<time>2019-05-30T14:17:07Z</time>
</trkpt>
<trkpt lat="49.534954" lon="10.038573">
<ele>313.818</ele>
<time>2019-05-30T14:17:08Z</time>
</trkpt>
<trkpt lat="49.534897" lon="10.038524">
<ele>313.818</ele>
<time>2019-05-30T14:17:09Z</time>
</trkpt>
<trkpt lat="49.53484" lon="10.038482">
<ele>313.818</ele>
<time>2019-05-30T14:17:10Z</time>
</trkpt>
<trkpt lat="49.534782" lon="10.038431">
<ele>313.818</ele>
<time>2019-05-30T14:17:11Z</time>
</trkpt>
<trkpt lat="49.534729" lon="10.038379">
<ele>313.818</ele>
<time>2019-05-30T14:17:12Z</time>
</trkpt>
<trkpt lat="49.534668" lon="10.03833">
<ele>313.818</ele>
<time>2019-05-30T14:17:13Z</time>
</trkpt>
<trkpt lat="49.534611" lon="10.038288">
<ele>313.818</ele>
<time>2019-05-30T14:17:14Z</time>
</trkpt>
<trkpt lat="49.534557" lon="10.03825">
<ele>313.818</ele>
<time>2019-05-30T14:17:15Z</time>
</trkpt>
<trkpt lat="49.534508" lon="10.038219">
<ele>313.584</ele>
<time>2019-05-30T14:17:16Z</time>
</trkpt>
<trkpt lat="49.534454" lon="10.038178">
<ele>313.402</ele>
<time>2019-05-30T14:17:17Z</time>
</trkpt>
<trkpt lat="49.534405" lon="10.038132">
<ele>313.261</ele>
<time>2019-05-30T14:17:18Z</time>
</trkpt>
<trkpt lat="49.534344" lon="10.038083">
<ele>313.156</ele>
<time>2019-05-30T14:17:19Z</time>
</trkpt>
<trkpt lat="49.53429" lon="10.038037">
<ele>313.081</ele>
<time>2019-05-30T14:17:20Z</time>
</trkpt>
<trkpt lat="49.534241" lon="10.037982">
<ele>313.033</ele>
<time>2019-05-30T14:17:21Z</time>
</trkpt>
<trkpt lat="49.53418" lon="10.037925">
<ele>312.994</ele>
<time>2019-05-30T14:17:22Z</time>
</trkpt>
<trkpt lat="49.534122" lon="10.037869">
<ele>312.97</ele>
<time>2019-05-30T14:17:23Z</time>
</trkpt>
<trkpt lat="49.534069" lon="10.03782">
<ele>312.97</ele>
<time>2019-05-30T14:17:24Z</time>
</trkpt>
<trkpt lat="49.534016" lon="10.037773">
<ele>312.97</ele>
<time>2019-05-30T14:17:25Z</time>
</trkpt>
<trkpt lat="49.533966" lon="10.037728">
<ele>312.97</ele>
<time>2019-05-30T14:17:26Z</time>
</trkpt>
<trkpt lat="49.533916" lon="10.037682">
<ele>312.97</ele>
<time>2019-05-30T14:17:27Z</time>
</trkpt>
<trkpt lat="49.533859" lon="10.03764">
<ele>312.97</ele>
<time>2019-05-30T14:17:28Z</time>
</trkpt>
<trkpt lat="49.533806" lon="10.037605">
<ele>312.97</ele>
<time>2019-05-30T14:17:29Z</time>
</trkpt>
<trkpt lat="49.533756" lon="10.037563">
<ele>312.97</ele>
<time>2019-05-30T14:17:30Z</time>
</trkpt>
<trkpt lat="49.533699" lon="10.037516">
<ele>312.97</ele>
<time>2019-05-30T14:17:31Z</time>
</trkpt>
<trkpt lat="49.533649" lon="10.037467">
<ele>312.97</ele>
<time>2019-05-30T14:17:32Z</time>
</trkpt>
<trkpt lat="49.533604" lon="10.037416">
<ele>312.97</ele>
<time>2019-05-30T14:17:33Z</time>
</trkpt>
<trkpt lat="49.533554" lon="10.037374">
<ele>312.97</ele>
<time>2019-05-30T14:17:34Z</time>
</trkpt>
<trkpt lat="49.533497" lon="10.03733">
<ele>312.97</ele>
<time>2019-05-30T14:17:35Z</time>
</trkpt>
<trkpt lat="49.533447" lon="10.037287">
<ele>312.97</ele>
<time>2019-05-30T14:17:36Z</time>
</trkpt>
<trkpt lat="49.533398" lon="10.037239">
<ele>312.97</ele>
<time>2019-05-30T14:17:37Z</time>
</trkpt>
<trkpt lat="49.533348" lon="10.037189">
<ele>312.97</ele>
<time>2019-05-30T14:17:38Z</time>
</trkpt>
<trkpt lat="49.533295" lon="10.037142">
<ele>312.97</ele>
<time>2019-05-30T14:17:39Z</time>
</trkpt>
<trkpt lat="49.533245" lon="10.037093">
<ele>312.97</ele>
<time>2019-05-30T14:17:40Z</time>
</trkpt>
<trkpt lat="49.533195" lon="10.037046">
<ele>312.97</ele>
<time>2019-05-30T14:17:41Z</time>
</trkpt>
<trkpt lat="49.533142" lon="10.037">
<ele>312.97</ele>
<time>2019-05-30T14:17:42Z</time>
</trkpt>
<trkpt lat="49.533092" lon="10.036954">
<ele>313.176</ele>
<time>2019-05-30T14:17:43Z</time>
</trkpt>
<trkpt lat="49.533043" lon="10.036903">
<ele>313.348</ele>
<time>2019-05-30T14:17:44Z</time>
</trkpt>
<trkpt lat="49.532997" lon="10.036852">
<ele>313.49</ele>
<time>2019-05-30T14:17:45Z</time>
</trkpt>
<trkpt lat="49.532948" lon="10.036798">
<ele>313.605</ele>
<time>2019-05-30T14:17:46Z</time>
</trkpt>
<trkpt lat="49.532902" lon="10.036747">
<ele>313.693</ele>
<time>2019-05-30T14:17:47Z</time>
</trkpt>
<trkpt lat="49.53286" lon="10.036692">
<ele>313.757</ele>
<time>2019-05-30T14:17:48Z</time>
</trkpt>
<trkpt lat="49.53281" lon="10.036633">
<ele>313.798</ele>
<time>2019-05-30T14:17:49Z</time>
</trkpt>
<trkpt lat="49.532772" lon="10.036575">
<ele>313.818</ele>
<time>2019-05-30T14:17:50Z</time>
</trkpt>
<trkpt lat="49.532734" lon="10.036513">
<ele>313.818</ele>
<time>2019-05-30T14:17:51Z</time>
</trkpt>
<trkpt lat="49.532692" lon="10.036451">
<ele>313.818</ele>
<time>2019-05-30T14:17:52Z</time>
</trkpt>
<trkpt lat="49.532654" lon="10.03639">
<ele>313.818</ele>
<time>2019-05-30T14:17:53Z</time>
</trkpt>
<trkpt lat="49.532616" lon="10.036325">
<ele>313.818</ele>
<time>2019-05-30T14:17:54Z</time>
</trkpt>
<trkpt lat="49.532578" lon="10.036259">
<ele>313.818</ele>
<time>2019-05-30T14:17:55Z</time>
</trkpt>
<trkpt lat="49.532543" lon="10.036192">
<ele>313.818</ele>
<time>2019-05-30T14:17:56Z</time>
</trkpt>
<trkpt lat="49.532513" lon="10.036132">
<ele>313.818</ele>
<time>2019-05-30T14:17:57Z</time>
</trkpt>
<trkpt lat="49.532482" lon="10.036066">
<ele>314.06</ele>
<time>2019-05-30T14:17:58Z</time>
</trkpt>
<trkpt lat="49.532452" lon="10.036">
<ele>314.251</ele>
<time>2019-05-30T14:17:59Z</time>
</trkpt>
<trkpt lat="49.532421" lon="10.035935">
<ele>314.399</ele>
<time>2019-05-30T14:18:00Z</time>
</trkpt>
<trkpt lat="49.532387" lon="10.035863">
<ele>314.51</ele>
<time>2019-05-30T14:18:01Z</time>
</trkpt>
<trkpt lat="49.532364" lon="10.0358">
<ele>314.589</ele>
<time>2019-05-30T14:18:02Z</time>
</trkpt>
<trkpt lat="49.532345" lon="10.035737">
<ele>314.671</ele>
<time>2019-05-30T14:18:03Z</time>
</trkpt>
<trkpt lat="49.532326" lon="10.03567">
<ele>314.725</ele>
<time>2019-05-30T14:18:04Z</time>
</trkpt>
<trkpt lat="49.53231" lon="10.035594">
<ele>314.751</ele>
<time>2019-05-30T14:18:05Z</time>
</trkpt>
<trkpt lat="49.532291" lon="10.035513">
<ele>314.751</ele>
<time>2019-05-30T14:18:06Z</time>
</trkpt>
<trkpt lat="49.53228" lon="10.035447">
<ele>314.751</ele>
<time>2019-05-30T14:18:07Z</time>
</trkpt>
<trkpt lat="49.532269" lon="10.035398">
<ele>314.751</ele>
<time>2019-05-30T14:18:08Z</time>
</trkpt>
<trkpt lat="49.532265" lon="10.035345">
<ele>314.751</ele>
<time>2019-05-30T14:18:09Z</time>
</trkpt>
<trkpt lat="49.532257" lon="10.035282">
<ele>314.751</ele>
<time>2019-05-30T14:18:10Z</time>
</trkpt>
<trkpt lat="49.532249" lon="10.035217">
<ele>314.751</ele>
<time>2019-05-30T14:18:11Z</time>
</trkpt>
<trkpt lat="49.532238" lon="10.035149">
<ele>314.751</ele>
<time>2019-05-30T14:18:12Z</time>
</trkpt>
<trkpt lat="49.532227" lon="10.035093">
<ele>314.751</ele>
<time>2019-05-30T14:18:13Z</time>
</trkpt>
<trkpt lat="49.532219" lon="10.03504">
<ele>314.751</ele>
<time>2019-05-30T14:18:14Z</time>
</trkpt>
<trkpt lat="49.5322" lon="10.03499">
<ele>314.751</ele>
<time>2019-05-30T14:18:15Z</time>
</trkpt>
<trkpt lat="49.532192" lon="10.034946">
<ele>314.751</ele>
<time>2019-05-30T14:18:16Z</time>
</trkpt>
<trkpt lat="49.532169" lon="10.034895">
<ele>314.751</ele>
<time>2019-05-30T14:18:17Z</time>
</trkpt>
<trkpt lat="49.532158" lon="10.034846">
<ele>314.751</ele>
<time>2019-05-30T14:18:18Z</time>
</trkpt>
<trkpt lat="49.532131" lon="10.034783">
<ele>314.751</ele>
<time>2019-05-30T14:18:19Z</time>
</trkpt>
<trkpt lat="49.532112" lon="10.034725">
<ele>314.751</ele>
<time>2019-05-30T14:18:20Z</time>
</trkpt>
<trkpt lat="49.532089" lon="10.034614">
<ele>314.751</ele>
<time>2019-05-30T14:18:21Z</time>
</trkpt>
<trkpt lat="49.532059" lon="10.034525">
<ele>314.751</ele>
<time>2019-05-30T14:18:22Z</time>
</trkpt>
<trkpt lat="49.53204" lon="10.034442">
<ele>314.751</ele>
<time>2019-05-30T14:18:23Z</time>
</trkpt>
<trkpt lat="49.532021" lon="10.034328">
<ele>314.751</ele>
<time>2019-05-30T14:18:24Z</time>
</trkpt>
<trkpt lat="49.531998" lon="10.034228">
<ele>314.751</ele>
<time>2019-05-30T14:18:25Z</time>
</trkpt>
<trkpt lat="49.531971" lon="10.034134">
<ele>314.751</ele>
<time>2019-05-30T14:18:26Z</time>
</trkpt>
<trkpt lat="49.531944" lon="10.034038">
<ele>314.751</ele>
<time>2019-05-30T14:18:27Z</time>
</trkpt>
<trkpt lat="49.531914" lon="10.033954">
<ele>314.751</ele>
<time>2019-05-30T14:18:28Z</time>
</trkpt>
<trkpt lat="49.531891" lon="10.033836">
<ele>314.751</ele>
<time>2019-05-30T14:18:29Z</time>
</trkpt>
<trkpt lat="49.531864" lon="10.033735">
<ele>314.751</ele>
<time>2019-05-30T14:18:30Z</time>
</trkpt>
<trkpt lat="49.531834" lon="10.03365">
<ele>314.751</ele>
<time>2019-05-30T14:18:31Z</time>
</trkpt>
<trkpt lat="49.531799" lon="10.033558">
<ele>314.751</ele>
<time>2019-05-30T14:18:32Z</time>
</trkpt>
<trkpt lat="49.531765" lon="10.033468">
<ele>314.441</ele>
<time>2019-05-30T14:18:33Z</time>
</trkpt>
<trkpt lat="49.531731" lon="10.033381">
<ele>314.182</ele>
<time>2019-05-30T14:18:34Z</time>
</trkpt>
<trkpt lat="49.531693" lon="10.033297">
<ele>313.97</ele>
<time>2019-05-30T14:18:35Z</time>
</trkpt>
<trkpt lat="49.531658" lon="10.033212">
<ele>313.801</ele>
<time>2019-05-30T14:18:36Z</time>
</trkpt>
<trkpt lat="49.53162" lon="10.033131">
<ele>313.676</ele>
<time>2019-05-30T14:18:37Z</time>
</trkpt>
<trkpt lat="49.531586" lon="10.033053">
<ele>313.571</ele>
<time>2019-05-30T14:18:38Z</time>
</trkpt>
<trkpt lat="49.531548" lon="10.032978">
<ele>313.507</ele>
<time>2019-05-30T14:18:39Z</time>
</trkpt>
<trkpt lat="49.531509" lon="10.032898">
<ele>313.479</ele>
<time>2019-05-30T14:18:40Z</time>
</trkpt>
<trkpt lat="49.531475" lon="10.032823">
<ele>313.479</ele>
<time>2019-05-30T14:18:41Z</time>
</trkpt>
<trkpt lat="49.531437" lon="10.032753">
<ele>313.479</ele>
<time>2019-05-30T14:18:42Z</time>
</trkpt>
<trkpt lat="49.531399" lon="10.032684">
<ele>313.479</ele>
<time>2019-05-30T14:18:43Z</time>
</trkpt>
<trkpt lat="49.531357" lon="10.032617">
<ele>313.479</ele>
<time>2019-05-30T14:18:44Z</time>
</trkpt>
<trkpt lat="49.531315" lon="10.03255">
<ele>313.479</ele>
<time>2019-05-30T14:18:45Z</time>
</trkpt>
<trkpt lat="49.531277" lon="10.032489">
<ele>313.221</ele>
<time>2019-05-30T14:18:46Z</time>
</trkpt>
<trkpt lat="49.531239" lon="10.032431">
<ele>313.02</ele>
<time>2019-05-30T14:18:47Z</time>
</trkpt>
<trkpt lat="49.5312" lon="10.032373">
<ele>312.867</ele>
<time>2019-05-30T14:18:48Z</time>
</trkpt>
<trkpt lat="49.531162" lon="10.03232">
<ele>312.75</ele>
<time>2019-05-30T14:18:49Z</time>
</trkpt>
<trkpt lat="49.531124" lon="10.032271">
<ele>312.669</ele>
<time>2019-05-30T14:18:50Z</time>
</trkpt>
<trkpt lat="49.53109" lon="10.032224">
<ele>312.616</ele>
<time>2019-05-30T14:18:51Z</time>
</trkpt>
<trkpt lat="49.531052" lon="10.032179">
<ele>312.574</ele>
<time>2019-05-30T14:18:52Z</time>
</trkpt>
<trkpt lat="49.531017" lon="10.032137">
<ele>312.546</ele>
<time>2019-05-30T14:18:53Z</time>
</trkpt>
<trkpt lat="49.530983" lon="10.032097">
<ele>312.546</ele>
<time>2019-05-30T14:18:54Z</time>
</trkpt>
<trkpt lat="49.530941" lon="10.032053">
<ele>312.546</ele>
<time>2019-05-30T14:18:55Z</time>
</trkpt>
<trkpt lat="49.530899" lon="10.032014">
<ele>312.546</ele>
<time>2019-05-30T14:18:56Z</time>
</trkpt>
<trkpt lat="49.530853" lon="10.031977">
<ele>312.546</ele>
<time>2019-05-30T14:18:57Z</time>
</trkpt>
<trkpt lat="49.530811" lon="10.031942">
<ele>312.546</ele>
<time>2019-05-30T14:18:58Z</time>
</trkpt>
<trkpt lat="49.530766" lon="10.031901">
<ele>312.302</ele>
<time>2019-05-30T14:18:59Z</time>
</trkpt>
<trkpt lat="49.530724" lon="10.031861">
<ele>312.109</ele>
<time>2019-05-30T14:19:00Z</time>
</trkpt>
<trkpt lat="49.530682" lon="10.031823">
<ele>311.962</ele>
<time>2019-05-30T14:19:01Z</time>
</trkpt>
<trkpt lat="49.53064" lon="10.031788">
<ele>311.866</ele>
<time>2019-05-30T14:19:02Z</time>
</trkpt>
<trkpt lat="49.530594" lon="10.031754">
<ele>311.765</ele>
<time>2019-05-30T14:19:03Z</time>
</trkpt>
<trkpt lat="49.530556" lon="10.031725">
<ele>311.687</ele>
<time>2019-05-30T14:19:04Z</time>
</trkpt>
<trkpt lat="49.53051" lon="10.031693">
<ele>311.637</ele>
<time>2019-05-30T14:19:05Z</time>
</trkpt>
<trkpt lat="49.530468" lon="10.031664">
<ele>311.613</ele>
<time>2019-05-30T14:19:06Z</time>
</trkpt>
<trkpt lat="49.530422" lon="10.031632">
<ele>311.613</ele>
<time>2019-05-30T14:19:07Z</time>
</trkpt>
<trkpt lat="49.530373" lon="10.031601">
<ele>311.613</ele>
<time>2019-05-30T14:19:08Z</time>
</trkpt>
<trkpt lat="49.530327" lon="10.031573">
<ele>311.371</ele>
<time>2019-05-30T14:19:09Z</time>
</trkpt>
<trkpt lat="49.530277" lon="10.031547">
<ele>311.178</ele>
<time>2019-05-30T14:19:10Z</time>
</trkpt>
<trkpt lat="49.530224" lon="10.03152">
<ele>311.03</ele>
<time>2019-05-30T14:19:11Z</time>
</trkpt>
<trkpt lat="49.53017" lon="10.031494">
<ele>310.93</ele>
<time>2019-05-30T14:19:12Z</time>
</trkpt>
<trkpt lat="49.530113" lon="10.031466">
<ele>310.824</ele>
<time>2019-05-30T14:19:13Z</time>
</trkpt>
<trkpt lat="49.53006" lon="10.031446">
<ele>310.748</ele>
<time>2019-05-30T14:19:14Z</time>
</trkpt>
<trkpt lat="49.530006" lon="10.031431">
<ele>310.703</ele>
<time>2019-05-30T14:19:15Z</time>
</trkpt>
<trkpt lat="49.529953" lon="10.031415">
<ele>310.68</ele>
<time>2019-05-30T14:19:16Z</time>
</trkpt>
<trkpt lat="49.5299" lon="10.031391">
<ele>310.68</ele>
<time>2019-05-30T14:19:17Z</time>
</trkpt>
<trkpt lat="49.529842" lon="10.03137">
<ele>310.68</ele>
<time>2019-05-30T14:19:18Z</time>
</trkpt>
<trkpt lat="49.529789" lon="10.031356">
<ele>310.68</ele>
<time>2019-05-30T14:19:19Z</time>
</trkpt>
<trkpt lat="49.529732" lon="10.031345">
<ele>310.447</ele>
<time>2019-05-30T14:19:20Z</time>
</trkpt>
<trkpt lat="49.529675" lon="10.031333">
<ele>310.261</ele>
<time>2019-05-30T14:19:21Z</time>
</trkpt>
<trkpt lat="49.529617" lon="10.031331">
<ele>310.133</ele>
<time>2019-05-30T14:19:22Z</time>
</trkpt>
<trkpt lat="49.52956" lon="10.03133">
<ele>309.994</ele>
<time>2019-05-30T14:19:23Z</time>
</trkpt>
<trkpt lat="49.529507" lon="10.031324">
<ele>309.89</ele>
<time>2019-05-30T14:19:24Z</time>
</trkpt>
<trkpt lat="49.529453" lon="10.031322">
<ele>309.818</ele>
<time>2019-05-30T14:19:25Z</time>
</trkpt>
<trkpt lat="49.529392" lon="10.031319">
<ele>309.77</ele>
<time>2019-05-30T14:19:26Z</time>
</trkpt>
<trkpt lat="49.529331" lon="10.031319">
<ele>309.747</ele>
<time>2019-05-30T14:19:27Z</time>
</trkpt>
<trkpt lat="49.52927" lon="10.031317">
<ele>309.747</ele>
<time>2019-05-30T14:19:28Z</time>
</trkpt>
<trkpt lat="49.529209" lon="10.031317">
<ele>309.747</ele>
<time>2019-05-30T14:19:29Z</time>
</trkpt>
<trkpt lat="49.529148" lon="10.031312">
<ele>309.747</ele>
<time>2019-05-30T14:19:30Z</time>
</trkpt>
<trkpt lat="49.529087" lon="10.031308">
<ele>309.747</ele>
<time>2019-05-30T14:19:31Z</time>
</trkpt>
<trkpt lat="49.529018" lon="10.03131">
<ele>309.747</ele>
<time>2019-05-30T14:19:32Z</time>
</trkpt>
<trkpt lat="49.52895" lon="10.031315">
<ele>309.747</ele>
<time>2019-05-30T14:19:33Z</time>
</trkpt>
<trkpt lat="49.528877" lon="10.031314">
<ele>309.431</ele>
<time>2019-05-30T14:19:34Z</time>
</trkpt>
<trkpt lat="49.528812" lon="10.031314">
<ele>309.196</ele>
<time>2019-05-30T14:19:35Z</time>
</trkpt>
<trkpt lat="49.528751" lon="10.031308">
<ele>309.019</ele>
<time>2019-05-30T14:19:36Z</time>
</trkpt>
<trkpt lat="49.52869" lon="10.031303">
<ele>308.896</ele>
<time>2019-05-30T14:19:37Z</time>
</trkpt>
<trkpt lat="49.528629" lon="10.031301">
<ele>308.807</ele>
<time>2019-05-30T14:19:38Z</time>
</trkpt>
<trkpt lat="49.528568" lon="10.031295">
<ele>308.753</ele>
<time>2019-05-30T14:19:39Z</time>
</trkpt>
<trkpt lat="49.528507" lon="10.031288">
<ele>308.729</ele>
<time>2019-05-30T14:19:40Z</time>
</trkpt>
<trkpt lat="49.52845" lon="10.031282">
<ele>308.729</ele>
<time>2019-05-30T14:19:41Z</time>
</trkpt>
<trkpt lat="49.528389" lon="10.031274">
<ele>308.729</ele>
<time>2019-05-30T14:19:42Z</time>
</trkpt>
<trkpt lat="49.528328" lon="10.031266">
<ele>308.729</ele>
<time>2019-05-30T14:19:43Z</time>
</trkpt>
<trkpt lat="49.528263" lon="10.03126">
<ele>308.451</ele>
<time>2019-05-30T14:19:44Z</time>
</trkpt>
<trkpt lat="49.528202" lon="10.031257">
<ele>308.234</ele>
<time>2019-05-30T14:19:45Z</time>
</trkpt>
<trkpt lat="49.528141" lon="10.031258">
<ele>308.072</ele>
<time>2019-05-30T14:19:46Z</time>
</trkpt>
<trkpt lat="49.52808" lon="10.031258">
<ele>307.955</ele>
<time>2019-05-30T14:19:47Z</time>
</trkpt>
<trkpt lat="49.528019" lon="10.03125">
<ele>307.871</ele>
<time>2019-05-30T14:19:48Z</time>
</trkpt>
<trkpt lat="49.527954" lon="10.031252">
<ele>307.822</ele>
<time>2019-05-30T14:19:49Z</time>
</trkpt>
<trkpt lat="49.527885" lon="10.031255">
<ele>307.8</ele>
<time>2019-05-30T14:19:50Z</time>
</trkpt>
<trkpt lat="49.527828" lon="10.031258">
<ele>307.797</ele>
<time>2019-05-30T14:19:51Z</time>
</trkpt>
<trkpt lat="49.527767" lon="10.031268">
<ele>307.797</ele>
<time>2019-05-30T14:19:52Z</time>
</trkpt>
<trkpt lat="49.527706" lon="10.031286">
<ele>307.797</ele>
<time>2019-05-30T14:19:53Z</time>
</trkpt>
<trkpt lat="49.527649" lon="10.031306">
<ele>307.797</ele>
<time>2019-05-30T14:19:54Z</time>
</trkpt>
<trkpt lat="49.527592" lon="10.031319">
<ele>307.797</ele>
<time>2019-05-30T14:19:55Z</time>
</trkpt>
<trkpt lat="49.527534" lon="10.03133">
<ele>307.517</ele>
<time>2019-05-30T14:19:56Z</time>
</trkpt>
<trkpt lat="49.527481" lon="10.03133">
<ele>307.297</ele>
<time>2019-05-30T14:19:57Z</time>
</trkpt>
<trkpt lat="49.527412" lon="10.031342">
<ele>307.128</ele>
<time>2019-05-30T14:19:58Z</time>
</trkpt>
<trkpt lat="49.527344" lon="10.031354">
<ele>306.996</ele>
<time>2019-05-30T14:19:59Z</time>
</trkpt>
<trkpt lat="49.527275" lon="10.031364">
<ele>306.929</ele>
<time>2019-05-30T14:20:00Z</time>
</trkpt>
<trkpt lat="49.52721" lon="10.031385">
<ele>306.63</ele>
<time>2019-05-30T14:20:01Z</time>
</trkpt>
<trkpt lat="49.527149" lon="10.031417">
<ele>306.407</ele>
<time>2019-05-30T14:20:02Z</time>
</trkpt>
<trkpt lat="49.527061" lon="10.031477">
<ele>306.204</ele>
<time>2019-05-30T14:20:03Z</time>
</trkpt>
<trkpt lat="49.526989" lon="10.031502">
<ele>306.072</ele>
<time>2019-05-30T14:20:04Z</time>
</trkpt>
<trkpt lat="49.52692" lon="10.031527">
<ele>305.979</ele>
<time>2019-05-30T14:20:05Z</time>
</trkpt>
<trkpt lat="49.526863" lon="10.031542">
<ele>305.914</ele>
<time>2019-05-30T14:20:06Z</time>
</trkpt>
<trkpt lat="49.52681" lon="10.031557">
<ele>305.869</ele>
<time>2019-05-30T14:20:07Z</time>
</trkpt>
<trkpt lat="49.52676" lon="10.031589">
<ele>305.847</ele>
<time>2019-05-30T14:20:08Z</time>
</trkpt>
<trkpt lat="49.526714" lon="10.03162">
<ele>305.847</ele>
<time>2019-05-30T14:20:09Z</time>
</trkpt>
<trkpt lat="49.526653" lon="10.031649">
<ele>305.652</ele>
<time>2019-05-30T14:20:10Z</time>
</trkpt>
<trkpt lat="49.526581" lon="10.031674">
<ele>305.494</ele>
<time>2019-05-30T14:20:11Z</time>
</trkpt>
<trkpt lat="49.526505" lon="10.031705">
<ele>305.367</ele>
<time>2019-05-30T14:20:12Z</time>
</trkpt>
<trkpt lat="49.526432" lon="10.031752">
<ele>305.231</ele>
<time>2019-05-30T14:20:13Z</time>
</trkpt>
<trkpt lat="49.52636" lon="10.031787">
<ele>305.133</ele>
<time>2019-05-30T14:20:14Z</time>
</trkpt>
<trkpt lat="49.526287" lon="10.031818">
<ele>304.813</ele>
<time>2019-05-30T14:20:15Z</time>
</trkpt>
<trkpt lat="49.526218" lon="10.031844">
<ele>304.571</ele>
<time>2019-05-30T14:20:16Z</time>
</trkpt>
<trkpt lat="49.526142" lon="10.031874">
<ele>304.403</ele>
<time>2019-05-30T14:20:17Z</time>
</trkpt>
<trkpt lat="49.526054" lon="10.031909">
<ele>304.237</ele>
<time>2019-05-30T14:20:18Z</time>
</trkpt>
<trkpt lat="49.525967" lon="10.031955">
<ele>304.177</ele>
<time>2019-05-30T14:20:19Z</time>
</trkpt>
<trkpt lat="49.525879" lon="10.031997">
<ele>303.854</ele>
<time>2019-05-30T14:20:20Z</time>
</trkpt>
<trkpt lat="49.525791" lon="10.032033">
<ele>303.619</ele>
<time>2019-05-30T14:20:21Z</time>
</trkpt>
<trkpt lat="49.525715" lon="10.03205">
<ele>303.454</ele>
<time>2019-05-30T14:20:22Z</time>
</trkpt>
<trkpt lat="49.525635" lon="10.032073">
<ele>303.309</ele>
<time>2019-05-30T14:20:23Z</time>
</trkpt>
<trkpt lat="49.525555" lon="10.032108">
<ele>303.198</ele>
<time>2019-05-30T14:20:24Z</time>
</trkpt>
<trkpt lat="49.525486" lon="10.032133">
<ele>303.124</ele>
<time>2019-05-30T14:20:25Z</time>
</trkpt>
<trkpt lat="49.525421" lon="10.032122">
<ele>303.076</ele>
<time>2019-05-30T14:20:26Z</time>
</trkpt>
<trkpt lat="49.52536" lon="10.032106">
<ele>303.05</ele>
<time>2019-05-30T14:20:27Z</time>
</trkpt>
<trkpt lat="49.525299" lon="10.032091">
<ele>303.05</ele>
<time>2019-05-30T14:20:28Z</time>
</trkpt>
<trkpt lat="49.525227" lon="10.032072">
<ele>303.05</ele>
<time>2019-05-30T14:20:29Z</time>
</trkpt>
<trkpt lat="49.525146" lon="10.032068">
<ele>303.05</ele>
<time>2019-05-30T14:20:30Z</time>
</trkpt>
<trkpt lat="49.525074" lon="10.032047">
<ele>303.05</ele>
<time>2019-05-30T14:20:31Z</time>
</trkpt>
<trkpt lat="49.525005" lon="10.032018">
<ele>303.05</ele>
<time>2019-05-30T14:20:32Z</time>
</trkpt>
<trkpt lat="49.524937" lon="10.031986">
<ele>302.818</ele>
<time>2019-05-30T14:20:33Z</time>
</trkpt>
<trkpt lat="49.524872" lon="10.03196">
<ele>302.622</ele>
<time>2019-05-30T14:20:34Z</time>
</trkpt>
<trkpt lat="49.524807" lon="10.031921">
<ele>302.468</ele>
<time>2019-05-30T14:20:35Z</time>
</trkpt>
<trkpt lat="49.524742" lon="10.031888">
<ele>302.35</ele>
<time>2019-05-30T14:20:36Z</time>
</trkpt>
<trkpt lat="49.524677" lon="10.031855">
<ele>302.278</ele>
<time>2019-05-30T14:20:37Z</time>
</trkpt>
<trkpt lat="49.524612" lon="10.031818">
<ele>301.998</ele>
<time>2019-05-30T14:20:38Z</time>
</trkpt>
<trkpt lat="49.524548" lon="10.031794">
<ele>301.767</ele>
<time>2019-05-30T14:20:39Z</time>
</trkpt>
<trkpt lat="49.52449" lon="10.031754">
<ele>301.6</ele>
<time>2019-05-30T14:20:40Z</time>
</trkpt>
<trkpt lat="49.524433" lon="10.031716">
<ele>301.485</ele>
<time>2019-05-30T14:20:41Z</time>
</trkpt>
<trkpt lat="49.524364" lon="10.031678">
<ele>301.412</ele>
<time>2019-05-30T14:20:42Z</time>
</trkpt>
<trkpt lat="49.524303" lon="10.031631">
<ele>301.341</ele>
<time>2019-05-30T14:20:43Z</time>
</trkpt>
<trkpt lat="49.524235" lon="10.03158">
<ele>301.293</ele>
<time>2019-05-30T14:20:44Z</time>
</trkpt>
<trkpt lat="49.52417" lon="10.03153">
<ele>301.27</ele>
<time>2019-05-30T14:20:45Z</time>
</trkpt>
<trkpt lat="49.524109" lon="10.031494">
<ele>301.27</ele>
<time>2019-05-30T14:20:46Z</time>
</trkpt>
<trkpt lat="49.524048" lon="10.031453">
<ele>301.27</ele>
<time>2019-05-30T14:20:47Z</time>
</trkpt>
<trkpt lat="49.523994" lon="10.031404">
<ele>301.27</ele>
<time>2019-05-30T14:20:48Z</time>
</trkpt>
<trkpt lat="49.523941" lon="10.031368">
<ele>301.037</ele>
<time>2019-05-30T14:20:49Z</time>
</trkpt>
<trkpt lat="49.523876" lon="10.031331">
<ele>300.854</ele>
<time>2019-05-30T14:20:50Z</time>
</trkpt>
<trkpt lat="49.523819" lon="10.031285">
<ele>300.71</ele>
<time>2019-05-30T14:20:51Z</time>
</trkpt>
<trkpt lat="49.523758" lon="10.031223">
<ele>300.61</ele>
<time>2019-05-30T14:20:52Z</time>
</trkpt>
<trkpt lat="49.523705" lon="10.031152">
<ele>300.494</ele>
<time>2019-05-30T14:20:53Z</time>
</trkpt>
<trkpt lat="49.523647" lon="10.031079">
<ele>300.41</ele>
<time>2019-05-30T14:20:54Z</time>
</trkpt>
<trkpt lat="49.523586" lon="10.031018">
<ele>300.365</ele>
<time>2019-05-30T14:20:55Z</time>
</trkpt>
<trkpt lat="49.523537" lon="10.030962">
<ele>300.085</ele>
<time>2019-05-30T14:20:56Z</time>
</trkpt>
<trkpt lat="49.523479" lon="10.030905">
<ele>299.824</ele>
<time>2019-05-30T14:20:57Z</time>
</trkpt>
<trkpt lat="49.523422" lon="10.030857">
<ele>299.659</ele>
<time>2019-05-30T14:20:58Z</time>
</trkpt>
<trkpt lat="49.523376" lon="10.030813">
<ele>299.538</ele>
<time>2019-05-30T14:20:59Z</time>
</trkpt>
<trkpt lat="49.523312" lon="10.030759">
<ele>299.454</ele>
<time>2019-05-30T14:21:00Z</time>
</trkpt>
<trkpt lat="49.523239" lon="10.030704">
<ele>299.398</ele>
<time>2019-05-30T14:21:01Z</time>
</trkpt>
<trkpt lat="49.523167" lon="10.030642">
<ele>299.352</ele>
<time>2019-05-30T14:21:02Z</time>
</trkpt>
<trkpt lat="49.523102" lon="10.03057">
<ele>299.322</ele>
<time>2019-05-30T14:21:03Z</time>
</trkpt>
<trkpt lat="49.523037" lon="10.030495">
<ele>299.322</ele>
<time>2019-05-30T14:21:04Z</time>
</trkpt>
<trkpt lat="49.522976" lon="10.030421">
<ele>298.958</ele>
<time>2019-05-30T14:21:05Z</time>
</trkpt>
<trkpt lat="49.522915" lon="10.030347">
<ele>298.687</ele>
<time>2019-05-30T14:21:06Z</time>
</trkpt>
<trkpt lat="49.522854" lon="10.030271">
<ele>298.489</ele>
<time>2019-05-30T14:21:07Z</time>
</trkpt>
<trkpt lat="49.5228" lon="10.030198">
<ele>298.361</ele>
<time>2019-05-30T14:21:08Z</time>
</trkpt>
<trkpt lat="49.522743" lon="10.030125">
<ele>298.262</ele>
<time>2019-05-30T14:21:09Z</time>
</trkpt>
<trkpt lat="49.52269" lon="10.030055">
<ele>298.198</ele>
<time>2019-05-30T14:21:10Z</time>
</trkpt>
<trkpt lat="49.522636" lon="10.029984">
<ele>298.164</ele>
<time>2019-05-30T14:21:11Z</time>
</trkpt>
<trkpt lat="49.522583" lon="10.029904">
<ele>298.136</ele>
<time>2019-05-30T14:21:12Z</time>
</trkpt>
<trkpt lat="49.522533" lon="10.029828">
<ele>298.136</ele>
<time>2019-05-30T14:21:13Z</time>
</trkpt>
<trkpt lat="49.52248" lon="10.029757">
<ele>297.864</ele>
<time>2019-05-30T14:21:14Z</time>
</trkpt>
<trkpt lat="49.522434" lon="10.029684">
<ele>297.65</ele>
<time>2019-05-30T14:21:15Z</time>
</trkpt>
<trkpt lat="49.522385" lon="10.029609">
<ele>297.484</ele>
<time>2019-05-30T14:21:16Z</time>
</trkpt>
<trkpt lat="49.522343" lon="10.029531">
<ele>297.365</ele>
<time>2019-05-30T14:21:17Z</time>
</trkpt>
<trkpt lat="49.522297" lon="10.029453">
<ele>297.282</ele>
<time>2019-05-30T14:21:18Z</time>
</trkpt>
<trkpt lat="49.522251" lon="10.029376">
<ele>297.231</ele>
<time>2019-05-30T14:21:19Z</time>
</trkpt>
<trkpt lat="49.522209" lon="10.029301">
<ele>297.204</ele>
<time>2019-05-30T14:21:20Z</time>
</trkpt>
<trkpt lat="49.522167" lon="10.029223">
<ele>297.204</ele>
<time>2019-05-30T14:21:21Z</time>
</trkpt>
<trkpt lat="49.522125" lon="10.029143">
<ele>297.204</ele>
<time>2019-05-30T14:21:22Z</time>
</trkpt>
<trkpt lat="49.522087" lon="10.029063">
<ele>297.204</ele>
<time>2019-05-30T14:21:23Z</time>
</trkpt>
<trkpt lat="49.522053" lon="10.028978">
<ele>297.204</ele>
<time>2019-05-30T14:21:24Z</time>
</trkpt>
<trkpt lat="49.522018" lon="10.028894">
<ele>296.937</ele>
<time>2019-05-30T14:21:25Z</time>
</trkpt>
<trkpt lat="49.521992" lon="10.028813">
<ele>296.731</ele>
<time>2019-05-30T14:21:26Z</time>
</trkpt>
<trkpt lat="49.521961" lon="10.028728">
<ele>296.569</ele>
<time>2019-05-30T14:21:27Z</time>
</trkpt>
<trkpt lat="49.521927" lon="10.028639">
<ele>296.454</ele>
<time>2019-05-30T14:21:28Z</time>
</trkpt>
<trkpt lat="49.521893" lon="10.028546">
<ele>296.372</ele>
<time>2019-05-30T14:21:29Z</time>
</trkpt>
<trkpt lat="49.521854" lon="10.028454">
<ele>296.33</ele>
<time>2019-05-30T14:21:30Z</time>
</trkpt>
<trkpt lat="49.52182" lon="10.028362">
<ele>296.087</ele>
<time>2019-05-30T14:21:31Z</time>
</trkpt>
<trkpt lat="49.521786" lon="10.028268">
<ele>295.913</ele>
<time>2019-05-30T14:21:32Z</time>
</trkpt>
<trkpt lat="49.521751" lon="10.028177">
<ele>295.759</ele>
<time>2019-05-30T14:21:33Z</time>
</trkpt>
<trkpt lat="49.521725" lon="10.028084">
<ele>295.639</ele>
<time>2019-05-30T14:21:34Z</time>
</trkpt>
<trkpt lat="49.521694" lon="10.027991">
<ele>295.551</ele>
<time>2019-05-30T14:21:35Z</time>
</trkpt>
<trkpt lat="49.52166" lon="10.027902">
<ele>295.495</ele>
<time>2019-05-30T14:21:36Z</time>
</trkpt>
<trkpt lat="49.521626" lon="10.02781">
<ele>295.223</ele>
<time>2019-05-30T14:21:37Z</time>
</trkpt>
<trkpt lat="49.521587" lon="10.02772">
<ele>295.012</ele>
<time>2019-05-30T14:21:38Z</time>
</trkpt>
<trkpt lat="49.521545" lon="10.027633">
<ele>294.824</ele>
<time>2019-05-30T14:21:39Z</time>
</trkpt>
<trkpt lat="49.521503" lon="10.027552">
<ele>294.712</ele>
<time>2019-05-30T14:21:40Z</time>
</trkpt>
<trkpt lat="49.521461" lon="10.027468">
<ele>294.63</ele>
<time>2019-05-30T14:21:41Z</time>
</trkpt>
<trkpt lat="49.52142" lon="10.027387">
<ele>294.571</ele>
<time>2019-05-30T14:21:42Z</time>
</trkpt>
<trkpt lat="49.521374" lon="10.027307">
<ele>294.519</ele>
<time>2019-05-30T14:21:43Z</time>
</trkpt>
<trkpt lat="49.521324" lon="10.027228">
<ele>294.494</ele>
<time>2019-05-30T14:21:44Z</time>
</trkpt>
<trkpt lat="49.521275" lon="10.027151">
<ele>294.224</ele>
<time>2019-05-30T14:21:45Z</time>
</trkpt>
<trkpt lat="49.521229" lon="10.027078">
<ele>294.014</ele>
<time>2019-05-30T14:21:46Z</time>
</trkpt>
<trkpt lat="49.521175" lon="10.027006">
<ele>293.854</ele>
<time>2019-05-30T14:21:47Z</time>
</trkpt>
<trkpt lat="49.521118" lon="10.026943">
<ele>293.74</ele>
<time>2019-05-30T14:21:48Z</time>
</trkpt>
<trkpt lat="49.521069" lon="10.02688">
<ele>293.658</ele>
<time>2019-05-30T14:21:49Z</time>
</trkpt>
<trkpt lat="49.521015" lon="10.02682">
<ele>293.608</ele>
<time>2019-05-30T14:21:50Z</time>
</trkpt>
<trkpt lat="49.520962" lon="10.026767">
<ele>293.584</ele>
<time>2019-05-30T14:21:51Z</time>
</trkpt>
<trkpt lat="49.520905" lon="10.026717">
<ele>293.563</ele>
<time>2019-05-30T14:21:52Z</time>
</trkpt>
<trkpt lat="49.520851" lon="10.026669">
<ele>293.563</ele>
<time>2019-05-30T14:21:53Z</time>
</trkpt>
<trkpt lat="49.520798" lon="10.026622">
<ele>293.267</ele>
<time>2019-05-30T14:21:54Z</time>
</trkpt>
<trkpt lat="49.520744" lon="10.026577">
<ele>293.035</ele>
<time>2019-05-30T14:21:55Z</time>
</trkpt>
<trkpt lat="49.520691" lon="10.026539">
<ele>292.857</ele>
<time>2019-05-30T14:21:56Z</time>
</trkpt>
<trkpt lat="49.520634" lon="10.026504">
<ele>292.725</ele>
<time>2019-05-30T14:21:57Z</time>
</trkpt>
<trkpt lat="49.52058" lon="10.026462">
<ele>292.633</ele>
<time>2019-05-30T14:21:58Z</time>
</trkpt>
<trkpt lat="49.520519" lon="10.02642">
<ele>292.576</ele>
<time>2019-05-30T14:21:59Z</time>
</trkpt>
<trkpt lat="49.520466" lon="10.026377">
<ele>292.55</ele>
<time>2019-05-30T14:22:00Z</time>
</trkpt>
<trkpt lat="49.520405" lon="10.026332">
<ele>292.547</ele>
<time>2019-05-30T14:22:01Z</time>
</trkpt>
<trkpt lat="49.520348" lon="10.026286">
<ele>292.547</ele>
<time>2019-05-30T14:22:02Z</time>
</trkpt>
<trkpt lat="49.520287" lon="10.026241">
<ele>292.547</ele>
<time>2019-05-30T14:22:03Z</time>
</trkpt>
<trkpt lat="49.520226" lon="10.026194">
<ele>292.547</ele>
<time>2019-05-30T14:22:04Z</time>
</trkpt>
<trkpt lat="49.520164" lon="10.026145">
<ele>292.547</ele>
<time>2019-05-30T14:22:05Z</time>
</trkpt>
<trkpt lat="49.5201" lon="10.026095">
<ele>292.547</ele>
<time>2019-05-30T14:22:06Z</time>
</trkpt>
<trkpt lat="49.520039" lon="10.026043">
<ele>292.312</ele>
<time>2019-05-30T14:22:07Z</time>
</trkpt>
<trkpt lat="49.519981" lon="10.02599">
<ele>292.131</ele>
<time>2019-05-30T14:22:08Z</time>
</trkpt>
<trkpt lat="49.519924" lon="10.025933">
<ele>291.996</ele>
<time>2019-05-30T14:22:09Z</time>
</trkpt>
<trkpt lat="49.519871" lon="10.025873">
<ele>291.894</ele>
<time>2019-05-30T14:22:10Z</time>
</trkpt>
<trkpt lat="49.519817" lon="10.025812">
<ele>291.822</ele>
<time>2019-05-30T14:22:11Z</time>
</trkpt>
<trkpt lat="49.519768" lon="10.025752">
<ele>291.77</ele>
<time>2019-05-30T14:22:12Z</time>
</trkpt>
<trkpt lat="49.519718" lon="10.025688">
<ele>291.723</ele>
<time>2019-05-30T14:22:13Z</time>
</trkpt>
<trkpt lat="49.519669" lon="10.025625">
<ele>291.7</ele>
<time>2019-05-30T14:22:14Z</time>
</trkpt>
<trkpt lat="49.519623" lon="10.02556">
<ele>291.412</ele>
<time>2019-05-30T14:22:15Z</time>
</trkpt>
<trkpt lat="49.519573" lon="10.025492">
<ele>291.184</ele>
<time>2019-05-30T14:22:16Z</time>
</trkpt>
<trkpt lat="49.519535" lon="10.02542">
<ele>291.008</ele>
<time>2019-05-30T14:22:17Z</time>
</trkpt>
<trkpt lat="49.519489" lon="10.025352">
<ele>290.879</ele>
<time>2019-05-30T14:22:18Z</time>
</trkpt>
<trkpt lat="49.519444" lon="10.025276">
<ele>290.789</ele>
<time>2019-05-30T14:22:19Z</time>
</trkpt>
<trkpt lat="49.519398" lon="10.0252">
<ele>290.733</ele>
<time>2019-05-30T14:22:20Z</time>
</trkpt>
<trkpt lat="49.519348" lon="10.025126">
<ele>290.708</ele>
<time>2019-05-30T14:22:21Z</time>
</trkpt>
<trkpt lat="49.519306" lon="10.025056">
<ele>290.684</ele>
<time>2019-05-30T14:22:22Z</time>
</trkpt>
<trkpt lat="49.519264" lon="10.024986">
<ele>290.684</ele>
<time>2019-05-30T14:22:23Z</time>
</trkpt>
<trkpt lat="49.519226" lon="10.024914">
<ele>290.684</ele>
<time>2019-05-30T14:22:24Z</time>
</trkpt>
<trkpt lat="49.519184" lon="10.024838">
<ele>290.684</ele>
<time>2019-05-30T14:22:25Z</time>
</trkpt>
<trkpt lat="49.519138" lon="10.02477">
<ele>290.684</ele>
<time>2019-05-30T14:22:26Z</time>
</trkpt>
<trkpt lat="49.519089" lon="10.0247">
<ele>290.684</ele>
<time>2019-05-30T14:22:27Z</time>
</trkpt>
<trkpt lat="49.519047" lon="10.024625">
<ele>290.416</ele>
<time>2019-05-30T14:22:28Z</time>
</trkpt>
<trkpt lat="49.518997" lon="10.024551">
<ele>290.203</ele>
<time>2019-05-30T14:22:29Z</time>
</trkpt>
<trkpt lat="49.518951" lon="10.024477">
<ele>290.037</ele>
<time>2019-05-30T14:22:30Z</time>
</trkpt>
<trkpt lat="49.518902" lon="10.024402">
<ele>289.914</ele>
<time>2019-05-30T14:22:31Z</time>
</trkpt>
<trkpt lat="49.518856" lon="10.024324">
<ele>289.832</ele>
<time>2019-05-30T14:22:32Z</time>
</trkpt>
<trkpt lat="49.518814" lon="10.024247">
<ele>289.749</ele>
<time>2019-05-30T14:22:33Z</time>
</trkpt>
<trkpt lat="49.518772" lon="10.024172">
<ele>289.696</ele>
<time>2019-05-30T14:22:34Z</time>
</trkpt>
<trkpt lat="49.51873" lon="10.0241">
<ele>289.444</ele>
<time>2019-05-30T14:22:35Z</time>
</trkpt>
<trkpt lat="49.518688" lon="10.02403">
<ele>289.194</ele>
<time>2019-05-30T14:22:36Z</time>
</trkpt>
<trkpt lat="49.518642" lon="10.023958">
<ele>289.036</ele>
<time>2019-05-30T14:22:37Z</time>
</trkpt>
<trkpt lat="49.518597" lon="10.023889">
<ele>288.921</ele>
<time>2019-05-30T14:22:38Z</time>
</trkpt>
<trkpt lat="49.518551" lon="10.023818">
<ele>288.85</ele>
<time>2019-05-30T14:22:39Z</time>
</trkpt>
<trkpt lat="49.518505" lon="10.023745">
<ele>288.563</ele>
<time>2019-05-30T14:22:40Z</time>
</trkpt>
<trkpt lat="49.518459" lon="10.023675">
<ele>288.345</ele>
<time>2019-05-30T14:22:41Z</time>
</trkpt>
<trkpt lat="49.51841" lon="10.023603">
<ele>288.192</ele>
<time>2019-05-30T14:22:42Z</time>
</trkpt>
<trkpt lat="49.518368" lon="10.023533">
<ele>288.056</ele>
<time>2019-05-30T14:22:43Z</time>
</trkpt>
<trkpt lat="49.518322" lon="10.023461">
<ele>287.952</ele>
<time>2019-05-30T14:22:44Z</time>
</trkpt>
<trkpt lat="49.518276" lon="10.023386">
<ele>287.877</ele>
<time>2019-05-30T14:22:45Z</time>
</trkpt>
<trkpt lat="49.518238" lon="10.023309">
<ele>287.83</ele>
<time>2019-05-30T14:22:46Z</time>
</trkpt>
<trkpt lat="49.518192" lon="10.023233">
<ele>287.807</ele>
<time>2019-05-30T14:22:47Z</time>
</trkpt>
<trkpt lat="49.518147" lon="10.02316">
<ele>287.561</ele>
<time>2019-05-30T14:22:48Z</time>
</trkpt>
<trkpt lat="49.518101" lon="10.023083">
<ele>287.367</ele>
<time>2019-05-30T14:22:49Z</time>
</trkpt>
<trkpt lat="49.518051" lon="10.023009">
<ele>287.249</ele>
<time>2019-05-30T14:22:50Z</time>
</trkpt>
<trkpt lat="49.518005" lon="10.022936">
<ele>286.917</ele>
<time>2019-05-30T14:22:51Z</time>
</trkpt>
<trkpt lat="49.51796" lon="10.022862">
<ele>286.675</ele>
<time>2019-05-30T14:22:52Z</time>
</trkpt>
<trkpt lat="49.517914" lon="10.022785">
<ele>286.445</ele>
<time>2019-05-30T14:22:53Z</time>
</trkpt>
<trkpt lat="49.517872" lon="10.022712">
<ele>286.276</ele>
<time>2019-05-30T14:22:54Z</time>
</trkpt>
<trkpt lat="49.517826" lon="10.022635">
<ele>286.16</ele>
<time>2019-05-30T14:22:55Z</time>
</trkpt>
<trkpt lat="49.51778" lon="10.022561">
<ele>286.094</ele>
<time>2019-05-30T14:22:56Z</time>
</trkpt>
<trkpt lat="49.517742" lon="10.022483">
<ele>286.051</ele>
<time>2019-05-30T14:22:57Z</time>
</trkpt>
<trkpt lat="49.517696" lon="10.02241">
<ele>286.03</ele>
<time>2019-05-30T14:22:58Z</time>
</trkpt>
<trkpt lat="49.517651" lon="10.022341">
<ele>286.03</ele>
<time>2019-05-30T14:22:59Z</time>
</trkpt>
<trkpt lat="49.517612" lon="10.022273">
<ele>285.802</ele>
<time>2019-05-30T14:23:00Z</time>
</trkpt>
<trkpt lat="49.51757" lon="10.022202">
<ele>285.619</ele>
<time>2019-05-30T14:23:01Z</time>
</trkpt>
<trkpt lat="49.517532" lon="10.02213">
<ele>285.492</ele>
<time>2019-05-30T14:23:02Z</time>
</trkpt>
<trkpt lat="49.517487" lon="10.022062">
<ele>285.357</ele>
<time>2019-05-30T14:23:03Z</time>
</trkpt>
<trkpt lat="49.517452" lon="10.021996">
<ele>285.25</ele>
<time>2019-05-30T14:23:04Z</time>
</trkpt>
<trkpt lat="49.517414" lon="10.02193">
<ele>285.174</ele>
<time>2019-05-30T14:23:05Z</time>
</trkpt>
<trkpt lat="49.517372" lon="10.021863">
<ele>285.124</ele>
<time>2019-05-30T14:23:06Z</time>
</trkpt>
<trkpt lat="49.517334" lon="10.021796">
<ele>285.1</ele>
<time>2019-05-30T14:23:07Z</time>
</trkpt>
<trkpt lat="49.517292" lon="10.021725">
<ele>285.099</ele>
<time>2019-05-30T14:23:08Z</time>
</trkpt>
<trkpt lat="49.517258" lon="10.021651">
<ele>285.099</ele>
<time>2019-05-30T14:23:09Z</time>
</trkpt>
<trkpt lat="49.517216" lon="10.021575">
<ele>285.1</ele>
<time>2019-05-30T14:23:10Z</time>
</trkpt>
<trkpt lat="49.517174" lon="10.021497">
<ele>284.869</ele>
<time>2019-05-30T14:23:11Z</time>
</trkpt>
<trkpt lat="49.517128" lon="10.02142">
<ele>284.705</ele>
<time>2019-05-30T14:23:12Z</time>
</trkpt>
<trkpt lat="49.517086" lon="10.021341">
<ele>284.537</ele>
<time>2019-05-30T14:23:13Z</time>
</trkpt>
<trkpt lat="49.51704" lon="10.021262">
<ele>284.405</ele>
<time>2019-05-30T14:23:14Z</time>
</trkpt>
<trkpt lat="49.516998" lon="10.02118">
<ele>284.305</ele>
<time>2019-05-30T14:23:15Z</time>
</trkpt>
<trkpt lat="49.51696" lon="10.021096">
<ele>284.243</ele>
<time>2019-05-30T14:23:16Z</time>
</trkpt>
<trkpt lat="49.516918" lon="10.021013">
<ele>283.984</ele>
<time>2019-05-30T14:23:17Z</time>
</trkpt>
<trkpt lat="49.516872" lon="10.020928">
<ele>283.787</ele>
<time>2019-05-30T14:23:18Z</time>
</trkpt>
<trkpt lat="49.516834" lon="10.020842">
<ele>283.62</ele>
<time>2019-05-30T14:23:19Z</time>
</trkpt>
<trkpt lat="49.516792" lon="10.020753">
<ele>283.516</ele>
<time>2019-05-30T14:23:20Z</time>
</trkpt>
<trkpt lat="49.51675" lon="10.020663">
<ele>283.446</ele>
<time>2019-05-30T14:23:21Z</time>
</trkpt>
<trkpt lat="49.516712" lon="10.020572">
<ele>283.393</ele>
<time>2019-05-30T14:23:22Z</time>
</trkpt>
<trkpt lat="49.516674" lon="10.020478">
<ele>283.346</ele>
<time>2019-05-30T14:23:23Z</time>
</trkpt>
<trkpt lat="49.516632" lon="10.020385">
<ele>283.323</ele>
<time>2019-05-30T14:23:24Z</time>
</trkpt>
<trkpt lat="49.51659" lon="10.020291">
<ele>283.323</ele>
<time>2019-05-30T14:23:25Z</time>
</trkpt>
<trkpt lat="49.516552" lon="10.020195">
<ele>283.06</ele>
<time>2019-05-30T14:23:26Z</time>
</trkpt>
<trkpt lat="49.516518" lon="10.020097">
<ele>282.886</ele>
<time>2019-05-30T14:23:27Z</time>
</trkpt>
<trkpt lat="49.516483" lon="10.020002">
<ele>282.475</ele>
<time>2019-05-30T14:23:28Z</time>
</trkpt>
<trkpt lat="49.516449" lon="10.019904">
<ele>282.163</ele>
<time>2019-05-30T14:23:29Z</time>
</trkpt>
<trkpt lat="49.516418" lon="10.019805">
<ele>281.933</ele>
<time>2019-05-30T14:23:30Z</time>
</trkpt>
<trkpt lat="49.516384" lon="10.019705">
<ele>281.766</ele>
<time>2019-05-30T14:23:31Z</time>
</trkpt>
<trkpt lat="49.516357" lon="10.019605">
<ele>281.644</ele>
<time>2019-05-30T14:23:32Z</time>
</trkpt>
<trkpt lat="49.516331" lon="10.019505">
<ele>281.539</ele>
<time>2019-05-30T14:23:33Z</time>
</trkpt>
<trkpt lat="49.5163" lon="10.019408">
<ele>281.487</ele>
<time>2019-05-30T14:23:34Z</time>
</trkpt>
<trkpt lat="49.516273" lon="10.01931">
<ele>281.462</ele>
<time>2019-05-30T14:23:35Z</time>
</trkpt>
<trkpt lat="49.516247" lon="10.01921">
<ele>281.226</ele>
<time>2019-05-30T14:23:36Z</time>
</trkpt>
<trkpt lat="49.516216" lon="10.019108">
<ele>281.041</ele>
<time>2019-05-30T14:23:37Z</time>
</trkpt>
<trkpt lat="49.516193" lon="10.019007">
<ele>280.901</ele>
<time>2019-05-30T14:23:38Z</time>
</trkpt>
<trkpt lat="49.516171" lon="10.018905">
<ele>280.798</ele>
<time>2019-05-30T14:23:39Z</time>
</trkpt>
<trkpt lat="49.516144" lon="10.018804">
<ele>280.723</ele>
<time>2019-05-30T14:23:40Z</time>
</trkpt>
<trkpt lat="49.516117" lon="10.018702">
<ele>280.677</ele>
<time>2019-05-30T14:23:41Z</time>
</trkpt>
<trkpt lat="49.516094" lon="10.018601">
<ele>280.64</ele>
<time>2019-05-30T14:23:42Z</time>
</trkpt>
<trkpt lat="49.516071" lon="10.018498">
<ele>280.617</ele>
<time>2019-05-30T14:23:43Z</time>
</trkpt>
<trkpt lat="49.516052" lon="10.018396">
<ele>280.338</ele>
<time>2019-05-30T14:23:44Z</time>
</trkpt>
<trkpt lat="49.516029" lon="10.018295">
<ele>280.126</ele>
<time>2019-05-30T14:23:45Z</time>
</trkpt>
<trkpt lat="49.51601" lon="10.018192">
<ele>279.963</ele>
<time>2019-05-30T14:23:46Z</time>
</trkpt>
<trkpt lat="49.515987" lon="10.018088">
<ele>279.842</ele>
<time>2019-05-30T14:23:47Z</time>
</trkpt>
<trkpt lat="49.515968" lon="10.017983">
<ele>279.761</ele>
<time>2019-05-30T14:23:48Z</time>
</trkpt>
<trkpt lat="49.515957" lon="10.017883">
<ele>279.71</ele>
<time>2019-05-30T14:23:49Z</time>
</trkpt>
<trkpt lat="49.515945" lon="10.017776">
<ele>279.686</ele>
<time>2019-05-30T14:23:50Z</time>
</trkpt>
<trkpt lat="49.515926" lon="10.017667">
<ele>279.686</ele>
<time>2019-05-30T14:23:51Z</time>
</trkpt>
<trkpt lat="49.515915" lon="10.017558">
<ele>279.479</ele>
<time>2019-05-30T14:23:52Z</time>
</trkpt>
<trkpt lat="49.5159" lon="10.01745">
<ele>279.283</ele>
<time>2019-05-30T14:23:53Z</time>
</trkpt>
<trkpt lat="49.515888" lon="10.017342">
<ele>279.122</ele>
<time>2019-05-30T14:23:54Z</time>
</trkpt>
<trkpt lat="49.515873" lon="10.017233">
<ele>278.993</ele>
<time>2019-05-30T14:23:55Z</time>
</trkpt>
<trkpt lat="49.515862" lon="10.017123">
<ele>278.894</ele>
<time>2019-05-30T14:23:56Z</time>
</trkpt>
<trkpt lat="49.515854" lon="10.017014">
<ele>278.822</ele>
<time>2019-05-30T14:23:57Z</time>
</trkpt>
<trkpt lat="49.51585" lon="10.016902">
<ele>278.779</ele>
<time>2019-05-30T14:23:58Z</time>
</trkpt>
<trkpt lat="49.515842" lon="10.01679">
<ele>278.757</ele>
<time>2019-05-30T14:23:59Z</time>
</trkpt>
<trkpt lat="49.515839" lon="10.016678">
<ele>278.757</ele>
<time>2019-05-30T14:24:00Z</time>
</trkpt>
<trkpt lat="49.515839" lon="10.016568">
<ele>278.549</ele>
<time>2019-05-30T14:24:01Z</time>
</trkpt>
<trkpt lat="49.515839" lon="10.016459">
<ele>278.18</ele>
<time>2019-05-30T14:24:02Z</time>
</trkpt>
<trkpt lat="49.515839" lon="10.016351">
<ele>277.838</ele>
<time>2019-05-30T14:24:03Z</time>
</trkpt>
<trkpt lat="49.515846" lon="10.016245">
<ele>277.562</ele>
<time>2019-05-30T14:24:04Z</time>
</trkpt>
<trkpt lat="49.51585" lon="10.01614">
<ele>277.344</ele>
<time>2019-05-30T14:24:05Z</time>
</trkpt>
<trkpt lat="49.515858" lon="10.016033">
<ele>277.181</ele>
<time>2019-05-30T14:24:06Z</time>
</trkpt>
<trkpt lat="49.515869" lon="10.01593">
<ele>277.068</ele>
<time>2019-05-30T14:24:07Z</time>
</trkpt>
<trkpt lat="49.515884" lon="10.015825">
<ele>277.002</ele>
<time>2019-05-30T14:24:08Z</time>
</trkpt>
<trkpt lat="49.515896" lon="10.015722">
<ele>276.981</ele>
<time>2019-05-30T14:24:09Z</time>
</trkpt>
<trkpt lat="49.515915" lon="10.015622">
<ele>276.981</ele>
<time>2019-05-30T14:24:10Z</time>
</trkpt>
<trkpt lat="49.515926" lon="10.015519">
<ele>276.981</ele>
<time>2019-05-30T14:24:11Z</time>
</trkpt>
<trkpt lat="49.515949" lon="10.015416">
<ele>276.981</ele>
<time>2019-05-30T14:24:12Z</time>
</trkpt>
<trkpt lat="49.515965" lon="10.015313">
<ele>276.981</ele>
<time>2019-05-30T14:24:13Z</time>
</trkpt>
<trkpt lat="49.515987" lon="10.01521">
<ele>276.981</ele>
<time>2019-05-30T14:24:14Z</time>
</trkpt>
<trkpt lat="49.516014" lon="10.015112">
<ele>276.981</ele>
<time>2019-05-30T14:24:15Z</time>
</trkpt>
<trkpt lat="49.516037" lon="10.015014">
<ele>276.981</ele>
<time>2019-05-30T14:24:16Z</time>
</trkpt>
<trkpt lat="49.516068" lon="10.014918">
<ele>276.981</ele>
<time>2019-05-30T14:24:17Z</time>
</trkpt>
<trkpt lat="49.516098" lon="10.014825">
<ele>276.981</ele>
<time>2019-05-30T14:24:18Z</time>
</trkpt>
<trkpt lat="49.516132" lon="10.014737">
<ele>276.981</ele>
<time>2019-05-30T14:24:19Z</time>
</trkpt>
<trkpt lat="49.516167" lon="10.014644">
<ele>276.981</ele>
<time>2019-05-30T14:24:20Z</time>
</trkpt>
<trkpt lat="49.516201" lon="10.014555">
<ele>276.736</ele>
<time>2019-05-30T14:24:21Z</time>
</trkpt>
<trkpt lat="49.516235" lon="10.014465">
<ele>276.56</ele>
<time>2019-05-30T14:24:22Z</time>
</trkpt>
<trkpt lat="49.51627" lon="10.014373">
<ele>276.379</ele>
<time>2019-05-30T14:24:23Z</time>
</trkpt>
<trkpt lat="49.516304" lon="10.014283">
<ele>276.235</ele>
<time>2019-05-30T14:24:24Z</time>
</trkpt>
<trkpt lat="49.516346" lon="10.014195">
<ele>276.123</ele>
<time>2019-05-30T14:24:25Z</time>
</trkpt>
<trkpt lat="49.51638" lon="10.014109">
<ele>276.042</ele>
<time>2019-05-30T14:24:26Z</time>
</trkpt>
<trkpt lat="49.516426" lon="10.014028">
<ele>275.991</ele>
<time>2019-05-30T14:24:27Z</time>
</trkpt>
<trkpt lat="49.516472" lon="10.013953">
<ele>275.967</ele>
<time>2019-05-30T14:24:28Z</time>
</trkpt>
<trkpt lat="49.51651" lon="10.013879">
<ele>275.967</ele>
<time>2019-05-30T14:24:29Z</time>
</trkpt>
<trkpt lat="49.51656" lon="10.013807">
<ele>275.967</ele>
<time>2019-05-30T14:24:30Z</time>
</trkpt>
<trkpt lat="49.516602" lon="10.013735">
<ele>275.744</ele>
<time>2019-05-30T14:24:31Z</time>
</trkpt>
<trkpt lat="49.516647" lon="10.013661">
<ele>275.584</ele>
<time>2019-05-30T14:24:32Z</time>
</trkpt>
<trkpt lat="49.516689" lon="10.013588">
<ele>275.43</ele>
<time>2019-05-30T14:24:33Z</time>
</trkpt>
<trkpt lat="49.516731" lon="10.013515">
<ele>275.07</ele>
<time>2019-05-30T14:24:34Z</time>
</trkpt>
<trkpt lat="49.516773" lon="10.01344">
<ele>274.773</ele>
<time>2019-05-30T14:24:35Z</time>
</trkpt>
<trkpt lat="49.516815" lon="10.013368">
<ele>274.539</ele>
<time>2019-05-30T14:24:36Z</time>
</trkpt>
<trkpt lat="49.516857" lon="10.013293">
<ele>274.365</ele>
<time>2019-05-30T14:24:37Z</time>
</trkpt>
<trkpt lat="49.516899" lon="10.013217">
<ele>274.244</ele>
<time>2019-05-30T14:24:38Z</time>
</trkpt>
<trkpt lat="49.516937" lon="10.013142">
<ele>274.131</ele>
<time>2019-05-30T14:24:39Z</time>
</trkpt>
<trkpt lat="49.516979" lon="10.013066">
<ele>274.108</ele>
<time>2019-05-30T14:24:40Z</time>
</trkpt>
<trkpt lat="49.517014" lon="10.012986">
<ele>274.108</ele>
<time>2019-05-30T14:24:41Z</time>
</trkpt>
<trkpt lat="49.517052" lon="10.0129">
<ele>274.108</ele>
<time>2019-05-30T14:24:42Z</time>
</trkpt>
<trkpt lat="49.517082" lon="10.012812">
<ele>274.108</ele>
<time>2019-05-30T14:24:43Z</time>
</trkpt>
<trkpt lat="49.517117" lon="10.012725">
<ele>274.108</ele>
<time>2019-05-30T14:24:44Z</time>
</trkpt>
<trkpt lat="49.517147" lon="10.012636">
<ele>274.108</ele>
<time>2019-05-30T14:24:45Z</time>
</trkpt>
<trkpt lat="49.517181" lon="10.01255">
<ele>273.868</ele>
<time>2019-05-30T14:24:46Z</time>
</trkpt>
<trkpt lat="49.517212" lon="10.012464">
<ele>273.682</ele>
<time>2019-05-30T14:24:47Z</time>
</trkpt>
<trkpt lat="49.517246" lon="10.012377">
<ele>273.542</ele>
<time>2019-05-30T14:24:48Z</time>
</trkpt>
<trkpt lat="49.517277" lon="10.012284">
<ele>273.461</ele>
<time>2019-05-30T14:24:49Z</time>
</trkpt>
<trkpt lat="49.517307" lon="10.012197">
<ele>273.152</ele>
<time>2019-05-30T14:24:50Z</time>
</trkpt>
<trkpt lat="49.517334" lon="10.012112">
<ele>272.914</ele>
<time>2019-05-30T14:24:51Z</time>
</trkpt>
<trkpt lat="49.517361" lon="10.012023">
<ele>272.743</ele>
<time>2019-05-30T14:24:52Z</time>
</trkpt>
<trkpt lat="49.517391" lon="10.011943">
<ele>272.585</ele>
<time>2019-05-30T14:24:53Z</time>
</trkpt>
<trkpt lat="49.517422" lon="10.011864">
<ele>272.48</ele>
<time>2019-05-30T14:24:54Z</time>
</trkpt>
<trkpt lat="49.517456" lon="10.01179">
<ele>272.406</ele>
<time>2019-05-30T14:24:55Z</time>
</trkpt>
<trkpt lat="49.517487" lon="10.011719">
<ele>272.357</ele>
<time>2019-05-30T14:24:56Z</time>
</trkpt>
<trkpt lat="49.517517" lon="10.011654">
<ele>272.333</ele>
<time>2019-05-30T14:24:57Z</time>
</trkpt>
<trkpt lat="49.517548" lon="10.011595">
<ele>272.333</ele>
<time>2019-05-30T14:24:58Z</time>
</trkpt>
<trkpt lat="49.517574" lon="10.011535">
<ele>272.333</ele>
<time>2019-05-30T14:24:59Z</time>
</trkpt>
<trkpt lat="49.517601" lon="10.011492">
<ele>272.333</ele>
<time>2019-05-30T14:25:00Z</time>
</trkpt>
<trkpt lat="49.517628" lon="10.011455">
<ele>272.333</ele>
<time>2019-05-30T14:25:01Z</time>
</trkpt>
<trkpt lat="49.517651" lon="10.011423">
<ele>272.333</ele>
<time>2019-05-30T14:25:02Z</time>
</trkpt>
<trkpt lat="49.517681" lon="10.011394">
<ele>272.333</ele>
<time>2019-05-30T14:25:03Z</time>
</trkpt>
<trkpt lat="49.5177" lon="10.011356">
<ele>272.333</ele>
<time>2019-05-30T14:25:04Z</time>
</trkpt>
<trkpt lat="49.517723" lon="10.011314">
<ele>272.333</ele>
<time>2019-05-30T14:25:05Z</time>
</trkpt>
<trkpt lat="49.517746" lon="10.011274">
<ele>272.333</ele>
<time>2019-05-30T14:25:06Z</time>
</trkpt>
<trkpt lat="49.517765" lon="10.011225">
<ele>272.333</ele>
<time>2019-05-30T14:25:07Z</time>
</trkpt>
<trkpt lat="49.517784" lon="10.011168">
<ele>272.333</ele>
<time>2019-05-30T14:25:08Z</time>
</trkpt>
<trkpt lat="49.517811" lon="10.011113">
<ele>272.333</ele>
<time>2019-05-30T14:25:09Z</time>
</trkpt>
<trkpt lat="49.517826" lon="10.011057">
<ele>272.333</ele>
<time>2019-05-30T14:25:10Z</time>
</trkpt>
<trkpt lat="49.517841" lon="10.010998">
<ele>272.333</ele>
<time>2019-05-30T14:25:11Z</time>
</trkpt>
<trkpt lat="49.51786" lon="10.010945">
<ele>272.333</ele>
<time>2019-05-30T14:25:12Z</time>
</trkpt>
<trkpt lat="49.517879" lon="10.010893">
<ele>272.333</ele>
<time>2019-05-30T14:25:13Z</time>
</trkpt>
<trkpt lat="49.517899" lon="10.010845">
<ele>272.333</ele>
<time>2019-05-30T14:25:14Z</time>
</trkpt>
<trkpt lat="49.517918" lon="10.010793">
<ele>272.333</ele>
<time>2019-05-30T14:25:15Z</time>
</trkpt>
<trkpt lat="49.517941" lon="10.01074">
<ele>272.333</ele>
<time>2019-05-30T14:25:16Z</time>
</trkpt>
<trkpt lat="49.517963" lon="10.01068">
<ele>272.333</ele>
<time>2019-05-30T14:25:17Z</time>
</trkpt>
<trkpt lat="49.517982" lon="10.010625">
<ele>272.333</ele>
<time>2019-05-30T14:25:18Z</time>
</trkpt>
<trkpt lat="49.518009" lon="10.010571">
<ele>272.333</ele>
<time>2019-05-30T14:25:19Z</time>
</trkpt>
<trkpt lat="49.518032" lon="10.010511">
<ele>272.333</ele>
<time>2019-05-30T14:25:20Z</time>
</trkpt>
<trkpt lat="49.518059" lon="10.010453">
<ele>272.333</ele>
<time>2019-05-30T14:25:21Z</time>
</trkpt>
<trkpt lat="49.518085" lon="10.01039">
<ele>272.333</ele>
<time>2019-05-30T14:25:22Z</time>
</trkpt>
<trkpt lat="49.518112" lon="10.010332">
<ele>272.333</ele>
<time>2019-05-30T14:25:23Z</time>
</trkpt>
<trkpt lat="49.518139" lon="10.01027">
<ele>272.333</ele>
<time>2019-05-30T14:25:24Z</time>
</trkpt>
<trkpt lat="49.518169" lon="10.010208">
<ele>272.333</ele>
<time>2019-05-30T14:25:25Z</time>
</trkpt>
<trkpt lat="49.518196" lon="10.010147">
<ele>272.333</ele>
<time>2019-05-30T14:25:26Z</time>
</trkpt>
<trkpt lat="49.51823" lon="10.010085">
<ele>272.333</ele>
<time>2019-05-30T14:25:27Z</time>
</trkpt>
<trkpt lat="49.518261" lon="10.010018">
<ele>272.333</ele>
<time>2019-05-30T14:25:28Z</time>
</trkpt>
<trkpt lat="49.518295" lon="10.00995">
<ele>272.333</ele>
<time>2019-05-30T14:25:29Z</time>
</trkpt>
<trkpt lat="49.518333" lon="10.009881">
<ele>272.093</ele>
<time>2019-05-30T14:25:30Z</time>
</trkpt>
<trkpt lat="49.518368" lon="10.009811">
<ele>271.902</ele>
<time>2019-05-30T14:25:31Z</time>
</trkpt>
<trkpt lat="49.518406" lon="10.009743">
<ele>271.779</ele>
<time>2019-05-30T14:25:32Z</time>
</trkpt>
<trkpt lat="49.518444" lon="10.009675">
<ele>271.428</ele>
<time>2019-05-30T14:25:33Z</time>
</trkpt>
<trkpt lat="49.518482" lon="10.00961">
<ele>271.154</ele>
<time>2019-05-30T14:25:34Z</time>
</trkpt>
<trkpt lat="49.518517" lon="10.009543">
<ele>270.943</ele>
<time>2019-05-30T14:25:35Z</time>
</trkpt>
<trkpt lat="49.518551" lon="10.009479">
<ele>270.789</ele>
<time>2019-05-30T14:25:36Z</time>
</trkpt>
<trkpt lat="49.518589" lon="10.009415">
<ele>270.682</ele>
<time>2019-05-30T14:25:37Z</time>
</trkpt>
<trkpt lat="49.518623" lon="10.009352">
<ele>270.62</ele>
<time>2019-05-30T14:25:38Z</time>
</trkpt>
<trkpt lat="49.518661" lon="10.009288">
<ele>270.579</ele>
<time>2019-05-30T14:25:39Z</time>
</trkpt>
<trkpt lat="49.518692" lon="10.009223">
<ele>270.558</ele>
<time>2019-05-30T14:25:40Z</time>
</trkpt>
<trkpt lat="49.518726" lon="10.00916">
<ele>270.315</ele>
<time>2019-05-30T14:25:41Z</time>
</trkpt>
<trkpt lat="49.518761" lon="10.0091">
<ele>270.139</ele>
<time>2019-05-30T14:25:42Z</time>
</trkpt>
<trkpt lat="49.518791" lon="10.00904">
<ele>269.959</ele>
<time>2019-05-30T14:25:43Z</time>
</trkpt>
<trkpt lat="49.518826" lon="10.008983">
<ele>269.815</ele>
<time>2019-05-30T14:25:44Z</time>
</trkpt>
<trkpt lat="49.518856" lon="10.008928">
<ele>269.704</ele>
<time>2019-05-30T14:25:45Z</time>
</trkpt>
<trkpt lat="49.518887" lon="10.008878">
<ele>269.624</ele>
<time>2019-05-30T14:25:46Z</time>
</trkpt>
<trkpt lat="49.518913" lon="10.008832">
<ele>269.571</ele>
<time>2019-05-30T14:25:47Z</time>
</trkpt>
<trkpt lat="49.518932" lon="10.008777">
<ele>269.545</ele>
<time>2019-05-30T14:25:48Z</time>
</trkpt>
<trkpt lat="49.518944" lon="10.008701">
<ele>269.316</ele>
<time>2019-05-30T14:25:49Z</time>
</trkpt>
<trkpt lat="49.51894" lon="10.008622">
<ele>269.128</ele>
<time>2019-05-30T14:25:50Z</time>
</trkpt>
<trkpt lat="49.518921" lon="10.008552">
<ele>269.011</ele>
<time>2019-05-30T14:25:51Z</time>
</trkpt>
<trkpt lat="49.518879" lon="10.00849">
<ele>268.627</ele>
<time>2019-05-30T14:25:52Z</time>
</trkpt>
<trkpt lat="49.518829" lon="10.008453">
<ele>268.274</ele>
<time>2019-05-30T14:25:53Z</time>
</trkpt>
<trkpt lat="49.518776" lon="10.008447">
<ele>268.026</ele>
<time>2019-05-30T14:25:54Z</time>
</trkpt>
<trkpt lat="49.518723" lon="10.00847">
<ele>267.571</ele>
<time>2019-05-30T14:25:55Z</time>
</trkpt>
<trkpt lat="49.518669" lon="10.008513">
<ele>267.244</ele>
<time>2019-05-30T14:25:56Z</time>
</trkpt>
<trkpt lat="49.518612" lon="10.008559">
<ele>267.014</ele>
<time>2019-05-30T14:25:57Z</time>
</trkpt>
<trkpt lat="49.518555" lon="10.008607">
<ele>266.868</ele>
<time>2019-05-30T14:25:58Z</time>
</trkpt>
<trkpt lat="49.51849" lon="10.008656">
<ele>266.491</ele>
<time>2019-05-30T14:25:59Z</time>
</trkpt>
<trkpt lat="49.518425" lon="10.008701">
<ele>266.233</ele>
<time>2019-05-30T14:26:00Z</time>
</trkpt>
<trkpt lat="49.51836" lon="10.008748">
<ele>265.798</ele>
<time>2019-05-30T14:26:01Z</time>
</trkpt>
<trkpt lat="49.518295" lon="10.008794">
<ele>265.498</ele>
<time>2019-05-30T14:26:02Z</time>
</trkpt>
<trkpt lat="49.518234" lon="10.00884">
<ele>265.246</ele>
<time>2019-05-30T14:26:03Z</time>
</trkpt>
<trkpt lat="49.518173" lon="10.00889">
<ele>264.835</ele>
<time>2019-05-30T14:26:04Z</time>
</trkpt>
<trkpt lat="49.518112" lon="10.008934">
<ele>264.226</ele>
<time>2019-05-30T14:26:05Z</time>
</trkpt>
<trkpt lat="49.518059" lon="10.008978">
<ele>263.757</ele>
<time>2019-05-30T14:26:06Z</time>
</trkpt>
<trkpt lat="49.518005" lon="10.009016">
<ele>263.457</ele>
<time>2019-05-30T14:26:07Z</time>
</trkpt>
<trkpt lat="49.517948" lon="10.009058">
<ele>262.93</ele>
<time>2019-05-30T14:26:08Z</time>
</trkpt>
<trkpt lat="49.517899" lon="10.009098">
<ele>262.442</ele>
<time>2019-05-30T14:26:09Z</time>
</trkpt>
<trkpt lat="49.517845" lon="10.009138">
<ele>261.94</ele>
<time>2019-05-30T14:26:10Z</time>
</trkpt>
<trkpt lat="49.517807" lon="10.009184">
<ele>261.602</ele>
<time>2019-05-30T14:26:11Z</time>
</trkpt>
<trkpt lat="49.517765" lon="10.009215">
<ele>261.341</ele>
<time>2019-05-30T14:26:12Z</time>
</trkpt>
<trkpt lat="49.517723" lon="10.009244">
<ele>261.115</ele>
<time>2019-05-30T14:26:13Z</time>
</trkpt>
<trkpt lat="49.517681" lon="10.009272">
<ele>260.958</ele>
<time>2019-05-30T14:26:14Z</time>
</trkpt>
<trkpt lat="49.517639" lon="10.009287">
<ele>260.633</ele>
<time>2019-05-30T14:26:15Z</time>
</trkpt>
<trkpt lat="49.517601" lon="10.009292">
<ele>260.4</ele>
<time>2019-05-30T14:26:16Z</time>
</trkpt>
<trkpt lat="49.517567" lon="10.009284">
<ele>260.218</ele>
<time>2019-05-30T14:26:17Z</time>
</trkpt>
<trkpt lat="49.517532" lon="10.009267">
<ele>260.047</ele>
<time>2019-05-30T14:26:18Z</time>
</trkpt>
<trkpt lat="49.517494" lon="10.009242">
<ele>259.752</ele>
<time>2019-05-30T14:26:19Z</time>
</trkpt>
<trkpt lat="49.51746" lon="10.009212">
<ele>259.524</ele>
<time>2019-05-30T14:26:20Z</time>
</trkpt>
<trkpt lat="49.517422" lon="10.009184">
<ele>259.357</ele>
<time>2019-05-30T14:26:21Z</time>
</trkpt>
<trkpt lat="49.51738" lon="10.009156">
<ele>259.239</ele>
<time>2019-05-30T14:26:22Z</time>
</trkpt>
<trkpt lat="49.517334" lon="10.009135">
<ele>258.893</ele>
<time>2019-05-30T14:26:23Z</time>
</trkpt>
<trkpt lat="49.517292" lon="10.009125">
<ele>258.62</ele>
<time>2019-05-30T14:26:24Z</time>
</trkpt>
<trkpt lat="49.517246" lon="10.009122">
<ele>258.415</ele>
<time>2019-05-30T14:26:25Z</time>
</trkpt>
<trkpt lat="49.517204" lon="10.009122">
<ele>258.279</ele>
<time>2019-05-30T14:26:26Z</time>
</trkpt>
<trkpt lat="49.517159" lon="10.009123">
<ele>258.192</ele>
<time>2019-05-30T14:26:27Z</time>
</trkpt>
<trkpt lat="49.517117" lon="10.009125">
<ele>258.126</ele>
<time>2019-05-30T14:26:28Z</time>
</trkpt>
<trkpt lat="49.517067" lon="10.009122">
<ele>258.084</ele>
<time>2019-05-30T14:26:29Z</time>
</trkpt>
<trkpt lat="49.517029" lon="10.009114">
<ele>258.063</ele>
<time>2019-05-30T14:26:30Z</time>
</trkpt>
<trkpt lat="49.516983" lon="10.009107">
<ele>258.063</ele>
<time>2019-05-30T14:26:31Z</time>
</trkpt>
<trkpt lat="49.516937" lon="10.009097">
<ele>258.063</ele>
<time>2019-05-30T14:26:32Z</time>
</trkpt>
<trkpt lat="49.516899" lon="10.009085">
<ele>258.063</ele>
<time>2019-05-30T14:26:33Z</time>
</trkpt>
<trkpt lat="49.516853" lon="10.009073">
<ele>258.063</ele>
<time>2019-05-30T14:26:34Z</time>
</trkpt>
<trkpt lat="49.516808" lon="10.00906">
<ele>258.063</ele>
<time>2019-05-30T14:26:35Z</time>
</trkpt>
<trkpt lat="49.516766" lon="10.00904">
<ele>258.063</ele>
<time>2019-05-30T14:26:36Z</time>
</trkpt>
<trkpt lat="49.51672" lon="10.009013">
<ele>258.063</ele>
<time>2019-05-30T14:26:37Z</time>
</trkpt>
<trkpt lat="49.516674" lon="10.008983">
<ele>258.063</ele>
<time>2019-05-30T14:26:38Z</time>
</trkpt>
<trkpt lat="49.516632" lon="10.008948">
<ele>258.063</ele>
<time>2019-05-30T14:26:39Z</time>
</trkpt>
<trkpt lat="49.516586" lon="10.008909">
<ele>258.063</ele>
<time>2019-05-30T14:26:40Z</time>
</trkpt>
<trkpt lat="49.516541" lon="10.008867">
<ele>258.063</ele>
<time>2019-05-30T14:26:41Z</time>
</trkpt>
<trkpt lat="49.516502" lon="10.00882">
<ele>257.851</ele>
<time>2019-05-30T14:26:42Z</time>
</trkpt>
<trkpt lat="49.516457" lon="10.008771">
<ele>257.651</ele>
<time>2019-05-30T14:26:43Z</time>
</trkpt>
<trkpt lat="49.516415" lon="10.008718">
<ele>257.491</ele>
<time>2019-05-30T14:26:44Z</time>
</trkpt>
<trkpt lat="49.516376" lon="10.008665">
<ele>257.364</ele>
<time>2019-05-30T14:26:45Z</time>
</trkpt>
<trkpt lat="49.516338" lon="10.008612">
<ele>257.269</ele>
<time>2019-05-30T14:26:46Z</time>
</trkpt>
<trkpt lat="49.5163" lon="10.008555">
<ele>257.201</ele>
<time>2019-05-30T14:26:47Z</time>
</trkpt>
<trkpt lat="49.51627" lon="10.008496">
<ele>257.156</ele>
<time>2019-05-30T14:26:48Z</time>
</trkpt>
<trkpt lat="49.516239" lon="10.008435">
<ele>257.135</ele>
<time>2019-05-30T14:26:49Z</time>
</trkpt>
<trkpt lat="49.516209" lon="10.008377">
<ele>257.135</ele>
<time>2019-05-30T14:26:50Z</time>
</trkpt>
<trkpt lat="49.516182" lon="10.00832">
<ele>257.135</ele>
<time>2019-05-30T14:26:51Z</time>
</trkpt>
<trkpt lat="49.516159" lon="10.008264">
<ele>257.135</ele>
<time>2019-05-30T14:26:52Z</time>
</trkpt>
<trkpt lat="49.51614" lon="10.008207">
<ele>257.135</ele>
<time>2019-05-30T14:26:53Z</time>
</trkpt>
<trkpt lat="49.516117" lon="10.008148">
<ele>257.135</ele>
<time>2019-05-30T14:26:54Z</time>
</trkpt>
<trkpt lat="49.516094" lon="10.008086">
<ele>257.135</ele>
<time>2019-05-30T14:26:55Z</time>
</trkpt>
<trkpt lat="49.516071" lon="10.008027">
<ele>257.135</ele>
<time>2019-05-30T14:26:56Z</time>
</trkpt>
<trkpt lat="49.516037" lon="10.007975">
<ele>257.135</ele>
<time>2019-05-30T14:26:57Z</time>
</trkpt>
<trkpt lat="49.516003" lon="10.007935">
<ele>257.135</ele>
<time>2019-05-30T14:26:58Z</time>
</trkpt>
<trkpt lat="49.515961" lon="10.007905">
<ele>257.135</ele>
<time>2019-05-30T14:26:59Z</time>
</trkpt>
<trkpt lat="49.515915" lon="10.007889">
<ele>257.135</ele>
<time>2019-05-30T14:27:00Z</time>
</trkpt>
<trkpt lat="49.515858" lon="10.007878">
<ele>257.135</ele>
<time>2019-05-30T14:27:01Z</time>
</trkpt>
<trkpt lat="49.515812" lon="10.007876">
<ele>257.135</ele>
<time>2019-05-30T14:27:02Z</time>
</trkpt>
<trkpt lat="49.515762" lon="10.007874">
<ele>257.135</ele>
<time>2019-05-30T14:27:03Z</time>
</trkpt>
<trkpt lat="49.515717" lon="10.007866">
<ele>257.135</ele>
<time>2019-05-30T14:27:04Z</time>
</trkpt>
<trkpt lat="49.515663" lon="10.007865">
<ele>257.135</ele>
<time>2019-05-30T14:27:05Z</time>
</trkpt>
<trkpt lat="49.51561" lon="10.007865">
<ele>257.135</ele>
<time>2019-05-30T14:27:06Z</time>
</trkpt>
<trkpt lat="49.515564" lon="10.00786">
<ele>257.135</ele>
<time>2019-05-30T14:27:07Z</time>
</trkpt>
<trkpt lat="49.515507" lon="10.007865">
<ele>257.135</ele>
<time>2019-05-30T14:27:08Z</time>
</trkpt>
<trkpt lat="49.515453" lon="10.007874">
<ele>257.135</ele>
<time>2019-05-30T14:27:09Z</time>
</trkpt>
<trkpt lat="49.515396" lon="10.00788">
<ele>257.135</ele>
<time>2019-05-30T14:27:10Z</time>
</trkpt>
<trkpt lat="49.515347" lon="10.007874">
<ele>257.135</ele>
<time>2019-05-30T14:27:11Z</time>
</trkpt>
<trkpt lat="49.515297" lon="10.007872">
<ele>257.135</ele>
<time>2019-05-30T14:27:12Z</time>
</trkpt>
<trkpt lat="49.515244" lon="10.007874">
<ele>257.135</ele>
<time>2019-05-30T14:27:13Z</time>
</trkpt>
<trkpt lat="49.515194" lon="10.007872">
<ele>257.135</ele>
<time>2019-05-30T14:27:14Z</time>
</trkpt>
<trkpt lat="49.515144" lon="10.007874">
<ele>257.135</ele>
<time>2019-05-30T14:27:15Z</time>
</trkpt>
<trkpt lat="49.515102" lon="10.007872">
<ele>257.135</ele>
<time>2019-05-30T14:27:16Z</time>
</trkpt>
<trkpt lat="49.515049" lon="10.007874">
<ele>257.135</ele>
<time>2019-05-30T14:27:17Z</time>
</trkpt>
<trkpt lat="49.515007" lon="10.007878">
<ele>257.135</ele>
<time>2019-05-30T14:27:18Z</time>
</trkpt>
<trkpt lat="49.514954" lon="10.007891">
<ele>257.135</ele>
<time>2019-05-30T14:27:19Z</time>
</trkpt>
<trkpt lat="49.514904" lon="10.007901">
<ele>257.135</ele>
<time>2019-05-30T14:27:20Z</time>
</trkpt>
<trkpt lat="49.514847" lon="10.007914">
<ele>257.135</ele>
<time>2019-05-30T14:27:21Z</time>
</trkpt>
<trkpt lat="49.514793" lon="10.007927">
<ele>257.135</ele>
<time>2019-05-30T14:27:22Z</time>
</trkpt>
<trkpt lat="49.514748" lon="10.007936">
<ele>257.135</ele>
<time>2019-05-30T14:27:23Z</time>
</trkpt>
<trkpt lat="49.514698" lon="10.007957">
<ele>257.135</ele>
<time>2019-05-30T14:27:24Z</time>
</trkpt>
<trkpt lat="49.514645" lon="10.007978">
<ele>257.135</ele>
<time>2019-05-30T14:27:25Z</time>
</trkpt>
<trkpt lat="49.514595" lon="10.008001">
<ele>257.135</ele>
<time>2019-05-30T14:27:26Z</time>
</trkpt>
<trkpt lat="49.514553" lon="10.008025">
<ele>257.135</ele>
<time>2019-05-30T14:27:27Z</time>
</trkpt>
<trkpt lat="49.514503" lon="10.008052">
<ele>257.135</ele>
<time>2019-05-30T14:27:28Z</time>
</trkpt>
<trkpt lat="49.514458" lon="10.008079">
<ele>257.135</ele>
<time>2019-05-30T14:27:29Z</time>
</trkpt>
<trkpt lat="49.514416" lon="10.008104">
<ele>257.135</ele>
<time>2019-05-30T14:27:30Z</time>
</trkpt>
<trkpt lat="49.51437" lon="10.008137">
<ele>257.135</ele>
<time>2019-05-30T14:27:31Z</time>
</trkpt>
<trkpt lat="49.514332" lon="10.00817">
<ele>257.135</ele>
<time>2019-05-30T14:27:32Z</time>
</trkpt>
<trkpt lat="49.51429" lon="10.008207">
<ele>257.355</ele>
<time>2019-05-30T14:27:33Z</time>
</trkpt>
<trkpt lat="49.514244" lon="10.008241">
<ele>257.548</ele>
<time>2019-05-30T14:27:34Z</time>
</trkpt>
<trkpt lat="49.514206" lon="10.008277">
<ele>257.703</ele>
<time>2019-05-30T14:27:35Z</time>
</trkpt>
<trkpt lat="49.514164" lon="10.008315">
<ele>257.829</ele>
<time>2019-05-30T14:27:36Z</time>
</trkpt>
<trkpt lat="49.514126" lon="10.008351">
<ele>257.927</ele>
<time>2019-05-30T14:27:37Z</time>
</trkpt>
<trkpt lat="49.51408" lon="10.008388">
<ele>257.997</ele>
<time>2019-05-30T14:27:38Z</time>
</trkpt>
<trkpt lat="49.514038" lon="10.00843">
<ele>258.041</ele>
<time>2019-05-30T14:27:39Z</time>
</trkpt>
<trkpt lat="49.514" lon="10.008469">
<ele>258.063</ele>
<time>2019-05-30T14:27:40Z</time>
</trkpt>
<trkpt lat="49.513954" lon="10.0085">
<ele>258.063</ele>
<time>2019-05-30T14:27:41Z</time>
</trkpt>
<trkpt lat="49.513916" lon="10.008523">
<ele>258.063</ele>
<time>2019-05-30T14:27:42Z</time>
</trkpt>
<trkpt lat="49.513878" lon="10.008545">
<ele>258.264</ele>
<time>2019-05-30T14:27:43Z</time>
</trkpt>
<trkpt lat="49.513844" lon="10.008567">
<ele>258.431</ele>
<time>2019-05-30T14:27:44Z</time>
</trkpt>
<trkpt lat="49.513802" lon="10.008585">
<ele>258.569</ele>
<time>2019-05-30T14:27:45Z</time>
</trkpt>
<trkpt lat="49.51376" lon="10.008607">
<ele>258.659</ele>
<time>2019-05-30T14:27:46Z</time>
</trkpt>
<trkpt lat="49.513721" lon="10.008633">
<ele>258.996</ele>
<time>2019-05-30T14:27:47Z</time>
</trkpt>
<trkpt lat="49.513683" lon="10.008657">
<ele>259.276</ele>
<time>2019-05-30T14:27:48Z</time>
</trkpt>
<trkpt lat="49.513641" lon="10.008692">
<ele>259.505</ele>
<time>2019-05-30T14:27:49Z</time>
</trkpt>
<trkpt lat="49.513599" lon="10.008729">
<ele>259.676</ele>
<time>2019-05-30T14:27:50Z</time>
</trkpt>
<trkpt lat="49.513561" lon="10.008755">
<ele>259.779</ele>
<time>2019-05-30T14:27:51Z</time>
</trkpt>
<trkpt lat="49.513523" lon="10.00878">
<ele>259.84</ele>
<time>2019-05-30T14:27:52Z</time>
</trkpt>
<trkpt lat="49.513485" lon="10.008808">
<ele>259.893</ele>
<time>2019-05-30T14:27:53Z</time>
</trkpt>
<trkpt lat="49.513443" lon="10.008838">
<ele>259.92</ele>
<time>2019-05-30T14:27:54Z</time>
</trkpt>
<trkpt lat="49.513409" lon="10.008869">
<ele>259.92</ele>
<time>2019-05-30T14:27:55Z</time>
</trkpt>
<trkpt lat="49.513371" lon="10.008902">
<ele>259.92</ele>
<time>2019-05-30T14:27:56Z</time>
</trkpt>
<trkpt lat="49.513332" lon="10.008934">
<ele>260.167</ele>
<time>2019-05-30T14:27:57Z</time>
</trkpt>
<trkpt lat="49.513298" lon="10.008965">
<ele>260.363</ele>
<time>2019-05-30T14:27:58Z</time>
</trkpt>
<trkpt lat="49.51326" lon="10.008999">
<ele>260.518</ele>
<time>2019-05-30T14:27:59Z</time>
</trkpt>
<trkpt lat="49.513226" lon="10.009032">
<ele>260.635</ele>
<time>2019-05-30T14:28:00Z</time>
</trkpt>
<trkpt lat="49.513195" lon="10.009065">
<ele>260.711</ele>
<time>2019-05-30T14:28:01Z</time>
</trkpt>
<trkpt lat="49.513161" lon="10.009097">
<ele>260.769</ele>
<time>2019-05-30T14:28:02Z</time>
</trkpt>
<trkpt lat="49.513126" lon="10.009129">
<ele>260.823</ele>
<time>2019-05-30T14:28:03Z</time>
</trkpt>
<trkpt lat="49.513092" lon="10.009158">
<ele>260.848</ele>
<time>2019-05-30T14:28:04Z</time>
</trkpt>
<trkpt lat="49.513062" lon="10.009187">
<ele>260.848</ele>
<time>2019-05-30T14:28:05Z</time>
</trkpt>
<trkpt lat="49.513027" lon="10.009217">
<ele>260.848</ele>
<time>2019-05-30T14:28:06Z</time>
</trkpt>
<trkpt lat="49.512997" lon="10.009247">
<ele>260.848</ele>
<time>2019-05-30T14:28:07Z</time>
</trkpt>
<trkpt lat="49.512966" lon="10.009278">
<ele>260.848</ele>
<time>2019-05-30T14:28:08Z</time>
</trkpt>
<trkpt lat="49.512936" lon="10.00931">
<ele>261.082</ele>
<time>2019-05-30T14:28:09Z</time>
</trkpt>
<trkpt lat="49.512909" lon="10.009336">
<ele>261.265</ele>
<time>2019-05-30T14:28:10Z</time>
</trkpt>
<trkpt lat="49.512886" lon="10.009361">
<ele>261.411</ele>
<time>2019-05-30T14:28:11Z</time>
</trkpt>
<trkpt lat="49.512859" lon="10.00938">
<ele>261.513</ele>
<time>2019-05-30T14:28:12Z</time>
</trkpt>
<trkpt lat="49.512836" lon="10.009389">
<ele>261.62</ele>
<time>2019-05-30T14:28:13Z</time>
</trkpt>
<trkpt lat="49.512817" lon="10.009393">
<ele>261.696</ele>
<time>2019-05-30T14:28:14Z</time>
</trkpt>
<trkpt lat="49.512802" lon="10.009405">
<ele>261.75</ele>
<time>2019-05-30T14:28:15Z</time>
</trkpt>
<trkpt lat="49.512794" lon="10.00942">
<ele>261.776</ele>
<time>2019-05-30T14:28:16Z</time>
</trkpt>
<trkpt lat="49.512794" lon="10.00943">
<ele>261.776</ele>
<time>2019-05-30T14:28:17Z</time>
</trkpt>
<trkpt lat="49.512794" lon="10.009431">
<ele>261.776</ele>
<time>2019-05-30T14:28:18Z</time>
</trkpt>
<trkpt lat="49.512794" lon="10.009435">
<ele>261.776</ele>
<time>2019-05-30T14:28:19Z</time>
</trkpt>
<trkpt lat="49.512817" lon="10.009448">
<ele>261.776</ele>
<time>2019-05-30T14:28:32Z</time>
</trkpt>
<trkpt lat="49.512833" lon="10.009448">
<ele>261.776</ele>
<time>2019-05-30T14:28:33Z</time>
</trkpt>
<trkpt lat="49.512856" lon="10.009441">
<ele>261.776</ele>
<time>2019-05-30T14:28:34Z</time>
</trkpt>
<trkpt lat="49.512878" lon="10.009433">
<ele>261.776</ele>
<time>2019-05-30T14:28:35Z</time>
</trkpt>
<trkpt lat="49.512897" lon="10.009418">
<ele>261.776</ele>
<time>2019-05-30T14:28:36Z</time>
</trkpt>
<trkpt lat="49.512924" lon="10.009399">
<ele>261.776</ele>
<time>2019-05-30T14:28:37Z</time>
</trkpt>
<trkpt lat="49.512955" lon="10.009382">
<ele>261.776</ele>
<time>2019-05-30T14:28:38Z</time>
</trkpt>
<trkpt lat="49.512981" lon="10.009365">
<ele>261.776</ele>
<time>2019-05-30T14:28:39Z</time>
</trkpt>
<trkpt lat="49.513012" lon="10.009354">
<ele>261.776</ele>
<time>2019-05-30T14:28:40Z</time>
</trkpt>
<trkpt lat="49.513042" lon="10.00935">
<ele>261.776</ele>
<time>2019-05-30T14:28:41Z</time>
</trkpt>
<trkpt lat="49.513069" lon="10.009357">
<ele>261.777</ele>
<time>2019-05-30T14:28:42Z</time>
</trkpt>
<trkpt lat="49.513092" lon="10.009375">
<ele>261.777</ele>
<time>2019-05-30T14:28:43Z</time>
</trkpt>
<trkpt lat="49.513107" lon="10.009398">
<ele>261.776</ele>
<time>2019-05-30T14:28:44Z</time>
</trkpt>
<trkpt lat="49.513115" lon="10.009418">
<ele>261.776</ele>
<time>2019-05-30T14:28:45Z</time>
</trkpt>
<trkpt lat="49.513119" lon="10.009422">
<ele>261.776</ele>
<time>2019-05-30T14:28:46Z</time>
</trkpt>
<trkpt lat="49.513123" lon="10.009427">
<ele>261.776</ele>
<time>2019-05-30T14:28:47Z</time>
</trkpt>
<trkpt lat="49.513126" lon="10.009433">
<ele>261.777</ele>
<time>2019-05-30T14:28:48Z</time>
</trkpt>
<trkpt lat="49.513126" lon="10.009437">
<ele>261.776</ele>
<time>2019-05-30T14:28:49Z</time>
</trkpt>
<trkpt lat="49.513126" lon="10.009477">
<ele>261.777</ele>
<time>2019-05-30T14:29:49Z</time>
</trkpt>
<trkpt lat="49.513126" lon="10.009497">
<ele>261.777</ele>
<time>2019-05-30T14:29:50Z</time>
</trkpt>
<trkpt lat="49.513126" lon="10.009525">
<ele>261.776</ele>
<time>2019-05-30T14:29:51Z</time>
</trkpt>
<trkpt lat="49.513126" lon="10.009559">
<ele>261.776</ele>
<time>2019-05-30T14:29:52Z</time>
</trkpt>
<trkpt lat="49.513123" lon="10.00959">
<ele>261.776</ele>
<time>2019-05-30T14:29:53Z</time>
</trkpt>
<trkpt lat="49.513119" lon="10.009624">
<ele>261.776</ele>
<time>2019-05-30T14:29:54Z</time>
</trkpt>
<trkpt lat="49.513115" lon="10.009657">
<ele>261.777</ele>
<time>2019-05-30T14:29:55Z</time>
</trkpt>
<trkpt lat="49.513111" lon="10.009693">
<ele>261.776</ele>
<time>2019-05-30T14:29:56Z</time>
</trkpt>
<trkpt lat="49.513103" lon="10.009728">
<ele>261.776</ele>
<time>2019-05-30T14:29:57Z</time>
</trkpt>
<trkpt lat="49.513096" lon="10.009767">
<ele>261.777</ele>
<time>2019-05-30T14:29:58Z</time>
</trkpt>
<trkpt lat="49.513088" lon="10.009809">
<ele>261.776</ele>
<time>2019-05-30T14:29:59Z</time>
</trkpt>
<trkpt lat="49.513084" lon="10.009855">
<ele>261.777</ele>
<time>2019-05-30T14:30:00Z</time>
</trkpt>
<trkpt lat="49.513081" lon="10.009902">
<ele>261.776</ele>
<time>2019-05-30T14:30:01Z</time>
</trkpt>
<trkpt lat="49.513077" lon="10.009949">
<ele>261.777</ele>
<time>2019-05-30T14:30:02Z</time>
</trkpt>
<trkpt lat="49.513069" lon="10.009998">
<ele>261.776</ele>
<time>2019-05-30T14:30:03Z</time>
</trkpt>
<trkpt lat="49.513062" lon="10.010052">
<ele>262.02</ele>
<time>2019-05-30T14:30:04Z</time>
</trkpt>
<trkpt lat="49.513054" lon="10.010105">
<ele>262.217</ele>
<time>2019-05-30T14:30:05Z</time>
</trkpt>
<trkpt lat="49.513046" lon="10.010158">
<ele>262.368</ele>
<time>2019-05-30T14:30:06Z</time>
</trkpt>
<trkpt lat="49.513039" lon="10.010212">
<ele>262.46</ele>
<time>2019-05-30T14:30:07Z</time>
</trkpt>
<trkpt lat="49.513031" lon="10.010262">
<ele>262.774</ele>
<time>2019-05-30T14:30:08Z</time>
</trkpt>
<trkpt lat="49.51302" lon="10.010315">
<ele>263.024</ele>
<time>2019-05-30T14:30:09Z</time>
</trkpt>
<trkpt lat="49.513016" lon="10.010364">
<ele>263.209</ele>
<time>2019-05-30T14:30:10Z</time>
</trkpt>
<trkpt lat="49.513" lon="10.010409">
<ele>263.339</ele>
<time>2019-05-30T14:30:11Z</time>
</trkpt>
<trkpt lat="49.512981" lon="10.01045">
<ele>263.424</ele>
<time>2019-05-30T14:30:12Z</time>
</trkpt>
<trkpt lat="49.512955" lon="10.010482">
<ele>263.478</ele>
<time>2019-05-30T14:30:13Z</time>
</trkpt>
<trkpt lat="49.512924" lon="10.010493">
<ele>263.526</ele>
<time>2019-05-30T14:30:14Z</time>
</trkpt>
<trkpt lat="49.51289" lon="10.010491">
<ele>263.549</ele>
<time>2019-05-30T14:30:15Z</time>
</trkpt>
<trkpt lat="49.512859" lon="10.010482">
<ele>263.815</ele>
<time>2019-05-30T14:30:16Z</time>
</trkpt>
<trkpt lat="49.512825" lon="10.01047">
<ele>264.022</ele>
<time>2019-05-30T14:30:17Z</time>
</trkpt>
<trkpt lat="49.512791" lon="10.010458">
<ele>264.184</ele>
<time>2019-05-30T14:30:18Z</time>
</trkpt>
<trkpt lat="49.512753" lon="10.010443">
<ele>264.306</ele>
<time>2019-05-30T14:30:19Z</time>
</trkpt>
<trkpt lat="49.512714" lon="10.010426">
<ele>264.381</ele>
<time>2019-05-30T14:30:20Z</time>
</trkpt>
<trkpt lat="49.512672" lon="10.010408">
<ele>264.43</ele>
<time>2019-05-30T14:30:21Z</time>
</trkpt>
<trkpt lat="49.51263" lon="10.010395">
<ele>264.46</ele>
<time>2019-05-30T14:30:22Z</time>
</trkpt>
<trkpt lat="49.512585" lon="10.010382">
<ele>264.478</ele>
<time>2019-05-30T14:30:23Z</time>
</trkpt>
<trkpt lat="49.512535" lon="10.010369">
<ele>264.72</ele>
<time>2019-05-30T14:30:24Z</time>
</trkpt>
<trkpt lat="49.512486" lon="10.010359">
<ele>264.916</ele>
<time>2019-05-30T14:30:25Z</time>
</trkpt>
<trkpt lat="49.512436" lon="10.01035">
<ele>265.071</ele>
<time>2019-05-30T14:30:26Z</time>
</trkpt>
<trkpt lat="49.512383" lon="10.010344">
<ele>265.193</ele>
<time>2019-05-30T14:30:27Z</time>
</trkpt>
<trkpt lat="49.512337" lon="10.01034">
<ele>265.282</ele>
<time>2019-05-30T14:30:28Z</time>
</trkpt>
<trkpt lat="49.51228" lon="10.010335">
<ele>265.346</ele>
<time>2019-05-30T14:30:29Z</time>
</trkpt>
<trkpt lat="49.512234" lon="10.010332">
<ele>265.387</ele>
<time>2019-05-30T14:30:30Z</time>
</trkpt>
<trkpt lat="49.51218" lon="10.010332">
<ele>265.407</ele>
<time>2019-05-30T14:30:31Z</time>
</trkpt>
<trkpt lat="49.512131" lon="10.010333">
<ele>265.407</ele>
<time>2019-05-30T14:30:32Z</time>
</trkpt>
<trkpt lat="49.512077" lon="10.010338">
<ele>265.407</ele>
<time>2019-05-30T14:30:33Z</time>
</trkpt>
<trkpt lat="49.512028" lon="10.010352">
<ele>265.407</ele>
<time>2019-05-30T14:30:34Z</time>
</trkpt>
<trkpt lat="49.511978" lon="10.010371">
<ele>265.407</ele>
<time>2019-05-30T14:30:35Z</time>
</trkpt>
<trkpt lat="49.511925" lon="10.010395">
<ele>265.407</ele>
<time>2019-05-30T14:30:36Z</time>
</trkpt>
<trkpt lat="49.511879" lon="10.010418">
<ele>265.145</ele>
<time>2019-05-30T14:30:37Z</time>
</trkpt>
<trkpt lat="49.511822" lon="10.010445">
<ele>264.94</ele>
<time>2019-05-30T14:30:38Z</time>
</trkpt>
<trkpt lat="49.511776" lon="10.010471">
<ele>264.787</ele>
<time>2019-05-30T14:30:39Z</time>
</trkpt>
<trkpt lat="49.511719" lon="10.010499">
<ele>264.669</ele>
<time>2019-05-30T14:30:40Z</time>
</trkpt>
<trkpt lat="49.511669" lon="10.010529">
<ele>264.591</ele>
<time>2019-05-30T14:30:41Z</time>
</trkpt>
<trkpt lat="49.511612" lon="10.01056">
<ele>264.543</ele>
<time>2019-05-30T14:30:42Z</time>
</trkpt>
<trkpt lat="49.511555" lon="10.010589">
<ele>264.503</ele>
<time>2019-05-30T14:30:43Z</time>
</trkpt>
<trkpt lat="49.511497" lon="10.010612">
<ele>264.478</ele>
<time>2019-05-30T14:30:44Z</time>
</trkpt>
<trkpt lat="49.511444" lon="10.010635">
<ele>264.478</ele>
<time>2019-05-30T14:30:45Z</time>
</trkpt>
<trkpt lat="49.511387" lon="10.010654">
<ele>264.478</ele>
<time>2019-05-30T14:30:46Z</time>
</trkpt>
<trkpt lat="49.51133" lon="10.010674">
<ele>264.478</ele>
<time>2019-05-30T14:30:47Z</time>
</trkpt>
<trkpt lat="49.511272" lon="10.01069">
<ele>264.478</ele>
<time>2019-05-30T14:30:48Z</time>
</trkpt>
<trkpt lat="49.511219" lon="10.010705">
<ele>264.478</ele>
<time>2019-05-30T14:30:49Z</time>
</trkpt>
<trkpt lat="49.511162" lon="10.010718">
<ele>264.478</ele>
<time>2019-05-30T14:30:50Z</time>
</trkpt>
<trkpt lat="49.511108" lon="10.010734">
<ele>264.478</ele>
<time>2019-05-30T14:30:51Z</time>
</trkpt>
<trkpt lat="49.511051" lon="10.010751">
<ele>264.234</ele>
<time>2019-05-30T14:30:52Z</time>
</trkpt>
<trkpt lat="49.510994" lon="10.010767">
<ele>264.059</ele>
<time>2019-05-30T14:30:53Z</time>
</trkpt>
<trkpt lat="49.510933" lon="10.010786">
<ele>263.877</ele>
<time>2019-05-30T14:30:54Z</time>
</trkpt>
<trkpt lat="49.510876" lon="10.010805">
<ele>263.746</ele>
<time>2019-05-30T14:30:55Z</time>
</trkpt>
<trkpt lat="49.510822" lon="10.010821">
<ele>263.379</ele>
<time>2019-05-30T14:30:56Z</time>
</trkpt>
<trkpt lat="49.510765" lon="10.010837">
<ele>263.085</ele>
<time>2019-05-30T14:30:57Z</time>
</trkpt>
<trkpt lat="49.510712" lon="10.010855">
<ele>262.896</ele>
<time>2019-05-30T14:30:58Z</time>
</trkpt>
<trkpt lat="49.510666" lon="10.010872">
<ele>262.485</ele>
<time>2019-05-30T14:30:59Z</time>
</trkpt>
<trkpt lat="49.510616" lon="10.010899">
<ele>262.099</ele>
<time>2019-05-30T14:31:00Z</time>
</trkpt>
<trkpt lat="49.510574" lon="10.010937">
<ele>261.888</ele>
<time>2019-05-30T14:31:01Z</time>
</trkpt>
<trkpt lat="49.51054" lon="10.010987">
<ele>261.733</ele>
<time>2019-05-30T14:31:02Z</time>
</trkpt>
<trkpt lat="49.510502" lon="10.011044">
<ele>261.617</ele>
<time>2019-05-30T14:31:03Z</time>
</trkpt>
<trkpt lat="49.510464" lon="10.011108">
<ele>261.306</ele>
<time>2019-05-30T14:31:04Z</time>
</trkpt>
<trkpt lat="49.510429" lon="10.01118">
<ele>261.055</ele>
<time>2019-05-30T14:31:05Z</time>
</trkpt>
<trkpt lat="49.510399" lon="10.01126">
<ele>260.86</ele>
<time>2019-05-30T14:31:06Z</time>
</trkpt>
<trkpt lat="49.510376" lon="10.011342">
<ele>260.731</ele>
<time>2019-05-30T14:31:07Z</time>
</trkpt>
<trkpt lat="49.510353" lon="10.01143">
<ele>260.636</ele>
<time>2019-05-30T14:31:08Z</time>
</trkpt>
<trkpt lat="49.510338" lon="10.011521">
<ele>260.582</ele>
<time>2019-05-30T14:31:09Z</time>
</trkpt>
<trkpt lat="49.510323" lon="10.011612">
<ele>260.277</ele>
<time>2019-05-30T14:31:10Z</time>
</trkpt>
<trkpt lat="49.510315" lon="10.011703">
<ele>260.048</ele>
<time>2019-05-30T14:31:11Z</time>
</trkpt>
<trkpt lat="49.510303" lon="10.011798">
<ele>259.881</ele>
<time>2019-05-30T14:31:12Z</time>
</trkpt>
<trkpt lat="49.510292" lon="10.011893">
<ele>259.775</ele>
<time>2019-05-30T14:31:13Z</time>
</trkpt>
<trkpt lat="49.510284" lon="10.011991">
<ele>259.66</ele>
<time>2019-05-30T14:31:14Z</time>
</trkpt>
<trkpt lat="49.510284" lon="10.012088">
<ele>259.575</ele>
<time>2019-05-30T14:31:15Z</time>
</trkpt>
<trkpt lat="49.510292" lon="10.012179">
<ele>259.525</ele>
<time>2019-05-30T14:31:16Z</time>
</trkpt>
<trkpt lat="49.510296" lon="10.012268">
<ele>259.272</ele>
<time>2019-05-30T14:31:17Z</time>
</trkpt>
<trkpt lat="49.510296" lon="10.012365">
<ele>259.034</ele>
<time>2019-05-30T14:31:18Z</time>
</trkpt>
<trkpt lat="49.510292" lon="10.012464">
<ele>258.88</ele>
<time>2019-05-30T14:31:19Z</time>
</trkpt>
<trkpt lat="49.510296" lon="10.012552">
<ele>258.768</ele>
<time>2019-05-30T14:31:20Z</time>
</trkpt>
<trkpt lat="49.5103" lon="10.01265">
<ele>258.691</ele>
<time>2019-05-30T14:31:21Z</time>
</trkpt>
<trkpt lat="49.510303" lon="10.012747">
<ele>258.637</ele>
<time>2019-05-30T14:31:22Z</time>
</trkpt>
<trkpt lat="49.510307" lon="10.012848">
<ele>258.596</ele>
<time>2019-05-30T14:31:23Z</time>
</trkpt>
<trkpt lat="49.510315" lon="10.012948">
<ele>258.569</ele>
<time>2019-05-30T14:31:24Z</time>
</trkpt>
<trkpt lat="49.510319" lon="10.013041">
<ele>258.569</ele>
<time>2019-05-30T14:31:25Z</time>
</trkpt>
<trkpt lat="49.510315" lon="10.013137">
<ele>258.569</ele>
<time>2019-05-30T14:31:26Z</time>
</trkpt>
<trkpt lat="49.510319" lon="10.013215">
<ele>258.569</ele>
<time>2019-05-30T14:31:27Z</time>
</trkpt>
<trkpt lat="49.510319" lon="10.0133">
<ele>258.569</ele>
<time>2019-05-30T14:31:28Z</time>
</trkpt>
<trkpt lat="49.510326" lon="10.013375">
<ele>258.569</ele>
<time>2019-05-30T14:31:29Z</time>
</trkpt>
<trkpt lat="49.51033" lon="10.01346">
<ele>258.569</ele>
<time>2019-05-30T14:31:30Z</time>
</trkpt>
<trkpt lat="49.510338" lon="10.013541">
<ele>258.569</ele>
<time>2019-05-30T14:31:31Z</time>
</trkpt>
<trkpt lat="49.510342" lon="10.013629">
<ele>258.569</ele>
<time>2019-05-30T14:31:32Z</time>
</trkpt>
<trkpt lat="49.510338" lon="10.013723">
<ele>258.569</ele>
<time>2019-05-30T14:31:33Z</time>
</trkpt>
<trkpt lat="49.510334" lon="10.013822">
<ele>258.569</ele>
<time>2019-05-30T14:31:34Z</time>
</trkpt>
<trkpt lat="49.510323" lon="10.01392">
<ele>258.569</ele>
<time>2019-05-30T14:31:35Z</time>
</trkpt>
<trkpt lat="49.510319" lon="10.01401">
<ele>258.569</ele>
<time>2019-05-30T14:31:36Z</time>
</trkpt>
<trkpt lat="49.510319" lon="10.014107">
<ele>258.569</ele>
<time>2019-05-30T14:31:37Z</time>
</trkpt>
<trkpt lat="49.510315" lon="10.014203">
<ele>258.569</ele>
<time>2019-05-30T14:31:38Z</time>
</trkpt>
<trkpt lat="49.510307" lon="10.0143">
<ele>258.569</ele>
<time>2019-05-30T14:31:39Z</time>
</trkpt>
<trkpt lat="49.5103" lon="10.014397">
<ele>258.569</ele>
<time>2019-05-30T14:31:40Z</time>
</trkpt>
<trkpt lat="49.510288" lon="10.014497">
<ele>258.569</ele>
<time>2019-05-30T14:31:41Z</time>
</trkpt>
<trkpt lat="49.510284" lon="10.014597">
<ele>258.569</ele>
<time>2019-05-30T14:31:42Z</time>
</trkpt>
<trkpt lat="49.510277" lon="10.014688">
<ele>258.569</ele>
<time>2019-05-30T14:31:43Z</time>
</trkpt>
<trkpt lat="49.510269" lon="10.014773">
<ele>258.569</ele>
<time>2019-05-30T14:31:44Z</time>
</trkpt>
<trkpt lat="49.510262" lon="10.014858">
<ele>258.569</ele>
<time>2019-05-30T14:31:45Z</time>
</trkpt>
<trkpt lat="49.510254" lon="10.014945">
<ele>258.569</ele>
<time>2019-05-30T14:31:46Z</time>
</trkpt>
<trkpt lat="49.51025" lon="10.015027">
<ele>258.569</ele>
<time>2019-05-30T14:31:47Z</time>
</trkpt>
<trkpt lat="49.510239" lon="10.015106">
<ele>258.569</ele>
<time>2019-05-30T14:31:48Z</time>
</trkpt>
<trkpt lat="49.510235" lon="10.015186">
<ele>258.569</ele>
<time>2019-05-30T14:31:49Z</time>
</trkpt>
<trkpt lat="49.510235" lon="10.015246">
<ele>258.569</ele>
<time>2019-05-30T14:31:50Z</time>
</trkpt>
<trkpt lat="49.510223" lon="10.01533">
<ele>258.569</ele>
<time>2019-05-30T14:31:51Z</time>
</trkpt>
<trkpt lat="49.510212" lon="10.01541">
<ele>258.329</ele>
<time>2019-05-30T14:31:52Z</time>
</trkpt>
<trkpt lat="49.510193" lon="10.015493">
<ele>258.156</ele>
<time>2019-05-30T14:31:53Z</time>
</trkpt>
<trkpt lat="49.510189" lon="10.015567">
<ele>257.974</ele>
<time>2019-05-30T14:31:54Z</time>
</trkpt>
<trkpt lat="49.510185" lon="10.015638">
<ele>257.826</ele>
<time>2019-05-30T14:31:55Z</time>
</trkpt>
<trkpt lat="49.51017" lon="10.015714">
<ele>257.712</ele>
<time>2019-05-30T14:31:56Z</time>
</trkpt>
<trkpt lat="49.510151" lon="10.015797">
<ele>257.629</ele>
<time>2019-05-30T14:31:57Z</time>
</trkpt>
<trkpt lat="49.510139" lon="10.015875">
<ele>257.576</ele>
<time>2019-05-30T14:31:58Z</time>
</trkpt>
<trkpt lat="49.51012" lon="10.015959">
<ele>257.557</ele>
<time>2019-05-30T14:31:59Z</time>
</trkpt>
<trkpt lat="49.510105" lon="10.016039">
<ele>257.557</ele>
<time>2019-05-30T14:32:00Z</time>
</trkpt>
<trkpt lat="49.510086" lon="10.016118">
<ele>257.557</ele>
<time>2019-05-30T14:32:01Z</time>
</trkpt>
<trkpt lat="49.510059" lon="10.016198">
<ele>257.557</ele>
<time>2019-05-30T14:32:02Z</time>
</trkpt>
<trkpt lat="49.510044" lon="10.01628">
<ele>257.557</ele>
<time>2019-05-30T14:32:03Z</time>
</trkpt>
<trkpt lat="49.510021" lon="10.016365">
<ele>257.557</ele>
<time>2019-05-30T14:32:04Z</time>
</trkpt>
<trkpt lat="49.510002" lon="10.016438">
<ele>257.557</ele>
<time>2019-05-30T14:32:05Z</time>
</trkpt>
<trkpt lat="49.509983" lon="10.016521">
<ele>257.557</ele>
<time>2019-05-30T14:32:06Z</time>
</trkpt>
<trkpt lat="49.509968" lon="10.016597">
<ele>257.557</ele>
<time>2019-05-30T14:32:07Z</time>
</trkpt>
<trkpt lat="49.509945" lon="10.016673">
<ele>257.557</ele>
<time>2019-05-30T14:32:08Z</time>
</trkpt>
<trkpt lat="49.509922" lon="10.016748">
<ele>257.557</ele>
<time>2019-05-30T14:32:09Z</time>
</trkpt>
<trkpt lat="49.509895" lon="10.016824">
<ele>257.557</ele>
<time>2019-05-30T14:32:10Z</time>
</trkpt>
<trkpt lat="49.509865" lon="10.016904">
<ele>257.557</ele>
<time>2019-05-30T14:32:11Z</time>
</trkpt>
<trkpt lat="49.509838" lon="10.01698">
<ele>257.557</ele>
<time>2019-05-30T14:32:12Z</time>
</trkpt>
<trkpt lat="49.509815" lon="10.017055">
<ele>257.557</ele>
<time>2019-05-30T14:32:13Z</time>
</trkpt>
<trkpt lat="49.509789" lon="10.017125">
<ele>257.557</ele>
<time>2019-05-30T14:32:14Z</time>
</trkpt>
<trkpt lat="49.509762" lon="10.017185">
<ele>257.557</ele>
<time>2019-05-30T14:32:15Z</time>
</trkpt>
<trkpt lat="49.509743" lon="10.017256">
<ele>257.557</ele>
<time>2019-05-30T14:32:16Z</time>
</trkpt>
<trkpt lat="49.509716" lon="10.017317">
<ele>257.557</ele>
<time>2019-05-30T14:32:17Z</time>
</trkpt>
<trkpt lat="49.509689" lon="10.01738">
<ele>257.557</ele>
<time>2019-05-30T14:32:18Z</time>
</trkpt>
<trkpt lat="49.509666" lon="10.017445">
<ele>257.557</ele>
<time>2019-05-30T14:32:19Z</time>
</trkpt>
<trkpt lat="49.50964" lon="10.017503">
<ele>257.557</ele>
<time>2019-05-30T14:32:20Z</time>
</trkpt>
<trkpt lat="49.509609" lon="10.017558">
<ele>257.557</ele>
<time>2019-05-30T14:32:21Z</time>
</trkpt>
<trkpt lat="49.509571" lon="10.01762">
<ele>257.557</ele>
<time>2019-05-30T14:32:22Z</time>
</trkpt>
<trkpt lat="49.509537" lon="10.017678">
<ele>257.557</ele>
<time>2019-05-30T14:32:23Z</time>
</trkpt>
<trkpt lat="49.509499" lon="10.017728">
<ele>257.557</ele>
<time>2019-05-30T14:32:24Z</time>
</trkpt>
<trkpt lat="49.509464" lon="10.01778">
<ele>257.557</ele>
<time>2019-05-30T14:32:25Z</time>
</trkpt>
<trkpt lat="49.509426" lon="10.017826">
<ele>257.557</ele>
<time>2019-05-30T14:32:26Z</time>
</trkpt>
<trkpt lat="49.50938" lon="10.017868">
<ele>257.82</ele>
<time>2019-05-30T14:32:27Z</time>
</trkpt>
<trkpt lat="49.509331" lon="10.017907">
<ele>258.024</ele>
<time>2019-05-30T14:32:28Z</time>
</trkpt>
<trkpt lat="49.509274" lon="10.01793">
<ele>258.177</ele>
<time>2019-05-30T14:32:29Z</time>
</trkpt>
<trkpt lat="49.50922" lon="10.017935">
<ele>258.288</ele>
<time>2019-05-30T14:32:30Z</time>
</trkpt>
<trkpt lat="49.509163" lon="10.017941">
<ele>258.37</ele>
<time>2019-05-30T14:32:31Z</time>
</trkpt>
<trkpt lat="49.509106" lon="10.017943">
<ele>258.423</ele>
<time>2019-05-30T14:32:32Z</time>
</trkpt>
<trkpt lat="49.509048" lon="10.017941">
<ele>258.46</ele>
<time>2019-05-30T14:32:33Z</time>
</trkpt>
<trkpt lat="49.508995" lon="10.017939">
<ele>258.485</ele>
<time>2019-05-30T14:32:34Z</time>
</trkpt>
<trkpt lat="49.508938" lon="10.017939">
<ele>258.485</ele>
<time>2019-05-30T14:32:35Z</time>
</trkpt>
<trkpt lat="49.508881" lon="10.017941">
<ele>258.485</ele>
<time>2019-05-30T14:32:36Z</time>
</trkpt>
<trkpt lat="49.508827" lon="10.017945">
<ele>258.485</ele>
<time>2019-05-30T14:32:37Z</time>
</trkpt>
<trkpt lat="49.508778" lon="10.01795">
<ele>258.485</ele>
<time>2019-05-30T14:32:38Z</time>
</trkpt>
<trkpt lat="49.508717" lon="10.017952">
<ele>258.485</ele>
<time>2019-05-30T14:32:39Z</time>
</trkpt>
<trkpt lat="49.508663" lon="10.017956">
<ele>258.485</ele>
<time>2019-05-30T14:32:40Z</time>
</trkpt>
<trkpt lat="49.508614" lon="10.017957">
<ele>258.485</ele>
<time>2019-05-30T14:32:41Z</time>
</trkpt>
<trkpt lat="49.508556" lon="10.017963">
<ele>258.485</ele>
<time>2019-05-30T14:32:42Z</time>
</trkpt>
<trkpt lat="49.508499" lon="10.01797">
<ele>258.485</ele>
<time>2019-05-30T14:32:43Z</time>
</trkpt>
<trkpt lat="49.508442" lon="10.017983">
<ele>258.485</ele>
<time>2019-05-30T14:32:44Z</time>
</trkpt>
<trkpt lat="49.508392" lon="10.017989">
<ele>258.485</ele>
<time>2019-05-30T14:32:45Z</time>
</trkpt>
<trkpt lat="49.508339" lon="10.017989">
<ele>258.485</ele>
<time>2019-05-30T14:32:46Z</time>
</trkpt>
<trkpt lat="49.508286" lon="10.017991">
<ele>258.721</ele>
<time>2019-05-30T14:32:47Z</time>
</trkpt>
<trkpt lat="49.508228" lon="10.018">
<ele>258.903</ele>
<time>2019-05-30T14:32:48Z</time>
</trkpt>
<trkpt lat="49.508179" lon="10.018005">
<ele>259.045</ele>
<time>2019-05-30T14:32:49Z</time>
</trkpt>
<trkpt lat="49.508129" lon="10.01801">
<ele>259.147</ele>
<time>2019-05-30T14:32:50Z</time>
</trkpt>
<trkpt lat="49.508076" lon="10.018021">
<ele>259.221</ele>
<time>2019-05-30T14:32:51Z</time>
</trkpt>
<trkpt lat="49.508022" lon="10.018037">
<ele>259.266</ele>
<time>2019-05-30T14:32:52Z</time>
</trkpt>
<trkpt lat="49.507969" lon="10.01806">
<ele>259.305</ele>
<time>2019-05-30T14:32:53Z</time>
</trkpt>
<trkpt lat="49.507919" lon="10.01809">
<ele>259.329</ele>
<time>2019-05-30T14:32:54Z</time>
</trkpt>
<trkpt lat="49.50787" lon="10.018127">
<ele>259.329</ele>
<time>2019-05-30T14:32:55Z</time>
</trkpt>
<trkpt lat="49.507824" lon="10.018165">
<ele>259.329</ele>
<time>2019-05-30T14:32:56Z</time>
</trkpt>
<trkpt lat="49.507774" lon="10.018205">
<ele>259.329</ele>
<time>2019-05-30T14:32:57Z</time>
</trkpt>
<trkpt lat="49.507732" lon="10.018249">
<ele>259.329</ele>
<time>2019-05-30T14:32:58Z</time>
</trkpt>
<trkpt lat="49.507683" lon="10.018285">
<ele>259.329</ele>
<time>2019-05-30T14:32:59Z</time>
</trkpt>
<trkpt lat="49.507637" lon="10.018323">
<ele>259.329</ele>
<time>2019-05-30T14:33:00Z</time>
</trkpt>
<trkpt lat="49.507587" lon="10.01836">
<ele>259.329</ele>
<time>2019-05-30T14:33:01Z</time>
</trkpt>
<trkpt lat="49.507534" lon="10.018394">
<ele>259.329</ele>
<time>2019-05-30T14:33:02Z</time>
</trkpt>
<trkpt lat="49.507481" lon="10.018427">
<ele>259.329</ele>
<time>2019-05-30T14:33:03Z</time>
</trkpt>
<trkpt lat="49.507427" lon="10.018455">
<ele>259.329</ele>
<time>2019-05-30T14:33:04Z</time>
</trkpt>
<trkpt lat="49.507374" lon="10.018481">
<ele>259.329</ele>
<time>2019-05-30T14:33:05Z</time>
</trkpt>
<trkpt lat="49.507317" lon="10.018502">
<ele>259.329</ele>
<time>2019-05-30T14:33:06Z</time>
</trkpt>
<trkpt lat="49.507263" lon="10.018518">
<ele>259.329</ele>
<time>2019-05-30T14:33:07Z</time>
</trkpt>
<trkpt lat="49.50721" lon="10.018534">
<ele>259.329</ele>
<time>2019-05-30T14:33:08Z</time>
</trkpt>
<trkpt lat="49.507156" lon="10.018535">
<ele>259.329</ele>
<time>2019-05-30T14:33:09Z</time>
</trkpt>
<trkpt lat="49.507107" lon="10.018532">
<ele>259.329</ele>
<time>2019-05-30T14:33:10Z</time>
</trkpt>
<trkpt lat="49.507053" lon="10.018517">
<ele>259.329</ele>
<time>2019-05-30T14:33:11Z</time>
</trkpt>
<trkpt lat="49.507" lon="10.018507">
<ele>259.329</ele>
<time>2019-05-30T14:33:12Z</time>
</trkpt>
<trkpt lat="49.50695" lon="10.0185">
<ele>259.329</ele>
<time>2019-05-30T14:33:13Z</time>
</trkpt>
<trkpt lat="49.506893" lon="10.018494">
<ele>259.329</ele>
<time>2019-05-30T14:33:14Z</time>
</trkpt>
<trkpt lat="49.50684" lon="10.018495">
<ele>259.329</ele>
<time>2019-05-30T14:33:15Z</time>
</trkpt>
<trkpt lat="49.50679" lon="10.018497">
<ele>259.329</ele>
<time>2019-05-30T14:33:16Z</time>
</trkpt>
<trkpt lat="49.506737" lon="10.0185">
<ele>259.329</ele>
<time>2019-05-30T14:33:17Z</time>
</trkpt>
<trkpt lat="49.506687" lon="10.018498">
<ele>259.329</ele>
<time>2019-05-30T14:33:18Z</time>
</trkpt>
<trkpt lat="49.50663" lon="10.018498">
<ele>259.329</ele>
<time>2019-05-30T14:33:19Z</time>
</trkpt>
<trkpt lat="49.506573" lon="10.018502">
<ele>259.329</ele>
<time>2019-05-30T14:33:20Z</time>
</trkpt>
<trkpt lat="49.506519" lon="10.018507">
<ele>259.329</ele>
<time>2019-05-30T14:33:21Z</time>
</trkpt>
<trkpt lat="49.506462" lon="10.018515">
<ele>259.329</ele>
<time>2019-05-30T14:33:22Z</time>
</trkpt>
<trkpt lat="49.506405" lon="10.018518">
<ele>259.329</ele>
<time>2019-05-30T14:33:23Z</time>
</trkpt>
<trkpt lat="49.506351" lon="10.018527">
<ele>259.329</ele>
<time>2019-05-30T14:33:24Z</time>
</trkpt>
<trkpt lat="49.506298" lon="10.018538">
<ele>259.329</ele>
<time>2019-05-30T14:33:25Z</time>
</trkpt>
<trkpt lat="49.506245" lon="10.018545">
<ele>259.329</ele>
<time>2019-05-30T14:33:26Z</time>
</trkpt>
<trkpt lat="49.506195" lon="10.018555">
<ele>259.329</ele>
<time>2019-05-30T14:33:27Z</time>
</trkpt>
<trkpt lat="49.506142" lon="10.018563">
<ele>259.329</ele>
<time>2019-05-30T14:33:28Z</time>
</trkpt>
<trkpt lat="49.506088" lon="10.018576">
<ele>259.329</ele>
<time>2019-05-30T14:33:29Z</time>
</trkpt>
<trkpt lat="49.506039" lon="10.018588">
<ele>259.329</ele>
<time>2019-05-30T14:33:30Z</time>
</trkpt>
<trkpt lat="49.505985" lon="10.0186">
<ele>259.329</ele>
<time>2019-05-30T14:33:31Z</time>
</trkpt>
<trkpt lat="49.505932" lon="10.01861">
<ele>259.329</ele>
<time>2019-05-30T14:33:32Z</time>
</trkpt>
<trkpt lat="49.505882" lon="10.018621">
<ele>259.329</ele>
<time>2019-05-30T14:33:33Z</time>
</trkpt>
<trkpt lat="49.505833" lon="10.018637">
<ele>259.329</ele>
<time>2019-05-30T14:33:34Z</time>
</trkpt>
<trkpt lat="49.505783" lon="10.018657">
<ele>259.329</ele>
<time>2019-05-30T14:33:35Z</time>
</trkpt>
<trkpt lat="49.50573" lon="10.018677">
<ele>259.329</ele>
<time>2019-05-30T14:33:36Z</time>
</trkpt>
<trkpt lat="49.505684" lon="10.018697">
<ele>259.329</ele>
<time>2019-05-30T14:33:37Z</time>
</trkpt>
<trkpt lat="49.505634" lon="10.018715">
<ele>259.329</ele>
<time>2019-05-30T14:33:38Z</time>
</trkpt>
<trkpt lat="49.505589" lon="10.018731">
<ele>259.57</ele>
<time>2019-05-30T14:33:39Z</time>
</trkpt>
<trkpt lat="49.505543" lon="10.01875">
<ele>259.759</ele>
<time>2019-05-30T14:33:40Z</time>
</trkpt>
<trkpt lat="49.505497" lon="10.01877">
<ele>259.905</ele>
<time>2019-05-30T14:33:41Z</time>
</trkpt>
<trkpt lat="49.505455" lon="10.018791">
<ele>260.018</ele>
<time>2019-05-30T14:33:42Z</time>
</trkpt>
<trkpt lat="49.505413" lon="10.01881">
<ele>260.096</ele>
<time>2019-05-30T14:33:43Z</time>
</trkpt>
<trkpt lat="49.505371" lon="10.018831">
<ele>260.178</ele>
<time>2019-05-30T14:33:44Z</time>
</trkpt>
<trkpt lat="49.505329" lon="10.01885">
<ele>260.231</ele>
<time>2019-05-30T14:33:45Z</time>
</trkpt>
<trkpt lat="49.505287" lon="10.018869">
<ele>260.257</ele>
<time>2019-05-30T14:33:46Z</time>
</trkpt>
<trkpt lat="49.505241" lon="10.018887">
<ele>260.257</ele>
<time>2019-05-30T14:33:47Z</time>
</trkpt>
<trkpt lat="49.505199" lon="10.01891">
<ele>260.257</ele>
<time>2019-05-30T14:33:48Z</time>
</trkpt>
<trkpt lat="49.505161" lon="10.018931">
<ele>260.257</ele>
<time>2019-05-30T14:33:49Z</time>
</trkpt>
<trkpt lat="49.505116" lon="10.018955">
<ele>260.257</ele>
<time>2019-05-30T14:33:50Z</time>
</trkpt>
<trkpt lat="49.505074" lon="10.018978">
<ele>260.513</ele>
<time>2019-05-30T14:33:51Z</time>
</trkpt>
<trkpt lat="49.505032" lon="10.018997">
<ele>260.713</ele>
<time>2019-05-30T14:33:52Z</time>
</trkpt>
<trkpt lat="49.504997" lon="10.01901">
<ele>260.851</ele>
<time>2019-05-30T14:33:53Z</time>
</trkpt>
<trkpt lat="49.504963" lon="10.01902">
<ele>260.992</ele>
<time>2019-05-30T14:33:54Z</time>
</trkpt>
<trkpt lat="49.504929" lon="10.019031">
<ele>261.098</ele>
<time>2019-05-30T14:33:55Z</time>
</trkpt>
<trkpt lat="49.50489" lon="10.019043">
<ele>261.398</ele>
<time>2019-05-30T14:33:56Z</time>
</trkpt>
<trkpt lat="49.504852" lon="10.019053">
<ele>261.641</ele>
<time>2019-05-30T14:33:57Z</time>
</trkpt>
<trkpt lat="49.504818" lon="10.019065">
<ele>261.823</ele>
<time>2019-05-30T14:33:58Z</time>
</trkpt>
<trkpt lat="49.504784" lon="10.01907">
<ele>261.984</ele>
<time>2019-05-30T14:33:59Z</time>
</trkpt>
<trkpt lat="49.504745" lon="10.019083">
<ele>262.357</ele>
<time>2019-05-30T14:34:00Z</time>
</trkpt>
<trkpt lat="49.504711" lon="10.019095">
<ele>262.653</ele>
<time>2019-05-30T14:34:01Z</time>
</trkpt>
<trkpt lat="49.504677" lon="10.019106">
<ele>262.853</ele>
<time>2019-05-30T14:34:02Z</time>
</trkpt>
<trkpt lat="49.504642" lon="10.019123">
<ele>262.988</ele>
<time>2019-05-30T14:34:03Z</time>
</trkpt>
<trkpt lat="49.504608" lon="10.019138">
<ele>263.113</ele>
<time>2019-05-30T14:34:04Z</time>
</trkpt>
<trkpt lat="49.504578" lon="10.019156">
<ele>263.205</ele>
<time>2019-05-30T14:34:05Z</time>
</trkpt>
<trkpt lat="49.504547" lon="10.019187">
<ele>263.265</ele>
<time>2019-05-30T14:34:06Z</time>
</trkpt>
<trkpt lat="49.504524" lon="10.019218">
<ele>263.499</ele>
<time>2019-05-30T14:34:07Z</time>
</trkpt>
<trkpt lat="49.504494" lon="10.019252">
<ele>263.71</ele>
<time>2019-05-30T14:34:08Z</time>
</trkpt>
<trkpt lat="49.504463" lon="10.019283">
<ele>263.856</ele>
<time>2019-05-30T14:34:09Z</time>
</trkpt>
<trkpt lat="49.504425" lon="10.019305">
<ele>263.961</ele>
<time>2019-05-30T14:34:10Z</time>
</trkpt>
<trkpt lat="49.504387" lon="10.019317">
<ele>264.037</ele>
<time>2019-05-30T14:34:11Z</time>
</trkpt>
<trkpt lat="49.504349" lon="10.019328">
<ele>264.084</ele>
<time>2019-05-30T14:34:12Z</time>
</trkpt>
<trkpt lat="49.504299" lon="10.019337">
<ele>264.119</ele>
<time>2019-05-30T14:34:13Z</time>
</trkpt>
<trkpt lat="49.50425" lon="10.01935">
<ele>264.14</ele>
<time>2019-05-30T14:34:14Z</time>
</trkpt>
<trkpt lat="49.504204" lon="10.019355">
<ele>264.14</ele>
<time>2019-05-30T14:34:15Z</time>
</trkpt>
<trkpt lat="49.504158" lon="10.019363">
<ele>264.14</ele>
<time>2019-05-30T14:34:16Z</time>
</trkpt>
<trkpt lat="49.504112" lon="10.019365">
<ele>264.14</ele>
<time>2019-05-30T14:34:17Z</time>
</trkpt>
<trkpt lat="49.504059" lon="10.019366">
<ele>264.14</ele>
<time>2019-05-30T14:34:18Z</time>
</trkpt>
<trkpt lat="49.504013" lon="10.019368">
<ele>264.14</ele>
<time>2019-05-30T14:34:19Z</time>
</trkpt>
<trkpt lat="49.503963" lon="10.01937">
<ele>264.14</ele>
<time>2019-05-30T14:34:20Z</time>
</trkpt>
<trkpt lat="49.503914" lon="10.019375">
<ele>264.14</ele>
<time>2019-05-30T14:34:21Z</time>
</trkpt>
<trkpt lat="49.503864" lon="10.019372">
<ele>264.14</ele>
<time>2019-05-30T14:34:22Z</time>
</trkpt>
<trkpt lat="49.503819" lon="10.019368">
<ele>264.14</ele>
<time>2019-05-30T14:34:23Z</time>
</trkpt>
<trkpt lat="49.503769" lon="10.019365">
<ele>264.14</ele>
<time>2019-05-30T14:34:24Z</time>
</trkpt>
<trkpt lat="49.503719" lon="10.019357">
<ele>264.14</ele>
<time>2019-05-30T14:34:25Z</time>
</trkpt>
<trkpt lat="49.50367" lon="10.019345">
<ele>264.14</ele>
<time>2019-05-30T14:34:26Z</time>
</trkpt>
<trkpt lat="49.503624" lon="10.019335">
<ele>264.14</ele>
<time>2019-05-30T14:34:27Z</time>
</trkpt>
<trkpt lat="49.503574" lon="10.019325">
<ele>264.14</ele>
<time>2019-05-30T14:34:28Z</time>
</trkpt>
<trkpt lat="49.503525" lon="10.019313">
<ele>264.385</ele>
<time>2019-05-30T14:34:29Z</time>
</trkpt>
<trkpt lat="49.503479" lon="10.019301">
<ele>264.58</ele>
<time>2019-05-30T14:34:30Z</time>
</trkpt>
<trkpt lat="49.503437" lon="10.019288">
<ele>264.726</ele>
<time>2019-05-30T14:34:31Z</time>
</trkpt>
<trkpt lat="49.503395" lon="10.019274">
<ele>264.833</ele>
<time>2019-05-30T14:34:32Z</time>
</trkpt>
<trkpt lat="49.503349" lon="10.019257">
<ele>264.913</ele>
<time>2019-05-30T14:34:33Z</time>
</trkpt>
<trkpt lat="49.503304" lon="10.019234">
<ele>264.992</ele>
<time>2019-05-30T14:34:34Z</time>
</trkpt>
<trkpt lat="49.503254" lon="10.019215">
<ele>265.044</ele>
<time>2019-05-30T14:34:35Z</time>
</trkpt>
<trkpt lat="49.503208" lon="10.01919">
<ele>265.069</ele>
<time>2019-05-30T14:34:36Z</time>
</trkpt>
<trkpt lat="49.503159" lon="10.019165">
<ele>265.069</ele>
<time>2019-05-30T14:34:37Z</time>
</trkpt>
<trkpt lat="49.503113" lon="10.019141">
<ele>265.069</ele>
<time>2019-05-30T14:34:38Z</time>
</trkpt>
<trkpt lat="49.503067" lon="10.019116">
<ele>265.069</ele>
<time>2019-05-30T14:34:39Z</time>
</trkpt>
<trkpt lat="49.503017" lon="10.01909">
<ele>265.069</ele>
<time>2019-05-30T14:34:40Z</time>
</trkpt>
<trkpt lat="49.502979" lon="10.019065">
<ele>265.069</ele>
<time>2019-05-30T14:34:41Z</time>
</trkpt>
<trkpt lat="49.502934" lon="10.01904">
<ele>265.069</ele>
<time>2019-05-30T14:34:42Z</time>
</trkpt>
<trkpt lat="49.502888" lon="10.019013">
<ele>265.069</ele>
<time>2019-05-30T14:34:43Z</time>
</trkpt>
<trkpt lat="49.50285" lon="10.018989">
<ele>265.069</ele>
<time>2019-05-30T14:34:44Z</time>
</trkpt>
<trkpt lat="49.502808" lon="10.01896">
<ele>265.069</ele>
<time>2019-05-30T14:34:45Z</time>
</trkpt>
<trkpt lat="49.502766" lon="10.018934">
<ele>265.069</ele>
<time>2019-05-30T14:34:46Z</time>
</trkpt>
<trkpt lat="49.502728" lon="10.018911">
<ele>265.069</ele>
<time>2019-05-30T14:34:47Z</time>
</trkpt>
<trkpt lat="49.502693" lon="10.018892">
<ele>265.069</ele>
<time>2019-05-30T14:34:48Z</time>
</trkpt>
<trkpt lat="49.502663" lon="10.018875">
<ele>265.069</ele>
<time>2019-05-30T14:34:49Z</time>
</trkpt>
<trkpt lat="49.502644" lon="10.018863">
<ele>265.069</ele>
<time>2019-05-30T14:34:50Z</time>
</trkpt>
<trkpt lat="49.502621" lon="10.018855">
<ele>265.069</ele>
<time>2019-05-30T14:34:51Z</time>
</trkpt>
<trkpt lat="49.502613" lon="10.018857">
<ele>265.069</ele>
<time>2019-05-30T14:34:52Z</time>
</trkpt>
<trkpt lat="49.502609" lon="10.018853">
<ele>265.069</ele>
<time>2019-05-30T14:34:53Z</time>
</trkpt>
<trkpt lat="49.502613" lon="10.018853">
<ele>265.069</ele>
<time>2019-05-30T14:34:54Z</time>
</trkpt>
<trkpt lat="49.502609" lon="10.018853">
<ele>265.069</ele>
<time>2019-05-30T14:34:55Z</time>
</trkpt>
<trkpt lat="49.502602" lon="10.018842">
<ele>265.069</ele>
<time>2019-05-30T14:34:57Z</time>
</trkpt>
<trkpt lat="49.50259" lon="10.01885">
<ele>265.069</ele>
<time>2019-05-30T14:34:58Z</time>
</trkpt>
<trkpt lat="49.502579" lon="10.018877">
<ele>265.069</ele>
<time>2019-05-30T14:34:59Z</time>
</trkpt>
<trkpt lat="49.502571" lon="10.01891">
<ele>265.069</ele>
<time>2019-05-30T14:35:00Z</time>
</trkpt>
<trkpt lat="49.502571" lon="10.01895">
<ele>265.069</ele>
<time>2019-05-30T14:35:01Z</time>
</trkpt>
<trkpt lat="49.502575" lon="10.018995">
<ele>265.069</ele>
<time>2019-05-30T14:35:02Z</time>
</trkpt>
<trkpt lat="49.502579" lon="10.019047">
<ele>265.069</ele>
<time>2019-05-30T14:35:03Z</time>
</trkpt>
<trkpt lat="49.50259" lon="10.019105">
<ele>265.069</ele>
<time>2019-05-30T14:35:04Z</time>
</trkpt>
<trkpt lat="49.502594" lon="10.019165">
<ele>265.069</ele>
<time>2019-05-30T14:35:05Z</time>
</trkpt>
<trkpt lat="49.502609" lon="10.019227">
<ele>265.069</ele>
<time>2019-05-30T14:35:06Z</time>
</trkpt>
<trkpt lat="49.502621" lon="10.019293">
<ele>265.069</ele>
<time>2019-05-30T14:35:07Z</time>
</trkpt>
<trkpt lat="49.502632" lon="10.019363">
<ele>265.069</ele>
<time>2019-05-30T14:35:08Z</time>
</trkpt>
<trkpt lat="49.502647" lon="10.019439">
<ele>265.069</ele>
<time>2019-05-30T14:35:09Z</time>
</trkpt>
<trkpt lat="49.502659" lon="10.019517">
<ele>265.069</ele>
<time>2019-05-30T14:35:10Z</time>
</trkpt>
<trkpt lat="49.502678" lon="10.019594">
<ele>265.069</ele>
<time>2019-05-30T14:35:11Z</time>
</trkpt>
<trkpt lat="49.502697" lon="10.019675">
<ele>264.821</ele>
<time>2019-05-30T14:35:12Z</time>
</trkpt>
<trkpt lat="49.502716" lon="10.019757">
<ele>264.63</ele>
<time>2019-05-30T14:35:13Z</time>
</trkpt>
<trkpt lat="49.502731" lon="10.019836">
<ele>264.51</ele>
<time>2019-05-30T14:35:14Z</time>
</trkpt>
<trkpt lat="49.50275" lon="10.019918">
<ele>264.378</ele>
<time>2019-05-30T14:35:15Z</time>
</trkpt>
<trkpt lat="49.502766" lon="10.019999">
<ele>264.279</ele>
<time>2019-05-30T14:35:16Z</time>
</trkpt>
<trkpt lat="49.502785" lon="10.02008">
<ele>264.209</ele>
<time>2019-05-30T14:35:17Z</time>
</trkpt>
<trkpt lat="49.502796" lon="10.02016">
<ele>264.163</ele>
<time>2019-05-30T14:35:18Z</time>
</trkpt>
<trkpt lat="49.502815" lon="10.02024">
<ele>264.14</ele>
<time>2019-05-30T14:35:19Z</time>
</trkpt>
<trkpt lat="49.502831" lon="10.02032">
<ele>264.14</ele>
<time>2019-05-30T14:35:20Z</time>
</trkpt>
<trkpt lat="49.50285" lon="10.020398">
<ele>264.14</ele>
<time>2019-05-30T14:35:21Z</time>
</trkpt>
<trkpt lat="49.502861" lon="10.020476">
<ele>264.14</ele>
<time>2019-05-30T14:35:22Z</time>
</trkpt>
<trkpt lat="49.50288" lon="10.020555">
<ele>264.14</ele>
<time>2019-05-30T14:35:23Z</time>
</trkpt>
<trkpt lat="49.502895" lon="10.020632">
<ele>264.14</ele>
<time>2019-05-30T14:35:24Z</time>
</trkpt>
<trkpt lat="49.502914" lon="10.020708">
<ele>264.14</ele>
<time>2019-05-30T14:35:25Z</time>
</trkpt>
<trkpt lat="49.502926" lon="10.020784">
<ele>264.14</ele>
<time>2019-05-30T14:35:26Z</time>
</trkpt>
<trkpt lat="49.502934" lon="10.020865">
<ele>264.14</ele>
<time>2019-05-30T14:35:27Z</time>
</trkpt>
<trkpt lat="49.502937" lon="10.020946">
<ele>264.14</ele>
<time>2019-05-30T14:35:28Z</time>
</trkpt>
<trkpt lat="49.502937" lon="10.021023">
<ele>264.14</ele>
<time>2019-05-30T14:35:29Z</time>
</trkpt>
<trkpt lat="49.502934" lon="10.021103">
<ele>264.14</ele>
<time>2019-05-30T14:35:30Z</time>
</trkpt>
<trkpt lat="49.502922" lon="10.021182">
<ele>264.14</ele>
<time>2019-05-30T14:35:31Z</time>
</trkpt>
<trkpt lat="49.502914" lon="10.021258">
<ele>264.14</ele>
<time>2019-05-30T14:35:32Z</time>
</trkpt>
<trkpt lat="49.502899" lon="10.021333">
<ele>264.14</ele>
<time>2019-05-30T14:35:33Z</time>
</trkpt>
<trkpt lat="49.502884" lon="10.02141">
<ele>264.365</ele>
<time>2019-05-30T14:35:34Z</time>
</trkpt>
<trkpt lat="49.502872" lon="10.021486">
<ele>264.577</ele>
<time>2019-05-30T14:35:35Z</time>
</trkpt>
<trkpt lat="49.502857" lon="10.021565">
<ele>264.753</ele>
<time>2019-05-30T14:35:36Z</time>
</trkpt>
<trkpt lat="49.502846" lon="10.021644">
<ele>264.894</ele>
<time>2019-05-30T14:35:37Z</time>
</trkpt>
<trkpt lat="49.502827" lon="10.021725">
<ele>265.001</ele>
<time>2019-05-30T14:35:38Z</time>
</trkpt>
<trkpt lat="49.502815" lon="10.021807">
<ele>265.08</ele>
<time>2019-05-30T14:35:39Z</time>
</trkpt>
<trkpt lat="49.502796" lon="10.021889">
<ele>265.13</ele>
<time>2019-05-30T14:35:40Z</time>
</trkpt>
<trkpt lat="49.502785" lon="10.021972">
<ele>265.154</ele>
<time>2019-05-30T14:35:41Z</time>
</trkpt>
<trkpt lat="49.502766" lon="10.022056">
<ele>265.154</ele>
<time>2019-05-30T14:35:42Z</time>
</trkpt>
<trkpt lat="49.50275" lon="10.022138">
<ele>265.154</ele>
<time>2019-05-30T14:35:43Z</time>
</trkpt>
<trkpt lat="49.502731" lon="10.02222">
<ele>265.154</ele>
<time>2019-05-30T14:35:44Z</time>
</trkpt>
<trkpt lat="49.50272" lon="10.022305">
<ele>265.154</ele>
<time>2019-05-30T14:35:45Z</time>
</trkpt>
<trkpt lat="49.502705" lon="10.022388">
<ele>265.154</ele>
<time>2019-05-30T14:35:46Z</time>
</trkpt>
<trkpt lat="49.502689" lon="10.022471">
<ele>265.154</ele>
<time>2019-05-30T14:35:47Z</time>
</trkpt>
<trkpt lat="49.502674" lon="10.022556">
<ele>265.154</ele>
<time>2019-05-30T14:35:48Z</time>
</trkpt>
<trkpt lat="49.502659" lon="10.022642">
<ele>265.154</ele>
<time>2019-05-30T14:35:49Z</time>
</trkpt>
<trkpt lat="49.502647" lon="10.022724">
<ele>265.154</ele>
<time>2019-05-30T14:35:50Z</time>
</trkpt>
<trkpt lat="49.502628" lon="10.022808">
<ele>265.154</ele>
<time>2019-05-30T14:35:51Z</time>
</trkpt>
<trkpt lat="49.502613" lon="10.022892">
<ele>265.154</ele>
<time>2019-05-30T14:35:52Z</time>
</trkpt>
<trkpt lat="49.502598" lon="10.022973">
<ele>265.154</ele>
<time>2019-05-30T14:35:53Z</time>
</trkpt>
<trkpt lat="49.502586" lon="10.023057">
<ele>265.154</ele>
<time>2019-05-30T14:35:54Z</time>
</trkpt>
<trkpt lat="49.502567" lon="10.023139">
<ele>265.154</ele>
<time>2019-05-30T14:35:55Z</time>
</trkpt>
<trkpt lat="49.502556" lon="10.023218">
<ele>265.154</ele>
<time>2019-05-30T14:35:56Z</time>
</trkpt>
<trkpt lat="49.502541" lon="10.023298">
<ele>265.154</ele>
<time>2019-05-30T14:35:57Z</time>
</trkpt>
<trkpt lat="49.502525" lon="10.023374">
<ele>265.154</ele>
<time>2019-05-30T14:35:58Z</time>
</trkpt>
<trkpt lat="49.502518" lon="10.023445">
<ele>265.154</ele>
<time>2019-05-30T14:35:59Z</time>
</trkpt>
<trkpt lat="49.502506" lon="10.023517">
<ele>265.391</ele>
<time>2019-05-30T14:36:00Z</time>
</trkpt>
<trkpt lat="49.502491" lon="10.023583">
<ele>265.581</ele>
<time>2019-05-30T14:36:01Z</time>
</trkpt>
<trkpt lat="49.502483" lon="10.023648">
<ele>265.726</ele>
<time>2019-05-30T14:36:02Z</time>
</trkpt>
<trkpt lat="49.502476" lon="10.023713">
<ele>265.837</ele>
<time>2019-05-30T14:36:03Z</time>
</trkpt>
<trkpt lat="49.502464" lon="10.023776">
<ele>265.918</ele>
<time>2019-05-30T14:36:04Z</time>
</trkpt>
<trkpt lat="49.502457" lon="10.023843">
<ele>266</ele>
<time>2019-05-30T14:36:05Z</time>
</trkpt>
<trkpt lat="49.502449" lon="10.023911">
<ele>266.056</ele>
<time>2019-05-30T14:36:06Z</time>
</trkpt>
<trkpt lat="49.502441" lon="10.023979">
<ele>266.082</ele>
<time>2019-05-30T14:36:07Z</time>
</trkpt>
<trkpt lat="49.50243" lon="10.02405">
<ele>266.082</ele>
<time>2019-05-30T14:36:08Z</time>
</trkpt>
<trkpt lat="49.502422" lon="10.024121">
<ele>266.082</ele>
<time>2019-05-30T14:36:09Z</time>
</trkpt>
<trkpt lat="49.502411" lon="10.02419">
<ele>266.082</ele>
<time>2019-05-30T14:36:10Z</time>
</trkpt>
<trkpt lat="49.502399" lon="10.024257">
<ele>266.082</ele>
<time>2019-05-30T14:36:11Z</time>
</trkpt>
<trkpt lat="49.502392" lon="10.024319">
<ele>266.082</ele>
<time>2019-05-30T14:36:12Z</time>
</trkpt>
<trkpt lat="49.502377" lon="10.02438">
<ele>266.082</ele>
<time>2019-05-30T14:36:13Z</time>
</trkpt>
<trkpt lat="49.502369" lon="10.024438">
<ele>266.082</ele>
<time>2019-05-30T14:36:14Z</time>
</trkpt>
<trkpt lat="49.502361" lon="10.024497">
<ele>266.082</ele>
<time>2019-05-30T14:36:15Z</time>
</trkpt>
<trkpt lat="49.502357" lon="10.024555">
<ele>266.082</ele>
<time>2019-05-30T14:36:16Z</time>
</trkpt>
<trkpt lat="49.50235" lon="10.024615">
<ele>266.082</ele>
<time>2019-05-30T14:36:17Z</time>
</trkpt>
<trkpt lat="49.502338" lon="10.024678">
<ele>266.082</ele>
<time>2019-05-30T14:36:18Z</time>
</trkpt>
<trkpt lat="49.502327" lon="10.02474">
<ele>266.082</ele>
<time>2019-05-30T14:36:19Z</time>
</trkpt>
<trkpt lat="49.502323" lon="10.024798">
<ele>266.082</ele>
<time>2019-05-30T14:36:20Z</time>
</trkpt>
<trkpt lat="49.502316" lon="10.024855">
<ele>266.342</ele>
<time>2019-05-30T14:36:21Z</time>
</trkpt>
<trkpt lat="49.502308" lon="10.024912">
<ele>266.545</ele>
<time>2019-05-30T14:36:22Z</time>
</trkpt>
<trkpt lat="49.502296" lon="10.02497">
<ele>266.705</ele>
<time>2019-05-30T14:36:23Z</time>
</trkpt>
<trkpt lat="49.502293" lon="10.025028">
<ele>266.812</ele>
<time>2019-05-30T14:36:24Z</time>
</trkpt>
<trkpt lat="49.502281" lon="10.025087">
<ele>266.927</ele>
<time>2019-05-30T14:36:25Z</time>
</trkpt>
<trkpt lat="49.502274" lon="10.025145">
<ele>267.011</ele>
<time>2019-05-30T14:36:26Z</time>
</trkpt>
<trkpt lat="49.502262" lon="10.025205">
<ele>267.068</ele>
<time>2019-05-30T14:36:27Z</time>
</trkpt>
<trkpt lat="49.502258" lon="10.025264">
<ele>267.096</ele>
<time>2019-05-30T14:36:28Z</time>
</trkpt>
<trkpt lat="49.502247" lon="10.025322">
<ele>267.096</ele>
<time>2019-05-30T14:36:29Z</time>
</trkpt>
<trkpt lat="49.502235" lon="10.02538">
<ele>267.096</ele>
<time>2019-05-30T14:36:30Z</time>
</trkpt>
<trkpt lat="49.502232" lon="10.025438">
<ele>267.096</ele>
<time>2019-05-30T14:36:31Z</time>
</trkpt>
<trkpt lat="49.50222" lon="10.025498">
<ele>267.096</ele>
<time>2019-05-30T14:36:32Z</time>
</trkpt>
<trkpt lat="49.502209" lon="10.025558">
<ele>267.096</ele>
<time>2019-05-30T14:36:33Z</time>
</trkpt>
<trkpt lat="49.502197" lon="10.02562">
<ele>267.096</ele>
<time>2019-05-30T14:36:34Z</time>
</trkpt>
<trkpt lat="49.50219" lon="10.025683">
<ele>267.096</ele>
<time>2019-05-30T14:36:35Z</time>
</trkpt>
<trkpt lat="49.502178" lon="10.025745">
<ele>267.096</ele>
<time>2019-05-30T14:36:36Z</time>
</trkpt>
<trkpt lat="49.502167" lon="10.025808">
<ele>267.096</ele>
<time>2019-05-30T14:36:37Z</time>
</trkpt>
<trkpt lat="49.502155" lon="10.025871">
<ele>267.096</ele>
<time>2019-05-30T14:36:38Z</time>
</trkpt>
<trkpt lat="49.502144" lon="10.025935">
<ele>267.096</ele>
<time>2019-05-30T14:36:39Z</time>
</trkpt>
<trkpt lat="49.502136" lon="10.025998">
<ele>267.096</ele>
<time>2019-05-30T14:36:40Z</time>
</trkpt>
<trkpt lat="49.502125" lon="10.02606">
<ele>267.096</ele>
<time>2019-05-30T14:36:41Z</time>
</trkpt>
<trkpt lat="49.502113" lon="10.02612">
<ele>267.096</ele>
<time>2019-05-30T14:36:42Z</time>
</trkpt>
<trkpt lat="49.502098" lon="10.02618">
<ele>267.361</ele>
<time>2019-05-30T14:36:43Z</time>
</trkpt>
<trkpt lat="49.50209" lon="10.026239">
<ele>267.551</ele>
<time>2019-05-30T14:36:44Z</time>
</trkpt>
<trkpt lat="49.502075" lon="10.026302">
<ele>267.745</ele>
<time>2019-05-30T14:36:45Z</time>
</trkpt>
<trkpt lat="49.502064" lon="10.026363">
<ele>267.902</ele>
<time>2019-05-30T14:36:46Z</time>
</trkpt>
<trkpt lat="49.502048" lon="10.026422">
<ele>268.023</ele>
<time>2019-05-30T14:36:47Z</time>
</trkpt>
<trkpt lat="49.502033" lon="10.026482">
<ele>268.11</ele>
<time>2019-05-30T14:36:48Z</time>
</trkpt>
<trkpt lat="49.502022" lon="10.026544">
<ele>268.166</ele>
<time>2019-05-30T14:36:49Z</time>
</trkpt>
<trkpt lat="49.502007" lon="10.026607">
<ele>268.194</ele>
<time>2019-05-30T14:36:50Z</time>
</trkpt>
<trkpt lat="49.501995" lon="10.026669">
<ele>268.194</ele>
<time>2019-05-30T14:36:51Z</time>
</trkpt>
<trkpt lat="49.50198" lon="10.02673">
<ele>268.194</ele>
<time>2019-05-30T14:36:52Z</time>
</trkpt>
<trkpt lat="49.501965" lon="10.026791">
<ele>268.194</ele>
<time>2019-05-30T14:36:53Z</time>
</trkpt>
<trkpt lat="49.501949" lon="10.026849">
<ele>268.194</ele>
<time>2019-05-30T14:36:54Z</time>
</trkpt>
<trkpt lat="49.501938" lon="10.026905">
<ele>268.194</ele>
<time>2019-05-30T14:36:55Z</time>
</trkpt>
<trkpt lat="49.501923" lon="10.026963">
<ele>268.194</ele>
<time>2019-05-30T14:36:56Z</time>
</trkpt>
<trkpt lat="49.501907" lon="10.027021">
<ele>268.194</ele>
<time>2019-05-30T14:36:57Z</time>
</trkpt>
<trkpt lat="49.5019" lon="10.027078">
<ele>268.194</ele>
<time>2019-05-30T14:36:58Z</time>
</trkpt>
<trkpt lat="49.501884" lon="10.027139">
<ele>268.194</ele>
<time>2019-05-30T14:36:59Z</time>
</trkpt>
<trkpt lat="49.501873" lon="10.027199">
<ele>268.194</ele>
<time>2019-05-30T14:37:00Z</time>
</trkpt>
<trkpt lat="49.501858" lon="10.027256">
<ele>268.194</ele>
<time>2019-05-30T14:37:01Z</time>
</trkpt>
<trkpt lat="49.501842" lon="10.027319">
<ele>268.194</ele>
<time>2019-05-30T14:37:02Z</time>
</trkpt>
<trkpt lat="49.501831" lon="10.027378">
<ele>268.194</ele>
<time>2019-05-30T14:37:03Z</time>
</trkpt>
<trkpt lat="49.50182" lon="10.027438">
<ele>268.194</ele>
<time>2019-05-30T14:37:04Z</time>
</trkpt>
<trkpt lat="49.501804" lon="10.027498">
<ele>268.442</ele>
<time>2019-05-30T14:37:05Z</time>
</trkpt>
<trkpt lat="49.501789" lon="10.027557">
<ele>268.65</ele>
<time>2019-05-30T14:37:06Z</time>
</trkpt>
<trkpt lat="49.501774" lon="10.027614">
<ele>268.817</ele>
<time>2019-05-30T14:37:07Z</time>
</trkpt>
<trkpt lat="49.501762" lon="10.02767">
<ele>268.953</ele>
<time>2019-05-30T14:37:08Z</time>
</trkpt>
<trkpt lat="49.501751" lon="10.027727">
<ele>269.058</ele>
<time>2019-05-30T14:37:09Z</time>
</trkpt>
<trkpt lat="49.50174" lon="10.027785">
<ele>269.133</ele>
<time>2019-05-30T14:37:10Z</time>
</trkpt>
<trkpt lat="49.501732" lon="10.027843">
<ele>269.183</ele>
<time>2019-05-30T14:37:11Z</time>
</trkpt>
<trkpt lat="49.50172" lon="10.027905">
<ele>269.207</ele>
<time>2019-05-30T14:37:12Z</time>
</trkpt>
<trkpt lat="49.501709" lon="10.027966">
<ele>269.207</ele>
<time>2019-05-30T14:37:13Z</time>
</trkpt>
<trkpt lat="49.501701" lon="10.02803">
<ele>269.207</ele>
<time>2019-05-30T14:37:14Z</time>
</trkpt>
<trkpt lat="49.50169" lon="10.028093">
<ele>269.207</ele>
<time>2019-05-30T14:37:15Z</time>
</trkpt>
<trkpt lat="49.501682" lon="10.028154">
<ele>269.207</ele>
<time>2019-05-30T14:37:16Z</time>
</trkpt>
<trkpt lat="49.501675" lon="10.028222">
<ele>269.207</ele>
<time>2019-05-30T14:37:17Z</time>
</trkpt>
<trkpt lat="49.501667" lon="10.028287">
<ele>269.207</ele>
<time>2019-05-30T14:37:18Z</time>
</trkpt>
<trkpt lat="49.501659" lon="10.028352">
<ele>269.207</ele>
<time>2019-05-30T14:37:19Z</time>
</trkpt>
<trkpt lat="49.501648" lon="10.028419">
<ele>269.207</ele>
<time>2019-05-30T14:37:20Z</time>
</trkpt>
<trkpt lat="49.501644" lon="10.028483">
<ele>269.207</ele>
<time>2019-05-30T14:37:21Z</time>
</trkpt>
<trkpt lat="49.501637" lon="10.02855">
<ele>269.207</ele>
<time>2019-05-30T14:37:22Z</time>
</trkpt>
<trkpt lat="49.501629" lon="10.028613">
<ele>269.207</ele>
<time>2019-05-30T14:37:23Z</time>
</trkpt>
<trkpt lat="49.501621" lon="10.028676">
<ele>269.207</ele>
<time>2019-05-30T14:37:24Z</time>
</trkpt>
<trkpt lat="49.501614" lon="10.028744">
<ele>269.207</ele>
<time>2019-05-30T14:37:25Z</time>
</trkpt>
<trkpt lat="49.50161" lon="10.028811">
<ele>269.207</ele>
<time>2019-05-30T14:37:26Z</time>
</trkpt>
<trkpt lat="49.501606" lon="10.028877">
<ele>269.207</ele>
<time>2019-05-30T14:37:27Z</time>
</trkpt>
<trkpt lat="49.501595" lon="10.028942">
<ele>269.207</ele>
<time>2019-05-30T14:37:28Z</time>
</trkpt>
<trkpt lat="49.501583" lon="10.029008">
<ele>269.207</ele>
<time>2019-05-30T14:37:29Z</time>
</trkpt>
<trkpt lat="49.501572" lon="10.029075">
<ele>269.207</ele>
<time>2019-05-30T14:37:30Z</time>
</trkpt>
<trkpt lat="49.501556" lon="10.029141">
<ele>269.207</ele>
<time>2019-05-30T14:37:31Z</time>
</trkpt>
<trkpt lat="49.501545" lon="10.02921">
<ele>269.207</ele>
<time>2019-05-30T14:37:32Z</time>
</trkpt>
<trkpt lat="49.50153" lon="10.029278">
<ele>269.207</ele>
<time>2019-05-30T14:37:33Z</time>
</trkpt>
<trkpt lat="49.501518" lon="10.029345">
<ele>269.207</ele>
<time>2019-05-30T14:37:34Z</time>
</trkpt>
<trkpt lat="49.501511" lon="10.029411">
<ele>269.435</ele>
<time>2019-05-30T14:37:35Z</time>
</trkpt>
<trkpt lat="49.501499" lon="10.029476">
<ele>269.624</ele>
<time>2019-05-30T14:37:36Z</time>
</trkpt>
<trkpt lat="49.501492" lon="10.029542">
<ele>269.778</ele>
<time>2019-05-30T14:37:37Z</time>
</trkpt>
<trkpt lat="49.50148" lon="10.029607">
<ele>269.901</ele>
<time>2019-05-30T14:37:38Z</time>
</trkpt>
<trkpt lat="49.501476" lon="10.02967">
<ele>269.997</ele>
<time>2019-05-30T14:37:39Z</time>
</trkpt>
<trkpt lat="49.501469" lon="10.029734">
<ele>270.067</ele>
<time>2019-05-30T14:37:40Z</time>
</trkpt>
<trkpt lat="49.501461" lon="10.029799">
<ele>270.113</ele>
<time>2019-05-30T14:37:41Z</time>
</trkpt>
<trkpt lat="49.501453" lon="10.029864">
<ele>270.136</ele>
<time>2019-05-30T14:37:42Z</time>
</trkpt>
<trkpt lat="49.501446" lon="10.029929">
<ele>270.136</ele>
<time>2019-05-30T14:37:43Z</time>
</trkpt>
<trkpt lat="49.501442" lon="10.029997">
<ele>270.136</ele>
<time>2019-05-30T14:37:44Z</time>
</trkpt>
<trkpt lat="49.501434" lon="10.030064">
<ele>270.136</ele>
<time>2019-05-30T14:37:45Z</time>
</trkpt>
<trkpt lat="49.501423" lon="10.030132">
<ele>270.136</ele>
<time>2019-05-30T14:37:46Z</time>
</trkpt>
<trkpt lat="49.501415" lon="10.0302">
<ele>270.136</ele>
<time>2019-05-30T14:37:47Z</time>
</trkpt>
<trkpt lat="49.501408" lon="10.030271">
<ele>270.4</ele>
<time>2019-05-30T14:37:48Z</time>
</trkpt>
<trkpt lat="49.501404" lon="10.03034">
<ele>270.606</ele>
<time>2019-05-30T14:37:49Z</time>
</trkpt>
<trkpt lat="49.501392" lon="10.030412">
<ele>270.757</ele>
<time>2019-05-30T14:37:50Z</time>
</trkpt>
<trkpt lat="49.501385" lon="10.030482">
<ele>270.87</ele>
<time>2019-05-30T14:37:51Z</time>
</trkpt>
<trkpt lat="49.501381" lon="10.030552">
<ele>270.948</ele>
<time>2019-05-30T14:37:52Z</time>
</trkpt>
<trkpt lat="49.501373" lon="10.030621">
<ele>271.001</ele>
<time>2019-05-30T14:37:53Z</time>
</trkpt>
<trkpt lat="49.501366" lon="10.030692">
<ele>271.04</ele>
<time>2019-05-30T14:37:54Z</time>
</trkpt>
<trkpt lat="49.501362" lon="10.030766">
<ele>271.065</ele>
<time>2019-05-30T14:37:55Z</time>
</trkpt>
<trkpt lat="49.501354" lon="10.030842">
<ele>271.065</ele>
<time>2019-05-30T14:37:56Z</time>
</trkpt>
<trkpt lat="49.50135" lon="10.03092">
<ele>271.065</ele>
<time>2019-05-30T14:37:57Z</time>
</trkpt>
<trkpt lat="49.501343" lon="10.030998">
<ele>271.065</ele>
<time>2019-05-30T14:37:58Z</time>
</trkpt>
<trkpt lat="49.501339" lon="10.031079">
<ele>271.065</ele>
<time>2019-05-30T14:37:59Z</time>
</trkpt>
<trkpt lat="49.501331" lon="10.031161">
<ele>271.065</ele>
<time>2019-05-30T14:38:00Z</time>
</trkpt>
<trkpt lat="49.501328" lon="10.031243">
<ele>271.065</ele>
<time>2019-05-30T14:38:01Z</time>
</trkpt>
<trkpt lat="49.501324" lon="10.031326">
<ele>271.065</ele>
<time>2019-05-30T14:38:02Z</time>
</trkpt>
<trkpt lat="49.50132" lon="10.031408">
<ele>271.065</ele>
<time>2019-05-30T14:38:03Z</time>
</trkpt>
<trkpt lat="49.501324" lon="10.031488">
<ele>271.065</ele>
<time>2019-05-30T14:38:04Z</time>
</trkpt>
<trkpt lat="49.501324" lon="10.031569">
<ele>271.065</ele>
<time>2019-05-30T14:38:05Z</time>
</trkpt>
<trkpt lat="49.501324" lon="10.031655">
<ele>271.065</ele>
<time>2019-05-30T14:38:06Z</time>
</trkpt>
<trkpt lat="49.501328" lon="10.031738">
<ele>271.065</ele>
<time>2019-05-30T14:38:07Z</time>
</trkpt>
<trkpt lat="49.501328" lon="10.031825">
<ele>271.065</ele>
<time>2019-05-30T14:38:08Z</time>
</trkpt>
<trkpt lat="49.501331" lon="10.031913">
<ele>271.065</ele>
<time>2019-05-30T14:38:09Z</time>
</trkpt>
<trkpt lat="49.501331" lon="10.032">
<ele>271.065</ele>
<time>2019-05-30T14:38:10Z</time>
</trkpt>
<trkpt lat="49.501331" lon="10.032088">
<ele>271.065</ele>
<time>2019-05-30T14:38:11Z</time>
</trkpt>
<trkpt lat="49.501331" lon="10.032177">
<ele>271.065</ele>
<time>2019-05-30T14:38:12Z</time>
</trkpt>
<trkpt lat="49.501328" lon="10.032265">
<ele>271.065</ele>
<time>2019-05-30T14:38:13Z</time>
</trkpt>
<trkpt lat="49.501324" lon="10.03235">
<ele>271.065</ele>
<time>2019-05-30T14:38:14Z</time>
</trkpt>
<trkpt lat="49.501316" lon="10.032435">
<ele>271.065</ele>
<time>2019-05-30T14:38:15Z</time>
</trkpt>
<trkpt lat="49.501308" lon="10.032518">
<ele>271.065</ele>
<time>2019-05-30T14:38:16Z</time>
</trkpt>
<trkpt lat="49.501293" lon="10.032602">
<ele>271.065</ele>
<time>2019-05-30T14:38:17Z</time>
</trkpt>
<trkpt lat="49.501286" lon="10.032683">
<ele>271.065</ele>
<time>2019-05-30T14:38:18Z</time>
</trkpt>
<trkpt lat="49.50127" lon="10.032758">
<ele>271.065</ele>
<time>2019-05-30T14:38:19Z</time>
</trkpt>
<trkpt lat="49.501259" lon="10.032837">
<ele>271.065</ele>
<time>2019-05-30T14:38:20Z</time>
</trkpt>
<trkpt lat="49.501244" lon="10.032915">
<ele>271.278</ele>
<time>2019-05-30T14:38:21Z</time>
</trkpt>
<trkpt lat="49.501228" lon="10.032998">
<ele>271.448</ele>
<time>2019-05-30T14:38:22Z</time>
</trkpt>
<trkpt lat="49.501217" lon="10.033083">
<ele>271.582</ele>
<time>2019-05-30T14:38:23Z</time>
</trkpt>
<trkpt lat="49.501198" lon="10.03317">
<ele>271.673</ele>
<time>2019-05-30T14:38:24Z</time>
</trkpt>
<trkpt lat="49.501179" lon="10.033257">
<ele>271.773</ele>
<time>2019-05-30T14:38:25Z</time>
</trkpt>
<trkpt lat="49.50116" lon="10.033343">
<ele>271.845</ele>
<time>2019-05-30T14:38:26Z</time>
</trkpt>
<trkpt lat="49.501141" lon="10.033425">
<ele>271.891</ele>
<time>2019-05-30T14:38:27Z</time>
</trkpt>
<trkpt lat="49.501122" lon="10.033507">
<ele>271.911</ele>
<time>2019-05-30T14:38:28Z</time>
</trkpt>
<trkpt lat="49.501099" lon="10.033585">
<ele>271.911</ele>
<time>2019-05-30T14:38:29Z</time>
</trkpt>
<trkpt lat="49.50108" lon="10.03366">
<ele>271.911</ele>
<time>2019-05-30T14:38:30Z</time>
</trkpt>
<trkpt lat="49.50106" lon="10.033733">
<ele>271.911</ele>
<time>2019-05-30T14:38:31Z</time>
</trkpt>
<trkpt lat="49.501045" lon="10.033805">
<ele>271.911</ele>
<time>2019-05-30T14:38:32Z</time>
</trkpt>
<trkpt lat="49.501026" lon="10.033872">
<ele>271.911</ele>
<time>2019-05-30T14:38:33Z</time>
</trkpt>
<trkpt lat="49.501011" lon="10.033937">
<ele>272.11</ele>
<time>2019-05-30T14:38:34Z</time>
</trkpt>
<trkpt lat="49.500996" lon="10.034003">
<ele>272.299</ele>
<time>2019-05-30T14:38:35Z</time>
</trkpt>
<trkpt lat="49.500984" lon="10.034067">
<ele>272.439</ele>
<time>2019-05-30T14:38:36Z</time>
</trkpt>
<trkpt lat="49.500973" lon="10.03413">
<ele>272.772</ele>
<time>2019-05-30T14:38:37Z</time>
</trkpt>
<trkpt lat="49.500961" lon="10.034195">
<ele>273.049</ele>
<time>2019-05-30T14:38:38Z</time>
</trkpt>
<trkpt lat="49.500957" lon="10.034262">
<ele>273.271</ele>
<time>2019-05-30T14:38:39Z</time>
</trkpt>
<trkpt lat="49.500957" lon="10.034327">
<ele>273.414</ele>
<time>2019-05-30T14:38:40Z</time>
</trkpt>
<trkpt lat="49.500957" lon="10.034389">
<ele>273.786</ele>
<time>2019-05-30T14:38:41Z</time>
</trkpt>
<trkpt lat="49.500961" lon="10.034451">
<ele>274.097</ele>
<time>2019-05-30T14:38:42Z</time>
</trkpt>
<trkpt lat="49.500973" lon="10.034509">
<ele>274.247</ele>
<time>2019-05-30T14:38:43Z</time>
</trkpt>
<trkpt lat="49.500988" lon="10.034563">
<ele>274.672</ele>
<time>2019-05-30T14:38:44Z</time>
</trkpt>
<trkpt lat="49.500999" lon="10.034618">
<ele>275.033</ele>
<time>2019-05-30T14:38:45Z</time>
</trkpt>
<trkpt lat="49.501019" lon="10.034672">
<ele>275.29</ele>
<time>2019-05-30T14:38:46Z</time>
</trkpt>
<trkpt lat="49.501041" lon="10.03472">
<ele>275.724</ele>
<time>2019-05-30T14:38:47Z</time>
</trkpt>
<trkpt lat="49.50106" lon="10.034763">
<ele>276.061</ele>
<time>2019-05-30T14:38:48Z</time>
</trkpt>
<trkpt lat="49.501087" lon="10.034799">
<ele>276.303</ele>
<time>2019-05-30T14:38:49Z</time>
</trkpt>
<trkpt lat="49.501118" lon="10.034834">
<ele>276.482</ele>
<time>2019-05-30T14:38:50Z</time>
</trkpt>
<trkpt lat="49.501144" lon="10.034867">
<ele>276.601</ele>
<time>2019-05-30T14:38:51Z</time>
</trkpt>
<trkpt lat="49.501175" lon="10.034899">
<ele>276.685</ele>
<time>2019-05-30T14:38:52Z</time>
</trkpt>
<trkpt lat="49.501202" lon="10.034928">
<ele>276.703</ele>
<time>2019-05-30T14:38:53Z</time>
</trkpt>
<trkpt lat="49.501236" lon="10.034953">
<ele>276.932</ele>
<time>2019-05-30T14:38:54Z</time>
</trkpt>
<trkpt lat="49.50127" lon="10.034975">
<ele>277.129</ele>
<time>2019-05-30T14:38:55Z</time>
</trkpt>
<trkpt lat="49.501305" lon="10.034993">
<ele>277.293</ele>
<time>2019-05-30T14:38:56Z</time>
</trkpt>
<trkpt lat="49.501339" lon="10.035011">
<ele>277.424</ele>
<time>2019-05-30T14:38:57Z</time>
</trkpt>
<trkpt lat="49.501377" lon="10.035027">
<ele>277.52</ele>
<time>2019-05-30T14:38:58Z</time>
</trkpt>
<trkpt lat="49.501411" lon="10.035042">
<ele>277.59</ele>
<time>2019-05-30T14:38:59Z</time>
</trkpt>
<trkpt lat="49.501446" lon="10.035056">
<ele>277.635</ele>
<time>2019-05-30T14:39:00Z</time>
</trkpt>
<trkpt lat="49.50148" lon="10.03507">
<ele>277.657</ele>
<time>2019-05-30T14:39:01Z</time>
</trkpt>
<trkpt lat="49.501514" lon="10.035081">
<ele>277.657</ele>
<time>2019-05-30T14:39:02Z</time>
</trkpt>
<trkpt lat="49.501549" lon="10.035095">
<ele>277.657</ele>
<time>2019-05-30T14:39:03Z</time>
</trkpt>
<trkpt lat="49.501587" lon="10.035107">
<ele>277.657</ele>
<time>2019-05-30T14:39:04Z</time>
</trkpt>
<trkpt lat="49.501621" lon="10.035118">
<ele>277.884</ele>
<time>2019-05-30T14:39:05Z</time>
</trkpt>
<trkpt lat="49.501659" lon="10.035133">
<ele>278.075</ele>
<time>2019-05-30T14:39:06Z</time>
</trkpt>
<trkpt lat="49.501694" lon="10.035151">
<ele>278.232</ele>
<time>2019-05-30T14:39:07Z</time>
</trkpt>
<trkpt lat="49.501732" lon="10.035165">
<ele>278.357</ele>
<time>2019-05-30T14:39:08Z</time>
</trkpt>
<trkpt lat="49.50177" lon="10.035178">
<ele>278.456</ele>
<time>2019-05-30T14:39:09Z</time>
</trkpt>
<trkpt lat="49.501808" lon="10.035192">
<ele>278.523</ele>
<time>2019-05-30T14:39:10Z</time>
</trkpt>
<trkpt lat="49.501846" lon="10.035203">
<ele>278.566</ele>
<time>2019-05-30T14:39:11Z</time>
</trkpt>
<trkpt lat="49.501884" lon="10.035219">
<ele>278.587</ele>
<time>2019-05-30T14:39:12Z</time>
</trkpt>
<trkpt lat="49.501926" lon="10.035235">
<ele>278.587</ele>
<time>2019-05-30T14:39:13Z</time>
</trkpt>
<trkpt lat="49.501965" lon="10.035254">
<ele>278.587</ele>
<time>2019-05-30T14:39:14Z</time>
</trkpt>
<trkpt lat="49.502003" lon="10.035272">
<ele>278.587</ele>
<time>2019-05-30T14:39:15Z</time>
</trkpt>
<trkpt lat="49.502041" lon="10.03529">
<ele>278.587</ele>
<time>2019-05-30T14:39:16Z</time>
</trkpt>
<trkpt lat="49.502083" lon="10.035309">
<ele>278.587</ele>
<time>2019-05-30T14:39:17Z</time>
</trkpt>
<trkpt lat="49.502125" lon="10.035325">
<ele>278.587</ele>
<time>2019-05-30T14:39:18Z</time>
</trkpt>
<trkpt lat="49.502163" lon="10.035343">
<ele>278.587</ele>
<time>2019-05-30T14:39:19Z</time>
</trkpt>
<trkpt lat="49.502205" lon="10.035363">
<ele>278.587</ele>
<time>2019-05-30T14:39:20Z</time>
</trkpt>
<trkpt lat="49.502247" lon="10.035387">
<ele>278.587</ele>
<time>2019-05-30T14:39:21Z</time>
</trkpt>
<trkpt lat="49.502289" lon="10.035408">
<ele>278.587</ele>
<time>2019-05-30T14:39:22Z</time>
</trkpt>
<trkpt lat="49.502327" lon="10.035431">
<ele>278.587</ele>
<time>2019-05-30T14:39:23Z</time>
</trkpt>
<trkpt lat="49.502369" lon="10.035457">
<ele>278.587</ele>
<time>2019-05-30T14:39:24Z</time>
</trkpt>
<trkpt lat="49.502407" lon="10.035487">
<ele>278.587</ele>
<time>2019-05-30T14:39:25Z</time>
</trkpt>
<trkpt lat="49.502449" lon="10.035519">
<ele>278.587</ele>
<time>2019-05-30T14:39:26Z</time>
</trkpt>
<trkpt lat="49.502487" lon="10.035552">
<ele>278.587</ele>
<time>2019-05-30T14:39:27Z</time>
</trkpt>
<trkpt lat="49.502525" lon="10.035588">
<ele>278.587</ele>
<time>2019-05-30T14:39:28Z</time>
</trkpt>
<trkpt lat="49.50256" lon="10.035626">
<ele>278.587</ele>
<time>2019-05-30T14:39:29Z</time>
</trkpt>
<trkpt lat="49.502594" lon="10.035668">
<ele>278.587</ele>
<time>2019-05-30T14:39:30Z</time>
</trkpt>
<trkpt lat="49.502632" lon="10.035713">
<ele>278.587</ele>
<time>2019-05-30T14:39:31Z</time>
</trkpt>
<trkpt lat="49.502663" lon="10.03576">
<ele>278.801</ele>
<time>2019-05-30T14:39:32Z</time>
</trkpt>
<trkpt lat="49.502697" lon="10.035809">
<ele>278.968</ele>
<time>2019-05-30T14:39:33Z</time>
</trkpt>
<trkpt lat="49.502728" lon="10.035858">
<ele>279.083</ele>
<time>2019-05-30T14:39:34Z</time>
</trkpt>
<trkpt lat="49.502758" lon="10.035912">
<ele>279.206</ele>
<time>2019-05-30T14:39:35Z</time>
</trkpt>
<trkpt lat="49.502785" lon="10.035967">
<ele>279.3</ele>
<time>2019-05-30T14:39:36Z</time>
</trkpt>
<trkpt lat="49.502808" lon="10.036021">
<ele>279.368</ele>
<time>2019-05-30T14:39:37Z</time>
</trkpt>
<trkpt lat="49.502834" lon="10.036077">
<ele>279.412</ele>
<time>2019-05-30T14:39:38Z</time>
</trkpt>
<trkpt lat="49.502853" lon="10.036135">
<ele>279.433</ele>
<time>2019-05-30T14:39:39Z</time>
</trkpt>
<trkpt lat="49.502876" lon="10.036194">
<ele>279.433</ele>
<time>2019-05-30T14:39:40Z</time>
</trkpt>
<trkpt lat="49.502892" lon="10.036254">
<ele>279.433</ele>
<time>2019-05-30T14:39:41Z</time>
</trkpt>
<trkpt lat="49.502914" lon="10.036315">
<ele>279.433</ele>
<time>2019-05-30T14:39:42Z</time>
</trkpt>
<trkpt lat="49.502926" lon="10.036376">
<ele>279.433</ele>
<time>2019-05-30T14:39:43Z</time>
</trkpt>
<trkpt lat="49.502941" lon="10.03644">
<ele>279.433</ele>
<time>2019-05-30T14:39:44Z</time>
</trkpt>
<trkpt lat="49.502949" lon="10.036506">
<ele>279.433</ele>
<time>2019-05-30T14:39:45Z</time>
</trkpt>
<trkpt lat="49.50296" lon="10.036569">
<ele>279.433</ele>
<time>2019-05-30T14:39:46Z</time>
</trkpt>
<trkpt lat="49.502972" lon="10.036637">
<ele>279.433</ele>
<time>2019-05-30T14:39:47Z</time>
</trkpt>
<trkpt lat="49.502983" lon="10.036705">
<ele>279.433</ele>
<time>2019-05-30T14:39:48Z</time>
</trkpt>
<trkpt lat="49.502995" lon="10.036776">
<ele>279.69</ele>
<time>2019-05-30T14:39:49Z</time>
</trkpt>
<trkpt lat="49.503006" lon="10.036845">
<ele>279.89</ele>
<time>2019-05-30T14:39:50Z</time>
</trkpt>
<trkpt lat="49.503014" lon="10.036919">
<ele>280.043</ele>
<time>2019-05-30T14:39:51Z</time>
</trkpt>
<trkpt lat="49.503014" lon="10.036994">
<ele>280.151</ele>
<time>2019-05-30T14:39:52Z</time>
</trkpt>
<trkpt lat="49.503025" lon="10.037069">
<ele>280.232</ele>
<time>2019-05-30T14:39:53Z</time>
</trkpt>
<trkpt lat="49.503033" lon="10.037147">
<ele>280.29</ele>
<time>2019-05-30T14:39:54Z</time>
</trkpt>
<trkpt lat="49.50304" lon="10.037224">
<ele>280.339</ele>
<time>2019-05-30T14:39:55Z</time>
</trkpt>
<trkpt lat="49.503048" lon="10.037297">
<ele>280.363</ele>
<time>2019-05-30T14:39:56Z</time>
</trkpt>
<trkpt lat="49.503056" lon="10.037369">
<ele>280.363</ele>
<time>2019-05-30T14:39:57Z</time>
</trkpt>
<trkpt lat="49.503059" lon="10.03744">
<ele>280.363</ele>
<time>2019-05-30T14:39:58Z</time>
</trkpt>
<trkpt lat="49.503063" lon="10.037518">
<ele>280.363</ele>
<time>2019-05-30T14:39:59Z</time>
</trkpt>
<trkpt lat="49.503067" lon="10.037591">
<ele>280.363</ele>
<time>2019-05-30T14:40:00Z</time>
</trkpt>
<trkpt lat="49.503075" lon="10.03767">
<ele>280.363</ele>
<time>2019-05-30T14:40:01Z</time>
</trkpt>
<trkpt lat="49.503078" lon="10.037746">
<ele>280.363</ele>
<time>2019-05-30T14:40:02Z</time>
</trkpt>
<trkpt lat="49.503082" lon="10.037824">
<ele>280.363</ele>
<time>2019-05-30T14:40:03Z</time>
</trkpt>
<trkpt lat="49.50309" lon="10.037899">
<ele>280.363</ele>
<time>2019-05-30T14:40:04Z</time>
</trkpt>
<trkpt lat="49.503098" lon="10.037974">
<ele>280.363</ele>
<time>2019-05-30T14:40:05Z</time>
</trkpt>
<trkpt lat="49.503109" lon="10.038052">
<ele>280.363</ele>
<time>2019-05-30T14:40:06Z</time>
</trkpt>
<trkpt lat="49.503117" lon="10.038132">
<ele>280.067</ele>
<time>2019-05-30T14:40:07Z</time>
</trkpt>
<trkpt lat="49.50312" lon="10.038212">
<ele>279.84</ele>
<time>2019-05-30T14:40:08Z</time>
</trkpt>
<trkpt lat="49.503124" lon="10.038292">
<ele>279.666</ele>
<time>2019-05-30T14:40:09Z</time>
</trkpt>
<trkpt lat="49.503136" lon="10.03837">
<ele>279.542</ele>
<time>2019-05-30T14:40:10Z</time>
</trkpt>
<trkpt lat="49.503143" lon="10.038448">
<ele>279.454</ele>
<time>2019-05-30T14:40:11Z</time>
</trkpt>
<trkpt lat="49.503162" lon="10.038526">
<ele>279.401</ele>
<time>2019-05-30T14:40:12Z</time>
</trkpt>
<trkpt lat="49.503178" lon="10.038601">
<ele>279.371</ele>
<time>2019-05-30T14:40:13Z</time>
</trkpt>
<trkpt lat="49.503201" lon="10.03868">
<ele>279.348</ele>
<time>2019-05-30T14:40:14Z</time>
</trkpt>
<trkpt lat="49.503216" lon="10.038756">
<ele>279.348</ele>
<time>2019-05-30T14:40:15Z</time>
</trkpt>
<trkpt lat="49.503239" lon="10.038834">
<ele>279.348</ele>
<time>2019-05-30T14:40:16Z</time>
</trkpt>
<trkpt lat="49.503254" lon="10.038907">
<ele>279.348</ele>
<time>2019-05-30T14:40:17Z</time>
</trkpt>
<trkpt lat="49.503273" lon="10.038979">
<ele>279.111</ele>
<time>2019-05-30T14:40:18Z</time>
</trkpt>
<trkpt lat="49.503292" lon="10.039055">
<ele>278.929</ele>
<time>2019-05-30T14:40:19Z</time>
</trkpt>
<trkpt lat="49.503307" lon="10.03913">
<ele>278.789</ele>
<time>2019-05-30T14:40:20Z</time>
</trkpt>
<trkpt lat="49.50333" lon="10.039202">
<ele>278.686</ele>
<time>2019-05-30T14:40:21Z</time>
</trkpt>
<trkpt lat="49.503353" lon="10.039271">
<ele>278.614</ele>
<time>2019-05-30T14:40:22Z</time>
</trkpt>
<trkpt lat="49.503384" lon="10.039338">
<ele>278.565</ele>
<time>2019-05-30T14:40:23Z</time>
</trkpt>
<trkpt lat="49.503422" lon="10.039401">
<ele>278.527</ele>
<time>2019-05-30T14:40:24Z</time>
</trkpt>
<trkpt lat="49.503452" lon="10.039465">
<ele>278.503</ele>
<time>2019-05-30T14:40:25Z</time>
</trkpt>
<trkpt lat="49.503494" lon="10.039525">
<ele>278.503</ele>
<time>2019-05-30T14:40:26Z</time>
</trkpt>
<trkpt lat="49.503532" lon="10.039587">
<ele>278.503</ele>
<time>2019-05-30T14:40:27Z</time>
</trkpt>
<trkpt lat="49.503571" lon="10.03964">
<ele>278.503</ele>
<time>2019-05-30T14:40:28Z</time>
</trkpt>
<trkpt lat="49.503613" lon="10.039693">
<ele>278.503</ele>
<time>2019-05-30T14:40:29Z</time>
</trkpt>
<trkpt lat="49.503651" lon="10.039742">
<ele>278.503</ele>
<time>2019-05-30T14:40:30Z</time>
</trkpt>
<trkpt lat="49.503696" lon="10.039786">
<ele>278.503</ele>
<time>2019-05-30T14:40:31Z</time>
</trkpt>
<trkpt lat="49.503742" lon="10.039842">
<ele>278.503</ele>
<time>2019-05-30T14:40:32Z</time>
</trkpt>
<trkpt lat="49.503792" lon="10.039889">
<ele>278.503</ele>
<time>2019-05-30T14:40:33Z</time>
</trkpt>
<trkpt lat="49.50386" lon="10.039937">
<ele>278.503</ele>
<time>2019-05-30T14:40:34Z</time>
</trkpt>
<trkpt lat="49.503933" lon="10.039989">
<ele>278.503</ele>
<time>2019-05-30T14:40:35Z</time>
</trkpt>
<trkpt lat="49.504013" lon="10.04004">
<ele>278.503</ele>
<time>2019-05-30T14:40:36Z</time>
</trkpt>
<trkpt lat="49.504074" lon="10.040089">
<ele>278.503</ele>
<time>2019-05-30T14:40:37Z</time>
</trkpt>
<trkpt lat="49.504128" lon="10.040134">
<ele>278.503</ele>
<time>2019-05-30T14:40:38Z</time>
</trkpt>
<trkpt lat="49.504185" lon="10.04018">
<ele>278.503</ele>
<time>2019-05-30T14:40:39Z</time>
</trkpt>
<trkpt lat="49.504246" lon="10.040225">
<ele>278.503</ele>
<time>2019-05-30T14:40:40Z</time>
</trkpt>
<trkpt lat="49.504303" lon="10.04025">
<ele>278.503</ele>
<time>2019-05-30T14:40:41Z</time>
</trkpt>
<trkpt lat="49.50436" lon="10.040275">
<ele>278.503</ele>
<time>2019-05-30T14:40:42Z</time>
</trkpt>
<trkpt lat="49.504414" lon="10.040312">
<ele>278.503</ele>
<time>2019-05-30T14:40:43Z</time>
</trkpt>
<trkpt lat="49.504467" lon="10.04035">
<ele>278.503</ele>
<time>2019-05-30T14:40:44Z</time>
</trkpt>
<trkpt lat="49.504517" lon="10.040386">
<ele>278.702</ele>
<time>2019-05-30T14:40:45Z</time>
</trkpt>
<trkpt lat="49.50457" lon="10.040427">
<ele>278.874</ele>
<time>2019-05-30T14:40:46Z</time>
</trkpt>
<trkpt lat="49.50462" lon="10.040468">
<ele>279.015</ele>
<time>2019-05-30T14:40:47Z</time>
</trkpt>
<trkpt lat="49.504673" lon="10.040511">
<ele>279.131</ele>
<time>2019-05-30T14:40:48Z</time>
</trkpt>
<trkpt lat="49.504719" lon="10.040548">
<ele>279.223</ele>
<time>2019-05-30T14:40:49Z</time>
</trkpt>
<trkpt lat="49.504768" lon="10.040582">
<ele>279.287</ele>
<time>2019-05-30T14:40:50Z</time>
</trkpt>
<trkpt lat="49.504814" lon="10.040614">
<ele>279.329</ele>
<time>2019-05-30T14:40:51Z</time>
</trkpt>
<trkpt lat="49.504856" lon="10.040648">
<ele>279.348</ele>
<time>2019-05-30T14:40:52Z</time>
</trkpt>
<trkpt lat="49.504902" lon="10.04068">
<ele>279.586</ele>
<time>2019-05-30T14:40:53Z</time>
</trkpt>
<trkpt lat="49.504944" lon="10.040712">
<ele>279.759</ele>
<time>2019-05-30T14:40:54Z</time>
</trkpt>
<trkpt lat="49.504986" lon="10.040745">
<ele>279.936</ele>
<time>2019-05-30T14:40:55Z</time>
</trkpt>
<trkpt lat="49.505028" lon="10.040777">
<ele>280.082</ele>
<time>2019-05-30T14:40:56Z</time>
</trkpt>
<trkpt lat="49.505066" lon="10.040805">
<ele>280.198</ele>
<time>2019-05-30T14:40:57Z</time>
</trkpt>
<trkpt lat="49.505108" lon="10.040838">
<ele>280.282</ele>
<time>2019-05-30T14:40:58Z</time>
</trkpt>
<trkpt lat="49.50515" lon="10.040874">
<ele>280.337</ele>
<time>2019-05-30T14:40:59Z</time>
</trkpt>
<trkpt lat="49.505199" lon="10.040903">
<ele>280.363</ele>
<time>2019-05-30T14:41:00Z</time>
</trkpt>
<trkpt lat="49.505249" lon="10.04094">
<ele>280.363</ele>
<time>2019-05-30T14:41:01Z</time>
</trkpt>
<trkpt lat="49.505287" lon="10.040983">
<ele>280.621</ele>
<time>2019-05-30T14:41:02Z</time>
</trkpt>
<trkpt lat="49.505322" lon="10.041027">
<ele>280.826</ele>
<time>2019-05-30T14:41:03Z</time>
</trkpt>
<trkpt lat="49.505352" lon="10.04107">
<ele>280.965</ele>
<time>2019-05-30T14:41:04Z</time>
</trkpt>
<trkpt lat="49.505379" lon="10.041115">
<ele>281.11</ele>
<time>2019-05-30T14:41:05Z</time>
</trkpt>
<trkpt lat="49.505409" lon="10.041162">
<ele>281.216</ele>
<time>2019-05-30T14:41:06Z</time>
</trkpt>
<trkpt lat="49.50544" lon="10.041206">
<ele>281.291</ele>
<time>2019-05-30T14:41:07Z</time>
</trkpt>
<trkpt lat="49.505463" lon="10.041255">
<ele>281.558</ele>
<time>2019-05-30T14:41:08Z</time>
</trkpt>
<trkpt lat="49.505489" lon="10.041306">
<ele>281.779</ele>
<time>2019-05-30T14:41:09Z</time>
</trkpt>
<trkpt lat="49.505512" lon="10.041356">
<ele>281.986</ele>
<time>2019-05-30T14:41:10Z</time>
</trkpt>
<trkpt lat="49.505535" lon="10.04141">
<ele>282.104</ele>
<time>2019-05-30T14:41:11Z</time>
</trkpt>
<trkpt lat="49.505558" lon="10.041463">
<ele>282.186</ele>
<time>2019-05-30T14:41:12Z</time>
</trkpt>
<trkpt lat="49.505585" lon="10.041517">
<ele>282.24</ele>
<time>2019-05-30T14:41:13Z</time>
</trkpt>
<trkpt lat="49.505604" lon="10.04157">
<ele>282.281</ele>
<time>2019-05-30T14:41:14Z</time>
</trkpt>
<trkpt lat="49.505623" lon="10.041625">
<ele>282.555</ele>
<time>2019-05-30T14:41:15Z</time>
</trkpt>
<trkpt lat="49.505642" lon="10.04168">
<ele>282.762</ele>
<time>2019-05-30T14:41:16Z</time>
</trkpt>
<trkpt lat="49.505653" lon="10.041739">
<ele>282.931</ele>
<time>2019-05-30T14:41:17Z</time>
</trkpt>
<trkpt lat="49.505672" lon="10.041799">
<ele>283.066</ele>
<time>2019-05-30T14:41:18Z</time>
</trkpt>
<trkpt lat="49.505684" lon="10.041857">
<ele>283.172</ele>
<time>2019-05-30T14:41:19Z</time>
</trkpt>
<trkpt lat="49.505699" lon="10.041917">
<ele>283.249</ele>
<time>2019-05-30T14:41:20Z</time>
</trkpt>
<trkpt lat="49.505711" lon="10.041978">
<ele>283.299</ele>
<time>2019-05-30T14:41:21Z</time>
</trkpt>
<trkpt lat="49.505718" lon="10.042041">
<ele>283.323</ele>
<time>2019-05-30T14:41:22Z</time>
</trkpt>
<trkpt lat="49.50573" lon="10.0421">
<ele>283.529</ele>
<time>2019-05-30T14:41:23Z</time>
</trkpt>
<trkpt lat="49.505737" lon="10.042162">
<ele>283.676</ele>
<time>2019-05-30T14:41:24Z</time>
</trkpt>
<trkpt lat="49.505745" lon="10.042218">
<ele>283.825</ele>
<time>2019-05-30T14:41:25Z</time>
</trkpt>
<trkpt lat="49.505753" lon="10.04228">
<ele>283.945</ele>
<time>2019-05-30T14:41:26Z</time>
</trkpt>
<trkpt lat="49.505753" lon="10.042345">
<ele>284.039</ele>
<time>2019-05-30T14:41:27Z</time>
</trkpt>
<trkpt lat="49.505753" lon="10.04241">
<ele>284.105</ele>
<time>2019-05-30T14:41:28Z</time>
</trkpt>
<trkpt lat="49.505756" lon="10.042473">
<ele>284.148</ele>
<time>2019-05-30T14:41:29Z</time>
</trkpt>
<trkpt lat="49.50576" lon="10.042537">
<ele>284.169</ele>
<time>2019-05-30T14:41:30Z</time>
</trkpt>
<trkpt lat="49.50576" lon="10.042603">
<ele>284.169</ele>
<time>2019-05-30T14:41:31Z</time>
</trkpt>
<trkpt lat="49.505764" lon="10.042671">
<ele>284.169</ele>
<time>2019-05-30T14:41:32Z</time>
</trkpt>
<trkpt lat="49.505764" lon="10.042745">
<ele>284.169</ele>
<time>2019-05-30T14:41:33Z</time>
</trkpt>
<trkpt lat="49.505768" lon="10.042815">
<ele>284.169</ele>
<time>2019-05-30T14:41:34Z</time>
</trkpt>
<trkpt lat="49.505772" lon="10.042883">
<ele>284.169</ele>
<time>2019-05-30T14:41:35Z</time>
</trkpt>
<trkpt lat="49.505775" lon="10.042948">
<ele>284.169</ele>
<time>2019-05-30T14:41:36Z</time>
</trkpt>
<trkpt lat="49.505779" lon="10.043015">
<ele>284.169</ele>
<time>2019-05-30T14:41:37Z</time>
</trkpt>
<trkpt lat="49.505775" lon="10.043088">
<ele>284.169</ele>
<time>2019-05-30T14:41:38Z</time>
</trkpt>
<trkpt lat="49.505779" lon="10.043166">
<ele>284.169</ele>
<time>2019-05-30T14:41:39Z</time>
</trkpt>
<trkpt lat="49.505779" lon="10.043247">
<ele>284.169</ele>
<time>2019-05-30T14:41:40Z</time>
</trkpt>
<trkpt lat="49.505779" lon="10.043328">
<ele>284.169</ele>
<time>2019-05-30T14:41:41Z</time>
</trkpt>
<trkpt lat="49.505783" lon="10.043406">
<ele>284.169</ele>
<time>2019-05-30T14:41:42Z</time>
</trkpt>
<trkpt lat="49.505783" lon="10.043489">
<ele>284.169</ele>
<time>2019-05-30T14:41:43Z</time>
</trkpt>
<trkpt lat="49.505787" lon="10.043567">
<ele>284.169</ele>
<time>2019-05-30T14:41:44Z</time>
</trkpt>
<trkpt lat="49.505787" lon="10.043642">
<ele>284.169</ele>
<time>2019-05-30T14:41:45Z</time>
</trkpt>
<trkpt lat="49.505791" lon="10.043712">
<ele>284.169</ele>
<time>2019-05-30T14:41:46Z</time>
</trkpt>
<trkpt lat="49.505791" lon="10.04379">
<ele>284.169</ele>
<time>2019-05-30T14:41:47Z</time>
</trkpt>
<trkpt lat="49.505795" lon="10.043872">
<ele>284.169</ele>
<time>2019-05-30T14:41:48Z</time>
</trkpt>
<trkpt lat="49.505795" lon="10.04395">
<ele>284.169</ele>
<time>2019-05-30T14:41:49Z</time>
</trkpt>
<trkpt lat="49.505791" lon="10.044037">
<ele>284.169</ele>
<time>2019-05-30T14:41:50Z</time>
</trkpt>
<trkpt lat="49.505791" lon="10.044122">
<ele>284.169</ele>
<time>2019-05-30T14:41:51Z</time>
</trkpt>
<trkpt lat="49.505791" lon="10.044209">
<ele>284.169</ele>
<time>2019-05-30T14:41:52Z</time>
</trkpt>
<trkpt lat="49.505791" lon="10.044293">
<ele>284.169</ele>
<time>2019-05-30T14:41:53Z</time>
</trkpt>
<trkpt lat="49.505795" lon="10.044378">
<ele>284.169</ele>
<time>2019-05-30T14:41:54Z</time>
</trkpt>
<trkpt lat="49.505798" lon="10.044465">
<ele>283.96</ele>
<time>2019-05-30T14:41:55Z</time>
</trkpt>
<trkpt lat="49.505802" lon="10.044551">
<ele>283.787</ele>
<time>2019-05-30T14:41:56Z</time>
</trkpt>
<trkpt lat="49.505817" lon="10.044637">
<ele>283.645</ele>
<time>2019-05-30T14:41:57Z</time>
</trkpt>
<trkpt lat="49.505836" lon="10.044708">
<ele>283.535</ele>
<time>2019-05-30T14:41:58Z</time>
</trkpt>
<trkpt lat="49.505856" lon="10.044787">
<ele>283.447</ele>
<time>2019-05-30T14:41:59Z</time>
</trkpt>
<trkpt lat="49.505867" lon="10.044869">
<ele>283.384</ele>
<time>2019-05-30T14:42:00Z</time>
</trkpt>
<trkpt lat="49.505878" lon="10.044951">
<ele>283.343</ele>
<time>2019-05-30T14:42:01Z</time>
</trkpt>
<trkpt lat="49.505882" lon="10.045045">
<ele>283.323</ele>
<time>2019-05-30T14:42:02Z</time>
</trkpt>
<trkpt lat="49.505894" lon="10.045143">
<ele>283.323</ele>
<time>2019-05-30T14:42:03Z</time>
</trkpt>
<trkpt lat="49.505905" lon="10.045242">
<ele>283.323</ele>
<time>2019-05-30T14:42:04Z</time>
</trkpt>
<trkpt lat="49.505913" lon="10.04535">
<ele>283.063</ele>
<time>2019-05-30T14:42:05Z</time>
</trkpt>
<trkpt lat="49.505917" lon="10.045455">
<ele>282.846</ele>
<time>2019-05-30T14:42:06Z</time>
</trkpt>
<trkpt lat="49.505928" lon="10.045555">
<ele>282.677</ele>
<time>2019-05-30T14:42:07Z</time>
</trkpt>
<trkpt lat="49.505936" lon="10.045651">
<ele>282.544</ele>
<time>2019-05-30T14:42:08Z</time>
</trkpt>
<trkpt lat="49.505943" lon="10.04575">
<ele>282.445</ele>
<time>2019-05-30T14:42:09Z</time>
</trkpt>
<trkpt lat="49.505951" lon="10.045847">
<ele>282.377</ele>
<time>2019-05-30T14:42:10Z</time>
</trkpt>
<trkpt lat="49.505959" lon="10.045941">
<ele>282.331</ele>
<time>2019-05-30T14:42:11Z</time>
</trkpt>
<trkpt lat="49.505966" lon="10.046035">
<ele>282.308</ele>
<time>2019-05-30T14:42:12Z</time>
</trkpt>
<trkpt lat="49.505978" lon="10.046126">
<ele>282.308</ele>
<time>2019-05-30T14:42:13Z</time>
</trkpt>
<trkpt lat="49.505981" lon="10.046217">
<ele>282.308</ele>
<time>2019-05-30T14:42:14Z</time>
</trkpt>
<trkpt lat="49.505993" lon="10.046303">
<ele>282.308</ele>
<time>2019-05-30T14:42:15Z</time>
</trkpt>
<trkpt lat="49.506001" lon="10.046391">
<ele>282.308</ele>
<time>2019-05-30T14:42:16Z</time>
</trkpt>
<trkpt lat="49.506012" lon="10.046476">
<ele>282.308</ele>
<time>2019-05-30T14:42:17Z</time>
</trkpt>
<trkpt lat="49.506027" lon="10.046562">
<ele>282.308</ele>
<time>2019-05-30T14:42:18Z</time>
</trkpt>
<trkpt lat="49.506042" lon="10.046645">
<ele>282.308</ele>
<time>2019-05-30T14:42:19Z</time>
</trkpt>
<trkpt lat="49.506069" lon="10.046725">
<ele>282.308</ele>
<time>2019-05-30T14:42:20Z</time>
</trkpt>
<trkpt lat="49.506096" lon="10.046802">
<ele>282.308</ele>
<time>2019-05-30T14:42:21Z</time>
</trkpt>
<trkpt lat="49.50613" lon="10.046875">
<ele>282.308</ele>
<time>2019-05-30T14:42:22Z</time>
</trkpt>
<trkpt lat="49.506161" lon="10.046947">
<ele>282.308</ele>
<time>2019-05-30T14:42:23Z</time>
</trkpt>
<trkpt lat="49.506199" lon="10.047019">
<ele>282.308</ele>
<time>2019-05-30T14:42:24Z</time>
</trkpt>
<trkpt lat="49.506241" lon="10.047086">
<ele>282.308</ele>
<time>2019-05-30T14:42:25Z</time>
</trkpt>
<trkpt lat="49.506275" lon="10.047157">
<ele>282.308</ele>
<time>2019-05-30T14:42:26Z</time>
</trkpt>
<trkpt lat="49.50631" lon="10.047229">
<ele>282.308</ele>
<time>2019-05-30T14:42:27Z</time>
</trkpt>
<trkpt lat="49.506348" lon="10.047301">
<ele>282.308</ele>
<time>2019-05-30T14:42:28Z</time>
</trkpt>
<trkpt lat="49.506382" lon="10.047377">
<ele>282.308</ele>
<time>2019-05-30T14:42:29Z</time>
</trkpt>
<trkpt lat="49.506416" lon="10.04745">
<ele>282.308</ele>
<time>2019-05-30T14:42:30Z</time>
</trkpt>
<trkpt lat="49.506451" lon="10.047522">
<ele>282.308</ele>
<time>2019-05-30T14:42:31Z</time>
</trkpt>
<trkpt lat="49.506489" lon="10.04759">
<ele>282.308</ele>
<time>2019-05-30T14:42:32Z</time>
</trkpt>
<trkpt lat="49.506527" lon="10.047656">
<ele>282.308</ele>
<time>2019-05-30T14:42:33Z</time>
</trkpt>
<trkpt lat="49.506561" lon="10.047725">
<ele>282.308</ele>
<time>2019-05-30T14:42:34Z</time>
</trkpt>
<trkpt lat="49.506599" lon="10.047793">
<ele>282.308</ele>
<time>2019-05-30T14:42:35Z</time>
</trkpt>
<trkpt lat="49.506634" lon="10.047863">
<ele>282.308</ele>
<time>2019-05-30T14:42:36Z</time>
</trkpt>
<trkpt lat="49.506668" lon="10.047934">
<ele>282.308</ele>
<time>2019-05-30T14:42:37Z</time>
</trkpt>
<trkpt lat="49.506699" lon="10.048001">
<ele>282.308</ele>
<time>2019-05-30T14:42:38Z</time>
</trkpt>
<trkpt lat="49.506737" lon="10.048064">
<ele>282.308</ele>
<time>2019-05-30T14:42:39Z</time>
</trkpt>
<trkpt lat="49.506767" lon="10.048129">
<ele>282.308</ele>
<time>2019-05-30T14:42:40Z</time>
</trkpt>
<trkpt lat="49.506802" lon="10.048194">
<ele>282.308</ele>
<time>2019-05-30T14:42:41Z</time>
</trkpt>
<trkpt lat="49.506836" lon="10.048259">
<ele>282.308</ele>
<time>2019-05-30T14:42:42Z</time>
</trkpt>
<trkpt lat="49.506866" lon="10.04832">
<ele>282.308</ele>
<time>2019-05-30T14:42:43Z</time>
</trkpt>
<trkpt lat="49.506901" lon="10.048382">
<ele>282.308</ele>
<time>2019-05-30T14:42:44Z</time>
</trkpt>
<trkpt lat="49.506931" lon="10.048442">
<ele>282.308</ele>
<time>2019-05-30T14:42:45Z</time>
</trkpt>
<trkpt lat="49.506966" lon="10.0485">
<ele>282.556</ele>
<time>2019-05-30T14:42:46Z</time>
</trkpt>
<trkpt lat="49.506996" lon="10.04856">
<ele>282.75</ele>
<time>2019-05-30T14:42:47Z</time>
</trkpt>
<trkpt lat="49.507027" lon="10.048617">
<ele>282.897</ele>
<time>2019-05-30T14:42:48Z</time>
</trkpt>
<trkpt lat="49.507057" lon="10.048672">
<ele>283.005</ele>
<time>2019-05-30T14:42:49Z</time>
</trkpt>
<trkpt lat="49.507088" lon="10.048728">
<ele>283.081</ele>
<time>2019-05-30T14:42:50Z</time>
</trkpt>
<trkpt lat="49.507114" lon="10.048785">
<ele>283.128</ele>
<time>2019-05-30T14:42:51Z</time>
</trkpt>
<trkpt lat="49.507141" lon="10.048838">
<ele>283.15</ele>
<time>2019-05-30T14:42:52Z</time>
</trkpt>
<trkpt lat="49.507172" lon="10.04889">
<ele>283.394</ele>
<time>2019-05-30T14:42:53Z</time>
</trkpt>
<trkpt lat="49.507195" lon="10.04894">
<ele>283.57</ele>
<time>2019-05-30T14:42:54Z</time>
</trkpt>
<trkpt lat="49.507217" lon="10.04899">
<ele>283.747</ele>
<time>2019-05-30T14:42:55Z</time>
</trkpt>
<trkpt lat="49.507244" lon="10.049042">
<ele>283.893</ele>
<time>2019-05-30T14:42:56Z</time>
</trkpt>
<trkpt lat="49.507263" lon="10.049093">
<ele>284.006</ele>
<time>2019-05-30T14:42:57Z</time>
</trkpt>
<trkpt lat="49.507282" lon="10.049145">
<ele>284.089</ele>
<time>2019-05-30T14:42:58Z</time>
</trkpt>
<trkpt lat="49.507309" lon="10.049193">
<ele>284.143</ele>
<time>2019-05-30T14:42:59Z</time>
</trkpt>
<trkpt lat="49.507332" lon="10.04924">
<ele>284.169</ele>
<time>2019-05-30T14:43:00Z</time>
</trkpt>
<trkpt lat="49.507355" lon="10.049285">
<ele>284.169</ele>
<time>2019-05-30T14:43:01Z</time>
</trkpt>
<trkpt lat="49.507381" lon="10.049332">
<ele>284.419</ele>
<time>2019-05-30T14:43:02Z</time>
</trkpt>
<trkpt lat="49.507412" lon="10.049376">
<ele>284.621</ele>
<time>2019-05-30T14:43:03Z</time>
</trkpt>
<trkpt lat="49.507439" lon="10.04942">
<ele>284.758</ele>
<time>2019-05-30T14:43:04Z</time>
</trkpt>
<trkpt lat="49.507462" lon="10.049465">
<ele>284.91</ele>
<time>2019-05-30T14:43:05Z</time>
</trkpt>
<trkpt lat="49.507484" lon="10.04951">
<ele>285.024</ele>
<time>2019-05-30T14:43:06Z</time>
</trkpt>
<trkpt lat="49.507507" lon="10.049555">
<ele>285.107</ele>
<time>2019-05-30T14:43:07Z</time>
</trkpt>
<trkpt lat="49.50753" lon="10.049596">
<ele>285.158</ele>
<time>2019-05-30T14:43:08Z</time>
</trkpt>
<trkpt lat="49.507553" lon="10.049638">
<ele>285.184</ele>
<time>2019-05-30T14:43:09Z</time>
</trkpt>
<trkpt lat="49.507576" lon="10.049682">
<ele>285.184</ele>
<time>2019-05-30T14:43:10Z</time>
</trkpt>
<trkpt lat="49.507599" lon="10.049726">
<ele>285.184</ele>
<time>2019-05-30T14:43:11Z</time>
</trkpt>
<trkpt lat="49.507618" lon="10.049767">
<ele>285.413</ele>
<time>2019-05-30T14:43:12Z</time>
</trkpt>
<trkpt lat="49.507641" lon="10.049804">
<ele>285.594</ele>
<time>2019-05-30T14:43:13Z</time>
</trkpt>
<trkpt lat="49.507664" lon="10.049841">
<ele>285.723</ele>
<time>2019-05-30T14:43:14Z</time>
</trkpt>
<trkpt lat="49.507687" lon="10.04988">
<ele>285.86</ele>
<time>2019-05-30T14:43:15Z</time>
</trkpt>
<trkpt lat="49.507713" lon="10.04992">
<ele>285.966</ele>
<time>2019-05-30T14:43:16Z</time>
</trkpt>
<trkpt lat="49.50774" lon="10.04996">
<ele>286.042</ele>
<time>2019-05-30T14:43:17Z</time>
</trkpt>
<trkpt lat="49.507759" lon="10.05">
<ele>286.091</ele>
<time>2019-05-30T14:43:18Z</time>
</trkpt>
<trkpt lat="49.507782" lon="10.05004">
<ele>286.115</ele>
<time>2019-05-30T14:43:19Z</time>
</trkpt>
<trkpt lat="49.507805" lon="10.05008">
<ele>286.361</ele>
<time>2019-05-30T14:43:20Z</time>
</trkpt>
<trkpt lat="49.507824" lon="10.050123">
<ele>286.555</ele>
<time>2019-05-30T14:43:21Z</time>
</trkpt>
<trkpt lat="49.507843" lon="10.050165">
<ele>286.702</ele>
<time>2019-05-30T14:43:22Z</time>
</trkpt>
<trkpt lat="49.50787" lon="10.050205">
<ele>286.81</ele>
<time>2019-05-30T14:43:23Z</time>
</trkpt>
<trkpt lat="49.507889" lon="10.050243">
<ele>286.888</ele>
<time>2019-05-30T14:43:24Z</time>
</trkpt>
<trkpt lat="49.507908" lon="10.050283">
<ele>286.967</ele>
<time>2019-05-30T14:43:25Z</time>
</trkpt>
<trkpt lat="49.507935" lon="10.050323">
<ele>287.226</ele>
<time>2019-05-30T14:43:26Z</time>
</trkpt>
<trkpt lat="49.507957" lon="10.050363">
<ele>287.423</ele>
<time>2019-05-30T14:43:27Z</time>
</trkpt>
<trkpt lat="49.50798" lon="10.050405">
<ele>287.642</ele>
<time>2019-05-30T14:43:28Z</time>
</trkpt>
<trkpt lat="49.508003" lon="10.050447">
<ele>287.749</ele>
<time>2019-05-30T14:43:29Z</time>
</trkpt>
<trkpt lat="49.508026" lon="10.05049">
<ele>287.809</ele>
<time>2019-05-30T14:43:30Z</time>
</trkpt>
<trkpt lat="49.508053" lon="10.050533">
<ele>288.103</ele>
<time>2019-05-30T14:43:31Z</time>
</trkpt>
<trkpt lat="49.508072" lon="10.050573">
<ele>288.317</ele>
<time>2019-05-30T14:43:32Z</time>
</trkpt>
<trkpt lat="49.508099" lon="10.050614">
<ele>288.469</ele>
<time>2019-05-30T14:43:33Z</time>
</trkpt>
<trkpt lat="49.508118" lon="10.050655">
<ele>288.567</ele>
<time>2019-05-30T14:43:34Z</time>
</trkpt>
<trkpt lat="49.508137" lon="10.050695">
<ele>288.669</ele>
<time>2019-05-30T14:43:35Z</time>
</trkpt>
<trkpt lat="49.50816" lon="10.050737">
<ele>288.989</ele>
<time>2019-05-30T14:43:36Z</time>
</trkpt>
<trkpt lat="49.508175" lon="10.050776">
<ele>289.244</ele>
<time>2019-05-30T14:43:37Z</time>
</trkpt>
<trkpt lat="49.508198" lon="10.050812">
<ele>289.436</ele>
<time>2019-05-30T14:43:38Z</time>
</trkpt>
<trkpt lat="49.508213" lon="10.050849">
<ele>289.653</ele>
<time>2019-05-30T14:43:39Z</time>
</trkpt>
<trkpt lat="49.508232" lon="10.050886">
<ele>289.748</ele>
<time>2019-05-30T14:43:40Z</time>
</trkpt>
<trkpt lat="49.508255" lon="10.050926">
<ele>289.804</ele>
<time>2019-05-30T14:43:41Z</time>
</trkpt>
<trkpt lat="49.50827" lon="10.050966">
<ele>289.83</ele>
<time>2019-05-30T14:43:42Z</time>
</trkpt>
<trkpt lat="49.508286" lon="10.051008">
<ele>290.062</ele>
<time>2019-05-30T14:43:43Z</time>
</trkpt>
<trkpt lat="49.508301" lon="10.051045">
<ele>290.225</ele>
<time>2019-05-30T14:43:44Z</time>
</trkpt>
<trkpt lat="49.508327" lon="10.051082">
<ele>290.393</ele>
<time>2019-05-30T14:43:45Z</time>
</trkpt>
<trkpt lat="49.508347" lon="10.051115">
<ele>290.527</ele>
<time>2019-05-30T14:43:46Z</time>
</trkpt>
<trkpt lat="49.508366" lon="10.05115">
<ele>290.615</ele>
<time>2019-05-30T14:43:47Z</time>
</trkpt>
<trkpt lat="49.508389" lon="10.051186">
<ele>290.895</ele>
<time>2019-05-30T14:43:48Z</time>
</trkpt>
<trkpt lat="49.508415" lon="10.051222">
<ele>291.121</ele>
<time>2019-05-30T14:43:49Z</time>
</trkpt>
<trkpt lat="49.508434" lon="10.051259">
<ele>291.263</ele>
<time>2019-05-30T14:43:50Z</time>
</trkpt>
<trkpt lat="49.508453" lon="10.051295">
<ele>291.655</ele>
<time>2019-05-30T14:43:51Z</time>
</trkpt>
<trkpt lat="49.508472" lon="10.051331">
<ele>291.919</ele>
<time>2019-05-30T14:43:52Z</time>
</trkpt>
<trkpt lat="49.508492" lon="10.051364">
<ele>292.121</ele>
<time>2019-05-30T14:43:53Z</time>
</trkpt>
<trkpt lat="49.508507" lon="10.0514">
<ele>292.273</ele>
<time>2019-05-30T14:43:54Z</time>
</trkpt>
<trkpt lat="49.508522" lon="10.051435">
<ele>292.397</ele>
<time>2019-05-30T14:43:55Z</time>
</trkpt>
<trkpt lat="49.508545" lon="10.051469">
<ele>292.47</ele>
<time>2019-05-30T14:43:56Z</time>
</trkpt>
<trkpt lat="49.508564" lon="10.051502">
<ele>292.517</ele>
<time>2019-05-30T14:43:57Z</time>
</trkpt>
<trkpt lat="49.508587" lon="10.051536">
<ele>292.771</ele>
<time>2019-05-30T14:43:58Z</time>
</trkpt>
<trkpt lat="49.508602" lon="10.051568">
<ele>293.005</ele>
<time>2019-05-30T14:43:59Z</time>
</trkpt>
<trkpt lat="49.508621" lon="10.0516">
<ele>293.159</ele>
<time>2019-05-30T14:44:00Z</time>
</trkpt>
<trkpt lat="49.50864" lon="10.051634">
<ele>293.276</ele>
<time>2019-05-30T14:44:01Z</time>
</trkpt>
<trkpt lat="49.508656" lon="10.051663">
<ele>293.346</ele>
<time>2019-05-30T14:44:02Z</time>
</trkpt>
<trkpt lat="49.508675" lon="10.051702">
<ele>293.628</ele>
<time>2019-05-30T14:44:03Z</time>
</trkpt>
<trkpt lat="49.50869" lon="10.051739">
<ele>293.836</ele>
<time>2019-05-30T14:44:04Z</time>
</trkpt>
<trkpt lat="49.508709" lon="10.051773">
<ele>294.029</ele>
<time>2019-05-30T14:44:05Z</time>
</trkpt>
<trkpt lat="49.508732" lon="10.051806">
<ele>294.149</ele>
<time>2019-05-30T14:44:06Z</time>
</trkpt>
<trkpt lat="49.508751" lon="10.051838">
<ele>294.468</ele>
<time>2019-05-30T14:44:07Z</time>
</trkpt>
<trkpt lat="49.508766" lon="10.051871">
<ele>294.716</ele>
<time>2019-05-30T14:44:08Z</time>
</trkpt>
<trkpt lat="49.508781" lon="10.051905">
<ele>294.909</ele>
<time>2019-05-30T14:44:09Z</time>
</trkpt>
<trkpt lat="49.508804" lon="10.051938">
<ele>295.024</ele>
<time>2019-05-30T14:44:10Z</time>
</trkpt>
<trkpt lat="49.508827" lon="10.05197">
<ele>295.398</ele>
<time>2019-05-30T14:44:11Z</time>
</trkpt>
<trkpt lat="49.508858" lon="10.052005">
<ele>295.645</ele>
<time>2019-05-30T14:44:12Z</time>
</trkpt>
<trkpt lat="49.508881" lon="10.052034">
<ele>295.814</ele>
<time>2019-05-30T14:44:13Z</time>
</trkpt>
<trkpt lat="49.5089" lon="10.05207">
<ele>295.933</ele>
<time>2019-05-30T14:44:14Z</time>
</trkpt>
<trkpt lat="49.508923" lon="10.052103">
<ele>296.042</ele>
<time>2019-05-30T14:44:15Z</time>
</trkpt>
<trkpt lat="49.508949" lon="10.052135">
<ele>296.35</ele>
<time>2019-05-30T14:44:16Z</time>
</trkpt>
<trkpt lat="49.50898" lon="10.052163">
<ele>296.589</ele>
<time>2019-05-30T14:44:17Z</time>
</trkpt>
<trkpt lat="49.509003" lon="10.052196">
<ele>296.765</ele>
<time>2019-05-30T14:44:18Z</time>
</trkpt>
<trkpt lat="49.509029" lon="10.052227">
<ele>296.935</ele>
<time>2019-05-30T14:44:19Z</time>
</trkpt>
<trkpt lat="49.509045" lon="10.05226">
<ele>297.248</ele>
<time>2019-05-30T14:44:20Z</time>
</trkpt>
<trkpt lat="49.509064" lon="10.052297">
<ele>297.498</ele>
<time>2019-05-30T14:44:21Z</time>
</trkpt>
<trkpt lat="49.509079" lon="10.052332">
<ele>297.651</ele>
<time>2019-05-30T14:44:22Z</time>
</trkpt>
<trkpt lat="49.509098" lon="10.052367">
<ele>297.747</ele>
<time>2019-05-30T14:44:23Z</time>
</trkpt>
<trkpt lat="49.509109" lon="10.052407">
<ele>297.817</ele>
<time>2019-05-30T14:44:24Z</time>
</trkpt>
<trkpt lat="49.509121" lon="10.052444">
<ele>297.892</ele>
<time>2019-05-30T14:44:25Z</time>
</trkpt>
<trkpt lat="49.509136" lon="10.052477">
<ele>298.159</ele>
<time>2019-05-30T14:44:26Z</time>
</trkpt>
<trkpt lat="49.509151" lon="10.05251">
<ele>298.374</ele>
<time>2019-05-30T14:44:27Z</time>
</trkpt>
<trkpt lat="49.509167" lon="10.052546">
<ele>298.614</ele>
<time>2019-05-30T14:44:28Z</time>
</trkpt>
<trkpt lat="49.509178" lon="10.052582">
<ele>298.708</ele>
<time>2019-05-30T14:44:29Z</time>
</trkpt>
<trkpt lat="49.509193" lon="10.052615">
<ele>299.094</ele>
<time>2019-05-30T14:44:30Z</time>
</trkpt>
<trkpt lat="49.509209" lon="10.052652">
<ele>299.376</ele>
<time>2019-05-30T14:44:31Z</time>
</trkpt>
<trkpt lat="49.50922" lon="10.052687">
<ele>299.578</ele>
<time>2019-05-30T14:44:32Z</time>
</trkpt>
<trkpt lat="49.509232" lon="10.052718">
<ele>299.723</ele>
<time>2019-05-30T14:44:33Z</time>
</trkpt>
<trkpt lat="49.509247" lon="10.052757">
<ele>299.816</ele>
<time>2019-05-30T14:44:34Z</time>
</trkpt>
<trkpt lat="49.50927" lon="10.052794">
<ele>299.909</ele>
<time>2019-05-30T14:44:35Z</time>
</trkpt>
<trkpt lat="49.509285" lon="10.052829">
<ele>299.97</ele>
<time>2019-05-30T14:44:36Z</time>
</trkpt>
<trkpt lat="49.509304" lon="10.052867">
<ele>300</ele>
<time>2019-05-30T14:44:37Z</time>
</trkpt>
<trkpt lat="49.509323" lon="10.052905">
<ele>300.27</ele>
<time>2019-05-30T14:44:38Z</time>
</trkpt>
<trkpt lat="49.509342" lon="10.052941">
<ele>300.472</ele>
<time>2019-05-30T14:44:39Z</time>
</trkpt>
<trkpt lat="49.509361" lon="10.052977">
<ele>300.63</ele>
<time>2019-05-30T14:44:40Z</time>
</trkpt>
<trkpt lat="49.509369" lon="10.053011">
<ele>300.715</ele>
<time>2019-05-30T14:44:41Z</time>
</trkpt>
<trkpt lat="49.509388" lon="10.053046">
<ele>301.021</ele>
<time>2019-05-30T14:44:42Z</time>
</trkpt>
<trkpt lat="49.509396" lon="10.053083">
<ele>301.265</ele>
<time>2019-05-30T14:44:43Z</time>
</trkpt>
<trkpt lat="49.509407" lon="10.053123">
<ele>301.439</ele>
<time>2019-05-30T14:44:44Z</time>
</trkpt>
<trkpt lat="49.509415" lon="10.053164">
<ele>301.601</ele>
<time>2019-05-30T14:44:45Z</time>
</trkpt>
<trkpt lat="49.509422" lon="10.053205">
<ele>301.706</ele>
<time>2019-05-30T14:44:46Z</time>
</trkpt>
<trkpt lat="49.50943" lon="10.053248">
<ele>301.779</ele>
<time>2019-05-30T14:44:47Z</time>
</trkpt>
<trkpt lat="49.509438" lon="10.053288">
<ele>302.044</ele>
<time>2019-05-30T14:44:48Z</time>
</trkpt>
<trkpt lat="49.509449" lon="10.053329">
<ele>302.249</ele>
<time>2019-05-30T14:44:49Z</time>
</trkpt>
<trkpt lat="49.50946" lon="10.053365">
<ele>302.4</ele>
<time>2019-05-30T14:44:50Z</time>
</trkpt>
<trkpt lat="49.509468" lon="10.053403">
<ele>302.751</ele>
<time>2019-05-30T14:44:51Z</time>
</trkpt>
<trkpt lat="49.509468" lon="10.053445">
<ele>303.009</ele>
<time>2019-05-30T14:44:52Z</time>
</trkpt>
<trkpt lat="49.509476" lon="10.053487">
<ele>303.214</ele>
<time>2019-05-30T14:44:53Z</time>
</trkpt>
<trkpt lat="49.509487" lon="10.053529">
<ele>303.354</ele>
<time>2019-05-30T14:44:54Z</time>
</trkpt>
<trkpt lat="49.509495" lon="10.053568">
<ele>303.483</ele>
<time>2019-05-30T14:44:55Z</time>
</trkpt>
<trkpt lat="49.509502" lon="10.053605">
<ele>303.812</ele>
<time>2019-05-30T14:44:56Z</time>
</trkpt>
<trkpt lat="49.509518" lon="10.053639">
<ele>304.073</ele>
<time>2019-05-30T14:44:57Z</time>
</trkpt>
<trkpt lat="49.509529" lon="10.053679">
<ele>304.273</ele>
<time>2019-05-30T14:44:58Z</time>
</trkpt>
<trkpt lat="49.509552" lon="10.053717">
<ele>304.495</ele>
<time>2019-05-30T14:44:59Z</time>
</trkpt>
<trkpt lat="49.509598" lon="10.053752">
<ele>304.582</ele>
<time>2019-05-30T14:45:00Z</time>
</trkpt>
<trkpt lat="49.509613" lon="10.053792">
<ele>304.631</ele>
<time>2019-05-30T14:45:01Z</time>
</trkpt>
<trkpt lat="49.509628" lon="10.053826">
<ele>304.919</ele>
<time>2019-05-30T14:45:02Z</time>
</trkpt>
<trkpt lat="49.509636" lon="10.053862">
<ele>305.136</ele>
<time>2019-05-30T14:45:03Z</time>
</trkpt>
<trkpt lat="49.50964" lon="10.053899">
<ele>305.275</ele>
<time>2019-05-30T14:45:04Z</time>
</trkpt>
<trkpt lat="49.509644" lon="10.053935">
<ele>305.409</ele>
<time>2019-05-30T14:45:05Z</time>
</trkpt>
<trkpt lat="49.509647" lon="10.053972">
<ele>305.509</ele>
<time>2019-05-30T14:45:06Z</time>
</trkpt>
<trkpt lat="49.509651" lon="10.054008">
<ele>305.575</ele>
<time>2019-05-30T14:45:07Z</time>
</trkpt>
<trkpt lat="49.509655" lon="10.054049">
<ele>305.832</ele>
<time>2019-05-30T14:45:08Z</time>
</trkpt>
<trkpt lat="49.509663" lon="10.054087">
<ele>306.086</ele>
<time>2019-05-30T14:45:09Z</time>
</trkpt>
<trkpt lat="49.509666" lon="10.054128">
<ele>306.297</ele>
<time>2019-05-30T14:45:10Z</time>
</trkpt>
<trkpt lat="49.509666" lon="10.05417">
<ele>306.41</ele>
<time>2019-05-30T14:45:11Z</time>
</trkpt>
<trkpt lat="49.50967" lon="10.054209">
<ele>306.49</ele>
<time>2019-05-30T14:45:12Z</time>
</trkpt>
<trkpt lat="49.509674" lon="10.054252">
<ele>306.535</ele>
<time>2019-05-30T14:45:13Z</time>
</trkpt>
<trkpt lat="49.509674" lon="10.054295">
<ele>306.797</ele>
<time>2019-05-30T14:45:14Z</time>
</trkpt>
<trkpt lat="49.509678" lon="10.054337">
<ele>307.019</ele>
<time>2019-05-30T14:45:15Z</time>
</trkpt>
<trkpt lat="49.509682" lon="10.054379">
<ele>307.178</ele>
<time>2019-05-30T14:45:16Z</time>
</trkpt>
<trkpt lat="49.509693" lon="10.054417">
<ele>307.287</ele>
<time>2019-05-30T14:45:17Z</time>
</trkpt>
<trkpt lat="49.509701" lon="10.054459">
<ele>307.621</ele>
<time>2019-05-30T14:45:18Z</time>
</trkpt>
<trkpt lat="49.509708" lon="10.054501">
<ele>307.891</ele>
<time>2019-05-30T14:45:19Z</time>
</trkpt>
<trkpt lat="49.509708" lon="10.054542">
<ele>308.098</ele>
<time>2019-05-30T14:45:20Z</time>
</trkpt>
<trkpt lat="49.509712" lon="10.054585">
<ele>308.241</ele>
<time>2019-05-30T14:45:21Z</time>
</trkpt>
<trkpt lat="49.509716" lon="10.054628">
<ele>308.359</ele>
<time>2019-05-30T14:45:22Z</time>
</trkpt>
<trkpt lat="49.50972" lon="10.054672">
<ele>308.398</ele>
<time>2019-05-30T14:45:23Z</time>
</trkpt>
<trkpt lat="49.509724" lon="10.054716">
<ele>308.658</ele>
<time>2019-05-30T14:45:24Z</time>
</trkpt>
<trkpt lat="49.509727" lon="10.054758">
<ele>308.88</ele>
<time>2019-05-30T14:45:25Z</time>
</trkpt>
<trkpt lat="49.509739" lon="10.0548">
<ele>309.041</ele>
<time>2019-05-30T14:45:26Z</time>
</trkpt>
<trkpt lat="49.509747" lon="10.054844">
<ele>309.171</ele>
<time>2019-05-30T14:45:27Z</time>
</trkpt>
<trkpt lat="49.50975" lon="10.054888">
<ele>309.27</ele>
<time>2019-05-30T14:45:28Z</time>
</trkpt>
<trkpt lat="49.509762" lon="10.054932">
<ele>309.331</ele>
<time>2019-05-30T14:45:29Z</time>
</trkpt>
<trkpt lat="49.509762" lon="10.054972">
<ele>309.609</ele>
<time>2019-05-30T14:45:30Z</time>
</trkpt>
<trkpt lat="49.509766" lon="10.055014">
<ele>309.824</ele>
<time>2019-05-30T14:45:31Z</time>
</trkpt>
<trkpt lat="49.509773" lon="10.055056">
<ele>309.961</ele>
<time>2019-05-30T14:45:32Z</time>
</trkpt>
<trkpt lat="49.509781" lon="10.055097">
<ele>310.312</ele>
<time>2019-05-30T14:45:33Z</time>
</trkpt>
<trkpt lat="49.509789" lon="10.05514">
<ele>310.569</ele>
<time>2019-05-30T14:45:34Z</time>
</trkpt>
<trkpt lat="49.509792" lon="10.055183">
<ele>310.813</ele>
<time>2019-05-30T14:45:35Z</time>
</trkpt>
<trkpt lat="49.509796" lon="10.055227">
<ele>310.999</ele>
<time>2019-05-30T14:45:36Z</time>
</trkpt>
<trkpt lat="49.5098" lon="10.055268">
<ele>311.129</ele>
<time>2019-05-30T14:45:37Z</time>
</trkpt>
<trkpt lat="49.509804" lon="10.055313">
<ele>311.205</ele>
<time>2019-05-30T14:45:38Z</time>
</trkpt>
<trkpt lat="49.509811" lon="10.055357">
<ele>311.248</ele>
<time>2019-05-30T14:45:39Z</time>
</trkpt>
<trkpt lat="49.509815" lon="10.055404">
<ele>311.503</ele>
<time>2019-05-30T14:45:40Z</time>
</trkpt>
<trkpt lat="49.509823" lon="10.055449">
<ele>311.718</ele>
<time>2019-05-30T14:45:41Z</time>
</trkpt>
<trkpt lat="49.509827" lon="10.055495">
<ele>311.866</ele>
<time>2019-05-30T14:45:42Z</time>
</trkpt>
<trkpt lat="49.509827" lon="10.055542">
<ele>311.978</ele>
<time>2019-05-30T14:45:43Z</time>
</trkpt>
<trkpt lat="49.509827" lon="10.055587">
<ele>312.054</ele>
<time>2019-05-30T14:45:44Z</time>
</trkpt>
<trkpt lat="49.50983" lon="10.05563">
<ele>312.132</ele>
<time>2019-05-30T14:45:45Z</time>
</trkpt>
<trkpt lat="49.509834" lon="10.055676">
<ele>312.428</ele>
<time>2019-05-30T14:45:46Z</time>
</trkpt>
<trkpt lat="49.509834" lon="10.055721">
<ele>312.66</ele>
<time>2019-05-30T14:45:47Z</time>
</trkpt>
<trkpt lat="49.509838" lon="10.055768">
<ele>312.921</ele>
<time>2019-05-30T14:45:48Z</time>
</trkpt>
<trkpt lat="49.509846" lon="10.055814">
<ele>313.052</ele>
<time>2019-05-30T14:45:49Z</time>
</trkpt>
<trkpt lat="49.509857" lon="10.055859">
<ele>313.144</ele>
<time>2019-05-30T14:45:50Z</time>
</trkpt>
<trkpt lat="49.509861" lon="10.055903">
<ele>313.194</ele>
<time>2019-05-30T14:45:51Z</time>
</trkpt>
<trkpt lat="49.509869" lon="10.05595">
<ele>313.481</ele>
<time>2019-05-30T14:45:52Z</time>
</trkpt>
<trkpt lat="49.509872" lon="10.055997">
<ele>313.684</ele>
<time>2019-05-30T14:45:53Z</time>
</trkpt>
<trkpt lat="49.50988" lon="10.056043">
<ele>313.82</ele>
<time>2019-05-30T14:45:54Z</time>
</trkpt>
<trkpt lat="49.509884" lon="10.05609">
<ele>313.968</ele>
<time>2019-05-30T14:45:55Z</time>
</trkpt>
<trkpt lat="49.509892" lon="10.056137">
<ele>314.082</ele>
<time>2019-05-30T14:45:56Z</time>
</trkpt>
<trkpt lat="49.509899" lon="10.056185">
<ele>314.165</ele>
<time>2019-05-30T14:45:57Z</time>
</trkpt>
<trkpt lat="49.509903" lon="10.056233">
<ele>314.217</ele>
<time>2019-05-30T14:45:58Z</time>
</trkpt>
<trkpt lat="49.509914" lon="10.056281">
<ele>314.242</ele>
<time>2019-05-30T14:45:59Z</time>
</trkpt>
<trkpt lat="49.509922" lon="10.056328">
<ele>314.491</ele>
<time>2019-05-30T14:46:00Z</time>
</trkpt>
<trkpt lat="49.509926" lon="10.056376">
<ele>314.682</ele>
<time>2019-05-30T14:46:01Z</time>
</trkpt>
<trkpt lat="49.509937" lon="10.056421">
<ele>314.834</ele>
<time>2019-05-30T14:46:02Z</time>
</trkpt>
<trkpt lat="49.509945" lon="10.056468">
<ele>314.944</ele>
<time>2019-05-30T14:46:03Z</time>
</trkpt>
<trkpt lat="49.509956" lon="10.056516">
<ele>315.02</ele>
<time>2019-05-30T14:46:04Z</time>
</trkpt>
<trkpt lat="49.509964" lon="10.056563">
<ele>315.325</ele>
<time>2019-05-30T14:46:05Z</time>
</trkpt>
<trkpt lat="49.509972" lon="10.056612">
<ele>315.568</ele>
<time>2019-05-30T14:46:06Z</time>
</trkpt>
<trkpt lat="49.509979" lon="10.056662">
<ele>315.751</ele>
<time>2019-05-30T14:46:07Z</time>
</trkpt>
<trkpt lat="49.509991" lon="10.05671">
<ele>315.878</ele>
<time>2019-05-30T14:46:08Z</time>
</trkpt>
<trkpt lat="49.509995" lon="10.056757">
<ele>315.975</ele>
<time>2019-05-30T14:46:09Z</time>
</trkpt>
<trkpt lat="49.510006" lon="10.056803">
<ele>316.043</ele>
<time>2019-05-30T14:46:10Z</time>
</trkpt>
<trkpt lat="49.510021" lon="10.056849">
<ele>316.083</ele>
<time>2019-05-30T14:46:11Z</time>
</trkpt>
<trkpt lat="49.510025" lon="10.056897">
<ele>316.335</ele>
<time>2019-05-30T14:46:12Z</time>
</trkpt>
<trkpt lat="49.510036" lon="10.056941">
<ele>316.523</ele>
<time>2019-05-30T14:46:13Z</time>
</trkpt>
<trkpt lat="49.510048" lon="10.056989">
<ele>316.651</ele>
<time>2019-05-30T14:46:14Z</time>
</trkpt>
<trkpt lat="49.510056" lon="10.057037">
<ele>316.788</ele>
<time>2019-05-30T14:46:15Z</time>
</trkpt>
<trkpt lat="49.510067" lon="10.057085">
<ele>316.886</ele>
<time>2019-05-30T14:46:16Z</time>
</trkpt>
<trkpt lat="49.510082" lon="10.057134">
<ele>317.197</ele>
<time>2019-05-30T14:46:17Z</time>
</trkpt>
<trkpt lat="49.51009" lon="10.057182">
<ele>317.439</ele>
<time>2019-05-30T14:46:18Z</time>
</trkpt>
<trkpt lat="49.510101" lon="10.05723">
<ele>317.621</ele>
<time>2019-05-30T14:46:19Z</time>
</trkpt>
<trkpt lat="49.510113" lon="10.057279">
<ele>317.803</ele>
<time>2019-05-30T14:46:20Z</time>
</trkpt>
<trkpt lat="49.51012" lon="10.057326">
<ele>317.883</ele>
<time>2019-05-30T14:46:21Z</time>
</trkpt>
<trkpt lat="49.510136" lon="10.057375">
<ele>317.925</ele>
<time>2019-05-30T14:46:22Z</time>
</trkpt>
<trkpt lat="49.510151" lon="10.057424">
<ele>317.954</ele>
<time>2019-05-30T14:46:23Z</time>
</trkpt>
<trkpt lat="49.510162" lon="10.057469">
<ele>317.976</ele>
<time>2019-05-30T14:46:24Z</time>
</trkpt>
<trkpt lat="49.510178" lon="10.057518">
<ele>317.976</ele>
<time>2019-05-30T14:46:25Z</time>
</trkpt>
<trkpt lat="49.510189" lon="10.057567">
<ele>318.305</ele>
<time>2019-05-30T14:46:26Z</time>
</trkpt>
<trkpt lat="49.510204" lon="10.057613">
<ele>318.559</ele>
<time>2019-05-30T14:46:27Z</time>
</trkpt>
<trkpt lat="49.510216" lon="10.057658">
<ele>318.749</ele>
<time>2019-05-30T14:46:28Z</time>
</trkpt>
<trkpt lat="49.510231" lon="10.057704">
<ele>318.895</ele>
<time>2019-05-30T14:46:29Z</time>
</trkpt>
<trkpt lat="49.510246" lon="10.057748">
<ele>318.984</ele>
<time>2019-05-30T14:46:30Z</time>
</trkpt>
<trkpt lat="49.510254" lon="10.057796">
<ele>319.038</ele>
<time>2019-05-30T14:46:31Z</time>
</trkpt>
<trkpt lat="49.510269" lon="10.05784">
<ele>319.363</ele>
<time>2019-05-30T14:46:32Z</time>
</trkpt>
<trkpt lat="49.510284" lon="10.057885">
<ele>319.606</ele>
<time>2019-05-30T14:46:33Z</time>
</trkpt>
<trkpt lat="49.510296" lon="10.05793">
<ele>319.748</ele>
<time>2019-05-30T14:46:34Z</time>
</trkpt>
<trkpt lat="49.510315" lon="10.057975">
<ele>319.861</ele>
<time>2019-05-30T14:46:35Z</time>
</trkpt>
<trkpt lat="49.510326" lon="10.058022">
<ele>319.944</ele>
<time>2019-05-30T14:46:36Z</time>
</trkpt>
<trkpt lat="49.510342" lon="10.058066">
<ele>320.001</ele>
<time>2019-05-30T14:46:37Z</time>
</trkpt>
<trkpt lat="49.510357" lon="10.058113">
<ele>320.051</ele>
<time>2019-05-30T14:46:38Z</time>
</trkpt>
<trkpt lat="49.510376" lon="10.058158">
<ele>320.283</ele>
<time>2019-05-30T14:46:39Z</time>
</trkpt>
<trkpt lat="49.510387" lon="10.058203">
<ele>320.491</ele>
<time>2019-05-30T14:46:40Z</time>
</trkpt>
<trkpt lat="49.510403" lon="10.05825">
<ele>320.626</ele>
<time>2019-05-30T14:46:41Z</time>
</trkpt>
<trkpt lat="49.510414" lon="10.058295">
<ele>320.733</ele>
<time>2019-05-30T14:46:42Z</time>
</trkpt>
<trkpt lat="49.510433" lon="10.058343">
<ele>320.81</ele>
<time>2019-05-30T14:46:43Z</time>
</trkpt>
<trkpt lat="49.510445" lon="10.058389">
<ele>320.868</ele>
<time>2019-05-30T14:46:44Z</time>
</trkpt>
<trkpt lat="49.51046" lon="10.058434">
<ele>320.963</ele>
<time>2019-05-30T14:46:45Z</time>
</trkpt>
<trkpt lat="49.510479" lon="10.058478">
<ele>321.082</ele>
<time>2019-05-30T14:46:46Z</time>
</trkpt>
<trkpt lat="49.510494" lon="10.058525">
<ele>321.162</ele>
<time>2019-05-30T14:46:47Z</time>
</trkpt>
<trkpt lat="49.510509" lon="10.058572">
<ele>321.437</ele>
<time>2019-05-30T14:46:48Z</time>
</trkpt>
<trkpt lat="49.510521" lon="10.058617">
<ele>321.666</ele>
<time>2019-05-30T14:46:49Z</time>
</trkpt>
<trkpt lat="49.510536" lon="10.058661">
<ele>321.851</ele>
<time>2019-05-30T14:46:50Z</time>
</trkpt>
<trkpt lat="49.510548" lon="10.058708">
<ele>321.993</ele>
<time>2019-05-30T14:46:51Z</time>
</trkpt>
<trkpt lat="49.510563" lon="10.058753">
<ele>322.103</ele>
<time>2019-05-30T14:46:52Z</time>
</trkpt>
<trkpt lat="49.510574" lon="10.058797">
<ele>322.171</ele>
<time>2019-05-30T14:46:53Z</time>
</trkpt>
<trkpt lat="49.51059" lon="10.058842">
<ele>322.432</ele>
<time>2019-05-30T14:46:54Z</time>
</trkpt>
<trkpt lat="49.510605" lon="10.058886">
<ele>322.677</ele>
<time>2019-05-30T14:46:55Z</time>
</trkpt>
<trkpt lat="49.510616" lon="10.058928">
<ele>322.866</ele>
<time>2019-05-30T14:46:56Z</time>
</trkpt>
<trkpt lat="49.510632" lon="10.058975">
<ele>322.998</ele>
<time>2019-05-30T14:46:57Z</time>
</trkpt>
<trkpt lat="49.510647" lon="10.05902">
<ele>323.097</ele>
<time>2019-05-30T14:46:58Z</time>
</trkpt>
<trkpt lat="49.510662" lon="10.059067">
<ele>323.17</ele>
<time>2019-05-30T14:46:59Z</time>
</trkpt>
<trkpt lat="49.510674" lon="10.059114">
<ele>323.217</ele>
<time>2019-05-30T14:47:00Z</time>
</trkpt>
<trkpt lat="49.510693" lon="10.059162">
<ele>323.239</ele>
<time>2019-05-30T14:47:01Z</time>
</trkpt>
<trkpt lat="49.510708" lon="10.059208">
<ele>323.475</ele>
<time>2019-05-30T14:47:02Z</time>
</trkpt>
<trkpt lat="49.510723" lon="10.059257">
<ele>323.663</ele>
<time>2019-05-30T14:47:03Z</time>
</trkpt>
<trkpt lat="49.510738" lon="10.059305">
<ele>323.789</ele>
<time>2019-05-30T14:47:04Z</time>
</trkpt>
<trkpt lat="49.510757" lon="10.059355">
<ele>323.925</ele>
<time>2019-05-30T14:47:05Z</time>
</trkpt>
<trkpt lat="49.510777" lon="10.059405">
<ele>324.029</ele>
<time>2019-05-30T14:47:06Z</time>
</trkpt>
<trkpt lat="49.510796" lon="10.059455">
<ele>324.097</ele>
<time>2019-05-30T14:47:07Z</time>
</trkpt>
<trkpt lat="49.510807" lon="10.059506">
<ele>324.359</ele>
<time>2019-05-30T14:47:08Z</time>
</trkpt>
<trkpt lat="49.510826" lon="10.059558">
<ele>324.558</ele>
<time>2019-05-30T14:47:09Z</time>
</trkpt>
<trkpt lat="49.510841" lon="10.059612">
<ele>324.74</ele>
<time>2019-05-30T14:47:10Z</time>
</trkpt>
<trkpt lat="49.51086" lon="10.059667">
<ele>324.842</ele>
<time>2019-05-30T14:47:11Z</time>
</trkpt>
<trkpt lat="49.510876" lon="10.05972">
<ele>324.918</ele>
<time>2019-05-30T14:47:12Z</time>
</trkpt>
<trkpt lat="49.510895" lon="10.059773">
<ele>324.963</ele>
<time>2019-05-30T14:47:13Z</time>
</trkpt>
<trkpt lat="49.510914" lon="10.059827">
<ele>324.999</ele>
<time>2019-05-30T14:47:14Z</time>
</trkpt>
<trkpt lat="49.510933" lon="10.05988">
<ele>325.022</ele>
<time>2019-05-30T14:47:15Z</time>
</trkpt>
<trkpt lat="49.510952" lon="10.059933">
<ele>325.022</ele>
<time>2019-05-30T14:47:16Z</time>
</trkpt>
<trkpt lat="49.510967" lon="10.059988">
<ele>325.022</ele>
<time>2019-05-30T14:47:17Z</time>
</trkpt>
<trkpt lat="49.510986" lon="10.060044">
<ele>325.022</ele>
<time>2019-05-30T14:47:18Z</time>
</trkpt>
<trkpt lat="49.511005" lon="10.060102">
<ele>325.022</ele>
<time>2019-05-30T14:47:19Z</time>
</trkpt>
<trkpt lat="49.511028" lon="10.060157">
<ele>325.281</ele>
<time>2019-05-30T14:47:20Z</time>
</trkpt>
<trkpt lat="49.511047" lon="10.06021">
<ele>325.479</ele>
<time>2019-05-30T14:47:21Z</time>
</trkpt>
<trkpt lat="49.511066" lon="10.060264">
<ele>325.625</ele>
<time>2019-05-30T14:47:22Z</time>
</trkpt>
<trkpt lat="49.511086" lon="10.060315">
<ele>325.732</ele>
<time>2019-05-30T14:47:23Z</time>
</trkpt>
<trkpt lat="49.511108" lon="10.060367">
<ele>325.806</ele>
<time>2019-05-30T14:47:24Z</time>
</trkpt>
<trkpt lat="49.511135" lon="10.060417">
<ele>325.851</ele>
<time>2019-05-30T14:47:25Z</time>
</trkpt>
<trkpt lat="49.511158" lon="10.060467">
<ele>325.867</ele>
<time>2019-05-30T14:47:26Z</time>
</trkpt>
<trkpt lat="49.511181" lon="10.060517">
<ele>325.871</ele>
<time>2019-05-30T14:47:27Z</time>
</trkpt>
<trkpt lat="49.511204" lon="10.060568">
<ele>325.871</ele>
<time>2019-05-30T14:47:28Z</time>
</trkpt>
<trkpt lat="49.511227" lon="10.06062">
<ele>325.871</ele>
<time>2019-05-30T14:47:29Z</time>
</trkpt>
<trkpt lat="49.511253" lon="10.060672">
<ele>325.871</ele>
<time>2019-05-30T14:47:30Z</time>
</trkpt>
<trkpt lat="49.51128" lon="10.060723">
<ele>325.871</ele>
<time>2019-05-30T14:47:31Z</time>
</trkpt>
<trkpt lat="49.511303" lon="10.060775">
<ele>325.871</ele>
<time>2019-05-30T14:47:32Z</time>
</trkpt>
<trkpt lat="49.51133" lon="10.060827">
<ele>325.871</ele>
<time>2019-05-30T14:47:33Z</time>
</trkpt>
<trkpt lat="49.511356" lon="10.060878">
<ele>325.871</ele>
<time>2019-05-30T14:47:34Z</time>
</trkpt>
<trkpt lat="49.511383" lon="10.060932">
<ele>325.871</ele>
<time>2019-05-30T14:47:35Z</time>
</trkpt>
<trkpt lat="49.511406" lon="10.060985">
<ele>325.871</ele>
<time>2019-05-30T14:47:36Z</time>
</trkpt>
<trkpt lat="49.511433" lon="10.061037">
<ele>325.871</ele>
<time>2019-05-30T14:47:37Z</time>
</trkpt>
<trkpt lat="49.511456" lon="10.061088">
<ele>325.871</ele>
<time>2019-05-30T14:47:38Z</time>
</trkpt>
<trkpt lat="49.511486" lon="10.06114">
<ele>325.871</ele>
<time>2019-05-30T14:47:39Z</time>
</trkpt>
<trkpt lat="49.511513" lon="10.061192">
<ele>326.118</ele>
<time>2019-05-30T14:47:40Z</time>
</trkpt>
<trkpt lat="49.511536" lon="10.061245">
<ele>326.31</ele>
<time>2019-05-30T14:47:41Z</time>
</trkpt>
<trkpt lat="49.511562" lon="10.061295">
<ele>326.461</ele>
<time>2019-05-30T14:47:42Z</time>
</trkpt>
<trkpt lat="49.511585" lon="10.061345">
<ele>326.57</ele>
<time>2019-05-30T14:47:43Z</time>
</trkpt>
<trkpt lat="49.511612" lon="10.061394">
<ele>326.649</ele>
<time>2019-05-30T14:47:44Z</time>
</trkpt>
<trkpt lat="49.511639" lon="10.061441">
<ele>326.727</ele>
<time>2019-05-30T14:47:45Z</time>
</trkpt>
<trkpt lat="49.511658" lon="10.061488">
<ele>326.983</ele>
<time>2019-05-30T14:47:46Z</time>
</trkpt>
<trkpt lat="49.511684" lon="10.061536">
<ele>327.179</ele>
<time>2019-05-30T14:47:47Z</time>
</trkpt>
<trkpt lat="49.511711" lon="10.061585">
<ele>327.394</ele>
<time>2019-05-30T14:47:48Z</time>
</trkpt>
<trkpt lat="49.511734" lon="10.061634">
<ele>327.504</ele>
<time>2019-05-30T14:47:49Z</time>
</trkpt>
<trkpt lat="49.511757" lon="10.061682">
<ele>327.581</ele>
<time>2019-05-30T14:47:50Z</time>
</trkpt>
<trkpt lat="49.511784" lon="10.06173">
<ele>327.629</ele>
<time>2019-05-30T14:47:51Z</time>
</trkpt>
<trkpt lat="49.51181" lon="10.061778">
<ele>327.655</ele>
<time>2019-05-30T14:47:52Z</time>
</trkpt>
<trkpt lat="49.511833" lon="10.061827">
<ele>327.655</ele>
<time>2019-05-30T14:47:53Z</time>
</trkpt>
<trkpt lat="49.511856" lon="10.061875">
<ele>327.902</ele>
<time>2019-05-30T14:47:54Z</time>
</trkpt>
<trkpt lat="49.511883" lon="10.061923">
<ele>328.134</ele>
<time>2019-05-30T14:47:55Z</time>
</trkpt>
<trkpt lat="49.511909" lon="10.061972">
<ele>328.323</ele>
<time>2019-05-30T14:47:56Z</time>
</trkpt>
<trkpt lat="49.511929" lon="10.062021">
<ele>328.476</ele>
<time>2019-05-30T14:47:57Z</time>
</trkpt>
<trkpt lat="49.511951" lon="10.06207">
<ele>328.593</ele>
<time>2019-05-30T14:47:58Z</time>
</trkpt>
<trkpt lat="49.511974" lon="10.062117">
<ele>328.667</ele>
<time>2019-05-30T14:47:59Z</time>
</trkpt>
<trkpt lat="49.511997" lon="10.062164">
<ele>328.955</ele>
<time>2019-05-30T14:48:00Z</time>
</trkpt>
<trkpt lat="49.512024" lon="10.062213">
<ele>329.176</ele>
<time>2019-05-30T14:48:01Z</time>
</trkpt>
<trkpt lat="49.512047" lon="10.062261">
<ele>329.348</ele>
<time>2019-05-30T14:48:02Z</time>
</trkpt>
<trkpt lat="49.512074" lon="10.062308">
<ele>329.459</ele>
<time>2019-05-30T14:48:03Z</time>
</trkpt>
<trkpt lat="49.512096" lon="10.062355">
<ele>329.538</ele>
<time>2019-05-30T14:48:04Z</time>
</trkpt>
<trkpt lat="49.512119" lon="10.062404">
<ele>329.616</ele>
<time>2019-05-30T14:48:05Z</time>
</trkpt>
<trkpt lat="49.512142" lon="10.062449">
<ele>329.917</ele>
<time>2019-05-30T14:48:06Z</time>
</trkpt>
<trkpt lat="49.512169" lon="10.062498">
<ele>330.15</ele>
<time>2019-05-30T14:48:07Z</time>
</trkpt>
<trkpt lat="49.512192" lon="10.062545">
<ele>330.405</ele>
<time>2019-05-30T14:48:08Z</time>
</trkpt>
<trkpt lat="49.512211" lon="10.06259">
<ele>330.535</ele>
<time>2019-05-30T14:48:09Z</time>
</trkpt>
<trkpt lat="49.512238" lon="10.062638">
<ele>330.628</ele>
<time>2019-05-30T14:48:10Z</time>
</trkpt>
<trkpt lat="49.512264" lon="10.062685">
<ele>330.682</ele>
<time>2019-05-30T14:48:11Z</time>
</trkpt>
<trkpt lat="49.512283" lon="10.062734">
<ele>330.708</ele>
<time>2019-05-30T14:48:12Z</time>
</trkpt>
<trkpt lat="49.51231" lon="10.06278">
<ele>330.714</ele>
<time>2019-05-30T14:48:13Z</time>
</trkpt>
<trkpt lat="49.512337" lon="10.062826">
<ele>330.714</ele>
<time>2019-05-30T14:48:14Z</time>
</trkpt>
<trkpt lat="49.512356" lon="10.062873">
<ele>330.941</ele>
<time>2019-05-30T14:48:15Z</time>
</trkpt>
<trkpt lat="49.512383" lon="10.062921">
<ele>331.133</ele>
<time>2019-05-30T14:48:16Z</time>
</trkpt>
<trkpt lat="49.512405" lon="10.062963">
<ele>331.29</ele>
<time>2019-05-30T14:48:17Z</time>
</trkpt>
<trkpt lat="49.512436" lon="10.063006">
<ele>331.413</ele>
<time>2019-05-30T14:48:18Z</time>
</trkpt>
<trkpt lat="49.512459" lon="10.063052">
<ele>331.51</ele>
<time>2019-05-30T14:48:19Z</time>
</trkpt>
<trkpt lat="49.512482" lon="10.063097">
<ele>331.581</ele>
<time>2019-05-30T14:48:20Z</time>
</trkpt>
<trkpt lat="49.512508" lon="10.063142">
<ele>331.622</ele>
<time>2019-05-30T14:48:21Z</time>
</trkpt>
<trkpt lat="49.512531" lon="10.063187">
<ele>331.896</ele>
<time>2019-05-30T14:48:22Z</time>
</trkpt>
<trkpt lat="49.512558" lon="10.063231">
<ele>332.104</ele>
<time>2019-05-30T14:48:23Z</time>
</trkpt>
<trkpt lat="49.512585" lon="10.063276">
<ele>332.242</ele>
<time>2019-05-30T14:48:24Z</time>
</trkpt>
<trkpt lat="49.512608" lon="10.06332">
<ele>332.392</ele>
<time>2019-05-30T14:48:25Z</time>
</trkpt>
<trkpt lat="49.51263" lon="10.063365">
<ele>332.508</ele>
<time>2019-05-30T14:48:26Z</time>
</trkpt>
<trkpt lat="49.512661" lon="10.063412">
<ele>332.589</ele>
<time>2019-05-30T14:48:27Z</time>
</trkpt>
<trkpt lat="49.512684" lon="10.063458">
<ele>332.642</ele>
<time>2019-05-30T14:48:28Z</time>
</trkpt>
<trkpt lat="49.512711" lon="10.063505">
<ele>332.668</ele>
<time>2019-05-30T14:48:29Z</time>
</trkpt>
<trkpt lat="49.512737" lon="10.063553">
<ele>332.896</ele>
<time>2019-05-30T14:48:30Z</time>
</trkpt>
<trkpt lat="49.51276" lon="10.063597">
<ele>333.074</ele>
<time>2019-05-30T14:48:31Z</time>
</trkpt>
<trkpt lat="49.512791" lon="10.063642">
<ele>333.205</ele>
<time>2019-05-30T14:48:32Z</time>
</trkpt>
<trkpt lat="49.512814" lon="10.063684">
<ele>333.309</ele>
<time>2019-05-30T14:48:33Z</time>
</trkpt>
<trkpt lat="49.512836" lon="10.063725">
<ele>333.376</ele>
<time>2019-05-30T14:48:34Z</time>
</trkpt>
<trkpt lat="49.512863" lon="10.063768">
<ele>333.449</ele>
<time>2019-05-30T14:48:35Z</time>
</trkpt>
<trkpt lat="49.51289" lon="10.063811">
<ele>333.495</ele>
<time>2019-05-30T14:48:36Z</time>
</trkpt>
<trkpt lat="49.512913" lon="10.063855">
<ele>333.518</ele>
<time>2019-05-30T14:48:37Z</time>
</trkpt>
<trkpt lat="49.512936" lon="10.063899">
<ele>333.518</ele>
<time>2019-05-30T14:48:38Z</time>
</trkpt>
<trkpt lat="49.512962" lon="10.063943">
<ele>333.518</ele>
<time>2019-05-30T14:48:39Z</time>
</trkpt>
<trkpt lat="49.512989" lon="10.063987">
<ele>333.518</ele>
<time>2019-05-30T14:48:40Z</time>
</trkpt>
<trkpt lat="49.513012" lon="10.064034">
<ele>333.518</ele>
<time>2019-05-30T14:48:41Z</time>
</trkpt>
<trkpt lat="49.513039" lon="10.064079">
<ele>333.518</ele>
<time>2019-05-30T14:48:42Z</time>
</trkpt>
<trkpt lat="49.513062" lon="10.064128">
<ele>333.518</ele>
<time>2019-05-30T14:48:43Z</time>
</trkpt>
<trkpt lat="49.513088" lon="10.064178">
<ele>333.518</ele>
<time>2019-05-30T14:48:44Z</time>
</trkpt>
<trkpt lat="49.513119" lon="10.064226">
<ele>333.518</ele>
<time>2019-05-30T14:48:45Z</time>
</trkpt>
<trkpt lat="49.513145" lon="10.064275">
<ele>333.518</ele>
<time>2019-05-30T14:48:46Z</time>
</trkpt>
<trkpt lat="49.513172" lon="10.064323">
<ele>333.518</ele>
<time>2019-05-30T14:48:47Z</time>
</trkpt>
<trkpt lat="49.513199" lon="10.064373">
<ele>333.518</ele>
<time>2019-05-30T14:48:48Z</time>
</trkpt>
<trkpt lat="49.513226" lon="10.064422">
<ele>333.776</ele>
<time>2019-05-30T14:48:49Z</time>
</trkpt>
<trkpt lat="49.513256" lon="10.064468">
<ele>333.975</ele>
<time>2019-05-30T14:48:50Z</time>
</trkpt>
<trkpt lat="49.513283" lon="10.064517">
<ele>334.127</ele>
<time>2019-05-30T14:48:51Z</time>
</trkpt>
<trkpt lat="49.513313" lon="10.064567">
<ele>334.239</ele>
<time>2019-05-30T14:48:52Z</time>
</trkpt>
<trkpt lat="49.513344" lon="10.064618">
<ele>334.318</ele>
<time>2019-05-30T14:48:53Z</time>
</trkpt>
<trkpt lat="49.513371" lon="10.064668">
<ele>334.377</ele>
<time>2019-05-30T14:48:54Z</time>
</trkpt>
<trkpt lat="49.513397" lon="10.064718">
<ele>334.429</ele>
<time>2019-05-30T14:48:55Z</time>
</trkpt>
<trkpt lat="49.513428" lon="10.064767">
<ele>334.453</ele>
<time>2019-05-30T14:48:56Z</time>
</trkpt>
<trkpt lat="49.513454" lon="10.064815">
<ele>334.453</ele>
<time>2019-05-30T14:48:57Z</time>
</trkpt>
<trkpt lat="49.513485" lon="10.064863">
<ele>334.453</ele>
<time>2019-05-30T14:48:58Z</time>
</trkpt>
<trkpt lat="49.513512" lon="10.064911">
<ele>334.453</ele>
<time>2019-05-30T14:48:59Z</time>
</trkpt>
<trkpt lat="49.513542" lon="10.06496">
<ele>334.453</ele>
<time>2019-05-30T14:49:00Z</time>
</trkpt>
<trkpt lat="49.513569" lon="10.065008">
<ele>334.453</ele>
<time>2019-05-30T14:49:01Z</time>
</trkpt>
<trkpt lat="49.513592" lon="10.065057">
<ele>334.453</ele>
<time>2019-05-30T14:49:02Z</time>
</trkpt>
<trkpt lat="49.513618" lon="10.065104">
<ele>334.453</ele>
<time>2019-05-30T14:49:03Z</time>
</trkpt>
<trkpt lat="49.513649" lon="10.06515">
<ele>334.453</ele>
<time>2019-05-30T14:49:04Z</time>
</trkpt>
<trkpt lat="49.513676" lon="10.065198">
<ele>334.679</ele>
<time>2019-05-30T14:49:05Z</time>
</trkpt>
<trkpt lat="49.513706" lon="10.065247">
<ele>334.87</ele>
<time>2019-05-30T14:49:06Z</time>
</trkpt>
<trkpt lat="49.513733" lon="10.065296">
<ele>335.028</ele>
<time>2019-05-30T14:49:07Z</time>
</trkpt>
<trkpt lat="49.51376" lon="10.065347">
<ele>335.155</ele>
<time>2019-05-30T14:49:08Z</time>
</trkpt>
<trkpt lat="49.513786" lon="10.065397">
<ele>335.253</ele>
<time>2019-05-30T14:49:09Z</time>
</trkpt>
<trkpt lat="49.513813" lon="10.065447">
<ele>335.322</ele>
<time>2019-05-30T14:49:10Z</time>
</trkpt>
<trkpt lat="49.51384" lon="10.065497">
<ele>335.367</ele>
<time>2019-05-30T14:49:11Z</time>
</trkpt>
<trkpt lat="49.51387" lon="10.065545">
<ele>335.388</ele>
<time>2019-05-30T14:49:12Z</time>
</trkpt>
<trkpt lat="49.513901" lon="10.065594">
<ele>335.388</ele>
<time>2019-05-30T14:49:13Z</time>
</trkpt>
<trkpt lat="49.513927" lon="10.06564">
<ele>335.388</ele>
<time>2019-05-30T14:49:14Z</time>
</trkpt>
<trkpt lat="49.513954" lon="10.06569">
<ele>335.388</ele>
<time>2019-05-30T14:49:15Z</time>
</trkpt>
<trkpt lat="49.513981" lon="10.065737">
<ele>335.388</ele>
<time>2019-05-30T14:49:16Z</time>
</trkpt>
<trkpt lat="49.514008" lon="10.065786">
<ele>335.388</ele>
<time>2019-05-30T14:49:17Z</time>
</trkpt>
<trkpt lat="49.514034" lon="10.065837">
<ele>335.388</ele>
<time>2019-05-30T14:49:18Z</time>
</trkpt>
<trkpt lat="49.514065" lon="10.065888">
<ele>335.388</ele>
<time>2019-05-30T14:49:19Z</time>
</trkpt>
<trkpt lat="49.514095" lon="10.065938">
<ele>335.388</ele>
<time>2019-05-30T14:49:20Z</time>
</trkpt>
<trkpt lat="49.51413" lon="10.065989">
<ele>335.388</ele>
<time>2019-05-30T14:49:21Z</time>
</trkpt>
<trkpt lat="49.51416" lon="10.06604">
<ele>335.388</ele>
<time>2019-05-30T14:49:22Z</time>
</trkpt>
<trkpt lat="49.514191" lon="10.066092">
<ele>335.388</ele>
<time>2019-05-30T14:49:23Z</time>
</trkpt>
<trkpt lat="49.514217" lon="10.066143">
<ele>335.388</ele>
<time>2019-05-30T14:49:24Z</time>
</trkpt>
<trkpt lat="49.514244" lon="10.066195">
<ele>335.388</ele>
<time>2019-05-30T14:49:25Z</time>
</trkpt>
<trkpt lat="49.514275" lon="10.066245">
<ele>335.667</ele>
<time>2019-05-30T14:49:26Z</time>
</trkpt>
<trkpt lat="49.514301" lon="10.066296">
<ele>335.879</ele>
<time>2019-05-30T14:49:27Z</time>
</trkpt>
<trkpt lat="49.514328" lon="10.066345">
<ele>336.042</ele>
<time>2019-05-30T14:49:28Z</time>
</trkpt>
<trkpt lat="49.514359" lon="10.066395">
<ele>336.16</ele>
<time>2019-05-30T14:49:29Z</time>
</trkpt>
<trkpt lat="49.514389" lon="10.066444">
<ele>336.248</ele>
<time>2019-05-30T14:49:30Z</time>
</trkpt>
<trkpt lat="49.514416" lon="10.066495">
<ele>336.294</ele>
<time>2019-05-30T14:49:31Z</time>
</trkpt>
<trkpt lat="49.514442" lon="10.066545">
<ele>336.323</ele>
<time>2019-05-30T14:49:32Z</time>
</trkpt>
<trkpt lat="49.514469" lon="10.066595">
<ele>336.323</ele>
<time>2019-05-30T14:49:33Z</time>
</trkpt>
<trkpt lat="49.514492" lon="10.066646">
<ele>336.323</ele>
<time>2019-05-30T14:49:34Z</time>
</trkpt>
<trkpt lat="49.514523" lon="10.066695">
<ele>336.323</ele>
<time>2019-05-30T14:49:35Z</time>
</trkpt>
<trkpt lat="49.514549" lon="10.066745">
<ele>336.323</ele>
<time>2019-05-30T14:49:36Z</time>
</trkpt>
<trkpt lat="49.514576" lon="10.066794">
<ele>336.323</ele>
<time>2019-05-30T14:49:37Z</time>
</trkpt>
<trkpt lat="49.514603" lon="10.066847">
<ele>336.323</ele>
<time>2019-05-30T14:49:38Z</time>
</trkpt>
<trkpt lat="49.514629" lon="10.066898">
<ele>336.323</ele>
<time>2019-05-30T14:49:39Z</time>
</trkpt>
<trkpt lat="49.514656" lon="10.066947">
<ele>336.547</ele>
<time>2019-05-30T14:49:40Z</time>
</trkpt>
<trkpt lat="49.514683" lon="10.066994">
<ele>336.726</ele>
<time>2019-05-30T14:49:41Z</time>
</trkpt>
<trkpt lat="49.514713" lon="10.067041">
<ele>336.861</ele>
<time>2019-05-30T14:49:42Z</time>
</trkpt>
<trkpt lat="49.51474" lon="10.06709">
<ele>336.96</ele>
<time>2019-05-30T14:49:43Z</time>
</trkpt>
<trkpt lat="49.514771" lon="10.067134">
<ele>337.031</ele>
<time>2019-05-30T14:49:44Z</time>
</trkpt>
<trkpt lat="49.514793" lon="10.067178">
<ele>337.102</ele>
<time>2019-05-30T14:49:45Z</time>
</trkpt>
<trkpt lat="49.51482" lon="10.067222">
<ele>337.392</ele>
<time>2019-05-30T14:49:46Z</time>
</trkpt>
<trkpt lat="49.514847" lon="10.067266">
<ele>337.622</ele>
<time>2019-05-30T14:49:47Z</time>
</trkpt>
<trkpt lat="49.514874" lon="10.067307">
<ele>337.886</ele>
<time>2019-05-30T14:49:48Z</time>
</trkpt>
<trkpt lat="49.5149" lon="10.067348">
<ele>338.019</ele>
<time>2019-05-30T14:49:49Z</time>
</trkpt>
<trkpt lat="49.514927" lon="10.067389">
<ele>338.096</ele>
<time>2019-05-30T14:49:50Z</time>
</trkpt>
<trkpt lat="49.514954" lon="10.067433">
<ele>338.402</ele>
<time>2019-05-30T14:49:51Z</time>
</trkpt>
<trkpt lat="49.51498" lon="10.067475">
<ele>338.623</ele>
<time>2019-05-30T14:49:52Z</time>
</trkpt>
<trkpt lat="49.515011" lon="10.067517">
<ele>338.77</ele>
<time>2019-05-30T14:49:53Z</time>
</trkpt>
<trkpt lat="49.515034" lon="10.067558">
<ele>338.87</ele>
<time>2019-05-30T14:49:54Z</time>
</trkpt>
<trkpt lat="49.515053" lon="10.067601">
<ele>338.974</ele>
<time>2019-05-30T14:49:55Z</time>
</trkpt>
<trkpt lat="49.515076" lon="10.067643">
<ele>339.275</ele>
<time>2019-05-30T14:49:56Z</time>
</trkpt>
<trkpt lat="49.515091" lon="10.067689">
<ele>339.515</ele>
<time>2019-05-30T14:49:57Z</time>
</trkpt>
<trkpt lat="49.51511" lon="10.06773">
<ele>339.665</ele>
<time>2019-05-30T14:49:58Z</time>
</trkpt>
<trkpt lat="49.515133" lon="10.06777">
<ele>340.11</ele>
<time>2019-05-30T14:49:59Z</time>
</trkpt>
<trkpt lat="49.51516" lon="10.067803">
<ele>340.376</ele>
<time>2019-05-30T14:50:00Z</time>
</trkpt>
<trkpt lat="49.515182" lon="10.06784">
<ele>340.582</ele>
<time>2019-05-30T14:50:01Z</time>
</trkpt>
<trkpt lat="49.515205" lon="10.067875">
<ele>340.704</ele>
<time>2019-05-30T14:50:02Z</time>
</trkpt>
<trkpt lat="49.515236" lon="10.067904">
<ele>340.789</ele>
<time>2019-05-30T14:50:03Z</time>
</trkpt>
<trkpt lat="49.515255" lon="10.067943">
<ele>340.845</ele>
<time>2019-05-30T14:50:04Z</time>
</trkpt>
<trkpt lat="49.515274" lon="10.067985">
<ele>341.14</ele>
<time>2019-05-30T14:50:05Z</time>
</trkpt>
<trkpt lat="49.515297" lon="10.068027">
<ele>341.371</ele>
<time>2019-05-30T14:50:06Z</time>
</trkpt>
<trkpt lat="49.515316" lon="10.068069">
<ele>341.544</ele>
<time>2019-05-30T14:50:07Z</time>
</trkpt>
<trkpt lat="49.515335" lon="10.06811">
<ele>341.682</ele>
<time>2019-05-30T14:50:08Z</time>
</trkpt>
<trkpt lat="49.51535" lon="10.068153">
<ele>341.787</ele>
<time>2019-05-30T14:50:09Z</time>
</trkpt>
<trkpt lat="49.515366" lon="10.068196">
<ele>341.864</ele>
<time>2019-05-30T14:50:10Z</time>
</trkpt>
<trkpt lat="49.515381" lon="10.06824">
<ele>341.907</ele>
<time>2019-05-30T14:50:11Z</time>
</trkpt>
<trkpt lat="49.515396" lon="10.068284">
<ele>342.202</ele>
<time>2019-05-30T14:50:12Z</time>
</trkpt>
<trkpt lat="49.515408" lon="10.068326">
<ele>342.423</ele>
<time>2019-05-30T14:50:13Z</time>
</trkpt>
<trkpt lat="49.515434" lon="10.068368">
<ele>342.577</ele>
<time>2019-05-30T14:50:14Z</time>
</trkpt>
<trkpt lat="49.515465" lon="10.06841">
<ele>342.743</ele>
<time>2019-05-30T14:50:15Z</time>
</trkpt>
<trkpt lat="49.51548" lon="10.068452">
<ele>342.868</ele>
<time>2019-05-30T14:50:16Z</time>
</trkpt>
<trkpt lat="49.515499" lon="10.068496">
<ele>342.959</ele>
<time>2019-05-30T14:50:17Z</time>
</trkpt>
<trkpt lat="49.515522" lon="10.06854">
<ele>343.012</ele>
<time>2019-05-30T14:50:18Z</time>
</trkpt>
<trkpt lat="49.515533" lon="10.068588">
<ele>343.273</ele>
<time>2019-05-30T14:50:19Z</time>
</trkpt>
<trkpt lat="49.515549" lon="10.068636">
<ele>343.499</ele>
<time>2019-05-30T14:50:20Z</time>
</trkpt>
<trkpt lat="49.515564" lon="10.068685">
<ele>343.648</ele>
<time>2019-05-30T14:50:21Z</time>
</trkpt>
<trkpt lat="49.515575" lon="10.068735">
<ele>343.752</ele>
<time>2019-05-30T14:50:22Z</time>
</trkpt>
<trkpt lat="49.515591" lon="10.06878">
<ele>343.837</ele>
<time>2019-05-30T14:50:23Z</time>
</trkpt>
<trkpt lat="49.515606" lon="10.068827">
<ele>343.9</ele>
<time>2019-05-30T14:50:24Z</time>
</trkpt>
<trkpt lat="49.515629" lon="10.068875">
<ele>343.952</ele>
<time>2019-05-30T14:50:25Z</time>
</trkpt>
<trkpt lat="49.515648" lon="10.068918">
<ele>343.978</ele>
<time>2019-05-30T14:50:26Z</time>
</trkpt>
<trkpt lat="49.515667" lon="10.068967">
<ele>343.978</ele>
<time>2019-05-30T14:50:27Z</time>
</trkpt>
<trkpt lat="49.515686" lon="10.069016">
<ele>343.978</ele>
<time>2019-05-30T14:50:28Z</time>
</trkpt>
<trkpt lat="49.515705" lon="10.069063">
<ele>343.978</ele>
<time>2019-05-30T14:50:29Z</time>
</trkpt>
<trkpt lat="49.515724" lon="10.069114">
<ele>343.978</ele>
<time>2019-05-30T14:50:30Z</time>
</trkpt>
<trkpt lat="49.515739" lon="10.069165">
<ele>344.222</ele>
<time>2019-05-30T14:50:31Z</time>
</trkpt>
<trkpt lat="49.515751" lon="10.069219">
<ele>344.409</ele>
<time>2019-05-30T14:50:32Z</time>
</trkpt>
<trkpt lat="49.515766" lon="10.069273">
<ele>344.554</ele>
<time>2019-05-30T14:50:33Z</time>
</trkpt>
<trkpt lat="49.515789" lon="10.06933">
<ele>344.658</ele>
<time>2019-05-30T14:50:34Z</time>
</trkpt>
<trkpt lat="49.5158" lon="10.069392">
<ele>344.763</ele>
<time>2019-05-30T14:50:35Z</time>
</trkpt>
<trkpt lat="49.515823" lon="10.069453">
<ele>344.842</ele>
<time>2019-05-30T14:50:36Z</time>
</trkpt>
<trkpt lat="49.515835" lon="10.069511">
<ele>344.89</ele>
<time>2019-05-30T14:50:37Z</time>
</trkpt>
<trkpt lat="49.515854" lon="10.069573">
<ele>344.913</ele>
<time>2019-05-30T14:50:38Z</time>
</trkpt>
<trkpt lat="49.515873" lon="10.069642">
<ele>344.913</ele>
<time>2019-05-30T14:50:39Z</time>
</trkpt>
<trkpt lat="49.515888" lon="10.069715">
<ele>344.913</ele>
<time>2019-05-30T14:50:40Z</time>
</trkpt>
<trkpt lat="49.515915" lon="10.069784">
<ele>344.913</ele>
<time>2019-05-30T14:50:41Z</time>
</trkpt>
<trkpt lat="49.515938" lon="10.069852">
<ele>344.913</ele>
<time>2019-05-30T14:50:42Z</time>
</trkpt>
<trkpt lat="49.515961" lon="10.069919">
<ele>344.913</ele>
<time>2019-05-30T14:50:43Z</time>
</trkpt>
<trkpt lat="49.515984" lon="10.069985">
<ele>344.913</ele>
<time>2019-05-30T14:50:44Z</time>
</trkpt>
<trkpt lat="49.516022" lon="10.070046">
<ele>344.913</ele>
<time>2019-05-30T14:50:45Z</time>
</trkpt>
<trkpt lat="49.516052" lon="10.07011">
<ele>344.913</ele>
<time>2019-05-30T14:50:46Z</time>
</trkpt>
<trkpt lat="49.516071" lon="10.070173">
<ele>344.913</ele>
<time>2019-05-30T14:50:47Z</time>
</trkpt>
<trkpt lat="49.516094" lon="10.070235">
<ele>344.913</ele>
<time>2019-05-30T14:50:48Z</time>
</trkpt>
<trkpt lat="49.516117" lon="10.070298">
<ele>344.913</ele>
<time>2019-05-30T14:50:49Z</time>
</trkpt>
<trkpt lat="49.516144" lon="10.07036">
<ele>344.913</ele>
<time>2019-05-30T14:50:50Z</time>
</trkpt>
<trkpt lat="49.516163" lon="10.070421">
<ele>344.913</ele>
<time>2019-05-30T14:50:51Z</time>
</trkpt>
<trkpt lat="49.516182" lon="10.070485">
<ele>344.913</ele>
<time>2019-05-30T14:50:52Z</time>
</trkpt>
<trkpt lat="49.516209" lon="10.070551">
<ele>344.913</ele>
<time>2019-05-30T14:50:53Z</time>
</trkpt>
<trkpt lat="49.516232" lon="10.070616">
<ele>344.913</ele>
<time>2019-05-30T14:50:54Z</time>
</trkpt>
<trkpt lat="49.516254" lon="10.070677">
<ele>344.913</ele>
<time>2019-05-30T14:50:55Z</time>
</trkpt>
<trkpt lat="49.516277" lon="10.070737">
<ele>345.169</ele>
<time>2019-05-30T14:50:56Z</time>
</trkpt>
<trkpt lat="49.5163" lon="10.070796">
<ele>345.365</ele>
<time>2019-05-30T14:50:57Z</time>
</trkpt>
<trkpt lat="49.516319" lon="10.070859">
<ele>345.511</ele>
<time>2019-05-30T14:50:58Z</time>
</trkpt>
<trkpt lat="49.516346" lon="10.07092">
<ele>345.623</ele>
<time>2019-05-30T14:50:59Z</time>
</trkpt>
<trkpt lat="49.516365" lon="10.07098">
<ele>345.693</ele>
<time>2019-05-30T14:51:00Z</time>
</trkpt>
<trkpt lat="49.516384" lon="10.071041">
<ele>345.742</ele>
<time>2019-05-30T14:51:01Z</time>
</trkpt>
<trkpt lat="49.516407" lon="10.071104">
<ele>345.765</ele>
<time>2019-05-30T14:51:02Z</time>
</trkpt>
<trkpt lat="49.516426" lon="10.071167">
<ele>345.765</ele>
<time>2019-05-30T14:51:03Z</time>
</trkpt>
<trkpt lat="49.516445" lon="10.07123">
<ele>345.765</ele>
<time>2019-05-30T14:51:04Z</time>
</trkpt>
<trkpt lat="49.516468" lon="10.071292">
<ele>345.765</ele>
<time>2019-05-30T14:51:05Z</time>
</trkpt>
<trkpt lat="49.516491" lon="10.071353">
<ele>345.765</ele>
<time>2019-05-30T14:51:06Z</time>
</trkpt>
<trkpt lat="49.51651" lon="10.071415">
<ele>346.035</ele>
<time>2019-05-30T14:51:07Z</time>
</trkpt>
<trkpt lat="49.516533" lon="10.071477">
<ele>346.248</ele>
<time>2019-05-30T14:51:08Z</time>
</trkpt>
<trkpt lat="49.516556" lon="10.071538">
<ele>346.403</ele>
<time>2019-05-30T14:51:09Z</time>
</trkpt>
<trkpt lat="49.516575" lon="10.071602">
<ele>346.52</ele>
<time>2019-05-30T14:51:10Z</time>
</trkpt>
<trkpt lat="49.516598" lon="10.071665">
<ele>346.6</ele>
<time>2019-05-30T14:51:11Z</time>
</trkpt>
<trkpt lat="49.516617" lon="10.071729">
<ele>346.651</ele>
<time>2019-05-30T14:51:12Z</time>
</trkpt>
<trkpt lat="49.51664" lon="10.071792">
<ele>346.679</ele>
<time>2019-05-30T14:51:13Z</time>
</trkpt>
<trkpt lat="49.516659" lon="10.071855">
<ele>346.701</ele>
<time>2019-05-30T14:51:14Z</time>
</trkpt>
<trkpt lat="49.516678" lon="10.071921">
<ele>346.701</ele>
<time>2019-05-30T14:51:15Z</time>
</trkpt>
<trkpt lat="49.516701" lon="10.071986">
<ele>346.701</ele>
<time>2019-05-30T14:51:16Z</time>
</trkpt>
<trkpt lat="49.51672" lon="10.07205">
<ele>346.701</ele>
<time>2019-05-30T14:51:17Z</time>
</trkpt>
<trkpt lat="49.516739" lon="10.072115">
<ele>346.7</ele>
<time>2019-05-30T14:51:18Z</time>
</trkpt>
<trkpt lat="49.516762" lon="10.072179">
<ele>346.7</ele>
<time>2019-05-30T14:51:19Z</time>
</trkpt>
<trkpt lat="49.516781" lon="10.072244">
<ele>346.701</ele>
<time>2019-05-30T14:51:20Z</time>
</trkpt>
<trkpt lat="49.5168" lon="10.072307">
<ele>346.701</ele>
<time>2019-05-30T14:51:21Z</time>
</trkpt>
<trkpt lat="49.516823" lon="10.07237">
<ele>346.701</ele>
<time>2019-05-30T14:51:22Z</time>
</trkpt>
<trkpt lat="49.516842" lon="10.072434">
<ele>346.701</ele>
<time>2019-05-30T14:51:23Z</time>
</trkpt>
<trkpt lat="49.516861" lon="10.072497">
<ele>346.701</ele>
<time>2019-05-30T14:51:24Z</time>
</trkpt>
<trkpt lat="49.51688" lon="10.07256">
<ele>346.701</ele>
<time>2019-05-30T14:51:25Z</time>
</trkpt>
<trkpt lat="49.516899" lon="10.072623">
<ele>346.701</ele>
<time>2019-05-30T14:51:26Z</time>
</trkpt>
<trkpt lat="49.516918" lon="10.072686">
<ele>346.701</ele>
<time>2019-05-30T14:51:27Z</time>
</trkpt>
<trkpt lat="49.516933" lon="10.072748">
<ele>346.701</ele>
<time>2019-05-30T14:51:28Z</time>
</trkpt>
<trkpt lat="49.516953" lon="10.072812">
<ele>346.701</ele>
<time>2019-05-30T14:51:29Z</time>
</trkpt>
<trkpt lat="49.516972" lon="10.072875">
<ele>346.947</ele>
<time>2019-05-30T14:51:30Z</time>
</trkpt>
<trkpt lat="49.516994" lon="10.072939">
<ele>347.141</ele>
<time>2019-05-30T14:51:31Z</time>
</trkpt>
<trkpt lat="49.51701" lon="10.073004">
<ele>347.289</ele>
<time>2019-05-30T14:51:32Z</time>
</trkpt>
<trkpt lat="49.517029" lon="10.073069">
<ele>347.403</ele>
<time>2019-05-30T14:51:33Z</time>
</trkpt>
<trkpt lat="49.517044" lon="10.073132">
<ele>347.481</ele>
<time>2019-05-30T14:51:34Z</time>
</trkpt>
<trkpt lat="49.517063" lon="10.073195">
<ele>347.561</ele>
<time>2019-05-30T14:51:35Z</time>
</trkpt>
<trkpt lat="49.517078" lon="10.07326">
<ele>347.613</ele>
<time>2019-05-30T14:51:36Z</time>
</trkpt>
<trkpt lat="49.517097" lon="10.073325">
<ele>347.637</ele>
<time>2019-05-30T14:51:37Z</time>
</trkpt>
<trkpt lat="49.517113" lon="10.07339">
<ele>347.637</ele>
<time>2019-05-30T14:51:38Z</time>
</trkpt>
<trkpt lat="49.517128" lon="10.073455">
<ele>347.637</ele>
<time>2019-05-30T14:51:39Z</time>
</trkpt>
<trkpt lat="49.517147" lon="10.07352">
<ele>347.637</ele>
<time>2019-05-30T14:51:40Z</time>
</trkpt>
<trkpt lat="49.517162" lon="10.073583">
<ele>347.637</ele>
<time>2019-05-30T14:51:41Z</time>
</trkpt>
<trkpt lat="49.517181" lon="10.073647">
<ele>347.637</ele>
<time>2019-05-30T14:51:42Z</time>
</trkpt>
<trkpt lat="49.517197" lon="10.073715">
<ele>347.637</ele>
<time>2019-05-30T14:51:43Z</time>
</trkpt>
<trkpt lat="49.517216" lon="10.073784">
<ele>347.637</ele>
<time>2019-05-30T14:51:44Z</time>
</trkpt>
<trkpt lat="49.517231" lon="10.073852">
<ele>347.637</ele>
<time>2019-05-30T14:51:45Z</time>
</trkpt>
<trkpt lat="49.51725" lon="10.073922">
<ele>347.637</ele>
<time>2019-05-30T14:51:46Z</time>
</trkpt>
<trkpt lat="49.517265" lon="10.073992">
<ele>347.637</ele>
<time>2019-05-30T14:51:47Z</time>
</trkpt>
<trkpt lat="49.517284" lon="10.07406">
<ele>347.637</ele>
<time>2019-05-30T14:51:48Z</time>
</trkpt>
<trkpt lat="49.5173" lon="10.074128">
<ele>347.637</ele>
<time>2019-05-30T14:51:49Z</time>
</trkpt>
<trkpt lat="49.517323" lon="10.074199">
<ele>347.637</ele>
<time>2019-05-30T14:51:50Z</time>
</trkpt>
<trkpt lat="49.517342" lon="10.074268">
<ele>347.637</ele>
<time>2019-05-30T14:51:51Z</time>
</trkpt>
<trkpt lat="49.517357" lon="10.074342">
<ele>347.637</ele>
<time>2019-05-30T14:51:52Z</time>
</trkpt>
<trkpt lat="49.51738" lon="10.074414">
<ele>347.637</ele>
<time>2019-05-30T14:51:53Z</time>
</trkpt>
<trkpt lat="49.517395" lon="10.074495">
<ele>347.637</ele>
<time>2019-05-30T14:51:54Z</time>
</trkpt>
<trkpt lat="49.517418" lon="10.074575">
<ele>347.637</ele>
<time>2019-05-30T14:51:55Z</time>
</trkpt>
<trkpt lat="49.517437" lon="10.074656">
<ele>347.637</ele>
<time>2019-05-30T14:51:56Z</time>
</trkpt>
<trkpt lat="49.517456" lon="10.074733">
<ele>347.637</ele>
<time>2019-05-30T14:51:57Z</time>
</trkpt>
<trkpt lat="49.517479" lon="10.074813">
<ele>347.637</ele>
<time>2019-05-30T14:51:58Z</time>
</trkpt>
<trkpt lat="49.517498" lon="10.074894">
<ele>347.637</ele>
<time>2019-05-30T14:51:59Z</time>
</trkpt>
<trkpt lat="49.517521" lon="10.074971">
<ele>347.637</ele>
<time>2019-05-30T14:52:00Z</time>
</trkpt>
<trkpt lat="49.51754" lon="10.075045">
<ele>347.637</ele>
<time>2019-05-30T14:52:01Z</time>
</trkpt>
<trkpt lat="49.517555" lon="10.075118">
<ele>347.637</ele>
<time>2019-05-30T14:52:02Z</time>
</trkpt>
<trkpt lat="49.517574" lon="10.075188">
<ele>347.637</ele>
<time>2019-05-30T14:52:03Z</time>
</trkpt>
<trkpt lat="49.517593" lon="10.075258">
<ele>347.637</ele>
<time>2019-05-30T14:52:04Z</time>
</trkpt>
<trkpt lat="49.517612" lon="10.075327">
<ele>347.637</ele>
<time>2019-05-30T14:52:05Z</time>
</trkpt>
<trkpt lat="49.517628" lon="10.075395">
<ele>347.637</ele>
<time>2019-05-30T14:52:06Z</time>
</trkpt>
<trkpt lat="49.517651" lon="10.075463">
<ele>347.637</ele>
<time>2019-05-30T14:52:07Z</time>
</trkpt>
<trkpt lat="49.51767" lon="10.075533">
<ele>347.637</ele>
<time>2019-05-30T14:52:08Z</time>
</trkpt>
<trkpt lat="49.517693" lon="10.075603">
<ele>347.637</ele>
<time>2019-05-30T14:52:09Z</time>
</trkpt>
<trkpt lat="49.517715" lon="10.075673">
<ele>347.637</ele>
<time>2019-05-30T14:52:10Z</time>
</trkpt>
<trkpt lat="49.517742" lon="10.075748">
<ele>347.88</ele>
<time>2019-05-30T14:52:11Z</time>
</trkpt>
<trkpt lat="49.517765" lon="10.07582">
<ele>348.071</ele>
<time>2019-05-30T14:52:12Z</time>
</trkpt>
<trkpt lat="49.517792" lon="10.075891">
<ele>348.221</ele>
<time>2019-05-30T14:52:13Z</time>
</trkpt>
<trkpt lat="49.517815" lon="10.075962">
<ele>348.319</ele>
<time>2019-05-30T14:52:14Z</time>
</trkpt>
<trkpt lat="49.517845" lon="10.076032">
<ele>348.426</ele>
<time>2019-05-30T14:52:15Z</time>
</trkpt>
<trkpt lat="49.517868" lon="10.076101">
<ele>348.501</ele>
<time>2019-05-30T14:52:16Z</time>
</trkpt>
<trkpt lat="49.517895" lon="10.076174">
<ele>348.549</ele>
<time>2019-05-30T14:52:17Z</time>
</trkpt>
<trkpt lat="49.517921" lon="10.076241">
<ele>348.573</ele>
<time>2019-05-30T14:52:18Z</time>
</trkpt>
<trkpt lat="49.517952" lon="10.076306">
<ele>348.573</ele>
<time>2019-05-30T14:52:19Z</time>
</trkpt>
<trkpt lat="49.517982" lon="10.076371">
<ele>348.573</ele>
<time>2019-05-30T14:52:20Z</time>
</trkpt>
<trkpt lat="49.518017" lon="10.076436">
<ele>348.573</ele>
<time>2019-05-30T14:52:21Z</time>
</trkpt>
<trkpt lat="49.518051" lon="10.076501">
<ele>348.573</ele>
<time>2019-05-30T14:52:22Z</time>
</trkpt>
<trkpt lat="49.518082" lon="10.076569">
<ele>348.573</ele>
<time>2019-05-30T14:52:23Z</time>
</trkpt>
<trkpt lat="49.518116" lon="10.076639">
<ele>348.573</ele>
<time>2019-05-30T14:52:24Z</time>
</trkpt>
<trkpt lat="49.51815" lon="10.076709">
<ele>348.573</ele>
<time>2019-05-30T14:52:25Z</time>
</trkpt>
<trkpt lat="49.518185" lon="10.07678">
<ele>348.573</ele>
<time>2019-05-30T14:52:26Z</time>
</trkpt>
<trkpt lat="49.518219" lon="10.07685">
<ele>348.573</ele>
<time>2019-05-30T14:52:27Z</time>
</trkpt>
<trkpt lat="49.518253" lon="10.076919">
<ele>348.573</ele>
<time>2019-05-30T14:52:28Z</time>
</trkpt>
<trkpt lat="49.518291" lon="10.076989">
<ele>348.573</ele>
<time>2019-05-30T14:52:29Z</time>
</trkpt>
<trkpt lat="49.518326" lon="10.077059">
<ele>348.573</ele>
<time>2019-05-30T14:52:30Z</time>
</trkpt>
<trkpt lat="49.518364" lon="10.077127">
<ele>348.573</ele>
<time>2019-05-30T14:52:31Z</time>
</trkpt>
<trkpt lat="49.518398" lon="10.077195">
<ele>348.573</ele>
<time>2019-05-30T14:52:32Z</time>
</trkpt>
<trkpt lat="49.518433" lon="10.077267">
<ele>348.573</ele>
<time>2019-05-30T14:52:33Z</time>
</trkpt>
<trkpt lat="49.518467" lon="10.077337">
<ele>348.573</ele>
<time>2019-05-30T14:52:34Z</time>
</trkpt>
<trkpt lat="49.518505" lon="10.077404">
<ele>348.573</ele>
<time>2019-05-30T14:52:35Z</time>
</trkpt>
<trkpt lat="49.518539" lon="10.077469">
<ele>348.573</ele>
<time>2019-05-30T14:52:36Z</time>
</trkpt>
<trkpt lat="49.518578" lon="10.077534">
<ele>348.573</ele>
<time>2019-05-30T14:52:37Z</time>
</trkpt>
<trkpt lat="49.518616" lon="10.077595">
<ele>348.573</ele>
<time>2019-05-30T14:52:38Z</time>
</trkpt>
<trkpt lat="49.518654" lon="10.077658">
<ele>348.573</ele>
<time>2019-05-30T14:52:39Z</time>
</trkpt>
<trkpt lat="49.518688" lon="10.077722">
<ele>348.573</ele>
<time>2019-05-30T14:52:40Z</time>
</trkpt>
<trkpt lat="49.518726" lon="10.077785">
<ele>348.573</ele>
<time>2019-05-30T14:52:41Z</time>
</trkpt>
<trkpt lat="49.518761" lon="10.077848">
<ele>348.573</ele>
<time>2019-05-30T14:52:42Z</time>
</trkpt>
<trkpt lat="49.518795" lon="10.077913">
<ele>348.573</ele>
<time>2019-05-30T14:52:43Z</time>
</trkpt>
<trkpt lat="49.518833" lon="10.077978">
<ele>348.573</ele>
<time>2019-05-30T14:52:44Z</time>
</trkpt>
<trkpt lat="49.518867" lon="10.078041">
<ele>348.573</ele>
<time>2019-05-30T14:52:45Z</time>
</trkpt>
<trkpt lat="49.518906" lon="10.078105">
<ele>348.573</ele>
<time>2019-05-30T14:52:46Z</time>
</trkpt>
<trkpt lat="49.51894" lon="10.078169">
<ele>348.573</ele>
<time>2019-05-30T14:52:47Z</time>
</trkpt>
<trkpt lat="49.518974" lon="10.078236">
<ele>348.573</ele>
<time>2019-05-30T14:52:48Z</time>
</trkpt>
<trkpt lat="49.519012" lon="10.078301">
<ele>348.573</ele>
<time>2019-05-30T14:52:49Z</time>
</trkpt>
<trkpt lat="49.519039" lon="10.078372">
<ele>348.573</ele>
<time>2019-05-30T14:52:50Z</time>
</trkpt>
<trkpt lat="49.519073" lon="10.078444">
<ele>348.573</ele>
<time>2019-05-30T14:52:51Z</time>
</trkpt>
<trkpt lat="49.5191" lon="10.078517">
<ele>348.573</ele>
<time>2019-05-30T14:52:52Z</time>
</trkpt>
<trkpt lat="49.519127" lon="10.078591">
<ele>348.573</ele>
<time>2019-05-30T14:52:53Z</time>
</trkpt>
<trkpt lat="49.519154" lon="10.078667">
<ele>348.573</ele>
<time>2019-05-30T14:52:54Z</time>
</trkpt>
<trkpt lat="49.519184" lon="10.078738">
<ele>348.573</ele>
<time>2019-05-30T14:52:55Z</time>
</trkpt>
<trkpt lat="49.519215" lon="10.07881">
<ele>348.573</ele>
<time>2019-05-30T14:52:56Z</time>
</trkpt>
<trkpt lat="49.519245" lon="10.078881">
<ele>348.573</ele>
<time>2019-05-30T14:52:57Z</time>
</trkpt>
<trkpt lat="49.519272" lon="10.078955">
<ele>348.573</ele>
<time>2019-05-30T14:52:58Z</time>
</trkpt>
<trkpt lat="49.519299" lon="10.07903">
<ele>348.573</ele>
<time>2019-05-30T14:52:59Z</time>
</trkpt>
<trkpt lat="49.519321" lon="10.079103">
<ele>348.573</ele>
<time>2019-05-30T14:53:00Z</time>
</trkpt>
<trkpt lat="49.519348" lon="10.079177">
<ele>348.573</ele>
<time>2019-05-30T14:53:01Z</time>
</trkpt>
<trkpt lat="49.519379" lon="10.079251">
<ele>348.573</ele>
<time>2019-05-30T14:53:02Z</time>
</trkpt>
<trkpt lat="49.519405" lon="10.079331">
<ele>348.573</ele>
<time>2019-05-30T14:53:03Z</time>
</trkpt>
<trkpt lat="49.519436" lon="10.079413">
<ele>348.573</ele>
<time>2019-05-30T14:53:04Z</time>
</trkpt>
<trkpt lat="49.519459" lon="10.079496">
<ele>348.573</ele>
<time>2019-05-30T14:53:05Z</time>
</trkpt>
<trkpt lat="49.519485" lon="10.07958">
<ele>348.573</ele>
<time>2019-05-30T14:53:06Z</time>
</trkpt>
<trkpt lat="49.519512" lon="10.079663">
<ele>348.296</ele>
<time>2019-05-30T14:53:07Z</time>
</trkpt>
<trkpt lat="49.519543" lon="10.079746">
<ele>348.084</ele>
<time>2019-05-30T14:53:08Z</time>
</trkpt>
<trkpt lat="49.519562" lon="10.079832">
<ele>347.927</ele>
<time>2019-05-30T14:53:09Z</time>
</trkpt>
<trkpt lat="49.519581" lon="10.07992">
<ele>347.81</ele>
<time>2019-05-30T14:53:10Z</time>
</trkpt>
<trkpt lat="49.519604" lon="10.08001">
<ele>347.735</ele>
<time>2019-05-30T14:53:11Z</time>
</trkpt>
<trkpt lat="49.519623" lon="10.080102">
<ele>347.685</ele>
<time>2019-05-30T14:53:12Z</time>
</trkpt>
<trkpt lat="49.519638" lon="10.080192">
<ele>347.658</ele>
<time>2019-05-30T14:53:13Z</time>
</trkpt>
<trkpt lat="49.51965" lon="10.080283">
<ele>347.637</ele>
<time>2019-05-30T14:53:14Z</time>
</trkpt>
<trkpt lat="49.519665" lon="10.080375">
<ele>347.637</ele>
<time>2019-05-30T14:53:15Z</time>
</trkpt>
<trkpt lat="49.519676" lon="10.080467">
<ele>347.637</ele>
<time>2019-05-30T14:53:16Z</time>
</trkpt>
<trkpt lat="49.519691" lon="10.080557">
<ele>347.637</ele>
<time>2019-05-30T14:53:17Z</time>
</trkpt>
<trkpt lat="49.519703" lon="10.080647">
<ele>347.637</ele>
<time>2019-05-30T14:53:18Z</time>
</trkpt>
<trkpt lat="49.519718" lon="10.080735">
<ele>347.637</ele>
<time>2019-05-30T14:53:19Z</time>
</trkpt>
<trkpt lat="49.519733" lon="10.080823">
<ele>347.637</ele>
<time>2019-05-30T14:53:20Z</time>
</trkpt>
<trkpt lat="49.519741" lon="10.08091">
<ele>347.637</ele>
<time>2019-05-30T14:53:21Z</time>
</trkpt>
<trkpt lat="49.519753" lon="10.080998">
<ele>347.637</ele>
<time>2019-05-30T14:53:22Z</time>
</trkpt>
<trkpt lat="49.519764" lon="10.081089">
<ele>347.637</ele>
<time>2019-05-30T14:53:23Z</time>
</trkpt>
<trkpt lat="49.519775" lon="10.081179">
<ele>347.637</ele>
<time>2019-05-30T14:53:24Z</time>
</trkpt>
<trkpt lat="49.519787" lon="10.081267">
<ele>347.637</ele>
<time>2019-05-30T14:53:25Z</time>
</trkpt>
<trkpt lat="49.519802" lon="10.081357">
<ele>347.637</ele>
<time>2019-05-30T14:53:26Z</time>
</trkpt>
<trkpt lat="49.519817" lon="10.081447">
<ele>347.637</ele>
<time>2019-05-30T14:53:27Z</time>
</trkpt>
<trkpt lat="49.519836" lon="10.081537">
<ele>347.637</ele>
<time>2019-05-30T14:53:28Z</time>
</trkpt>
<trkpt lat="49.519855" lon="10.081627">
<ele>347.637</ele>
<time>2019-05-30T14:53:29Z</time>
</trkpt>
<trkpt lat="49.519871" lon="10.081716">
<ele>347.637</ele>
<time>2019-05-30T14:53:30Z</time>
</trkpt>
<trkpt lat="49.519894" lon="10.0818">
<ele>347.637</ele>
<time>2019-05-30T14:53:31Z</time>
</trkpt>
<trkpt lat="49.519913" lon="10.081882">
<ele>347.637</ele>
<time>2019-05-30T14:53:32Z</time>
</trkpt>
<trkpt lat="49.519932" lon="10.081961">
<ele>347.637</ele>
<time>2019-05-30T14:53:33Z</time>
</trkpt>
<trkpt lat="49.519958" lon="10.082035">
<ele>347.637</ele>
<time>2019-05-30T14:53:34Z</time>
</trkpt>
<trkpt lat="49.519981" lon="10.082111">
<ele>347.637</ele>
<time>2019-05-30T14:53:35Z</time>
</trkpt>
<trkpt lat="49.520004" lon="10.082187">
<ele>347.637</ele>
<time>2019-05-30T14:53:36Z</time>
</trkpt>
<trkpt lat="49.520035" lon="10.082262">
<ele>347.637</ele>
<time>2019-05-30T14:53:37Z</time>
</trkpt>
<trkpt lat="49.520061" lon="10.082335">
<ele>347.637</ele>
<time>2019-05-30T14:53:38Z</time>
</trkpt>
<trkpt lat="49.520088" lon="10.082409">
<ele>347.636</ele>
<time>2019-05-30T14:53:39Z</time>
</trkpt>
<trkpt lat="49.520115" lon="10.082483">
<ele>347.637</ele>
<time>2019-05-30T14:53:40Z</time>
</trkpt>
<trkpt lat="49.520142" lon="10.082557">
<ele>347.637</ele>
<time>2019-05-30T14:53:41Z</time>
</trkpt>
<trkpt lat="49.520172" lon="10.082629">
<ele>347.637</ele>
<time>2019-05-30T14:53:42Z</time>
</trkpt>
<trkpt lat="49.520199" lon="10.082703">
<ele>347.637</ele>
<time>2019-05-30T14:53:43Z</time>
</trkpt>
<trkpt lat="49.520226" lon="10.082776">
<ele>347.637</ele>
<time>2019-05-30T14:53:44Z</time>
</trkpt>
<trkpt lat="49.52026" lon="10.082849">
<ele>347.637</ele>
<time>2019-05-30T14:53:45Z</time>
</trkpt>
<trkpt lat="49.52029" lon="10.08292">
<ele>347.637</ele>
<time>2019-05-30T14:53:46Z</time>
</trkpt>
<trkpt lat="49.520321" lon="10.082992">
<ele>347.637</ele>
<time>2019-05-30T14:53:47Z</time>
</trkpt>
<trkpt lat="49.520351" lon="10.083063">
<ele>347.637</ele>
<time>2019-05-30T14:53:48Z</time>
</trkpt>
<trkpt lat="49.520382" lon="10.083135">
<ele>347.637</ele>
<time>2019-05-30T14:53:49Z</time>
</trkpt>
<trkpt lat="49.520409" lon="10.083207">
<ele>347.637</ele>
<time>2019-05-30T14:53:50Z</time>
</trkpt>
<trkpt lat="49.520435" lon="10.083279">
<ele>347.637</ele>
<time>2019-05-30T14:53:51Z</time>
</trkpt>
<trkpt lat="49.520462" lon="10.083348">
<ele>347.637</ele>
<time>2019-05-30T14:53:52Z</time>
</trkpt>
<trkpt lat="49.520489" lon="10.08342">
<ele>347.637</ele>
<time>2019-05-30T14:53:53Z</time>
</trkpt>
<trkpt lat="49.520515" lon="10.083492">
<ele>347.637</ele>
<time>2019-05-30T14:53:54Z</time>
</trkpt>
<trkpt lat="49.520542" lon="10.083566">
<ele>347.637</ele>
<time>2019-05-30T14:53:55Z</time>
</trkpt>
<trkpt lat="49.520565" lon="10.083638">
<ele>347.637</ele>
<time>2019-05-30T14:53:56Z</time>
</trkpt>
<trkpt lat="49.520588" lon="10.083712">
<ele>347.637</ele>
<time>2019-05-30T14:53:57Z</time>
</trkpt>
<trkpt lat="49.520615" lon="10.083787">
<ele>347.899</ele>
<time>2019-05-30T14:53:58Z</time>
</trkpt>
<trkpt lat="49.520638" lon="10.083858">
<ele>348.105</ele>
<time>2019-05-30T14:53:59Z</time>
</trkpt>
<trkpt lat="49.52066" lon="10.083932">
<ele>348.261</ele>
<time>2019-05-30T14:54:00Z</time>
</trkpt>
<trkpt lat="49.520687" lon="10.084005">
<ele>348.372</ele>
<time>2019-05-30T14:54:01Z</time>
</trkpt>
<trkpt lat="49.52071" lon="10.084079">
<ele>348.452</ele>
<time>2019-05-30T14:54:02Z</time>
</trkpt>
<trkpt lat="49.520733" lon="10.084152">
<ele>348.506</ele>
<time>2019-05-30T14:54:03Z</time>
</trkpt>
<trkpt lat="49.520752" lon="10.084226">
<ele>348.547</ele>
<time>2019-05-30T14:54:04Z</time>
</trkpt>
<trkpt lat="49.520779" lon="10.084297">
<ele>348.573</ele>
<time>2019-05-30T14:54:05Z</time>
</trkpt>
<trkpt lat="49.520802" lon="10.08437">
<ele>348.573</ele>
<time>2019-05-30T14:54:06Z</time>
</trkpt>
<trkpt lat="49.520821" lon="10.084443">
<ele>348.573</ele>
<time>2019-05-30T14:54:07Z</time>
</trkpt>
<trkpt lat="49.520844" lon="10.084515">
<ele>348.573</ele>
<time>2019-05-30T14:54:08Z</time>
</trkpt>
<trkpt lat="49.52087" lon="10.08459">
<ele>348.573</ele>
<time>2019-05-30T14:54:09Z</time>
</trkpt>
<trkpt lat="49.520893" lon="10.084663">
<ele>348.573</ele>
<time>2019-05-30T14:54:10Z</time>
</trkpt>
<trkpt lat="49.520916" lon="10.084737">
<ele>348.573</ele>
<time>2019-05-30T14:54:11Z</time>
</trkpt>
<trkpt lat="49.520943" lon="10.084806">
<ele>348.573</ele>
<time>2019-05-30T14:54:12Z</time>
</trkpt>
<trkpt lat="49.520969" lon="10.084879">
<ele>348.573</ele>
<time>2019-05-30T14:54:13Z</time>
</trkpt>
<trkpt lat="49.520992" lon="10.08495">
<ele>348.573</ele>
<time>2019-05-30T14:54:14Z</time>
</trkpt>
<trkpt lat="49.521019" lon="10.085022">
<ele>348.573</ele>
<time>2019-05-30T14:54:15Z</time>
</trkpt>
<trkpt lat="49.521042" lon="10.085095">
<ele>348.573</ele>
<time>2019-05-30T14:54:16Z</time>
</trkpt>
<trkpt lat="49.521065" lon="10.08517">
<ele>348.573</ele>
<time>2019-05-30T14:54:17Z</time>
</trkpt>
<trkpt lat="49.521088" lon="10.085245">
<ele>348.573</ele>
<time>2019-05-30T14:54:18Z</time>
</trkpt>
<trkpt lat="49.521111" lon="10.085321">
<ele>348.573</ele>
<time>2019-05-30T14:54:19Z</time>
</trkpt>
<trkpt lat="49.521137" lon="10.085397">
<ele>348.8</ele>
<time>2019-05-30T14:54:20Z</time>
</trkpt>
<trkpt lat="49.52116" lon="10.085472">
<ele>348.975</ele>
<time>2019-05-30T14:54:21Z</time>
</trkpt>
<trkpt lat="49.521183" lon="10.085546">
<ele>349.11</ele>
<time>2019-05-30T14:54:22Z</time>
</trkpt>
<trkpt lat="49.521206" lon="10.085617">
<ele>349.213</ele>
<time>2019-05-30T14:54:23Z</time>
</trkpt>
<trkpt lat="49.521233" lon="10.08569">
<ele>349.283</ele>
<time>2019-05-30T14:54:24Z</time>
</trkpt>
<trkpt lat="49.521252" lon="10.085765">
<ele>349.355</ele>
<time>2019-05-30T14:54:25Z</time>
</trkpt>
<trkpt lat="49.521271" lon="10.085838">
<ele>349.402</ele>
<time>2019-05-30T14:54:26Z</time>
</trkpt>
<trkpt lat="49.521297" lon="10.08591">
<ele>349.424</ele>
<time>2019-05-30T14:54:27Z</time>
</trkpt>
<trkpt lat="49.52132" lon="10.085981">
<ele>349.424</ele>
<time>2019-05-30T14:54:28Z</time>
</trkpt>
<trkpt lat="49.521343" lon="10.086053">
<ele>349.424</ele>
<time>2019-05-30T14:54:29Z</time>
</trkpt>
<trkpt lat="49.521366" lon="10.086125">
<ele>349.424</ele>
<time>2019-05-30T14:54:30Z</time>
</trkpt>
<trkpt lat="49.521385" lon="10.086197">
<ele>349.424</ele>
<time>2019-05-30T14:54:31Z</time>
</trkpt>
<trkpt lat="49.521408" lon="10.086268">
<ele>349.424</ele>
<time>2019-05-30T14:54:32Z</time>
</trkpt>
<trkpt lat="49.521431" lon="10.08634">
<ele>349.424</ele>
<time>2019-05-30T14:54:33Z</time>
</trkpt>
<trkpt lat="49.521454" lon="10.086411">
<ele>349.632</ele>
<time>2019-05-30T14:54:34Z</time>
</trkpt>
<trkpt lat="49.521473" lon="10.08648">
<ele>349.828</ele>
<time>2019-05-30T14:54:35Z</time>
</trkpt>
<trkpt lat="49.521496" lon="10.086549">
<ele>349.989</ele>
<time>2019-05-30T14:54:36Z</time>
</trkpt>
<trkpt lat="49.521515" lon="10.086617">
<ele>350.118</ele>
<time>2019-05-30T14:54:37Z</time>
</trkpt>
<trkpt lat="49.52153" lon="10.086685">
<ele>350.218</ele>
<time>2019-05-30T14:54:38Z</time>
</trkpt>
<trkpt lat="49.521557" lon="10.086752">
<ele>350.29</ele>
<time>2019-05-30T14:54:39Z</time>
</trkpt>
<trkpt lat="49.521576" lon="10.086819">
<ele>350.337</ele>
<time>2019-05-30T14:54:40Z</time>
</trkpt>
<trkpt lat="49.521595" lon="10.086884">
<ele>350.361</ele>
<time>2019-05-30T14:54:41Z</time>
</trkpt>
<trkpt lat="49.521618" lon="10.086951">
<ele>350.361</ele>
<time>2019-05-30T14:54:42Z</time>
</trkpt>
<trkpt lat="49.521637" lon="10.087018">
<ele>350.361</ele>
<time>2019-05-30T14:54:43Z</time>
</trkpt>
<trkpt lat="49.521656" lon="10.087085">
<ele>350.568</ele>
<time>2019-05-30T14:54:44Z</time>
</trkpt>
<trkpt lat="49.521671" lon="10.087152">
<ele>350.764</ele>
<time>2019-05-30T14:54:45Z</time>
</trkpt>
<trkpt lat="49.52169" lon="10.087222">
<ele>350.925</ele>
<time>2019-05-30T14:54:46Z</time>
</trkpt>
<trkpt lat="49.521706" lon="10.087291">
<ele>351.055</ele>
<time>2019-05-30T14:54:47Z</time>
</trkpt>
<trkpt lat="49.521725" lon="10.08736">
<ele>351.156</ele>
<time>2019-05-30T14:54:48Z</time>
</trkpt>
<trkpt lat="49.52174" lon="10.087429">
<ele>351.218</ele>
<time>2019-05-30T14:54:49Z</time>
</trkpt>
<trkpt lat="49.521755" lon="10.087499">
<ele>351.479</ele>
<time>2019-05-30T14:54:50Z</time>
</trkpt>
<trkpt lat="49.52177" lon="10.087567">
<ele>351.678</ele>
<time>2019-05-30T14:54:51Z</time>
</trkpt>
<trkpt lat="49.521786" lon="10.087637">
<ele>351.835</ele>
<time>2019-05-30T14:54:52Z</time>
</trkpt>
<trkpt lat="49.521801" lon="10.087706">
<ele>351.936</ele>
<time>2019-05-30T14:54:53Z</time>
</trkpt>
<trkpt lat="49.521816" lon="10.087772">
<ele>352.006</ele>
<time>2019-05-30T14:54:54Z</time>
</trkpt>
<trkpt lat="49.521828" lon="10.08784">
<ele>352.079</ele>
<time>2019-05-30T14:54:55Z</time>
</trkpt>
<trkpt lat="49.521847" lon="10.087909">
<ele>352.126</ele>
<time>2019-05-30T14:54:56Z</time>
</trkpt>
<trkpt lat="49.521854" lon="10.087976">
<ele>352.149</ele>
<time>2019-05-30T14:54:57Z</time>
</trkpt>
<trkpt lat="49.52187" lon="10.088045">
<ele>352.432</ele>
<time>2019-05-30T14:54:58Z</time>
</trkpt>
<trkpt lat="49.521881" lon="10.088114">
<ele>352.655</ele>
<time>2019-05-30T14:54:59Z</time>
</trkpt>
<trkpt lat="49.521893" lon="10.08818">
<ele>352.824</ele>
<time>2019-05-30T14:55:00Z</time>
</trkpt>
<trkpt lat="49.521904" lon="10.088246">
<ele>352.95</ele>
<time>2019-05-30T14:55:01Z</time>
</trkpt>
<trkpt lat="49.521919" lon="10.088313">
<ele>353.037</ele>
<time>2019-05-30T14:55:02Z</time>
</trkpt>
<trkpt lat="49.521927" lon="10.088382">
<ele>353.096</ele>
<time>2019-05-30T14:55:03Z</time>
</trkpt>
<trkpt lat="49.521935" lon="10.088449">
<ele>353.141</ele>
<time>2019-05-30T14:55:04Z</time>
</trkpt>
<trkpt lat="49.521942" lon="10.088513">
<ele>353.17</ele>
<time>2019-05-30T14:55:05Z</time>
</trkpt>
<trkpt lat="49.52195" lon="10.088579">
<ele>353.17</ele>
<time>2019-05-30T14:55:06Z</time>
</trkpt>
<trkpt lat="49.521954" lon="10.088649">
<ele>353.44</ele>
<time>2019-05-30T14:55:07Z</time>
</trkpt>
<trkpt lat="49.521961" lon="10.088717">
<ele>353.652</ele>
<time>2019-05-30T14:55:08Z</time>
</trkpt>
<trkpt lat="49.521969" lon="10.088783">
<ele>353.811</ele>
<time>2019-05-30T14:55:09Z</time>
</trkpt>
<trkpt lat="49.521976" lon="10.088852">
<ele>353.929</ele>
<time>2019-05-30T14:55:10Z</time>
</trkpt>
<trkpt lat="49.521984" lon="10.088919">
<ele>354.006</ele>
<time>2019-05-30T14:55:11Z</time>
</trkpt>
<trkpt lat="49.521988" lon="10.088985">
<ele>354.057</ele>
<time>2019-05-30T14:55:12Z</time>
</trkpt>
<trkpt lat="49.521996" lon="10.089051">
<ele>354.086</ele>
<time>2019-05-30T14:55:13Z</time>
</trkpt>
<trkpt lat="49.522007" lon="10.08912">
<ele>354.107</ele>
<time>2019-05-30T14:55:14Z</time>
</trkpt>
<trkpt lat="49.522015" lon="10.089189">
<ele>354.107</ele>
<time>2019-05-30T14:55:15Z</time>
</trkpt>
<trkpt lat="49.522018" lon="10.089255">
<ele>354.107</ele>
<time>2019-05-30T14:55:16Z</time>
</trkpt>
<trkpt lat="49.522026" lon="10.089323">
<ele>354.107</ele>
<time>2019-05-30T14:55:17Z</time>
</trkpt>
<trkpt lat="49.522034" lon="10.089394">
<ele>354.396</ele>
<time>2019-05-30T14:55:18Z</time>
</trkpt>
<trkpt lat="49.522041" lon="10.089459">
<ele>354.62</ele>
<time>2019-05-30T14:55:19Z</time>
</trkpt>
<trkpt lat="49.522045" lon="10.08953">
<ele>354.79</ele>
<time>2019-05-30T14:55:20Z</time>
</trkpt>
<trkpt lat="49.522053" lon="10.089598">
<ele>354.915</ele>
<time>2019-05-30T14:55:21Z</time>
</trkpt>
<trkpt lat="49.522057" lon="10.089668">
<ele>354.997</ele>
<time>2019-05-30T14:55:22Z</time>
</trkpt>
<trkpt lat="49.522064" lon="10.08974">
<ele>355.057</ele>
<time>2019-05-30T14:55:23Z</time>
</trkpt>
<trkpt lat="49.522076" lon="10.089811">
<ele>355.101</ele>
<time>2019-05-30T14:55:24Z</time>
</trkpt>
<trkpt lat="49.522083" lon="10.089883">
<ele>355.129</ele>
<time>2019-05-30T14:55:25Z</time>
</trkpt>
<trkpt lat="49.522087" lon="10.089953">
<ele>355.129</ele>
<time>2019-05-30T14:55:26Z</time>
</trkpt>
<trkpt lat="49.522095" lon="10.090025">
<ele>355.129</ele>
<time>2019-05-30T14:55:27Z</time>
</trkpt>
<trkpt lat="49.522102" lon="10.090095">
<ele>355.129</ele>
<time>2019-05-30T14:55:28Z</time>
</trkpt>
<trkpt lat="49.522114" lon="10.090167">
<ele>355.409</ele>
<time>2019-05-30T14:55:29Z</time>
</trkpt>
<trkpt lat="49.522118" lon="10.090239">
<ele>355.623</ele>
<time>2019-05-30T14:55:30Z</time>
</trkpt>
<trkpt lat="49.522129" lon="10.09031">
<ele>355.791</ele>
<time>2019-05-30T14:55:31Z</time>
</trkpt>
<trkpt lat="49.522137" lon="10.090382">
<ele>355.915</ele>
<time>2019-05-30T14:55:32Z</time>
</trkpt>
<trkpt lat="49.522144" lon="10.090453">
<ele>356.002</ele>
<time>2019-05-30T14:55:33Z</time>
</trkpt>
<trkpt lat="49.522148" lon="10.090527">
<ele>356.067</ele>
<time>2019-05-30T14:55:34Z</time>
</trkpt>
<trkpt lat="49.522156" lon="10.090599">
<ele>356.123</ele>
<time>2019-05-30T14:55:35Z</time>
</trkpt>
<trkpt lat="49.522167" lon="10.09067">
<ele>356.151</ele>
<time>2019-05-30T14:55:36Z</time>
</trkpt>
<trkpt lat="49.522179" lon="10.090741">
<ele>356.151</ele>
<time>2019-05-30T14:55:37Z</time>
</trkpt>
<trkpt lat="49.522186" lon="10.090815">
<ele>356.151</ele>
<time>2019-05-30T14:55:38Z</time>
</trkpt>
<trkpt lat="49.522198" lon="10.090888">
<ele>356.151</ele>
<time>2019-05-30T14:55:39Z</time>
</trkpt>
<trkpt lat="49.522209" lon="10.090961">
<ele>356.151</ele>
<time>2019-05-30T14:55:40Z</time>
</trkpt>
<trkpt lat="49.522217" lon="10.091037">
<ele>356.151</ele>
<time>2019-05-30T14:55:41Z</time>
</trkpt>
<trkpt lat="49.522228" lon="10.091112">
<ele>356.151</ele>
<time>2019-05-30T14:55:42Z</time>
</trkpt>
<trkpt lat="49.52224" lon="10.091188">
<ele>356.151</ele>
<time>2019-05-30T14:55:43Z</time>
</trkpt>
<trkpt lat="49.522247" lon="10.091265">
<ele>356.151</ele>
<time>2019-05-30T14:55:44Z</time>
</trkpt>
<trkpt lat="49.522263" lon="10.091343">
<ele>356.151</ele>
<time>2019-05-30T14:55:45Z</time>
</trkpt>
<trkpt lat="49.522278" lon="10.091422">
<ele>356.151</ele>
<time>2019-05-30T14:55:46Z</time>
</trkpt>
<trkpt lat="49.522289" lon="10.091498">
<ele>356.151</ele>
<time>2019-05-30T14:55:47Z</time>
</trkpt>
<trkpt lat="49.522305" lon="10.091575">
<ele>356.151</ele>
<time>2019-05-30T14:55:48Z</time>
</trkpt>
<trkpt lat="49.52232" lon="10.09165">
<ele>356.151</ele>
<time>2019-05-30T14:55:49Z</time>
</trkpt>
<trkpt lat="49.522335" lon="10.091728">
<ele>356.151</ele>
<time>2019-05-30T14:55:50Z</time>
</trkpt>
<trkpt lat="49.52235" lon="10.091804">
<ele>356.151</ele>
<time>2019-05-30T14:55:51Z</time>
</trkpt>
<trkpt lat="49.522366" lon="10.091879">
<ele>356.151</ele>
<time>2019-05-30T14:55:52Z</time>
</trkpt>
<trkpt lat="49.522381" lon="10.091953">
<ele>356.151</ele>
<time>2019-05-30T14:55:53Z</time>
</trkpt>
<trkpt lat="49.522404" lon="10.092031">
<ele>356.151</ele>
<time>2019-05-30T14:55:54Z</time>
</trkpt>
<trkpt lat="49.522419" lon="10.092108">
<ele>356.151</ele>
<time>2019-05-30T14:55:55Z</time>
</trkpt>
<trkpt lat="49.522438" lon="10.09219">
<ele>356.151</ele>
<time>2019-05-30T14:55:56Z</time>
</trkpt>
<trkpt lat="49.522457" lon="10.092271">
<ele>356.151</ele>
<time>2019-05-30T14:55:57Z</time>
</trkpt>
<trkpt lat="49.522476" lon="10.092353">
<ele>356.151</ele>
<time>2019-05-30T14:55:58Z</time>
</trkpt>
<trkpt lat="49.522495" lon="10.092435">
<ele>356.151</ele>
<time>2019-05-30T14:55:59Z</time>
</trkpt>
<trkpt lat="49.522514" lon="10.092516">
<ele>356.151</ele>
<time>2019-05-30T14:56:00Z</time>
</trkpt>
<trkpt lat="49.522537" lon="10.092597">
<ele>356.151</ele>
<time>2019-05-30T14:56:01Z</time>
</trkpt>
<trkpt lat="49.522556" lon="10.092678">
<ele>356.151</ele>
<time>2019-05-30T14:56:02Z</time>
</trkpt>
<trkpt lat="49.522575" lon="10.09276">
<ele>355.921</ele>
<time>2019-05-30T14:56:03Z</time>
</trkpt>
<trkpt lat="49.522598" lon="10.092843">
<ele>355.76</ele>
<time>2019-05-30T14:56:04Z</time>
</trkpt>
<trkpt lat="49.522625" lon="10.092925">
<ele>355.593</ele>
<time>2019-05-30T14:56:05Z</time>
</trkpt>
<trkpt lat="49.522648" lon="10.093006">
<ele>355.459</ele>
<time>2019-05-30T14:56:06Z</time>
</trkpt>
<trkpt lat="49.522671" lon="10.093088">
<ele>355.357</ele>
<time>2019-05-30T14:56:07Z</time>
</trkpt>
<trkpt lat="49.522697" lon="10.093174">
<ele>355.283</ele>
<time>2019-05-30T14:56:08Z</time>
</trkpt>
<trkpt lat="49.522717" lon="10.093262">
<ele>355.236</ele>
<time>2019-05-30T14:56:09Z</time>
</trkpt>
<trkpt lat="49.522739" lon="10.093351">
<ele>355.214</ele>
<time>2019-05-30T14:56:10Z</time>
</trkpt>
<trkpt lat="49.52277" lon="10.09344">
<ele>355.214</ele>
<time>2019-05-30T14:56:11Z</time>
</trkpt>
<trkpt lat="49.522793" lon="10.093532">
<ele>354.976</ele>
<time>2019-05-30T14:56:12Z</time>
</trkpt>
<trkpt lat="49.522823" lon="10.093622">
<ele>354.788</ele>
<time>2019-05-30T14:56:13Z</time>
</trkpt>
<trkpt lat="49.522846" lon="10.093712">
<ele>354.661</ele>
<time>2019-05-30T14:56:14Z</time>
</trkpt>
<trkpt lat="49.522873" lon="10.093803">
<ele>354.524</ele>
<time>2019-05-30T14:56:15Z</time>
</trkpt>
<trkpt lat="49.522903" lon="10.093893">
<ele>354.43</ele>
<time>2019-05-30T14:56:16Z</time>
</trkpt>
<trkpt lat="49.52293" lon="10.093987">
<ele>354.142</ele>
<time>2019-05-30T14:56:17Z</time>
</trkpt>
<trkpt lat="49.522964" lon="10.09408">
<ele>353.917</ele>
<time>2019-05-30T14:56:18Z</time>
</trkpt>
<trkpt lat="49.522991" lon="10.094177">
<ele>353.75</ele>
<time>2019-05-30T14:56:19Z</time>
</trkpt>
<trkpt lat="49.523022" lon="10.094274">
<ele>353.608</ele>
<time>2019-05-30T14:56:20Z</time>
</trkpt>
<trkpt lat="49.523052" lon="10.094368">
<ele>353.277</ele>
<time>2019-05-30T14:56:21Z</time>
</trkpt>
<trkpt lat="49.523083" lon="10.094463">
<ele>353.04</ele>
<time>2019-05-30T14:56:22Z</time>
</trkpt>
<trkpt lat="49.523113" lon="10.094561">
<ele>352.866</ele>
<time>2019-05-30T14:56:23Z</time>
</trkpt>
<trkpt lat="49.523144" lon="10.094657">
<ele>352.746</ele>
<time>2019-05-30T14:56:24Z</time>
</trkpt>
<trkpt lat="49.523178" lon="10.094755">
<ele>352.388</ele>
<time>2019-05-30T14:56:25Z</time>
</trkpt>
<trkpt lat="49.523212" lon="10.094856">
<ele>352.101</ele>
<time>2019-05-30T14:56:26Z</time>
</trkpt>
<trkpt lat="49.523247" lon="10.094956">
<ele>351.879</ele>
<time>2019-05-30T14:56:27Z</time>
</trkpt>
<trkpt lat="49.523281" lon="10.095061">
<ele>351.718</ele>
<time>2019-05-30T14:56:28Z</time>
</trkpt>
<trkpt lat="49.523319" lon="10.09517">
<ele>351.634</ele>
<time>2019-05-30T14:56:29Z</time>
</trkpt>
<trkpt lat="49.523357" lon="10.095279">
<ele>351.271</ele>
<time>2019-05-30T14:56:30Z</time>
</trkpt>
<trkpt lat="49.523392" lon="10.095392">
<ele>351.025</ele>
<time>2019-05-30T14:56:31Z</time>
</trkpt>
<trkpt lat="49.52343" lon="10.095507">
<ele>350.562</ele>
<time>2019-05-30T14:56:32Z</time>
</trkpt>
<trkpt lat="49.523472" lon="10.09562">
<ele>350.212</ele>
<time>2019-05-30T14:56:33Z</time>
</trkpt>
<trkpt lat="49.523514" lon="10.095735">
<ele>349.983</ele>
<time>2019-05-30T14:56:34Z</time>
</trkpt>
<trkpt lat="49.523552" lon="10.095852">
<ele>349.541</ele>
<time>2019-05-30T14:56:35Z</time>
</trkpt>
<trkpt lat="49.523594" lon="10.095968">
<ele>349.206</ele>
<time>2019-05-30T14:56:36Z</time>
</trkpt>
<trkpt lat="49.523636" lon="10.096084">
<ele>348.998</ele>
<time>2019-05-30T14:56:37Z</time>
</trkpt>
<trkpt lat="49.523678" lon="10.096199">
<ele>348.572</ele>
<time>2019-05-30T14:56:38Z</time>
</trkpt>
<trkpt lat="49.523716" lon="10.096313">
<ele>348.246</ele>
<time>2019-05-30T14:56:39Z</time>
</trkpt>
<trkpt lat="49.523754" lon="10.096428">
<ele>348.007</ele>
<time>2019-05-30T14:56:40Z</time>
</trkpt>
<trkpt lat="49.5238" lon="10.096543">
<ele>347.827</ele>
<time>2019-05-30T14:56:41Z</time>
</trkpt>
<trkpt lat="49.523842" lon="10.096658">
<ele>347.722</ele>
<time>2019-05-30T14:56:42Z</time>
</trkpt>
<trkpt lat="49.523884" lon="10.096771">
<ele>347.407</ele>
<time>2019-05-30T14:56:43Z</time>
</trkpt>
<trkpt lat="49.523926" lon="10.096885">
<ele>347.19</ele>
<time>2019-05-30T14:56:44Z</time>
</trkpt>
<trkpt lat="49.523968" lon="10.096998">
<ele>346.995</ele>
<time>2019-05-30T14:56:45Z</time>
</trkpt>
<trkpt lat="49.52401" lon="10.097108">
<ele>346.875</ele>
<time>2019-05-30T14:56:46Z</time>
</trkpt>
<trkpt lat="49.524055" lon="10.097219">
<ele>346.499</ele>
<time>2019-05-30T14:56:47Z</time>
</trkpt>
<trkpt lat="49.524101" lon="10.09733">
<ele>346.197</ele>
<time>2019-05-30T14:56:48Z</time>
</trkpt>
<trkpt lat="49.524139" lon="10.09744">
<ele>345.961</ele>
<time>2019-05-30T14:56:49Z</time>
</trkpt>
<trkpt lat="49.524181" lon="10.09755">
<ele>345.787</ele>
<time>2019-05-30T14:56:50Z</time>
</trkpt>
<trkpt lat="49.524227" lon="10.09766">
<ele>345.64</ele>
<time>2019-05-30T14:56:51Z</time>
</trkpt>
<trkpt lat="49.524269" lon="10.097769">
<ele>345.342</ele>
<time>2019-05-30T14:56:52Z</time>
</trkpt>
<trkpt lat="49.524307" lon="10.097875">
<ele>345.151</ele>
<time>2019-05-30T14:56:53Z</time>
</trkpt>
<trkpt lat="49.524349" lon="10.097981">
<ele>344.777</ele>
<time>2019-05-30T14:56:54Z</time>
</trkpt>
<trkpt lat="49.524387" lon="10.098084">
<ele>344.464</ele>
<time>2019-05-30T14:56:55Z</time>
</trkpt>
<trkpt lat="49.524429" lon="10.098189">
<ele>344.211</ele>
<time>2019-05-30T14:56:56Z</time>
</trkpt>
<trkpt lat="49.524467" lon="10.098293">
<ele>344.017</ele>
<time>2019-05-30T14:56:57Z</time>
</trkpt>
<trkpt lat="49.524506" lon="10.098398">
<ele>343.893</ele>
<time>2019-05-30T14:56:58Z</time>
</trkpt>
<trkpt lat="49.524548" lon="10.098503">
<ele>343.486</ele>
<time>2019-05-30T14:56:59Z</time>
</trkpt>
<trkpt lat="49.524586" lon="10.098608">
<ele>343.179</ele>
<time>2019-05-30T14:57:00Z</time>
</trkpt>
<trkpt lat="49.52462" lon="10.098715">
<ele>342.939</ele>
<time>2019-05-30T14:57:01Z</time>
</trkpt>
<trkpt lat="49.524658" lon="10.098818">
<ele>342.745</ele>
<time>2019-05-30T14:57:02Z</time>
</trkpt>
<trkpt lat="49.524693" lon="10.098923">
<ele>342.633</ele>
<time>2019-05-30T14:57:03Z</time>
</trkpt>
<trkpt lat="49.524731" lon="10.099027">
<ele>342.553</ele>
<time>2019-05-30T14:57:04Z</time>
</trkpt>
<trkpt lat="49.524769" lon="10.09913">
<ele>342.481</ele>
<time>2019-05-30T14:57:05Z</time>
</trkpt>
<trkpt lat="49.524803" lon="10.099231">
<ele>342.446</ele>
<time>2019-05-30T14:57:06Z</time>
</trkpt>
<trkpt lat="49.524841" lon="10.099329">
<ele>342.446</ele>
<time>2019-05-30T14:57:07Z</time>
</trkpt>
<trkpt lat="49.524876" lon="10.099428">
<ele>342.446</ele>
<time>2019-05-30T14:57:08Z</time>
</trkpt>
<trkpt lat="49.524914" lon="10.099524">
<ele>342.446</ele>
<time>2019-05-30T14:57:09Z</time>
</trkpt>
<trkpt lat="49.524948" lon="10.099625">
<ele>342.446</ele>
<time>2019-05-30T14:57:10Z</time>
</trkpt>
<trkpt lat="49.524982" lon="10.099723">
<ele>342.446</ele>
<time>2019-05-30T14:57:11Z</time>
</trkpt>
<trkpt lat="49.525013" lon="10.099818">
<ele>342.446</ele>
<time>2019-05-30T14:57:12Z</time>
</trkpt>
<trkpt lat="49.525047" lon="10.099914">
<ele>342.446</ele>
<time>2019-05-30T14:57:13Z</time>
</trkpt>
<trkpt lat="49.525078" lon="10.100006">
<ele>342.446</ele>
<time>2019-05-30T14:57:14Z</time>
</trkpt>
<trkpt lat="49.525108" lon="10.100101">
<ele>342.446</ele>
<time>2019-05-30T14:57:15Z</time>
</trkpt>
<trkpt lat="49.525143" lon="10.10019">
<ele>342.446</ele>
<time>2019-05-30T14:57:16Z</time>
</trkpt>
<trkpt lat="49.525169" lon="10.10028">
<ele>342.446</ele>
<time>2019-05-30T14:57:17Z</time>
</trkpt>
<trkpt lat="49.5252" lon="10.10037">
<ele>342.446</ele>
<time>2019-05-30T14:57:18Z</time>
</trkpt>
<trkpt lat="49.525227" lon="10.100462">
<ele>342.446</ele>
<time>2019-05-30T14:57:19Z</time>
</trkpt>
<trkpt lat="49.525257" lon="10.100551">
<ele>342.446</ele>
<time>2019-05-30T14:57:20Z</time>
</trkpt>
<trkpt lat="49.525288" lon="10.100638">
<ele>342.446</ele>
<time>2019-05-30T14:57:21Z</time>
</trkpt>
<trkpt lat="49.525318" lon="10.100725">
<ele>342.446</ele>
<time>2019-05-30T14:57:22Z</time>
</trkpt>
<trkpt lat="49.525349" lon="10.100812">
<ele>342.446</ele>
<time>2019-05-30T14:57:23Z</time>
</trkpt>
<trkpt lat="49.525375" lon="10.100899">
<ele>342.446</ele>
<time>2019-05-30T14:57:24Z</time>
</trkpt>
<trkpt lat="49.52541" lon="10.100988">
<ele>342.446</ele>
<time>2019-05-30T14:57:25Z</time>
</trkpt>
<trkpt lat="49.525436" lon="10.101076">
<ele>342.446</ele>
<time>2019-05-30T14:57:26Z</time>
</trkpt>
<trkpt lat="49.525467" lon="10.101165">
<ele>342.446</ele>
<time>2019-05-30T14:57:27Z</time>
</trkpt>
<trkpt lat="49.525494" lon="10.101256">
<ele>342.446</ele>
<time>2019-05-30T14:57:28Z</time>
</trkpt>
<trkpt lat="49.52552" lon="10.101345">
<ele>342.192</ele>
<time>2019-05-30T14:57:29Z</time>
</trkpt>
<trkpt lat="49.525547" lon="10.101437">
<ele>341.993</ele>
<time>2019-05-30T14:57:30Z</time>
</trkpt>
<trkpt lat="49.525574" lon="10.101527">
<ele>341.841</ele>
<time>2019-05-30T14:57:31Z</time>
</trkpt>
<trkpt lat="49.525604" lon="10.101617">
<ele>341.726</ele>
<time>2019-05-30T14:57:32Z</time>
</trkpt>
<trkpt lat="49.525635" lon="10.101707">
<ele>341.648</ele>
<time>2019-05-30T14:57:33Z</time>
</trkpt>
<trkpt lat="49.525661" lon="10.101799">
<ele>341.588</ele>
<time>2019-05-30T14:57:34Z</time>
</trkpt>
<trkpt lat="49.525688" lon="10.101889">
<ele>341.536</ele>
<time>2019-05-30T14:57:35Z</time>
</trkpt>
<trkpt lat="49.525715" lon="10.10198">
<ele>341.511</ele>
<time>2019-05-30T14:57:36Z</time>
</trkpt>
<trkpt lat="49.525742" lon="10.102072">
<ele>341.511</ele>
<time>2019-05-30T14:57:37Z</time>
</trkpt>
<trkpt lat="49.525772" lon="10.102165">
<ele>341.511</ele>
<time>2019-05-30T14:57:38Z</time>
</trkpt>
<trkpt lat="49.525803" lon="10.10226">
<ele>341.255</ele>
<time>2019-05-30T14:57:39Z</time>
</trkpt>
<trkpt lat="49.525833" lon="10.102355">
<ele>341.055</ele>
<time>2019-05-30T14:57:40Z</time>
</trkpt>
<trkpt lat="49.525864" lon="10.102453">
<ele>340.902</ele>
<time>2019-05-30T14:57:41Z</time>
</trkpt>
<trkpt lat="49.52589" lon="10.102551">
<ele>340.789</ele>
<time>2019-05-30T14:57:42Z</time>
</trkpt>
<trkpt lat="49.525917" lon="10.10265">
<ele>340.708</ele>
<time>2019-05-30T14:57:43Z</time>
</trkpt>
<trkpt lat="49.525948" lon="10.10275">
<ele>340.651</ele>
<time>2019-05-30T14:57:44Z</time>
</trkpt>
<trkpt lat="49.525978" lon="10.102849">
<ele>340.599</ele>
<time>2019-05-30T14:57:45Z</time>
</trkpt>
<trkpt lat="49.526009" lon="10.102948">
<ele>340.575</ele>
<time>2019-05-30T14:57:46Z</time>
</trkpt>
<trkpt lat="49.526039" lon="10.103045">
<ele>340.301</ele>
<time>2019-05-30T14:57:47Z</time>
</trkpt>
<trkpt lat="49.526066" lon="10.10314">
<ele>340.092</ele>
<time>2019-05-30T14:57:48Z</time>
</trkpt>
<trkpt lat="49.526096" lon="10.103236">
<ele>339.934</ele>
<time>2019-05-30T14:57:49Z</time>
</trkpt>
<trkpt lat="49.526127" lon="10.103333">
<ele>339.817</ele>
<time>2019-05-30T14:57:50Z</time>
</trkpt>
<trkpt lat="49.526157" lon="10.103429">
<ele>339.736</ele>
<time>2019-05-30T14:57:51Z</time>
</trkpt>
<trkpt lat="49.526188" lon="10.103521">
<ele>339.688</ele>
<time>2019-05-30T14:57:52Z</time>
</trkpt>
<trkpt lat="49.526215" lon="10.10362">
<ele>339.661</ele>
<time>2019-05-30T14:57:53Z</time>
</trkpt>
<trkpt lat="49.526245" lon="10.103717">
<ele>339.639</ele>
<time>2019-05-30T14:57:54Z</time>
</trkpt>
<trkpt lat="49.526272" lon="10.103813">
<ele>339.639</ele>
<time>2019-05-30T14:57:55Z</time>
</trkpt>
<trkpt lat="49.526302" lon="10.103909">
<ele>339.639</ele>
<time>2019-05-30T14:57:56Z</time>
</trkpt>
<trkpt lat="49.526333" lon="10.104007">
<ele>339.639</ele>
<time>2019-05-30T14:57:57Z</time>
</trkpt>
<trkpt lat="49.52636" lon="10.104102">
<ele>339.639</ele>
<time>2019-05-30T14:57:58Z</time>
</trkpt>
<trkpt lat="49.52639" lon="10.1042">
<ele>339.385</ele>
<time>2019-05-30T14:57:59Z</time>
</trkpt>
<trkpt lat="49.526417" lon="10.104299">
<ele>339.186</ele>
<time>2019-05-30T14:58:00Z</time>
</trkpt>
<trkpt lat="49.526443" lon="10.104395">
<ele>339.036</ele>
<time>2019-05-30T14:58:01Z</time>
</trkpt>
<trkpt lat="49.52647" lon="10.104491">
<ele>338.921</ele>
<time>2019-05-30T14:58:02Z</time>
</trkpt>
<trkpt lat="49.526501" lon="10.104587">
<ele>338.842</ele>
<time>2019-05-30T14:58:03Z</time>
</trkpt>
<trkpt lat="49.526527" lon="10.104682">
<ele>338.782</ele>
<time>2019-05-30T14:58:04Z</time>
</trkpt>
<trkpt lat="49.526554" lon="10.104774">
<ele>338.73</ele>
<time>2019-05-30T14:58:05Z</time>
</trkpt>
<trkpt lat="49.526585" lon="10.104869">
<ele>338.704</ele>
<time>2019-05-30T14:58:06Z</time>
</trkpt>
<trkpt lat="49.526611" lon="10.104963">
<ele>338.704</ele>
<time>2019-05-30T14:58:07Z</time>
</trkpt>
<trkpt lat="49.526634" lon="10.105059">
<ele>338.704</ele>
<time>2019-05-30T14:58:08Z</time>
</trkpt>
<trkpt lat="49.526665" lon="10.105149">
<ele>338.704</ele>
<time>2019-05-30T14:58:09Z</time>
</trkpt>
<trkpt lat="49.526688" lon="10.105244">
<ele>338.704</ele>
<time>2019-05-30T14:58:10Z</time>
</trkpt>
<trkpt lat="49.526714" lon="10.105338">
<ele>338.704</ele>
<time>2019-05-30T14:58:11Z</time>
</trkpt>
<trkpt lat="49.526745" lon="10.105433">
<ele>338.704</ele>
<time>2019-05-30T14:58:12Z</time>
</trkpt>
<trkpt lat="49.526772" lon="10.105531">
<ele>338.704</ele>
<time>2019-05-30T14:58:13Z</time>
</trkpt>
<trkpt lat="49.526802" lon="10.105625">
<ele>338.704</ele>
<time>2019-05-30T14:58:14Z</time>
</trkpt>
<trkpt lat="49.526825" lon="10.105719">
<ele>338.704</ele>
<time>2019-05-30T14:58:15Z</time>
</trkpt>
<trkpt lat="49.526852" lon="10.105811">
<ele>338.704</ele>
<time>2019-05-30T14:58:16Z</time>
</trkpt>
<trkpt lat="49.526878" lon="10.105906">
<ele>338.704</ele>
<time>2019-05-30T14:58:17Z</time>
</trkpt>
<trkpt lat="49.526905" lon="10.106002">
<ele>338.704</ele>
<time>2019-05-30T14:58:18Z</time>
</trkpt>
<trkpt lat="49.526932" lon="10.1061">
<ele>338.704</ele>
<time>2019-05-30T14:58:19Z</time>
</trkpt>
<trkpt lat="49.526958" lon="10.106196">
<ele>338.704</ele>
<time>2019-05-30T14:58:20Z</time>
</trkpt>
<trkpt lat="49.526985" lon="10.10629">
<ele>338.704</ele>
<time>2019-05-30T14:58:21Z</time>
</trkpt>
<trkpt lat="49.527012" lon="10.106385">
<ele>338.704</ele>
<time>2019-05-30T14:58:22Z</time>
</trkpt>
<trkpt lat="49.527039" lon="10.106482">
<ele>338.496</ele>
<time>2019-05-30T14:58:23Z</time>
</trkpt>
<trkpt lat="49.527065" lon="10.106578">
<ele>338.349</ele>
<time>2019-05-30T14:58:24Z</time>
</trkpt>
<trkpt lat="49.527092" lon="10.106675">
<ele>338.198</ele>
<time>2019-05-30T14:58:25Z</time>
</trkpt>
<trkpt lat="49.527119" lon="10.106771">
<ele>338.077</ele>
<time>2019-05-30T14:58:26Z</time>
</trkpt>
<trkpt lat="49.527142" lon="10.10687">
<ele>337.985</ele>
<time>2019-05-30T14:58:27Z</time>
</trkpt>
<trkpt lat="49.527168" lon="10.106966">
<ele>337.917</ele>
<time>2019-05-30T14:58:28Z</time>
</trkpt>
<trkpt lat="49.527195" lon="10.107062">
<ele>337.874</ele>
<time>2019-05-30T14:58:29Z</time>
</trkpt>
<trkpt lat="49.527225" lon="10.107157">
<ele>337.853</ele>
<time>2019-05-30T14:58:30Z</time>
</trkpt>
<trkpt lat="49.527248" lon="10.107251">
<ele>337.853</ele>
<time>2019-05-30T14:58:31Z</time>
</trkpt>
<trkpt lat="49.527279" lon="10.107343">
<ele>337.853</ele>
<time>2019-05-30T14:58:32Z</time>
</trkpt>
<trkpt lat="49.527306" lon="10.107437">
<ele>337.853</ele>
<time>2019-05-30T14:58:33Z</time>
</trkpt>
<trkpt lat="49.527332" lon="10.107532">
<ele>337.853</ele>
<time>2019-05-30T14:58:34Z</time>
</trkpt>
<trkpt lat="49.527363" lon="10.107623">
<ele>337.853</ele>
<time>2019-05-30T14:58:35Z</time>
</trkpt>
<trkpt lat="49.52739" lon="10.10772">
<ele>337.853</ele>
<time>2019-05-30T14:58:36Z</time>
</trkpt>
<trkpt lat="49.527416" lon="10.107819">
<ele>337.582</ele>
<time>2019-05-30T14:58:37Z</time>
</trkpt>
<trkpt lat="49.527447" lon="10.107917">
<ele>337.372</ele>
<time>2019-05-30T14:58:38Z</time>
</trkpt>
<trkpt lat="49.527477" lon="10.108015">
<ele>337.211</ele>
<time>2019-05-30T14:58:39Z</time>
</trkpt>
<trkpt lat="49.527508" lon="10.108111">
<ele>337.094</ele>
<time>2019-05-30T14:58:40Z</time>
</trkpt>
<trkpt lat="49.527538" lon="10.108211">
<ele>337.015</ele>
<time>2019-05-30T14:58:41Z</time>
</trkpt>
<trkpt lat="49.527569" lon="10.108309">
<ele>336.962</ele>
<time>2019-05-30T14:58:42Z</time>
</trkpt>
<trkpt lat="49.527599" lon="10.108407">
<ele>336.939</ele>
<time>2019-05-30T14:58:43Z</time>
</trkpt>
<trkpt lat="49.52763" lon="10.108505">
<ele>336.918</ele>
<time>2019-05-30T14:58:44Z</time>
</trkpt>
<trkpt lat="49.52766" lon="10.108603">
<ele>336.691</ele>
<time>2019-05-30T14:58:45Z</time>
</trkpt>
<trkpt lat="49.527691" lon="10.1087">
<ele>336.5</ele>
<time>2019-05-30T14:58:46Z</time>
</trkpt>
<trkpt lat="49.527721" lon="10.108799">
<ele>336.343</ele>
<time>2019-05-30T14:58:47Z</time>
</trkpt>
<trkpt lat="49.527748" lon="10.108897">
<ele>336.217</ele>
<time>2019-05-30T14:58:48Z</time>
</trkpt>
<trkpt lat="49.527782" lon="10.108995">
<ele>336.121</ele>
<time>2019-05-30T14:58:49Z</time>
</trkpt>
<trkpt lat="49.527809" lon="10.109095">
<ele>336.05</ele>
<time>2019-05-30T14:58:50Z</time>
</trkpt>
<trkpt lat="49.527843" lon="10.109193">
<ele>336.005</ele>
<time>2019-05-30T14:58:51Z</time>
</trkpt>
<trkpt lat="49.527874" lon="10.109291">
<ele>335.983</ele>
<time>2019-05-30T14:58:52Z</time>
</trkpt>
<trkpt lat="49.527905" lon="10.109388">
<ele>335.983</ele>
<time>2019-05-30T14:58:53Z</time>
</trkpt>
<trkpt lat="49.527931" lon="10.109488">
<ele>335.983</ele>
<time>2019-05-30T14:58:54Z</time>
</trkpt>
<trkpt lat="49.527962" lon="10.109589">
<ele>335.983</ele>
<time>2019-05-30T14:58:55Z</time>
</trkpt>
<trkpt lat="49.527992" lon="10.109687">
<ele>335.704</ele>
<time>2019-05-30T14:58:56Z</time>
</trkpt>
<trkpt lat="49.528023" lon="10.109786">
<ele>335.487</ele>
<time>2019-05-30T14:58:57Z</time>
</trkpt>
<trkpt lat="49.528053" lon="10.109883">
<ele>335.326</ele>
<time>2019-05-30T14:58:58Z</time>
</trkpt>
<trkpt lat="49.528084" lon="10.109981">
<ele>335.207</ele>
<time>2019-05-30T14:58:59Z</time>
</trkpt>
<trkpt lat="49.528114" lon="10.110077">
<ele>335.122</ele>
<time>2019-05-30T14:59:00Z</time>
</trkpt>
<trkpt lat="49.528141" lon="10.110173">
<ele>335.074</ele>
<time>2019-05-30T14:59:01Z</time>
</trkpt>
<trkpt lat="49.528172" lon="10.11027">
<ele>335.051</ele>
<time>2019-05-30T14:59:02Z</time>
</trkpt>
<trkpt lat="49.528202" lon="10.110369">
<ele>335.048</ele>
<time>2019-05-30T14:59:03Z</time>
</trkpt>
<trkpt lat="49.528229" lon="10.110467">
<ele>335.048</ele>
<time>2019-05-30T14:59:04Z</time>
</trkpt>
<trkpt lat="49.528259" lon="10.110563">
<ele>335.048</ele>
<time>2019-05-30T14:59:05Z</time>
</trkpt>
<trkpt lat="49.52829" lon="10.110658">
<ele>335.048</ele>
<time>2019-05-30T14:59:06Z</time>
</trkpt>
<trkpt lat="49.52832" lon="10.110755">
<ele>335.048</ele>
<time>2019-05-30T14:59:07Z</time>
</trkpt>
<trkpt lat="49.528347" lon="10.110852">
<ele>335.048</ele>
<time>2019-05-30T14:59:08Z</time>
</trkpt>
<trkpt lat="49.528378" lon="10.110949">
<ele>334.793</ele>
<time>2019-05-30T14:59:09Z</time>
</trkpt>
<trkpt lat="49.528408" lon="10.111049">
<ele>334.594</ele>
<time>2019-05-30T14:59:10Z</time>
</trkpt>
<trkpt lat="49.528442" lon="10.111145">
<ele>334.441</ele>
<time>2019-05-30T14:59:11Z</time>
</trkpt>
<trkpt lat="49.528473" lon="10.111241">
<ele>334.328</ele>
<time>2019-05-30T14:59:12Z</time>
</trkpt>
<trkpt lat="49.528507" lon="10.111337">
<ele>334.249</ele>
<time>2019-05-30T14:59:13Z</time>
</trkpt>
<trkpt lat="49.528542" lon="10.111432">
<ele>334.19</ele>
<time>2019-05-30T14:59:14Z</time>
</trkpt>
<trkpt lat="49.528576" lon="10.111523">
<ele>334.138</ele>
<time>2019-05-30T14:59:15Z</time>
</trkpt>
<trkpt lat="49.528614" lon="10.111615">
<ele>334.113</ele>
<time>2019-05-30T14:59:16Z</time>
</trkpt>
<trkpt lat="49.528652" lon="10.111709">
<ele>334.113</ele>
<time>2019-05-30T14:59:17Z</time>
</trkpt>
<trkpt lat="49.528694" lon="10.111798">
<ele>334.113</ele>
<time>2019-05-30T14:59:18Z</time>
</trkpt>
<trkpt lat="49.528736" lon="10.111889">
<ele>334.113</ele>
<time>2019-05-30T14:59:19Z</time>
</trkpt>
<trkpt lat="49.528774" lon="10.111975">
<ele>334.113</ele>
<time>2019-05-30T14:59:20Z</time>
</trkpt>
<trkpt lat="49.52882" lon="10.112063">
<ele>334.113</ele>
<time>2019-05-30T14:59:21Z</time>
</trkpt>
<trkpt lat="49.528862" lon="10.112151">
<ele>334.113</ele>
<time>2019-05-30T14:59:22Z</time>
</trkpt>
<trkpt lat="49.528904" lon="10.112239">
<ele>334.113</ele>
<time>2019-05-30T14:59:23Z</time>
</trkpt>
<trkpt lat="49.528954" lon="10.112325">
<ele>334.113</ele>
<time>2019-05-30T14:59:24Z</time>
</trkpt>
<trkpt lat="49.528999" lon="10.112411">
<ele>334.113</ele>
<time>2019-05-30T14:59:25Z</time>
</trkpt>
<trkpt lat="49.529049" lon="10.112493">
<ele>334.113</ele>
<time>2019-05-30T14:59:26Z</time>
</trkpt>
<trkpt lat="49.529095" lon="10.112576">
<ele>334.113</ele>
<time>2019-05-30T14:59:27Z</time>
</trkpt>
<trkpt lat="49.529144" lon="10.112657">
<ele>334.113</ele>
<time>2019-05-30T14:59:28Z</time>
</trkpt>
<trkpt lat="49.52919" lon="10.112736">
<ele>334.113</ele>
<time>2019-05-30T14:59:29Z</time>
</trkpt>
<trkpt lat="49.529243" lon="10.112811">
<ele>334.113</ele>
<time>2019-05-30T14:59:30Z</time>
</trkpt>
<trkpt lat="49.529289" lon="10.112888">
<ele>333.831</ele>
<time>2019-05-30T14:59:31Z</time>
</trkpt>
<trkpt lat="49.529339" lon="10.112962">
<ele>333.609</ele>
<time>2019-05-30T14:59:32Z</time>
</trkpt>
<trkpt lat="49.529388" lon="10.113038">
<ele>333.438</ele>
<time>2019-05-30T14:59:33Z</time>
</trkpt>
<trkpt lat="49.529434" lon="10.113113">
<ele>333.319</ele>
<time>2019-05-30T14:59:34Z</time>
</trkpt>
<trkpt lat="49.529484" lon="10.113189">
<ele>333.19</ele>
<time>2019-05-30T14:59:35Z</time>
</trkpt>
<trkpt lat="49.52953" lon="10.113263">
<ele>333.097</ele>
<time>2019-05-30T14:59:36Z</time>
</trkpt>
<trkpt lat="49.529583" lon="10.113341">
<ele>333.037</ele>
<time>2019-05-30T14:59:37Z</time>
</trkpt>
<trkpt lat="49.529625" lon="10.11342">
<ele>333.008</ele>
<time>2019-05-30T14:59:38Z</time>
</trkpt>
<trkpt lat="49.529671" lon="10.113499">
<ele>333.008</ele>
<time>2019-05-30T14:59:39Z</time>
</trkpt>
<trkpt lat="49.529713" lon="10.113578">
<ele>333.008</ele>
<time>2019-05-30T14:59:40Z</time>
</trkpt>
<trkpt lat="49.529751" lon="10.113657">
<ele>333.008</ele>
<time>2019-05-30T14:59:41Z</time>
</trkpt>
<trkpt lat="49.529793" lon="10.113739">
<ele>333.008</ele>
<time>2019-05-30T14:59:42Z</time>
</trkpt>
<trkpt lat="49.529831" lon="10.11382">
<ele>333.008</ele>
<time>2019-05-30T14:59:43Z</time>
</trkpt>
<trkpt lat="49.529873" lon="10.113902">
<ele>333.008</ele>
<time>2019-05-30T14:59:44Z</time>
</trkpt>
<trkpt lat="49.529907" lon="10.113987">
<ele>333.008</ele>
<time>2019-05-30T14:59:45Z</time>
</trkpt>
<trkpt lat="49.529945" lon="10.114072">
<ele>333.008</ele>
<time>2019-05-30T14:59:46Z</time>
</trkpt>
<trkpt lat="49.529976" lon="10.114159">
<ele>333.008</ele>
<time>2019-05-30T14:59:47Z</time>
</trkpt>
<trkpt lat="49.53001" lon="10.114246">
<ele>333.008</ele>
<time>2019-05-30T14:59:48Z</time>
</trkpt>
<trkpt lat="49.530045" lon="10.114337">
<ele>333.008</ele>
<time>2019-05-30T14:59:49Z</time>
</trkpt>
<trkpt lat="49.530075" lon="10.114425">
<ele>333.008</ele>
<time>2019-05-30T14:59:50Z</time>
</trkpt>
<trkpt lat="49.530106" lon="10.114513">
<ele>333.008</ele>
<time>2019-05-30T14:59:51Z</time>
</trkpt>
<trkpt lat="49.530136" lon="10.114602">
<ele>333.008</ele>
<time>2019-05-30T14:59:52Z</time>
</trkpt>
<trkpt lat="49.53017" lon="10.114693">
<ele>333.008</ele>
<time>2019-05-30T14:59:53Z</time>
</trkpt>
<trkpt lat="49.530197" lon="10.114785">
<ele>333.008</ele>
<time>2019-05-30T14:59:54Z</time>
</trkpt>
<trkpt lat="49.530224" lon="10.114877">
<ele>333.008</ele>
<time>2019-05-30T14:59:55Z</time>
</trkpt>
<trkpt lat="49.530247" lon="10.114968">
<ele>333.008</ele>
<time>2019-05-30T14:59:56Z</time>
</trkpt>
<trkpt lat="49.530273" lon="10.115062">
<ele>333.008</ele>
<time>2019-05-30T14:59:57Z</time>
</trkpt>
<trkpt lat="49.5303" lon="10.115157">
<ele>333.008</ele>
<time>2019-05-30T14:59:58Z</time>
</trkpt>
<trkpt lat="49.530323" lon="10.11525">
<ele>333.008</ele>
<time>2019-05-30T14:59:59Z</time>
</trkpt>
<trkpt lat="49.53035" lon="10.115345">
<ele>333.008</ele>
<time>2019-05-30T15:00:00Z</time>
</trkpt>
<trkpt lat="49.530369" lon="10.115442">
<ele>333.008</ele>
<time>2019-05-30T15:00:01Z</time>
</trkpt>
<trkpt lat="49.530392" lon="10.115541">
<ele>333.008</ele>
<time>2019-05-30T15:00:02Z</time>
</trkpt>
<trkpt lat="49.530415" lon="10.115638">
<ele>332.8</ele>
<time>2019-05-30T15:00:03Z</time>
</trkpt>
<trkpt lat="49.530434" lon="10.115736">
<ele>332.652</ele>
<time>2019-05-30T15:00:04Z</time>
</trkpt>
<trkpt lat="49.530457" lon="10.115834">
<ele>332.501</ele>
<time>2019-05-30T15:00:05Z</time>
</trkpt>
<trkpt lat="49.530476" lon="10.115935">
<ele>332.38</ele>
<time>2019-05-30T15:00:06Z</time>
</trkpt>
<trkpt lat="49.530495" lon="10.116035">
<ele>332.287</ele>
<time>2019-05-30T15:00:07Z</time>
</trkpt>
<trkpt lat="49.53051" lon="10.116136">
<ele>332.221</ele>
<time>2019-05-30T15:00:08Z</time>
</trkpt>
<trkpt lat="49.530529" lon="10.116233">
<ele>332.179</ele>
<time>2019-05-30T15:00:09Z</time>
</trkpt>
<trkpt lat="49.530544" lon="10.116331">
<ele>332.158</ele>
<time>2019-05-30T15:00:10Z</time>
</trkpt>
<trkpt lat="49.53056" lon="10.116431">
<ele>332.158</ele>
<time>2019-05-30T15:00:11Z</time>
</trkpt>
<trkpt lat="49.530575" lon="10.116531">
<ele>332.158</ele>
<time>2019-05-30T15:00:12Z</time>
</trkpt>
<trkpt lat="49.530586" lon="10.116632">
<ele>331.932</ele>
<time>2019-05-30T15:00:13Z</time>
</trkpt>
<trkpt lat="49.530602" lon="10.116732">
<ele>331.77</ele>
<time>2019-05-30T15:00:14Z</time>
</trkpt>
<trkpt lat="49.530617" lon="10.11683">
<ele>331.603</ele>
<time>2019-05-30T15:00:15Z</time>
</trkpt>
<trkpt lat="49.530628" lon="10.116926">
<ele>331.47</ele>
<time>2019-05-30T15:00:16Z</time>
</trkpt>
<trkpt lat="49.53064" lon="10.117024">
<ele>331.367</ele>
<time>2019-05-30T15:00:17Z</time>
</trkpt>
<trkpt lat="49.530647" lon="10.117123">
<ele>331.294</ele>
<time>2019-05-30T15:00:18Z</time>
</trkpt>
<trkpt lat="49.530659" lon="10.117224">
<ele>331.246</ele>
<time>2019-05-30T15:00:19Z</time>
</trkpt>
<trkpt lat="49.530666" lon="10.117324">
<ele>331.223</ele>
<time>2019-05-30T15:00:20Z</time>
</trkpt>
<trkpt lat="49.530678" lon="10.117423">
<ele>331.223</ele>
<time>2019-05-30T15:00:21Z</time>
</trkpt>
<trkpt lat="49.530685" lon="10.117521">
<ele>331.223</ele>
<time>2019-05-30T15:00:22Z</time>
</trkpt>
<trkpt lat="49.530689" lon="10.11762">
<ele>331.223</ele>
<time>2019-05-30T15:00:23Z</time>
</trkpt>
<trkpt lat="49.530701" lon="10.11772">
<ele>331.223</ele>
<time>2019-05-30T15:00:24Z</time>
</trkpt>
<trkpt lat="49.530708" lon="10.117822">
<ele>331.223</ele>
<time>2019-05-30T15:00:25Z</time>
</trkpt>
<trkpt lat="49.530716" lon="10.117922">
<ele>331.223</ele>
<time>2019-05-30T15:00:26Z</time>
</trkpt>
<trkpt lat="49.53072" lon="10.118026">
<ele>330.977</ele>
<time>2019-05-30T15:00:27Z</time>
</trkpt>
<trkpt lat="49.530727" lon="10.118131">
<ele>330.786</ele>
<time>2019-05-30T15:00:28Z</time>
</trkpt>
<trkpt lat="49.530735" lon="10.118237">
<ele>330.638</ele>
<time>2019-05-30T15:00:29Z</time>
</trkpt>
<trkpt lat="49.530743" lon="10.118341">
<ele>330.531</ele>
<time>2019-05-30T15:00:30Z</time>
</trkpt>
<trkpt lat="49.53075" lon="10.118446">
<ele>330.459</ele>
<time>2019-05-30T15:00:31Z</time>
</trkpt>
<trkpt lat="49.530754" lon="10.118548">
<ele>330.417</ele>
<time>2019-05-30T15:00:32Z</time>
</trkpt>
<trkpt lat="49.530758" lon="10.11865">
<ele>330.393</ele>
<time>2019-05-30T15:00:33Z</time>
</trkpt>
<trkpt lat="49.530769" lon="10.118751">
<ele>330.373</ele>
<time>2019-05-30T15:00:34Z</time>
</trkpt>
<trkpt lat="49.530773" lon="10.118849">
<ele>330.373</ele>
<time>2019-05-30T15:00:35Z</time>
</trkpt>
<trkpt lat="49.530781" lon="10.118943">
<ele>330.373</ele>
<time>2019-05-30T15:00:36Z</time>
</trkpt>
<trkpt lat="49.530788" lon="10.119038">
<ele>330.373</ele>
<time>2019-05-30T15:00:37Z</time>
</trkpt>
<trkpt lat="49.530804" lon="10.11913">
<ele>330.373</ele>
<time>2019-05-30T15:00:38Z</time>
</trkpt>
<trkpt lat="49.530823" lon="10.119218">
<ele>330.373</ele>
<time>2019-05-30T15:00:39Z</time>
</trkpt>
<trkpt lat="49.530838" lon="10.119307">
<ele>330.373</ele>
<time>2019-05-30T15:00:40Z</time>
</trkpt>
<trkpt lat="49.530849" lon="10.119393">
<ele>330.373</ele>
<time>2019-05-30T15:00:41Z</time>
</trkpt>
<trkpt lat="49.530861" lon="10.119484">
<ele>330.373</ele>
<time>2019-05-30T15:00:42Z</time>
</trkpt>
<trkpt lat="49.530876" lon="10.119574">
<ele>330.373</ele>
<time>2019-05-30T15:00:43Z</time>
</trkpt>
<trkpt lat="49.530891" lon="10.119662">
<ele>330.373</ele>
<time>2019-05-30T15:00:44Z</time>
</trkpt>
<trkpt lat="49.530907" lon="10.119754">
<ele>330.373</ele>
<time>2019-05-30T15:00:45Z</time>
</trkpt>
<trkpt lat="49.530918" lon="10.119842">
<ele>330.373</ele>
<time>2019-05-30T15:00:46Z</time>
</trkpt>
<trkpt lat="49.530933" lon="10.119932">
<ele>330.373</ele>
<time>2019-05-30T15:00:47Z</time>
</trkpt>
<trkpt lat="49.530949" lon="10.120022">
<ele>330.373</ele>
<time>2019-05-30T15:00:48Z</time>
</trkpt>
<trkpt lat="49.53096" lon="10.120112">
<ele>330.373</ele>
<time>2019-05-30T15:00:49Z</time>
</trkpt>
<trkpt lat="49.530979" lon="10.120203">
<ele>330.373</ele>
<time>2019-05-30T15:00:50Z</time>
</trkpt>
<trkpt lat="49.530991" lon="10.120295">
<ele>330.373</ele>
<time>2019-05-30T15:00:51Z</time>
</trkpt>
<trkpt lat="49.531006" lon="10.120387">
<ele>330.373</ele>
<time>2019-05-30T15:00:52Z</time>
</trkpt>
<trkpt lat="49.531017" lon="10.120479">
<ele>330.373</ele>
<time>2019-05-30T15:00:53Z</time>
</trkpt>
<trkpt lat="49.531017" lon="10.120568">
<ele>330.373</ele>
<time>2019-05-30T15:00:54Z</time>
</trkpt>
<trkpt lat="49.531017" lon="10.120659">
<ele>330.373</ele>
<time>2019-05-30T15:00:55Z</time>
</trkpt>
<trkpt lat="49.53101" lon="10.120749">
<ele>330.373</ele>
<time>2019-05-30T15:00:56Z</time>
</trkpt>
<trkpt lat="49.530994" lon="10.120842">
<ele>330.373</ele>
<time>2019-05-30T15:00:57Z</time>
</trkpt>
<trkpt lat="49.530983" lon="10.120935">
<ele>330.111</ele>
<time>2019-05-30T15:00:58Z</time>
</trkpt>
<trkpt lat="49.530975" lon="10.121025">
<ele>329.907</ele>
<time>2019-05-30T15:00:59Z</time>
</trkpt>
<trkpt lat="49.53096" lon="10.121114">
<ele>329.753</ele>
<time>2019-05-30T15:01:00Z</time>
</trkpt>
<trkpt lat="49.530956" lon="10.121204">
<ele>329.637</ele>
<time>2019-05-30T15:01:01Z</time>
</trkpt>
<trkpt lat="49.530956" lon="10.121299">
<ele>329.557</ele>
<time>2019-05-30T15:01:02Z</time>
</trkpt>
<trkpt lat="49.530956" lon="10.121393">
<ele>329.505</ele>
<time>2019-05-30T15:01:03Z</time>
</trkpt>
<trkpt lat="49.53096" lon="10.121487">
<ele>329.465</ele>
<time>2019-05-30T15:01:04Z</time>
</trkpt>
<trkpt lat="49.530964" lon="10.121579">
<ele>329.439</ele>
<time>2019-05-30T15:01:05Z</time>
</trkpt>
<trkpt lat="49.530964" lon="10.121675">
<ele>329.439</ele>
<time>2019-05-30T15:01:06Z</time>
</trkpt>
<trkpt lat="49.530972" lon="10.121768">
<ele>329.439</ele>
<time>2019-05-30T15:01:07Z</time>
</trkpt>
<trkpt lat="49.530979" lon="10.121861">
<ele>329.439</ele>
<time>2019-05-30T15:01:08Z</time>
</trkpt>
<trkpt lat="49.530987" lon="10.121952">
<ele>329.439</ele>
<time>2019-05-30T15:01:09Z</time>
</trkpt>
<trkpt lat="49.530991" lon="10.12204">
<ele>329.439</ele>
<time>2019-05-30T15:01:10Z</time>
</trkpt>
<trkpt lat="49.530994" lon="10.12213">
<ele>329.439</ele>
<time>2019-05-30T15:01:11Z</time>
</trkpt>
<trkpt lat="49.531006" lon="10.12222">
<ele>329.439</ele>
<time>2019-05-30T15:01:12Z</time>
</trkpt>
<trkpt lat="49.531013" lon="10.122312">
<ele>329.439</ele>
<time>2019-05-30T15:01:13Z</time>
</trkpt>
<trkpt lat="49.531025" lon="10.122403">
<ele>329.439</ele>
<time>2019-05-30T15:01:14Z</time>
</trkpt>
<trkpt lat="49.53104" lon="10.122497">
<ele>329.439</ele>
<time>2019-05-30T15:01:15Z</time>
</trkpt>
<trkpt lat="49.531048" lon="10.122588">
<ele>329.439</ele>
<time>2019-05-30T15:01:16Z</time>
</trkpt>
<trkpt lat="49.531063" lon="10.122679">
<ele>329.439</ele>
<time>2019-05-30T15:01:17Z</time>
</trkpt>
<trkpt lat="49.531078" lon="10.122766">
<ele>329.439</ele>
<time>2019-05-30T15:01:18Z</time>
</trkpt>
<trkpt lat="49.531086" lon="10.122855">
<ele>329.439</ele>
<time>2019-05-30T15:01:19Z</time>
</trkpt>
<trkpt lat="49.531105" lon="10.12294">
<ele>329.439</ele>
<time>2019-05-30T15:01:20Z</time>
</trkpt>
<trkpt lat="49.531113" lon="10.123027">
<ele>329.439</ele>
<time>2019-05-30T15:01:21Z</time>
</trkpt>
<trkpt lat="49.531116" lon="10.123113">
<ele>329.439</ele>
<time>2019-05-30T15:01:22Z</time>
</trkpt>
<trkpt lat="49.531124" lon="10.123201">
<ele>329.439</ele>
<time>2019-05-30T15:01:23Z</time>
</trkpt>
<trkpt lat="49.531132" lon="10.12329">
<ele>329.439</ele>
<time>2019-05-30T15:01:24Z</time>
</trkpt>
<trkpt lat="49.531147" lon="10.123379">
<ele>329.439</ele>
<time>2019-05-30T15:01:25Z</time>
</trkpt>
<trkpt lat="49.531155" lon="10.123465">
<ele>329.439</ele>
<time>2019-05-30T15:01:26Z</time>
</trkpt>
<trkpt lat="49.531162" lon="10.123549">
<ele>329.439</ele>
<time>2019-05-30T15:01:27Z</time>
</trkpt>
<trkpt lat="49.531166" lon="10.123636">
<ele>329.439</ele>
<time>2019-05-30T15:01:28Z</time>
</trkpt>
<trkpt lat="49.53117" lon="10.123727">
<ele>329.439</ele>
<time>2019-05-30T15:01:29Z</time>
</trkpt>
<trkpt lat="49.531197" lon="10.123815">
<ele>329.439</ele>
<time>2019-05-30T15:01:30Z</time>
</trkpt>
<trkpt lat="49.5312" lon="10.123902">
<ele>329.439</ele>
<time>2019-05-30T15:01:31Z</time>
</trkpt>
<trkpt lat="49.531189" lon="10.123984">
<ele>329.206</ele>
<time>2019-05-30T15:01:32Z</time>
</trkpt>
<trkpt lat="49.531181" lon="10.12407">
<ele>329.021</ele>
<time>2019-05-30T15:01:33Z</time>
</trkpt>
<trkpt lat="49.531181" lon="10.124158">
<ele>328.892</ele>
<time>2019-05-30T15:01:34Z</time>
</trkpt>
<trkpt lat="49.531178" lon="10.124252">
<ele>328.755</ele>
<time>2019-05-30T15:01:35Z</time>
</trkpt>
<trkpt lat="49.531174" lon="10.124343">
<ele>328.653</ele>
<time>2019-05-30T15:01:36Z</time>
</trkpt>
<trkpt lat="49.531178" lon="10.124434">
<ele>328.578</ele>
<time>2019-05-30T15:01:37Z</time>
</trkpt>
<trkpt lat="49.531181" lon="10.124525">
<ele>328.53</ele>
<time>2019-05-30T15:01:38Z</time>
</trkpt>
<trkpt lat="49.5312" lon="10.124612">
<ele>328.504</ele>
<time>2019-05-30T15:01:39Z</time>
</trkpt>
<trkpt lat="49.531212" lon="10.124701">
<ele>328.504</ele>
<time>2019-05-30T15:01:40Z</time>
</trkpt>
<trkpt lat="49.531231" lon="10.12479">
<ele>328.504</ele>
<time>2019-05-30T15:01:41Z</time>
</trkpt>
<trkpt lat="49.531254" lon="10.124879">
<ele>328.505</ele>
<time>2019-05-30T15:01:42Z</time>
</trkpt>
<trkpt lat="49.531277" lon="10.124967">
<ele>328.505</ele>
<time>2019-05-30T15:01:43Z</time>
</trkpt>
<trkpt lat="49.531296" lon="10.125053">
<ele>328.504</ele>
<time>2019-05-30T15:01:44Z</time>
</trkpt>
<trkpt lat="49.531322" lon="10.125134">
<ele>328.504</ele>
<time>2019-05-30T15:01:45Z</time>
</trkpt>
<trkpt lat="49.531342" lon="10.125218">
<ele>328.505</ele>
<time>2019-05-30T15:01:46Z</time>
</trkpt>
<trkpt lat="49.531372" lon="10.1253">
<ele>328.504</ele>
<time>2019-05-30T15:01:47Z</time>
</trkpt>
<trkpt lat="49.531395" lon="10.125383">
<ele>328.504</ele>
<time>2019-05-30T15:01:48Z</time>
</trkpt>
<trkpt lat="49.531418" lon="10.12547">
<ele>328.505</ele>
<time>2019-05-30T15:01:49Z</time>
</trkpt>
<trkpt lat="49.531445" lon="10.125551">
<ele>328.505</ele>
<time>2019-05-30T15:01:50Z</time>
</trkpt>
<trkpt lat="49.531471" lon="10.125631">
<ele>328.504</ele>
<time>2019-05-30T15:01:51Z</time>
</trkpt>
<trkpt lat="49.531498" lon="10.125711">
<ele>328.505</ele>
<time>2019-05-30T15:01:52Z</time>
</trkpt>
<trkpt lat="49.531528" lon="10.12579">
<ele>328.505</ele>
<time>2019-05-30T15:01:53Z</time>
</trkpt>
<trkpt lat="49.531551" lon="10.125872">
<ele>328.505</ele>
<time>2019-05-30T15:01:54Z</time>
</trkpt>
<trkpt lat="49.531578" lon="10.125952">
<ele>328.278</ele>
<time>2019-05-30T15:01:55Z</time>
</trkpt>
<trkpt lat="49.531609" lon="10.126032">
<ele>328.088</ele>
<time>2019-05-30T15:01:56Z</time>
</trkpt>
<trkpt lat="49.531635" lon="10.126115">
<ele>327.931</ele>
<time>2019-05-30T15:01:57Z</time>
</trkpt>
<trkpt lat="49.53167" lon="10.126197">
<ele>327.803</ele>
<time>2019-05-30T15:01:58Z</time>
</trkpt>
<trkpt lat="49.5317" lon="10.126272">
<ele>327.706</ele>
<time>2019-05-30T15:01:59Z</time>
</trkpt>
<trkpt lat="49.531731" lon="10.126353">
<ele>327.637</ele>
<time>2019-05-30T15:02:00Z</time>
</trkpt>
<trkpt lat="49.531754" lon="10.12643">
<ele>327.592</ele>
<time>2019-05-30T15:02:01Z</time>
</trkpt>
<trkpt lat="49.531776" lon="10.126507">
<ele>327.57</ele>
<time>2019-05-30T15:02:02Z</time>
</trkpt>
<trkpt lat="49.531799" lon="10.126585">
<ele>327.57</ele>
<time>2019-05-30T15:02:03Z</time>
</trkpt>
<trkpt lat="49.531826" lon="10.126668">
<ele>327.57</ele>
<time>2019-05-30T15:02:04Z</time>
</trkpt>
<trkpt lat="49.531849" lon="10.126752">
<ele>327.57</ele>
<time>2019-05-30T15:02:05Z</time>
</trkpt>
<trkpt lat="49.531876" lon="10.126833">
<ele>327.57</ele>
<time>2019-05-30T15:02:06Z</time>
</trkpt>
<trkpt lat="49.531898" lon="10.126913">
<ele>327.57</ele>
<time>2019-05-30T15:02:07Z</time>
</trkpt>
<trkpt lat="49.531937" lon="10.126987">
<ele>327.57</ele>
<time>2019-05-30T15:02:08Z</time>
</trkpt>
<trkpt lat="49.531963" lon="10.127067">
<ele>327.57</ele>
<time>2019-05-30T15:02:09Z</time>
</trkpt>
<trkpt lat="49.531986" lon="10.127144">
<ele>327.57</ele>
<time>2019-05-30T15:02:10Z</time>
</trkpt>
<trkpt lat="49.532013" lon="10.127219">
<ele>327.57</ele>
<time>2019-05-30T15:02:11Z</time>
</trkpt>
<trkpt lat="49.53204" lon="10.127296">
<ele>327.57</ele>
<time>2019-05-30T15:02:12Z</time>
</trkpt>
<trkpt lat="49.532074" lon="10.127374">
<ele>327.57</ele>
<time>2019-05-30T15:02:13Z</time>
</trkpt>
<trkpt lat="49.532104" lon="10.127448">
<ele>327.57</ele>
<time>2019-05-30T15:02:14Z</time>
</trkpt>
<trkpt lat="49.532135" lon="10.127522">
<ele>327.57</ele>
<time>2019-05-30T15:02:15Z</time>
</trkpt>
<trkpt lat="49.532166" lon="10.127595">
<ele>327.57</ele>
<time>2019-05-30T15:02:16Z</time>
</trkpt>
<trkpt lat="49.532196" lon="10.127667">
<ele>327.84</ele>
<time>2019-05-30T15:02:17Z</time>
</trkpt>
<trkpt lat="49.532227" lon="10.127737">
<ele>328.049</ele>
<time>2019-05-30T15:02:18Z</time>
</trkpt>
<trkpt lat="49.532257" lon="10.127806">
<ele>328.206</ele>
<time>2019-05-30T15:02:19Z</time>
</trkpt>
<trkpt lat="49.532288" lon="10.127875">
<ele>328.324</ele>
<time>2019-05-30T15:02:20Z</time>
</trkpt>
<trkpt lat="49.532318" lon="10.127945">
<ele>328.406</ele>
<time>2019-05-30T15:02:21Z</time>
</trkpt>
<trkpt lat="49.532352" lon="10.128014">
<ele>328.458</ele>
<time>2019-05-30T15:02:22Z</time>
</trkpt>
<trkpt lat="49.532387" lon="10.12808">
<ele>328.482</ele>
<time>2019-05-30T15:02:23Z</time>
</trkpt>
<trkpt lat="49.532433" lon="10.128141">
<ele>328.504</ele>
<time>2019-05-30T15:02:24Z</time>
</trkpt>
<trkpt lat="49.532471" lon="10.128208">
<ele>328.505</ele>
<time>2019-05-30T15:02:25Z</time>
</trkpt>
<trkpt lat="49.532513" lon="10.128271">
<ele>328.505</ele>
<time>2019-05-30T15:02:26Z</time>
</trkpt>
<trkpt lat="49.532551" lon="10.128333">
<ele>328.505</ele>
<time>2019-05-30T15:02:27Z</time>
</trkpt>
<trkpt lat="49.532593" lon="10.128392">
<ele>328.505</ele>
<time>2019-05-30T15:02:28Z</time>
</trkpt>
<trkpt lat="49.532639" lon="10.12845">
<ele>328.504</ele>
<time>2019-05-30T15:02:29Z</time>
</trkpt>
<trkpt lat="49.532681" lon="10.12851">
<ele>328.504</ele>
<time>2019-05-30T15:02:30Z</time>
</trkpt>
<trkpt lat="49.532719" lon="10.128572">
<ele>328.504</ele>
<time>2019-05-30T15:02:31Z</time>
</trkpt>
<trkpt lat="49.532764" lon="10.128633">
<ele>328.504</ele>
<time>2019-05-30T15:02:32Z</time>
</trkpt>
<trkpt lat="49.532799" lon="10.128696">
<ele>328.505</ele>
<time>2019-05-30T15:02:33Z</time>
</trkpt>
<trkpt lat="49.532829" lon="10.128761">
<ele>328.505</ele>
<time>2019-05-30T15:02:34Z</time>
</trkpt>
<trkpt lat="49.532864" lon="10.128826">
<ele>328.505</ele>
<time>2019-05-30T15:02:35Z</time>
</trkpt>
<trkpt lat="49.532894" lon="10.128897">
<ele>328.505</ele>
<time>2019-05-30T15:02:36Z</time>
</trkpt>
<trkpt lat="49.532921" lon="10.128968">
<ele>328.505</ele>
<time>2019-05-30T15:02:37Z</time>
</trkpt>
<trkpt lat="49.532951" lon="10.129044">
<ele>328.504</ele>
<time>2019-05-30T15:02:38Z</time>
</trkpt>
<trkpt lat="49.532978" lon="10.129124">
<ele>328.505</ele>
<time>2019-05-30T15:02:39Z</time>
</trkpt>
<trkpt lat="49.533005" lon="10.129205">
<ele>328.504</ele>
<time>2019-05-30T15:02:40Z</time>
</trkpt>
<trkpt lat="49.533054" lon="10.129283">
<ele>328.505</ele>
<time>2019-05-30T15:02:41Z</time>
</trkpt>
<trkpt lat="49.533085" lon="10.129371">
<ele>328.505</ele>
<time>2019-05-30T15:02:42Z</time>
</trkpt>
<trkpt lat="49.533104" lon="10.129463">
<ele>328.245</ele>
<time>2019-05-30T15:02:43Z</time>
</trkpt>
<trkpt lat="49.533123" lon="10.129557">
<ele>328.065</ele>
<time>2019-05-30T15:02:44Z</time>
</trkpt>
<trkpt lat="49.533131" lon="10.129653">
<ele>327.884</ele>
<time>2019-05-30T15:02:45Z</time>
</trkpt>
<trkpt lat="49.533142" lon="10.129748">
<ele>327.744</ele>
<time>2019-05-30T15:02:46Z</time>
</trkpt>
<trkpt lat="49.533157" lon="10.129848">
<ele>327.636</ele>
<time>2019-05-30T15:02:47Z</time>
</trkpt>
<trkpt lat="49.533169" lon="10.129949">
<ele>327.56</ele>
<time>2019-05-30T15:02:48Z</time>
</trkpt>
<trkpt lat="49.533184" lon="10.13005">
<ele>327.512</ele>
<time>2019-05-30T15:02:49Z</time>
</trkpt>
<trkpt lat="49.533207" lon="10.130148">
<ele>327.485</ele>
<time>2019-05-30T15:02:50Z</time>
</trkpt>
<trkpt lat="49.53323" lon="10.130244">
<ele>327.485</ele>
<time>2019-05-30T15:02:51Z</time>
</trkpt>
<trkpt lat="49.533245" lon="10.130339">
<ele>327.485</ele>
<time>2019-05-30T15:02:52Z</time>
</trkpt>
<trkpt lat="49.533276" lon="10.130435">
<ele>327.485</ele>
<time>2019-05-30T15:02:53Z</time>
</trkpt>
<trkpt lat="49.533295" lon="10.130533">
<ele>327.276</ele>
<time>2019-05-30T15:02:54Z</time>
</trkpt>
<trkpt lat="49.533314" lon="10.130633">
<ele>327.081</ele>
<time>2019-05-30T15:02:55Z</time>
</trkpt>
<trkpt lat="49.533337" lon="10.130734">
<ele>326.919</ele>
<time>2019-05-30T15:02:56Z</time>
</trkpt>
<trkpt lat="49.53336" lon="10.130836">
<ele>326.791</ele>
<time>2019-05-30T15:02:57Z</time>
</trkpt>
<trkpt lat="49.533394" lon="10.130928">
<ele>326.69</ele>
<time>2019-05-30T15:02:58Z</time>
</trkpt>
<trkpt lat="49.533421" lon="10.131023">
<ele>326.617</ele>
<time>2019-05-30T15:02:59Z</time>
</trkpt>
<trkpt lat="49.533451" lon="10.131116">
<ele>326.572</ele>
<time>2019-05-30T15:03:00Z</time>
</trkpt>
<trkpt lat="49.533482" lon="10.13121">
<ele>326.551</ele>
<time>2019-05-30T15:03:01Z</time>
</trkpt>
<trkpt lat="49.533508" lon="10.131305">
<ele>326.551</ele>
<time>2019-05-30T15:03:02Z</time>
</trkpt>
<trkpt lat="49.533535" lon="10.1314">
<ele>326.551</ele>
<time>2019-05-30T15:03:03Z</time>
</trkpt>
<trkpt lat="49.533562" lon="10.131495">
<ele>326.551</ele>
<time>2019-05-30T15:03:04Z</time>
</trkpt>
<trkpt lat="49.533592" lon="10.131583">
<ele>326.551</ele>
<time>2019-05-30T15:03:05Z</time>
</trkpt>
<trkpt lat="49.533623" lon="10.131667">
<ele>326.551</ele>
<time>2019-05-30T15:03:06Z</time>
</trkpt>
<trkpt lat="49.533646" lon="10.13175">
<ele>326.551</ele>
<time>2019-05-30T15:03:07Z</time>
</trkpt>
<trkpt lat="49.533672" lon="10.131832">
<ele>326.551</ele>
<time>2019-05-30T15:03:08Z</time>
</trkpt>
<trkpt lat="49.533699" lon="10.131912">
<ele>326.551</ele>
<time>2019-05-30T15:03:09Z</time>
</trkpt>
<trkpt lat="49.533722" lon="10.131995">
<ele>326.551</ele>
<time>2019-05-30T15:03:10Z</time>
</trkpt>
<trkpt lat="49.533745" lon="10.132082">
<ele>326.551</ele>
<time>2019-05-30T15:03:11Z</time>
</trkpt>
<trkpt lat="49.53376" lon="10.132167">
<ele>326.551</ele>
<time>2019-05-30T15:03:12Z</time>
</trkpt>
<trkpt lat="49.533779" lon="10.132256">
<ele>326.551</ele>
<time>2019-05-30T15:03:13Z</time>
</trkpt>
<trkpt lat="49.533787" lon="10.132343">
<ele>326.551</ele>
<time>2019-05-30T15:03:14Z</time>
</trkpt>
<trkpt lat="49.533794" lon="10.132434">
<ele>326.551</ele>
<time>2019-05-30T15:03:15Z</time>
</trkpt>
<trkpt lat="49.533802" lon="10.132524">
<ele>326.551</ele>
<time>2019-05-30T15:03:16Z</time>
</trkpt>
<trkpt lat="49.533806" lon="10.132611">
<ele>326.551</ele>
<time>2019-05-30T15:03:17Z</time>
</trkpt>
<trkpt lat="49.53381" lon="10.132702">
<ele>326.551</ele>
<time>2019-05-30T15:03:18Z</time>
</trkpt>
<trkpt lat="49.53381" lon="10.13279">
<ele>326.551</ele>
<time>2019-05-30T15:03:19Z</time>
</trkpt>
<trkpt lat="49.53381" lon="10.132878">
<ele>326.551</ele>
<time>2019-05-30T15:03:20Z</time>
</trkpt>
<trkpt lat="49.533806" lon="10.132965">
<ele>326.551</ele>
<time>2019-05-30T15:03:21Z</time>
</trkpt>
<trkpt lat="49.533802" lon="10.133052">
<ele>326.551</ele>
<time>2019-05-30T15:03:22Z</time>
</trkpt>
<trkpt lat="49.533802" lon="10.133137">
<ele>326.551</ele>
<time>2019-05-30T15:03:23Z</time>
</trkpt>
<trkpt lat="49.533798" lon="10.133218">
<ele>326.551</ele>
<time>2019-05-30T15:03:24Z</time>
</trkpt>
<trkpt lat="49.533798" lon="10.1333">
<ele>326.551</ele>
<time>2019-05-30T15:03:25Z</time>
</trkpt>
<trkpt lat="49.533794" lon="10.133381">
<ele>326.551</ele>
<time>2019-05-30T15:03:26Z</time>
</trkpt>
<trkpt lat="49.533787" lon="10.133462">
<ele>326.841</ele>
<time>2019-05-30T15:03:27Z</time>
</trkpt>
<trkpt lat="49.533787" lon="10.133542">
<ele>327.068</ele>
<time>2019-05-30T15:03:28Z</time>
</trkpt>
<trkpt lat="49.533783" lon="10.133618">
<ele>327.24</ele>
<time>2019-05-30T15:03:29Z</time>
</trkpt>
<trkpt lat="49.533779" lon="10.133695">
<ele>327.372</ele>
<time>2019-05-30T15:03:30Z</time>
</trkpt>
<trkpt lat="49.533772" lon="10.13377">
<ele>327.459</ele>
<time>2019-05-30T15:03:31Z</time>
</trkpt>
<trkpt lat="49.533764" lon="10.133845">
<ele>327.506</ele>
<time>2019-05-30T15:03:32Z</time>
</trkpt>
<trkpt lat="49.533756" lon="10.133917">
<ele>327.805</ele>
<time>2019-05-30T15:03:33Z</time>
</trkpt>
<trkpt lat="49.533749" lon="10.133988">
<ele>328.024</ele>
<time>2019-05-30T15:03:34Z</time>
</trkpt>
<trkpt lat="49.533741" lon="10.134058">
<ele>328.219</ele>
<time>2019-05-30T15:03:35Z</time>
</trkpt>
<trkpt lat="49.533737" lon="10.134125">
<ele>328.376</ele>
<time>2019-05-30T15:03:36Z</time>
</trkpt>
<trkpt lat="49.53373" lon="10.134192">
<ele>328.5</ele>
<time>2019-05-30T15:03:37Z</time>
</trkpt>
<trkpt lat="49.533722" lon="10.134256">
<ele>328.588</ele>
<time>2019-05-30T15:03:38Z</time>
</trkpt>
<trkpt lat="49.533718" lon="10.134319">
<ele>328.643</ele>
<time>2019-05-30T15:03:39Z</time>
</trkpt>
<trkpt lat="49.53371" lon="10.134384">
<ele>328.915</ele>
<time>2019-05-30T15:03:40Z</time>
</trkpt>
<trkpt lat="49.533707" lon="10.134445">
<ele>329.146</ele>
<time>2019-05-30T15:03:41Z</time>
</trkpt>
<trkpt lat="49.533699" lon="10.134508">
<ele>329.309</ele>
<time>2019-05-30T15:03:42Z</time>
</trkpt>
<trkpt lat="49.533691" lon="10.134568">
<ele>329.404</ele>
<time>2019-05-30T15:03:43Z</time>
</trkpt>
<trkpt lat="49.533688" lon="10.13463">
<ele>329.725</ele>
<time>2019-05-30T15:03:44Z</time>
</trkpt>
<trkpt lat="49.53368" lon="10.134688">
<ele>330.007</ele>
<time>2019-05-30T15:03:45Z</time>
</trkpt>
<trkpt lat="49.533672" lon="10.134743">
<ele>330.226</ele>
<time>2019-05-30T15:03:46Z</time>
</trkpt>
<trkpt lat="49.533665" lon="10.134799">
<ele>330.383</ele>
<time>2019-05-30T15:03:47Z</time>
</trkpt>
<trkpt lat="49.533661" lon="10.134855">
<ele>330.484</ele>
<time>2019-05-30T15:03:48Z</time>
</trkpt>
<trkpt lat="49.533657" lon="10.13491">
<ele>330.557</ele>
<time>2019-05-30T15:03:49Z</time>
</trkpt>
<trkpt lat="49.533653" lon="10.134967">
<ele>330.605</ele>
<time>2019-05-30T15:03:50Z</time>
</trkpt>
<trkpt lat="49.533646" lon="10.135023">
<ele>330.629</ele>
<time>2019-05-30T15:03:51Z</time>
</trkpt>
<trkpt lat="49.533638" lon="10.13508">
<ele>330.629</ele>
<time>2019-05-30T15:03:52Z</time>
</trkpt>
<trkpt lat="49.533634" lon="10.135137">
<ele>330.629</ele>
<time>2019-05-30T15:03:53Z</time>
</trkpt>
<trkpt lat="49.533627" lon="10.135193">
<ele>330.856</ele>
<time>2019-05-30T15:03:54Z</time>
</trkpt>
<trkpt lat="49.533623" lon="10.13525">
<ele>331.071</ele>
<time>2019-05-30T15:03:55Z</time>
</trkpt>
<trkpt lat="49.533615" lon="10.135304">
<ele>331.247</ele>
<time>2019-05-30T15:03:56Z</time>
</trkpt>
<trkpt lat="49.533604" lon="10.135361">
<ele>331.367</ele>
<time>2019-05-30T15:03:57Z</time>
</trkpt>
<trkpt lat="49.5336" lon="10.135415">
<ele>331.709</ele>
<time>2019-05-30T15:03:58Z</time>
</trkpt>
<trkpt lat="49.533592" lon="10.135469">
<ele>331.983</ele>
<time>2019-05-30T15:03:59Z</time>
</trkpt>
<trkpt lat="49.533588" lon="10.135527">
<ele>332.195</ele>
<time>2019-05-30T15:04:00Z</time>
</trkpt>
<trkpt lat="49.533585" lon="10.135582">
<ele>332.347</ele>
<time>2019-05-30T15:04:01Z</time>
</trkpt>
<trkpt lat="49.533577" lon="10.135637">
<ele>332.465</ele>
<time>2019-05-30T15:04:02Z</time>
</trkpt>
<trkpt lat="49.533569" lon="10.135692">
<ele>332.515</ele>
<time>2019-05-30T15:04:03Z</time>
</trkpt>
<trkpt lat="49.533566" lon="10.135746">
<ele>332.557</ele>
<time>2019-05-30T15:04:04Z</time>
</trkpt>
<trkpt lat="49.533562" lon="10.1358">
<ele>332.851</ele>
<time>2019-05-30T15:04:05Z</time>
</trkpt>
<trkpt lat="49.533554" lon="10.135851">
<ele>333.075</ele>
<time>2019-05-30T15:04:06Z</time>
</trkpt>
<trkpt lat="49.53355" lon="10.135905">
<ele>333.259</ele>
<time>2019-05-30T15:04:07Z</time>
</trkpt>
<trkpt lat="49.533543" lon="10.135958">
<ele>333.407</ele>
<time>2019-05-30T15:04:08Z</time>
</trkpt>
<trkpt lat="49.533535" lon="10.136012">
<ele>333.502</ele>
<time>2019-05-30T15:04:09Z</time>
</trkpt>
<trkpt lat="49.533531" lon="10.136063">
<ele>333.802</ele>
<time>2019-05-30T15:04:10Z</time>
</trkpt>
<trkpt lat="49.533527" lon="10.136119">
<ele>334.036</ele>
<time>2019-05-30T15:04:11Z</time>
</trkpt>
<trkpt lat="49.533516" lon="10.136173">
<ele>334.21</ele>
<time>2019-05-30T15:04:12Z</time>
</trkpt>
<trkpt lat="49.533508" lon="10.136229">
<ele>334.327</ele>
<time>2019-05-30T15:04:13Z</time>
</trkpt>
<trkpt lat="49.533501" lon="10.136283">
<ele>334.398</ele>
<time>2019-05-30T15:04:14Z</time>
</trkpt>
<trkpt lat="49.533493" lon="10.136338">
<ele>334.468</ele>
<time>2019-05-30T15:04:15Z</time>
</trkpt>
<trkpt lat="49.533489" lon="10.136395">
<ele>334.767</ele>
<time>2019-05-30T15:04:16Z</time>
</trkpt>
<trkpt lat="49.533482" lon="10.13645">
<ele>334.999</ele>
<time>2019-05-30T15:04:17Z</time>
</trkpt>
<trkpt lat="49.533474" lon="10.136505">
<ele>335.258</ele>
<time>2019-05-30T15:04:18Z</time>
</trkpt>
<trkpt lat="49.533463" lon="10.136559">
<ele>335.383</ele>
<time>2019-05-30T15:04:19Z</time>
</trkpt>
<trkpt lat="49.533459" lon="10.136615">
<ele>335.478</ele>
<time>2019-05-30T15:04:20Z</time>
</trkpt>
<trkpt lat="49.533451" lon="10.136668">
<ele>335.528</ele>
<time>2019-05-30T15:04:21Z</time>
</trkpt>
<trkpt lat="49.533443" lon="10.136722">
<ele>335.782</ele>
<time>2019-05-30T15:04:22Z</time>
</trkpt>
<trkpt lat="49.533436" lon="10.136775">
<ele>335.974</ele>
<time>2019-05-30T15:04:23Z</time>
</trkpt>
<trkpt lat="49.533428" lon="10.136828">
<ele>336.101</ele>
<time>2019-05-30T15:04:24Z</time>
</trkpt>
<trkpt lat="49.533424" lon="10.136882">
<ele>336.238</ele>
<time>2019-05-30T15:04:25Z</time>
</trkpt>
<trkpt lat="49.533421" lon="10.136933">
<ele>336.335</ele>
<time>2019-05-30T15:04:26Z</time>
</trkpt>
<trkpt lat="49.533413" lon="10.136985">
<ele>336.661</ele>
<time>2019-05-30T15:04:27Z</time>
</trkpt>
<trkpt lat="49.533405" lon="10.137036">
<ele>336.92</ele>
<time>2019-05-30T15:04:28Z</time>
</trkpt>
<trkpt lat="49.533398" lon="10.13709">
<ele>337.118</ele>
<time>2019-05-30T15:04:29Z</time>
</trkpt>
<trkpt lat="49.533394" lon="10.137143">
<ele>337.312</ele>
<time>2019-05-30T15:04:30Z</time>
</trkpt>
<trkpt lat="49.533386" lon="10.137197">
<ele>337.402</ele>
<time>2019-05-30T15:04:31Z</time>
</trkpt>
<trkpt lat="49.533379" lon="10.137252">
<ele>337.457</ele>
<time>2019-05-30T15:04:32Z</time>
</trkpt>
<trkpt lat="49.533371" lon="10.137307">
<ele>337.489</ele>
<time>2019-05-30T15:04:33Z</time>
</trkpt>
<trkpt lat="49.533363" lon="10.137362">
<ele>337.513</ele>
<time>2019-05-30T15:04:34Z</time>
</trkpt>
<trkpt lat="49.53336" lon="10.137416">
<ele>337.513</ele>
<time>2019-05-30T15:04:35Z</time>
</trkpt>
<trkpt lat="49.533352" lon="10.137472">
<ele>337.795</ele>
<time>2019-05-30T15:04:36Z</time>
</trkpt>
<trkpt lat="49.533344" lon="10.137527">
<ele>338.013</ele>
<time>2019-05-30T15:04:37Z</time>
</trkpt>
<trkpt lat="49.533333" lon="10.137582">
<ele>338.172</ele>
<time>2019-05-30T15:04:38Z</time>
</trkpt>
<trkpt lat="49.533329" lon="10.137636">
<ele>338.275</ele>
<time>2019-05-30T15:04:39Z</time>
</trkpt>
<trkpt lat="49.533318" lon="10.137691">
<ele>338.591</ele>
<time>2019-05-30T15:04:40Z</time>
</trkpt>
<trkpt lat="49.53331" lon="10.137747">
<ele>338.825</ele>
<time>2019-05-30T15:04:41Z</time>
</trkpt>
<trkpt lat="49.533302" lon="10.137803">
<ele>338.987</ele>
<time>2019-05-30T15:04:42Z</time>
</trkpt>
<trkpt lat="49.533298" lon="10.137858">
<ele>339.064</ele>
<time>2019-05-30T15:04:43Z</time>
</trkpt>
<trkpt lat="49.533291" lon="10.137912">
<ele>339.385</ele>
<time>2019-05-30T15:04:44Z</time>
</trkpt>
<trkpt lat="49.533283" lon="10.137967">
<ele>339.671</ele>
<time>2019-05-30T15:04:45Z</time>
</trkpt>
<trkpt lat="49.533276" lon="10.13802">
<ele>339.894</ele>
<time>2019-05-30T15:04:46Z</time>
</trkpt>
<trkpt lat="49.533268" lon="10.13807">
<ele>340.057</ele>
<time>2019-05-30T15:04:47Z</time>
</trkpt>
<trkpt lat="49.533268" lon="10.138118">
<ele>340.165</ele>
<time>2019-05-30T15:04:48Z</time>
</trkpt>
<trkpt lat="49.53326" lon="10.138165">
<ele>340.242</ele>
<time>2019-05-30T15:04:49Z</time>
</trkpt>
<trkpt lat="49.533253" lon="10.138212">
<ele>340.294</ele>
<time>2019-05-30T15:04:50Z</time>
</trkpt>
<trkpt lat="49.533245" lon="10.13826">
<ele>340.32</ele>
<time>2019-05-30T15:04:51Z</time>
</trkpt>
<trkpt lat="49.533241" lon="10.138309">
<ele>340.547</ele>
<time>2019-05-30T15:04:52Z</time>
</trkpt>
<trkpt lat="49.533237" lon="10.138358">
<ele>340.729</ele>
<time>2019-05-30T15:04:53Z</time>
</trkpt>
<trkpt lat="49.533234" lon="10.138409">
<ele>340.86</ele>
<time>2019-05-30T15:04:54Z</time>
</trkpt>
<trkpt lat="49.53323" lon="10.138459">
<ele>340.994</ele>
<time>2019-05-30T15:04:55Z</time>
</trkpt>
<trkpt lat="49.533222" lon="10.13851">
<ele>341.357</ele>
<time>2019-05-30T15:04:56Z</time>
</trkpt>
<trkpt lat="49.533218" lon="10.138564">
<ele>341.648</ele>
<time>2019-05-30T15:04:57Z</time>
</trkpt>
<trkpt lat="49.533211" lon="10.138618">
<ele>341.869</ele>
<time>2019-05-30T15:04:58Z</time>
</trkpt>
<trkpt lat="49.533203" lon="10.138671">
<ele>342.027</ele>
<time>2019-05-30T15:04:59Z</time>
</trkpt>
<trkpt lat="49.533199" lon="10.138725">
<ele>342.192</ele>
<time>2019-05-30T15:05:00Z</time>
</trkpt>
<trkpt lat="49.533188" lon="10.138778">
<ele>342.245</ele>
<time>2019-05-30T15:05:01Z</time>
</trkpt>
<trkpt lat="49.533184" lon="10.13883">
<ele>342.268</ele>
<time>2019-05-30T15:05:02Z</time>
</trkpt>
<trkpt lat="49.533176" lon="10.138883">
<ele>342.526</ele>
<time>2019-05-30T15:05:03Z</time>
</trkpt>
<trkpt lat="49.533173" lon="10.138937">
<ele>342.701</ele>
<time>2019-05-30T15:05:04Z</time>
</trkpt>
<trkpt lat="49.533169" lon="10.138989">
<ele>342.881</ele>
<time>2019-05-30T15:05:05Z</time>
</trkpt>
<trkpt lat="49.533165" lon="10.139046">
<ele>343.025</ele>
<time>2019-05-30T15:05:06Z</time>
</trkpt>
<trkpt lat="49.533161" lon="10.139098">
<ele>343.139</ele>
<time>2019-05-30T15:05:07Z</time>
</trkpt>
<trkpt lat="49.533154" lon="10.139153">
<ele>343.22</ele>
<time>2019-05-30T15:05:08Z</time>
</trkpt>
<trkpt lat="49.53315" lon="10.139209">
<ele>343.272</ele>
<time>2019-05-30T15:05:09Z</time>
</trkpt>
<trkpt lat="49.533146" lon="10.139263">
<ele>343.297</ele>
<time>2019-05-30T15:05:10Z</time>
</trkpt>
<trkpt lat="49.533142" lon="10.139317">
<ele>343.515</ele>
<time>2019-05-30T15:05:11Z</time>
</trkpt>
<trkpt lat="49.533138" lon="10.13937">
<ele>343.686</ele>
<time>2019-05-30T15:05:12Z</time>
</trkpt>
<trkpt lat="49.533134" lon="10.139421">
<ele>343.82</ele>
<time>2019-05-30T15:05:13Z</time>
</trkpt>
<trkpt lat="49.533131" lon="10.139475">
<ele>343.911</ele>
<time>2019-05-30T15:05:14Z</time>
</trkpt>
<trkpt lat="49.533127" lon="10.13953">
<ele>344.009</ele>
<time>2019-05-30T15:05:15Z</time>
</trkpt>
<trkpt lat="49.533123" lon="10.139585">
<ele>344.08</ele>
<time>2019-05-30T15:05:16Z</time>
</trkpt>
<trkpt lat="49.533119" lon="10.139643">
<ele>344.126</ele>
<time>2019-05-30T15:05:17Z</time>
</trkpt>
<trkpt lat="49.533115" lon="10.139702">
<ele>344.148</ele>
<time>2019-05-30T15:05:18Z</time>
</trkpt>
<trkpt lat="49.533112" lon="10.13976">
<ele>344.148</ele>
<time>2019-05-30T15:05:19Z</time>
</trkpt>
<trkpt lat="49.533108" lon="10.139816">
<ele>344.421</ele>
<time>2019-05-30T15:05:20Z</time>
</trkpt>
<trkpt lat="49.533104" lon="10.139874">
<ele>344.634</ele>
<time>2019-05-30T15:05:21Z</time>
</trkpt>
<trkpt lat="49.533104" lon="10.13993">
<ele>344.792</ele>
<time>2019-05-30T15:05:22Z</time>
</trkpt>
<trkpt lat="49.5331" lon="10.139987">
<ele>344.917</ele>
<time>2019-05-30T15:05:23Z</time>
</trkpt>
<trkpt lat="49.5331" lon="10.140045">
<ele>345</ele>
<time>2019-05-30T15:05:24Z</time>
</trkpt>
<trkpt lat="49.533096" lon="10.140101">
<ele>345.083</ele>
<time>2019-05-30T15:05:25Z</time>
</trkpt>
<trkpt lat="49.533096" lon="10.140161">
<ele>345.368</ele>
<time>2019-05-30T15:05:26Z</time>
</trkpt>
<trkpt lat="49.533096" lon="10.14022">
<ele>345.588</ele>
<time>2019-05-30T15:05:27Z</time>
</trkpt>
<trkpt lat="49.533096" lon="10.14028">
<ele>345.827</ele>
<time>2019-05-30T15:05:28Z</time>
</trkpt>
<trkpt lat="49.533092" lon="10.14034">
<ele>345.946</ele>
<time>2019-05-30T15:05:29Z</time>
</trkpt>
<trkpt lat="49.533092" lon="10.1404">
<ele>346.027</ele>
<time>2019-05-30T15:05:30Z</time>
</trkpt>
<trkpt lat="49.533089" lon="10.14046">
<ele>346.082</ele>
<time>2019-05-30T15:05:31Z</time>
</trkpt>
<trkpt lat="49.533089" lon="10.14052">
<ele>346.1</ele>
<time>2019-05-30T15:05:32Z</time>
</trkpt>
<trkpt lat="49.533089" lon="10.140578">
<ele>346.105</ele>
<time>2019-05-30T15:05:33Z</time>
</trkpt>
<trkpt lat="49.533089" lon="10.140636">
<ele>346.105</ele>
<time>2019-05-30T15:05:34Z</time>
</trkpt>
<trkpt lat="49.533085" lon="10.140697">
<ele>346.105</ele>
<time>2019-05-30T15:05:35Z</time>
</trkpt>
<trkpt lat="49.533089" lon="10.140757">
<ele>346.105</ele>
<time>2019-05-30T15:05:36Z</time>
</trkpt>
<trkpt lat="49.533085" lon="10.140819">
<ele>346.105</ele>
<time>2019-05-30T15:05:37Z</time>
</trkpt>
<trkpt lat="49.533085" lon="10.14088">
<ele>346.369</ele>
<time>2019-05-30T15:05:38Z</time>
</trkpt>
<trkpt lat="49.533081" lon="10.14094">
<ele>346.575</ele>
<time>2019-05-30T15:05:39Z</time>
</trkpt>
<trkpt lat="49.533081" lon="10.141001">
<ele>346.727</ele>
<time>2019-05-30T15:05:40Z</time>
</trkpt>
<trkpt lat="49.533077" lon="10.14106">
<ele>346.842</ele>
<time>2019-05-30T15:05:41Z</time>
</trkpt>
<trkpt lat="49.533073" lon="10.141122">
<ele>346.921</ele>
<time>2019-05-30T15:05:42Z</time>
</trkpt>
<trkpt lat="49.53307" lon="10.141181">
<ele>346.975</ele>
<time>2019-05-30T15:05:43Z</time>
</trkpt>
<trkpt lat="49.53307" lon="10.141242">
<ele>347.015</ele>
<time>2019-05-30T15:05:44Z</time>
</trkpt>
<trkpt lat="49.533062" lon="10.141303">
<ele>347.041</ele>
<time>2019-05-30T15:05:45Z</time>
</trkpt>
<trkpt lat="49.533058" lon="10.141367">
<ele>347.041</ele>
<time>2019-05-30T15:05:46Z</time>
</trkpt>
<trkpt lat="49.533054" lon="10.14143">
<ele>347.041</ele>
<time>2019-05-30T15:05:47Z</time>
</trkpt>
<trkpt lat="49.533051" lon="10.141493">
<ele>347.041</ele>
<time>2019-05-30T15:05:48Z</time>
</trkpt>
<trkpt lat="49.533043" lon="10.141557">
<ele>347.276</ele>
<time>2019-05-30T15:05:49Z</time>
</trkpt>
<trkpt lat="49.533039" lon="10.141619">
<ele>347.457</ele>
<time>2019-05-30T15:05:50Z</time>
</trkpt>
<trkpt lat="49.533035" lon="10.14168">
<ele>347.596</ele>
<time>2019-05-30T15:05:51Z</time>
</trkpt>
<trkpt lat="49.533031" lon="10.141742">
<ele>347.697</ele>
<time>2019-05-30T15:05:52Z</time>
</trkpt>
<trkpt lat="49.533024" lon="10.141803">
<ele>347.768</ele>
<time>2019-05-30T15:05:53Z</time>
</trkpt>
<trkpt lat="49.533016" lon="10.141866">
<ele>347.821</ele>
<time>2019-05-30T15:05:54Z</time>
</trkpt>
<trkpt lat="49.533009" lon="10.141927">
<ele>347.869</ele>
<time>2019-05-30T15:05:55Z</time>
</trkpt>
<trkpt lat="49.533005" lon="10.141988">
<ele>347.892</ele>
<time>2019-05-30T15:05:56Z</time>
</trkpt>
<trkpt lat="49.532997" lon="10.142048">
<ele>347.892</ele>
<time>2019-05-30T15:05:57Z</time>
</trkpt>
<trkpt lat="49.53299" lon="10.142109">
<ele>348.155</ele>
<time>2019-05-30T15:05:58Z</time>
</trkpt>
<trkpt lat="49.532982" lon="10.142168">
<ele>348.356</ele>
<time>2019-05-30T15:05:59Z</time>
</trkpt>
<trkpt lat="49.532974" lon="10.142228">
<ele>348.511</ele>
<time>2019-05-30T15:06:00Z</time>
</trkpt>
<trkpt lat="49.532974" lon="10.142287">
<ele>348.625</ele>
<time>2019-05-30T15:06:01Z</time>
</trkpt>
<trkpt lat="49.532967" lon="10.142346">
<ele>348.709</ele>
<time>2019-05-30T15:06:02Z</time>
</trkpt>
<trkpt lat="49.532959" lon="10.142406">
<ele>348.76</ele>
<time>2019-05-30T15:06:03Z</time>
</trkpt>
<trkpt lat="49.532951" lon="10.142467">
<ele>348.802</ele>
<time>2019-05-30T15:06:04Z</time>
</trkpt>
<trkpt lat="49.532944" lon="10.142527">
<ele>348.828</ele>
<time>2019-05-30T15:06:05Z</time>
</trkpt>
<trkpt lat="49.53294" lon="10.142587">
<ele>348.828</ele>
<time>2019-05-30T15:06:06Z</time>
</trkpt>
<trkpt lat="49.532936" lon="10.142647">
<ele>348.828</ele>
<time>2019-05-30T15:06:07Z</time>
</trkpt>
<trkpt lat="49.532928" lon="10.142706">
<ele>348.828</ele>
<time>2019-05-30T15:06:08Z</time>
</trkpt>
<trkpt lat="49.532925" lon="10.142767">
<ele>349.083</ele>
<time>2019-05-30T15:06:09Z</time>
</trkpt>
<trkpt lat="49.532917" lon="10.142827">
<ele>349.283</ele>
<time>2019-05-30T15:06:10Z</time>
</trkpt>
<trkpt lat="49.532909" lon="10.142888">
<ele>349.435</ele>
<time>2019-05-30T15:06:11Z</time>
</trkpt>
<trkpt lat="49.532906" lon="10.14295">
<ele>349.549</ele>
<time>2019-05-30T15:06:12Z</time>
</trkpt>
<trkpt lat="49.532898" lon="10.143012">
<ele>349.628</ele>
<time>2019-05-30T15:06:13Z</time>
</trkpt>
<trkpt lat="49.532894" lon="10.143075">
<ele>349.687</ele>
<time>2019-05-30T15:06:14Z</time>
</trkpt>
<trkpt lat="49.53289" lon="10.143135">
<ele>349.739</ele>
<time>2019-05-30T15:06:15Z</time>
</trkpt>
<trkpt lat="49.532887" lon="10.143198">
<ele>349.765</ele>
<time>2019-05-30T15:06:16Z</time>
</trkpt>
<trkpt lat="49.532883" lon="10.14326">
<ele>349.765</ele>
<time>2019-05-30T15:06:17Z</time>
</trkpt>
<trkpt lat="49.532875" lon="10.143324">
<ele>349.765</ele>
<time>2019-05-30T15:06:18Z</time>
</trkpt>
<trkpt lat="49.532875" lon="10.143387">
<ele>349.765</ele>
<time>2019-05-30T15:06:19Z</time>
</trkpt>
<trkpt lat="49.532875" lon="10.14345">
<ele>349.765</ele>
<time>2019-05-30T15:06:20Z</time>
</trkpt>
<trkpt lat="49.532875" lon="10.143513">
<ele>349.765</ele>
<time>2019-05-30T15:06:21Z</time>
</trkpt>
<trkpt lat="49.532875" lon="10.143577">
<ele>350</ele>
<time>2019-05-30T15:06:22Z</time>
</trkpt>
<trkpt lat="49.532871" lon="10.143641">
<ele>350.186</ele>
<time>2019-05-30T15:06:23Z</time>
</trkpt>
<trkpt lat="49.532867" lon="10.143703">
<ele>350.311</ele>
<time>2019-05-30T15:06:24Z</time>
</trkpt>
<trkpt lat="49.532867" lon="10.143768">
<ele>350.449</ele>
<time>2019-05-30T15:06:25Z</time>
</trkpt>
<trkpt lat="49.532864" lon="10.143831">
<ele>350.553</ele>
<time>2019-05-30T15:06:26Z</time>
</trkpt>
<trkpt lat="49.532864" lon="10.143896">
<ele>350.629</ele>
<time>2019-05-30T15:06:27Z</time>
</trkpt>
<trkpt lat="49.532864" lon="10.143961">
<ele>350.678</ele>
<time>2019-05-30T15:06:28Z</time>
</trkpt>
<trkpt lat="49.532867" lon="10.144027">
<ele>350.701</ele>
<time>2019-05-30T15:06:29Z</time>
</trkpt>
<trkpt lat="49.532867" lon="10.144091">
<ele>350.948</ele>
<time>2019-05-30T15:06:30Z</time>
</trkpt>
<trkpt lat="49.532867" lon="10.144154">
<ele>351.141</ele>
<time>2019-05-30T15:06:31Z</time>
</trkpt>
<trkpt lat="49.532867" lon="10.144217">
<ele>351.289</ele>
<time>2019-05-30T15:06:32Z</time>
</trkpt>
<trkpt lat="49.532867" lon="10.144281">
<ele>351.403</ele>
<time>2019-05-30T15:06:33Z</time>
</trkpt>
<trkpt lat="49.532867" lon="10.144344">
<ele>351.481</ele>
<time>2019-05-30T15:06:34Z</time>
</trkpt>
<trkpt lat="49.532871" lon="10.14441">
<ele>351.561</ele>
<time>2019-05-30T15:06:35Z</time>
</trkpt>
<trkpt lat="49.532875" lon="10.144477">
<ele>351.612</ele>
<time>2019-05-30T15:06:36Z</time>
</trkpt>
<trkpt lat="49.532875" lon="10.144542">
<ele>351.637</ele>
<time>2019-05-30T15:06:37Z</time>
</trkpt>
<trkpt lat="49.532875" lon="10.144608">
<ele>351.637</ele>
<time>2019-05-30T15:06:38Z</time>
</trkpt>
<trkpt lat="49.532879" lon="10.144675">
<ele>351.894</ele>
<time>2019-05-30T15:06:39Z</time>
</trkpt>
<trkpt lat="49.532883" lon="10.144742">
<ele>352.093</ele>
<time>2019-05-30T15:06:40Z</time>
</trkpt>
<trkpt lat="49.532887" lon="10.14481">
<ele>352.248</ele>
<time>2019-05-30T15:06:41Z</time>
</trkpt>
<trkpt lat="49.53289" lon="10.144876">
<ele>352.361</ele>
<time>2019-05-30T15:06:42Z</time>
</trkpt>
<trkpt lat="49.532894" lon="10.144941">
<ele>352.439</ele>
<time>2019-05-30T15:06:43Z</time>
</trkpt>
<trkpt lat="49.532894" lon="10.145004">
<ele>352.497</ele>
<time>2019-05-30T15:06:44Z</time>
</trkpt>
<trkpt lat="49.532898" lon="10.14507">
<ele>352.549</ele>
<time>2019-05-30T15:06:45Z</time>
</trkpt>
<trkpt lat="49.532902" lon="10.145135">
<ele>352.574</ele>
<time>2019-05-30T15:06:46Z</time>
</trkpt>
<trkpt lat="49.532902" lon="10.145199">
<ele>352.574</ele>
<time>2019-05-30T15:06:47Z</time>
</trkpt>
<trkpt lat="49.532906" lon="10.145262">
<ele>352.833</ele>
<time>2019-05-30T15:06:48Z</time>
</trkpt>
<trkpt lat="49.532909" lon="10.145325">
<ele>353.038</ele>
<time>2019-05-30T15:06:49Z</time>
</trkpt>
<trkpt lat="49.532909" lon="10.145388">
<ele>353.192</ele>
<time>2019-05-30T15:06:50Z</time>
</trkpt>
<trkpt lat="49.532909" lon="10.145453">
<ele>353.308</ele>
<time>2019-05-30T15:06:51Z</time>
</trkpt>
<trkpt lat="49.532913" lon="10.145515">
<ele>353.389</ele>
<time>2019-05-30T15:06:52Z</time>
</trkpt>
<trkpt lat="49.532917" lon="10.145578">
<ele>353.443</ele>
<time>2019-05-30T15:06:53Z</time>
</trkpt>
<trkpt lat="49.532921" lon="10.145639">
<ele>353.484</ele>
<time>2019-05-30T15:06:54Z</time>
</trkpt>
<trkpt lat="49.532925" lon="10.145703">
<ele>353.738</ele>
<time>2019-05-30T15:06:55Z</time>
</trkpt>
<trkpt lat="49.532928" lon="10.145765">
<ele>353.929</ele>
<time>2019-05-30T15:06:56Z</time>
</trkpt>
<trkpt lat="49.532932" lon="10.145825">
<ele>354.085</ele>
<time>2019-05-30T15:06:57Z</time>
</trkpt>
<trkpt lat="49.532932" lon="10.145886">
<ele>354.211</ele>
<time>2019-05-30T15:06:58Z</time>
</trkpt>
<trkpt lat="49.532932" lon="10.145947">
<ele>354.308</ele>
<time>2019-05-30T15:06:59Z</time>
</trkpt>
<trkpt lat="49.532936" lon="10.146008">
<ele>354.369</ele>
<time>2019-05-30T15:07:00Z</time>
</trkpt>
<trkpt lat="49.532936" lon="10.14607">
<ele>354.648</ele>
<time>2019-05-30T15:07:01Z</time>
</trkpt>
<trkpt lat="49.532936" lon="10.14613">
<ele>354.865</ele>
<time>2019-05-30T15:07:02Z</time>
</trkpt>
<trkpt lat="49.532936" lon="10.146192">
<ele>355.022</ele>
<time>2019-05-30T15:07:03Z</time>
</trkpt>
<trkpt lat="49.532932" lon="10.146254">
<ele>355.124</ele>
<time>2019-05-30T15:07:04Z</time>
</trkpt>
<trkpt lat="49.532932" lon="10.146316">
<ele>355.233</ele>
<time>2019-05-30T15:07:05Z</time>
</trkpt>
<trkpt lat="49.532932" lon="10.146375">
<ele>355.31</ele>
<time>2019-05-30T15:07:06Z</time>
</trkpt>
<trkpt lat="49.532928" lon="10.146435">
<ele>355.361</ele>
<time>2019-05-30T15:07:07Z</time>
</trkpt>
<trkpt lat="49.532925" lon="10.146495">
<ele>355.384</ele>
<time>2019-05-30T15:07:08Z</time>
</trkpt>
<trkpt lat="49.532925" lon="10.146557">
<ele>355.616</ele>
<time>2019-05-30T15:07:09Z</time>
</trkpt>
<trkpt lat="49.532921" lon="10.146617">
<ele>355.798</ele>
<time>2019-05-30T15:07:10Z</time>
</trkpt>
<trkpt lat="49.532921" lon="10.146676">
<ele>355.932</ele>
<time>2019-05-30T15:07:11Z</time>
</trkpt>
<trkpt lat="49.532917" lon="10.146737">
<ele>356.039</ele>
<time>2019-05-30T15:07:12Z</time>
</trkpt>
<trkpt lat="49.532913" lon="10.146796">
<ele>356.111</ele>
<time>2019-05-30T15:07:13Z</time>
</trkpt>
<trkpt lat="49.532909" lon="10.146856">
<ele>356.166</ele>
<time>2019-05-30T15:07:14Z</time>
</trkpt>
<trkpt lat="49.532909" lon="10.146918">
<ele>356.213</ele>
<time>2019-05-30T15:07:15Z</time>
</trkpt>
<trkpt lat="49.532909" lon="10.14698">
<ele>356.465</ele>
<time>2019-05-30T15:07:16Z</time>
</trkpt>
<trkpt lat="49.532906" lon="10.147041">
<ele>356.731</ele>
<time>2019-05-30T15:07:17Z</time>
</trkpt>
<trkpt lat="49.532898" lon="10.147103">
<ele>356.895</ele>
<time>2019-05-30T15:07:18Z</time>
</trkpt>
<trkpt lat="49.532894" lon="10.147163">
<ele>357.014</ele>
<time>2019-05-30T15:07:19Z</time>
</trkpt>
<trkpt lat="49.53289" lon="10.147222">
<ele>357.095</ele>
<time>2019-05-30T15:07:20Z</time>
</trkpt>
<trkpt lat="49.532887" lon="10.147284">
<ele>357.145</ele>
<time>2019-05-30T15:07:21Z</time>
</trkpt>
<trkpt lat="49.532883" lon="10.147343">
<ele>357.168</ele>
<time>2019-05-30T15:07:22Z</time>
</trkpt>
<trkpt lat="49.532879" lon="10.147407">
<ele>357.173</ele>
<time>2019-05-30T15:07:23Z</time>
</trkpt>
<trkpt lat="49.532875" lon="10.147469">
<ele>357.173</ele>
<time>2019-05-30T15:07:24Z</time>
</trkpt>
<trkpt lat="49.532875" lon="10.147532">
<ele>357.173</ele>
<time>2019-05-30T15:07:25Z</time>
</trkpt>
<trkpt lat="49.532871" lon="10.147596">
<ele>357.456</ele>
<time>2019-05-30T15:07:26Z</time>
</trkpt>
<trkpt lat="49.532871" lon="10.147661">
<ele>357.677</ele>
<time>2019-05-30T15:07:27Z</time>
</trkpt>
<trkpt lat="49.532867" lon="10.147726">
<ele>357.841</ele>
<time>2019-05-30T15:07:28Z</time>
</trkpt>
<trkpt lat="49.532867" lon="10.147793">
<ele>357.957</ele>
<time>2019-05-30T15:07:29Z</time>
</trkpt>
<trkpt lat="49.532864" lon="10.14786">
<ele>358.039</ele>
<time>2019-05-30T15:07:30Z</time>
</trkpt>
<trkpt lat="49.532864" lon="10.147928">
<ele>358.087</ele>
<time>2019-05-30T15:07:31Z</time>
</trkpt>
<trkpt lat="49.532864" lon="10.147996">
<ele>358.106</ele>
<time>2019-05-30T15:07:32Z</time>
</trkpt>
<trkpt lat="49.53286" lon="10.148064">
<ele>358.11</ele>
<time>2019-05-30T15:07:33Z</time>
</trkpt>
<trkpt lat="49.53286" lon="10.14813">
<ele>358.11</ele>
<time>2019-05-30T15:07:34Z</time>
</trkpt>
<trkpt lat="49.53286" lon="10.148193">
<ele>358.11</ele>
<time>2019-05-30T15:07:35Z</time>
</trkpt>
<trkpt lat="49.532864" lon="10.148262">
<ele>358.11</ele>
<time>2019-05-30T15:07:36Z</time>
</trkpt>
<trkpt lat="49.532864" lon="10.14833">
<ele>358.11</ele>
<time>2019-05-30T15:07:37Z</time>
</trkpt>
<trkpt lat="49.532864" lon="10.148402">
<ele>358.11</ele>
<time>2019-05-30T15:07:38Z</time>
</trkpt>
<trkpt lat="49.532864" lon="10.148476">
<ele>358.11</ele>
<time>2019-05-30T15:07:39Z</time>
</trkpt>
<trkpt lat="49.532864" lon="10.148552">
<ele>358.11</ele>
<time>2019-05-30T15:07:40Z</time>
</trkpt>
<trkpt lat="49.532864" lon="10.148628">
<ele>358.11</ele>
<time>2019-05-30T15:07:41Z</time>
</trkpt>
<trkpt lat="49.532864" lon="10.148706">
<ele>358.11</ele>
<time>2019-05-30T15:07:42Z</time>
</trkpt>
<trkpt lat="49.532867" lon="10.148786">
<ele>358.11</ele>
<time>2019-05-30T15:07:43Z</time>
</trkpt>
<trkpt lat="49.532867" lon="10.148867">
<ele>358.11</ele>
<time>2019-05-30T15:07:44Z</time>
</trkpt>
<trkpt lat="49.532867" lon="10.14895">
<ele>357.853</ele>
<time>2019-05-30T15:07:45Z</time>
</trkpt>
<trkpt lat="49.532871" lon="10.149037">
<ele>357.642</ele>
<time>2019-05-30T15:07:46Z</time>
</trkpt>
<trkpt lat="49.532871" lon="10.149125">
<ele>357.47</ele>
<time>2019-05-30T15:07:47Z</time>
</trkpt>
<trkpt lat="49.532871" lon="10.149215">
<ele>357.335</ele>
<time>2019-05-30T15:07:48Z</time>
</trkpt>
<trkpt lat="49.532875" lon="10.149307">
<ele>357.252</ele>
<time>2019-05-30T15:07:49Z</time>
</trkpt>
<trkpt lat="49.532875" lon="10.149398">
<ele>356.909</ele>
<time>2019-05-30T15:07:50Z</time>
</trkpt>
<trkpt lat="49.532875" lon="10.149493">
<ele>356.643</ele>
<time>2019-05-30T15:07:51Z</time>
</trkpt>
<trkpt lat="49.532875" lon="10.149592">
<ele>356.448</ele>
<time>2019-05-30T15:07:52Z</time>
</trkpt>
<trkpt lat="49.532875" lon="10.14969">
<ele>356.312</ele>
<time>2019-05-30T15:07:53Z</time>
</trkpt>
<trkpt lat="49.532875" lon="10.149792">
<ele>356.231</ele>
<time>2019-05-30T15:07:54Z</time>
</trkpt>
<trkpt lat="49.532879" lon="10.149897">
<ele>355.91</ele>
<time>2019-05-30T15:07:55Z</time>
</trkpt>
<trkpt lat="49.532879" lon="10.15">
<ele>355.662</ele>
<time>2019-05-30T15:07:56Z</time>
</trkpt>
<trkpt lat="49.532883" lon="10.150104">
<ele>355.479</ele>
<time>2019-05-30T15:07:57Z</time>
</trkpt>
<trkpt lat="49.532887" lon="10.150205">
<ele>355.355</ele>
<time>2019-05-30T15:07:58Z</time>
</trkpt>
<trkpt lat="49.532894" lon="10.150307">
<ele>355.281</ele>
<time>2019-05-30T15:07:59Z</time>
</trkpt>
<trkpt lat="49.532906" lon="10.15041">
<ele>354.973</ele>
<time>2019-05-30T15:08:00Z</time>
</trkpt>
<trkpt lat="49.532909" lon="10.15051">
<ele>354.732</ele>
<time>2019-05-30T15:08:01Z</time>
</trkpt>
<trkpt lat="49.532917" lon="10.150607">
<ele>354.554</ele>
<time>2019-05-30T15:08:02Z</time>
</trkpt>
<trkpt lat="49.532928" lon="10.150702">
<ele>354.429</ele>
<time>2019-05-30T15:08:03Z</time>
</trkpt>
<trkpt lat="49.53294" lon="10.150797">
<ele>354.35</ele>
<time>2019-05-30T15:08:04Z</time>
</trkpt>
<trkpt lat="49.532951" lon="10.150893">
<ele>354.269</ele>
<time>2019-05-30T15:08:05Z</time>
</trkpt>
<trkpt lat="49.532967" lon="10.150991">
<ele>354.219</ele>
<time>2019-05-30T15:08:06Z</time>
</trkpt>
<trkpt lat="49.532982" lon="10.151092">
<ele>353.986</ele>
<time>2019-05-30T15:08:07Z</time>
</trkpt>
<trkpt lat="49.533005" lon="10.151192">
<ele>353.756</ele>
<time>2019-05-30T15:08:08Z</time>
</trkpt>
<trkpt lat="49.53302" lon="10.151294">
<ele>353.608</ele>
<time>2019-05-30T15:08:09Z</time>
</trkpt>
<trkpt lat="49.533043" lon="10.151399">
<ele>353.521</ele>
<time>2019-05-30T15:08:10Z</time>
</trkpt>
<trkpt lat="49.53307" lon="10.151504">
<ele>353.191</ele>
<time>2019-05-30T15:08:11Z</time>
</trkpt>
<trkpt lat="49.533092" lon="10.15161">
<ele>352.944</ele>
<time>2019-05-30T15:08:12Z</time>
</trkpt>
<trkpt lat="49.533115" lon="10.15172">
<ele>352.775</ele>
<time>2019-05-30T15:08:13Z</time>
</trkpt>
<trkpt lat="49.533138" lon="10.151832">
<ele>352.657</ele>
<time>2019-05-30T15:08:14Z</time>
</trkpt>
<trkpt lat="49.533165" lon="10.151945">
<ele>352.554</ele>
<time>2019-05-30T15:08:15Z</time>
</trkpt>
<trkpt lat="49.533188" lon="10.152061">
<ele>352.242</ele>
<time>2019-05-30T15:08:16Z</time>
</trkpt>
<trkpt lat="49.533211" lon="10.152176">
<ele>351.999</ele>
<time>2019-05-30T15:08:17Z</time>
</trkpt>
<trkpt lat="49.533237" lon="10.152295">
<ele>351.852</ele>
<time>2019-05-30T15:08:18Z</time>
</trkpt>
<trkpt lat="49.533268" lon="10.152413">
<ele>351.351</ele>
<time>2019-05-30T15:08:19Z</time>
</trkpt>
<trkpt lat="49.533295" lon="10.152534">
<ele>351.041</ele>
<time>2019-05-30T15:08:20Z</time>
</trkpt>
<trkpt lat="49.533321" lon="10.152654">
<ele>350.823</ele>
<time>2019-05-30T15:08:21Z</time>
</trkpt>
<trkpt lat="49.533348" lon="10.152771">
<ele>350.709</ele>
<time>2019-05-30T15:08:22Z</time>
</trkpt>
<trkpt lat="49.533371" lon="10.152888">
<ele>350.357</ele>
<time>2019-05-30T15:08:23Z</time>
</trkpt>
<trkpt lat="49.533398" lon="10.153006">
<ele>350.101</ele>
<time>2019-05-30T15:08:24Z</time>
</trkpt>
<trkpt lat="49.533424" lon="10.153123">
<ele>349.865</ele>
<time>2019-05-30T15:08:25Z</time>
</trkpt>
<trkpt lat="49.533451" lon="10.153242">
<ele>349.694</ele>
<time>2019-05-30T15:08:26Z</time>
</trkpt>
<trkpt lat="49.533474" lon="10.153359">
<ele>349.596</ele>
<time>2019-05-30T15:08:27Z</time>
</trkpt>
<trkpt lat="49.533497" lon="10.153477">
<ele>349.303</ele>
<time>2019-05-30T15:08:28Z</time>
</trkpt>
<trkpt lat="49.533524" lon="10.153592">
<ele>349.072</ele>
<time>2019-05-30T15:08:29Z</time>
</trkpt>
<trkpt lat="49.53355" lon="10.153708">
<ele>348.901</ele>
<time>2019-05-30T15:08:30Z</time>
</trkpt>
<trkpt lat="49.533573" lon="10.153823">
<ele>348.775</ele>
<time>2019-05-30T15:08:31Z</time>
</trkpt>
<trkpt lat="49.533596" lon="10.153936">
<ele>348.462</ele>
<time>2019-05-30T15:08:32Z</time>
</trkpt>
<trkpt lat="49.533627" lon="10.154051">
<ele>348.225</ele>
<time>2019-05-30T15:08:33Z</time>
</trkpt>
<trkpt lat="49.533649" lon="10.15416">
<ele>348.053</ele>
<time>2019-05-30T15:08:34Z</time>
</trkpt>
<trkpt lat="49.533672" lon="10.154271">
<ele>347.892</ele>
<time>2019-05-30T15:08:35Z</time>
</trkpt>
<trkpt lat="49.533695" lon="10.154384">
<ele>347.786</ele>
<time>2019-05-30T15:08:36Z</time>
</trkpt>
<trkpt lat="49.533722" lon="10.154495">
<ele>347.709</ele>
<time>2019-05-30T15:08:37Z</time>
</trkpt>
<trkpt lat="49.533745" lon="10.154609">
<ele>347.663</ele>
<time>2019-05-30T15:08:38Z</time>
</trkpt>
<trkpt lat="49.533768" lon="10.154719">
<ele>347.41</ele>
<time>2019-05-30T15:08:39Z</time>
</trkpt>
<trkpt lat="49.533787" lon="10.154833">
<ele>347.183</ele>
<time>2019-05-30T15:08:40Z</time>
</trkpt>
<trkpt lat="49.533813" lon="10.154945">
<ele>347.03</ele>
<time>2019-05-30T15:08:41Z</time>
</trkpt>
<trkpt lat="49.533836" lon="10.155057">
<ele>346.916</ele>
<time>2019-05-30T15:08:42Z</time>
</trkpt>
<trkpt lat="49.533855" lon="10.155167">
<ele>346.837</ele>
<time>2019-05-30T15:08:43Z</time>
</trkpt>
<trkpt lat="49.533882" lon="10.155278">
<ele>346.779</ele>
<time>2019-05-30T15:08:44Z</time>
</trkpt>
<trkpt lat="49.533897" lon="10.155388">
<ele>346.726</ele>
<time>2019-05-30T15:08:45Z</time>
</trkpt>
<trkpt lat="49.53392" lon="10.1555">
<ele>346.7</ele>
<time>2019-05-30T15:08:46Z</time>
</trkpt>
<trkpt lat="49.533939" lon="10.155608">
<ele>346.701</ele>
<time>2019-05-30T15:08:47Z</time>
</trkpt>
<trkpt lat="49.533958" lon="10.155715">
<ele>346.44</ele>
<time>2019-05-30T15:08:48Z</time>
</trkpt>
<trkpt lat="49.533985" lon="10.15582">
<ele>346.237</ele>
<time>2019-05-30T15:08:49Z</time>
</trkpt>
<trkpt lat="49.534" lon="10.155924">
<ele>346.082</ele>
<time>2019-05-30T15:08:50Z</time>
</trkpt>
<trkpt lat="49.534016" lon="10.156025">
<ele>345.989</ele>
<time>2019-05-30T15:08:51Z</time>
</trkpt>
<trkpt lat="49.534031" lon="10.156123">
<ele>345.693</ele>
<time>2019-05-30T15:08:52Z</time>
</trkpt>
<trkpt lat="49.534046" lon="10.156219">
<ele>345.468</ele>
<time>2019-05-30T15:08:53Z</time>
</trkpt>
<trkpt lat="49.534054" lon="10.156308">
<ele>345.303</ele>
<time>2019-05-30T15:08:54Z</time>
</trkpt>
<trkpt lat="49.534069" lon="10.156393">
<ele>345.152</ele>
<time>2019-05-30T15:08:55Z</time>
</trkpt>
<trkpt lat="49.534081" lon="10.156471">
<ele>345.056</ele>
<time>2019-05-30T15:08:56Z</time>
</trkpt>
<trkpt lat="49.534092" lon="10.156549">
<ele>344.984</ele>
<time>2019-05-30T15:08:57Z</time>
</trkpt>
<trkpt lat="49.5341" lon="10.156624">
<ele>344.937</ele>
<time>2019-05-30T15:08:58Z</time>
</trkpt>
<trkpt lat="49.534103" lon="10.156692">
<ele>344.913</ele>
<time>2019-05-30T15:08:59Z</time>
</trkpt>
<trkpt lat="49.534092" lon="10.156745">
<ele>344.913</ele>
<time>2019-05-30T15:09:00Z</time>
</trkpt>
<trkpt lat="49.534073" lon="10.15679">
<ele>344.913</ele>
<time>2019-05-30T15:09:01Z</time>
</trkpt>
<trkpt lat="49.53405" lon="10.156816">
<ele>344.913</ele>
<time>2019-05-30T15:09:02Z</time>
</trkpt>
<trkpt lat="49.534016" lon="10.156827">
<ele>344.913</ele>
<time>2019-05-30T15:09:03Z</time>
</trkpt>
<trkpt lat="49.533978" lon="10.156827">
<ele>344.913</ele>
<time>2019-05-30T15:09:04Z</time>
</trkpt>
<trkpt lat="49.533932" lon="10.156832">
<ele>344.913</ele>
<time>2019-05-30T15:09:05Z</time>
</trkpt>
<trkpt lat="49.533886" lon="10.156843">
<ele>344.913</ele>
<time>2019-05-30T15:09:06Z</time>
</trkpt>
<trkpt lat="49.53384" lon="10.156857">
<ele>344.913</ele>
<time>2019-05-30T15:09:07Z</time>
</trkpt>
<trkpt lat="49.533791" lon="10.156862">
<ele>344.913</ele>
<time>2019-05-30T15:09:08Z</time>
</trkpt>
<trkpt lat="49.533745" lon="10.156872">
<ele>344.913</ele>
<time>2019-05-30T15:09:09Z</time>
</trkpt>
<trkpt lat="49.533699" lon="10.156881">
<ele>344.913</ele>
<time>2019-05-30T15:09:10Z</time>
</trkpt>
<trkpt lat="49.533653" lon="10.156895">
<ele>344.913</ele>
<time>2019-05-30T15:09:11Z</time>
</trkpt>
<trkpt lat="49.533607" lon="10.156911">
<ele>344.913</ele>
<time>2019-05-30T15:09:12Z</time>
</trkpt>
<trkpt lat="49.533569" lon="10.156936">
<ele>344.913</ele>
<time>2019-05-30T15:09:13Z</time>
</trkpt>
<trkpt lat="49.533531" lon="10.156946">
<ele>344.913</ele>
<time>2019-05-30T15:09:14Z</time>
</trkpt>
<trkpt lat="49.533493" lon="10.156955">
<ele>344.913</ele>
<time>2019-05-30T15:09:15Z</time>
</trkpt>
<trkpt lat="49.533447" lon="10.156961">
<ele>344.913</ele>
<time>2019-05-30T15:09:16Z</time>
</trkpt>
<trkpt lat="49.533405" lon="10.156972">
<ele>344.913</ele>
<time>2019-05-30T15:09:17Z</time>
</trkpt>
<trkpt lat="49.53336" lon="10.15699">
<ele>344.913</ele>
<time>2019-05-30T15:09:18Z</time>
</trkpt>
<trkpt lat="49.533314" lon="10.15701">
<ele>344.913</ele>
<time>2019-05-30T15:09:19Z</time>
</trkpt>
<trkpt lat="49.533268" lon="10.157032">
<ele>344.913</ele>
<time>2019-05-30T15:09:20Z</time>
</trkpt>
<trkpt lat="49.533218" lon="10.15706">
<ele>344.913</ele>
<time>2019-05-30T15:09:21Z</time>
</trkpt>
<trkpt lat="49.533173" lon="10.157084">
<ele>344.913</ele>
<time>2019-05-30T15:09:22Z</time>
</trkpt>
<trkpt lat="49.533131" lon="10.157112">
<ele>344.913</ele>
<time>2019-05-30T15:09:23Z</time>
</trkpt>
<trkpt lat="49.533081" lon="10.157147">
<ele>344.913</ele>
<time>2019-05-30T15:09:24Z</time>
</trkpt>
<trkpt lat="49.533035" lon="10.157184">
<ele>344.913</ele>
<time>2019-05-30T15:09:25Z</time>
</trkpt>
<trkpt lat="49.532993" lon="10.157217">
<ele>344.913</ele>
<time>2019-05-30T15:09:26Z</time>
</trkpt>
<trkpt lat="49.532951" lon="10.157255">
<ele>344.913</ele>
<time>2019-05-30T15:09:27Z</time>
</trkpt>
<trkpt lat="49.532909" lon="10.157294">
<ele>344.913</ele>
<time>2019-05-30T15:09:28Z</time>
</trkpt>
<trkpt lat="49.532871" lon="10.157333">
<ele>344.913</ele>
<time>2019-05-30T15:09:29Z</time>
</trkpt>
<trkpt lat="49.532833" lon="10.157372">
<ele>344.913</ele>
<time>2019-05-30T15:09:30Z</time>
</trkpt>
<trkpt lat="49.532795" lon="10.157412">
<ele>345.127</ele>
<time>2019-05-30T15:09:31Z</time>
</trkpt>
<trkpt lat="49.532753" lon="10.157452">
<ele>345.297</ele>
<time>2019-05-30T15:09:32Z</time>
</trkpt>
<trkpt lat="49.532715" lon="10.157492">
<ele>345.431</ele>
<time>2019-05-30T15:09:33Z</time>
</trkpt>
<trkpt lat="49.532677" lon="10.157534">
<ele>345.526</ele>
<time>2019-05-30T15:09:34Z</time>
</trkpt>
<trkpt lat="49.532639" lon="10.157575">
<ele>345.624</ele>
<time>2019-05-30T15:09:35Z</time>
</trkpt>
<trkpt lat="49.5326" lon="10.157619">
<ele>345.695</ele>
<time>2019-05-30T15:09:36Z</time>
</trkpt>
<trkpt lat="49.532558" lon="10.157661">
<ele>345.743</ele>
<time>2019-05-30T15:09:37Z</time>
</trkpt>
<trkpt lat="49.53252" lon="10.157703">
<ele>345.765</ele>
<time>2019-05-30T15:09:38Z</time>
</trkpt>
<trkpt lat="49.532482" lon="10.157744">
<ele>345.765</ele>
<time>2019-05-30T15:09:39Z</time>
</trkpt>
<trkpt lat="49.53244" lon="10.15779">
<ele>345.765</ele>
<time>2019-05-30T15:09:40Z</time>
</trkpt>
<trkpt lat="49.532398" lon="10.157833">
<ele>345.765</ele>
<time>2019-05-30T15:09:41Z</time>
</trkpt>
<trkpt lat="49.532352" lon="10.157873">
<ele>345.765</ele>
<time>2019-05-30T15:09:42Z</time>
</trkpt>
<trkpt lat="49.532314" lon="10.157912">
<ele>345.765</ele>
<time>2019-05-30T15:09:43Z</time>
</trkpt>
<trkpt lat="49.532272" lon="10.157948">
<ele>345.765</ele>
<time>2019-05-30T15:09:44Z</time>
</trkpt>
<trkpt lat="49.532227" lon="10.157986">
<ele>345.765</ele>
<time>2019-05-30T15:09:45Z</time>
</trkpt>
<trkpt lat="49.532185" lon="10.158021">
<ele>345.765</ele>
<time>2019-05-30T15:09:46Z</time>
</trkpt>
<trkpt lat="49.532143" lon="10.158058">
<ele>345.765</ele>
<time>2019-05-30T15:09:47Z</time>
</trkpt>
<trkpt lat="49.532097" lon="10.158096">
<ele>345.765</ele>
<time>2019-05-30T15:09:48Z</time>
</trkpt>
<trkpt lat="49.532055" lon="10.158134">
<ele>345.765</ele>
<time>2019-05-30T15:09:49Z</time>
</trkpt>
<trkpt lat="49.532013" lon="10.158166">
<ele>345.765</ele>
<time>2019-05-30T15:09:50Z</time>
</trkpt>
<trkpt lat="49.531967" lon="10.158201">
<ele>345.765</ele>
<time>2019-05-30T15:09:51Z</time>
</trkpt>
<trkpt lat="49.531925" lon="10.158235">
<ele>345.765</ele>
<time>2019-05-30T15:09:52Z</time>
</trkpt>
<trkpt lat="49.531879" lon="10.158268">
<ele>345.765</ele>
<time>2019-05-30T15:09:53Z</time>
</trkpt>
<trkpt lat="49.531834" lon="10.158301">
<ele>345.765</ele>
<time>2019-05-30T15:09:54Z</time>
</trkpt>
<trkpt lat="49.531788" lon="10.158335">
<ele>345.765</ele>
<time>2019-05-30T15:09:55Z</time>
</trkpt>
<trkpt lat="49.531742" lon="10.158367">
<ele>345.765</ele>
<time>2019-05-30T15:09:56Z</time>
</trkpt>
<trkpt lat="49.5317" lon="10.158399">
<ele>345.765</ele>
<time>2019-05-30T15:09:57Z</time>
</trkpt>
<trkpt lat="49.531654" lon="10.15843">
<ele>345.765</ele>
<time>2019-05-30T15:09:58Z</time>
</trkpt>
<trkpt lat="49.531609" lon="10.158462">
<ele>345.765</ele>
<time>2019-05-30T15:09:59Z</time>
</trkpt>
<trkpt lat="49.531563" lon="10.158495">
<ele>345.765</ele>
<time>2019-05-30T15:10:00Z</time>
</trkpt>
<trkpt lat="49.531517" lon="10.158528">
<ele>345.765</ele>
<time>2019-05-30T15:10:01Z</time>
</trkpt>
<trkpt lat="49.531475" lon="10.158562">
<ele>345.765</ele>
<time>2019-05-30T15:10:02Z</time>
</trkpt>
<trkpt lat="49.531429" lon="10.158597">
<ele>345.993</ele>
<time>2019-05-30T15:10:03Z</time>
</trkpt>
<trkpt lat="49.531384" lon="10.158627">
<ele>346.155</ele>
<time>2019-05-30T15:10:04Z</time>
</trkpt>
<trkpt lat="49.531342" lon="10.158658">
<ele>346.322</ele>
<time>2019-05-30T15:10:05Z</time>
</trkpt>
<trkpt lat="49.531296" lon="10.158691">
<ele>346.454</ele>
<time>2019-05-30T15:10:06Z</time>
</trkpt>
<trkpt lat="49.531254" lon="10.158723">
<ele>346.556</ele>
<time>2019-05-30T15:10:07Z</time>
</trkpt>
<trkpt lat="49.531212" lon="10.158754">
<ele>346.63</ele>
<time>2019-05-30T15:10:08Z</time>
</trkpt>
<trkpt lat="49.53117" lon="10.158786">
<ele>346.677</ele>
<time>2019-05-30T15:10:09Z</time>
</trkpt>
<trkpt lat="49.531124" lon="10.158818">
<ele>346.701</ele>
<time>2019-05-30T15:10:10Z</time>
</trkpt>
<trkpt lat="49.531082" lon="10.158852">
<ele>346.701</ele>
<time>2019-05-30T15:10:11Z</time>
</trkpt>
<trkpt lat="49.53104" lon="10.158883">
<ele>346.701</ele>
<time>2019-05-30T15:10:12Z</time>
</trkpt>
<trkpt lat="49.530994" lon="10.158914">
<ele>346.701</ele>
<time>2019-05-30T15:10:13Z</time>
</trkpt>
<trkpt lat="49.530952" lon="10.158943">
<ele>346.701</ele>
<time>2019-05-30T15:10:14Z</time>
</trkpt>
<trkpt lat="49.530914" lon="10.158977">
<ele>346.701</ele>
<time>2019-05-30T15:10:15Z</time>
</trkpt>
<trkpt lat="49.530869" lon="10.159008">
<ele>346.978</ele>
<time>2019-05-30T15:10:16Z</time>
</trkpt>
<trkpt lat="49.530827" lon="10.159041">
<ele>347.193</ele>
<time>2019-05-30T15:10:17Z</time>
</trkpt>
<trkpt lat="49.530785" lon="10.159073">
<ele>347.353</ele>
<time>2019-05-30T15:10:18Z</time>
</trkpt>
<trkpt lat="49.530743" lon="10.159103">
<ele>347.475</ele>
<time>2019-05-30T15:10:19Z</time>
</trkpt>
<trkpt lat="49.530701" lon="10.159134">
<ele>347.558</ele>
<time>2019-05-30T15:10:20Z</time>
</trkpt>
<trkpt lat="49.530659" lon="10.159165">
<ele>347.604</ele>
<time>2019-05-30T15:10:21Z</time>
</trkpt>
<trkpt lat="49.530617" lon="10.159195">
<ele>347.864</ele>
<time>2019-05-30T15:10:22Z</time>
</trkpt>
<trkpt lat="49.530575" lon="10.159225">
<ele>348.054</ele>
<time>2019-05-30T15:10:23Z</time>
</trkpt>
<trkpt lat="49.530533" lon="10.159257">
<ele>348.181</ele>
<time>2019-05-30T15:10:24Z</time>
</trkpt>
<trkpt lat="49.530495" lon="10.159288">
<ele>348.317</ele>
<time>2019-05-30T15:10:25Z</time>
</trkpt>
<trkpt lat="49.530449" lon="10.15932">
<ele>348.424</ele>
<time>2019-05-30T15:10:26Z</time>
</trkpt>
<trkpt lat="49.530407" lon="10.159348">
<ele>348.5</ele>
<time>2019-05-30T15:10:27Z</time>
</trkpt>
<trkpt lat="49.530365" lon="10.159379">
<ele>348.549</ele>
<time>2019-05-30T15:10:28Z</time>
</trkpt>
<trkpt lat="49.530327" lon="10.15941">
<ele>348.573</ele>
<time>2019-05-30T15:10:29Z</time>
</trkpt>
<trkpt lat="49.530285" lon="10.15944">
<ele>348.573</ele>
<time>2019-05-30T15:10:30Z</time>
</trkpt>
<trkpt lat="49.530243" lon="10.159472">
<ele>348.811</ele>
<time>2019-05-30T15:10:31Z</time>
</trkpt>
<trkpt lat="49.530201" lon="10.159503">
<ele>348.999</ele>
<time>2019-05-30T15:10:32Z</time>
</trkpt>
<trkpt lat="49.530163" lon="10.159534">
<ele>349.147</ele>
<time>2019-05-30T15:10:33Z</time>
</trkpt>
<trkpt lat="49.530125" lon="10.159561">
<ele>349.247</ele>
<time>2019-05-30T15:10:34Z</time>
</trkpt>
<trkpt lat="49.530083" lon="10.159593">
<ele>349.356</ele>
<time>2019-05-30T15:10:35Z</time>
</trkpt>
<trkpt lat="49.530041" lon="10.159622">
<ele>349.434</ele>
<time>2019-05-30T15:10:36Z</time>
</trkpt>
<trkpt lat="49.530003" lon="10.159654">
<ele>349.484</ele>
<time>2019-05-30T15:10:37Z</time>
</trkpt>
<trkpt lat="49.529961" lon="10.159682">
<ele>349.509</ele>
<time>2019-05-30T15:10:38Z</time>
</trkpt>
<trkpt lat="49.529919" lon="10.159708">
<ele>349.74</ele>
<time>2019-05-30T15:10:39Z</time>
</trkpt>
<trkpt lat="49.529877" lon="10.159737">
<ele>349.918</ele>
<time>2019-05-30T15:10:40Z</time>
</trkpt>
<trkpt lat="49.529842" lon="10.159764">
<ele>350.06</ele>
<time>2019-05-30T15:10:41Z</time>
</trkpt>
<trkpt lat="49.529804" lon="10.159796">
<ele>350.159</ele>
<time>2019-05-30T15:10:42Z</time>
</trkpt>
<trkpt lat="49.529766" lon="10.159827">
<ele>350.234</ele>
<time>2019-05-30T15:10:43Z</time>
</trkpt>
<trkpt lat="49.529728" lon="10.159857">
<ele>350.288</ele>
<time>2019-05-30T15:10:44Z</time>
</trkpt>
<trkpt lat="49.529686" lon="10.159883">
<ele>350.561</ele>
<time>2019-05-30T15:10:45Z</time>
</trkpt>
<trkpt lat="49.529648" lon="10.159908">
<ele>350.777</ele>
<time>2019-05-30T15:10:46Z</time>
</trkpt>
<trkpt lat="49.529613" lon="10.159936">
<ele>350.934</ele>
<time>2019-05-30T15:10:47Z</time>
</trkpt>
<trkpt lat="49.529575" lon="10.159964">
<ele>351.035</ele>
<time>2019-05-30T15:10:48Z</time>
</trkpt>
<trkpt lat="49.529537" lon="10.15999">
<ele>351.349</ele>
<time>2019-05-30T15:10:49Z</time>
</trkpt>
<trkpt lat="49.529503" lon="10.160016">
<ele>351.599</ele>
<time>2019-05-30T15:10:50Z</time>
</trkpt>
<trkpt lat="49.529465" lon="10.160043">
<ele>351.792</ele>
<time>2019-05-30T15:10:51Z</time>
</trkpt>
<trkpt lat="49.52943" lon="10.16007">
<ele>351.932</ele>
<time>2019-05-30T15:10:52Z</time>
</trkpt>
<trkpt lat="49.529392" lon="10.160097">
<ele>352.022</ele>
<time>2019-05-30T15:10:53Z</time>
</trkpt>
<trkpt lat="49.529354" lon="10.160123">
<ele>352.076</ele>
<time>2019-05-30T15:10:54Z</time>
</trkpt>
<trkpt lat="49.529324" lon="10.160148">
<ele>352.125</ele>
<time>2019-05-30T15:10:55Z</time>
</trkpt>
<trkpt lat="49.529289" lon="10.160172">
<ele>352.149</ele>
<time>2019-05-30T15:10:56Z</time>
</trkpt>
<trkpt lat="49.529255" lon="10.160198">
<ele>352.439</ele>
<time>2019-05-30T15:10:57Z</time>
</trkpt>
<trkpt lat="49.529224" lon="10.160223">
<ele>352.664</ele>
<time>2019-05-30T15:10:58Z</time>
</trkpt>
<trkpt lat="49.52919" lon="10.160249">
<ele>352.809</ele>
<time>2019-05-30T15:10:59Z</time>
</trkpt>
<trkpt lat="49.52916" lon="10.160272">
<ele>353.189</ele>
<time>2019-05-30T15:11:00Z</time>
</trkpt>
<trkpt lat="49.529125" lon="10.160295">
<ele>353.475</ele>
<time>2019-05-30T15:11:01Z</time>
</trkpt>
<trkpt lat="49.529099" lon="10.160317">
<ele>353.685</ele>
<time>2019-05-30T15:11:02Z</time>
</trkpt>
<trkpt lat="49.529068" lon="10.16034">
<ele>353.838</ele>
<time>2019-05-30T15:11:03Z</time>
</trkpt>
<trkpt lat="49.529037" lon="10.160359">
<ele>353.946</ele>
<time>2019-05-30T15:11:04Z</time>
</trkpt>
<trkpt lat="49.529007" lon="10.160382">
<ele>354.253</ele>
<time>2019-05-30T15:11:05Z</time>
</trkpt>
<trkpt lat="49.528976" lon="10.160405">
<ele>354.494</ele>
<time>2019-05-30T15:11:06Z</time>
</trkpt>
<trkpt lat="49.528946" lon="10.160426">
<ele>354.677</ele>
<time>2019-05-30T15:11:07Z</time>
</trkpt>
<trkpt lat="49.528915" lon="10.16045">
<ele>354.808</ele>
<time>2019-05-30T15:11:08Z</time>
</trkpt>
<trkpt lat="49.528889" lon="10.160472">
<ele>354.886</ele>
<time>2019-05-30T15:11:09Z</time>
</trkpt>
<trkpt lat="49.528858" lon="10.160492">
<ele>355.196</ele>
<time>2019-05-30T15:11:10Z</time>
</trkpt>
<trkpt lat="49.528828" lon="10.160512">
<ele>355.438</ele>
<time>2019-05-30T15:11:11Z</time>
</trkpt>
<trkpt lat="49.528797" lon="10.160535">
<ele>355.621</ele>
<time>2019-05-30T15:11:12Z</time>
</trkpt>
<trkpt lat="49.528763" lon="10.160555">
<ele>355.746</ele>
<time>2019-05-30T15:11:13Z</time>
</trkpt>
<trkpt lat="49.528732" lon="10.160577">
<ele>355.823</ele>
<time>2019-05-30T15:11:14Z</time>
</trkpt>
<trkpt lat="49.528702" lon="10.160598">
<ele>355.901</ele>
<time>2019-05-30T15:11:15Z</time>
</trkpt>
<trkpt lat="49.528667" lon="10.160619">
<ele>356.186</ele>
<time>2019-05-30T15:11:16Z</time>
</trkpt>
<trkpt lat="49.528637" lon="10.160638">
<ele>356.404</ele>
<time>2019-05-30T15:11:17Z</time>
</trkpt>
<trkpt lat="49.528603" lon="10.160661">
<ele>356.638</ele>
<time>2019-05-30T15:11:18Z</time>
</trkpt>
<trkpt lat="49.528572" lon="10.160678">
<ele>356.757</ele>
<time>2019-05-30T15:11:19Z</time>
</trkpt>
<trkpt lat="49.528538" lon="10.160699">
<ele>356.839</ele>
<time>2019-05-30T15:11:20Z</time>
</trkpt>
<trkpt lat="49.528507" lon="10.160713">
<ele>356.883</ele>
<time>2019-05-30T15:11:21Z</time>
</trkpt>
<trkpt lat="49.528473" lon="10.160728">
<ele>357.194</ele>
<time>2019-05-30T15:11:22Z</time>
</trkpt>
<trkpt lat="49.528442" lon="10.160742">
<ele>357.41</ele>
<time>2019-05-30T15:11:23Z</time>
</trkpt>
<trkpt lat="49.528408" lon="10.160755">
<ele>357.561</ele>
<time>2019-05-30T15:11:24Z</time>
</trkpt>
<trkpt lat="49.528374" lon="10.160769">
<ele>357.725</ele>
<time>2019-05-30T15:11:25Z</time>
</trkpt>
<trkpt lat="49.528339" lon="10.16078">
<ele>357.849</ele>
<time>2019-05-30T15:11:26Z</time>
</trkpt>
<trkpt lat="49.528301" lon="10.160791">
<ele>357.932</ele>
<time>2019-05-30T15:11:27Z</time>
</trkpt>
<trkpt lat="49.528267" lon="10.160806">
<ele>358.227</ele>
<time>2019-05-30T15:11:28Z</time>
</trkpt>
<trkpt lat="49.528229" lon="10.160816">
<ele>358.451</ele>
<time>2019-05-30T15:11:29Z</time>
</trkpt>
<trkpt lat="49.528194" lon="10.160825">
<ele>358.658</ele>
<time>2019-05-30T15:11:30Z</time>
</trkpt>
<trkpt lat="49.528156" lon="10.160831">
<ele>358.747</ele>
<time>2019-05-30T15:11:31Z</time>
</trkpt>
<trkpt lat="49.528118" lon="10.160839">
<ele>359.069</ele>
<time>2019-05-30T15:11:32Z</time>
</trkpt>
<trkpt lat="49.528084" lon="10.160847">
<ele>359.31</ele>
<time>2019-05-30T15:11:33Z</time>
</trkpt>
<trkpt lat="49.528049" lon="10.160855">
<ele>359.484</ele>
<time>2019-05-30T15:11:34Z</time>
</trkpt>
<trkpt lat="49.528011" lon="10.160862">
<ele>359.646</ele>
<time>2019-05-30T15:11:35Z</time>
</trkpt>
<trkpt lat="49.527973" lon="10.160869">
<ele>359.753</ele>
<time>2019-05-30T15:11:36Z</time>
</trkpt>
<trkpt lat="49.527935" lon="10.160872">
<ele>359.822</ele>
<time>2019-05-30T15:11:37Z</time>
</trkpt>
<trkpt lat="49.527901" lon="10.160875">
<ele>360.146</ele>
<time>2019-05-30T15:11:38Z</time>
</trkpt>
<trkpt lat="49.527863" lon="10.160878">
<ele>360.394</ele>
<time>2019-05-30T15:11:39Z</time>
</trkpt>
<trkpt lat="49.527828" lon="10.160881">
<ele>360.637</ele>
<time>2019-05-30T15:11:40Z</time>
</trkpt>
<trkpt lat="49.52779" lon="10.160883">
<ele>360.772</ele>
<time>2019-05-30T15:11:41Z</time>
</trkpt>
<trkpt lat="49.527756" lon="10.160883">
<ele>360.868</ele>
<time>2019-05-30T15:11:42Z</time>
</trkpt>
<trkpt lat="49.527721" lon="10.160883">
<ele>360.927</ele>
<time>2019-05-30T15:11:43Z</time>
</trkpt>
<trkpt lat="49.527687" lon="10.160883">
<ele>360.976</ele>
<time>2019-05-30T15:11:44Z</time>
</trkpt>
<trkpt lat="49.527653" lon="10.160883">
<ele>361.007</ele>
<time>2019-05-30T15:11:45Z</time>
</trkpt>
<trkpt lat="49.527615" lon="10.160883">
<ele>361.008</ele>
<time>2019-05-30T15:11:46Z</time>
</trkpt>
<trkpt lat="49.52758" lon="10.160883">
<ele>361.008</ele>
<time>2019-05-30T15:11:47Z</time>
</trkpt>
<trkpt lat="49.527538" lon="10.160883">
<ele>361.295</ele>
<time>2019-05-30T15:11:48Z</time>
</trkpt>
<trkpt lat="49.5275" lon="10.160883">
<ele>361.52</ele>
<time>2019-05-30T15:11:49Z</time>
</trkpt>
<trkpt lat="49.527462" lon="10.160881">
<ele>361.689</ele>
<time>2019-05-30T15:11:50Z</time>
</trkpt>
<trkpt lat="49.527428" lon="10.160881">
<ele>361.815</ele>
<time>2019-05-30T15:11:51Z</time>
</trkpt>
<trkpt lat="49.52739" lon="10.160881">
<ele>361.907</ele>
<time>2019-05-30T15:11:52Z</time>
</trkpt>
<trkpt lat="49.527355" lon="10.160883">
<ele>361.948</ele>
<time>2019-05-30T15:11:53Z</time>
</trkpt>
<trkpt lat="49.527313" lon="10.160885">
<ele>362.21</ele>
<time>2019-05-30T15:11:54Z</time>
</trkpt>
<trkpt lat="49.527279" lon="10.160889">
<ele>362.435</ele>
<time>2019-05-30T15:11:55Z</time>
</trkpt>
<trkpt lat="49.527237" lon="10.16089">
<ele>362.596</ele>
<time>2019-05-30T15:11:56Z</time>
</trkpt>
<trkpt lat="49.527203" lon="10.160893">
<ele>362.726</ele>
<time>2019-05-30T15:11:57Z</time>
</trkpt>
<trkpt lat="49.527164" lon="10.160898">
<ele>362.827</ele>
<time>2019-05-30T15:11:58Z</time>
</trkpt>
<trkpt lat="49.52713" lon="10.160904">
<ele>362.898</ele>
<time>2019-05-30T15:11:59Z</time>
</trkpt>
<trkpt lat="49.527092" lon="10.160909">
<ele>362.942</ele>
<time>2019-05-30T15:12:00Z</time>
</trkpt>
<trkpt lat="49.527054" lon="10.160914">
<ele>363.217</ele>
<time>2019-05-30T15:12:01Z</time>
</trkpt>
<trkpt lat="49.527016" lon="10.160925">
<ele>363.438</ele>
<time>2019-05-30T15:12:02Z</time>
</trkpt>
<trkpt lat="49.526974" lon="10.160933">
<ele>363.599</ele>
<time>2019-05-30T15:12:03Z</time>
</trkpt>
<trkpt lat="49.526943" lon="10.160945">
<ele>363.706</ele>
<time>2019-05-30T15:12:04Z</time>
</trkpt>
<trkpt lat="49.526901" lon="10.16096">
<ele>363.821</ele>
<time>2019-05-30T15:12:05Z</time>
</trkpt>
<trkpt lat="49.526867" lon="10.160975">
<ele>364.137</ele>
<time>2019-05-30T15:12:06Z</time>
</trkpt>
<trkpt lat="49.526825" lon="10.160992">
<ele>364.387</ele>
<time>2019-05-30T15:12:07Z</time>
</trkpt>
<trkpt lat="49.526791" lon="10.161009">
<ele>364.57</ele>
<time>2019-05-30T15:12:08Z</time>
</trkpt>
<trkpt lat="49.526752" lon="10.161021">
<ele>364.767</ele>
<time>2019-05-30T15:12:09Z</time>
</trkpt>
<trkpt lat="49.526714" lon="10.161036">
<ele>364.854</ele>
<time>2019-05-30T15:12:10Z</time>
</trkpt>
<trkpt lat="49.52668" lon="10.161053">
<ele>364.9</ele>
<time>2019-05-30T15:12:11Z</time>
</trkpt>
<trkpt lat="49.526649" lon="10.161072">
<ele>364.923</ele>
<time>2019-05-30T15:12:12Z</time>
</trkpt>
<trkpt lat="49.526611" lon="10.161092">
<ele>364.929</ele>
<time>2019-05-30T15:12:13Z</time>
</trkpt>
<trkpt lat="49.526577" lon="10.161116">
<ele>364.929</ele>
<time>2019-05-30T15:12:14Z</time>
</trkpt>
<trkpt lat="49.526539" lon="10.161135">
<ele>364.929</ele>
<time>2019-05-30T15:12:15Z</time>
</trkpt>
<trkpt lat="49.526505" lon="10.161157">
<ele>364.929</ele>
<time>2019-05-30T15:12:16Z</time>
</trkpt>
<trkpt lat="49.52647" lon="10.161183">
<ele>364.929</ele>
<time>2019-05-30T15:12:17Z</time>
</trkpt>
<trkpt lat="49.526436" lon="10.161208">
<ele>365.194</ele>
<time>2019-05-30T15:12:18Z</time>
</trkpt>
<trkpt lat="49.526398" lon="10.161237">
<ele>365.398</ele>
<time>2019-05-30T15:12:19Z</time>
</trkpt>
<trkpt lat="49.52636" lon="10.161263">
<ele>365.554</ele>
<time>2019-05-30T15:12:20Z</time>
</trkpt>
<trkpt lat="49.526325" lon="10.16129">
<ele>365.672</ele>
<time>2019-05-30T15:12:21Z</time>
</trkpt>
<trkpt lat="49.526291" lon="10.161315">
<ele>365.747</ele>
<time>2019-05-30T15:12:22Z</time>
</trkpt>
<trkpt lat="49.526257" lon="10.161342">
<ele>365.802</ele>
<time>2019-05-30T15:12:23Z</time>
</trkpt>
<trkpt lat="49.526218" lon="10.161369">
<ele>365.841</ele>
<time>2019-05-30T15:12:24Z</time>
</trkpt>
<trkpt lat="49.52618" lon="10.161397">
<ele>365.866</ele>
<time>2019-05-30T15:12:25Z</time>
</trkpt>
<trkpt lat="49.526142" lon="10.161424">
<ele>365.866</ele>
<time>2019-05-30T15:12:26Z</time>
</trkpt>
<trkpt lat="49.526104" lon="10.161451">
<ele>365.866</ele>
<time>2019-05-30T15:12:27Z</time>
</trkpt>
<trkpt lat="49.526066" lon="10.161476">
<ele>365.866</ele>
<time>2019-05-30T15:12:28Z</time>
</trkpt>
<trkpt lat="49.526031" lon="10.1615">
<ele>365.866</ele>
<time>2019-05-30T15:12:29Z</time>
</trkpt>
<trkpt lat="49.525993" lon="10.161525">
<ele>366.116</ele>
<time>2019-05-30T15:12:30Z</time>
</trkpt>
<trkpt lat="49.525955" lon="10.161549">
<ele>366.309</ele>
<time>2019-05-30T15:12:31Z</time>
</trkpt>
<trkpt lat="49.525917" lon="10.161571">
<ele>366.457</ele>
<time>2019-05-30T15:12:32Z</time>
</trkpt>
<trkpt lat="49.525887" lon="10.161589">
<ele>366.568</ele>
<time>2019-05-30T15:12:33Z</time>
</trkpt>
<trkpt lat="49.525848" lon="10.161608">
<ele>366.645</ele>
<time>2019-05-30T15:12:34Z</time>
</trkpt>
<trkpt lat="49.525814" lon="10.161625">
<ele>366.727</ele>
<time>2019-05-30T15:12:35Z</time>
</trkpt>
<trkpt lat="49.525776" lon="10.161641">
<ele>366.778</ele>
<time>2019-05-30T15:12:36Z</time>
</trkpt>
<trkpt lat="49.525742" lon="10.161654">
<ele>367.048</ele>
<time>2019-05-30T15:12:37Z</time>
</trkpt>
<trkpt lat="49.525707" lon="10.161671">
<ele>367.317</ele>
<time>2019-05-30T15:12:38Z</time>
</trkpt>
<trkpt lat="49.525677" lon="10.161683">
<ele>367.492</ele>
<time>2019-05-30T15:12:39Z</time>
</trkpt>
<trkpt lat="49.525642" lon="10.161695">
<ele>367.624</ele>
<time>2019-05-30T15:12:40Z</time>
</trkpt>
<trkpt lat="49.525608" lon="10.161709">
<ele>367.707</ele>
<time>2019-05-30T15:12:41Z</time>
</trkpt>
<trkpt lat="49.525574" lon="10.16172">
<ele>367.998</ele>
<time>2019-05-30T15:12:42Z</time>
</trkpt>
<trkpt lat="49.525539" lon="10.161732">
<ele>368.212</ele>
<time>2019-05-30T15:12:43Z</time>
</trkpt>
<trkpt lat="49.525505" lon="10.161744">
<ele>368.369</ele>
<time>2019-05-30T15:12:44Z</time>
</trkpt>
<trkpt lat="49.525471" lon="10.161752">
<ele>368.512</ele>
<time>2019-05-30T15:12:45Z</time>
</trkpt>
<trkpt lat="49.525436" lon="10.161761">
<ele>368.611</ele>
<time>2019-05-30T15:12:46Z</time>
</trkpt>
<trkpt lat="49.525398" lon="10.161772">
<ele>368.903</ele>
<time>2019-05-30T15:12:47Z</time>
</trkpt>
<trkpt lat="49.52536" lon="10.16178">
<ele>369.127</ele>
<time>2019-05-30T15:12:48Z</time>
</trkpt>
<trkpt lat="49.525326" lon="10.161788">
<ele>369.293</ele>
<time>2019-05-30T15:12:49Z</time>
</trkpt>
<trkpt lat="49.525288" lon="10.161797">
<ele>369.454</ele>
<time>2019-05-30T15:12:50Z</time>
</trkpt>
<trkpt lat="49.525253" lon="10.161803">
<ele>369.527</ele>
<time>2019-05-30T15:12:51Z</time>
</trkpt>
<trkpt lat="49.525223" lon="10.161809">
<ele>369.577</ele>
<time>2019-05-30T15:12:52Z</time>
</trkpt>
<trkpt lat="49.525188" lon="10.161814">
<ele>369.595</ele>
<time>2019-05-30T15:12:53Z</time>
</trkpt>
<trkpt lat="49.525154" lon="10.161818">
<ele>369.842</ele>
<time>2019-05-30T15:12:54Z</time>
</trkpt>
<trkpt lat="49.52512" lon="10.161821">
<ele>370.052</ele>
<time>2019-05-30T15:12:55Z</time>
</trkpt>
<trkpt lat="49.525085" lon="10.161828">
<ele>370.229</ele>
<time>2019-05-30T15:12:56Z</time>
</trkpt>
<trkpt lat="49.525055" lon="10.161834">
<ele>370.372</ele>
<time>2019-05-30T15:12:57Z</time>
</trkpt>
<trkpt lat="49.525021" lon="10.161837">
<ele>370.468</ele>
<time>2019-05-30T15:12:58Z</time>
</trkpt>
<trkpt lat="49.52499" lon="10.161839">
<ele>370.804</ele>
<time>2019-05-30T15:12:59Z</time>
</trkpt>
<trkpt lat="49.52496" lon="10.16184">
<ele>371.072</ele>
<time>2019-05-30T15:13:00Z</time>
</trkpt>
<trkpt lat="49.524925" lon="10.161842">
<ele>371.267</ele>
<time>2019-05-30T15:13:01Z</time>
</trkpt>
<trkpt lat="49.524891" lon="10.161843">
<ele>371.419</ele>
<time>2019-05-30T15:13:02Z</time>
</trkpt>
<trkpt lat="49.52486" lon="10.161847">
<ele>371.514</ele>
<time>2019-05-30T15:13:03Z</time>
</trkpt>
<trkpt lat="49.524826" lon="10.16185">
<ele>371.579</ele>
<time>2019-05-30T15:13:04Z</time>
</trkpt>
<trkpt lat="49.524796" lon="10.161855">
<ele>371.867</ele>
<time>2019-05-30T15:13:05Z</time>
</trkpt>
<trkpt lat="49.524765" lon="10.16186">
<ele>372.085</ele>
<time>2019-05-30T15:13:06Z</time>
</trkpt>
<trkpt lat="49.524731" lon="10.161865">
<ele>372.244</ele>
<time>2019-05-30T15:13:07Z</time>
</trkpt>
<trkpt lat="49.5247" lon="10.16187">
<ele>372.369</ele>
<time>2019-05-30T15:13:08Z</time>
</trkpt>
<trkpt lat="49.52467" lon="10.161872">
<ele>372.464</ele>
<time>2019-05-30T15:13:09Z</time>
</trkpt>
<trkpt lat="49.524639" lon="10.161875">
<ele>372.525</ele>
<time>2019-05-30T15:13:10Z</time>
</trkpt>
<trkpt lat="49.524609" lon="10.161877">
<ele>372.784</ele>
<time>2019-05-30T15:13:11Z</time>
</trkpt>
<trkpt lat="49.524578" lon="10.161882">
<ele>372.982</ele>
<time>2019-05-30T15:13:12Z</time>
</trkpt>
<trkpt lat="49.524544" lon="10.161888">
<ele>373.128</ele>
<time>2019-05-30T15:13:13Z</time>
</trkpt>
<trkpt lat="49.524513" lon="10.161893">
<ele>373.219</ele>
<time>2019-05-30T15:13:14Z</time>
</trkpt>
<trkpt lat="49.524479" lon="10.161897">
<ele>373.319</ele>
<time>2019-05-30T15:13:15Z</time>
</trkpt>
<trkpt lat="49.524448" lon="10.1619">
<ele>373.391</ele>
<time>2019-05-30T15:13:16Z</time>
</trkpt>
<trkpt lat="49.524414" lon="10.161905">
<ele>373.435</ele>
<time>2019-05-30T15:13:17Z</time>
</trkpt>
<trkpt lat="49.52438" lon="10.16191">
<ele>373.71</ele>
<time>2019-05-30T15:13:18Z</time>
</trkpt>
<trkpt lat="49.524345" lon="10.161914">
<ele>373.976</ele>
<time>2019-05-30T15:13:19Z</time>
</trkpt>
<trkpt lat="49.524307" lon="10.161919">
<ele>374.139</ele>
<time>2019-05-30T15:13:20Z</time>
</trkpt>
<trkpt lat="49.524273" lon="10.161922">
<ele>374.266</ele>
<time>2019-05-30T15:13:21Z</time>
</trkpt>
<trkpt lat="49.524235" lon="10.161926">
<ele>374.352</ele>
<time>2019-05-30T15:13:22Z</time>
</trkpt>
<trkpt lat="49.524204" lon="10.16193">
<ele>374.411</ele>
<time>2019-05-30T15:13:23Z</time>
</trkpt>
<trkpt lat="49.524166" lon="10.161933">
<ele>374.455</ele>
<time>2019-05-30T15:13:24Z</time>
</trkpt>
<trkpt lat="49.524132" lon="10.161937">
<ele>374.732</ele>
<time>2019-05-30T15:13:25Z</time>
</trkpt>
<trkpt lat="49.524094" lon="10.161942">
<ele>374.943</ele>
<time>2019-05-30T15:13:26Z</time>
</trkpt>
<trkpt lat="49.524055" lon="10.161945">
<ele>375.112</ele>
<time>2019-05-30T15:13:27Z</time>
</trkpt>
<trkpt lat="49.524021" lon="10.161948">
<ele>375.249</ele>
<time>2019-05-30T15:13:28Z</time>
</trkpt>
<trkpt lat="49.523983" lon="10.161954">
<ele>375.357</ele>
<time>2019-05-30T15:13:29Z</time>
</trkpt>
<trkpt lat="49.523945" lon="10.16196">
<ele>375.432</ele>
<time>2019-05-30T15:13:30Z</time>
</trkpt>
<trkpt lat="49.523911" lon="10.161966">
<ele>375.478</ele>
<time>2019-05-30T15:13:31Z</time>
</trkpt>
<trkpt lat="49.523872" lon="10.161972">
<ele>375.778</ele>
<time>2019-05-30T15:13:32Z</time>
</trkpt>
<trkpt lat="49.523834" lon="10.161979">
<ele>376.006</ele>
<time>2019-05-30T15:13:33Z</time>
</trkpt>
<trkpt lat="49.5238" lon="10.161985">
<ele>376.154</ele>
<time>2019-05-30T15:13:34Z</time>
</trkpt>
<trkpt lat="49.523758" lon="10.161993">
<ele>376.317</ele>
<time>2019-05-30T15:13:35Z</time>
</trkpt>
<trkpt lat="49.523724" lon="10.162004">
<ele>376.44</ele>
<time>2019-05-30T15:13:36Z</time>
</trkpt>
<trkpt lat="49.523685" lon="10.162012">
<ele>376.529</ele>
<time>2019-05-30T15:13:37Z</time>
</trkpt>
<trkpt lat="49.523647" lon="10.162021">
<ele>376.586</ele>
<time>2019-05-30T15:13:38Z</time>
</trkpt>
<trkpt lat="49.523613" lon="10.162031">
<ele>376.615</ele>
<time>2019-05-30T15:13:39Z</time>
</trkpt>
<trkpt lat="49.523575" lon="10.16204">
<ele>376.615</ele>
<time>2019-05-30T15:13:40Z</time>
</trkpt>
<trkpt lat="49.52354" lon="10.162052">
<ele>376.615</ele>
<time>2019-05-30T15:13:41Z</time>
</trkpt>
<trkpt lat="49.523502" lon="10.162063">
<ele>376.847</ele>
<time>2019-05-30T15:13:42Z</time>
</trkpt>
<trkpt lat="49.523464" lon="10.162077">
<ele>377.033</ele>
<time>2019-05-30T15:13:43Z</time>
</trkpt>
<trkpt lat="49.523426" lon="10.162094">
<ele>377.162</ele>
<time>2019-05-30T15:13:44Z</time>
</trkpt>
<trkpt lat="49.523392" lon="10.16211">
<ele>377.3</ele>
<time>2019-05-30T15:13:45Z</time>
</trkpt>
<trkpt lat="49.523354" lon="10.162126">
<ele>377.404</ele>
<time>2019-05-30T15:13:46Z</time>
</trkpt>
<trkpt lat="49.523315" lon="10.162142">
<ele>377.482</ele>
<time>2019-05-30T15:13:47Z</time>
</trkpt>
<trkpt lat="49.523277" lon="10.16216">
<ele>377.531</ele>
<time>2019-05-30T15:13:48Z</time>
</trkpt>
<trkpt lat="49.523239" lon="10.16218">
<ele>377.553</ele>
<time>2019-05-30T15:13:49Z</time>
</trkpt>
<trkpt lat="49.523197" lon="10.162203">
<ele>377.553</ele>
<time>2019-05-30T15:13:50Z</time>
</trkpt>
<trkpt lat="49.523159" lon="10.162225">
<ele>377.553</ele>
<time>2019-05-30T15:13:51Z</time>
</trkpt>
<trkpt lat="49.523121" lon="10.162249">
<ele>377.553</ele>
<time>2019-05-30T15:13:52Z</time>
</trkpt>
<trkpt lat="49.523083" lon="10.162271">
<ele>377.553</ele>
<time>2019-05-30T15:13:53Z</time>
</trkpt>
<trkpt lat="49.523045" lon="10.162297">
<ele>377.553</ele>
<time>2019-05-30T15:13:54Z</time>
</trkpt>
<trkpt lat="49.523006" lon="10.162322">
<ele>377.553</ele>
<time>2019-05-30T15:13:55Z</time>
</trkpt>
<trkpt lat="49.522968" lon="10.16235">
<ele>377.553</ele>
<time>2019-05-30T15:13:56Z</time>
</trkpt>
<trkpt lat="49.52293" lon="10.162376">
<ele>377.553</ele>
<time>2019-05-30T15:13:57Z</time>
</trkpt>
<trkpt lat="49.522892" lon="10.162405">
<ele>377.553</ele>
<time>2019-05-30T15:13:58Z</time>
</trkpt>
<trkpt lat="49.52285" lon="10.162432">
<ele>377.554</ele>
<time>2019-05-30T15:13:59Z</time>
</trkpt>
<trkpt lat="49.522808" lon="10.16246">
<ele>377.553</ele>
<time>2019-05-30T15:14:00Z</time>
</trkpt>
<trkpt lat="49.522766" lon="10.162486">
<ele>377.554</ele>
<time>2019-05-30T15:14:01Z</time>
</trkpt>
<trkpt lat="49.52272" lon="10.162513">
<ele>377.553</ele>
<time>2019-05-30T15:14:02Z</time>
</trkpt>
<trkpt lat="49.522678" lon="10.162543">
<ele>377.553</ele>
<time>2019-05-30T15:14:03Z</time>
</trkpt>
<trkpt lat="49.52264" lon="10.162572">
<ele>377.554</ele>
<time>2019-05-30T15:14:04Z</time>
</trkpt>
<trkpt lat="49.522594" lon="10.162601">
<ele>377.553</ele>
<time>2019-05-30T15:14:05Z</time>
</trkpt>
<trkpt lat="49.522545" lon="10.162632">
<ele>377.553</ele>
<time>2019-05-30T15:14:06Z</time>
</trkpt>
<trkpt lat="49.522499" lon="10.162662">
<ele>377.553</ele>
<time>2019-05-30T15:14:07Z</time>
</trkpt>
<trkpt lat="49.522449" lon="10.162691">
<ele>377.553</ele>
<time>2019-05-30T15:14:08Z</time>
</trkpt>
<trkpt lat="49.522404" lon="10.162722">
<ele>377.553</ele>
<time>2019-05-30T15:14:09Z</time>
</trkpt>
<trkpt lat="49.52235" lon="10.162754">
<ele>377.554</ele>
<time>2019-05-30T15:14:10Z</time>
</trkpt>
<trkpt lat="49.522293" lon="10.162782">
<ele>377.325</ele>
<time>2019-05-30T15:14:11Z</time>
</trkpt>
<trkpt lat="49.52224" lon="10.162807">
<ele>377.148</ele>
<time>2019-05-30T15:14:12Z</time>
</trkpt>
<trkpt lat="49.522182" lon="10.162833">
<ele>377.015</ele>
<time>2019-05-30T15:14:13Z</time>
</trkpt>
<trkpt lat="49.522129" lon="10.162861">
<ele>376.928</ele>
<time>2019-05-30T15:14:14Z</time>
</trkpt>
<trkpt lat="49.522068" lon="10.162889">
<ele>376.572</ele>
<time>2019-05-30T15:14:15Z</time>
</trkpt>
<trkpt lat="49.522011" lon="10.162911">
<ele>376.293</ele>
<time>2019-05-30T15:14:16Z</time>
</trkpt>
<trkpt lat="49.521946" lon="10.162933">
<ele>376.079</ele>
<time>2019-05-30T15:14:17Z</time>
</trkpt>
<trkpt lat="49.521881" lon="10.162951">
<ele>375.926</ele>
<time>2019-05-30T15:14:18Z</time>
</trkpt>
<trkpt lat="49.521816" lon="10.162973">
<ele>375.842</ele>
<time>2019-05-30T15:14:19Z</time>
</trkpt>
<trkpt lat="49.521748" lon="10.162999">
<ele>375.518</ele>
<time>2019-05-30T15:14:20Z</time>
</trkpt>
<trkpt lat="49.521675" lon="10.163024">
<ele>375.268</ele>
<time>2019-05-30T15:14:21Z</time>
</trkpt>
<trkpt lat="49.521603" lon="10.163047">
<ele>375.116</ele>
<time>2019-05-30T15:14:22Z</time>
</trkpt>
<trkpt lat="49.521526" lon="10.163068">
<ele>374.719</ele>
<time>2019-05-30T15:14:23Z</time>
</trkpt>
<trkpt lat="49.52145" lon="10.163092">
<ele>374.444</ele>
<time>2019-05-30T15:14:24Z</time>
</trkpt>
<trkpt lat="49.521366" lon="10.163114">
<ele>374.2</ele>
<time>2019-05-30T15:14:25Z</time>
</trkpt>
<trkpt lat="49.52129" lon="10.163137">
<ele>373.793</ele>
<time>2019-05-30T15:14:26Z</time>
</trkpt>
<trkpt lat="49.521202" lon="10.163158">
<ele>373.213</ele>
<time>2019-05-30T15:14:27Z</time>
</trkpt>
<trkpt lat="49.521122" lon="10.163181">
<ele>372.775</ele>
<time>2019-05-30T15:14:28Z</time>
</trkpt>
<trkpt lat="49.521038" lon="10.16321">
<ele>372.44</ele>
<time>2019-05-30T15:14:29Z</time>
</trkpt>
<trkpt lat="49.520954" lon="10.163242">
<ele>372.197</ele>
<time>2019-05-30T15:14:30Z</time>
</trkpt>
<trkpt lat="49.52087" lon="10.163277">
<ele>371.976</ele>
<time>2019-05-30T15:14:31Z</time>
</trkpt>
<trkpt lat="49.520786" lon="10.163317">
<ele>371.67</ele>
<time>2019-05-30T15:14:32Z</time>
</trkpt>
<trkpt lat="49.52071" lon="10.163362">
<ele>371.475</ele>
<time>2019-05-30T15:14:33Z</time>
</trkpt>
<trkpt lat="49.520626" lon="10.163408">
<ele>371.336</ele>
<time>2019-05-30T15:14:34Z</time>
</trkpt>
<trkpt lat="49.52055" lon="10.163455">
<ele>370.985</ele>
<time>2019-05-30T15:14:35Z</time>
</trkpt>
<trkpt lat="49.520473" lon="10.163504">
<ele>370.699</ele>
<time>2019-05-30T15:14:36Z</time>
</trkpt>
<trkpt lat="49.520397" lon="10.16355">
<ele>370.474</ele>
<time>2019-05-30T15:14:37Z</time>
</trkpt>
<trkpt lat="49.520325" lon="10.163596">
<ele>370.331</ele>
<time>2019-05-30T15:14:38Z</time>
</trkpt>
<trkpt lat="49.520252" lon="10.163642">
<ele>369.975</ele>
<time>2019-05-30T15:14:39Z</time>
</trkpt>
<trkpt lat="49.520187" lon="10.163684">
<ele>369.708</ele>
<time>2019-05-30T15:14:40Z</time>
</trkpt>
<trkpt lat="49.520126" lon="10.16373">
<ele>369.503</ele>
<time>2019-05-30T15:14:41Z</time>
</trkpt>
<trkpt lat="49.520077" lon="10.163783">
<ele>369.353</ele>
<time>2019-05-30T15:14:42Z</time>
</trkpt>
<trkpt lat="49.520046" lon="10.163843">
<ele>369.254</ele>
<time>2019-05-30T15:14:43Z</time>
</trkpt>
<trkpt lat="49.520031" lon="10.163917">
<ele>369.191</ele>
<time>2019-05-30T15:14:44Z</time>
</trkpt>
<trkpt lat="49.520042" lon="10.16399">
<ele>369.135</ele>
<time>2019-05-30T15:14:45Z</time>
</trkpt>
<trkpt lat="49.520069" lon="10.164059">
<ele>369.107</ele>
<time>2019-05-30T15:14:46Z</time>
</trkpt>
<trkpt lat="49.520111" lon="10.16411">
<ele>369.107</ele>
<time>2019-05-30T15:14:47Z</time>
</trkpt>
<trkpt lat="49.520157" lon="10.164149">
<ele>369.107</ele>
<time>2019-05-30T15:14:48Z</time>
</trkpt>
<trkpt lat="49.520203" lon="10.164182">
<ele>369.107</ele>
<time>2019-05-30T15:14:49Z</time>
</trkpt>
<trkpt lat="49.520252" lon="10.164212">
<ele>369.107</ele>
<time>2019-05-30T15:14:50Z</time>
</trkpt>
<trkpt lat="49.520298" lon="10.16424">
<ele>369.107</ele>
<time>2019-05-30T15:14:51Z</time>
</trkpt>
<trkpt lat="49.520348" lon="10.164263">
<ele>369.107</ele>
<time>2019-05-30T15:14:52Z</time>
</trkpt>
<trkpt lat="49.520393" lon="10.164287">
<ele>369.107</ele>
<time>2019-05-30T15:14:53Z</time>
</trkpt>
<trkpt lat="49.520447" lon="10.164313">
<ele>369.107</ele>
<time>2019-05-30T15:14:54Z</time>
</trkpt>
<trkpt lat="49.520493" lon="10.164342">
<ele>369.107</ele>
<time>2019-05-30T15:14:55Z</time>
</trkpt>
<trkpt lat="49.520542" lon="10.164371">
<ele>369.107</ele>
<time>2019-05-30T15:14:56Z</time>
</trkpt>
<trkpt lat="49.520588" lon="10.164407">
<ele>369.107</ele>
<time>2019-05-30T15:14:57Z</time>
</trkpt>
<trkpt lat="49.520634" lon="10.16444">
<ele>369.107</ele>
<time>2019-05-30T15:14:58Z</time>
</trkpt>
<trkpt lat="49.520683" lon="10.164472">
<ele>369.107</ele>
<time>2019-05-30T15:14:59Z</time>
</trkpt>
<trkpt lat="49.520725" lon="10.164501">
<ele>369.107</ele>
<time>2019-05-30T15:15:00Z</time>
</trkpt>
<trkpt lat="49.520767" lon="10.164535">
<ele>369.107</ele>
<time>2019-05-30T15:15:01Z</time>
</trkpt>
<trkpt lat="49.520813" lon="10.16457">
<ele>369.107</ele>
<time>2019-05-30T15:15:02Z</time>
</trkpt>
<trkpt lat="49.520851" lon="10.164608">
<ele>369.107</ele>
<time>2019-05-30T15:15:03Z</time>
</trkpt>
<trkpt lat="49.520889" lon="10.164645">
<ele>369.107</ele>
<time>2019-05-30T15:15:04Z</time>
</trkpt>
<trkpt lat="49.520931" lon="10.164679">
<ele>369.107</ele>
<time>2019-05-30T15:15:05Z</time>
</trkpt>
<trkpt lat="49.520969" lon="10.164711">
<ele>369.107</ele>
<time>2019-05-30T15:15:06Z</time>
</trkpt>
<trkpt lat="49.521008" lon="10.164744">
<ele>369.107</ele>
<time>2019-05-30T15:15:07Z</time>
</trkpt>
<trkpt lat="49.521049" lon="10.164778">
<ele>369.365</ele>
<time>2019-05-30T15:15:08Z</time>
</trkpt>
<trkpt lat="49.521091" lon="10.164809">
<ele>369.569</ele>
<time>2019-05-30T15:15:09Z</time>
</trkpt>
<trkpt lat="49.521133" lon="10.164843">
<ele>369.726</ele>
<time>2019-05-30T15:15:10Z</time>
</trkpt>
<trkpt lat="49.521175" lon="10.164877">
<ele>369.846</ele>
<time>2019-05-30T15:15:11Z</time>
</trkpt>
<trkpt lat="49.521214" lon="10.164913">
<ele>369.925</ele>
<time>2019-05-30T15:15:12Z</time>
</trkpt>
<trkpt lat="49.521255" lon="10.164951">
<ele>369.978</ele>
<time>2019-05-30T15:15:13Z</time>
</trkpt>
<trkpt lat="49.521297" lon="10.164989">
<ele>370.019</ele>
<time>2019-05-30T15:15:14Z</time>
</trkpt>
<trkpt lat="49.521332" lon="10.165029">
<ele>370.045</ele>
<time>2019-05-30T15:15:15Z</time>
</trkpt>
<trkpt lat="49.521366" lon="10.16507">
<ele>370.045</ele>
<time>2019-05-30T15:15:16Z</time>
</trkpt>
<trkpt lat="49.5214" lon="10.165113">
<ele>370.045</ele>
<time>2019-05-30T15:15:17Z</time>
</trkpt>
<trkpt lat="49.521442" lon="10.165159">
<ele>370.045</ele>
<time>2019-05-30T15:15:18Z</time>
</trkpt>
<trkpt lat="49.521477" lon="10.165205">
<ele>370.3</ele>
<time>2019-05-30T15:15:19Z</time>
</trkpt>
<trkpt lat="49.521511" lon="10.165254">
<ele>370.5</ele>
<time>2019-05-30T15:15:20Z</time>
</trkpt>
<trkpt lat="49.521545" lon="10.165303">
<ele>370.653</ele>
<time>2019-05-30T15:15:21Z</time>
</trkpt>
<trkpt lat="49.52158" lon="10.165354">
<ele>370.768</ele>
<time>2019-05-30T15:15:22Z</time>
</trkpt>
<trkpt lat="49.52161" lon="10.165406">
<ele>370.832</ele>
<time>2019-05-30T15:15:23Z</time>
</trkpt>
<trkpt lat="49.521641" lon="10.165462">
<ele>371.098</ele>
<time>2019-05-30T15:15:24Z</time>
</trkpt>
<trkpt lat="49.521667" lon="10.165517">
<ele>371.325</ele>
<time>2019-05-30T15:15:25Z</time>
</trkpt>
<trkpt lat="49.521694" lon="10.165574">
<ele>371.496</ele>
<time>2019-05-30T15:15:26Z</time>
</trkpt>
<trkpt lat="49.521725" lon="10.165632">
<ele>371.617</ele>
<time>2019-05-30T15:15:27Z</time>
</trkpt>
<trkpt lat="49.521748" lon="10.165691">
<ele>371.707</ele>
<time>2019-05-30T15:15:28Z</time>
</trkpt>
<trkpt lat="49.521767" lon="10.165753">
<ele>371.773</ele>
<time>2019-05-30T15:15:29Z</time>
</trkpt>
<trkpt lat="49.52179" lon="10.165817">
<ele>371.816</ele>
<time>2019-05-30T15:15:30Z</time>
</trkpt>
<trkpt lat="49.521809" lon="10.16588">
<ele>371.836</ele>
<time>2019-05-30T15:15:31Z</time>
</trkpt>
<trkpt lat="49.521828" lon="10.165943">
<ele>371.836</ele>
<time>2019-05-30T15:15:32Z</time>
</trkpt>
<trkpt lat="49.521847" lon="10.166008">
<ele>371.836</ele>
<time>2019-05-30T15:15:33Z</time>
</trkpt>
<trkpt lat="49.521862" lon="10.166073">
<ele>372.044</ele>
<time>2019-05-30T15:15:34Z</time>
</trkpt>
<trkpt lat="49.521877" lon="10.16614">
<ele>372.242</ele>
<time>2019-05-30T15:15:35Z</time>
</trkpt>
<trkpt lat="49.521889" lon="10.166206">
<ele>372.404</ele>
<time>2019-05-30T15:15:36Z</time>
</trkpt>
<trkpt lat="49.5219" lon="10.166273">
<ele>372.534</ele>
<time>2019-05-30T15:15:37Z</time>
</trkpt>
<trkpt lat="49.521912" lon="10.166341">
<ele>372.633</ele>
<time>2019-05-30T15:15:38Z</time>
</trkpt>
<trkpt lat="49.521923" lon="10.166409">
<ele>372.705</ele>
<time>2019-05-30T15:15:39Z</time>
</trkpt>
<trkpt lat="49.521935" lon="10.16648">
<ele>372.749</ele>
<time>2019-05-30T15:15:40Z</time>
</trkpt>
<trkpt lat="49.521946" lon="10.166552">
<ele>373.004</ele>
<time>2019-05-30T15:15:41Z</time>
</trkpt>
<trkpt lat="49.521954" lon="10.166621">
<ele>373.209</ele>
<time>2019-05-30T15:15:42Z</time>
</trkpt>
<trkpt lat="49.521965" lon="10.166692">
<ele>373.355</ele>
<time>2019-05-30T15:15:43Z</time>
</trkpt>
<trkpt lat="49.521976" lon="10.166763">
<ele>373.456</ele>
<time>2019-05-30T15:15:44Z</time>
</trkpt>
<trkpt lat="49.521988" lon="10.166833">
<ele>373.564</ele>
<time>2019-05-30T15:15:45Z</time>
</trkpt>
<trkpt lat="49.521996" lon="10.166903">
<ele>373.64</ele>
<time>2019-05-30T15:15:46Z</time>
</trkpt>
<trkpt lat="49.522007" lon="10.166975">
<ele>373.69</ele>
<time>2019-05-30T15:15:47Z</time>
</trkpt>
<trkpt lat="49.522018" lon="10.167047">
<ele>373.713</ele>
<time>2019-05-30T15:15:48Z</time>
</trkpt>
<trkpt lat="49.522022" lon="10.167118">
<ele>373.713</ele>
<time>2019-05-30T15:15:49Z</time>
</trkpt>
<trkpt lat="49.522034" lon="10.167192">
<ele>373.713</ele>
<time>2019-05-30T15:15:50Z</time>
</trkpt>
<trkpt lat="49.522049" lon="10.167263">
<ele>373.713</ele>
<time>2019-05-30T15:15:51Z</time>
</trkpt>
<trkpt lat="49.522057" lon="10.167336">
<ele>373.713</ele>
<time>2019-05-30T15:15:52Z</time>
</trkpt>
<trkpt lat="49.522068" lon="10.167412">
<ele>373.713</ele>
<time>2019-05-30T15:15:53Z</time>
</trkpt>
<trkpt lat="49.522079" lon="10.167485">
<ele>373.713</ele>
<time>2019-05-30T15:15:54Z</time>
</trkpt>
<trkpt lat="49.522083" lon="10.167558">
<ele>373.713</ele>
<time>2019-05-30T15:15:55Z</time>
</trkpt>
<trkpt lat="49.522095" lon="10.167633">
<ele>373.713</ele>
<time>2019-05-30T15:15:56Z</time>
</trkpt>
<trkpt lat="49.522106" lon="10.167706">
<ele>373.713</ele>
<time>2019-05-30T15:15:57Z</time>
</trkpt>
<trkpt lat="49.522118" lon="10.167782">
<ele>373.713</ele>
<time>2019-05-30T15:15:58Z</time>
</trkpt>
<trkpt lat="49.522125" lon="10.167857">
<ele>373.713</ele>
<time>2019-05-30T15:15:59Z</time>
</trkpt>
<trkpt lat="49.522137" lon="10.167933">
<ele>373.713</ele>
<time>2019-05-30T15:16:00Z</time>
</trkpt>
<trkpt lat="49.522148" lon="10.168009">
<ele>373.713</ele>
<time>2019-05-30T15:16:01Z</time>
</trkpt>
<trkpt lat="49.52216" lon="10.168085">
<ele>373.713</ele>
<time>2019-05-30T15:16:02Z</time>
</trkpt>
<trkpt lat="49.522171" lon="10.168159">
<ele>373.713</ele>
<time>2019-05-30T15:16:03Z</time>
</trkpt>
<trkpt lat="49.522182" lon="10.168233">
<ele>373.713</ele>
<time>2019-05-30T15:16:04Z</time>
</trkpt>
<trkpt lat="49.52219" lon="10.168306">
<ele>373.713</ele>
<time>2019-05-30T15:16:05Z</time>
</trkpt>
<trkpt lat="49.522202" lon="10.16838">
<ele>373.713</ele>
<time>2019-05-30T15:16:06Z</time>
</trkpt>
<trkpt lat="49.522213" lon="10.168452">
<ele>373.713</ele>
<time>2019-05-30T15:16:07Z</time>
</trkpt>
<trkpt lat="49.522221" lon="10.168526">
<ele>373.713</ele>
<time>2019-05-30T15:16:08Z</time>
</trkpt>
<trkpt lat="49.522232" lon="10.1686">
<ele>373.713</ele>
<time>2019-05-30T15:16:09Z</time>
</trkpt>
<trkpt lat="49.52224" lon="10.168674">
<ele>373.713</ele>
<time>2019-05-30T15:16:10Z</time>
</trkpt>
<trkpt lat="49.522247" lon="10.16875">
<ele>373.713</ele>
<time>2019-05-30T15:16:11Z</time>
</trkpt>
<trkpt lat="49.522259" lon="10.168825">
<ele>373.713</ele>
<time>2019-05-30T15:16:12Z</time>
</trkpt>
<trkpt lat="49.522274" lon="10.1689">
<ele>373.713</ele>
<time>2019-05-30T15:16:13Z</time>
</trkpt>
<trkpt lat="49.522282" lon="10.168974">
<ele>373.713</ele>
<time>2019-05-30T15:16:14Z</time>
</trkpt>
<trkpt lat="49.522289" lon="10.16905">
<ele>373.713</ele>
<time>2019-05-30T15:16:15Z</time>
</trkpt>
<trkpt lat="49.522297" lon="10.169125">
<ele>373.713</ele>
<time>2019-05-30T15:16:16Z</time>
</trkpt>
<trkpt lat="49.522312" lon="10.169198">
<ele>373.713</ele>
<time>2019-05-30T15:16:17Z</time>
</trkpt>
<trkpt lat="49.522324" lon="10.169273">
<ele>373.713</ele>
<time>2019-05-30T15:16:18Z</time>
</trkpt>
<trkpt lat="49.522339" lon="10.169349">
<ele>373.968</ele>
<time>2019-05-30T15:16:19Z</time>
</trkpt>
<trkpt lat="49.522346" lon="10.169422">
<ele>374.169</ele>
<time>2019-05-30T15:16:20Z</time>
</trkpt>
<trkpt lat="49.522358" lon="10.169497">
<ele>374.322</ele>
<time>2019-05-30T15:16:21Z</time>
</trkpt>
<trkpt lat="49.522369" lon="10.169572">
<ele>374.435</ele>
<time>2019-05-30T15:16:22Z</time>
</trkpt>
<trkpt lat="49.522377" lon="10.169645">
<ele>374.514</ele>
<time>2019-05-30T15:16:23Z</time>
</trkpt>
<trkpt lat="49.522388" lon="10.169718">
<ele>374.574</ele>
<time>2019-05-30T15:16:24Z</time>
</trkpt>
<trkpt lat="49.522408" lon="10.169791">
<ele>374.626</ele>
<time>2019-05-30T15:16:25Z</time>
</trkpt>
<trkpt lat="49.522411" lon="10.169863">
<ele>374.651</ele>
<time>2019-05-30T15:16:26Z</time>
</trkpt>
<trkpt lat="49.522423" lon="10.169936">
<ele>374.651</ele>
<time>2019-05-30T15:16:27Z</time>
</trkpt>
<trkpt lat="49.52243" lon="10.170009">
<ele>374.652</ele>
<time>2019-05-30T15:16:28Z</time>
</trkpt>
<trkpt lat="49.522442" lon="10.170082">
<ele>374.652</ele>
<time>2019-05-30T15:16:29Z</time>
</trkpt>
<trkpt lat="49.522449" lon="10.170154">
<ele>374.652</ele>
<time>2019-05-30T15:16:30Z</time>
</trkpt>
<trkpt lat="49.522461" lon="10.170223">
<ele>374.652</ele>
<time>2019-05-30T15:16:31Z</time>
</trkpt>
<trkpt lat="49.522469" lon="10.170297">
<ele>374.864</ele>
<time>2019-05-30T15:16:32Z</time>
</trkpt>
<trkpt lat="49.522476" lon="10.170368">
<ele>375.031</ele>
<time>2019-05-30T15:16:33Z</time>
</trkpt>
<trkpt lat="49.522484" lon="10.170441">
<ele>375.149</ele>
<time>2019-05-30T15:16:34Z</time>
</trkpt>
<trkpt lat="49.522495" lon="10.170514">
<ele>375.273</ele>
<time>2019-05-30T15:16:35Z</time>
</trkpt>
<trkpt lat="49.522507" lon="10.170586">
<ele>375.37</ele>
<time>2019-05-30T15:16:36Z</time>
</trkpt>
<trkpt lat="49.522511" lon="10.170656">
<ele>375.438</ele>
<time>2019-05-30T15:16:37Z</time>
</trkpt>
<trkpt lat="49.522518" lon="10.170728">
<ele>375.484</ele>
<time>2019-05-30T15:16:38Z</time>
</trkpt>
<trkpt lat="49.52253" lon="10.170803">
<ele>375.505</ele>
<time>2019-05-30T15:16:39Z</time>
</trkpt>
<trkpt lat="49.522541" lon="10.170878">
<ele>375.505</ele>
<time>2019-05-30T15:16:40Z</time>
</trkpt>
<trkpt lat="49.522545" lon="10.170952">
<ele>375.505</ele>
<time>2019-05-30T15:16:41Z</time>
</trkpt>
<trkpt lat="49.522549" lon="10.171019">
<ele>375.505</ele>
<time>2019-05-30T15:16:42Z</time>
</trkpt>
<trkpt lat="49.522549" lon="10.171083">
<ele>375.73</ele>
<time>2019-05-30T15:16:43Z</time>
</trkpt>
<trkpt lat="49.522549" lon="10.171148">
<ele>375.892</ele>
<time>2019-05-30T15:16:44Z</time>
</trkpt>
<trkpt lat="49.52256" lon="10.171216">
<ele>376.057</ele>
<time>2019-05-30T15:16:45Z</time>
</trkpt>
<trkpt lat="49.52256" lon="10.171285">
<ele>376.189</ele>
<time>2019-05-30T15:16:46Z</time>
</trkpt>
<trkpt lat="49.522568" lon="10.171353">
<ele>376.291</ele>
<time>2019-05-30T15:16:47Z</time>
</trkpt>
<trkpt lat="49.522572" lon="10.171425">
<ele>376.368</ele>
<time>2019-05-30T15:16:48Z</time>
</trkpt>
<trkpt lat="49.522579" lon="10.1715">
<ele>376.419</ele>
<time>2019-05-30T15:16:49Z</time>
</trkpt>
<trkpt lat="49.522583" lon="10.171576">
<ele>376.444</ele>
<time>2019-05-30T15:16:50Z</time>
</trkpt>
<trkpt lat="49.522591" lon="10.17165">
<ele>376.444</ele>
<time>2019-05-30T15:16:51Z</time>
</trkpt>
<trkpt lat="49.522598" lon="10.171725">
<ele>376.444</ele>
<time>2019-05-30T15:16:52Z</time>
</trkpt>
<trkpt lat="49.522606" lon="10.171799">
<ele>376.444</ele>
<time>2019-05-30T15:16:53Z</time>
</trkpt>
<trkpt lat="49.522606" lon="10.17187">
<ele>376.444</ele>
<time>2019-05-30T15:16:54Z</time>
</trkpt>
<trkpt lat="49.52261" lon="10.171944">
<ele>376.444</ele>
<time>2019-05-30T15:16:55Z</time>
</trkpt>
<trkpt lat="49.522614" lon="10.172018">
<ele>376.444</ele>
<time>2019-05-30T15:16:56Z</time>
</trkpt>
<trkpt lat="49.522621" lon="10.172095">
<ele>376.444</ele>
<time>2019-05-30T15:16:57Z</time>
</trkpt>
<trkpt lat="49.522617" lon="10.17217">
<ele>376.444</ele>
<time>2019-05-30T15:16:58Z</time>
</trkpt>
<trkpt lat="49.522614" lon="10.172249">
<ele>376.444</ele>
<time>2019-05-30T15:16:59Z</time>
</trkpt>
<trkpt lat="49.52261" lon="10.172325">
<ele>376.444</ele>
<time>2019-05-30T15:17:00Z</time>
</trkpt>
<trkpt lat="49.522606" lon="10.172406">
<ele>376.444</ele>
<time>2019-05-30T15:17:01Z</time>
</trkpt>
<trkpt lat="49.522606" lon="10.172486">
<ele>376.444</ele>
<time>2019-05-30T15:17:02Z</time>
</trkpt>
<trkpt lat="49.522606" lon="10.172568">
<ele>376.444</ele>
<time>2019-05-30T15:17:03Z</time>
</trkpt>
<trkpt lat="49.52261" lon="10.172653">
<ele>376.444</ele>
<time>2019-05-30T15:17:04Z</time>
</trkpt>
<trkpt lat="49.52261" lon="10.172737">
<ele>376.444</ele>
<time>2019-05-30T15:17:05Z</time>
</trkpt>
<trkpt lat="49.52261" lon="10.172816">
<ele>376.444</ele>
<time>2019-05-30T15:17:06Z</time>
</trkpt>
<trkpt lat="49.522614" lon="10.172898">
<ele>376.444</ele>
<time>2019-05-30T15:17:07Z</time>
</trkpt>
<trkpt lat="49.52261" lon="10.172976">
<ele>376.444</ele>
<time>2019-05-30T15:17:08Z</time>
</trkpt>
<trkpt lat="49.522606" lon="10.173054">
<ele>376.444</ele>
<time>2019-05-30T15:17:09Z</time>
</trkpt>
<trkpt lat="49.52261" lon="10.173131">
<ele>376.444</ele>
<time>2019-05-30T15:17:10Z</time>
</trkpt>
<trkpt lat="49.52261" lon="10.173208">
<ele>376.444</ele>
<time>2019-05-30T15:17:11Z</time>
</trkpt>
<trkpt lat="49.522606" lon="10.173284">
<ele>376.444</ele>
<time>2019-05-30T15:17:12Z</time>
</trkpt>
<trkpt lat="49.52261" lon="10.173366">
<ele>376.444</ele>
<time>2019-05-30T15:17:13Z</time>
</trkpt>
<trkpt lat="49.522614" lon="10.173445">
<ele>376.444</ele>
<time>2019-05-30T15:17:14Z</time>
</trkpt>
<trkpt lat="49.522621" lon="10.173527">
<ele>376.194</ele>
<time>2019-05-30T15:17:15Z</time>
</trkpt>
<trkpt lat="49.522621" lon="10.173598">
<ele>375.983</ele>
<time>2019-05-30T15:17:16Z</time>
</trkpt>
<trkpt lat="49.522617" lon="10.173674">
<ele>375.812</ele>
<time>2019-05-30T15:17:17Z</time>
</trkpt>
<trkpt lat="49.522617" lon="10.17375">
<ele>375.675</ele>
<time>2019-05-30T15:17:18Z</time>
</trkpt>
<trkpt lat="49.522621" lon="10.173824">
<ele>375.568</ele>
<time>2019-05-30T15:17:19Z</time>
</trkpt>
<trkpt lat="49.522621" lon="10.1739">
<ele>375.493</ele>
<time>2019-05-30T15:17:20Z</time>
</trkpt>
<trkpt lat="49.522625" lon="10.173975">
<ele>375.445</ele>
<time>2019-05-30T15:17:21Z</time>
</trkpt>
<trkpt lat="49.522629" lon="10.174051">
<ele>375.42</ele>
<time>2019-05-30T15:17:22Z</time>
</trkpt>
<trkpt lat="49.52264" lon="10.174132">
<ele>375.42</ele>
<time>2019-05-30T15:17:23Z</time>
</trkpt>
<trkpt lat="49.52264" lon="10.174208">
<ele>375.42</ele>
<time>2019-05-30T15:17:24Z</time>
</trkpt>
<trkpt lat="49.52264" lon="10.174287">
<ele>375.42</ele>
<time>2019-05-30T15:17:25Z</time>
</trkpt>
<trkpt lat="49.52264" lon="10.174361">
<ele>375.42</ele>
<time>2019-05-30T15:17:26Z</time>
</trkpt>
<trkpt lat="49.522652" lon="10.174435">
<ele>375.42</ele>
<time>2019-05-30T15:17:27Z</time>
</trkpt>
<trkpt lat="49.522671" lon="10.174508">
<ele>375.42</ele>
<time>2019-05-30T15:17:28Z</time>
</trkpt>
<trkpt lat="49.522675" lon="10.174579">
<ele>375.42</ele>
<time>2019-05-30T15:17:29Z</time>
</trkpt>
<trkpt lat="49.522682" lon="10.17465">
<ele>375.42</ele>
<time>2019-05-30T15:17:30Z</time>
</trkpt>
<trkpt lat="49.52269" lon="10.174724">
<ele>375.42</ele>
<time>2019-05-30T15:17:31Z</time>
</trkpt>
<trkpt lat="49.522701" lon="10.1748">
<ele>375.42</ele>
<time>2019-05-30T15:17:32Z</time>
</trkpt>
<trkpt lat="49.522705" lon="10.174878">
<ele>375.648</ele>
<time>2019-05-30T15:17:33Z</time>
</trkpt>
<trkpt lat="49.522717" lon="10.174956">
<ele>375.812</ele>
<time>2019-05-30T15:17:34Z</time>
</trkpt>
<trkpt lat="49.522728" lon="10.175034">
<ele>375.981</ele>
<time>2019-05-30T15:17:35Z</time>
</trkpt>
<trkpt lat="49.522732" lon="10.175107">
<ele>376.115</ele>
<time>2019-05-30T15:17:36Z</time>
</trkpt>
<trkpt lat="49.522732" lon="10.175179">
<ele>376.22</ele>
<time>2019-05-30T15:17:37Z</time>
</trkpt>
<trkpt lat="49.522736" lon="10.175255">
<ele>376.271</ele>
<time>2019-05-30T15:17:38Z</time>
</trkpt>
<trkpt lat="49.522736" lon="10.175328">
<ele>376.027</ele>
<time>2019-05-30T15:17:39Z</time>
</trkpt>
<trkpt lat="49.522736" lon="10.175404">
<ele>376.039</ele>
<time>2019-05-30T15:17:40Z</time>
</trkpt>
<trkpt lat="49.522739" lon="10.175478">
<ele>376.033</ele>
<time>2019-05-30T15:17:41Z</time>
</trkpt>
<trkpt lat="49.522743" lon="10.175553">
<ele>376.032</ele>
<time>2019-05-30T15:17:42Z</time>
</trkpt>
<trkpt lat="49.522755" lon="10.175625">
<ele>376.036</ele>
<time>2019-05-30T15:17:43Z</time>
</trkpt>
<trkpt lat="49.522762" lon="10.175702">
<ele>376.04</ele>
<time>2019-05-30T15:17:44Z</time>
</trkpt>
<trkpt lat="49.52277" lon="10.175778">
<ele>376.049</ele>
<time>2019-05-30T15:17:45Z</time>
</trkpt>
<trkpt lat="49.522778" lon="10.175855">
<ele>376.064</ele>
<time>2019-05-30T15:17:46Z</time>
</trkpt>
<trkpt lat="49.522789" lon="10.175932">
<ele>376.081</ele>
<time>2019-05-30T15:17:47Z</time>
</trkpt>
<trkpt lat="49.5228" lon="10.17601">
<ele>376.103</ele>
<time>2019-05-30T15:17:48Z</time>
</trkpt>
<trkpt lat="49.522804" lon="10.176086">
<ele>376.103</ele>
<time>2019-05-30T15:17:49Z</time>
</trkpt>
<trkpt lat="49.522812" lon="10.176163">
<ele>376.103</ele>
<time>2019-05-30T15:17:50Z</time>
</trkpt>
<trkpt lat="49.522827" lon="10.17624">
<ele>376.103</ele>
<time>2019-05-30T15:17:51Z</time>
</trkpt>
<trkpt lat="49.522846" lon="10.176318">
<ele>376.103</ele>
<time>2019-05-30T15:17:52Z</time>
</trkpt>
<trkpt lat="49.522861" lon="10.176394">
<ele>376.103</ele>
<time>2019-05-30T15:17:53Z</time>
</trkpt>
<trkpt lat="49.522869" lon="10.176469">
<ele>376.103</ele>
<time>2019-05-30T15:17:54Z</time>
</trkpt>
<trkpt lat="49.522881" lon="10.176541">
<ele>376.103</ele>
<time>2019-05-30T15:17:55Z</time>
</trkpt>
<trkpt lat="49.522892" lon="10.176617">
<ele>376.103</ele>
<time>2019-05-30T15:17:56Z</time>
</trkpt>
<trkpt lat="49.5229" lon="10.176692">
<ele>376.103</ele>
<time>2019-05-30T15:17:57Z</time>
</trkpt>
<trkpt lat="49.522915" lon="10.176766">
<ele>376.103</ele>
<time>2019-05-30T15:17:58Z</time>
</trkpt>
<trkpt lat="49.52293" lon="10.176839">
<ele>376.103</ele>
<time>2019-05-30T15:17:59Z</time>
</trkpt>
<trkpt lat="49.522942" lon="10.176908">
<ele>376.103</ele>
<time>2019-05-30T15:18:00Z</time>
</trkpt>
<trkpt lat="49.522957" lon="10.17698">
<ele>376.103</ele>
<time>2019-05-30T15:18:01Z</time>
</trkpt>
<trkpt lat="49.522964" lon="10.177049">
<ele>376.103</ele>
<time>2019-05-30T15:18:02Z</time>
</trkpt>
<trkpt lat="49.522984" lon="10.177122">
<ele>376.329</ele>
<time>2019-05-30T15:18:03Z</time>
</trkpt>
<trkpt lat="49.522999" lon="10.177196">
<ele>376.49</ele>
<time>2019-05-30T15:18:04Z</time>
</trkpt>
<trkpt lat="49.52301" lon="10.177267">
<ele>376.657</ele>
<time>2019-05-30T15:18:05Z</time>
</trkpt>
<trkpt lat="49.523026" lon="10.177337">
<ele>376.792</ele>
<time>2019-05-30T15:18:06Z</time>
</trkpt>
<trkpt lat="49.523029" lon="10.177405">
<ele>376.897</ele>
<time>2019-05-30T15:18:07Z</time>
</trkpt>
<trkpt lat="49.523045" lon="10.177477">
<ele>376.963</ele>
<time>2019-05-30T15:18:08Z</time>
</trkpt>
<trkpt lat="49.523064" lon="10.177549">
<ele>377.265</ele>
<time>2019-05-30T15:18:09Z</time>
</trkpt>
<trkpt lat="49.523079" lon="10.17762">
<ele>377.5</ele>
<time>2019-05-30T15:18:10Z</time>
</trkpt>
<trkpt lat="49.523094" lon="10.177691">
<ele>377.704</ele>
<time>2019-05-30T15:18:11Z</time>
</trkpt>
<trkpt lat="49.523109" lon="10.177763">
<ele>377.829</ele>
<time>2019-05-30T15:18:12Z</time>
</trkpt>
<trkpt lat="49.523113" lon="10.17783">
<ele>377.917</ele>
<time>2019-05-30T15:18:13Z</time>
</trkpt>
<trkpt lat="49.523129" lon="10.177899">
<ele>377.982</ele>
<time>2019-05-30T15:18:14Z</time>
</trkpt>
<trkpt lat="49.523148" lon="10.17797">
<ele>378.04</ele>
<time>2019-05-30T15:18:15Z</time>
</trkpt>
<trkpt lat="49.523167" lon="10.178038">
<ele>378.066</ele>
<time>2019-05-30T15:18:16Z</time>
</trkpt>
<trkpt lat="49.52319" lon="10.178106">
<ele>378.066</ele>
<time>2019-05-30T15:18:17Z</time>
</trkpt>
<trkpt lat="49.523201" lon="10.178175">
<ele>378.066</ele>
<time>2019-05-30T15:18:18Z</time>
</trkpt>
<trkpt lat="49.523224" lon="10.178244">
<ele>378.066</ele>
<time>2019-05-30T15:18:19Z</time>
</trkpt>
<trkpt lat="49.523247" lon="10.178314">
<ele>378.315</ele>
<time>2019-05-30T15:18:20Z</time>
</trkpt>
<trkpt lat="49.523262" lon="10.178382">
<ele>378.511</ele>
<time>2019-05-30T15:18:21Z</time>
</trkpt>
<trkpt lat="49.523289" lon="10.178452">
<ele>378.657</ele>
<time>2019-05-30T15:18:22Z</time>
</trkpt>
<trkpt lat="49.523304" lon="10.17852">
<ele>378.769</ele>
<time>2019-05-30T15:18:23Z</time>
</trkpt>
<trkpt lat="49.523323" lon="10.178585">
<ele>378.849</ele>
<time>2019-05-30T15:18:24Z</time>
</trkpt>
<trkpt lat="49.523342" lon="10.17865">
<ele>378.929</ele>
<time>2019-05-30T15:18:25Z</time>
</trkpt>
<trkpt lat="49.523357" lon="10.178713">
<ele>378.979</ele>
<time>2019-05-30T15:18:26Z</time>
</trkpt>
<trkpt lat="49.523376" lon="10.178777">
<ele>379.207</ele>
<time>2019-05-30T15:18:27Z</time>
</trkpt>
<trkpt lat="49.523388" lon="10.178838">
<ele>379.436</ele>
<time>2019-05-30T15:18:28Z</time>
</trkpt>
<trkpt lat="49.523407" lon="10.178899">
<ele>379.582</ele>
<time>2019-05-30T15:18:29Z</time>
</trkpt>
<trkpt lat="49.523422" lon="10.178957">
<ele>379.69</ele>
<time>2019-05-30T15:18:30Z</time>
</trkpt>
<trkpt lat="49.523445" lon="10.179015">
<ele>379.767</ele>
<time>2019-05-30T15:18:31Z</time>
</trkpt>
<trkpt lat="49.523468" lon="10.179071">
<ele>379.811</ele>
<time>2019-05-30T15:18:32Z</time>
</trkpt>
<trkpt lat="49.523487" lon="10.179121">
<ele>379.838</ele>
<time>2019-05-30T15:18:33Z</time>
</trkpt>
<trkpt lat="49.523514" lon="10.17917">
<ele>379.858</ele>
<time>2019-05-30T15:18:34Z</time>
</trkpt>
<trkpt lat="49.523533" lon="10.179223">
<ele>379.859</ele>
<time>2019-05-30T15:18:35Z</time>
</trkpt>
<trkpt lat="49.523552" lon="10.179276">
<ele>379.858</ele>
<time>2019-05-30T15:18:36Z</time>
</trkpt>
<trkpt lat="49.523582" lon="10.179335">
<ele>379.858</ele>
<time>2019-05-30T15:18:37Z</time>
</trkpt>
<trkpt lat="49.523609" lon="10.179393">
<ele>379.858</ele>
<time>2019-05-30T15:18:38Z</time>
</trkpt>
<trkpt lat="49.523632" lon="10.179452">
<ele>379.858</ele>
<time>2019-05-30T15:18:39Z</time>
</trkpt>
<trkpt lat="49.523663" lon="10.17951">
<ele>379.858</ele>
<time>2019-05-30T15:18:40Z</time>
</trkpt>
<trkpt lat="49.523689" lon="10.179568">
<ele>379.859</ele>
<time>2019-05-30T15:18:41Z</time>
</trkpt>
<trkpt lat="49.523724" lon="10.179628">
<ele>379.858</ele>
<time>2019-05-30T15:18:42Z</time>
</trkpt>
<trkpt lat="49.52375" lon="10.17969">
<ele>379.858</ele>
<time>2019-05-30T15:18:43Z</time>
</trkpt>
<trkpt lat="49.523785" lon="10.179749">
<ele>379.664</ele>
<time>2019-05-30T15:18:44Z</time>
</trkpt>
<trkpt lat="49.523823" lon="10.179809">
<ele>379.482</ele>
<time>2019-05-30T15:18:45Z</time>
</trkpt>
<trkpt lat="49.523861" lon="10.179869">
<ele>379.332</ele>
<time>2019-05-30T15:18:46Z</time>
</trkpt>
<trkpt lat="49.523899" lon="10.17993">
<ele>379.215</ele>
<time>2019-05-30T15:18:47Z</time>
</trkpt>
<trkpt lat="49.523941" lon="10.179992">
<ele>379.127</ele>
<time>2019-05-30T15:18:48Z</time>
</trkpt>
<trkpt lat="49.523979" lon="10.180054">
<ele>379.073</ele>
<time>2019-05-30T15:18:49Z</time>
</trkpt>
<trkpt lat="49.524025" lon="10.180115">
<ele>378.768</ele>
<time>2019-05-30T15:18:50Z</time>
</trkpt>
<trkpt lat="49.524071" lon="10.180179">
<ele>378.533</ele>
<time>2019-05-30T15:18:51Z</time>
</trkpt>
<trkpt lat="49.524113" lon="10.180243">
<ele>378.383</ele>
<time>2019-05-30T15:18:52Z</time>
</trkpt>
<trkpt lat="49.524166" lon="10.180308">
<ele>378.011</ele>
<time>2019-05-30T15:18:53Z</time>
</trkpt>
<trkpt lat="49.524212" lon="10.180375">
<ele>377.744</ele>
<time>2019-05-30T15:18:54Z</time>
</trkpt>
<trkpt lat="49.524265" lon="10.180445">
<ele>377.502</ele>
<time>2019-05-30T15:18:55Z</time>
</trkpt>
<trkpt lat="49.524315" lon="10.180514">
<ele>377.052</ele>
<time>2019-05-30T15:18:56Z</time>
</trkpt>
<trkpt lat="49.524368" lon="10.180583">
<ele>376.71</ele>
<time>2019-05-30T15:18:57Z</time>
</trkpt>
<trkpt lat="49.524426" lon="10.180648">
<ele>376.507</ele>
<time>2019-05-30T15:18:58Z</time>
</trkpt>
<trkpt lat="49.524483" lon="10.180716">
<ele>376.093</ele>
<time>2019-05-30T15:18:59Z</time>
</trkpt>
<trkpt lat="49.52454" lon="10.180782">
<ele>375.82</ele>
<time>2019-05-30T15:19:00Z</time>
</trkpt>
<trkpt lat="49.524601" lon="10.18085">
<ele>375.21</ele>
<time>2019-05-30T15:19:01Z</time>
</trkpt>
<trkpt lat="49.524666" lon="10.180922">
<ele>374.854</ele>
<time>2019-05-30T15:19:02Z</time>
</trkpt>
<trkpt lat="49.524734" lon="10.180996">
<ele>374.596</ele>
<time>2019-05-30T15:19:03Z</time>
</trkpt>
<trkpt lat="49.524803" lon="10.181071">
<ele>374.422</ele>
<time>2019-05-30T15:19:04Z</time>
</trkpt>
<trkpt lat="49.524876" lon="10.181145">
<ele>373.997</ele>
<time>2019-05-30T15:19:05Z</time>
</trkpt>
<trkpt lat="49.524952" lon="10.181222">
<ele>373.378</ele>
<time>2019-05-30T15:19:06Z</time>
</trkpt>
<trkpt lat="49.525024" lon="10.181298">
<ele>372.979</ele>
<time>2019-05-30T15:19:07Z</time>
</trkpt>
<trkpt lat="49.525105" lon="10.181374">
<ele>372.369</ele>
<time>2019-05-30T15:19:08Z</time>
</trkpt>
<trkpt lat="49.525181" lon="10.181452">
<ele>371.972</ele>
<time>2019-05-30T15:19:09Z</time>
</trkpt>
<trkpt lat="49.525265" lon="10.18153">
<ele>371.34</ele>
<time>2019-05-30T15:19:10Z</time>
</trkpt>
<trkpt lat="49.525345" lon="10.181614">
<ele>370.912</ele>
<time>2019-05-30T15:19:11Z</time>
</trkpt>
<trkpt lat="49.525421" lon="10.181696">
<ele>370.305</ele>
<time>2019-05-30T15:19:12Z</time>
</trkpt>
<trkpt lat="49.525501" lon="10.181786">
<ele>369.915</ele>
<time>2019-05-30T15:19:13Z</time>
</trkpt>
<trkpt lat="49.525578" lon="10.181875">
<ele>369.386</ele>
<time>2019-05-30T15:19:14Z</time>
</trkpt>
<trkpt lat="49.525654" lon="10.181969">
<ele>368.966</ele>
<time>2019-05-30T15:19:15Z</time>
</trkpt>
<trkpt lat="49.525723" lon="10.182062">
<ele>368.427</ele>
<time>2019-05-30T15:19:16Z</time>
</trkpt>
<trkpt lat="49.525791" lon="10.182153">
<ele>368.021</ele>
<time>2019-05-30T15:19:17Z</time>
</trkpt>
<trkpt lat="49.52586" lon="10.182247">
<ele>367.728</ele>
<time>2019-05-30T15:19:18Z</time>
</trkpt>
<trkpt lat="49.525928" lon="10.182342">
<ele>367.547</ele>
<time>2019-05-30T15:19:19Z</time>
</trkpt>
<trkpt lat="49.525997" lon="10.182437">
<ele>367.172</ele>
<time>2019-05-30T15:19:20Z</time>
</trkpt>
<trkpt lat="49.526062" lon="10.182531">
<ele>366.886</ele>
<time>2019-05-30T15:19:21Z</time>
</trkpt>
<trkpt lat="49.526127" lon="10.182627">
<ele>366.675</ele>
<time>2019-05-30T15:19:22Z</time>
</trkpt>
<trkpt lat="49.526192" lon="10.182727">
<ele>366.322</ele>
<time>2019-05-30T15:19:23Z</time>
</trkpt>
<trkpt lat="49.526257" lon="10.182827">
<ele>366.059</ele>
<time>2019-05-30T15:19:24Z</time>
</trkpt>
<trkpt lat="49.526321" lon="10.18293">
<ele>365.823</ele>
<time>2019-05-30T15:19:25Z</time>
</trkpt>
<trkpt lat="49.526382" lon="10.183032">
<ele>365.426</ele>
<time>2019-05-30T15:19:26Z</time>
</trkpt>
<trkpt lat="49.52644" lon="10.183135">
<ele>365.122</ele>
<time>2019-05-30T15:19:27Z</time>
</trkpt>
<trkpt lat="49.526493" lon="10.18324">
<ele>364.904</ele>
<time>2019-05-30T15:19:28Z</time>
</trkpt>
<trkpt lat="49.526546" lon="10.183349">
<ele>364.766</ele>
<time>2019-05-30T15:19:29Z</time>
</trkpt>
<trkpt lat="49.526596" lon="10.183458">
<ele>364.396</ele>
<time>2019-05-30T15:19:30Z</time>
</trkpt>
<trkpt lat="49.526649" lon="10.183569">
<ele>364.051</ele>
<time>2019-05-30T15:19:31Z</time>
</trkpt>
<trkpt lat="49.526695" lon="10.18368">
<ele>363.863</ele>
<time>2019-05-30T15:19:32Z</time>
</trkpt>
<trkpt lat="49.526745" lon="10.183793">
<ele>363.737</ele>
<time>2019-05-30T15:19:33Z</time>
</trkpt>
<trkpt lat="49.526783" lon="10.183908">
<ele>363.65</ele>
<time>2019-05-30T15:19:34Z</time>
</trkpt>
<trkpt lat="49.526825" lon="10.184023">
<ele>363.274</ele>
<time>2019-05-30T15:19:35Z</time>
</trkpt>
<trkpt lat="49.526863" lon="10.18414">
<ele>362.975</ele>
<time>2019-05-30T15:19:36Z</time>
</trkpt>
<trkpt lat="49.526897" lon="10.184257">
<ele>362.748</ele>
<time>2019-05-30T15:19:37Z</time>
</trkpt>
<trkpt lat="49.526932" lon="10.184373">
<ele>362.588</ele>
<time>2019-05-30T15:19:38Z</time>
</trkpt>
<trkpt lat="49.526966" lon="10.18449">
<ele>362.464</ele>
<time>2019-05-30T15:19:39Z</time>
</trkpt>
<trkpt lat="49.527004" lon="10.184602">
<ele>362.373</ele>
<time>2019-05-30T15:19:40Z</time>
</trkpt>
<trkpt lat="49.527039" lon="10.184713">
<ele>362.314</ele>
<time>2019-05-30T15:19:41Z</time>
</trkpt>
<trkpt lat="49.527073" lon="10.184822">
<ele>362.458</ele>
<time>2019-05-30T15:19:42Z</time>
</trkpt>
<trkpt lat="49.527107" lon="10.184928">
<ele>362.49</ele>
<time>2019-05-30T15:19:43Z</time>
</trkpt>
<trkpt lat="49.527142" lon="10.185031">
<ele>362.637</ele>
<time>2019-05-30T15:19:44Z</time>
</trkpt>
<trkpt lat="49.527172" lon="10.185136">
<ele>362.787</ele>
<time>2019-05-30T15:19:45Z</time>
</trkpt>
<trkpt lat="49.527203" lon="10.185237">
<ele>362.908</ele>
<time>2019-05-30T15:19:46Z</time>
</trkpt>
<trkpt lat="49.527237" lon="10.185337">
<ele>362.992</ele>
<time>2019-05-30T15:19:47Z</time>
</trkpt>
<trkpt lat="49.527264" lon="10.185431">
<ele>363.308</ele>
<time>2019-05-30T15:19:48Z</time>
</trkpt>
<trkpt lat="49.527287" lon="10.185521">
<ele>363.56</ele>
<time>2019-05-30T15:19:49Z</time>
</trkpt>
<trkpt lat="49.527317" lon="10.185607">
<ele>363.725</ele>
<time>2019-05-30T15:19:50Z</time>
</trkpt>
<trkpt lat="49.527344" lon="10.18569">
<ele>364.166</ele>
<time>2019-05-30T15:19:51Z</time>
</trkpt>
<trkpt lat="49.52737" lon="10.18577">
<ele>364.464</ele>
<time>2019-05-30T15:19:52Z</time>
</trkpt>
<trkpt lat="49.527397" lon="10.18585">
<ele>364.652</ele>
<time>2019-05-30T15:19:53Z</time>
</trkpt>
<trkpt lat="49.527431" lon="10.185926">
<ele>365.055</ele>
<time>2019-05-30T15:19:54Z</time>
</trkpt>
<trkpt lat="49.527458" lon="10.186002">
<ele>365.4</ele>
<time>2019-05-30T15:19:55Z</time>
</trkpt>
<trkpt lat="49.527485" lon="10.186076">
<ele>365.655</ele>
<time>2019-05-30T15:19:56Z</time>
</trkpt>
<trkpt lat="49.527512" lon="10.186152">
<ele>365.846</ele>
<time>2019-05-30T15:19:57Z</time>
</trkpt>
<trkpt lat="49.527538" lon="10.186228">
<ele>365.976</ele>
<time>2019-05-30T15:19:58Z</time>
</trkpt>
<trkpt lat="49.527569" lon="10.186303">
<ele>366.041</ele>
<time>2019-05-30T15:19:59Z</time>
</trkpt>
<trkpt lat="49.527596" lon="10.186378">
<ele>366.302</ele>
<time>2019-05-30T15:20:00Z</time>
</trkpt>
<trkpt lat="49.527626" lon="10.186454">
<ele>366.501</ele>
<time>2019-05-30T15:20:01Z</time>
</trkpt>
<trkpt lat="49.527657" lon="10.186527">
<ele>366.658</ele>
<time>2019-05-30T15:20:02Z</time>
</trkpt>
<trkpt lat="49.527687" lon="10.186598">
<ele>366.762</ele>
<time>2019-05-30T15:20:03Z</time>
</trkpt>
<trkpt lat="49.527718" lon="10.186668">
<ele>366.833</ele>
<time>2019-05-30T15:20:04Z</time>
</trkpt>
<trkpt lat="49.527744" lon="10.186738">
<ele>366.905</ele>
<time>2019-05-30T15:20:05Z</time>
</trkpt>
<trkpt lat="49.527771" lon="10.186808">
<ele>366.952</ele>
<time>2019-05-30T15:20:06Z</time>
</trkpt>
<trkpt lat="49.527802" lon="10.186876">
<ele>366.975</ele>
<time>2019-05-30T15:20:07Z</time>
</trkpt>
<trkpt lat="49.527832" lon="10.186946">
<ele>366.975</ele>
<time>2019-05-30T15:20:08Z</time>
</trkpt>
<trkpt lat="49.527859" lon="10.187016">
<ele>366.975</ele>
<time>2019-05-30T15:20:09Z</time>
</trkpt>
<trkpt lat="49.527893" lon="10.187083">
<ele>366.975</ele>
<time>2019-05-30T15:20:10Z</time>
</trkpt>
<trkpt lat="49.527927" lon="10.187154">
<ele>366.975</ele>
<time>2019-05-30T15:20:11Z</time>
</trkpt>
<trkpt lat="49.527962" lon="10.187224">
<ele>366.975</ele>
<time>2019-05-30T15:20:12Z</time>
</trkpt>
<trkpt lat="49.527996" lon="10.187298">
<ele>366.764</ele>
<time>2019-05-30T15:20:13Z</time>
</trkpt>
<trkpt lat="49.528027" lon="10.187371">
<ele>366.615</ele>
<time>2019-05-30T15:20:14Z</time>
</trkpt>
<trkpt lat="49.528065" lon="10.18744">
<ele>366.462</ele>
<time>2019-05-30T15:20:15Z</time>
</trkpt>
<trkpt lat="49.528103" lon="10.187508">
<ele>366.342</ele>
<time>2019-05-30T15:20:16Z</time>
</trkpt>
<trkpt lat="49.528137" lon="10.187581">
<ele>366.249</ele>
<time>2019-05-30T15:20:17Z</time>
</trkpt>
<trkpt lat="49.528168" lon="10.187654">
<ele>366.184</ele>
<time>2019-05-30T15:20:18Z</time>
</trkpt>
<trkpt lat="49.528206" lon="10.187728">
<ele>366.142</ele>
<time>2019-05-30T15:20:19Z</time>
</trkpt>
<trkpt lat="49.52824" lon="10.187801">
<ele>366.122</ele>
<time>2019-05-30T15:20:20Z</time>
</trkpt>
<trkpt lat="49.528278" lon="10.187877">
<ele>366.122</ele>
<time>2019-05-30T15:20:21Z</time>
</trkpt>
<trkpt lat="49.528313" lon="10.187952">
<ele>366.122</ele>
<time>2019-05-30T15:20:22Z</time>
</trkpt>
<trkpt lat="49.528347" lon="10.188026">
<ele>366.122</ele>
<time>2019-05-30T15:20:23Z</time>
</trkpt>
<trkpt lat="49.528389" lon="10.188102">
<ele>366.122</ele>
<time>2019-05-30T15:20:24Z</time>
</trkpt>
<trkpt lat="49.528427" lon="10.18818">
<ele>365.89</ele>
<time>2019-05-30T15:20:25Z</time>
</trkpt>
<trkpt lat="49.528465" lon="10.188258">
<ele>365.697</ele>
<time>2019-05-30T15:20:26Z</time>
</trkpt>
<trkpt lat="49.528503" lon="10.188337">
<ele>365.54</ele>
<time>2019-05-30T15:20:27Z</time>
</trkpt>
<trkpt lat="49.528538" lon="10.188415">
<ele>365.415</ele>
<time>2019-05-30T15:20:28Z</time>
</trkpt>
<trkpt lat="49.528576" lon="10.188494">
<ele>365.319</ele>
<time>2019-05-30T15:20:29Z</time>
</trkpt>
<trkpt lat="49.528618" lon="10.188574">
<ele>365.25</ele>
<time>2019-05-30T15:20:30Z</time>
</trkpt>
<trkpt lat="49.528652" lon="10.188655">
<ele>365.205</ele>
<time>2019-05-30T15:20:31Z</time>
</trkpt>
<trkpt lat="49.528694" lon="10.188737">
<ele>365.184</ele>
<time>2019-05-30T15:20:32Z</time>
</trkpt>
<trkpt lat="49.528732" lon="10.188815">
<ele>364.913</ele>
<time>2019-05-30T15:20:33Z</time>
</trkpt>
<trkpt lat="49.528767" lon="10.188895">
<ele>364.72</ele>
<time>2019-05-30T15:20:34Z</time>
</trkpt>
<trkpt lat="49.528801" lon="10.188973">
<ele>364.524</ele>
<time>2019-05-30T15:20:35Z</time>
</trkpt>
<trkpt lat="49.528831" lon="10.189054">
<ele>364.367</ele>
<time>2019-05-30T15:20:36Z</time>
</trkpt>
<trkpt lat="49.52887" lon="10.189134">
<ele>364.247</ele>
<time>2019-05-30T15:20:37Z</time>
</trkpt>
<trkpt lat="49.528904" lon="10.189215">
<ele>364.16</ele>
<time>2019-05-30T15:20:38Z</time>
</trkpt>
<trkpt lat="49.528934" lon="10.189299">
<ele>364.103</ele>
<time>2019-05-30T15:20:39Z</time>
</trkpt>
<trkpt lat="49.528965" lon="10.189382">
<ele>364.076</ele>
<time>2019-05-30T15:20:40Z</time>
</trkpt>
<trkpt lat="49.528996" lon="10.18946">
<ele>364.076</ele>
<time>2019-05-30T15:20:41Z</time>
</trkpt>
<trkpt lat="49.529022" lon="10.189537">
<ele>364.076</ele>
<time>2019-05-30T15:20:42Z</time>
</trkpt>
<trkpt lat="49.529045" lon="10.189611">
<ele>364.076</ele>
<time>2019-05-30T15:20:43Z</time>
</trkpt>
<trkpt lat="49.529072" lon="10.189684">
<ele>364.076</ele>
<time>2019-05-30T15:20:44Z</time>
</trkpt>
<trkpt lat="49.529106" lon="10.189762">
<ele>364.076</ele>
<time>2019-05-30T15:20:45Z</time>
</trkpt>
<trkpt lat="49.529148" lon="10.189845">
<ele>364.076</ele>
<time>2019-05-30T15:20:46Z</time>
</trkpt>
<trkpt lat="49.529182" lon="10.189939">
<ele>364.076</ele>
<time>2019-05-30T15:20:47Z</time>
</trkpt>
<trkpt lat="49.529224" lon="10.190028">
<ele>364.076</ele>
<time>2019-05-30T15:20:48Z</time>
</trkpt>
<trkpt lat="49.529255" lon="10.1901">
<ele>364.076</ele>
<time>2019-05-30T15:20:49Z</time>
</trkpt>
<trkpt lat="49.52927" lon="10.190179">
<ele>364.076</ele>
<time>2019-05-30T15:20:50Z</time>
</trkpt>
<trkpt lat="49.529293" lon="10.190252">
<ele>364.076</ele>
<time>2019-05-30T15:20:51Z</time>
</trkpt>
<trkpt lat="49.529324" lon="10.190317">
<ele>364.076</ele>
<time>2019-05-30T15:20:52Z</time>
</trkpt>
<trkpt lat="49.529335" lon="10.190396">
<ele>364.331</ele>
<time>2019-05-30T15:20:53Z</time>
</trkpt>
<trkpt lat="49.52935" lon="10.190475">
<ele>364.515</ele>
<time>2019-05-30T15:20:54Z</time>
</trkpt>
<trkpt lat="49.529373" lon="10.190547">
<ele>364.707</ele>
<time>2019-05-30T15:20:55Z</time>
</trkpt>
<trkpt lat="49.529396" lon="10.190615">
<ele>364.872</ele>
<time>2019-05-30T15:20:56Z</time>
</trkpt>
<trkpt lat="49.529415" lon="10.190686">
<ele>365.011</ele>
<time>2019-05-30T15:20:57Z</time>
</trkpt>
<trkpt lat="49.52943" lon="10.19076">
<ele>365.089</ele>
<time>2019-05-30T15:20:58Z</time>
</trkpt>
<trkpt lat="49.529449" lon="10.19083">
<ele>365.379</ele>
<time>2019-05-30T15:20:59Z</time>
</trkpt>
<trkpt lat="49.529476" lon="10.190886">
<ele>365.598</ele>
<time>2019-05-30T15:21:00Z</time>
</trkpt>
<trkpt lat="49.529507" lon="10.19094">
<ele>365.785</ele>
<time>2019-05-30T15:21:01Z</time>
</trkpt>
<trkpt lat="49.52953" lon="10.190996">
<ele>365.898</ele>
<time>2019-05-30T15:21:02Z</time>
</trkpt>
<trkpt lat="49.529556" lon="10.191054">
<ele>365.979</ele>
<time>2019-05-30T15:21:03Z</time>
</trkpt>
<trkpt lat="49.529587" lon="10.191112">
<ele>366.041</ele>
<time>2019-05-30T15:21:04Z</time>
</trkpt>
<trkpt lat="49.529621" lon="10.191172">
<ele>366.323</ele>
<time>2019-05-30T15:21:05Z</time>
</trkpt>
<trkpt lat="49.529648" lon="10.191235">
<ele>366.541</ele>
<time>2019-05-30T15:21:06Z</time>
</trkpt>
<trkpt lat="49.529667" lon="10.191298">
<ele>366.701</ele>
<time>2019-05-30T15:21:07Z</time>
</trkpt>
<trkpt lat="49.529694" lon="10.191357">
<ele>366.83</ele>
<time>2019-05-30T15:21:08Z</time>
</trkpt>
<trkpt lat="49.529713" lon="10.191415">
<ele>366.926</ele>
<time>2019-05-30T15:21:09Z</time>
</trkpt>
<trkpt lat="49.529739" lon="10.191475">
<ele>366.996</ele>
<time>2019-05-30T15:21:10Z</time>
</trkpt>
<trkpt lat="49.529762" lon="10.191534">
<ele>367.039</ele>
<time>2019-05-30T15:21:11Z</time>
</trkpt>
<trkpt lat="49.529793" lon="10.191593">
<ele>367.06</ele>
<time>2019-05-30T15:21:12Z</time>
</trkpt>
<trkpt lat="49.529819" lon="10.191655">
<ele>367.06</ele>
<time>2019-05-30T15:21:13Z</time>
</trkpt>
<trkpt lat="49.529854" lon="10.191718">
<ele>367.27</ele>
<time>2019-05-30T15:21:14Z</time>
</trkpt>
<trkpt lat="49.529881" lon="10.19178">
<ele>367.472</ele>
<time>2019-05-30T15:21:15Z</time>
</trkpt>
<trkpt lat="49.529915" lon="10.191838">
<ele>367.636</ele>
<time>2019-05-30T15:21:16Z</time>
</trkpt>
<trkpt lat="49.529942" lon="10.191898">
<ele>367.747</ele>
<time>2019-05-30T15:21:17Z</time>
</trkpt>
<trkpt lat="49.529964" lon="10.191959">
<ele>368.081</ele>
<time>2019-05-30T15:21:18Z</time>
</trkpt>
<trkpt lat="49.529991" lon="10.192022">
<ele>368.348</ele>
<time>2019-05-30T15:21:19Z</time>
</trkpt>
<trkpt lat="49.530018" lon="10.192081">
<ele>368.547</ele>
<time>2019-05-30T15:21:20Z</time>
</trkpt>
<trkpt lat="49.530041" lon="10.192146">
<ele>368.696</ele>
<time>2019-05-30T15:21:21Z</time>
</trkpt>
<trkpt lat="49.530071" lon="10.192211">
<ele>368.814</ele>
<time>2019-05-30T15:21:22Z</time>
</trkpt>
<trkpt lat="49.530094" lon="10.19228">
<ele>368.867</ele>
<time>2019-05-30T15:21:23Z</time>
</trkpt>
<trkpt lat="49.530117" lon="10.192343">
<ele>368.909</ele>
<time>2019-05-30T15:21:24Z</time>
</trkpt>
<trkpt lat="49.530136" lon="10.192409">
<ele>368.936</ele>
<time>2019-05-30T15:21:25Z</time>
</trkpt>
<trkpt lat="49.530167" lon="10.192471">
<ele>368.936</ele>
<time>2019-05-30T15:21:26Z</time>
</trkpt>
<trkpt lat="49.530193" lon="10.192533">
<ele>368.936</ele>
<time>2019-05-30T15:21:27Z</time>
</trkpt>
<trkpt lat="49.53022" lon="10.192598">
<ele>368.936</ele>
<time>2019-05-30T15:21:28Z</time>
</trkpt>
<trkpt lat="49.530239" lon="10.192663">
<ele>368.936</ele>
<time>2019-05-30T15:21:29Z</time>
</trkpt>
<trkpt lat="49.530266" lon="10.192726">
<ele>369.183</ele>
<time>2019-05-30T15:21:30Z</time>
</trkpt>
<trkpt lat="49.530296" lon="10.192783">
<ele>369.378</ele>
<time>2019-05-30T15:21:31Z</time>
</trkpt>
<trkpt lat="49.530323" lon="10.192843">
<ele>369.529</ele>
<time>2019-05-30T15:21:32Z</time>
</trkpt>
<trkpt lat="49.530354" lon="10.192904">
<ele>369.64</ele>
<time>2019-05-30T15:21:33Z</time>
</trkpt>
<trkpt lat="49.53038" lon="10.192973">
<ele>369.717</ele>
<time>2019-05-30T15:21:34Z</time>
</trkpt>
<trkpt lat="49.530403" lon="10.193045">
<ele>369.797</ele>
<time>2019-05-30T15:21:35Z</time>
</trkpt>
<trkpt lat="49.53043" lon="10.193115">
<ele>369.849</ele>
<time>2019-05-30T15:21:36Z</time>
</trkpt>
<trkpt lat="49.530453" lon="10.193185">
<ele>369.874</ele>
<time>2019-05-30T15:21:37Z</time>
</trkpt>
<trkpt lat="49.530472" lon="10.193254">
<ele>369.874</ele>
<time>2019-05-30T15:21:38Z</time>
</trkpt>
<trkpt lat="49.530495" lon="10.193319">
<ele>369.874</ele>
<time>2019-05-30T15:21:39Z</time>
</trkpt>
<trkpt lat="49.530525" lon="10.193386">
<ele>369.874</ele>
<time>2019-05-30T15:21:40Z</time>
</trkpt>
<trkpt lat="49.530544" lon="10.193452">
<ele>370.091</ele>
<time>2019-05-30T15:21:41Z</time>
</trkpt>
<trkpt lat="49.530563" lon="10.193517">
<ele>370.261</ele>
<time>2019-05-30T15:21:42Z</time>
</trkpt>
<trkpt lat="49.53059" lon="10.193582">
<ele>370.394</ele>
<time>2019-05-30T15:21:43Z</time>
</trkpt>
<trkpt lat="49.530613" lon="10.193644">
<ele>370.487</ele>
<time>2019-05-30T15:21:44Z</time>
</trkpt>
<trkpt lat="49.530636" lon="10.193707">
<ele>370.587</ele>
<time>2019-05-30T15:21:45Z</time>
</trkpt>
<trkpt lat="49.530659" lon="10.193769">
<ele>370.659</ele>
<time>2019-05-30T15:21:46Z</time>
</trkpt>
<trkpt lat="49.530682" lon="10.193833">
<ele>370.705</ele>
<time>2019-05-30T15:21:47Z</time>
</trkpt>
<trkpt lat="49.530701" lon="10.193897">
<ele>370.727</ele>
<time>2019-05-30T15:21:48Z</time>
</trkpt>
<trkpt lat="49.530724" lon="10.193962">
<ele>370.727</ele>
<time>2019-05-30T15:21:49Z</time>
</trkpt>
<trkpt lat="49.530746" lon="10.194025">
<ele>370.727</ele>
<time>2019-05-30T15:21:50Z</time>
</trkpt>
<trkpt lat="49.530773" lon="10.19409">
<ele>370.727</ele>
<time>2019-05-30T15:21:51Z</time>
</trkpt>
<trkpt lat="49.530792" lon="10.194153">
<ele>370.727</ele>
<time>2019-05-30T15:21:52Z</time>
</trkpt>
<trkpt lat="49.530819" lon="10.194221">
<ele>370.727</ele>
<time>2019-05-30T15:21:53Z</time>
</trkpt>
<trkpt lat="49.530846" lon="10.194285">
<ele>370.727</ele>
<time>2019-05-30T15:21:54Z</time>
</trkpt>
<trkpt lat="49.530869" lon="10.19435">
<ele>370.727</ele>
<time>2019-05-30T15:21:55Z</time>
</trkpt>
<trkpt lat="49.530895" lon="10.194413">
<ele>370.727</ele>
<time>2019-05-30T15:21:56Z</time>
</trkpt>
<trkpt lat="49.530918" lon="10.194478">
<ele>370.999</ele>
<time>2019-05-30T15:21:57Z</time>
</trkpt>
<trkpt lat="49.530945" lon="10.194543">
<ele>371.21</ele>
<time>2019-05-30T15:21:58Z</time>
</trkpt>
<trkpt lat="49.530968" lon="10.194607">
<ele>371.367</ele>
<time>2019-05-30T15:21:59Z</time>
</trkpt>
<trkpt lat="49.530991" lon="10.194671">
<ele>371.485</ele>
<time>2019-05-30T15:22:00Z</time>
</trkpt>
<trkpt lat="49.531017" lon="10.194734">
<ele>371.568</ele>
<time>2019-05-30T15:22:01Z</time>
</trkpt>
<trkpt lat="49.53104" lon="10.194798">
<ele>371.619</ele>
<time>2019-05-30T15:22:02Z</time>
</trkpt>
<trkpt lat="49.531063" lon="10.194861">
<ele>371.643</ele>
<time>2019-05-30T15:22:03Z</time>
</trkpt>
<trkpt lat="49.531082" lon="10.194924">
<ele>371.665</ele>
<time>2019-05-30T15:22:04Z</time>
</trkpt>
<trkpt lat="49.531105" lon="10.194989">
<ele>371.666</ele>
<time>2019-05-30T15:22:05Z</time>
</trkpt>
<trkpt lat="49.531124" lon="10.195054">
<ele>371.665</ele>
<time>2019-05-30T15:22:06Z</time>
</trkpt>
<trkpt lat="49.531147" lon="10.195119">
<ele>371.666</ele>
<time>2019-05-30T15:22:07Z</time>
</trkpt>
<trkpt lat="49.531166" lon="10.195184">
<ele>371.666</ele>
<time>2019-05-30T15:22:08Z</time>
</trkpt>
<trkpt lat="49.531185" lon="10.195251">
<ele>371.666</ele>
<time>2019-05-30T15:22:09Z</time>
</trkpt>
<trkpt lat="49.531208" lon="10.195313">
<ele>371.665</ele>
<time>2019-05-30T15:22:10Z</time>
</trkpt>
<trkpt lat="49.531227" lon="10.195374">
<ele>371.666</ele>
<time>2019-05-30T15:22:11Z</time>
</trkpt>
<trkpt lat="49.531246" lon="10.195438">
<ele>371.666</ele>
<time>2019-05-30T15:22:12Z</time>
</trkpt>
<trkpt lat="49.531269" lon="10.195502">
<ele>371.666</ele>
<time>2019-05-30T15:22:13Z</time>
</trkpt>
<trkpt lat="49.531281" lon="10.195567">
<ele>371.665</ele>
<time>2019-05-30T15:22:14Z</time>
</trkpt>
<trkpt lat="49.531303" lon="10.195632">
<ele>371.665</ele>
<time>2019-05-30T15:22:15Z</time>
</trkpt>
<trkpt lat="49.531319" lon="10.195697">
<ele>371.666</ele>
<time>2019-05-30T15:22:16Z</time>
</trkpt>
<trkpt lat="49.531342" lon="10.195762">
<ele>371.665</ele>
<time>2019-05-30T15:22:17Z</time>
</trkpt>
<trkpt lat="49.531357" lon="10.195827">
<ele>371.665</ele>
<time>2019-05-30T15:22:18Z</time>
</trkpt>
<trkpt lat="49.531376" lon="10.195894">
<ele>371.666</ele>
<time>2019-05-30T15:22:19Z</time>
</trkpt>
<trkpt lat="49.531395" lon="10.195963">
<ele>371.666</ele>
<time>2019-05-30T15:22:20Z</time>
</trkpt>
<trkpt lat="49.53141" lon="10.196031">
<ele>371.666</ele>
<time>2019-05-30T15:22:21Z</time>
</trkpt>
<trkpt lat="49.531429" lon="10.196097">
<ele>371.666</ele>
<time>2019-05-30T15:22:22Z</time>
</trkpt>
<trkpt lat="49.531448" lon="10.196165">
<ele>371.665</ele>
<time>2019-05-30T15:22:23Z</time>
</trkpt>
<trkpt lat="49.531471" lon="10.196232">
<ele>371.666</ele>
<time>2019-05-30T15:22:24Z</time>
</trkpt>
<trkpt lat="49.531487" lon="10.196301">
<ele>371.666</ele>
<time>2019-05-30T15:22:25Z</time>
</trkpt>
<trkpt lat="49.531509" lon="10.196372">
<ele>371.665</ele>
<time>2019-05-30T15:22:26Z</time>
</trkpt>
<trkpt lat="49.531528" lon="10.196444">
<ele>371.666</ele>
<time>2019-05-30T15:22:27Z</time>
</trkpt>
<trkpt lat="49.531548" lon="10.196513">
<ele>371.666</ele>
<time>2019-05-30T15:22:28Z</time>
</trkpt>
<trkpt lat="49.531567" lon="10.196586">
<ele>371.666</ele>
<time>2019-05-30T15:22:29Z</time>
</trkpt>
<trkpt lat="49.531582" lon="10.196657">
<ele>371.666</ele>
<time>2019-05-30T15:22:30Z</time>
</trkpt>
<trkpt lat="49.531605" lon="10.196727">
<ele>371.665</ele>
<time>2019-05-30T15:22:31Z</time>
</trkpt>
<trkpt lat="49.531624" lon="10.196798">
<ele>371.665</ele>
<time>2019-05-30T15:22:32Z</time>
</trkpt>
<trkpt lat="49.531643" lon="10.19687">
<ele>371.437</ele>
<time>2019-05-30T15:22:33Z</time>
</trkpt>
<trkpt lat="49.531666" lon="10.196941">
<ele>371.274</ele>
<time>2019-05-30T15:22:34Z</time>
</trkpt>
<trkpt lat="49.531681" lon="10.197015">
<ele>371.106</ele>
<time>2019-05-30T15:22:35Z</time>
</trkpt>
<trkpt lat="49.531693" lon="10.197092">
<ele>370.972</ele>
<time>2019-05-30T15:22:36Z</time>
</trkpt>
<trkpt lat="49.531704" lon="10.197168">
<ele>370.87</ele>
<time>2019-05-30T15:22:37Z</time>
</trkpt>
<trkpt lat="49.531715" lon="10.197248">
<ele>370.797</ele>
<time>2019-05-30T15:22:38Z</time>
</trkpt>
<trkpt lat="49.531731" lon="10.197325">
<ele>370.75</ele>
<time>2019-05-30T15:22:39Z</time>
</trkpt>
<trkpt lat="49.531734" lon="10.197405">
<ele>370.727</ele>
<time>2019-05-30T15:22:40Z</time>
</trkpt>
<trkpt lat="49.531742" lon="10.197483">
<ele>370.727</ele>
<time>2019-05-30T15:22:41Z</time>
</trkpt>
<trkpt lat="49.53175" lon="10.197563">
<ele>370.727</ele>
<time>2019-05-30T15:22:42Z</time>
</trkpt>
<trkpt lat="49.53175" lon="10.197645">
<ele>370.519</ele>
<time>2019-05-30T15:22:43Z</time>
</trkpt>
<trkpt lat="49.53175" lon="10.197725">
<ele>370.371</ele>
<time>2019-05-30T15:22:44Z</time>
</trkpt>
<trkpt lat="49.53175" lon="10.197806">
<ele>370.219</ele>
<time>2019-05-30T15:22:45Z</time>
</trkpt>
<trkpt lat="49.531746" lon="10.197888">
<ele>370.098</ele>
<time>2019-05-30T15:22:46Z</time>
</trkpt>
<trkpt lat="49.531738" lon="10.197968">
<ele>370.005</ele>
<time>2019-05-30T15:22:47Z</time>
</trkpt>
<trkpt lat="49.531734" lon="10.19805">
<ele>369.938</ele>
<time>2019-05-30T15:22:48Z</time>
</trkpt>
<trkpt lat="49.531723" lon="10.198135">
<ele>369.894</ele>
<time>2019-05-30T15:22:49Z</time>
</trkpt>
<trkpt lat="49.531708" lon="10.19822">
<ele>369.874</ele>
<time>2019-05-30T15:22:50Z</time>
</trkpt>
<trkpt lat="49.531696" lon="10.198305">
<ele>369.874</ele>
<time>2019-05-30T15:22:51Z</time>
</trkpt>
<trkpt lat="49.531677" lon="10.198388">
<ele>369.874</ele>
<time>2019-05-30T15:22:52Z</time>
</trkpt>
<trkpt lat="49.531666" lon="10.198471">
<ele>369.874</ele>
<time>2019-05-30T15:22:53Z</time>
</trkpt>
<trkpt lat="49.531647" lon="10.198555">
<ele>369.874</ele>
<time>2019-05-30T15:22:54Z</time>
</trkpt>
<trkpt lat="49.531628" lon="10.198637">
<ele>369.874</ele>
<time>2019-05-30T15:22:55Z</time>
</trkpt>
<trkpt lat="49.531609" lon="10.198714">
<ele>369.874</ele>
<time>2019-05-30T15:22:56Z</time>
</trkpt>
<trkpt lat="49.53159" lon="10.198795">
<ele>369.874</ele>
<time>2019-05-30T15:22:57Z</time>
</trkpt>
<trkpt lat="49.53157" lon="10.198875">
<ele>369.874</ele>
<time>2019-05-30T15:22:58Z</time>
</trkpt>
<trkpt lat="49.531548" lon="10.198955">
<ele>369.62</ele>
<time>2019-05-30T15:22:59Z</time>
</trkpt>
<trkpt lat="49.531528" lon="10.199035">
<ele>369.422</ele>
<time>2019-05-30T15:23:00Z</time>
</trkpt>
<trkpt lat="49.531506" lon="10.199117">
<ele>369.269</ele>
<time>2019-05-30T15:23:01Z</time>
</trkpt>
<trkpt lat="49.53149" lon="10.199195">
<ele>369.156</ele>
<time>2019-05-30T15:23:02Z</time>
</trkpt>
<trkpt lat="49.531471" lon="10.199273">
<ele>369.073</ele>
<time>2019-05-30T15:23:03Z</time>
</trkpt>
<trkpt lat="49.531452" lon="10.199351">
<ele>369.014</ele>
<time>2019-05-30T15:23:04Z</time>
</trkpt>
<trkpt lat="49.531433" lon="10.199431">
<ele>368.961</ele>
<time>2019-05-30T15:23:05Z</time>
</trkpt>
<trkpt lat="49.53141" lon="10.199512">
<ele>368.936</ele>
<time>2019-05-30T15:23:06Z</time>
</trkpt>
<trkpt lat="49.531395" lon="10.19959">
<ele>368.936</ele>
<time>2019-05-30T15:23:07Z</time>
</trkpt>
<trkpt lat="49.531376" lon="10.199672">
<ele>368.936</ele>
<time>2019-05-30T15:23:08Z</time>
</trkpt>
<trkpt lat="49.531353" lon="10.19975">
<ele>368.936</ele>
<time>2019-05-30T15:23:09Z</time>
</trkpt>
<trkpt lat="49.531334" lon="10.199831">
<ele>368.936</ele>
<time>2019-05-30T15:23:10Z</time>
</trkpt>
<trkpt lat="49.531311" lon="10.199913">
<ele>368.936</ele>
<time>2019-05-30T15:23:11Z</time>
</trkpt>
<trkpt lat="49.531292" lon="10.199999">
<ele>368.936</ele>
<time>2019-05-30T15:23:12Z</time>
</trkpt>
<trkpt lat="49.531273" lon="10.200084">
<ele>368.936</ele>
<time>2019-05-30T15:23:13Z</time>
</trkpt>
<trkpt lat="49.53125" lon="10.200171">
<ele>368.725</ele>
<time>2019-05-30T15:23:14Z</time>
</trkpt>
<trkpt lat="49.531231" lon="10.200254">
<ele>368.525</ele>
<time>2019-05-30T15:23:15Z</time>
</trkpt>
<trkpt lat="49.531208" lon="10.200342">
<ele>368.363</ele>
<time>2019-05-30T15:23:16Z</time>
</trkpt>
<trkpt lat="49.531189" lon="10.200426">
<ele>368.233</ele>
<time>2019-05-30T15:23:17Z</time>
</trkpt>
<trkpt lat="49.531166" lon="10.20051">
<ele>368.136</ele>
<time>2019-05-30T15:23:18Z</time>
</trkpt>
<trkpt lat="49.531143" lon="10.200597">
<ele>368.065</ele>
<time>2019-05-30T15:23:19Z</time>
</trkpt>
<trkpt lat="49.53112" lon="10.200684">
<ele>368.02</ele>
<time>2019-05-30T15:23:20Z</time>
</trkpt>
<trkpt lat="49.531101" lon="10.200769">
<ele>367.998</ele>
<time>2019-05-30T15:23:21Z</time>
</trkpt>
<trkpt lat="49.531082" lon="10.200857">
<ele>367.998</ele>
<time>2019-05-30T15:23:22Z</time>
</trkpt>
<trkpt lat="49.531059" lon="10.200939">
<ele>367.998</ele>
<time>2019-05-30T15:23:23Z</time>
</trkpt>
<trkpt lat="49.531036" lon="10.201025">
<ele>367.998</ele>
<time>2019-05-30T15:23:24Z</time>
</trkpt>
<trkpt lat="49.531013" lon="10.201113">
<ele>367.998</ele>
<time>2019-05-30T15:23:25Z</time>
</trkpt>
<trkpt lat="49.530987" lon="10.201205">
<ele>367.998</ele>
<time>2019-05-30T15:23:26Z</time>
</trkpt>
<trkpt lat="49.530964" lon="10.2013">
<ele>367.998</ele>
<time>2019-05-30T15:23:27Z</time>
</trkpt>
<trkpt lat="49.530937" lon="10.201395">
<ele>367.998</ele>
<time>2019-05-30T15:23:28Z</time>
</trkpt>
<trkpt lat="49.53091" lon="10.201492">
<ele>367.998</ele>
<time>2019-05-30T15:23:29Z</time>
</trkpt>
<trkpt lat="49.530888" lon="10.201589">
<ele>367.998</ele>
<time>2019-05-30T15:23:30Z</time>
</trkpt>
<trkpt lat="49.530857" lon="10.201685">
<ele>367.998</ele>
<time>2019-05-30T15:23:31Z</time>
</trkpt>
<trkpt lat="49.53083" lon="10.201781">
<ele>367.998</ele>
<time>2019-05-30T15:23:32Z</time>
</trkpt>
<trkpt lat="49.530804" lon="10.20188">
<ele>367.787</ele>
<time>2019-05-30T15:23:33Z</time>
</trkpt>
<trkpt lat="49.530781" lon="10.201981">
<ele>367.64</ele>
<time>2019-05-30T15:23:34Z</time>
</trkpt>
<trkpt lat="49.530754" lon="10.202079">
<ele>367.489</ele>
<time>2019-05-30T15:23:35Z</time>
</trkpt>
<trkpt lat="49.530724" lon="10.202178">
<ele>367.368</ele>
<time>2019-05-30T15:23:36Z</time>
</trkpt>
<trkpt lat="49.530697" lon="10.20228">
<ele>367.275</ele>
<time>2019-05-30T15:23:37Z</time>
</trkpt>
<trkpt lat="49.530666" lon="10.202383">
<ele>367.208</ele>
<time>2019-05-30T15:23:38Z</time>
</trkpt>
<trkpt lat="49.53064" lon="10.202488">
<ele>367.165</ele>
<time>2019-05-30T15:23:39Z</time>
</trkpt>
<trkpt lat="49.530613" lon="10.202592">
<ele>367.145</ele>
<time>2019-05-30T15:23:40Z</time>
</trkpt>
<trkpt lat="49.530582" lon="10.202699">
<ele>366.9</ele>
<time>2019-05-30T15:23:41Z</time>
</trkpt>
<trkpt lat="49.530552" lon="10.202806">
<ele>366.709</ele>
<time>2019-05-30T15:23:42Z</time>
</trkpt>
<trkpt lat="49.530521" lon="10.202911">
<ele>366.562</ele>
<time>2019-05-30T15:23:43Z</time>
</trkpt>
<trkpt lat="49.530491" lon="10.203018">
<ele>366.464</ele>
<time>2019-05-30T15:23:44Z</time>
</trkpt>
<trkpt lat="49.53046" lon="10.203123">
<ele>366.357</ele>
<time>2019-05-30T15:23:45Z</time>
</trkpt>
<trkpt lat="49.53043" lon="10.203227">
<ele>366.28</ele>
<time>2019-05-30T15:23:46Z</time>
</trkpt>
<trkpt lat="49.530396" lon="10.203332">
<ele>366.231</ele>
<time>2019-05-30T15:23:47Z</time>
</trkpt>
<trkpt lat="49.530365" lon="10.203433">
<ele>366.207</ele>
<time>2019-05-30T15:23:48Z</time>
</trkpt>
<trkpt lat="49.530331" lon="10.203535">
<ele>366.207</ele>
<time>2019-05-30T15:23:49Z</time>
</trkpt>
<trkpt lat="49.5303" lon="10.203635">
<ele>366.207</ele>
<time>2019-05-30T15:23:50Z</time>
</trkpt>
<trkpt lat="49.530266" lon="10.203734">
<ele>366.207</ele>
<time>2019-05-30T15:23:51Z</time>
</trkpt>
<trkpt lat="49.530231" lon="10.203833">
<ele>366.207</ele>
<time>2019-05-30T15:23:52Z</time>
</trkpt>
<trkpt lat="49.530201" lon="10.203935">
<ele>366.207</ele>
<time>2019-05-30T15:23:53Z</time>
</trkpt>
<trkpt lat="49.530167" lon="10.204037">
<ele>366.207</ele>
<time>2019-05-30T15:23:54Z</time>
</trkpt>
<trkpt lat="49.530136" lon="10.204137">
<ele>366.207</ele>
<time>2019-05-30T15:23:55Z</time>
</trkpt>
<trkpt lat="49.530106" lon="10.204239">
<ele>366.207</ele>
<time>2019-05-30T15:23:56Z</time>
</trkpt>
<trkpt lat="49.530071" lon="10.204338">
<ele>366.207</ele>
<time>2019-05-30T15:23:57Z</time>
</trkpt>
<trkpt lat="49.530033" lon="10.20444">
<ele>366.207</ele>
<time>2019-05-30T15:23:58Z</time>
</trkpt>
<trkpt lat="49.529999" lon="10.20454">
<ele>366.207</ele>
<time>2019-05-30T15:23:59Z</time>
</trkpt>
<trkpt lat="49.529964" lon="10.204641">
<ele>366.207</ele>
<time>2019-05-30T15:24:00Z</time>
</trkpt>
<trkpt lat="49.529934" lon="10.204738">
<ele>366.207</ele>
<time>2019-05-30T15:24:01Z</time>
</trkpt>
<trkpt lat="49.529903" lon="10.204835">
<ele>366.207</ele>
<time>2019-05-30T15:24:02Z</time>
</trkpt>
<trkpt lat="49.529873" lon="10.20493">
<ele>366.207</ele>
<time>2019-05-30T15:24:03Z</time>
</trkpt>
<trkpt lat="49.529839" lon="10.205023">
<ele>366.207</ele>
<time>2019-05-30T15:24:04Z</time>
</trkpt>
<trkpt lat="49.529808" lon="10.205115">
<ele>366.207</ele>
<time>2019-05-30T15:24:05Z</time>
</trkpt>
<trkpt lat="49.529778" lon="10.205203">
<ele>366.207</ele>
<time>2019-05-30T15:24:06Z</time>
</trkpt>
<trkpt lat="49.529747" lon="10.205293">
<ele>366.207</ele>
<time>2019-05-30T15:24:07Z</time>
</trkpt>
<trkpt lat="49.529713" lon="10.205381">
<ele>366.207</ele>
<time>2019-05-30T15:24:08Z</time>
</trkpt>
<trkpt lat="49.529682" lon="10.205468">
<ele>366.207</ele>
<time>2019-05-30T15:24:09Z</time>
</trkpt>
<trkpt lat="49.529655" lon="10.20555">
<ele>366.207</ele>
<time>2019-05-30T15:24:10Z</time>
</trkpt>
<trkpt lat="49.529629" lon="10.20563">
<ele>366.421</ele>
<time>2019-05-30T15:24:11Z</time>
</trkpt>
<trkpt lat="49.529602" lon="10.205708">
<ele>366.59</ele>
<time>2019-05-30T15:24:12Z</time>
</trkpt>
<trkpt lat="49.529579" lon="10.205777">
<ele>366.722</ele>
<time>2019-05-30T15:24:13Z</time>
</trkpt>
<trkpt lat="49.529556" lon="10.205842">
<ele>366.816</ele>
<time>2019-05-30T15:24:14Z</time>
</trkpt>
<trkpt lat="49.529537" lon="10.205903">
<ele>366.913</ele>
<time>2019-05-30T15:24:15Z</time>
</trkpt>
<trkpt lat="49.529518" lon="10.205961">
<ele>366.986</ele>
<time>2019-05-30T15:24:16Z</time>
</trkpt>
<trkpt lat="49.529495" lon="10.206018">
<ele>367.035</ele>
<time>2019-05-30T15:24:17Z</time>
</trkpt>
<trkpt lat="49.529476" lon="10.206072">
<ele>367.06</ele>
<time>2019-05-30T15:24:18Z</time>
</trkpt>
<trkpt lat="49.529457" lon="10.206126">
<ele>367.06</ele>
<time>2019-05-30T15:24:19Z</time>
</trkpt>
<trkpt lat="49.529442" lon="10.206177">
<ele>367.06</ele>
<time>2019-05-30T15:24:20Z</time>
</trkpt>
<trkpt lat="49.52943" lon="10.206221">
<ele>367.06</ele>
<time>2019-05-30T15:24:21Z</time>
</trkpt>
<trkpt lat="49.529419" lon="10.206262">
<ele>367.06</ele>
<time>2019-05-30T15:24:22Z</time>
</trkpt>
<trkpt lat="49.529419" lon="10.2063">
<ele>367.06</ele>
<time>2019-05-30T15:24:23Z</time>
</trkpt>
<trkpt lat="49.529419" lon="10.206335">
<ele>367.06</ele>
<time>2019-05-30T15:24:24Z</time>
</trkpt>
<trkpt lat="49.529419" lon="10.206364">
<ele>367.06</ele>
<time>2019-05-30T15:24:25Z</time>
</trkpt>
<trkpt lat="49.529419" lon="10.206385">
<ele>367.295</ele>
<time>2019-05-30T15:24:26Z</time>
</trkpt>
<trkpt lat="49.529419" lon="10.206404">
<ele>367.489</ele>
<time>2019-05-30T15:24:27Z</time>
</trkpt>
<trkpt lat="49.529419" lon="10.206411">
<ele>367.656</ele>
<time>2019-05-30T15:24:28Z</time>
</trkpt>
<trkpt lat="49.529419" lon="10.206409">
<ele>367.789</ele>
<time>2019-05-30T15:24:29Z</time>
</trkpt>
<trkpt lat="49.529423" lon="10.206409">
<ele>367.876</ele>
<time>2019-05-30T15:24:30Z</time>
</trkpt>
<trkpt lat="49.529385" lon="10.206402">
<ele>367.949</ele>
<time>2019-05-30T15:28:37Z</time>
</trkpt>
<trkpt lat="49.529369" lon="10.206409">
<ele>367.984</ele>
<time>2019-05-30T15:28:38Z</time>
</trkpt>
<trkpt lat="49.529354" lon="10.206424">
<ele>367.998</ele>
<time>2019-05-30T15:28:39Z</time>
</trkpt>
<trkpt lat="49.529343" lon="10.206438">
<ele>367.998</ele>
<time>2019-05-30T15:28:40Z</time>
</trkpt>
<trkpt lat="49.529324" lon="10.206451">
<ele>367.998</ele>
<time>2019-05-30T15:28:41Z</time>
</trkpt>
<trkpt lat="49.529316" lon="10.20647">
<ele>367.998</ele>
<time>2019-05-30T15:28:42Z</time>
</trkpt>
<trkpt lat="49.529301" lon="10.20649">
<ele>367.998</ele>
<time>2019-05-30T15:28:43Z</time>
</trkpt>
<trkpt lat="49.529289" lon="10.206513">
<ele>367.998</ele>
<time>2019-05-30T15:28:44Z</time>
</trkpt>
<trkpt lat="49.529278" lon="10.20654">
<ele>367.998</ele>
<time>2019-05-30T15:28:45Z</time>
</trkpt>
<trkpt lat="49.529263" lon="10.206569">
<ele>367.998</ele>
<time>2019-05-30T15:28:46Z</time>
</trkpt>
<trkpt lat="49.529251" lon="10.206596">
<ele>367.998</ele>
<time>2019-05-30T15:28:47Z</time>
</trkpt>
<trkpt lat="49.529232" lon="10.206625">
<ele>367.998</ele>
<time>2019-05-30T15:28:48Z</time>
</trkpt>
<trkpt lat="49.529213" lon="10.206655">
<ele>367.998</ele>
<time>2019-05-30T15:28:49Z</time>
</trkpt>
<trkpt lat="49.52919" lon="10.206688">
<ele>367.998</ele>
<time>2019-05-30T15:28:50Z</time>
</trkpt>
<trkpt lat="49.529171" lon="10.206719">
<ele>367.998</ele>
<time>2019-05-30T15:28:51Z</time>
</trkpt>
<trkpt lat="49.529148" lon="10.206755">
<ele>367.998</ele>
<time>2019-05-30T15:28:52Z</time>
</trkpt>
<trkpt lat="49.529121" lon="10.20679">
<ele>367.998</ele>
<time>2019-05-30T15:28:53Z</time>
</trkpt>
<trkpt lat="49.529095" lon="10.20683">
<ele>367.998</ele>
<time>2019-05-30T15:28:54Z</time>
</trkpt>
<trkpt lat="49.529068" lon="10.206873">
<ele>367.998</ele>
<time>2019-05-30T15:28:55Z</time>
</trkpt>
<trkpt lat="49.529041" lon="10.206912">
<ele>367.998</ele>
<time>2019-05-30T15:28:56Z</time>
</trkpt>
<trkpt lat="49.529015" lon="10.206954">
<ele>367.998</ele>
<time>2019-05-30T15:28:57Z</time>
</trkpt>
<trkpt lat="49.528984" lon="10.207002">
<ele>367.998</ele>
<time>2019-05-30T15:28:58Z</time>
</trkpt>
<trkpt lat="49.528957" lon="10.207045">
<ele>367.998</ele>
<time>2019-05-30T15:28:59Z</time>
</trkpt>
<trkpt lat="49.528927" lon="10.207087">
<ele>367.801</ele>
<time>2019-05-30T15:29:00Z</time>
</trkpt>
<trkpt lat="49.528896" lon="10.207132">
<ele>367.619</ele>
<time>2019-05-30T15:29:01Z</time>
</trkpt>
<trkpt lat="49.528866" lon="10.207174">
<ele>367.473</ele>
<time>2019-05-30T15:29:02Z</time>
</trkpt>
<trkpt lat="49.528831" lon="10.20722">
<ele>367.358</ele>
<time>2019-05-30T15:29:03Z</time>
</trkpt>
<trkpt lat="49.528805" lon="10.207267">
<ele>367.267</ele>
<time>2019-05-30T15:29:04Z</time>
</trkpt>
<trkpt lat="49.52877" lon="10.20731">
<ele>367.206</ele>
<time>2019-05-30T15:29:05Z</time>
</trkpt>
<trkpt lat="49.528744" lon="10.207348">
<ele>367.166</ele>
<time>2019-05-30T15:29:06Z</time>
</trkpt>
<trkpt lat="49.528717" lon="10.207385">
<ele>367.145</ele>
<time>2019-05-30T15:29:07Z</time>
</trkpt>
<trkpt lat="49.528694" lon="10.207417">
<ele>366.9</ele>
<time>2019-05-30T15:29:08Z</time>
</trkpt>
<trkpt lat="49.528675" lon="10.207448">
<ele>366.706</ele>
<time>2019-05-30T15:29:09Z</time>
</trkpt>
<trkpt lat="49.528652" lon="10.207482">
<ele>366.564</ele>
<time>2019-05-30T15:29:10Z</time>
</trkpt>
<trkpt lat="49.528633" lon="10.207512">
<ele>366.427</ele>
<time>2019-05-30T15:29:11Z</time>
</trkpt>
<trkpt lat="49.528606" lon="10.207552">
<ele>366.096</ele>
<time>2019-05-30T15:29:12Z</time>
</trkpt>
<trkpt lat="49.528584" lon="10.20759">
<ele>365.85</ele>
<time>2019-05-30T15:29:13Z</time>
</trkpt>
<trkpt lat="49.528557" lon="10.207637">
<ele>365.398</ele>
<time>2019-05-30T15:29:14Z</time>
</trkpt>
<trkpt lat="49.528526" lon="10.20769">
<ele>364.738</ele>
<time>2019-05-30T15:29:15Z</time>
</trkpt>
<trkpt lat="49.528484" lon="10.20775">
<ele>364.076</ele>
<time>2019-05-30T15:29:16Z</time>
</trkpt>
<trkpt lat="49.528442" lon="10.207802">
<ele>363.802</ele>
<time>2019-05-30T15:29:17Z</time>
</trkpt>
<trkpt lat="49.528408" lon="10.207859">
<ele>363.25</ele>
<time>2019-05-30T15:29:18Z</time>
</trkpt>
<trkpt lat="49.528374" lon="10.207915">
<ele>362.945</ele>
<time>2019-05-30T15:29:19Z</time>
</trkpt>
<trkpt lat="49.528324" lon="10.20798">
<ele>362.471</ele>
<time>2019-05-30T15:29:20Z</time>
</trkpt>
<trkpt lat="49.528286" lon="10.208034">
<ele>362.097</ele>
<time>2019-05-30T15:29:21Z</time>
</trkpt>
<trkpt lat="49.528252" lon="10.208094">
<ele>361.575</ele>
<time>2019-05-30T15:29:22Z</time>
</trkpt>
<trkpt lat="49.52821" lon="10.208148">
<ele>361.232</ele>
<time>2019-05-30T15:29:23Z</time>
</trkpt>
<trkpt lat="49.52816" lon="10.208207">
<ele>360.717</ele>
<time>2019-05-30T15:29:24Z</time>
</trkpt>
<trkpt lat="49.528114" lon="10.208272">
<ele>359.977</ele>
<time>2019-05-30T15:29:25Z</time>
</trkpt>
<trkpt lat="49.528046" lon="10.208342">
<ele>359.407</ele>
<time>2019-05-30T15:29:26Z</time>
</trkpt>
<trkpt lat="49.527981" lon="10.208421">
<ele>359.062</ele>
<time>2019-05-30T15:29:27Z</time>
</trkpt>
<trkpt lat="49.527912" lon="10.208503">
<ele>358.4</ele>
<time>2019-05-30T15:29:28Z</time>
</trkpt>
<trkpt lat="49.527855" lon="10.208591">
<ele>358.08</ele>
<time>2019-05-30T15:29:29Z</time>
</trkpt>
<trkpt lat="49.527802" lon="10.208687">
<ele>357.57</ele>
<time>2019-05-30T15:29:30Z</time>
</trkpt>
<trkpt lat="49.527744" lon="10.208787">
<ele>356.935</ele>
<time>2019-05-30T15:29:31Z</time>
</trkpt>
<trkpt lat="49.527691" lon="10.208895">
<ele>356.48</ele>
<time>2019-05-30T15:29:32Z</time>
</trkpt>
<trkpt lat="49.527637" lon="10.209003">
<ele>356.217</ele>
<time>2019-05-30T15:29:33Z</time>
</trkpt>
<trkpt lat="49.527592" lon="10.20912">
<ele>355.73</ele>
<time>2019-05-30T15:29:34Z</time>
</trkpt>
<trkpt lat="49.52755" lon="10.209242">
<ele>355.338</ele>
<time>2019-05-30T15:29:35Z</time>
</trkpt>
<trkpt lat="49.527512" lon="10.209357">
<ele>355.1</ele>
<time>2019-05-30T15:29:36Z</time>
</trkpt>
<trkpt lat="49.527477" lon="10.209464">
<ele>354.678</ele>
<time>2019-05-30T15:29:37Z</time>
</trkpt>
<trkpt lat="49.527443" lon="10.209557">
<ele>354.388</ele>
<time>2019-05-30T15:29:38Z</time>
</trkpt>
<trkpt lat="49.527409" lon="10.209661">
<ele>354.177</ele>
<time>2019-05-30T15:29:39Z</time>
</trkpt>
<trkpt lat="49.527363" lon="10.209766">
<ele>354.039</ele>
<time>2019-05-30T15:29:40Z</time>
</trkpt>
<trkpt lat="49.527332" lon="10.209856">
<ele>353.912</ele>
<time>2019-05-30T15:29:41Z</time>
</trkpt>
<trkpt lat="49.527306" lon="10.209953">
<ele>353.843</ele>
<time>2019-05-30T15:29:42Z</time>
</trkpt>
<trkpt lat="49.527283" lon="10.210036">
<ele>353.577</ele>
<time>2019-05-30T15:29:43Z</time>
</trkpt>
<trkpt lat="49.527267" lon="10.210115">
<ele>353.364</ele>
<time>2019-05-30T15:29:44Z</time>
</trkpt>
<trkpt lat="49.527245" lon="10.210199">
<ele>353.14</ele>
<time>2019-05-30T15:29:45Z</time>
</trkpt>
<trkpt lat="49.527222" lon="10.210281">
<ele>353.021</ele>
<time>2019-05-30T15:29:46Z</time>
</trkpt>
<trkpt lat="49.527199" lon="10.210361">
<ele>352.94</ele>
<time>2019-05-30T15:29:47Z</time>
</trkpt>
<trkpt lat="49.527168" lon="10.210439">
<ele>352.882</ele>
<time>2019-05-30T15:29:48Z</time>
</trkpt>
<trkpt lat="49.527138" lon="10.210515">
<ele>352.853</ele>
<time>2019-05-30T15:29:49Z</time>
</trkpt>
<trkpt lat="49.527115" lon="10.210588">
<ele>352.829</ele>
<time>2019-05-30T15:29:50Z</time>
</trkpt>
<trkpt lat="49.527088" lon="10.210663">
<ele>352.829</ele>
<time>2019-05-30T15:29:51Z</time>
</trkpt>
<trkpt lat="49.527065" lon="10.210733">
<ele>352.829</ele>
<time>2019-05-30T15:29:52Z</time>
</trkpt>
<trkpt lat="49.527039" lon="10.210794">
<ele>352.83</ele>
<time>2019-05-30T15:29:53Z</time>
</trkpt>
<trkpt lat="49.527023" lon="10.210855">
<ele>352.829</ele>
<time>2019-05-30T15:29:54Z</time>
</trkpt>
<trkpt lat="49.527004" lon="10.210903">
<ele>352.829</ele>
<time>2019-05-30T15:29:55Z</time>
</trkpt>
<trkpt lat="49.526981" lon="10.210948">
<ele>352.829</ele>
<time>2019-05-30T15:29:56Z</time>
</trkpt>
<trkpt lat="49.526958" lon="10.210998">
<ele>352.829</ele>
<time>2019-05-30T15:29:57Z</time>
</trkpt>
<trkpt lat="49.526943" lon="10.211046">
<ele>352.829</ele>
<time>2019-05-30T15:29:58Z</time>
</trkpt>
<trkpt lat="49.526924" lon="10.211095">
<ele>352.829</ele>
<time>2019-05-30T15:29:59Z</time>
</trkpt>
<trkpt lat="49.526905" lon="10.21114">
<ele>352.829</ele>
<time>2019-05-30T15:30:00Z</time>
</trkpt>
<trkpt lat="49.526882" lon="10.211175">
<ele>352.829</ele>
<time>2019-05-30T15:30:01Z</time>
</trkpt>
<trkpt lat="49.526859" lon="10.211211">
<ele>352.829</ele>
<time>2019-05-30T15:30:02Z</time>
</trkpt>
<trkpt lat="49.526836" lon="10.211243">
<ele>352.83</ele>
<time>2019-05-30T15:30:03Z</time>
</trkpt>
<trkpt lat="49.52681" lon="10.211283">
<ele>352.83</ele>
<time>2019-05-30T15:30:04Z</time>
</trkpt>
<trkpt lat="49.526779" lon="10.211327">
<ele>352.829</ele>
<time>2019-05-30T15:30:05Z</time>
</trkpt>
<trkpt lat="49.526752" lon="10.211381">
<ele>352.83</ele>
<time>2019-05-30T15:30:06Z</time>
</trkpt>
<trkpt lat="49.52673" lon="10.211425">
<ele>352.829</ele>
<time>2019-05-30T15:30:07Z</time>
</trkpt>
<trkpt lat="49.526699" lon="10.21147">
<ele>352.829</ele>
<time>2019-05-30T15:30:08Z</time>
</trkpt>
<trkpt lat="49.526669" lon="10.211512">
<ele>352.829</ele>
<time>2019-05-30T15:30:09Z</time>
</trkpt>
<trkpt lat="49.526642" lon="10.211552">
<ele>352.829</ele>
<time>2019-05-30T15:30:10Z</time>
</trkpt>
<trkpt lat="49.526611" lon="10.21159">
<ele>352.83</ele>
<time>2019-05-30T15:30:11Z</time>
</trkpt>
<trkpt lat="49.526577" lon="10.21164">
<ele>352.83</ele>
<time>2019-05-30T15:30:12Z</time>
</trkpt>
<trkpt lat="49.52655" lon="10.21168">
<ele>352.829</ele>
<time>2019-05-30T15:30:13Z</time>
</trkpt>
<trkpt lat="49.52652" lon="10.21172">
<ele>352.829</ele>
<time>2019-05-30T15:30:14Z</time>
</trkpt>
<trkpt lat="49.526485" lon="10.211754">
<ele>352.829</ele>
<time>2019-05-30T15:30:15Z</time>
</trkpt>
<trkpt lat="49.526451" lon="10.211794">
<ele>352.829</ele>
<time>2019-05-30T15:30:16Z</time>
</trkpt>
<trkpt lat="49.526421" lon="10.211827">
<ele>352.829</ele>
<time>2019-05-30T15:30:17Z</time>
</trkpt>
<trkpt lat="49.526398" lon="10.211868">
<ele>352.829</ele>
<time>2019-05-30T15:30:18Z</time>
</trkpt>
<trkpt lat="49.526363" lon="10.211918">
<ele>353.056</ele>
<time>2019-05-30T15:30:19Z</time>
</trkpt>
<trkpt lat="49.526337" lon="10.211964">
<ele>353.214</ele>
<time>2019-05-30T15:30:20Z</time>
</trkpt>
<trkpt lat="49.52631" lon="10.212006">
<ele>353.388</ele>
<time>2019-05-30T15:30:21Z</time>
</trkpt>
<trkpt lat="49.526279" lon="10.212053">
<ele>353.518</ele>
<time>2019-05-30T15:30:22Z</time>
</trkpt>
<trkpt lat="49.526253" lon="10.212105">
<ele>353.622</ele>
<time>2019-05-30T15:30:23Z</time>
</trkpt>
<trkpt lat="49.526226" lon="10.212152">
<ele>353.698</ele>
<time>2019-05-30T15:30:24Z</time>
</trkpt>
<trkpt lat="49.526199" lon="10.212198">
<ele>353.743</ele>
<time>2019-05-30T15:30:25Z</time>
</trkpt>
<trkpt lat="49.526176" lon="10.212244">
<ele>353.972</ele>
<time>2019-05-30T15:30:26Z</time>
</trkpt>
<trkpt lat="49.526161" lon="10.212286">
<ele>354.158</ele>
<time>2019-05-30T15:30:27Z</time>
</trkpt>
<trkpt lat="49.526146" lon="10.21233">
<ele>354.296</ele>
<time>2019-05-30T15:30:28Z</time>
</trkpt>
<trkpt lat="49.526123" lon="10.212377">
<ele>354.395</ele>
<time>2019-05-30T15:30:29Z</time>
</trkpt>
<trkpt lat="49.526104" lon="10.212415">
<ele>354.466</ele>
<time>2019-05-30T15:30:30Z</time>
</trkpt>
<trkpt lat="49.526085" lon="10.21246">
<ele>354.543</ele>
<time>2019-05-30T15:30:31Z</time>
</trkpt>
<trkpt lat="49.526066" lon="10.2125">
<ele>354.594</ele>
<time>2019-05-30T15:30:32Z</time>
</trkpt>
<trkpt lat="49.526051" lon="10.21254">
<ele>354.618</ele>
<time>2019-05-30T15:30:33Z</time>
</trkpt>
<trkpt lat="49.526039" lon="10.212573">
<ele>354.868</ele>
<time>2019-05-30T15:30:34Z</time>
</trkpt>
<trkpt lat="49.526028" lon="10.21261">
<ele>355.07</ele>
<time>2019-05-30T15:30:35Z</time>
</trkpt>
<trkpt lat="49.526005" lon="10.212657">
<ele>355.197</ele>
<time>2019-05-30T15:30:36Z</time>
</trkpt>
<trkpt lat="49.525978" lon="10.212716">
<ele>355.545</ele>
<time>2019-05-30T15:30:37Z</time>
</trkpt>
<trkpt lat="49.525951" lon="10.21277">
<ele>355.824</ele>
<time>2019-05-30T15:30:38Z</time>
</trkpt>
<trkpt lat="49.525925" lon="10.212831">
<ele>356.026</ele>
<time>2019-05-30T15:30:39Z</time>
</trkpt>
<trkpt lat="49.525898" lon="10.212879">
<ele>356.168</ele>
<time>2019-05-30T15:30:40Z</time>
</trkpt>
<trkpt lat="49.525871" lon="10.212925">
<ele>356.294</ele>
<time>2019-05-30T15:30:41Z</time>
</trkpt>
<trkpt lat="49.525837" lon="10.212977">
<ele>356.36</ele>
<time>2019-05-30T15:30:42Z</time>
</trkpt>
<trkpt lat="49.52581" lon="10.213025">
<ele>356.392</ele>
<time>2019-05-30T15:30:43Z</time>
</trkpt>
<trkpt lat="49.525784" lon="10.213074">
<ele>356.407</ele>
<time>2019-05-30T15:30:44Z</time>
</trkpt>
<trkpt lat="49.525764" lon="10.213119">
<ele>356.675</ele>
<time>2019-05-30T15:30:45Z</time>
</trkpt>
<trkpt lat="49.525738" lon="10.213166">
<ele>356.889</ele>
<time>2019-05-30T15:30:46Z</time>
</trkpt>
<trkpt lat="49.525723" lon="10.213214">
<ele>357.054</ele>
<time>2019-05-30T15:30:47Z</time>
</trkpt>
<trkpt lat="49.525703" lon="10.213259">
<ele>357.156</ele>
<time>2019-05-30T15:30:48Z</time>
</trkpt>
<trkpt lat="49.525677" lon="10.213306">
<ele>357.477</ele>
<time>2019-05-30T15:30:49Z</time>
</trkpt>
<trkpt lat="49.52565" lon="10.213345">
<ele>357.709</ele>
<time>2019-05-30T15:30:50Z</time>
</trkpt>
<trkpt lat="49.525623" lon="10.213387">
<ele>357.949</ele>
<time>2019-05-30T15:30:51Z</time>
</trkpt>
<trkpt lat="49.5256" lon="10.21343">
<ele>358.116</ele>
<time>2019-05-30T15:30:52Z</time>
</trkpt>
<trkpt lat="49.525574" lon="10.213478">
<ele>358.222</ele>
<time>2019-05-30T15:30:53Z</time>
</trkpt>
<trkpt lat="49.525539" lon="10.213531">
<ele>358.297</ele>
<time>2019-05-30T15:30:54Z</time>
</trkpt>
<trkpt lat="49.525513" lon="10.213573">
<ele>358.345</ele>
<time>2019-05-30T15:30:55Z</time>
</trkpt>
<trkpt lat="49.525486" lon="10.213614">
<ele>358.366</ele>
<time>2019-05-30T15:30:56Z</time>
</trkpt>
<trkpt lat="49.525455" lon="10.213656">
<ele>358.366</ele>
<time>2019-05-30T15:30:57Z</time>
</trkpt>
<trkpt lat="49.525429" lon="10.213698">
<ele>358.366</ele>
<time>2019-05-30T15:30:58Z</time>
</trkpt>
<trkpt lat="49.525406" lon="10.213745">
<ele>358.615</ele>
<time>2019-05-30T15:30:59Z</time>
</trkpt>
<trkpt lat="49.525375" lon="10.213799">
<ele>358.79</ele>
<time>2019-05-30T15:31:00Z</time>
</trkpt>
<trkpt lat="49.525352" lon="10.213847">
<ele>358.967</ele>
<time>2019-05-30T15:31:01Z</time>
</trkpt>
<trkpt lat="49.525333" lon="10.21389">
<ele>359.11</ele>
<time>2019-05-30T15:31:02Z</time>
</trkpt>
<trkpt lat="49.525311" lon="10.213933">
<ele>359.23</ele>
<time>2019-05-30T15:31:03Z</time>
</trkpt>
<trkpt lat="49.525288" lon="10.213977">
<ele>359.311</ele>
<time>2019-05-30T15:31:04Z</time>
</trkpt>
<trkpt lat="49.525269" lon="10.214025">
<ele>359.359</ele>
<time>2019-05-30T15:31:05Z</time>
</trkpt>
<trkpt lat="49.525242" lon="10.214069">
<ele>359.634</ele>
<time>2019-05-30T15:31:06Z</time>
</trkpt>
<trkpt lat="49.525219" lon="10.214113">
<ele>359.861</ele>
<time>2019-05-30T15:31:07Z</time>
</trkpt>
<trkpt lat="49.5252" lon="10.214153">
<ele>360.023</ele>
<time>2019-05-30T15:31:08Z</time>
</trkpt>
<trkpt lat="49.525181" lon="10.214199">
<ele>360.153</ele>
<time>2019-05-30T15:31:09Z</time>
</trkpt>
<trkpt lat="49.525158" lon="10.214243">
<ele>360.243</ele>
<time>2019-05-30T15:31:10Z</time>
</trkpt>
<trkpt lat="49.525139" lon="10.214287">
<ele>360.328</ele>
<time>2019-05-30T15:31:11Z</time>
</trkpt>
<trkpt lat="49.525116" lon="10.214334">
<ele>360.612</ele>
<time>2019-05-30T15:31:12Z</time>
</trkpt>
<trkpt lat="49.525097" lon="10.214378">
<ele>360.826</ele>
<time>2019-05-30T15:31:13Z</time>
</trkpt>
<trkpt lat="49.525078" lon="10.214419">
<ele>361.065</ele>
<time>2019-05-30T15:31:14Z</time>
</trkpt>
<trkpt lat="49.525066" lon="10.214467">
<ele>361.188</ele>
<time>2019-05-30T15:31:15Z</time>
</trkpt>
<trkpt lat="49.525051" lon="10.214514">
<ele>361.27</ele>
<time>2019-05-30T15:31:16Z</time>
</trkpt>
<trkpt lat="49.525032" lon="10.214561">
<ele>361.313</ele>
<time>2019-05-30T15:31:17Z</time>
</trkpt>
<trkpt lat="49.525017" lon="10.214612">
<ele>361.553</ele>
<time>2019-05-30T15:31:18Z</time>
</trkpt>
<trkpt lat="49.524994" lon="10.21466">
<ele>361.73</ele>
<time>2019-05-30T15:31:19Z</time>
</trkpt>
<trkpt lat="49.524979" lon="10.214705">
<ele>361.846</ele>
<time>2019-05-30T15:31:20Z</time>
</trkpt>
<trkpt lat="49.52496" lon="10.214752">
<ele>361.975</ele>
<time>2019-05-30T15:31:21Z</time>
</trkpt>
<trkpt lat="49.52494" lon="10.214802">
<ele>362.065</ele>
<time>2019-05-30T15:31:22Z</time>
</trkpt>
<trkpt lat="49.524921" lon="10.214851">
<ele>362.368</ele>
<time>2019-05-30T15:31:23Z</time>
</trkpt>
<trkpt lat="49.524899" lon="10.214901">
<ele>362.605</ele>
<time>2019-05-30T15:31:24Z</time>
</trkpt>
<trkpt lat="49.524883" lon="10.214952">
<ele>362.78</ele>
<time>2019-05-30T15:31:25Z</time>
</trkpt>
<trkpt lat="49.524868" lon="10.214997">
<ele>362.957</ele>
<time>2019-05-30T15:31:26Z</time>
</trkpt>
<trkpt lat="49.524841" lon="10.215045">
<ele>363.044</ele>
<time>2019-05-30T15:31:27Z</time>
</trkpt>
<trkpt lat="49.52483" lon="10.215081">
<ele>363.088</ele>
<time>2019-05-30T15:31:28Z</time>
</trkpt>
<trkpt lat="49.524815" lon="10.21512">
<ele>363.334</ele>
<time>2019-05-30T15:31:29Z</time>
</trkpt>
<trkpt lat="49.524796" lon="10.215165">
<ele>363.516</ele>
<time>2019-05-30T15:31:30Z</time>
</trkpt>
<trkpt lat="49.524784" lon="10.215211">
<ele>363.68</ele>
<time>2019-05-30T15:31:31Z</time>
</trkpt>
<trkpt lat="49.524769" lon="10.21526">
<ele>363.814</ele>
<time>2019-05-30T15:31:32Z</time>
</trkpt>
<trkpt lat="49.52475" lon="10.215308">
<ele>363.909</ele>
<time>2019-05-30T15:31:33Z</time>
</trkpt>
<trkpt lat="49.524727" lon="10.215349">
<ele>364.225</ele>
<time>2019-05-30T15:31:34Z</time>
</trkpt>
<trkpt lat="49.524719" lon="10.215398">
<ele>364.463</ele>
<time>2019-05-30T15:31:35Z</time>
</trkpt>
<trkpt lat="49.524708" lon="10.215444">
<ele>364.67</ele>
<time>2019-05-30T15:31:36Z</time>
</trkpt>
<trkpt lat="49.524696" lon="10.215487">
<ele>364.821</ele>
<time>2019-05-30T15:31:37Z</time>
</trkpt>
<trkpt lat="49.524677" lon="10.215535">
<ele>364.897</ele>
<time>2019-05-30T15:31:38Z</time>
</trkpt>
<trkpt lat="49.524662" lon="10.215578">
<ele>364.946</ele>
<time>2019-05-30T15:31:39Z</time>
</trkpt>
<trkpt lat="49.524651" lon="10.21562">
<ele>364.987</ele>
<time>2019-05-30T15:31:40Z</time>
</trkpt>
<trkpt lat="49.524635" lon="10.215663">
<ele>365.237</ele>
<time>2019-05-30T15:31:41Z</time>
</trkpt>
<trkpt lat="49.524624" lon="10.215699">
<ele>365.429</ele>
<time>2019-05-30T15:31:42Z</time>
</trkpt>
<trkpt lat="49.524605" lon="10.215738">
<ele>365.584</ele>
<time>2019-05-30T15:31:43Z</time>
</trkpt>
<trkpt lat="49.52459" lon="10.215781">
<ele>365.713</ele>
<time>2019-05-30T15:31:44Z</time>
</trkpt>
<trkpt lat="49.524563" lon="10.215821">
<ele>365.79</ele>
<time>2019-05-30T15:31:45Z</time>
</trkpt>
<trkpt lat="49.52454" lon="10.215858">
<ele>366.098</ele>
<time>2019-05-30T15:31:46Z</time>
</trkpt>
<trkpt lat="49.524517" lon="10.215897">
<ele>366.353</ele>
<time>2019-05-30T15:31:47Z</time>
</trkpt>
<trkpt lat="49.524494" lon="10.215928">
<ele>366.54</ele>
<time>2019-05-30T15:31:48Z</time>
</trkpt>
<trkpt lat="49.524464" lon="10.215952">
<ele>366.639</ele>
<time>2019-05-30T15:31:49Z</time>
</trkpt>
<trkpt lat="49.524441" lon="10.215976">
<ele>366.976</ele>
<time>2019-05-30T15:31:50Z</time>
</trkpt>
<trkpt lat="49.52441" lon="10.215999">
<ele>367.26</ele>
<time>2019-05-30T15:31:51Z</time>
</trkpt>
<trkpt lat="49.52438" lon="10.21602">
<ele>367.477</ele>
<time>2019-05-30T15:31:52Z</time>
</trkpt>
<trkpt lat="49.524345" lon="10.216037">
<ele>367.623</ele>
<time>2019-05-30T15:31:53Z</time>
</trkpt>
<trkpt lat="49.524311" lon="10.216048">
<ele>367.973</ele>
<time>2019-05-30T15:31:54Z</time>
</trkpt>
<trkpt lat="49.524281" lon="10.216057">
<ele>368.253</ele>
<time>2019-05-30T15:31:55Z</time>
</trkpt>
<trkpt lat="49.524246" lon="10.216058">
<ele>368.47</ele>
<time>2019-05-30T15:31:56Z</time>
</trkpt>
<trkpt lat="49.524216" lon="10.216057">
<ele>368.623</ele>
<time>2019-05-30T15:31:57Z</time>
</trkpt>
<trkpt lat="49.524178" lon="10.216058">
<ele>368.719</ele>
<time>2019-05-30T15:31:58Z</time>
</trkpt>
<trkpt lat="49.524143" lon="10.216053">
<ele>369</ele>
<time>2019-05-30T15:31:59Z</time>
</trkpt>
<trkpt lat="49.524109" lon="10.21605">
<ele>369.215</ele>
<time>2019-05-30T15:32:00Z</time>
</trkpt>
<trkpt lat="49.524078" lon="10.216046">
<ele>369.41</ele>
<time>2019-05-30T15:32:01Z</time>
</trkpt>
<trkpt lat="49.524048" lon="10.216037">
<ele>369.546</ele>
<time>2019-05-30T15:32:02Z</time>
</trkpt>
<trkpt lat="49.524021" lon="10.216025">
<ele>369.636</ele>
<time>2019-05-30T15:32:03Z</time>
</trkpt>
<trkpt lat="49.523991" lon="10.21601">
<ele>369.936</ele>
<time>2019-05-30T15:32:04Z</time>
</trkpt>
<trkpt lat="49.52396" lon="10.215995">
<ele>370.175</ele>
<time>2019-05-30T15:32:05Z</time>
</trkpt>
<trkpt lat="49.52393" lon="10.215978">
<ele>370.355</ele>
<time>2019-05-30T15:32:06Z</time>
</trkpt>
<trkpt lat="49.523899" lon="10.215961">
<ele>370.522</ele>
<time>2019-05-30T15:32:07Z</time>
</trkpt>
<trkpt lat="49.523869" lon="10.215946">
<ele>370.583</ele>
<time>2019-05-30T15:32:08Z</time>
</trkpt>
<trkpt lat="49.523834" lon="10.215936">
<ele>370.88</ele>
<time>2019-05-30T15:32:09Z</time>
</trkpt>
<trkpt lat="49.523804" lon="10.215923">
<ele>371.099</ele>
<time>2019-05-30T15:32:10Z</time>
</trkpt>
<trkpt lat="49.523769" lon="10.215908">
<ele>371.294</ele>
<time>2019-05-30T15:32:11Z</time>
</trkpt>
<trkpt lat="49.523739" lon="10.215895">
<ele>371.42</ele>
<time>2019-05-30T15:32:12Z</time>
</trkpt>
<trkpt lat="49.523708" lon="10.215881">
<ele>371.524</ele>
<time>2019-05-30T15:32:13Z</time>
</trkpt>
<trkpt lat="49.523678" lon="10.215871">
<ele>371.588</ele>
<time>2019-05-30T15:32:14Z</time>
</trkpt>
<trkpt lat="49.523647" lon="10.215857">
<ele>371.866</ele>
<time>2019-05-30T15:32:15Z</time>
</trkpt>
<trkpt lat="49.523617" lon="10.215845">
<ele>372.082</ele>
<time>2019-05-30T15:32:16Z</time>
</trkpt>
<trkpt lat="49.523582" lon="10.21583">
<ele>372.266</ele>
<time>2019-05-30T15:32:17Z</time>
</trkpt>
<trkpt lat="49.523556" lon="10.215816">
<ele>372.382</ele>
<time>2019-05-30T15:32:18Z</time>
</trkpt>
<trkpt lat="49.523525" lon="10.215801">
<ele>372.463</ele>
<time>2019-05-30T15:32:19Z</time>
</trkpt>
<trkpt lat="49.523499" lon="10.215785">
<ele>372.524</ele>
<time>2019-05-30T15:32:20Z</time>
</trkpt>
<trkpt lat="49.523472" lon="10.215768">
<ele>372.577</ele>
<time>2019-05-30T15:32:21Z</time>
</trkpt>
<trkpt lat="49.523441" lon="10.215752">
<ele>372.809</ele>
<time>2019-05-30T15:32:22Z</time>
</trkpt>
<trkpt lat="49.523411" lon="10.215736">
<ele>373.056</ele>
<time>2019-05-30T15:32:23Z</time>
</trkpt>
<trkpt lat="49.523384" lon="10.215724">
<ele>373.2</ele>
<time>2019-05-30T15:32:24Z</time>
</trkpt>
<trkpt lat="49.52335" lon="10.215708">
<ele>373.29</ele>
<time>2019-05-30T15:32:25Z</time>
</trkpt>
<trkpt lat="49.523323" lon="10.215695">
<ele>373.692</ele>
<time>2019-05-30T15:32:26Z</time>
</trkpt>
<trkpt lat="49.523289" lon="10.21568">
<ele>373.989</ele>
<time>2019-05-30T15:32:27Z</time>
</trkpt>
<trkpt lat="49.523262" lon="10.215663">
<ele>374.204</ele>
<time>2019-05-30T15:32:28Z</time>
</trkpt>
<trkpt lat="49.523228" lon="10.215651">
<ele>374.358</ele>
<time>2019-05-30T15:32:29Z</time>
</trkpt>
<trkpt lat="49.523197" lon="10.215636">
<ele>374.452</ele>
<time>2019-05-30T15:32:30Z</time>
</trkpt>
<trkpt lat="49.523167" lon="10.215626">
<ele>374.552</ele>
<time>2019-05-30T15:32:31Z</time>
</trkpt>
<trkpt lat="49.523136" lon="10.21561">
<ele>374.871</ele>
<time>2019-05-30T15:32:32Z</time>
</trkpt>
<trkpt lat="49.523106" lon="10.215598">
<ele>375.111</ele>
<time>2019-05-30T15:32:33Z</time>
</trkpt>
<trkpt lat="49.523075" lon="10.215586">
<ele>375.374</ele>
<time>2019-05-30T15:32:34Z</time>
</trkpt>
<trkpt lat="49.523045" lon="10.215569">
<ele>375.506</ele>
<time>2019-05-30T15:32:35Z</time>
</trkpt>
<trkpt lat="49.52301" lon="10.215557">
<ele>375.575</ele>
<time>2019-05-30T15:32:36Z</time>
</trkpt>
<trkpt lat="49.522984" lon="10.21554">
<ele>375.866</ele>
<time>2019-05-30T15:32:37Z</time>
</trkpt>
<trkpt lat="49.522949" lon="10.215528">
<ele>376.058</ele>
<time>2019-05-30T15:32:38Z</time>
</trkpt>
<trkpt lat="49.522919" lon="10.215513">
<ele>376.201</ele>
<time>2019-05-30T15:32:39Z</time>
</trkpt>
<trkpt lat="49.522888" lon="10.215496">
<ele>376.292</ele>
<time>2019-05-30T15:32:40Z</time>
</trkpt>
<trkpt lat="49.522858" lon="10.215482">
<ele>376.388</ele>
<time>2019-05-30T15:32:41Z</time>
</trkpt>
<trkpt lat="49.522827" lon="10.215465">
<ele>376.708</ele>
<time>2019-05-30T15:32:42Z</time>
</trkpt>
<trkpt lat="49.522797" lon="10.21545">
<ele>376.964</ele>
<time>2019-05-30T15:32:43Z</time>
</trkpt>
<trkpt lat="49.522766" lon="10.215437">
<ele>377.16</ele>
<time>2019-05-30T15:32:44Z</time>
</trkpt>
<trkpt lat="49.522736" lon="10.21542">
<ele>377.384</ele>
<time>2019-05-30T15:32:45Z</time>
</trkpt>
<trkpt lat="49.522705" lon="10.215402">
<ele>377.453</ele>
<time>2019-05-30T15:32:46Z</time>
</trkpt>
<trkpt lat="49.522671" lon="10.215388">
<ele>377.758</ele>
<time>2019-05-30T15:32:47Z</time>
</trkpt>
<trkpt lat="49.52264" lon="10.215379">
<ele>377.975</ele>
<time>2019-05-30T15:32:48Z</time>
</trkpt>
<trkpt lat="49.522606" lon="10.215375">
<ele>378.133</ele>
<time>2019-05-30T15:32:49Z</time>
</trkpt>
<trkpt lat="49.522572" lon="10.215377">
<ele>378.232</ele>
<time>2019-05-30T15:32:50Z</time>
</trkpt>
<trkpt lat="49.522541" lon="10.215386">
<ele>378.342</ele>
<time>2019-05-30T15:32:51Z</time>
</trkpt>
<trkpt lat="49.522511" lon="10.215402">
<ele>378.419</ele>
<time>2019-05-30T15:32:52Z</time>
</trkpt>
<trkpt lat="49.522488" lon="10.215425">
<ele>378.467</ele>
<time>2019-05-30T15:32:53Z</time>
</trkpt>
<trkpt lat="49.522465" lon="10.215455">
<ele>378.717</ele>
<time>2019-05-30T15:32:54Z</time>
</trkpt>
<trkpt lat="49.522438" lon="10.215487">
<ele>378.958</ele>
<time>2019-05-30T15:32:55Z</time>
</trkpt>
<trkpt lat="49.522411" lon="10.215522">
<ele>379.115</ele>
<time>2019-05-30T15:32:56Z</time>
</trkpt>
<trkpt lat="49.522385" lon="10.215552">
<ele>379.231</ele>
<time>2019-05-30T15:32:57Z</time>
</trkpt>
<trkpt lat="49.522358" lon="10.215578">
<ele>379.313</ele>
<time>2019-05-30T15:32:58Z</time>
</trkpt>
<trkpt lat="49.522331" lon="10.215602">
<ele>379.352</ele>
<time>2019-05-30T15:32:59Z</time>
</trkpt>
<trkpt lat="49.522305" lon="10.215631">
<ele>379.596</ele>
<time>2019-05-30T15:33:00Z</time>
</trkpt>
<trkpt lat="49.522282" lon="10.21566">
<ele>379.803</ele>
<time>2019-05-30T15:33:01Z</time>
</trkpt>
<trkpt lat="49.522247" lon="10.215682">
<ele>379.95</ele>
<time>2019-05-30T15:33:02Z</time>
</trkpt>
<trkpt lat="49.522217" lon="10.215698">
<ele>380.065</ele>
<time>2019-05-30T15:33:03Z</time>
</trkpt>
<trkpt lat="49.522186" lon="10.21572">
<ele>380.156</ele>
<time>2019-05-30T15:33:04Z</time>
</trkpt>
<trkpt lat="49.522156" lon="10.215738">
<ele>380.223</ele>
<time>2019-05-30T15:33:05Z</time>
</trkpt>
<trkpt lat="49.522129" lon="10.215755">
<ele>380.265</ele>
<time>2019-05-30T15:33:06Z</time>
</trkpt>
<trkpt lat="49.522102" lon="10.215772">
<ele>380.285</ele>
<time>2019-05-30T15:33:07Z</time>
</trkpt>
<trkpt lat="49.522076" lon="10.215792">
<ele>380.535</ele>
<time>2019-05-30T15:33:08Z</time>
</trkpt>
<trkpt lat="49.522045" lon="10.215806">
<ele>380.737</ele>
<time>2019-05-30T15:33:09Z</time>
</trkpt>
<trkpt lat="49.522018" lon="10.215827">
<ele>380.875</ele>
<time>2019-05-30T15:33:10Z</time>
</trkpt>
<trkpt lat="49.521984" lon="10.215841">
<ele>381.027</ele>
<time>2019-05-30T15:33:11Z</time>
</trkpt>
<trkpt lat="49.52195" lon="10.215863">
<ele>381.144</ele>
<time>2019-05-30T15:33:12Z</time>
</trkpt>
<trkpt lat="49.521923" lon="10.215885">
<ele>381.233</ele>
<time>2019-05-30T15:33:13Z</time>
</trkpt>
<trkpt lat="49.521889" lon="10.215906">
<ele>381.282</ele>
<time>2019-05-30T15:33:14Z</time>
</trkpt>
<trkpt lat="49.521854" lon="10.21593">
<ele>381.568</ele>
<time>2019-05-30T15:33:15Z</time>
</trkpt>
<trkpt lat="49.52182" lon="10.215953">
<ele>381.817</ele>
<time>2019-05-30T15:33:16Z</time>
</trkpt>
<trkpt lat="49.52179" lon="10.215976">
<ele>381.985</ele>
<time>2019-05-30T15:33:17Z</time>
</trkpt>
<trkpt lat="49.521763" lon="10.215995">
<ele>382.102</ele>
<time>2019-05-30T15:33:18Z</time>
</trkpt>
<trkpt lat="49.521732" lon="10.216017">
<ele>382.184</ele>
<time>2019-05-30T15:33:19Z</time>
</trkpt>
<trkpt lat="49.521702" lon="10.216037">
<ele>382.248</ele>
<time>2019-05-30T15:33:20Z</time>
</trkpt>
<trkpt lat="49.521667" lon="10.216057">
<ele>382.308</ele>
<time>2019-05-30T15:33:21Z</time>
</trkpt>
<trkpt lat="49.521641" lon="10.216079">
<ele>382.334</ele>
<time>2019-05-30T15:33:22Z</time>
</trkpt>
<trkpt lat="49.52161" lon="10.216099">
<ele>382.334</ele>
<time>2019-05-30T15:33:23Z</time>
</trkpt>
<trkpt lat="49.52158" lon="10.216118">
<ele>382.594</ele>
<time>2019-05-30T15:33:24Z</time>
</trkpt>
<trkpt lat="49.521549" lon="10.216139">
<ele>382.806</ele>
<time>2019-05-30T15:33:25Z</time>
</trkpt>
<trkpt lat="49.521526" lon="10.216162">
<ele>382.963</ele>
<time>2019-05-30T15:33:26Z</time>
</trkpt>
<trkpt lat="49.521496" lon="10.216187">
<ele>383.073</ele>
<time>2019-05-30T15:33:27Z</time>
</trkpt>
<trkpt lat="49.521469" lon="10.216207">
<ele>383.153</ele>
<time>2019-05-30T15:33:28Z</time>
</trkpt>
<trkpt lat="49.521446" lon="10.21622">
<ele>383.204</ele>
<time>2019-05-30T15:33:29Z</time>
</trkpt>
<trkpt lat="49.521423" lon="10.216231">
<ele>383.247</ele>
<time>2019-05-30T15:33:30Z</time>
</trkpt>
<trkpt lat="49.5214" lon="10.216247">
<ele>383.274</ele>
<time>2019-05-30T15:33:31Z</time>
</trkpt>
<trkpt lat="49.521374" lon="10.216262">
<ele>383.515</ele>
<time>2019-05-30T15:33:32Z</time>
</trkpt>
<trkpt lat="49.521347" lon="10.216275">
<ele>383.709</ele>
<time>2019-05-30T15:33:33Z</time>
</trkpt>
<trkpt lat="49.52132" lon="10.216291">
<ele>383.863</ele>
<time>2019-05-30T15:33:34Z</time>
</trkpt>
<trkpt lat="49.521294" lon="10.216311">
<ele>383.971</ele>
<time>2019-05-30T15:33:35Z</time>
</trkpt>
<trkpt lat="49.521267" lon="10.21633">
<ele>384.059</ele>
<time>2019-05-30T15:33:36Z</time>
</trkpt>
<trkpt lat="49.52124" lon="10.216352">
<ele>384.108</ele>
<time>2019-05-30T15:33:37Z</time>
</trkpt>
<trkpt lat="49.521217" lon="10.216375">
<ele>384.128</ele>
<time>2019-05-30T15:33:38Z</time>
</trkpt>
<trkpt lat="49.521191" lon="10.216398">
<ele>384.128</ele>
<time>2019-05-30T15:33:39Z</time>
</trkpt>
<trkpt lat="49.52116" lon="10.216416">
<ele>384.128</ele>
<time>2019-05-30T15:33:40Z</time>
</trkpt>
<trkpt lat="49.521133" lon="10.216436">
<ele>384.128</ele>
<time>2019-05-30T15:33:41Z</time>
</trkpt>
<trkpt lat="49.521107" lon="10.216457">
<ele>384.128</ele>
<time>2019-05-30T15:33:42Z</time>
</trkpt>
<trkpt lat="49.521072" lon="10.216476">
<ele>384.128</ele>
<time>2019-05-30T15:33:43Z</time>
</trkpt>
<trkpt lat="49.521042" lon="10.216497">
<ele>384.128</ele>
<time>2019-05-30T15:33:44Z</time>
</trkpt>
<trkpt lat="49.521015" lon="10.216514">
<ele>384.433</ele>
<time>2019-05-30T15:33:45Z</time>
</trkpt>
<trkpt lat="49.520988" lon="10.216533">
<ele>384.666</ele>
<time>2019-05-30T15:33:46Z</time>
</trkpt>
<trkpt lat="49.520962" lon="10.216556">
<ele>384.843</ele>
<time>2019-05-30T15:33:47Z</time>
</trkpt>
<trkpt lat="49.520931" lon="10.216575">
<ele>384.975</ele>
<time>2019-05-30T15:33:48Z</time>
</trkpt>
<trkpt lat="49.520905" lon="10.216594">
<ele>385.076</ele>
<time>2019-05-30T15:33:49Z</time>
</trkpt>
<trkpt lat="49.520878" lon="10.21661">
<ele>385.146</ele>
<time>2019-05-30T15:33:50Z</time>
</trkpt>
<trkpt lat="49.520847" lon="10.216627">
<ele>385.208</ele>
<time>2019-05-30T15:33:51Z</time>
</trkpt>
<trkpt lat="49.520824" lon="10.216643">
<ele>385.238</ele>
<time>2019-05-30T15:33:52Z</time>
</trkpt>
<trkpt lat="49.520798" lon="10.216661">
<ele>385.238</ele>
<time>2019-05-30T15:33:53Z</time>
</trkpt>
<trkpt lat="49.520771" lon="10.21668">
<ele>385.238</ele>
<time>2019-05-30T15:33:54Z</time>
</trkpt>
<trkpt lat="49.520748" lon="10.216695">
<ele>385.238</ele>
<time>2019-05-30T15:33:55Z</time>
</trkpt>
<trkpt lat="49.520718" lon="10.216706">
<ele>385.238</ele>
<time>2019-05-30T15:33:56Z</time>
</trkpt>
<trkpt lat="49.520695" lon="10.216718">
<ele>385.238</ele>
<time>2019-05-30T15:33:57Z</time>
</trkpt>
<trkpt lat="49.520672" lon="10.216732">
<ele>385.238</ele>
<time>2019-05-30T15:33:58Z</time>
</trkpt>
<trkpt lat="49.520645" lon="10.21675">
<ele>385.238</ele>
<time>2019-05-30T15:33:59Z</time>
</trkpt>
<trkpt lat="49.520615" lon="10.21677">
<ele>385.238</ele>
<time>2019-05-30T15:34:00Z</time>
</trkpt>
<trkpt lat="49.520584" lon="10.216791">
<ele>385.238</ele>
<time>2019-05-30T15:34:01Z</time>
</trkpt>
<trkpt lat="49.520557" lon="10.216815">
<ele>385.238</ele>
<time>2019-05-30T15:34:02Z</time>
</trkpt>
<trkpt lat="49.520531" lon="10.216839">
<ele>385.238</ele>
<time>2019-05-30T15:34:03Z</time>
</trkpt>
<trkpt lat="49.5205" lon="10.216864">
<ele>385.238</ele>
<time>2019-05-30T15:34:04Z</time>
</trkpt>
<trkpt lat="49.52047" lon="10.216888">
<ele>385.238</ele>
<time>2019-05-30T15:34:05Z</time>
</trkpt>
<trkpt lat="49.520439" lon="10.216914">
<ele>385.238</ele>
<time>2019-05-30T15:34:06Z</time>
</trkpt>
<trkpt lat="49.520409" lon="10.216937">
<ele>385.238</ele>
<time>2019-05-30T15:34:07Z</time>
</trkpt>
<trkpt lat="49.520374" lon="10.216963">
<ele>385.238</ele>
<time>2019-05-30T15:34:08Z</time>
</trkpt>
<trkpt lat="49.520344" lon="10.216991">
<ele>385.238</ele>
<time>2019-05-30T15:34:09Z</time>
</trkpt>
<trkpt lat="49.520313" lon="10.217017">
<ele>385.433</ele>
<time>2019-05-30T15:34:10Z</time>
</trkpt>
<trkpt lat="49.520283" lon="10.217042">
<ele>385.612</ele>
<time>2019-05-30T15:34:11Z</time>
</trkpt>
<trkpt lat="49.520252" lon="10.217065">
<ele>385.759</ele>
<time>2019-05-30T15:34:12Z</time>
</trkpt>
<trkpt lat="49.520218" lon="10.217092">
<ele>385.876</ele>
<time>2019-05-30T15:34:13Z</time>
</trkpt>
<trkpt lat="49.520187" lon="10.217115">
<ele>385.965</ele>
<time>2019-05-30T15:34:14Z</time>
</trkpt>
<trkpt lat="49.520153" lon="10.21714">
<ele>386.029</ele>
<time>2019-05-30T15:34:15Z</time>
</trkpt>
<trkpt lat="49.520119" lon="10.217165">
<ele>386.072</ele>
<time>2019-05-30T15:34:16Z</time>
</trkpt>
<trkpt lat="49.520084" lon="10.217192">
<ele>386.093</ele>
<time>2019-05-30T15:34:17Z</time>
</trkpt>
<trkpt lat="49.520054" lon="10.21722">
<ele>386.093</ele>
<time>2019-05-30T15:34:18Z</time>
</trkpt>
<trkpt lat="49.52002" lon="10.217245">
<ele>386.093</ele>
<time>2019-05-30T15:34:19Z</time>
</trkpt>
<trkpt lat="49.519985" lon="10.217268">
<ele>386.093</ele>
<time>2019-05-30T15:34:20Z</time>
</trkpt>
<trkpt lat="49.519951" lon="10.217294">
<ele>386.093</ele>
<time>2019-05-30T15:34:21Z</time>
</trkpt>
<trkpt lat="49.519917" lon="10.21732">
<ele>386.093</ele>
<time>2019-05-30T15:34:22Z</time>
</trkpt>
<trkpt lat="49.519882" lon="10.217348">
<ele>386.093</ele>
<time>2019-05-30T15:34:23Z</time>
</trkpt>
<trkpt lat="49.519852" lon="10.217377">
<ele>386.38</ele>
<time>2019-05-30T15:34:24Z</time>
</trkpt>
<trkpt lat="49.519814" lon="10.217404">
<ele>386.607</ele>
<time>2019-05-30T15:34:25Z</time>
</trkpt>
<trkpt lat="49.519783" lon="10.217436">
<ele>386.773</ele>
<time>2019-05-30T15:34:26Z</time>
</trkpt>
<trkpt lat="49.519745" lon="10.217463">
<ele>386.899</ele>
<time>2019-05-30T15:34:27Z</time>
</trkpt>
<trkpt lat="49.519711" lon="10.217492">
<ele>386.991</ele>
<time>2019-05-30T15:34:28Z</time>
</trkpt>
<trkpt lat="49.519676" lon="10.217518">
<ele>387.046</ele>
<time>2019-05-30T15:34:29Z</time>
</trkpt>
<trkpt lat="49.519642" lon="10.217543">
<ele>387.09</ele>
<time>2019-05-30T15:34:30Z</time>
</trkpt>
<trkpt lat="49.519608" lon="10.21757">
<ele>387.118</ele>
<time>2019-05-30T15:34:31Z</time>
</trkpt>
<trkpt lat="49.519573" lon="10.217593">
<ele>387.118</ele>
<time>2019-05-30T15:34:32Z</time>
</trkpt>
<trkpt lat="49.519539" lon="10.21762">
<ele>387.118</ele>
<time>2019-05-30T15:34:33Z</time>
</trkpt>
<trkpt lat="49.519505" lon="10.217646">
<ele>387.118</ele>
<time>2019-05-30T15:34:34Z</time>
</trkpt>
<trkpt lat="49.519466" lon="10.217671">
<ele>387.118</ele>
<time>2019-05-30T15:34:35Z</time>
</trkpt>
<trkpt lat="49.519428" lon="10.217698">
<ele>387.118</ele>
<time>2019-05-30T15:34:36Z</time>
</trkpt>
<trkpt lat="49.519394" lon="10.217725">
<ele>387.118</ele>
<time>2019-05-30T15:34:37Z</time>
</trkpt>
<trkpt lat="49.51936" lon="10.217752">
<ele>387.118</ele>
<time>2019-05-30T15:34:38Z</time>
</trkpt>
<trkpt lat="49.519329" lon="10.217782">
<ele>387.345</ele>
<time>2019-05-30T15:34:39Z</time>
</trkpt>
<trkpt lat="49.519299" lon="10.217812">
<ele>387.509</ele>
<time>2019-05-30T15:34:40Z</time>
</trkpt>
<trkpt lat="49.519264" lon="10.217838">
<ele>387.673</ele>
<time>2019-05-30T15:34:41Z</time>
</trkpt>
<trkpt lat="49.519234" lon="10.217861">
<ele>387.805</ele>
<time>2019-05-30T15:34:42Z</time>
</trkpt>
<trkpt lat="49.519199" lon="10.217884">
<ele>387.907</ele>
<time>2019-05-30T15:34:43Z</time>
</trkpt>
<trkpt lat="49.519165" lon="10.217908">
<ele>387.983</ele>
<time>2019-05-30T15:34:44Z</time>
</trkpt>
<trkpt lat="49.519131" lon="10.217933">
<ele>388.033</ele>
<time>2019-05-30T15:34:45Z</time>
</trkpt>
<trkpt lat="49.519093" lon="10.217957">
<ele>388.057</ele>
<time>2019-05-30T15:34:46Z</time>
</trkpt>
<trkpt lat="49.519058" lon="10.21798">
<ele>388.057</ele>
<time>2019-05-30T15:34:47Z</time>
</trkpt>
<trkpt lat="49.519024" lon="10.218003">
<ele>388.057</ele>
<time>2019-05-30T15:34:48Z</time>
</trkpt>
<trkpt lat="49.51899" lon="10.218027">
<ele>388.057</ele>
<time>2019-05-30T15:34:49Z</time>
</trkpt>
<trkpt lat="49.518955" lon="10.218054">
<ele>388.057</ele>
<time>2019-05-30T15:34:50Z</time>
</trkpt>
<trkpt lat="49.518921" lon="10.21808">
<ele>388.266</ele>
<time>2019-05-30T15:34:51Z</time>
</trkpt>
<trkpt lat="49.51889" lon="10.218108">
<ele>388.44</ele>
<time>2019-05-30T15:34:52Z</time>
</trkpt>
<trkpt lat="49.518856" lon="10.218134">
<ele>388.583</ele>
<time>2019-05-30T15:34:53Z</time>
</trkpt>
<trkpt lat="49.518822" lon="10.218157">
<ele>388.699</ele>
<time>2019-05-30T15:34:54Z</time>
</trkpt>
<trkpt lat="49.518787" lon="10.21818">
<ele>388.788</ele>
<time>2019-05-30T15:34:55Z</time>
</trkpt>
<trkpt lat="49.518749" lon="10.218204">
<ele>388.853</ele>
<time>2019-05-30T15:34:56Z</time>
</trkpt>
<trkpt lat="49.518711" lon="10.218228">
<ele>388.892</ele>
<time>2019-05-30T15:34:57Z</time>
</trkpt>
<trkpt lat="49.518673" lon="10.218253">
<ele>388.912</ele>
<time>2019-05-30T15:34:58Z</time>
</trkpt>
<trkpt lat="49.518635" lon="10.218276">
<ele>388.912</ele>
<time>2019-05-30T15:34:59Z</time>
</trkpt>
<trkpt lat="49.518597" lon="10.218304">
<ele>388.912</ele>
<time>2019-05-30T15:35:00Z</time>
</trkpt>
<trkpt lat="49.518562" lon="10.21833">
<ele>388.912</ele>
<time>2019-05-30T15:35:01Z</time>
</trkpt>
<trkpt lat="49.518528" lon="10.218356">
<ele>388.912</ele>
<time>2019-05-30T15:35:02Z</time>
</trkpt>
<trkpt lat="49.51849" lon="10.218383">
<ele>388.912</ele>
<time>2019-05-30T15:35:03Z</time>
</trkpt>
<trkpt lat="49.518456" lon="10.218409">
<ele>389.177</ele>
<time>2019-05-30T15:35:04Z</time>
</trkpt>
<trkpt lat="49.518417" lon="10.218433">
<ele>389.379</ele>
<time>2019-05-30T15:35:05Z</time>
</trkpt>
<trkpt lat="49.518383" lon="10.218458">
<ele>389.537</ele>
<time>2019-05-30T15:35:06Z</time>
</trkpt>
<trkpt lat="49.518345" lon="10.218485">
<ele>389.65</ele>
<time>2019-05-30T15:35:07Z</time>
</trkpt>
<trkpt lat="49.518311" lon="10.218513">
<ele>389.734</ele>
<time>2019-05-30T15:35:08Z</time>
</trkpt>
<trkpt lat="49.518272" lon="10.21854">
<ele>389.785</ele>
<time>2019-05-30T15:35:09Z</time>
</trkpt>
<trkpt lat="49.518238" lon="10.218563">
<ele>389.826</ele>
<time>2019-05-30T15:35:10Z</time>
</trkpt>
<trkpt lat="49.5182" lon="10.218586">
<ele>389.852</ele>
<time>2019-05-30T15:35:11Z</time>
</trkpt>
<trkpt lat="49.518162" lon="10.218612">
<ele>389.852</ele>
<time>2019-05-30T15:35:12Z</time>
</trkpt>
<trkpt lat="49.51812" lon="10.218641">
<ele>389.852</ele>
<time>2019-05-30T15:35:13Z</time>
</trkpt>
<trkpt lat="49.518082" lon="10.218668">
<ele>389.852</ele>
<time>2019-05-30T15:35:14Z</time>
</trkpt>
<trkpt lat="49.518044" lon="10.218695">
<ele>389.852</ele>
<time>2019-05-30T15:35:15Z</time>
</trkpt>
<trkpt lat="49.518009" lon="10.218722">
<ele>389.852</ele>
<time>2019-05-30T15:35:16Z</time>
</trkpt>
<trkpt lat="49.517967" lon="10.21875">
<ele>389.852</ele>
<time>2019-05-30T15:35:17Z</time>
</trkpt>
<trkpt lat="49.517925" lon="10.218773">
<ele>389.852</ele>
<time>2019-05-30T15:35:18Z</time>
</trkpt>
<trkpt lat="49.517887" lon="10.218798">
<ele>389.852</ele>
<time>2019-05-30T15:35:19Z</time>
</trkpt>
<trkpt lat="49.517845" lon="10.218823">
<ele>389.852</ele>
<time>2019-05-30T15:35:20Z</time>
</trkpt>
<trkpt lat="49.517807" lon="10.218854">
<ele>389.852</ele>
<time>2019-05-30T15:35:21Z</time>
</trkpt>
<trkpt lat="49.517765" lon="10.218884">
<ele>389.852</ele>
<time>2019-05-30T15:35:22Z</time>
</trkpt>
<trkpt lat="49.517727" lon="10.218911">
<ele>389.852</ele>
<time>2019-05-30T15:35:23Z</time>
</trkpt>
<trkpt lat="49.517685" lon="10.218938">
<ele>389.852</ele>
<time>2019-05-30T15:35:24Z</time>
</trkpt>
<trkpt lat="49.517647" lon="10.218968">
<ele>389.852</ele>
<time>2019-05-30T15:35:25Z</time>
</trkpt>
<trkpt lat="49.517605" lon="10.218999">
<ele>389.852</ele>
<time>2019-05-30T15:35:26Z</time>
</trkpt>
<trkpt lat="49.517563" lon="10.219027">
<ele>389.852</ele>
<time>2019-05-30T15:35:27Z</time>
</trkpt>
<trkpt lat="49.517521" lon="10.219055">
<ele>389.852</ele>
<time>2019-05-30T15:35:28Z</time>
</trkpt>
<trkpt lat="49.517483" lon="10.219085">
<ele>389.852</ele>
<time>2019-05-30T15:35:29Z</time>
</trkpt>
<trkpt lat="49.517441" lon="10.219113">
<ele>389.852</ele>
<time>2019-05-30T15:35:30Z</time>
</trkpt>
<trkpt lat="49.517399" lon="10.219143">
<ele>389.852</ele>
<time>2019-05-30T15:35:31Z</time>
</trkpt>
<trkpt lat="49.517357" lon="10.219175">
<ele>389.852</ele>
<time>2019-05-30T15:35:32Z</time>
</trkpt>
<trkpt lat="49.517323" lon="10.219204">
<ele>389.852</ele>
<time>2019-05-30T15:35:33Z</time>
</trkpt>
<trkpt lat="49.517281" lon="10.219232">
<ele>389.852</ele>
<time>2019-05-30T15:35:34Z</time>
</trkpt>
<trkpt lat="49.517239" lon="10.21926">
<ele>390.13</ele>
<time>2019-05-30T15:35:35Z</time>
</trkpt>
<trkpt lat="49.5172" lon="10.219288">
<ele>390.348</ele>
<time>2019-05-30T15:35:36Z</time>
</trkpt>
<trkpt lat="49.517162" lon="10.219317">
<ele>390.514</ele>
<time>2019-05-30T15:35:37Z</time>
</trkpt>
<trkpt lat="49.517124" lon="10.219345">
<ele>390.639</ele>
<time>2019-05-30T15:35:38Z</time>
</trkpt>
<trkpt lat="49.517082" lon="10.219372">
<ele>390.726</ele>
<time>2019-05-30T15:35:39Z</time>
</trkpt>
<trkpt lat="49.51704" lon="10.219398">
<ele>390.791</ele>
<time>2019-05-30T15:35:40Z</time>
</trkpt>
<trkpt lat="49.516998" lon="10.219426">
<ele>391.079</ele>
<time>2019-05-30T15:35:41Z</time>
</trkpt>
<trkpt lat="49.516956" lon="10.219454">
<ele>391.3</ele>
<time>2019-05-30T15:35:42Z</time>
</trkpt>
<trkpt lat="49.516914" lon="10.219481">
<ele>391.459</ele>
<time>2019-05-30T15:35:43Z</time>
</trkpt>
<trkpt lat="49.516869" lon="10.21951">
<ele>391.559</ele>
<time>2019-05-30T15:35:44Z</time>
</trkpt>
<trkpt lat="49.51683" lon="10.219538">
<ele>391.921</ele>
<time>2019-05-30T15:35:45Z</time>
</trkpt>
<trkpt lat="49.516788" lon="10.219566">
<ele>392.174</ele>
<time>2019-05-30T15:35:46Z</time>
</trkpt>
<trkpt lat="49.516747" lon="10.219596">
<ele>392.614</ele>
<time>2019-05-30T15:35:47Z</time>
</trkpt>
<trkpt lat="49.516708" lon="10.219625">
<ele>392.955</ele>
<time>2019-05-30T15:35:48Z</time>
</trkpt>
<trkpt lat="49.51667" lon="10.219653">
<ele>393.208</ele>
<time>2019-05-30T15:35:49Z</time>
</trkpt>
<trkpt lat="49.516632" lon="10.21968">
<ele>393.372</ele>
<time>2019-05-30T15:35:50Z</time>
</trkpt>
<trkpt lat="49.51659" lon="10.219707">
<ele>393.53</ele>
<time>2019-05-30T15:35:51Z</time>
</trkpt>
<trkpt lat="49.516552" lon="10.219732">
<ele>393.63</ele>
<time>2019-05-30T15:35:52Z</time>
</trkpt>
<trkpt lat="49.516514" lon="10.219755">
<ele>393.676</ele>
<time>2019-05-30T15:35:53Z</time>
</trkpt>
<trkpt lat="49.516476" lon="10.219778">
<ele>393.698</ele>
<time>2019-05-30T15:35:54Z</time>
</trkpt>
<trkpt lat="49.516445" lon="10.219804">
<ele>393.699</ele>
<time>2019-05-30T15:35:55Z</time>
</trkpt>
<trkpt lat="49.516411" lon="10.219831">
<ele>393.698</ele>
<time>2019-05-30T15:35:56Z</time>
</trkpt>
<trkpt lat="49.516373" lon="10.219855">
<ele>393.698</ele>
<time>2019-05-30T15:35:57Z</time>
</trkpt>
<trkpt lat="49.516342" lon="10.219881">
<ele>393.699</ele>
<time>2019-05-30T15:35:58Z</time>
</trkpt>
<trkpt lat="49.516308" lon="10.219909">
<ele>393.698</ele>
<time>2019-05-30T15:35:59Z</time>
</trkpt>
<trkpt lat="49.516273" lon="10.219934">
<ele>393.699</ele>
<time>2019-05-30T15:36:00Z</time>
</trkpt>
<trkpt lat="49.516239" lon="10.219958">
<ele>393.698</ele>
<time>2019-05-30T15:36:01Z</time>
</trkpt>
<trkpt lat="49.516201" lon="10.219983">
<ele>394.002</ele>
<time>2019-05-30T15:36:02Z</time>
</trkpt>
<trkpt lat="49.516163" lon="10.220009">
<ele>394.239</ele>
<time>2019-05-30T15:36:03Z</time>
</trkpt>
<trkpt lat="49.516129" lon="10.220034">
<ele>394.421</ele>
<time>2019-05-30T15:36:04Z</time>
</trkpt>
<trkpt lat="49.516094" lon="10.220061">
<ele>394.55</ele>
<time>2019-05-30T15:36:05Z</time>
</trkpt>
<trkpt lat="49.516056" lon="10.220092">
<ele>394.646</ele>
<time>2019-05-30T15:36:06Z</time>
</trkpt>
<trkpt lat="49.516022" lon="10.220121">
<ele>394.694</ele>
<time>2019-05-30T15:36:07Z</time>
</trkpt>
<trkpt lat="49.515991" lon="10.220149">
<ele>394.718</ele>
<time>2019-05-30T15:36:08Z</time>
</trkpt>
<trkpt lat="49.515957" lon="10.220175">
<ele>394.973</ele>
<time>2019-05-30T15:36:09Z</time>
</trkpt>
<trkpt lat="49.515926" lon="10.2202">
<ele>395.148</ele>
<time>2019-05-30T15:36:10Z</time>
</trkpt>
<trkpt lat="49.515892" lon="10.220228">
<ele>395.328</ele>
<time>2019-05-30T15:36:11Z</time>
</trkpt>
<trkpt lat="49.515862" lon="10.220257">
<ele>395.474</ele>
<time>2019-05-30T15:36:12Z</time>
</trkpt>
<trkpt lat="49.515835" lon="10.220287">
<ele>395.587</ele>
<time>2019-05-30T15:36:13Z</time>
</trkpt>
<trkpt lat="49.515804" lon="10.220319">
<ele>395.67</ele>
<time>2019-05-30T15:36:14Z</time>
</trkpt>
<trkpt lat="49.515774" lon="10.220346">
<ele>395.721</ele>
<time>2019-05-30T15:36:15Z</time>
</trkpt>
<trkpt lat="49.515747" lon="10.220377">
<ele>395.996</ele>
<time>2019-05-30T15:36:16Z</time>
</trkpt>
<trkpt lat="49.51572" lon="10.220408">
<ele>396.227</ele>
<time>2019-05-30T15:36:17Z</time>
</trkpt>
<trkpt lat="49.51569" lon="10.22044">
<ele>396.391</ele>
<time>2019-05-30T15:36:18Z</time>
</trkpt>
<trkpt lat="49.515663" lon="10.220473">
<ele>396.516</ele>
<time>2019-05-30T15:36:19Z</time>
</trkpt>
<trkpt lat="49.515633" lon="10.220508">
<ele>396.604</ele>
<time>2019-05-30T15:36:20Z</time>
</trkpt>
<trkpt lat="49.515606" lon="10.220545">
<ele>396.694</ele>
<time>2019-05-30T15:36:21Z</time>
</trkpt>
<trkpt lat="49.515575" lon="10.22058">
<ele>396.749</ele>
<time>2019-05-30T15:36:22Z</time>
</trkpt>
<trkpt lat="49.515549" lon="10.220614">
<ele>396.776</ele>
<time>2019-05-30T15:36:23Z</time>
</trkpt>
<trkpt lat="49.515522" lon="10.22065">
<ele>396.776</ele>
<time>2019-05-30T15:36:24Z</time>
</trkpt>
<trkpt lat="49.515491" lon="10.220687">
<ele>397.081</ele>
<time>2019-05-30T15:36:25Z</time>
</trkpt>
<trkpt lat="49.515465" lon="10.220723">
<ele>397.316</ele>
<time>2019-05-30T15:36:26Z</time>
</trkpt>
<trkpt lat="49.515434" lon="10.220763">
<ele>397.495</ele>
<time>2019-05-30T15:36:27Z</time>
</trkpt>
<trkpt lat="49.515404" lon="10.220801">
<ele>397.633</ele>
<time>2019-05-30T15:36:28Z</time>
</trkpt>
<trkpt lat="49.515377" lon="10.220839">
<ele>397.727</ele>
<time>2019-05-30T15:36:29Z</time>
</trkpt>
<trkpt lat="49.515347" lon="10.220875">
<ele>397.797</ele>
<time>2019-05-30T15:36:30Z</time>
</trkpt>
<trkpt lat="49.515316" lon="10.220914">
<ele>397.859</ele>
<time>2019-05-30T15:36:31Z</time>
</trkpt>
<trkpt lat="49.515285" lon="10.220952">
<ele>397.888</ele>
<time>2019-05-30T15:36:32Z</time>
</trkpt>
<trkpt lat="49.515259" lon="10.220989">
<ele>397.888</ele>
<time>2019-05-30T15:36:33Z</time>
</trkpt>
<trkpt lat="49.515224" lon="10.221028">
<ele>398.155</ele>
<time>2019-05-30T15:36:34Z</time>
</trkpt>
<trkpt lat="49.515194" lon="10.221066">
<ele>398.359</ele>
<time>2019-05-30T15:36:35Z</time>
</trkpt>
<trkpt lat="49.515163" lon="10.221103">
<ele>398.515</ele>
<time>2019-05-30T15:36:36Z</time>
</trkpt>
<trkpt lat="49.515133" lon="10.221142">
<ele>398.629</ele>
<time>2019-05-30T15:36:37Z</time>
</trkpt>
<trkpt lat="49.515106" lon="10.221182">
<ele>398.708</ele>
<time>2019-05-30T15:36:38Z</time>
</trkpt>
<trkpt lat="49.515076" lon="10.22122">
<ele>398.762</ele>
<time>2019-05-30T15:36:39Z</time>
</trkpt>
<trkpt lat="49.515045" lon="10.221258">
<ele>398.803</ele>
<time>2019-05-30T15:36:40Z</time>
</trkpt>
<trkpt lat="49.515015" lon="10.221293">
<ele>398.829</ele>
<time>2019-05-30T15:36:41Z</time>
</trkpt>
<trkpt lat="49.514988" lon="10.221331">
<ele>398.829</ele>
<time>2019-05-30T15:36:42Z</time>
</trkpt>
<trkpt lat="49.514957" lon="10.221367">
<ele>399.098</ele>
<time>2019-05-30T15:36:43Z</time>
</trkpt>
<trkpt lat="49.514931" lon="10.221405">
<ele>399.309</ele>
<time>2019-05-30T15:36:44Z</time>
</trkpt>
<trkpt lat="49.514904" lon="10.221445">
<ele>399.466</ele>
<time>2019-05-30T15:36:45Z</time>
</trkpt>
<trkpt lat="49.514874" lon="10.221485">
<ele>399.59</ele>
<time>2019-05-30T15:36:46Z</time>
</trkpt>
<trkpt lat="49.514843" lon="10.221519">
<ele>399.672</ele>
<time>2019-05-30T15:36:47Z</time>
</trkpt>
<trkpt lat="49.514812" lon="10.221553">
<ele>399.724</ele>
<time>2019-05-30T15:36:48Z</time>
</trkpt>
<trkpt lat="49.514782" lon="10.221586">
<ele>399.748</ele>
<time>2019-05-30T15:36:49Z</time>
</trkpt>
<trkpt lat="49.514751" lon="10.221623">
<ele>399.77</ele>
<time>2019-05-30T15:36:50Z</time>
</trkpt>
<trkpt lat="49.514721" lon="10.221662">
<ele>399.77</ele>
<time>2019-05-30T15:36:51Z</time>
</trkpt>
<trkpt lat="49.514694" lon="10.221698">
<ele>399.77</ele>
<time>2019-05-30T15:36:52Z</time>
</trkpt>
<trkpt lat="49.514664" lon="10.221733">
<ele>399.77</ele>
<time>2019-05-30T15:36:53Z</time>
</trkpt>
<trkpt lat="49.514633" lon="10.221768">
<ele>399.77</ele>
<time>2019-05-30T15:36:54Z</time>
</trkpt>
<trkpt lat="49.514603" lon="10.221804">
<ele>399.77</ele>
<time>2019-05-30T15:36:55Z</time>
</trkpt>
<trkpt lat="49.514576" lon="10.22184">
<ele>399.995</ele>
<time>2019-05-30T15:36:56Z</time>
</trkpt>
<trkpt lat="49.514545" lon="10.221875">
<ele>400.171</ele>
<time>2019-05-30T15:36:57Z</time>
</trkpt>
<trkpt lat="49.514515" lon="10.221909">
<ele>400.305</ele>
<time>2019-05-30T15:36:58Z</time>
</trkpt>
<trkpt lat="49.514488" lon="10.221942">
<ele>400.41</ele>
<time>2019-05-30T15:36:59Z</time>
</trkpt>
<trkpt lat="49.514454" lon="10.221972">
<ele>400.482</ele>
<time>2019-05-30T15:37:00Z</time>
</trkpt>
<trkpt lat="49.514423" lon="10.222005">
<ele>400.556</ele>
<time>2019-05-30T15:37:01Z</time>
</trkpt>
<trkpt lat="49.5144" lon="10.222045">
<ele>400.603</ele>
<time>2019-05-30T15:37:02Z</time>
</trkpt>
<trkpt lat="49.514385" lon="10.222092">
<ele>400.625</ele>
<time>2019-05-30T15:37:03Z</time>
</trkpt>
<trkpt lat="49.514374" lon="10.222141">
<ele>400.625</ele>
<time>2019-05-30T15:37:04Z</time>
</trkpt>
<trkpt lat="49.51437" lon="10.222192">
<ele>400.625</ele>
<time>2019-05-30T15:37:05Z</time>
</trkpt>
<trkpt lat="49.514374" lon="10.222244">
<ele>400.889</ele>
<time>2019-05-30T15:37:06Z</time>
</trkpt>
<trkpt lat="49.514378" lon="10.222295">
<ele>401.098</ele>
<time>2019-05-30T15:37:07Z</time>
</trkpt>
<trkpt lat="49.514389" lon="10.222351">
<ele>401.266</ele>
<time>2019-05-30T15:37:08Z</time>
</trkpt>
<trkpt lat="49.514397" lon="10.22241">
<ele>401.391</ele>
<time>2019-05-30T15:37:09Z</time>
</trkpt>
<trkpt lat="49.514412" lon="10.222466">
<ele>401.48</ele>
<time>2019-05-30T15:37:10Z</time>
</trkpt>
<trkpt lat="49.514423" lon="10.222529">
<ele>401.57</ele>
<time>2019-05-30T15:37:11Z</time>
</trkpt>
<trkpt lat="49.514431" lon="10.222594">
<ele>401.626</ele>
<time>2019-05-30T15:37:12Z</time>
</trkpt>
<trkpt lat="49.514446" lon="10.222659">
<ele>401.652</ele>
<time>2019-05-30T15:37:13Z</time>
</trkpt>
<trkpt lat="49.514458" lon="10.222725">
<ele>401.652</ele>
<time>2019-05-30T15:37:14Z</time>
</trkpt>
<trkpt lat="49.514477" lon="10.222792">
<ele>401.652</ele>
<time>2019-05-30T15:37:15Z</time>
</trkpt>
<trkpt lat="49.514492" lon="10.22286">
<ele>401.652</ele>
<time>2019-05-30T15:37:16Z</time>
</trkpt>
<trkpt lat="49.514507" lon="10.22293">
<ele>401.652</ele>
<time>2019-05-30T15:37:17Z</time>
</trkpt>
<trkpt lat="49.514523" lon="10.223003">
<ele>401.652</ele>
<time>2019-05-30T15:37:18Z</time>
</trkpt>
<trkpt lat="49.514542" lon="10.223076">
<ele>401.652</ele>
<time>2019-05-30T15:37:19Z</time>
</trkpt>
<trkpt lat="49.514557" lon="10.223149">
<ele>401.652</ele>
<time>2019-05-30T15:37:20Z</time>
</trkpt>
<trkpt lat="49.514576" lon="10.223223">
<ele>401.652</ele>
<time>2019-05-30T15:37:21Z</time>
</trkpt>
<trkpt lat="49.514591" lon="10.223298">
<ele>401.652</ele>
<time>2019-05-30T15:37:22Z</time>
</trkpt>
<trkpt lat="49.51461" lon="10.223373">
<ele>401.652</ele>
<time>2019-05-30T15:37:23Z</time>
</trkpt>
<trkpt lat="49.514626" lon="10.223451">
<ele>401.408</ele>
<time>2019-05-30T15:37:24Z</time>
</trkpt>
<trkpt lat="49.514645" lon="10.223527">
<ele>401.222</ele>
<time>2019-05-30T15:37:25Z</time>
</trkpt>
<trkpt lat="49.51466" lon="10.223603">
<ele>401.081</ele>
<time>2019-05-30T15:37:26Z</time>
</trkpt>
<trkpt lat="49.514679" lon="10.22368">
<ele>400.977</ele>
<time>2019-05-30T15:37:27Z</time>
</trkpt>
<trkpt lat="49.514694" lon="10.22376">
<ele>400.905</ele>
<time>2019-05-30T15:37:28Z</time>
</trkpt>
<trkpt lat="49.514713" lon="10.223842">
<ele>400.856</ele>
<time>2019-05-30T15:37:29Z</time>
</trkpt>
<trkpt lat="49.514732" lon="10.223922">
<ele>400.819</ele>
<time>2019-05-30T15:37:30Z</time>
</trkpt>
<trkpt lat="49.514751" lon="10.224004">
<ele>400.796</ele>
<time>2019-05-30T15:37:31Z</time>
</trkpt>
<trkpt lat="49.514771" lon="10.224084">
<ele>400.796</ele>
<time>2019-05-30T15:37:32Z</time>
</trkpt>
<trkpt lat="49.514786" lon="10.224163">
<ele>400.796</ele>
<time>2019-05-30T15:37:33Z</time>
</trkpt>
<trkpt lat="49.514801" lon="10.224245">
<ele>400.796</ele>
<time>2019-05-30T15:37:34Z</time>
</trkpt>
<trkpt lat="49.514812" lon="10.224325">
<ele>400.796</ele>
<time>2019-05-30T15:37:35Z</time>
</trkpt>
<trkpt lat="49.514832" lon="10.224408">
<ele>400.796</ele>
<time>2019-05-30T15:37:36Z</time>
</trkpt>
<trkpt lat="49.514847" lon="10.22449">
<ele>400.796</ele>
<time>2019-05-30T15:37:37Z</time>
</trkpt>
<trkpt lat="49.514858" lon="10.224575">
<ele>400.796</ele>
<time>2019-05-30T15:37:38Z</time>
</trkpt>
<trkpt lat="49.51487" lon="10.224662">
<ele>400.796</ele>
<time>2019-05-30T15:37:39Z</time>
</trkpt>
<trkpt lat="49.514881" lon="10.22475">
<ele>400.796</ele>
<time>2019-05-30T15:37:40Z</time>
</trkpt>
<trkpt lat="49.514893" lon="10.224838">
<ele>400.796</ele>
<time>2019-05-30T15:37:41Z</time>
</trkpt>
<trkpt lat="49.514904" lon="10.224925">
<ele>400.796</ele>
<time>2019-05-30T15:37:42Z</time>
</trkpt>
<trkpt lat="49.514912" lon="10.22501">
<ele>400.796</ele>
<time>2019-05-30T15:37:43Z</time>
</trkpt>
<trkpt lat="49.514919" lon="10.225097">
<ele>400.796</ele>
<time>2019-05-30T15:37:44Z</time>
</trkpt>
<trkpt lat="49.514931" lon="10.225185">
<ele>400.796</ele>
<time>2019-05-30T15:37:45Z</time>
</trkpt>
<trkpt lat="49.514938" lon="10.225273">
<ele>400.796</ele>
<time>2019-05-30T15:37:46Z</time>
</trkpt>
<trkpt lat="49.514946" lon="10.225364">
<ele>400.796</ele>
<time>2019-05-30T15:37:47Z</time>
</trkpt>
<trkpt lat="49.51495" lon="10.225453">
<ele>400.796</ele>
<time>2019-05-30T15:37:48Z</time>
</trkpt>
<trkpt lat="49.514957" lon="10.225545">
<ele>400.796</ele>
<time>2019-05-30T15:37:49Z</time>
</trkpt>
<trkpt lat="49.514961" lon="10.225636">
<ele>400.796</ele>
<time>2019-05-30T15:37:50Z</time>
</trkpt>
<trkpt lat="49.514961" lon="10.225728">
<ele>400.796</ele>
<time>2019-05-30T15:37:51Z</time>
</trkpt>
<trkpt lat="49.514965" lon="10.225819">
<ele>400.796</ele>
<time>2019-05-30T15:37:52Z</time>
</trkpt>
<trkpt lat="49.514965" lon="10.225908">
<ele>400.796</ele>
<time>2019-05-30T15:37:53Z</time>
</trkpt>
<trkpt lat="49.514965" lon="10.225999">
<ele>400.796</ele>
<time>2019-05-30T15:37:54Z</time>
</trkpt>
<trkpt lat="49.514965" lon="10.226089">
<ele>400.541</ele>
<time>2019-05-30T15:37:55Z</time>
</trkpt>
<trkpt lat="49.514961" lon="10.226176">
<ele>400.343</ele>
<time>2019-05-30T15:37:56Z</time>
</trkpt>
<trkpt lat="49.514957" lon="10.226267">
<ele>400.19</ele>
<time>2019-05-30T15:37:57Z</time>
</trkpt>
<trkpt lat="49.514954" lon="10.226355">
<ele>400.077</ele>
<time>2019-05-30T15:37:58Z</time>
</trkpt>
<trkpt lat="49.51495" lon="10.226443">
<ele>399.994</ele>
<time>2019-05-30T15:37:59Z</time>
</trkpt>
<trkpt lat="49.514946" lon="10.22653">
<ele>399.934</ele>
<time>2019-05-30T15:38:00Z</time>
</trkpt>
<trkpt lat="49.514942" lon="10.226619">
<ele>399.881</ele>
<time>2019-05-30T15:38:01Z</time>
</trkpt>
<trkpt lat="49.514935" lon="10.226705">
<ele>399.855</ele>
<time>2019-05-30T15:38:02Z</time>
</trkpt>
<trkpt lat="49.514927" lon="10.22679">
<ele>399.855</ele>
<time>2019-05-30T15:38:03Z</time>
</trkpt>
<trkpt lat="49.514919" lon="10.226876">
<ele>399.855</ele>
<time>2019-05-30T15:38:04Z</time>
</trkpt>
<trkpt lat="49.514912" lon="10.226963">
<ele>399.855</ele>
<time>2019-05-30T15:38:05Z</time>
</trkpt>
<trkpt lat="49.514908" lon="10.227048">
<ele>399.855</ele>
<time>2019-05-30T15:38:06Z</time>
</trkpt>
<trkpt lat="49.5149" lon="10.227134">
<ele>399.855</ele>
<time>2019-05-30T15:38:07Z</time>
</trkpt>
<trkpt lat="49.514889" lon="10.227217">
<ele>399.855</ele>
<time>2019-05-30T15:38:08Z</time>
</trkpt>
<trkpt lat="49.514881" lon="10.2273">
<ele>399.855</ele>
<time>2019-05-30T15:38:09Z</time>
</trkpt>
<trkpt lat="49.51487" lon="10.227386">
<ele>399.855</ele>
<time>2019-05-30T15:38:10Z</time>
</trkpt>
<trkpt lat="49.514862" lon="10.227468">
<ele>399.855</ele>
<time>2019-05-30T15:38:11Z</time>
</trkpt>
<trkpt lat="49.514851" lon="10.227553">
<ele>399.855</ele>
<time>2019-05-30T15:38:12Z</time>
</trkpt>
<trkpt lat="49.514847" lon="10.227636">
<ele>400.127</ele>
<time>2019-05-30T15:38:13Z</time>
</trkpt>
<trkpt lat="49.514839" lon="10.227721">
<ele>400.34</ele>
<time>2019-05-30T15:38:14Z</time>
</trkpt>
<trkpt lat="49.514832" lon="10.227805">
<ele>400.5</ele>
<time>2019-05-30T15:38:15Z</time>
</trkpt>
<trkpt lat="49.514824" lon="10.227892">
<ele>400.619</ele>
<time>2019-05-30T15:38:16Z</time>
</trkpt>
<trkpt lat="49.514812" lon="10.227977">
<ele>400.7</ele>
<time>2019-05-30T15:38:17Z</time>
</trkpt>
<trkpt lat="49.514805" lon="10.228062">
<ele>400.75</ele>
<time>2019-05-30T15:38:18Z</time>
</trkpt>
<trkpt lat="49.514797" lon="10.228148">
<ele>400.775</ele>
<time>2019-05-30T15:38:19Z</time>
</trkpt>
<trkpt lat="49.514786" lon="10.228233">
<ele>400.796</ele>
<time>2019-05-30T15:38:20Z</time>
</trkpt>
<trkpt lat="49.514782" lon="10.228318">
<ele>400.796</ele>
<time>2019-05-30T15:38:21Z</time>
</trkpt>
<trkpt lat="49.514771" lon="10.228406">
<ele>400.796</ele>
<time>2019-05-30T15:38:22Z</time>
</trkpt>
<trkpt lat="49.514763" lon="10.228496">
<ele>400.796</ele>
<time>2019-05-30T15:38:23Z</time>
</trkpt>
<trkpt lat="49.514755" lon="10.228585">
<ele>400.796</ele>
<time>2019-05-30T15:38:24Z</time>
</trkpt>
<trkpt lat="49.514748" lon="10.228672">
<ele>400.796</ele>
<time>2019-05-30T15:38:25Z</time>
</trkpt>
<trkpt lat="49.51474" lon="10.228758">
<ele>400.796</ele>
<time>2019-05-30T15:38:26Z</time>
</trkpt>
<trkpt lat="49.514729" lon="10.228846">
<ele>400.796</ele>
<time>2019-05-30T15:38:27Z</time>
</trkpt>
<trkpt lat="49.514721" lon="10.228931">
<ele>400.796</ele>
<time>2019-05-30T15:38:28Z</time>
</trkpt>
<trkpt lat="49.514713" lon="10.229018">
<ele>400.796</ele>
<time>2019-05-30T15:38:29Z</time>
</trkpt>
<trkpt lat="49.514706" lon="10.229105">
<ele>400.796</ele>
<time>2019-05-30T15:38:30Z</time>
</trkpt>
<trkpt lat="49.514694" lon="10.229192">
<ele>400.796</ele>
<time>2019-05-30T15:38:31Z</time>
</trkpt>
<trkpt lat="49.514683" lon="10.229278">
<ele>400.796</ele>
<time>2019-05-30T15:38:32Z</time>
</trkpt>
<trkpt lat="49.514675" lon="10.229367">
<ele>400.796</ele>
<time>2019-05-30T15:38:33Z</time>
</trkpt>
<trkpt lat="49.514664" lon="10.229453">
<ele>400.796</ele>
<time>2019-05-30T15:38:34Z</time>
</trkpt>
<trkpt lat="49.514652" lon="10.22954">
<ele>400.796</ele>
<time>2019-05-30T15:38:35Z</time>
</trkpt>
<trkpt lat="49.514648" lon="10.229629">
<ele>400.796</ele>
<time>2019-05-30T15:38:36Z</time>
</trkpt>
<trkpt lat="49.514637" lon="10.229718">
<ele>400.796</ele>
<time>2019-05-30T15:38:37Z</time>
</trkpt>
<trkpt lat="49.514629" lon="10.229807">
<ele>401.01</ele>
<time>2019-05-30T15:38:38Z</time>
</trkpt>
<trkpt lat="49.514618" lon="10.229897">
<ele>401.18</ele>
<time>2019-05-30T15:38:39Z</time>
</trkpt>
<trkpt lat="49.51461" lon="10.229987">
<ele>401.297</ele>
<time>2019-05-30T15:38:40Z</time>
</trkpt>
<trkpt lat="49.514599" lon="10.230077">
<ele>401.422</ele>
<time>2019-05-30T15:38:41Z</time>
</trkpt>
<trkpt lat="49.514591" lon="10.230166">
<ele>401.519</ele>
<time>2019-05-30T15:38:42Z</time>
</trkpt>
<trkpt lat="49.514587" lon="10.230258">
<ele>401.587</ele>
<time>2019-05-30T15:38:43Z</time>
</trkpt>
<trkpt lat="49.514576" lon="10.230347">
<ele>401.631</ele>
<time>2019-05-30T15:38:44Z</time>
</trkpt>
<trkpt lat="49.514565" lon="10.230436">
<ele>401.652</ele>
<time>2019-05-30T15:38:45Z</time>
</trkpt>
<trkpt lat="49.514557" lon="10.230525">
<ele>401.652</ele>
<time>2019-05-30T15:38:46Z</time>
</trkpt>
<trkpt lat="49.514553" lon="10.230614">
<ele>401.652</ele>
<time>2019-05-30T15:38:47Z</time>
</trkpt>
<trkpt lat="49.514542" lon="10.230703">
<ele>401.652</ele>
<time>2019-05-30T15:38:48Z</time>
</trkpt>
<trkpt lat="49.51453" lon="10.230794">
<ele>401.652</ele>
<time>2019-05-30T15:38:49Z</time>
</trkpt>
<trkpt lat="49.514523" lon="10.230884">
<ele>401.652</ele>
<time>2019-05-30T15:38:50Z</time>
</trkpt>
<trkpt lat="49.514515" lon="10.230973">
<ele>401.652</ele>
<time>2019-05-30T15:38:51Z</time>
</trkpt>
<trkpt lat="49.5145" lon="10.231063">
<ele>401.652</ele>
<time>2019-05-30T15:38:52Z</time>
</trkpt>
<trkpt lat="49.514492" lon="10.231152">
<ele>401.652</ele>
<time>2019-05-30T15:38:53Z</time>
</trkpt>
<trkpt lat="49.514484" lon="10.23124">
<ele>401.652</ele>
<time>2019-05-30T15:38:54Z</time>
</trkpt>
<trkpt lat="49.514473" lon="10.231328">
<ele>401.652</ele>
<time>2019-05-30T15:38:55Z</time>
</trkpt>
<trkpt lat="49.514465" lon="10.231417">
<ele>401.652</ele>
<time>2019-05-30T15:38:56Z</time>
</trkpt>
<trkpt lat="49.514458" lon="10.231506">
<ele>401.652</ele>
<time>2019-05-30T15:38:57Z</time>
</trkpt>
<trkpt lat="49.51445" lon="10.231595">
<ele>401.652</ele>
<time>2019-05-30T15:38:58Z</time>
</trkpt>
<trkpt lat="49.514442" lon="10.231685">
<ele>401.652</ele>
<time>2019-05-30T15:38:59Z</time>
</trkpt>
<trkpt lat="49.514431" lon="10.231775">
<ele>401.652</ele>
<time>2019-05-30T15:39:00Z</time>
</trkpt>
<trkpt lat="49.514423" lon="10.231863">
<ele>401.652</ele>
<time>2019-05-30T15:39:01Z</time>
</trkpt>
<trkpt lat="49.514416" lon="10.231953">
<ele>401.652</ele>
<time>2019-05-30T15:39:02Z</time>
</trkpt>
<trkpt lat="49.514404" lon="10.232041">
<ele>401.652</ele>
<time>2019-05-30T15:39:03Z</time>
</trkpt>
<trkpt lat="49.514397" lon="10.232131">
<ele>401.652</ele>
<time>2019-05-30T15:39:04Z</time>
</trkpt>
<trkpt lat="49.514389" lon="10.23222">
<ele>401.908</ele>
<time>2019-05-30T15:39:05Z</time>
</trkpt>
<trkpt lat="49.514378" lon="10.232308">
<ele>402.109</ele>
<time>2019-05-30T15:39:06Z</time>
</trkpt>
<trkpt lat="49.514366" lon="10.232397">
<ele>402.262</ele>
<time>2019-05-30T15:39:07Z</time>
</trkpt>
<trkpt lat="49.514359" lon="10.232485">
<ele>402.375</ele>
<time>2019-05-30T15:39:08Z</time>
</trkpt>
<trkpt lat="49.514351" lon="10.232574">
<ele>402.455</ele>
<time>2019-05-30T15:39:09Z</time>
</trkpt>
<trkpt lat="49.514339" lon="10.232661">
<ele>402.514</ele>
<time>2019-05-30T15:39:10Z</time>
</trkpt>
<trkpt lat="49.514332" lon="10.232752">
<ele>402.568</ele>
<time>2019-05-30T15:39:11Z</time>
</trkpt>
<trkpt lat="49.514324" lon="10.23284">
<ele>402.593</ele>
<time>2019-05-30T15:39:12Z</time>
</trkpt>
<trkpt lat="49.514313" lon="10.232928">
<ele>402.593</ele>
<time>2019-05-30T15:39:13Z</time>
</trkpt>
<trkpt lat="49.514305" lon="10.233017">
<ele>402.593</ele>
<time>2019-05-30T15:39:14Z</time>
</trkpt>
<trkpt lat="49.514294" lon="10.233105">
<ele>402.593</ele>
<time>2019-05-30T15:39:15Z</time>
</trkpt>
<trkpt lat="49.51429" lon="10.233195">
<ele>402.593</ele>
<time>2019-05-30T15:39:16Z</time>
</trkpt>
<trkpt lat="49.514282" lon="10.233283">
<ele>402.593</ele>
<time>2019-05-30T15:39:17Z</time>
</trkpt>
<trkpt lat="49.514271" lon="10.233374">
<ele>402.593</ele>
<time>2019-05-30T15:39:18Z</time>
</trkpt>
<trkpt lat="49.514259" lon="10.233463">
<ele>402.593</ele>
<time>2019-05-30T15:39:19Z</time>
</trkpt>
<trkpt lat="49.514252" lon="10.233552">
<ele>402.593</ele>
<time>2019-05-30T15:39:20Z</time>
</trkpt>
<trkpt lat="49.514244" lon="10.233642">
<ele>402.593</ele>
<time>2019-05-30T15:39:21Z</time>
</trkpt>
<trkpt lat="49.514233" lon="10.233729">
<ele>402.593</ele>
<time>2019-05-30T15:39:22Z</time>
</trkpt>
<trkpt lat="49.514225" lon="10.233818">
<ele>402.593</ele>
<time>2019-05-30T15:39:23Z</time>
</trkpt>
<trkpt lat="49.514217" lon="10.23391">
<ele>402.593</ele>
<time>2019-05-30T15:39:24Z</time>
</trkpt>
<trkpt lat="49.51421" lon="10.234">
<ele>402.593</ele>
<time>2019-05-30T15:39:25Z</time>
</trkpt>
<trkpt lat="49.514198" lon="10.234092">
<ele>402.593</ele>
<time>2019-05-30T15:39:26Z</time>
</trkpt>
<trkpt lat="49.514194" lon="10.234183">
<ele>402.593</ele>
<time>2019-05-30T15:39:27Z</time>
</trkpt>
<trkpt lat="49.514183" lon="10.234277">
<ele>402.593</ele>
<time>2019-05-30T15:39:28Z</time>
</trkpt>
<trkpt lat="49.514175" lon="10.23437">
<ele>402.593</ele>
<time>2019-05-30T15:39:29Z</time>
</trkpt>
<trkpt lat="49.514168" lon="10.234465">
<ele>402.593</ele>
<time>2019-05-30T15:39:30Z</time>
</trkpt>
<trkpt lat="49.51416" lon="10.23456">
<ele>402.593</ele>
<time>2019-05-30T15:39:31Z</time>
</trkpt>
<trkpt lat="49.514153" lon="10.234653">
<ele>402.593</ele>
<time>2019-05-30T15:39:32Z</time>
</trkpt>
<trkpt lat="49.514149" lon="10.234748">
<ele>402.593</ele>
<time>2019-05-30T15:39:33Z</time>
</trkpt>
<trkpt lat="49.514145" lon="10.234841">
<ele>402.593</ele>
<time>2019-05-30T15:39:34Z</time>
</trkpt>
<trkpt lat="49.514141" lon="10.234935">
<ele>402.593</ele>
<time>2019-05-30T15:39:35Z</time>
</trkpt>
<trkpt lat="49.514137" lon="10.235032">
<ele>402.593</ele>
<time>2019-05-30T15:39:36Z</time>
</trkpt>
<trkpt lat="49.514133" lon="10.235128">
<ele>402.593</ele>
<time>2019-05-30T15:39:37Z</time>
</trkpt>
<trkpt lat="49.51413" lon="10.235227">
<ele>402.593</ele>
<time>2019-05-30T15:39:38Z</time>
</trkpt>
<trkpt lat="49.51413" lon="10.235326">
<ele>402.593</ele>
<time>2019-05-30T15:39:39Z</time>
</trkpt>
<trkpt lat="49.514126" lon="10.235425">
<ele>402.593</ele>
<time>2019-05-30T15:39:40Z</time>
</trkpt>
<trkpt lat="49.514122" lon="10.235523">
<ele>402.593</ele>
<time>2019-05-30T15:39:41Z</time>
</trkpt>
<trkpt lat="49.514122" lon="10.235623">
<ele>402.593</ele>
<time>2019-05-30T15:39:42Z</time>
</trkpt>
<trkpt lat="49.514126" lon="10.235724">
<ele>402.593</ele>
<time>2019-05-30T15:39:43Z</time>
</trkpt>
<trkpt lat="49.51413" lon="10.235825">
<ele>402.593</ele>
<time>2019-05-30T15:39:44Z</time>
</trkpt>
<trkpt lat="49.51413" lon="10.235921">
<ele>402.593</ele>
<time>2019-05-30T15:39:45Z</time>
</trkpt>
<trkpt lat="49.514133" lon="10.23602">
<ele>402.593</ele>
<time>2019-05-30T15:39:46Z</time>
</trkpt>
<trkpt lat="49.514137" lon="10.236118">
<ele>402.593</ele>
<time>2019-05-30T15:39:47Z</time>
</trkpt>
<trkpt lat="49.514145" lon="10.236217">
<ele>402.593</ele>
<time>2019-05-30T15:39:48Z</time>
</trkpt>
<trkpt lat="49.514153" lon="10.23632">
<ele>402.593</ele>
<time>2019-05-30T15:39:49Z</time>
</trkpt>
<trkpt lat="49.51416" lon="10.236422">
<ele>402.593</ele>
<time>2019-05-30T15:39:50Z</time>
</trkpt>
<trkpt lat="49.514168" lon="10.236524">
<ele>402.593</ele>
<time>2019-05-30T15:39:51Z</time>
</trkpt>
<trkpt lat="49.514179" lon="10.236625">
<ele>402.593</ele>
<time>2019-05-30T15:39:52Z</time>
</trkpt>
<trkpt lat="49.514194" lon="10.236725">
<ele>402.593</ele>
<time>2019-05-30T15:39:53Z</time>
</trkpt>
<trkpt lat="49.514202" lon="10.236825">
<ele>402.593</ele>
<time>2019-05-30T15:39:54Z</time>
</trkpt>
<trkpt lat="49.514214" lon="10.236923">
<ele>402.593</ele>
<time>2019-05-30T15:39:55Z</time>
</trkpt>
<trkpt lat="49.514229" lon="10.237021">
<ele>402.593</ele>
<time>2019-05-30T15:39:56Z</time>
</trkpt>
<trkpt lat="49.51424" lon="10.237119">
<ele>402.593</ele>
<time>2019-05-30T15:39:57Z</time>
</trkpt>
<trkpt lat="49.514259" lon="10.237213">
<ele>402.593</ele>
<time>2019-05-30T15:39:58Z</time>
</trkpt>
<trkpt lat="49.514275" lon="10.237309">
<ele>402.366</ele>
<time>2019-05-30T15:39:59Z</time>
</trkpt>
<trkpt lat="49.514294" lon="10.237404">
<ele>402.204</ele>
<time>2019-05-30T15:40:00Z</time>
</trkpt>
<trkpt lat="49.514309" lon="10.2375">
<ele>402.036</ele>
<time>2019-05-30T15:40:01Z</time>
</trkpt>
<trkpt lat="49.514328" lon="10.237597">
<ele>401.901</ele>
<time>2019-05-30T15:40:02Z</time>
</trkpt>
<trkpt lat="49.514351" lon="10.237694">
<ele>401.797</ele>
<time>2019-05-30T15:40:03Z</time>
</trkpt>
<trkpt lat="49.514366" lon="10.237788">
<ele>401.723</ele>
<time>2019-05-30T15:40:04Z</time>
</trkpt>
<trkpt lat="49.514389" lon="10.237885">
<ele>401.675</ele>
<time>2019-05-30T15:40:05Z</time>
</trkpt>
<trkpt lat="49.514412" lon="10.23798">
<ele>401.652</ele>
<time>2019-05-30T15:40:06Z</time>
</trkpt>
<trkpt lat="49.514435" lon="10.238075">
<ele>401.652</ele>
<time>2019-05-30T15:40:07Z</time>
</trkpt>
<trkpt lat="49.514462" lon="10.23817">
<ele>401.652</ele>
<time>2019-05-30T15:40:08Z</time>
</trkpt>
<trkpt lat="49.514488" lon="10.238267">
<ele>401.652</ele>
<time>2019-05-30T15:40:09Z</time>
</trkpt>
<trkpt lat="49.514511" lon="10.238363">
<ele>401.652</ele>
<time>2019-05-30T15:40:10Z</time>
</trkpt>
<trkpt lat="49.514538" lon="10.238461">
<ele>401.652</ele>
<time>2019-05-30T15:40:11Z</time>
</trkpt>
<trkpt lat="49.514561" lon="10.238561">
<ele>401.652</ele>
<time>2019-05-30T15:40:12Z</time>
</trkpt>
<trkpt lat="49.514587" lon="10.23866">
<ele>401.652</ele>
<time>2019-05-30T15:40:13Z</time>
</trkpt>
<trkpt lat="49.514618" lon="10.238758">
<ele>401.652</ele>
<time>2019-05-30T15:40:14Z</time>
</trkpt>
<trkpt lat="49.514645" lon="10.238853">
<ele>401.652</ele>
<time>2019-05-30T15:40:15Z</time>
</trkpt>
<trkpt lat="49.514675" lon="10.238949">
<ele>401.652</ele>
<time>2019-05-30T15:40:16Z</time>
</trkpt>
<trkpt lat="49.514702" lon="10.239042">
<ele>401.652</ele>
<time>2019-05-30T15:40:17Z</time>
</trkpt>
<trkpt lat="49.514729" lon="10.239135">
<ele>401.652</ele>
<time>2019-05-30T15:40:18Z</time>
</trkpt>
<trkpt lat="49.514759" lon="10.239229">
<ele>401.652</ele>
<time>2019-05-30T15:40:19Z</time>
</trkpt>
<trkpt lat="49.514786" lon="10.239324">
<ele>401.652</ele>
<time>2019-05-30T15:40:20Z</time>
</trkpt>
<trkpt lat="49.514816" lon="10.239418">
<ele>401.445</ele>
<time>2019-05-30T15:40:21Z</time>
</trkpt>
<trkpt lat="49.514847" lon="10.239511">
<ele>401.27</ele>
<time>2019-05-30T15:40:22Z</time>
</trkpt>
<trkpt lat="49.514881" lon="10.239604">
<ele>401.125</ele>
<time>2019-05-30T15:40:23Z</time>
</trkpt>
<trkpt lat="49.514912" lon="10.239695">
<ele>401.01</ele>
<time>2019-05-30T15:40:24Z</time>
</trkpt>
<trkpt lat="49.514942" lon="10.239788">
<ele>400.921</ele>
<time>2019-05-30T15:40:25Z</time>
</trkpt>
<trkpt lat="49.514977" lon="10.239881">
<ele>400.857</ele>
<time>2019-05-30T15:40:26Z</time>
</trkpt>
<trkpt lat="49.515007" lon="10.239975">
<ele>400.816</ele>
<time>2019-05-30T15:40:27Z</time>
</trkpt>
<trkpt lat="49.515038" lon="10.240068">
<ele>400.796</ele>
<time>2019-05-30T15:40:28Z</time>
</trkpt>
<trkpt lat="49.515068" lon="10.240164">
<ele>400.566</ele>
<time>2019-05-30T15:40:29Z</time>
</trkpt>
<trkpt lat="49.515102" lon="10.24026">
<ele>400.403</ele>
<time>2019-05-30T15:40:30Z</time>
</trkpt>
<trkpt lat="49.515133" lon="10.24036">
<ele>400.234</ele>
<time>2019-05-30T15:40:31Z</time>
</trkpt>
<trkpt lat="49.515163" lon="10.240458">
<ele>400.115</ele>
<time>2019-05-30T15:40:32Z</time>
</trkpt>
<trkpt lat="49.515198" lon="10.240558">
<ele>399.753</ele>
<time>2019-05-30T15:40:33Z</time>
</trkpt>
<trkpt lat="49.515236" lon="10.24066">
<ele>399.462</ele>
<time>2019-05-30T15:40:34Z</time>
</trkpt>
<trkpt lat="49.51527" lon="10.240763">
<ele>399.278</ele>
<time>2019-05-30T15:40:35Z</time>
</trkpt>
<trkpt lat="49.515305" lon="10.24087">
<ele>398.844</ele>
<time>2019-05-30T15:40:36Z</time>
</trkpt>
<trkpt lat="49.515343" lon="10.240978">
<ele>398.493</ele>
<time>2019-05-30T15:40:37Z</time>
</trkpt>
<trkpt lat="49.515381" lon="10.241094">
<ele>397.991</ele>
<time>2019-05-30T15:40:38Z</time>
</trkpt>
<trkpt lat="49.515419" lon="10.241209">
<ele>397.673</ele>
<time>2019-05-30T15:40:39Z</time>
</trkpt>
<trkpt lat="49.515461" lon="10.241328">
<ele>397.144</ele>
<time>2019-05-30T15:40:40Z</time>
</trkpt>
<trkpt lat="49.515499" lon="10.241452">
<ele>396.491</ele>
<time>2019-05-30T15:40:41Z</time>
</trkpt>
<trkpt lat="49.515537" lon="10.241578">
<ele>395.981</ele>
<time>2019-05-30T15:40:42Z</time>
</trkpt>
<trkpt lat="49.515579" lon="10.241712">
<ele>395.66</ele>
<time>2019-05-30T15:40:43Z</time>
</trkpt>
<trkpt lat="49.515614" lon="10.241848">
<ele>395.114</ele>
<time>2019-05-30T15:40:44Z</time>
</trkpt>
<trkpt lat="49.515648" lon="10.24199">
<ele>394.752</ele>
<time>2019-05-30T15:40:45Z</time>
</trkpt>
<trkpt lat="49.515682" lon="10.242135">
<ele>394.228</ele>
<time>2019-05-30T15:40:46Z</time>
</trkpt>
<trkpt lat="49.515713" lon="10.242284">
<ele>393.549</ele>
<time>2019-05-30T15:40:47Z</time>
</trkpt>
<trkpt lat="49.515743" lon="10.242435">
<ele>393.111</ele>
<time>2019-05-30T15:40:48Z</time>
</trkpt>
<trkpt lat="49.515766" lon="10.24259">
<ele>392.473</ele>
<time>2019-05-30T15:40:49Z</time>
</trkpt>
<trkpt lat="49.515793" lon="10.242744">
<ele>392.039</ele>
<time>2019-05-30T15:40:50Z</time>
</trkpt>
<trkpt lat="49.515816" lon="10.242902">
<ele>391.419</ele>
<time>2019-05-30T15:40:51Z</time>
</trkpt>
<trkpt lat="49.515839" lon="10.24306">
<ele>390.961</ele>
<time>2019-05-30T15:40:52Z</time>
</trkpt>
<trkpt lat="49.515858" lon="10.243215">
<ele>390.63</ele>
<time>2019-05-30T15:40:53Z</time>
</trkpt>
<trkpt lat="49.515869" lon="10.24337">
<ele>390.41</ele>
<time>2019-05-30T15:40:54Z</time>
</trkpt>
<trkpt lat="49.515884" lon="10.24352">
<ele>390.267</ele>
<time>2019-05-30T15:40:55Z</time>
</trkpt>
<trkpt lat="49.515892" lon="10.243669">
<ele>390.175</ele>
<time>2019-05-30T15:40:56Z</time>
</trkpt>
<trkpt lat="49.515903" lon="10.243814">
<ele>390.13</ele>
<time>2019-05-30T15:40:57Z</time>
</trkpt>
<trkpt lat="49.515907" lon="10.243954">
<ele>390.108</ele>
<time>2019-05-30T15:40:58Z</time>
</trkpt>
<trkpt lat="49.515907" lon="10.24409">
<ele>390.108</ele>
<time>2019-05-30T15:40:59Z</time>
</trkpt>
<trkpt lat="49.515907" lon="10.244218">
<ele>390.108</ele>
<time>2019-05-30T15:41:00Z</time>
</trkpt>
<trkpt lat="49.515907" lon="10.244342">
<ele>390.108</ele>
<time>2019-05-30T15:41:01Z</time>
</trkpt>
<trkpt lat="49.515907" lon="10.24446">
<ele>390.108</ele>
<time>2019-05-30T15:41:02Z</time>
</trkpt>
<trkpt lat="49.515903" lon="10.244572">
<ele>390.343</ele>
<time>2019-05-30T15:41:03Z</time>
</trkpt>
<trkpt lat="49.5159" lon="10.244678">
<ele>390.53</ele>
<time>2019-05-30T15:41:04Z</time>
</trkpt>
<trkpt lat="49.515896" lon="10.24478">
<ele>390.653</ele>
<time>2019-05-30T15:41:05Z</time>
</trkpt>
<trkpt lat="49.515888" lon="10.244878">
<ele>391.005</ele>
<time>2019-05-30T15:41:06Z</time>
</trkpt>
<trkpt lat="49.515888" lon="10.244971">
<ele>391.279</ele>
<time>2019-05-30T15:41:07Z</time>
</trkpt>
<trkpt lat="49.515881" lon="10.24506">
<ele>391.453</ele>
<time>2019-05-30T15:41:08Z</time>
</trkpt>
<trkpt lat="49.515873" lon="10.245145">
<ele>391.859</ele>
<time>2019-05-30T15:41:09Z</time>
</trkpt>
<trkpt lat="49.515865" lon="10.245227">
<ele>392.178</ele>
<time>2019-05-30T15:41:10Z</time>
</trkpt>
<trkpt lat="49.515858" lon="10.245307">
<ele>392.459</ele>
<time>2019-05-30T15:41:11Z</time>
</trkpt>
<trkpt lat="49.51585" lon="10.245383">
<ele>392.675</ele>
<time>2019-05-30T15:41:12Z</time>
</trkpt>
<trkpt lat="49.515839" lon="10.245458">
<ele>392.816</ele>
<time>2019-05-30T15:41:13Z</time>
</trkpt>
<trkpt lat="49.515831" lon="10.245531">
<ele>393.133</ele>
<time>2019-05-30T15:41:14Z</time>
</trkpt>
<trkpt lat="49.515823" lon="10.245603">
<ele>393.388</ele>
<time>2019-05-30T15:41:15Z</time>
</trkpt>
<trkpt lat="49.515816" lon="10.245675">
<ele>393.552</ele>
<time>2019-05-30T15:41:16Z</time>
</trkpt>
<trkpt lat="49.515808" lon="10.245745">
<ele>393.944</ele>
<time>2019-05-30T15:41:17Z</time>
</trkpt>
<trkpt lat="49.5158" lon="10.245813">
<ele>394.206</ele>
<time>2019-05-30T15:41:18Z</time>
</trkpt>
<trkpt lat="49.515793" lon="10.24588">
<ele>394.395</ele>
<time>2019-05-30T15:41:19Z</time>
</trkpt>
<trkpt lat="49.515785" lon="10.245945">
<ele>394.539</ele>
<time>2019-05-30T15:41:20Z</time>
</trkpt>
<trkpt lat="49.515774" lon="10.246011">
<ele>394.663</ele>
<time>2019-05-30T15:41:21Z</time>
</trkpt>
<trkpt lat="49.515766" lon="10.246076">
<ele>394.982</ele>
<time>2019-05-30T15:41:22Z</time>
</trkpt>
<trkpt lat="49.515759" lon="10.246139">
<ele>395.237</ele>
<time>2019-05-30T15:41:23Z</time>
</trkpt>
<trkpt lat="49.515751" lon="10.246202">
<ele>395.433</ele>
<time>2019-05-30T15:41:24Z</time>
</trkpt>
<trkpt lat="49.515743" lon="10.246264">
<ele>395.633</ele>
<time>2019-05-30T15:41:25Z</time>
</trkpt>
<trkpt lat="49.515736" lon="10.246328">
<ele>396.004</ele>
<time>2019-05-30T15:41:26Z</time>
</trkpt>
<trkpt lat="49.515728" lon="10.246393">
<ele>396.28</ele>
<time>2019-05-30T15:41:27Z</time>
</trkpt>
<trkpt lat="49.515717" lon="10.246459">
<ele>396.473</ele>
<time>2019-05-30T15:41:28Z</time>
</trkpt>
<trkpt lat="49.515705" lon="10.246524">
<ele>396.604</ele>
<time>2019-05-30T15:41:29Z</time>
</trkpt>
<trkpt lat="49.515697" lon="10.246587">
<ele>396.691</ele>
<time>2019-05-30T15:41:30Z</time>
</trkpt>
<trkpt lat="49.51569" lon="10.24665">
<ele>396.777</ele>
<time>2019-05-30T15:41:31Z</time>
</trkpt>
<trkpt lat="49.515682" lon="10.246713">
<ele>397.064</ele>
<time>2019-05-30T15:41:32Z</time>
</trkpt>
<trkpt lat="49.515675" lon="10.246778">
<ele>397.283</ele>
<time>2019-05-30T15:41:33Z</time>
</trkpt>
<trkpt lat="49.515667" lon="10.24684">
<ele>397.525</ele>
<time>2019-05-30T15:41:34Z</time>
</trkpt>
<trkpt lat="49.515659" lon="10.246902">
<ele>397.639</ele>
<time>2019-05-30T15:41:35Z</time>
</trkpt>
<trkpt lat="49.515648" lon="10.246964">
<ele>397.722</ele>
<time>2019-05-30T15:41:36Z</time>
</trkpt>
<trkpt lat="49.51564" lon="10.247024">
<ele>397.769</ele>
<time>2019-05-30T15:41:37Z</time>
</trkpt>
<trkpt lat="49.515629" lon="10.247084">
<ele>398.05</ele>
<time>2019-05-30T15:41:38Z</time>
</trkpt>
<trkpt lat="49.515621" lon="10.247144">
<ele>398.258</ele>
<time>2019-05-30T15:41:39Z</time>
</trkpt>
<trkpt lat="49.515614" lon="10.247201">
<ele>398.397</ele>
<time>2019-05-30T15:41:40Z</time>
</trkpt>
<trkpt lat="49.515606" lon="10.247262">
<ele>398.547</ele>
<time>2019-05-30T15:41:41Z</time>
</trkpt>
<trkpt lat="49.515602" lon="10.247322">
<ele>398.665</ele>
<time>2019-05-30T15:41:42Z</time>
</trkpt>
<trkpt lat="49.515594" lon="10.247381">
<ele>398.742</ele>
<time>2019-05-30T15:41:43Z</time>
</trkpt>
<trkpt lat="49.515583" lon="10.247441">
<ele>399.049</ele>
<time>2019-05-30T15:41:44Z</time>
</trkpt>
<trkpt lat="49.515572" lon="10.247502">
<ele>399.288</ele>
<time>2019-05-30T15:41:45Z</time>
</trkpt>
<trkpt lat="49.51556" lon="10.247561">
<ele>399.51</ele>
<time>2019-05-30T15:41:46Z</time>
</trkpt>
<trkpt lat="49.515553" lon="10.247623">
<ele>399.636</ele>
<time>2019-05-30T15:41:47Z</time>
</trkpt>
<trkpt lat="49.515545" lon="10.247684">
<ele>399.724</ele>
<time>2019-05-30T15:41:48Z</time>
</trkpt>
<trkpt lat="49.515537" lon="10.247744">
<ele>399.771</ele>
<time>2019-05-30T15:41:49Z</time>
</trkpt>
<trkpt lat="49.51553" lon="10.247804">
<ele>400.036</ele>
<time>2019-05-30T15:41:50Z</time>
</trkpt>
<trkpt lat="49.51553" lon="10.247865">
<ele>400.261</ele>
<time>2019-05-30T15:41:51Z</time>
</trkpt>
<trkpt lat="49.515522" lon="10.247924">
<ele>400.423</ele>
<time>2019-05-30T15:41:52Z</time>
</trkpt>
<trkpt lat="49.515514" lon="10.247983">
<ele>400.553</ele>
<time>2019-05-30T15:41:53Z</time>
</trkpt>
<trkpt lat="49.515503" lon="10.248041">
<ele>400.637</ele>
<time>2019-05-30T15:41:54Z</time>
</trkpt>
<trkpt lat="49.515499" lon="10.248102">
<ele>400.926</ele>
<time>2019-05-30T15:41:55Z</time>
</trkpt>
<trkpt lat="49.515491" lon="10.24816">
<ele>401.153</ele>
<time>2019-05-30T15:41:56Z</time>
</trkpt>
<trkpt lat="49.51548" lon="10.248219">
<ele>401.322</ele>
<time>2019-05-30T15:41:57Z</time>
</trkpt>
<trkpt lat="49.515472" lon="10.24828">
<ele>401.45</ele>
<time>2019-05-30T15:41:58Z</time>
</trkpt>
<trkpt lat="49.515465" lon="10.248339">
<ele>401.509</ele>
<time>2019-05-30T15:41:59Z</time>
</trkpt>
<trkpt lat="49.515457" lon="10.248395">
<ele>401.791</ele>
<time>2019-05-30T15:42:00Z</time>
</trkpt>
<trkpt lat="49.515446" lon="10.248451">
<ele>402.035</ele>
<time>2019-05-30T15:42:01Z</time>
</trkpt>
<trkpt lat="49.515438" lon="10.248507">
<ele>402.2</ele>
<time>2019-05-30T15:42:02Z</time>
</trkpt>
<trkpt lat="49.515434" lon="10.248562">
<ele>402.5</ele>
<time>2019-05-30T15:42:03Z</time>
</trkpt>
<trkpt lat="49.51543" lon="10.248618">
<ele>402.744</ele>
<time>2019-05-30T15:42:04Z</time>
</trkpt>
<trkpt lat="49.515423" lon="10.248673">
<ele>402.934</ele>
<time>2019-05-30T15:42:05Z</time>
</trkpt>
<trkpt lat="49.515419" lon="10.248729">
<ele>403.077</ele>
<time>2019-05-30T15:42:06Z</time>
</trkpt>
<trkpt lat="49.515411" lon="10.248783">
<ele>403.379</ele>
<time>2019-05-30T15:42:07Z</time>
</trkpt>
<trkpt lat="49.515408" lon="10.248839">
<ele>403.632</ele>
<time>2019-05-30T15:42:08Z</time>
</trkpt>
<trkpt lat="49.5154" lon="10.248896">
<ele>403.785</ele>
<time>2019-05-30T15:42:09Z</time>
</trkpt>
<trkpt lat="49.5154" lon="10.248952">
<ele>403.853</ele>
<time>2019-05-30T15:42:10Z</time>
</trkpt>
<trkpt lat="49.515396" lon="10.249007">
<ele>403.977</ele>
<time>2019-05-30T15:42:11Z</time>
</trkpt>
<trkpt lat="49.515388" lon="10.249063">
<ele>404.337</ele>
<time>2019-05-30T15:42:12Z</time>
</trkpt>
<trkpt lat="49.515385" lon="10.24912">
<ele>404.645</ele>
<time>2019-05-30T15:42:13Z</time>
</trkpt>
<trkpt lat="49.515381" lon="10.249175">
<ele>404.881</ele>
<time>2019-05-30T15:42:14Z</time>
</trkpt>
<trkpt lat="49.515381" lon="10.249229">
<ele>405.054</ele>
<time>2019-05-30T15:42:15Z</time>
</trkpt>
<trkpt lat="49.515377" lon="10.249287">
<ele>405.237</ele>
<time>2019-05-30T15:42:16Z</time>
</trkpt>
<trkpt lat="49.515373" lon="10.249344">
<ele>405.291</ele>
<time>2019-05-30T15:42:17Z</time>
</trkpt>
<trkpt lat="49.515369" lon="10.249398">
<ele>405.557</ele>
<time>2019-05-30T15:42:18Z</time>
</trkpt>
<trkpt lat="49.515369" lon="10.249454">
<ele>405.752</ele>
<time>2019-05-30T15:42:19Z</time>
</trkpt>
<trkpt lat="49.515369" lon="10.249508">
<ele>405.88</ele>
<time>2019-05-30T15:42:20Z</time>
</trkpt>
<trkpt lat="49.515366" lon="10.249564">
<ele>406.018</ele>
<time>2019-05-30T15:42:21Z</time>
</trkpt>
<trkpt lat="49.515362" lon="10.249619">
<ele>406.125</ele>
<time>2019-05-30T15:42:22Z</time>
</trkpt>
<trkpt lat="49.515362" lon="10.249675">
<ele>406.194</ele>
<time>2019-05-30T15:42:23Z</time>
</trkpt>
<trkpt lat="49.515358" lon="10.249732">
<ele>406.476</ele>
<time>2019-05-30T15:42:24Z</time>
</trkpt>
<trkpt lat="49.515362" lon="10.24979">
<ele>406.695</ele>
<time>2019-05-30T15:42:25Z</time>
</trkpt>
<trkpt lat="49.515362" lon="10.249849">
<ele>406.899</ele>
<time>2019-05-30T15:42:26Z</time>
</trkpt>
<trkpt lat="49.515362" lon="10.24991">
<ele>407.015</ele>
<time>2019-05-30T15:42:27Z</time>
</trkpt>
<trkpt lat="49.515362" lon="10.249969">
<ele>407.077</ele>
<time>2019-05-30T15:42:28Z</time>
</trkpt>
<trkpt lat="49.515362" lon="10.250027">
<ele>407.351</ele>
<time>2019-05-30T15:42:29Z</time>
</trkpt>
<trkpt lat="49.515366" lon="10.250086">
<ele>407.549</ele>
<time>2019-05-30T15:42:30Z</time>
</trkpt>
<trkpt lat="49.515366" lon="10.250142">
<ele>407.725</ele>
<time>2019-05-30T15:42:31Z</time>
</trkpt>
<trkpt lat="49.515366" lon="10.250198">
<ele>407.846</ele>
<time>2019-05-30T15:42:32Z</time>
</trkpt>
<trkpt lat="49.515369" lon="10.250256">
<ele>407.938</ele>
<time>2019-05-30T15:42:33Z</time>
</trkpt>
<trkpt lat="49.515369" lon="10.250312">
<ele>408.005</ele>
<time>2019-05-30T15:42:34Z</time>
</trkpt>
<trkpt lat="49.515369" lon="10.250368">
<ele>408.049</ele>
<time>2019-05-30T15:42:35Z</time>
</trkpt>
<trkpt lat="49.515369" lon="10.250427">
<ele>408.071</ele>
<time>2019-05-30T15:42:36Z</time>
</trkpt>
<trkpt lat="49.515369" lon="10.250484">
<ele>408.071</ele>
<time>2019-05-30T15:42:37Z</time>
</trkpt>
<trkpt lat="49.515369" lon="10.25054">
<ele>408.071</ele>
<time>2019-05-30T15:42:38Z</time>
</trkpt>
<trkpt lat="49.515369" lon="10.250599">
<ele>408.3</ele>
<time>2019-05-30T15:42:39Z</time>
</trkpt>
<trkpt lat="49.515373" lon="10.250658">
<ele>408.464</ele>
<time>2019-05-30T15:42:40Z</time>
</trkpt>
<trkpt lat="49.515373" lon="10.25072">
<ele>408.633</ele>
<time>2019-05-30T15:42:41Z</time>
</trkpt>
<trkpt lat="49.515377" lon="10.25078">
<ele>408.767</ele>
<time>2019-05-30T15:42:42Z</time>
</trkpt>
<trkpt lat="49.515377" lon="10.25084">
<ele>408.869</ele>
<time>2019-05-30T15:42:43Z</time>
</trkpt>
<trkpt lat="49.515381" lon="10.2509">
<ele>408.943</ele>
<time>2019-05-30T15:42:44Z</time>
</trkpt>
<trkpt lat="49.515381" lon="10.250959">
<ele>408.99</ele>
<time>2019-05-30T15:42:45Z</time>
</trkpt>
<trkpt lat="49.515385" lon="10.25102">
<ele>409.012</ele>
<time>2019-05-30T15:42:46Z</time>
</trkpt>
<trkpt lat="49.515388" lon="10.251079">
<ele>409.252</ele>
<time>2019-05-30T15:42:47Z</time>
</trkpt>
<trkpt lat="49.515388" lon="10.251137">
<ele>409.44</ele>
<time>2019-05-30T15:42:48Z</time>
</trkpt>
<trkpt lat="49.515392" lon="10.251197">
<ele>409.589</ele>
<time>2019-05-30T15:42:49Z</time>
</trkpt>
<trkpt lat="49.515396" lon="10.251255">
<ele>409.691</ele>
<time>2019-05-30T15:42:50Z</time>
</trkpt>
<trkpt lat="49.5154" lon="10.251316">
<ele>409.8</ele>
<time>2019-05-30T15:42:51Z</time>
</trkpt>
<trkpt lat="49.5154" lon="10.251376">
<ele>409.879</ele>
<time>2019-05-30T15:42:52Z</time>
</trkpt>
<trkpt lat="49.5154" lon="10.25144">
<ele>409.93</ele>
<time>2019-05-30T15:42:53Z</time>
</trkpt>
<trkpt lat="49.515404" lon="10.251502">
<ele>409.954</ele>
<time>2019-05-30T15:42:54Z</time>
</trkpt>
<trkpt lat="49.515404" lon="10.251565">
<ele>409.954</ele>
<time>2019-05-30T15:42:55Z</time>
</trkpt>
<trkpt lat="49.515408" lon="10.251626">
<ele>409.954</ele>
<time>2019-05-30T15:42:56Z</time>
</trkpt>
<trkpt lat="49.515411" lon="10.25169">
<ele>409.954</ele>
<time>2019-05-30T15:42:57Z</time>
</trkpt>
<trkpt lat="49.515411" lon="10.251752">
<ele>409.954</ele>
<time>2019-05-30T15:42:58Z</time>
</trkpt>
<trkpt lat="49.515415" lon="10.251815">
<ele>409.954</ele>
<time>2019-05-30T15:42:59Z</time>
</trkpt>
<trkpt lat="49.515419" lon="10.251877">
<ele>409.954</ele>
<time>2019-05-30T15:43:00Z</time>
</trkpt>
<trkpt lat="49.515423" lon="10.25194">
<ele>409.954</ele>
<time>2019-05-30T15:43:01Z</time>
</trkpt>
<trkpt lat="49.515427" lon="10.252001">
<ele>410.211</ele>
<time>2019-05-30T15:43:02Z</time>
</trkpt>
<trkpt lat="49.51543" lon="10.252066">
<ele>410.409</ele>
<time>2019-05-30T15:43:03Z</time>
</trkpt>
<trkpt lat="49.515434" lon="10.252125">
<ele>410.559</ele>
<time>2019-05-30T15:43:04Z</time>
</trkpt>
<trkpt lat="49.515434" lon="10.252187">
<ele>410.663</ele>
<time>2019-05-30T15:43:05Z</time>
</trkpt>
<trkpt lat="49.515438" lon="10.252246">
<ele>410.738</ele>
<time>2019-05-30T15:43:06Z</time>
</trkpt>
<trkpt lat="49.515442" lon="10.252307">
<ele>410.784</ele>
<time>2019-05-30T15:43:07Z</time>
</trkpt>
<trkpt lat="49.515446" lon="10.252367">
<ele>410.811</ele>
<time>2019-05-30T15:43:08Z</time>
</trkpt>
<trkpt lat="49.51545" lon="10.252428">
<ele>410.811</ele>
<time>2019-05-30T15:43:09Z</time>
</trkpt>
<trkpt lat="49.51545" lon="10.252489">
<ele>410.81</ele>
<time>2019-05-30T15:43:10Z</time>
</trkpt>
<trkpt lat="49.515453" lon="10.25255">
<ele>410.81</ele>
<time>2019-05-30T15:43:11Z</time>
</trkpt>
<trkpt lat="49.515453" lon="10.252612">
<ele>410.81</ele>
<time>2019-05-30T15:43:12Z</time>
</trkpt>
<trkpt lat="49.515457" lon="10.252673">
<ele>410.811</ele>
<time>2019-05-30T15:43:13Z</time>
</trkpt>
<trkpt lat="49.515461" lon="10.252734">
<ele>410.811</ele>
<time>2019-05-30T15:43:14Z</time>
</trkpt>
<trkpt lat="49.515465" lon="10.252797">
<ele>410.81</ele>
<time>2019-05-30T15:43:15Z</time>
</trkpt>
<trkpt lat="49.515465" lon="10.252858">
<ele>410.811</ele>
<time>2019-05-30T15:43:16Z</time>
</trkpt>
<trkpt lat="49.515465" lon="10.252922">
<ele>410.81</ele>
<time>2019-05-30T15:43:17Z</time>
</trkpt>
<trkpt lat="49.515469" lon="10.252985">
<ele>410.81</ele>
<time>2019-05-30T15:43:18Z</time>
</trkpt>
<trkpt lat="49.515476" lon="10.253048">
<ele>411.062</ele>
<time>2019-05-30T15:43:19Z</time>
</trkpt>
<trkpt lat="49.51548" lon="10.253112">
<ele>411.241</ele>
<time>2019-05-30T15:43:20Z</time>
</trkpt>
<trkpt lat="49.515484" lon="10.253175">
<ele>411.424</ele>
<time>2019-05-30T15:43:21Z</time>
</trkpt>
<trkpt lat="49.515488" lon="10.25324">
<ele>411.57</ele>
<time>2019-05-30T15:43:22Z</time>
</trkpt>
<trkpt lat="49.515491" lon="10.253306">
<ele>411.682</ele>
<time>2019-05-30T15:43:23Z</time>
</trkpt>
<trkpt lat="49.515495" lon="10.25337">
<ele>411.762</ele>
<time>2019-05-30T15:43:24Z</time>
</trkpt>
<trkpt lat="49.515499" lon="10.253435">
<ele>411.813</ele>
<time>2019-05-30T15:43:25Z</time>
</trkpt>
<trkpt lat="49.515499" lon="10.2535">
<ele>411.838</ele>
<time>2019-05-30T15:43:26Z</time>
</trkpt>
<trkpt lat="49.515499" lon="10.253566">
<ele>411.838</ele>
<time>2019-05-30T15:43:27Z</time>
</trkpt>
<trkpt lat="49.515503" lon="10.253627">
<ele>411.838</ele>
<time>2019-05-30T15:43:28Z</time>
</trkpt>
<trkpt lat="49.515507" lon="10.25369">
<ele>411.838</ele>
<time>2019-05-30T15:43:29Z</time>
</trkpt>
<trkpt lat="49.515511" lon="10.253754">
<ele>411.838</ele>
<time>2019-05-30T15:43:30Z</time>
</trkpt>
<trkpt lat="49.515514" lon="10.253817">
<ele>411.838</ele>
<time>2019-05-30T15:43:31Z</time>
</trkpt>
<trkpt lat="49.515518" lon="10.253881">
<ele>411.838</ele>
<time>2019-05-30T15:43:32Z</time>
</trkpt>
<trkpt lat="49.515526" lon="10.253947">
<ele>411.838</ele>
<time>2019-05-30T15:43:33Z</time>
</trkpt>
<trkpt lat="49.51553" lon="10.254014">
<ele>412.102</ele>
<time>2019-05-30T15:43:34Z</time>
</trkpt>
<trkpt lat="49.51553" lon="10.254082">
<ele>412.309</ele>
<time>2019-05-30T15:43:35Z</time>
</trkpt>
<trkpt lat="49.515533" lon="10.254148">
<ele>412.468</ele>
<time>2019-05-30T15:43:36Z</time>
</trkpt>
<trkpt lat="49.515537" lon="10.254215">
<ele>412.581</ele>
<time>2019-05-30T15:43:37Z</time>
</trkpt>
<trkpt lat="49.515537" lon="10.254282">
<ele>412.661</ele>
<time>2019-05-30T15:43:38Z</time>
</trkpt>
<trkpt lat="49.515541" lon="10.254348">
<ele>412.715</ele>
<time>2019-05-30T15:43:39Z</time>
</trkpt>
<trkpt lat="49.515545" lon="10.254415">
<ele>412.754</ele>
<time>2019-05-30T15:43:40Z</time>
</trkpt>
<trkpt lat="49.515549" lon="10.254483">
<ele>412.78</ele>
<time>2019-05-30T15:43:41Z</time>
</trkpt>
<trkpt lat="49.515553" lon="10.254552">
<ele>412.78</ele>
<time>2019-05-30T15:43:42Z</time>
</trkpt>
<trkpt lat="49.515556" lon="10.254622">
<ele>412.78</ele>
<time>2019-05-30T15:43:43Z</time>
</trkpt>
<trkpt lat="49.51556" lon="10.25469">
<ele>412.78</ele>
<time>2019-05-30T15:43:44Z</time>
</trkpt>
<trkpt lat="49.515564" lon="10.254758">
<ele>412.78</ele>
<time>2019-05-30T15:43:45Z</time>
</trkpt>
<trkpt lat="49.515568" lon="10.254825">
<ele>412.78</ele>
<time>2019-05-30T15:43:46Z</time>
</trkpt>
<trkpt lat="49.515572" lon="10.254893">
<ele>412.78</ele>
<time>2019-05-30T15:43:47Z</time>
</trkpt>
<trkpt lat="49.515575" lon="10.254963">
<ele>413.015</ele>
<time>2019-05-30T15:43:48Z</time>
</trkpt>
<trkpt lat="49.515575" lon="10.255032">
<ele>413.201</ele>
<time>2019-05-30T15:43:49Z</time>
</trkpt>
<trkpt lat="49.515575" lon="10.255099">
<ele>413.329</ele>
<time>2019-05-30T15:43:50Z</time>
</trkpt>
<trkpt lat="49.515579" lon="10.255169">
<ele>413.466</ele>
<time>2019-05-30T15:43:51Z</time>
</trkpt>
<trkpt lat="49.515583" lon="10.255237">
<ele>413.574</ele>
<time>2019-05-30T15:43:52Z</time>
</trkpt>
<trkpt lat="49.515587" lon="10.255303">
<ele>413.65</ele>
<time>2019-05-30T15:43:53Z</time>
</trkpt>
<trkpt lat="49.515591" lon="10.25537">
<ele>413.699</ele>
<time>2019-05-30T15:43:54Z</time>
</trkpt>
<trkpt lat="49.515594" lon="10.255439">
<ele>413.722</ele>
<time>2019-05-30T15:43:55Z</time>
</trkpt>
<trkpt lat="49.515598" lon="10.255506">
<ele>413.722</ele>
<time>2019-05-30T15:43:56Z</time>
</trkpt>
<trkpt lat="49.515598" lon="10.255571">
<ele>413.722</ele>
<time>2019-05-30T15:43:57Z</time>
</trkpt>
<trkpt lat="49.515598" lon="10.25564">
<ele>413.722</ele>
<time>2019-05-30T15:43:58Z</time>
</trkpt>
<trkpt lat="49.515602" lon="10.255707">
<ele>413.722</ele>
<time>2019-05-30T15:43:59Z</time>
</trkpt>
<trkpt lat="49.515606" lon="10.255774">
<ele>413.722</ele>
<time>2019-05-30T15:44:00Z</time>
</trkpt>
<trkpt lat="49.515606" lon="10.255841">
<ele>413.722</ele>
<time>2019-05-30T15:44:01Z</time>
</trkpt>
<trkpt lat="49.515606" lon="10.25591">
<ele>413.722</ele>
<time>2019-05-30T15:44:02Z</time>
</trkpt>
<trkpt lat="49.51561" lon="10.255979">
<ele>413.722</ele>
<time>2019-05-30T15:44:03Z</time>
</trkpt>
<trkpt lat="49.51561" lon="10.256046">
<ele>413.722</ele>
<time>2019-05-30T15:44:04Z</time>
</trkpt>
<trkpt lat="49.515614" lon="10.256117">
<ele>413.722</ele>
<time>2019-05-30T15:44:05Z</time>
</trkpt>
<trkpt lat="49.515617" lon="10.256185">
<ele>413.722</ele>
<time>2019-05-30T15:44:06Z</time>
</trkpt>
<trkpt lat="49.515617" lon="10.256255">
<ele>413.965</ele>
<time>2019-05-30T15:44:07Z</time>
</trkpt>
<trkpt lat="49.515617" lon="10.256325">
<ele>414.155</ele>
<time>2019-05-30T15:44:08Z</time>
</trkpt>
<trkpt lat="49.515614" lon="10.256393">
<ele>414.303</ele>
<time>2019-05-30T15:44:09Z</time>
</trkpt>
<trkpt lat="49.515614" lon="10.256463">
<ele>414.404</ele>
<time>2019-05-30T15:44:10Z</time>
</trkpt>
<trkpt lat="49.51561" lon="10.256532">
<ele>414.512</ele>
<time>2019-05-30T15:44:11Z</time>
</trkpt>
<trkpt lat="49.515606" lon="10.256599">
<ele>414.59</ele>
<time>2019-05-30T15:44:12Z</time>
</trkpt>
<trkpt lat="49.515602" lon="10.25667">
<ele>414.64</ele>
<time>2019-05-30T15:44:13Z</time>
</trkpt>
<trkpt lat="49.515598" lon="10.25674">
<ele>414.664</ele>
<time>2019-05-30T15:44:14Z</time>
</trkpt>
<trkpt lat="49.515598" lon="10.256809">
<ele>414.664</ele>
<time>2019-05-30T15:44:15Z</time>
</trkpt>
<trkpt lat="49.515594" lon="10.256878">
<ele>414.664</ele>
<time>2019-05-30T15:44:16Z</time>
</trkpt>
<trkpt lat="49.515594" lon="10.256945">
<ele>414.664</ele>
<time>2019-05-30T15:44:17Z</time>
</trkpt>
<trkpt lat="49.515591" lon="10.257013">
<ele>414.664</ele>
<time>2019-05-30T15:44:18Z</time>
</trkpt>
<trkpt lat="49.515587" lon="10.257083">
<ele>414.664</ele>
<time>2019-05-30T15:44:19Z</time>
</trkpt>
<trkpt lat="49.515583" lon="10.257156">
<ele>414.664</ele>
<time>2019-05-30T15:44:20Z</time>
</trkpt>
<trkpt lat="49.515579" lon="10.25723">
<ele>414.664</ele>
<time>2019-05-30T15:44:21Z</time>
</trkpt>
<trkpt lat="49.515575" lon="10.257307">
<ele>414.664</ele>
<time>2019-05-30T15:44:22Z</time>
</trkpt>
<trkpt lat="49.515572" lon="10.257381">
<ele>414.664</ele>
<time>2019-05-30T15:44:23Z</time>
</trkpt>
<trkpt lat="49.515572" lon="10.257461">
<ele>414.664</ele>
<time>2019-05-30T15:44:24Z</time>
</trkpt>
<trkpt lat="49.515568" lon="10.257538">
<ele>414.664</ele>
<time>2019-05-30T15:44:25Z</time>
</trkpt>
<trkpt lat="49.515564" lon="10.257616">
<ele>414.664</ele>
<time>2019-05-30T15:44:26Z</time>
</trkpt>
<trkpt lat="49.515564" lon="10.257698">
<ele>414.664</ele>
<time>2019-05-30T15:44:27Z</time>
</trkpt>
<trkpt lat="49.515564" lon="10.257781">
<ele>414.664</ele>
<time>2019-05-30T15:44:28Z</time>
</trkpt>
<trkpt lat="49.51556" lon="10.257865">
<ele>414.664</ele>
<time>2019-05-30T15:44:29Z</time>
</trkpt>
<trkpt lat="49.515556" lon="10.257951">
<ele>414.664</ele>
<time>2019-05-30T15:44:30Z</time>
</trkpt>
<trkpt lat="49.515553" lon="10.258035">
<ele>414.664</ele>
<time>2019-05-30T15:44:31Z</time>
</trkpt>
<trkpt lat="49.515549" lon="10.258121">
<ele>414.664</ele>
<time>2019-05-30T15:44:32Z</time>
</trkpt>
<trkpt lat="49.515545" lon="10.258206">
<ele>414.664</ele>
<time>2019-05-30T15:44:33Z</time>
</trkpt>
<trkpt lat="49.515545" lon="10.258295">
<ele>414.664</ele>
<time>2019-05-30T15:44:34Z</time>
</trkpt>
<trkpt lat="49.515541" lon="10.258382">
<ele>414.664</ele>
<time>2019-05-30T15:44:35Z</time>
</trkpt>
<trkpt lat="49.515541" lon="10.258471">
<ele>414.412</ele>
<time>2019-05-30T15:44:36Z</time>
</trkpt>
<trkpt lat="49.515537" lon="10.258558">
<ele>414.216</ele>
<time>2019-05-30T15:44:37Z</time>
</trkpt>
<trkpt lat="49.515541" lon="10.258647">
<ele>414.069</ele>
<time>2019-05-30T15:44:38Z</time>
</trkpt>
<trkpt lat="49.515541" lon="10.258733">
<ele>413.955</ele>
<time>2019-05-30T15:44:39Z</time>
</trkpt>
<trkpt lat="49.515541" lon="10.258822">
<ele>413.878</ele>
<time>2019-05-30T15:44:40Z</time>
</trkpt>
<trkpt lat="49.515537" lon="10.25891">
<ele>413.798</ele>
<time>2019-05-30T15:44:41Z</time>
</trkpt>
<trkpt lat="49.515537" lon="10.259">
<ele>413.747</ele>
<time>2019-05-30T15:44:42Z</time>
</trkpt>
<trkpt lat="49.515541" lon="10.25909">
<ele>413.722</ele>
<time>2019-05-30T15:44:43Z</time>
</trkpt>
<trkpt lat="49.515541" lon="10.259183">
<ele>413.722</ele>
<time>2019-05-30T15:44:44Z</time>
</trkpt>
<trkpt lat="49.515541" lon="10.259275">
<ele>413.722</ele>
<time>2019-05-30T15:44:45Z</time>
</trkpt>
<trkpt lat="49.515545" lon="10.259369">
<ele>413.722</ele>
<time>2019-05-30T15:44:46Z</time>
</trkpt>
<trkpt lat="49.515545" lon="10.259459">
<ele>413.722</ele>
<time>2019-05-30T15:44:47Z</time>
</trkpt>
<trkpt lat="49.515545" lon="10.259555">
<ele>413.722</ele>
<time>2019-05-30T15:44:48Z</time>
</trkpt>
<trkpt lat="49.515545" lon="10.259648">
<ele>413.469</ele>
<time>2019-05-30T15:44:49Z</time>
</trkpt>
<trkpt lat="49.515545" lon="10.259744">
<ele>413.291</ele>
<time>2019-05-30T15:44:50Z</time>
</trkpt>
<trkpt lat="49.515545" lon="10.259838">
<ele>413.108</ele>
<time>2019-05-30T15:44:51Z</time>
</trkpt>
<trkpt lat="49.515545" lon="10.259933">
<ele>412.963</ele>
<time>2019-05-30T15:44:52Z</time>
</trkpt>
<trkpt lat="49.515545" lon="10.260029">
<ele>412.85</ele>
<time>2019-05-30T15:44:53Z</time>
</trkpt>
<trkpt lat="49.515545" lon="10.260121">
<ele>412.77</ele>
<time>2019-05-30T15:44:54Z</time>
</trkpt>
<trkpt lat="49.515545" lon="10.260217">
<ele>412.719</ele>
<time>2019-05-30T15:44:55Z</time>
</trkpt>
<trkpt lat="49.515545" lon="10.260312">
<ele>412.694</ele>
<time>2019-05-30T15:44:56Z</time>
</trkpt>
<trkpt lat="49.515545" lon="10.260406">
<ele>412.694</ele>
<time>2019-05-30T15:44:57Z</time>
</trkpt>
<trkpt lat="49.515549" lon="10.260502">
<ele>412.46</ele>
<time>2019-05-30T15:44:58Z</time>
</trkpt>
<trkpt lat="49.515549" lon="10.260595">
<ele>412.273</ele>
<time>2019-05-30T15:44:59Z</time>
</trkpt>
<trkpt lat="49.515549" lon="10.26069">
<ele>412.145</ele>
<time>2019-05-30T15:45:00Z</time>
</trkpt>
<trkpt lat="49.515553" lon="10.260787">
<ele>412.007</ele>
<time>2019-05-30T15:45:01Z</time>
</trkpt>
<trkpt lat="49.515553" lon="10.260881">
<ele>411.9</ele>
<time>2019-05-30T15:45:02Z</time>
</trkpt>
<trkpt lat="49.515553" lon="10.260979">
<ele>411.825</ele>
<time>2019-05-30T15:45:03Z</time>
</trkpt>
<trkpt lat="49.515553" lon="10.261077">
<ele>411.776</ele>
<time>2019-05-30T15:45:04Z</time>
</trkpt>
<trkpt lat="49.515553" lon="10.261175">
<ele>411.752</ele>
<time>2019-05-30T15:45:05Z</time>
</trkpt>
<trkpt lat="49.515556" lon="10.261275">
<ele>411.752</ele>
<time>2019-05-30T15:45:06Z</time>
</trkpt>
<trkpt lat="49.515556" lon="10.261374">
<ele>411.752</ele>
<time>2019-05-30T15:45:07Z</time>
</trkpt>
<trkpt lat="49.515556" lon="10.261473">
<ele>411.752</ele>
<time>2019-05-30T15:45:08Z</time>
</trkpt>
<trkpt lat="49.515556" lon="10.261574">
<ele>411.752</ele>
<time>2019-05-30T15:45:09Z</time>
</trkpt>
<trkpt lat="49.515556" lon="10.261674">
<ele>411.752</ele>
<time>2019-05-30T15:45:10Z</time>
</trkpt>
<trkpt lat="49.515556" lon="10.261773">
<ele>411.543</ele>
<time>2019-05-30T15:45:11Z</time>
</trkpt>
<trkpt lat="49.51556" lon="10.261871">
<ele>411.368</ele>
<time>2019-05-30T15:45:12Z</time>
</trkpt>
<trkpt lat="49.51556" lon="10.261971">
<ele>411.225</ele>
<time>2019-05-30T15:45:13Z</time>
</trkpt>
<trkpt lat="49.51556" lon="10.262074">
<ele>411.11</ele>
<time>2019-05-30T15:45:14Z</time>
</trkpt>
<trkpt lat="49.51556" lon="10.262175">
<ele>411.038</ele>
<time>2019-05-30T15:45:15Z</time>
</trkpt>
<trkpt lat="49.51556" lon="10.262277">
<ele>410.734</ele>
<time>2019-05-30T15:45:16Z</time>
</trkpt>
<trkpt lat="49.51556" lon="10.26238">
<ele>410.495</ele>
<time>2019-05-30T15:45:17Z</time>
</trkpt>
<trkpt lat="49.51556" lon="10.262485">
<ele>410.314</ele>
<time>2019-05-30T15:45:18Z</time>
</trkpt>
<trkpt lat="49.51556" lon="10.262589">
<ele>410.187</ele>
<time>2019-05-30T15:45:19Z</time>
</trkpt>
<trkpt lat="49.51556" lon="10.262693">
<ele>410.109</ele>
<time>2019-05-30T15:45:20Z</time>
</trkpt>
<trkpt lat="49.51556" lon="10.262798">
<ele>410.029</ele>
<time>2019-05-30T15:45:21Z</time>
</trkpt>
<trkpt lat="49.51556" lon="10.262903">
<ele>409.978</ele>
<time>2019-05-30T15:45:22Z</time>
</trkpt>
<trkpt lat="49.51556" lon="10.263008">
<ele>409.954</ele>
<time>2019-05-30T15:45:23Z</time>
</trkpt>
<trkpt lat="49.51556" lon="10.263113">
<ele>409.954</ele>
<time>2019-05-30T15:45:24Z</time>
</trkpt>
<trkpt lat="49.51556" lon="10.26322">
<ele>409.954</ele>
<time>2019-05-30T15:45:25Z</time>
</trkpt>
<trkpt lat="49.51556" lon="10.263325">
<ele>409.954</ele>
<time>2019-05-30T15:45:26Z</time>
</trkpt>
<trkpt lat="49.515564" lon="10.263432">
<ele>409.954</ele>
<time>2019-05-30T15:45:27Z</time>
</trkpt>
<trkpt lat="49.515564" lon="10.263536">
<ele>409.954</ele>
<time>2019-05-30T15:45:28Z</time>
</trkpt>
<trkpt lat="49.515564" lon="10.263645">
<ele>409.954</ele>
<time>2019-05-30T15:45:29Z</time>
</trkpt>
<trkpt lat="49.51556" lon="10.263752">
<ele>409.725</ele>
<time>2019-05-30T15:45:30Z</time>
</trkpt>
<trkpt lat="49.51556" lon="10.263862">
<ele>409.508</ele>
<time>2019-05-30T15:45:31Z</time>
</trkpt>
<trkpt lat="49.51556" lon="10.263972">
<ele>409.33</ele>
<time>2019-05-30T15:45:32Z</time>
</trkpt>
<trkpt lat="49.515564" lon="10.26408">
<ele>409.188</ele>
<time>2019-05-30T15:45:33Z</time>
</trkpt>
<trkpt lat="49.515564" lon="10.264192">
<ele>409.078</ele>
<time>2019-05-30T15:45:34Z</time>
</trkpt>
<trkpt lat="49.515564" lon="10.264303">
<ele>409</ele>
<time>2019-05-30T15:45:35Z</time>
</trkpt>
<trkpt lat="49.515564" lon="10.264415">
<ele>408.95</ele>
<time>2019-05-30T15:45:36Z</time>
</trkpt>
<trkpt lat="49.515564" lon="10.264527">
<ele>408.926</ele>
<time>2019-05-30T15:45:37Z</time>
</trkpt>
<trkpt lat="49.515564" lon="10.26464">
<ele>408.926</ele>
<time>2019-05-30T15:45:38Z</time>
</trkpt>
<trkpt lat="49.515564" lon="10.264753">
<ele>408.696</ele>
<time>2019-05-30T15:45:39Z</time>
</trkpt>
<trkpt lat="49.515564" lon="10.264867">
<ele>408.532</ele>
<time>2019-05-30T15:45:40Z</time>
</trkpt>
<trkpt lat="49.51556" lon="10.26498">
<ele>408.155</ele>
<time>2019-05-30T15:45:41Z</time>
</trkpt>
<trkpt lat="49.51556" lon="10.265095">
<ele>407.847</ele>
<time>2019-05-30T15:45:42Z</time>
</trkpt>
<trkpt lat="49.515556" lon="10.265208">
<ele>407.6</ele>
<time>2019-05-30T15:45:43Z</time>
</trkpt>
<trkpt lat="49.515553" lon="10.265324">
<ele>407.411</ele>
<time>2019-05-30T15:45:44Z</time>
</trkpt>
<trkpt lat="49.515545" lon="10.265438">
<ele>407.276</ele>
<time>2019-05-30T15:45:45Z</time>
</trkpt>
<trkpt lat="49.515537" lon="10.265553">
<ele>407.189</ele>
<time>2019-05-30T15:45:46Z</time>
</trkpt>
<trkpt lat="49.51553" lon="10.265672">
<ele>407.152</ele>
<time>2019-05-30T15:45:47Z</time>
</trkpt>
<trkpt lat="49.515522" lon="10.26579">
<ele>406.897</ele>
<time>2019-05-30T15:45:48Z</time>
</trkpt>
<trkpt lat="49.515511" lon="10.265906">
<ele>406.704</ele>
<time>2019-05-30T15:45:49Z</time>
</trkpt>
<trkpt lat="49.515499" lon="10.266024">
<ele>406.577</ele>
<time>2019-05-30T15:45:50Z</time>
</trkpt>
<trkpt lat="49.515484" lon="10.266142">
<ele>406.438</ele>
<time>2019-05-30T15:45:51Z</time>
</trkpt>
<trkpt lat="49.515469" lon="10.26626">
<ele>406.334</ele>
<time>2019-05-30T15:45:52Z</time>
</trkpt>
<trkpt lat="49.515457" lon="10.266377">
<ele>406.264</ele>
<time>2019-05-30T15:45:53Z</time>
</trkpt>
<trkpt lat="49.515438" lon="10.266495">
<ele>405.94</ele>
<time>2019-05-30T15:45:54Z</time>
</trkpt>
<trkpt lat="49.515427" lon="10.266614">
<ele>405.688</ele>
<time>2019-05-30T15:45:55Z</time>
</trkpt>
<trkpt lat="49.515408" lon="10.266731">
<ele>405.444</ele>
<time>2019-05-30T15:45:56Z</time>
</trkpt>
<trkpt lat="49.515396" lon="10.266853">
<ele>405.31</ele>
<time>2019-05-30T15:45:57Z</time>
</trkpt>
<trkpt lat="49.515381" lon="10.266974">
<ele>405.216</ele>
<time>2019-05-30T15:45:58Z</time>
</trkpt>
<trkpt lat="49.515366" lon="10.267098">
<ele>405.154</ele>
<time>2019-05-30T15:45:59Z</time>
</trkpt>
<trkpt lat="49.51535" lon="10.267221">
<ele>405.105</ele>
<time>2019-05-30T15:46:00Z</time>
</trkpt>
<trkpt lat="49.515335" lon="10.267348">
<ele>404.842</ele>
<time>2019-05-30T15:46:01Z</time>
</trkpt>
<trkpt lat="49.51532" lon="10.267473">
<ele>404.649</ele>
<time>2019-05-30T15:46:02Z</time>
</trkpt>
<trkpt lat="49.515305" lon="10.2676">
<ele>404.49</ele>
<time>2019-05-30T15:46:03Z</time>
</trkpt>
<trkpt lat="49.515285" lon="10.267727">
<ele>404.365</ele>
<time>2019-05-30T15:46:04Z</time>
</trkpt>
<trkpt lat="49.51527" lon="10.267852">
<ele>404.269</ele>
<time>2019-05-30T15:46:05Z</time>
</trkpt>
<trkpt lat="49.515255" lon="10.26798">
<ele>404.21</ele>
<time>2019-05-30T15:46:06Z</time>
</trkpt>
<trkpt lat="49.51524" lon="10.268106">
<ele>403.907</ele>
<time>2019-05-30T15:46:07Z</time>
</trkpt>
<trkpt lat="49.515224" lon="10.268236">
<ele>403.672</ele>
<time>2019-05-30T15:46:08Z</time>
</trkpt>
<trkpt lat="49.515205" lon="10.268365">
<ele>403.5</ele>
<time>2019-05-30T15:46:09Z</time>
</trkpt>
<trkpt lat="49.515194" lon="10.268492">
<ele>403.39</ele>
<time>2019-05-30T15:46:10Z</time>
</trkpt>
<trkpt lat="49.515179" lon="10.26862">
<ele>403.043</ele>
<time>2019-05-30T15:46:11Z</time>
</trkpt>
<trkpt lat="49.515163" lon="10.268748">
<ele>402.765</ele>
<time>2019-05-30T15:46:12Z</time>
</trkpt>
<trkpt lat="49.515144" lon="10.268877">
<ele>402.552</ele>
<time>2019-05-30T15:46:13Z</time>
</trkpt>
<trkpt lat="49.515129" lon="10.269007">
<ele>402.401</ele>
<time>2019-05-30T15:46:14Z</time>
</trkpt>
<trkpt lat="49.515118" lon="10.269138">
<ele>402.303</ele>
<time>2019-05-30T15:46:15Z</time>
</trkpt>
<trkpt lat="49.515106" lon="10.26927">
<ele>402.244</ele>
<time>2019-05-30T15:46:16Z</time>
</trkpt>
<trkpt lat="49.515091" lon="10.269402">
<ele>401.981</ele>
<time>2019-05-30T15:46:17Z</time>
</trkpt>
<trkpt lat="49.515079" lon="10.269535">
<ele>401.78</ele>
<time>2019-05-30T15:46:18Z</time>
</trkpt>
<trkpt lat="49.515068" lon="10.269669">
<ele>401.637</ele>
<time>2019-05-30T15:46:19Z</time>
</trkpt>
<trkpt lat="49.515057" lon="10.269801">
<ele>401.546</ele>
<time>2019-05-30T15:46:20Z</time>
</trkpt>
<trkpt lat="49.515045" lon="10.269937">
<ele>401.217</ele>
<time>2019-05-30T15:46:21Z</time>
</trkpt>
<trkpt lat="49.515034" lon="10.270073">
<ele>400.954</ele>
<time>2019-05-30T15:46:22Z</time>
</trkpt>
<trkpt lat="49.515022" lon="10.270209">
<ele>400.75</ele>
<time>2019-05-30T15:46:23Z</time>
</trkpt>
<trkpt lat="49.515015" lon="10.270348">
<ele>400.602</ele>
<time>2019-05-30T15:46:24Z</time>
</trkpt>
<trkpt lat="49.515007" lon="10.270488">
<ele>400.524</ele>
<time>2019-05-30T15:46:25Z</time>
</trkpt>
<trkpt lat="49.514999" lon="10.270626">
<ele>400.192</ele>
<time>2019-05-30T15:46:26Z</time>
</trkpt>
<trkpt lat="49.514992" lon="10.270766">
<ele>399.931</ele>
<time>2019-05-30T15:46:27Z</time>
</trkpt>
<trkpt lat="49.514984" lon="10.270906">
<ele>399.767</ele>
<time>2019-05-30T15:46:28Z</time>
</trkpt>
<trkpt lat="49.51498" lon="10.271045">
<ele>399.388</ele>
<time>2019-05-30T15:46:29Z</time>
</trkpt>
<trkpt lat="49.514977" lon="10.271183">
<ele>399.119</ele>
<time>2019-05-30T15:46:30Z</time>
</trkpt>
<trkpt lat="49.514973" lon="10.271318">
<ele>398.865</ele>
<time>2019-05-30T15:46:31Z</time>
</trkpt>
<trkpt lat="49.514965" lon="10.271454">
<ele>398.691</ele>
<time>2019-05-30T15:46:32Z</time>
</trkpt>
<trkpt lat="49.514957" lon="10.27159">
<ele>398.327</ele>
<time>2019-05-30T15:46:33Z</time>
</trkpt>
<trkpt lat="49.514954" lon="10.271727">
<ele>398.057</ele>
<time>2019-05-30T15:46:34Z</time>
</trkpt>
<trkpt lat="49.51495" lon="10.27186">
<ele>397.85</ele>
<time>2019-05-30T15:46:35Z</time>
</trkpt>
<trkpt lat="49.514946" lon="10.27199">
<ele>397.698</ele>
<time>2019-05-30T15:46:36Z</time>
</trkpt>
<trkpt lat="49.514946" lon="10.27212">
<ele>397.558</ele>
<time>2019-05-30T15:46:37Z</time>
</trkpt>
<trkpt lat="49.514938" lon="10.272248">
<ele>397.507</ele>
<time>2019-05-30T15:46:38Z</time>
</trkpt>
<trkpt lat="49.514931" lon="10.272377">
<ele>397.483</ele>
<time>2019-05-30T15:46:39Z</time>
</trkpt>
<trkpt lat="49.514923" lon="10.272503">
<ele>397.461</ele>
<time>2019-05-30T15:46:40Z</time>
</trkpt>
<trkpt lat="49.514915" lon="10.27263">
<ele>397.461</ele>
<time>2019-05-30T15:46:41Z</time>
</trkpt>
<trkpt lat="49.514912" lon="10.272755">
<ele>397.461</ele>
<time>2019-05-30T15:46:42Z</time>
</trkpt>
<trkpt lat="49.514904" lon="10.272879">
<ele>397.461</ele>
<time>2019-05-30T15:46:43Z</time>
</trkpt>
<trkpt lat="49.514893" lon="10.273">
<ele>397.461</ele>
<time>2019-05-30T15:46:44Z</time>
</trkpt>
<trkpt lat="49.514881" lon="10.273118">
<ele>397.461</ele>
<time>2019-05-30T15:46:45Z</time>
</trkpt>
<trkpt lat="49.514866" lon="10.273234">
<ele>397.461</ele>
<time>2019-05-30T15:46:46Z</time>
</trkpt>
<trkpt lat="49.514851" lon="10.27335">
<ele>397.461</ele>
<time>2019-05-30T15:46:47Z</time>
</trkpt>
<trkpt lat="49.514835" lon="10.273463">
<ele>397.461</ele>
<time>2019-05-30T15:46:48Z</time>
</trkpt>
<trkpt lat="49.514816" lon="10.273574">
<ele>397.461</ele>
<time>2019-05-30T15:46:49Z</time>
</trkpt>
<trkpt lat="49.514797" lon="10.273681">
<ele>397.461</ele>
<time>2019-05-30T15:46:50Z</time>
</trkpt>
<trkpt lat="49.514778" lon="10.273787">
<ele>397.461</ele>
<time>2019-05-30T15:46:51Z</time>
</trkpt>
<trkpt lat="49.514755" lon="10.27389">
<ele>397.461</ele>
<time>2019-05-30T15:46:52Z</time>
</trkpt>
<trkpt lat="49.514736" lon="10.273993">
<ele>397.461</ele>
<time>2019-05-30T15:46:53Z</time>
</trkpt>
<trkpt lat="49.514713" lon="10.274096">
<ele>397.72</ele>
<time>2019-05-30T15:46:54Z</time>
</trkpt>
<trkpt lat="49.51469" lon="10.274192">
<ele>397.923</ele>
<time>2019-05-30T15:46:55Z</time>
</trkpt>
<trkpt lat="49.514668" lon="10.274288">
<ele>398.082</ele>
<time>2019-05-30T15:46:56Z</time>
</trkpt>
<trkpt lat="49.514645" lon="10.274386">
<ele>398.199</ele>
<time>2019-05-30T15:46:57Z</time>
</trkpt>
<trkpt lat="49.514618" lon="10.274482">
<ele>398.281</ele>
<time>2019-05-30T15:46:58Z</time>
</trkpt>
<trkpt lat="49.514591" lon="10.274578">
<ele>398.332</ele>
<time>2019-05-30T15:46:59Z</time>
</trkpt>
<trkpt lat="49.514565" lon="10.274672">
<ele>398.375</ele>
<time>2019-05-30T15:47:00Z</time>
</trkpt>
<trkpt lat="49.514542" lon="10.274766">
<ele>398.401</ele>
<time>2019-05-30T15:47:01Z</time>
</trkpt>
<trkpt lat="49.514519" lon="10.27486">
<ele>398.401</ele>
<time>2019-05-30T15:47:02Z</time>
</trkpt>
<trkpt lat="49.514488" lon="10.274955">
<ele>398.401</ele>
<time>2019-05-30T15:47:03Z</time>
</trkpt>
<trkpt lat="49.514462" lon="10.27505">
<ele>398.401</ele>
<time>2019-05-30T15:47:04Z</time>
</trkpt>
<trkpt lat="49.514435" lon="10.275147">
<ele>398.401</ele>
<time>2019-05-30T15:47:05Z</time>
</trkpt>
<trkpt lat="49.514412" lon="10.275246">
<ele>398.174</ele>
<time>2019-05-30T15:47:06Z</time>
</trkpt>
<trkpt lat="49.514389" lon="10.275343">
<ele>397.997</ele>
<time>2019-05-30T15:47:07Z</time>
</trkpt>
<trkpt lat="49.514359" lon="10.275441">
<ele>397.86</ele>
<time>2019-05-30T15:47:08Z</time>
</trkpt>
<trkpt lat="49.514336" lon="10.275543">
<ele>397.781</ele>
<time>2019-05-30T15:47:09Z</time>
</trkpt>
<trkpt lat="49.514309" lon="10.275648">
<ele>397.475</ele>
<time>2019-05-30T15:47:10Z</time>
</trkpt>
<trkpt lat="49.514282" lon="10.275753">
<ele>397.203</ele>
<time>2019-05-30T15:47:11Z</time>
</trkpt>
<trkpt lat="49.514256" lon="10.275862">
<ele>397.016</ele>
<time>2019-05-30T15:47:12Z</time>
</trkpt>
<trkpt lat="49.514225" lon="10.275975">
<ele>396.577</ele>
<time>2019-05-30T15:47:13Z</time>
</trkpt>
<trkpt lat="49.514194" lon="10.276093">
<ele>396.286</ele>
<time>2019-05-30T15:47:14Z</time>
</trkpt>
<trkpt lat="49.514164" lon="10.276217">
<ele>395.767</ele>
<time>2019-05-30T15:47:15Z</time>
</trkpt>
<trkpt lat="49.514133" lon="10.276343">
<ele>395.07</ele>
<time>2019-05-30T15:47:16Z</time>
</trkpt>
<trkpt lat="49.514099" lon="10.27647">
<ele>394.603</ele>
<time>2019-05-30T15:47:17Z</time>
</trkpt>
<trkpt lat="49.514065" lon="10.276602">
<ele>393.924</ele>
<time>2019-05-30T15:47:18Z</time>
</trkpt>
<trkpt lat="49.51403" lon="10.276737">
<ele>393.238</ele>
<time>2019-05-30T15:47:19Z</time>
</trkpt>
<trkpt lat="49.514" lon="10.27687">
<ele>392.747</ele>
<time>2019-05-30T15:47:20Z</time>
</trkpt>
<trkpt lat="49.513966" lon="10.277006">
<ele>392.13</ele>
<time>2019-05-30T15:47:21Z</time>
</trkpt>
<trkpt lat="49.513935" lon="10.277144">
<ele>391.379</ele>
<time>2019-05-30T15:47:22Z</time>
</trkpt>
<trkpt lat="49.513908" lon="10.277287">
<ele>390.528</ele>
<time>2019-05-30T15:47:23Z</time>
</trkpt>
<trkpt lat="49.513882" lon="10.277429">
<ele>389.956</ele>
<time>2019-05-30T15:47:24Z</time>
</trkpt>
<trkpt lat="49.513863" lon="10.277569">
<ele>389.251</ele>
<time>2019-05-30T15:47:25Z</time>
</trkpt>
<trkpt lat="49.513844" lon="10.27771">
<ele>388.454</ele>
<time>2019-05-30T15:47:26Z</time>
</trkpt>
<trkpt lat="49.513824" lon="10.277852">
<ele>387.911</ele>
<time>2019-05-30T15:47:27Z</time>
</trkpt>
<trkpt lat="49.513809" lon="10.277992">
<ele>387.207</ele>
<time>2019-05-30T15:47:28Z</time>
</trkpt>
<trkpt lat="49.513802" lon="10.278137">
<ele>386.416</ele>
<time>2019-05-30T15:47:29Z</time>
</trkpt>
<trkpt lat="49.513794" lon="10.278281">
<ele>385.891</ele>
<time>2019-05-30T15:47:30Z</time>
</trkpt>
<trkpt lat="49.513786" lon="10.278432">
<ele>385.26</ele>
<time>2019-05-30T15:47:31Z</time>
</trkpt>
<trkpt lat="49.513779" lon="10.27858">
<ele>384.459</ele>
<time>2019-05-30T15:47:32Z</time>
</trkpt>
<trkpt lat="49.513775" lon="10.278728">
<ele>383.924</ele>
<time>2019-05-30T15:47:33Z</time>
</trkpt>
<trkpt lat="49.513771" lon="10.278872">
<ele>383.207</ele>
<time>2019-05-30T15:47:34Z</time>
</trkpt>
<trkpt lat="49.513771" lon="10.279011">
<ele>382.718</ele>
<time>2019-05-30T15:47:35Z</time>
</trkpt>
<trkpt lat="49.513775" lon="10.279141">
<ele>382.025</ele>
<time>2019-05-30T15:47:36Z</time>
</trkpt>
<trkpt lat="49.513775" lon="10.279268">
<ele>381.508</ele>
<time>2019-05-30T15:47:37Z</time>
</trkpt>
<trkpt lat="49.513771" lon="10.27939">
<ele>381.119</ele>
<time>2019-05-30T15:47:38Z</time>
</trkpt>
<trkpt lat="49.51376" lon="10.279505">
<ele>380.889</ele>
<time>2019-05-30T15:47:39Z</time>
</trkpt>
<trkpt lat="49.513741" lon="10.27961">
<ele>380.478</ele>
<time>2019-05-30T15:47:40Z</time>
</trkpt>
<trkpt lat="49.513721" lon="10.2797">
<ele>380.139</ele>
<time>2019-05-30T15:47:41Z</time>
</trkpt>
<trkpt lat="49.513695" lon="10.279778">
<ele>379.896</ele>
<time>2019-05-30T15:47:42Z</time>
</trkpt>
<trkpt lat="49.513664" lon="10.279845">
<ele>379.717</ele>
<time>2019-05-30T15:47:43Z</time>
</trkpt>
<trkpt lat="49.513626" lon="10.279891">
<ele>379.618</ele>
<time>2019-05-30T15:47:44Z</time>
</trkpt>
<trkpt lat="49.513577" lon="10.279903">
<ele>379.282</ele>
<time>2019-05-30T15:47:45Z</time>
</trkpt>
<trkpt lat="49.513523" lon="10.279883">
<ele>379.005</ele>
<time>2019-05-30T15:47:46Z</time>
</trkpt>
<trkpt lat="49.513477" lon="10.279853">
<ele>378.785</ele>
<time>2019-05-30T15:47:47Z</time>
</trkpt>
<trkpt lat="49.513432" lon="10.279826">
<ele>378.604</ele>
<time>2019-05-30T15:47:48Z</time>
</trkpt>
<trkpt lat="49.513378" lon="10.27981">
<ele>378.52</ele>
<time>2019-05-30T15:47:49Z</time>
</trkpt>
<trkpt lat="49.513325" lon="10.279805">
<ele>378.194</ele>
<time>2019-05-30T15:47:50Z</time>
</trkpt>
<trkpt lat="49.513271" lon="10.27981">
<ele>377.907</ele>
<time>2019-05-30T15:47:51Z</time>
</trkpt>
<trkpt lat="49.513218" lon="10.279826">
<ele>377.697</ele>
<time>2019-05-30T15:47:52Z</time>
</trkpt>
<trkpt lat="49.513172" lon="10.279845">
<ele>377.557</ele>
<time>2019-05-30T15:47:53Z</time>
</trkpt>
<trkpt lat="49.513134" lon="10.279863">
<ele>377.45</ele>
<time>2019-05-30T15:47:54Z</time>
</trkpt>
<trkpt lat="49.5131" lon="10.279884">
<ele>377.372</ele>
<time>2019-05-30T15:47:55Z</time>
</trkpt>
<trkpt lat="49.513073" lon="10.279914">
<ele>377.322</ele>
<time>2019-05-30T15:47:56Z</time>
</trkpt>
<trkpt lat="49.513046" lon="10.279948">
<ele>377.297</ele>
<time>2019-05-30T15:47:57Z</time>
</trkpt>
<trkpt lat="49.513031" lon="10.279995">
<ele>377.297</ele>
<time>2019-05-30T15:47:58Z</time>
</trkpt>
<trkpt lat="49.513027" lon="10.280048">
<ele>377.297</ele>
<time>2019-05-30T15:47:59Z</time>
</trkpt>
<trkpt lat="49.513031" lon="10.280107">
<ele>377.104</ele>
<time>2019-05-30T15:48:00Z</time>
</trkpt>
<trkpt lat="49.513042" lon="10.280167">
<ele>376.906</ele>
<time>2019-05-30T15:48:01Z</time>
</trkpt>
<trkpt lat="49.513062" lon="10.280236">
<ele>376.73</ele>
<time>2019-05-30T15:48:02Z</time>
</trkpt>
<trkpt lat="49.513084" lon="10.280308">
<ele>376.588</ele>
<time>2019-05-30T15:48:03Z</time>
</trkpt>
<trkpt lat="49.513107" lon="10.280381">
<ele>376.485</ele>
<time>2019-05-30T15:48:04Z</time>
</trkpt>
<trkpt lat="49.51313" lon="10.280462">
<ele>376.417</ele>
<time>2019-05-30T15:48:05Z</time>
</trkpt>
<trkpt lat="49.513153" lon="10.280544">
<ele>376.376</ele>
<time>2019-05-30T15:48:06Z</time>
</trkpt>
<trkpt lat="49.51318" lon="10.280628">
<ele>376.358</ele>
<time>2019-05-30T15:48:07Z</time>
</trkpt>
<trkpt lat="49.513203" lon="10.280714">
<ele>376.105</ele>
<time>2019-05-30T15:48:08Z</time>
</trkpt>
<trkpt lat="49.513229" lon="10.280802">
<ele>375.914</ele>
<time>2019-05-30T15:48:09Z</time>
</trkpt>
<trkpt lat="49.513252" lon="10.280889">
<ele>375.796</ele>
<time>2019-05-30T15:48:10Z</time>
</trkpt>
<trkpt lat="49.513279" lon="10.280978">
<ele>375.661</ele>
<time>2019-05-30T15:48:11Z</time>
</trkpt>
<trkpt lat="49.513306" lon="10.281068">
<ele>375.56</ele>
<time>2019-05-30T15:48:12Z</time>
</trkpt>
<trkpt lat="49.513329" lon="10.281158">
<ele>375.489</ele>
<time>2019-05-30T15:48:13Z</time>
</trkpt>
<trkpt lat="49.513351" lon="10.281248">
<ele>375.442</ele>
<time>2019-05-30T15:48:14Z</time>
</trkpt>
<trkpt lat="49.513378" lon="10.281339">
<ele>375.42</ele>
<time>2019-05-30T15:48:15Z</time>
</trkpt>
<trkpt lat="49.513401" lon="10.281426">
<ele>375.42</ele>
<time>2019-05-30T15:48:16Z</time>
</trkpt>
<trkpt lat="49.513439" lon="10.281517">
<ele>375.42</ele>
<time>2019-05-30T15:48:17Z</time>
</trkpt>
<trkpt lat="49.513466" lon="10.281607">
<ele>375.42</ele>
<time>2019-05-30T15:48:18Z</time>
</trkpt>
<trkpt lat="49.513493" lon="10.281696">
<ele>375.42</ele>
<time>2019-05-30T15:48:19Z</time>
</trkpt>
<trkpt lat="49.513519" lon="10.281791">
<ele>375.42</ele>
<time>2019-05-30T15:48:20Z</time>
</trkpt>
<trkpt lat="49.513542" lon="10.281881">
<ele>375.42</ele>
<time>2019-05-30T15:48:21Z</time>
</trkpt>
<trkpt lat="49.513561" lon="10.281973">
<ele>375.42</ele>
<time>2019-05-30T15:48:22Z</time>
</trkpt>
<trkpt lat="49.51358" lon="10.28206">
<ele>375.42</ele>
<time>2019-05-30T15:48:23Z</time>
</trkpt>
<trkpt lat="49.513603" lon="10.282145">
<ele>375.42</ele>
<time>2019-05-30T15:48:24Z</time>
</trkpt>
<trkpt lat="49.513622" lon="10.282228">
<ele>375.42</ele>
<time>2019-05-30T15:48:25Z</time>
</trkpt>
<trkpt lat="49.513641" lon="10.282313">
<ele>375.42</ele>
<time>2019-05-30T15:48:26Z</time>
</trkpt>
<trkpt lat="49.513664" lon="10.282394">
<ele>375.42</ele>
<time>2019-05-30T15:48:27Z</time>
</trkpt>
<trkpt lat="49.51368" lon="10.282475">
<ele>375.42</ele>
<time>2019-05-30T15:48:28Z</time>
</trkpt>
<trkpt lat="49.513702" lon="10.282556">
<ele>375.642</ele>
<time>2019-05-30T15:48:29Z</time>
</trkpt>
<trkpt lat="49.513718" lon="10.282635">
<ele>375.804</ele>
<time>2019-05-30T15:48:30Z</time>
</trkpt>
<trkpt lat="49.513737" lon="10.282713">
<ele>375.971</ele>
<time>2019-05-30T15:48:31Z</time>
</trkpt>
<trkpt lat="49.513748" lon="10.282792">
<ele>376.106</ele>
<time>2019-05-30T15:48:32Z</time>
</trkpt>
<trkpt lat="49.513767" lon="10.282866">
<ele>376.209</ele>
<time>2019-05-30T15:48:33Z</time>
</trkpt>
<trkpt lat="49.513783" lon="10.28294">
<ele>376.277</ele>
<time>2019-05-30T15:48:34Z</time>
</trkpt>
<trkpt lat="49.513802" lon="10.283014">
<ele>376.556</ele>
<time>2019-05-30T15:48:35Z</time>
</trkpt>
<trkpt lat="49.513821" lon="10.283088">
<ele>376.772</ele>
<time>2019-05-30T15:48:36Z</time>
</trkpt>
<trkpt lat="49.513836" lon="10.283159">
<ele>376.959</ele>
<time>2019-05-30T15:48:37Z</time>
</trkpt>
<trkpt lat="49.513859" lon="10.283233">
<ele>377.048</ele>
<time>2019-05-30T15:48:38Z</time>
</trkpt>
<trkpt lat="49.513874" lon="10.283308">
<ele>377.369</ele>
<time>2019-05-30T15:48:39Z</time>
</trkpt>
<trkpt lat="49.513893" lon="10.283381">
<ele>377.608</ele>
<time>2019-05-30T15:48:40Z</time>
</trkpt>
<trkpt lat="49.513905" lon="10.283457">
<ele>377.83</ele>
<time>2019-05-30T15:48:41Z</time>
</trkpt>
<trkpt lat="49.513924" lon="10.283532">
<ele>377.989</ele>
<time>2019-05-30T15:48:42Z</time>
</trkpt>
<trkpt lat="49.513935" lon="10.283606">
<ele>378.091</ele>
<time>2019-05-30T15:48:43Z</time>
</trkpt>
<trkpt lat="49.51395" lon="10.283678">
<ele>378.166</ele>
<time>2019-05-30T15:48:44Z</time>
</trkpt>
<trkpt lat="49.513966" lon="10.283751">
<ele>378.214</ele>
<time>2019-05-30T15:48:45Z</time>
</trkpt>
<trkpt lat="49.513985" lon="10.283825">
<ele>378.236</ele>
<time>2019-05-30T15:48:46Z</time>
</trkpt>
<trkpt lat="49.514" lon="10.283896">
<ele>378.236</ele>
<time>2019-05-30T15:48:47Z</time>
</trkpt>
<trkpt lat="49.514015" lon="10.283968">
<ele>378.236</ele>
<time>2019-05-30T15:48:48Z</time>
</trkpt>
<trkpt lat="49.51403" lon="10.284039">
<ele>378.463</ele>
<time>2019-05-30T15:48:49Z</time>
</trkpt>
<trkpt lat="49.514042" lon="10.284108">
<ele>378.626</ele>
<time>2019-05-30T15:48:50Z</time>
</trkpt>
<trkpt lat="49.514057" lon="10.284177">
<ele>378.792</ele>
<time>2019-05-30T15:48:51Z</time>
</trkpt>
<trkpt lat="49.514069" lon="10.284245">
<ele>378.925</ele>
<time>2019-05-30T15:48:52Z</time>
</trkpt>
<trkpt lat="49.514084" lon="10.284313">
<ele>379.028</ele>
<time>2019-05-30T15:48:53Z</time>
</trkpt>
<trkpt lat="49.514095" lon="10.284382">
<ele>379.103</ele>
<time>2019-05-30T15:48:54Z</time>
</trkpt>
<trkpt lat="49.514111" lon="10.28445">
<ele>379.152</ele>
<time>2019-05-30T15:48:55Z</time>
</trkpt>
<trkpt lat="49.514126" lon="10.28452">
<ele>379.175</ele>
<time>2019-05-30T15:48:56Z</time>
</trkpt>
<trkpt lat="49.514141" lon="10.28459">
<ele>379.175</ele>
<time>2019-05-30T15:48:57Z</time>
</trkpt>
<trkpt lat="49.514156" lon="10.284658">
<ele>379.175</ele>
<time>2019-05-30T15:48:58Z</time>
</trkpt>
<trkpt lat="49.514168" lon="10.284726">
<ele>379.405</ele>
<time>2019-05-30T15:48:59Z</time>
</trkpt>
<trkpt lat="49.514183" lon="10.284797">
<ele>379.568</ele>
<time>2019-05-30T15:49:00Z</time>
</trkpt>
<trkpt lat="49.514194" lon="10.284866">
<ele>379.735</ele>
<time>2019-05-30T15:49:01Z</time>
</trkpt>
<trkpt lat="49.514206" lon="10.284936">
<ele>379.868</ele>
<time>2019-05-30T15:49:02Z</time>
</trkpt>
<trkpt lat="49.514221" lon="10.285007">
<ele>379.97</ele>
<time>2019-05-30T15:49:03Z</time>
</trkpt>
<trkpt lat="49.514236" lon="10.285075">
<ele>380.043</ele>
<time>2019-05-30T15:49:04Z</time>
</trkpt>
<trkpt lat="49.514256" lon="10.285143">
<ele>380.091</ele>
<time>2019-05-30T15:49:05Z</time>
</trkpt>
<trkpt lat="49.514267" lon="10.285213">
<ele>380.114</ele>
<time>2019-05-30T15:49:06Z</time>
</trkpt>
<trkpt lat="49.514286" lon="10.285281">
<ele>380.379</ele>
<time>2019-05-30T15:49:07Z</time>
</trkpt>
<trkpt lat="49.514297" lon="10.28535">
<ele>380.583</ele>
<time>2019-05-30T15:49:08Z</time>
</trkpt>
<trkpt lat="49.514317" lon="10.285419">
<ele>380.745</ele>
<time>2019-05-30T15:49:09Z</time>
</trkpt>
<trkpt lat="49.514328" lon="10.28549">
<ele>380.855</ele>
<time>2019-05-30T15:49:10Z</time>
</trkpt>
<trkpt lat="49.514343" lon="10.28556">
<ele>380.973</ele>
<time>2019-05-30T15:49:11Z</time>
</trkpt>
<trkpt lat="49.514359" lon="10.285628">
<ele>381.059</ele>
<time>2019-05-30T15:49:12Z</time>
</trkpt>
<trkpt lat="49.51437" lon="10.285696">
<ele>381.113</ele>
<time>2019-05-30T15:49:13Z</time>
</trkpt>
<trkpt lat="49.514385" lon="10.285767">
<ele>381.139</ele>
<time>2019-05-30T15:49:14Z</time>
</trkpt>
<trkpt lat="49.514397" lon="10.285836">
<ele>381.139</ele>
<time>2019-05-30T15:49:15Z</time>
</trkpt>
<trkpt lat="49.514412" lon="10.285906">
<ele>381.364</ele>
<time>2019-05-30T15:49:16Z</time>
</trkpt>
<trkpt lat="49.514423" lon="10.285975">
<ele>381.541</ele>
<time>2019-05-30T15:49:17Z</time>
</trkpt>
<trkpt lat="49.514435" lon="10.286043">
<ele>381.678</ele>
<time>2019-05-30T15:49:18Z</time>
</trkpt>
<trkpt lat="49.51445" lon="10.286112">
<ele>381.779</ele>
<time>2019-05-30T15:49:19Z</time>
</trkpt>
<trkpt lat="49.514462" lon="10.286179">
<ele>381.851</ele>
<time>2019-05-30T15:49:20Z</time>
</trkpt>
<trkpt lat="49.514481" lon="10.286247">
<ele>381.924</ele>
<time>2019-05-30T15:49:21Z</time>
</trkpt>
<trkpt lat="49.514492" lon="10.286315">
<ele>381.969</ele>
<time>2019-05-30T15:49:22Z</time>
</trkpt>
<trkpt lat="49.514507" lon="10.286384">
<ele>382.221</ele>
<time>2019-05-30T15:49:23Z</time>
</trkpt>
<trkpt lat="49.514523" lon="10.286452">
<ele>382.474</ele>
<time>2019-05-30T15:49:24Z</time>
</trkpt>
<trkpt lat="49.514538" lon="10.28652">
<ele>382.634</ele>
<time>2019-05-30T15:49:25Z</time>
</trkpt>
<trkpt lat="49.514553" lon="10.286589">
<ele>382.752</ele>
<time>2019-05-30T15:49:26Z</time>
</trkpt>
<trkpt lat="49.514565" lon="10.286656">
<ele>382.837</ele>
<time>2019-05-30T15:49:27Z</time>
</trkpt>
<trkpt lat="49.51458" lon="10.286727">
<ele>382.887</ele>
<time>2019-05-30T15:49:28Z</time>
</trkpt>
<trkpt lat="49.514591" lon="10.286795">
<ele>382.91</ele>
<time>2019-05-30T15:49:29Z</time>
</trkpt>
<trkpt lat="49.514606" lon="10.286865">
<ele>382.932</ele>
<time>2019-05-30T15:49:30Z</time>
</trkpt>
<trkpt lat="49.514622" lon="10.286933">
<ele>382.932</ele>
<time>2019-05-30T15:49:31Z</time>
</trkpt>
<trkpt lat="49.514633" lon="10.287002">
<ele>382.932</ele>
<time>2019-05-30T15:49:32Z</time>
</trkpt>
<trkpt lat="49.514652" lon="10.28707">
<ele>382.932</ele>
<time>2019-05-30T15:49:33Z</time>
</trkpt>
<trkpt lat="49.514664" lon="10.28714">
<ele>382.932</ele>
<time>2019-05-30T15:49:34Z</time>
</trkpt>
<trkpt lat="49.514679" lon="10.287209">
<ele>383.188</ele>
<time>2019-05-30T15:49:35Z</time>
</trkpt>
<trkpt lat="49.514687" lon="10.287278">
<ele>383.388</ele>
<time>2019-05-30T15:49:36Z</time>
</trkpt>
<trkpt lat="49.514702" lon="10.287347">
<ele>383.539</ele>
<time>2019-05-30T15:49:37Z</time>
</trkpt>
<trkpt lat="49.514713" lon="10.287415">
<ele>383.654</ele>
<time>2019-05-30T15:49:38Z</time>
</trkpt>
<trkpt lat="49.514721" lon="10.287481">
<ele>383.734</ele>
<time>2019-05-30T15:49:39Z</time>
</trkpt>
<trkpt lat="49.514732" lon="10.28755">
<ele>383.794</ele>
<time>2019-05-30T15:49:40Z</time>
</trkpt>
<trkpt lat="49.514748" lon="10.287617">
<ele>383.846</ele>
<time>2019-05-30T15:49:41Z</time>
</trkpt>
<trkpt lat="49.514755" lon="10.287682">
<ele>383.872</ele>
<time>2019-05-30T15:49:42Z</time>
</trkpt>
<trkpt lat="49.514763" lon="10.287747">
<ele>384.163</ele>
<time>2019-05-30T15:49:43Z</time>
</trkpt>
<trkpt lat="49.514771" lon="10.287808">
<ele>384.39</ele>
<time>2019-05-30T15:49:44Z</time>
</trkpt>
<trkpt lat="49.514778" lon="10.287868">
<ele>384.564</ele>
<time>2019-05-30T15:49:45Z</time>
</trkpt>
<trkpt lat="49.514782" lon="10.28793">
<ele>384.697</ele>
<time>2019-05-30T15:49:46Z</time>
</trkpt>
<trkpt lat="49.514793" lon="10.287991">
<ele>384.787</ele>
<time>2019-05-30T15:49:47Z</time>
</trkpt>
<trkpt lat="49.514797" lon="10.288052">
<ele>384.844</ele>
<time>2019-05-30T15:49:48Z</time>
</trkpt>
<trkpt lat="49.514805" lon="10.288112">
<ele>384.866</ele>
<time>2019-05-30T15:49:49Z</time>
</trkpt>
<trkpt lat="49.514812" lon="10.288172">
<ele>385.14</ele>
<time>2019-05-30T15:49:50Z</time>
</trkpt>
<trkpt lat="49.514812" lon="10.288234">
<ele>385.373</ele>
<time>2019-05-30T15:49:51Z</time>
</trkpt>
<trkpt lat="49.51482" lon="10.288294">
<ele>385.567</ele>
<time>2019-05-30T15:49:52Z</time>
</trkpt>
<trkpt lat="49.514824" lon="10.288351">
<ele>385.721</ele>
<time>2019-05-30T15:49:53Z</time>
</trkpt>
<trkpt lat="49.514828" lon="10.28841">
<ele>385.838</ele>
<time>2019-05-30T15:49:54Z</time>
</trkpt>
<trkpt lat="49.514832" lon="10.288468">
<ele>385.925</ele>
<time>2019-05-30T15:49:55Z</time>
</trkpt>
<trkpt lat="49.514835" lon="10.288527">
<ele>385.976</ele>
<time>2019-05-30T15:49:56Z</time>
</trkpt>
<trkpt lat="49.514839" lon="10.288585">
<ele>386.233</ele>
<time>2019-05-30T15:49:57Z</time>
</trkpt>
<trkpt lat="49.514843" lon="10.288645">
<ele>386.435</ele>
<time>2019-05-30T15:49:58Z</time>
</trkpt>
<trkpt lat="49.514843" lon="10.288707">
<ele>386.552</ele>
<time>2019-05-30T15:49:59Z</time>
</trkpt>
<trkpt lat="49.514843" lon="10.288768">
<ele>386.875</ele>
<time>2019-05-30T15:50:00Z</time>
</trkpt>
<trkpt lat="49.514847" lon="10.28883">
<ele>387.168</ele>
<time>2019-05-30T15:50:01Z</time>
</trkpt>
<trkpt lat="49.514847" lon="10.28889">
<ele>387.395</ele>
<time>2019-05-30T15:50:02Z</time>
</trkpt>
<trkpt lat="49.514847" lon="10.288952">
<ele>387.562</ele>
<time>2019-05-30T15:50:03Z</time>
</trkpt>
<trkpt lat="49.514847" lon="10.28901">
<ele>387.676</ele>
<time>2019-05-30T15:50:04Z</time>
</trkpt>
<trkpt lat="49.514847" lon="10.289068">
<ele>387.74</ele>
<time>2019-05-30T15:50:05Z</time>
</trkpt>
<trkpt lat="49.514847" lon="10.289126">
<ele>387.781</ele>
<time>2019-05-30T15:50:06Z</time>
</trkpt>
<trkpt lat="49.514847" lon="10.289185">
<ele>387.801</ele>
<time>2019-05-30T15:50:07Z</time>
</trkpt>
<trkpt lat="49.514847" lon="10.289246">
<ele>387.801</ele>
<time>2019-05-30T15:50:08Z</time>
</trkpt>
<trkpt lat="49.514847" lon="10.289304">
<ele>388.028</ele>
<time>2019-05-30T15:50:09Z</time>
</trkpt>
<trkpt lat="49.514847" lon="10.289363">
<ele>388.191</ele>
<time>2019-05-30T15:50:10Z</time>
</trkpt>
<trkpt lat="49.514847" lon="10.289423">
<ele>388.359</ele>
<time>2019-05-30T15:50:11Z</time>
</trkpt>
<trkpt lat="49.514843" lon="10.289484">
<ele>388.495</ele>
<time>2019-05-30T15:50:12Z</time>
</trkpt>
<trkpt lat="49.514843" lon="10.289543">
<ele>388.598</ele>
<time>2019-05-30T15:50:13Z</time>
</trkpt>
<trkpt lat="49.514835" lon="10.289605">
<ele>388.672</ele>
<time>2019-05-30T15:50:14Z</time>
</trkpt>
<trkpt lat="49.514832" lon="10.289664">
<ele>388.716</ele>
<time>2019-05-30T15:50:15Z</time>
</trkpt>
<trkpt lat="49.514828" lon="10.289725">
<ele>388.992</ele>
<time>2019-05-30T15:50:16Z</time>
</trkpt>
<trkpt lat="49.514824" lon="10.289785">
<ele>389.224</ele>
<time>2019-05-30T15:50:17Z</time>
</trkpt>
<trkpt lat="49.514816" lon="10.289845">
<ele>389.386</ele>
<time>2019-05-30T15:50:18Z</time>
</trkpt>
<trkpt lat="49.514812" lon="10.289906">
<ele>389.511</ele>
<time>2019-05-30T15:50:19Z</time>
</trkpt>
<trkpt lat="49.514809" lon="10.289965">
<ele>389.596</ele>
<time>2019-05-30T15:50:20Z</time>
</trkpt>
<trkpt lat="49.514801" lon="10.290027">
<ele>389.912</ele>
<time>2019-05-30T15:50:21Z</time>
</trkpt>
<trkpt lat="49.51479" lon="10.290088">
<ele>390.16</ele>
<time>2019-05-30T15:50:22Z</time>
</trkpt>
<trkpt lat="49.514782" lon="10.290149">
<ele>390.347</ele>
<time>2019-05-30T15:50:23Z</time>
</trkpt>
<trkpt lat="49.514778" lon="10.290209">
<ele>390.447</ele>
<time>2019-05-30T15:50:24Z</time>
</trkpt>
<trkpt lat="49.514774" lon="10.290268">
<ele>390.764</ele>
<time>2019-05-30T15:50:25Z</time>
</trkpt>
<trkpt lat="49.514763" lon="10.290326">
<ele>391.015</ele>
<time>2019-05-30T15:50:26Z</time>
</trkpt>
<trkpt lat="49.514755" lon="10.290385">
<ele>391.208</ele>
<time>2019-05-30T15:50:27Z</time>
</trkpt>
<trkpt lat="49.514748" lon="10.290442">
<ele>391.346</ele>
<time>2019-05-30T15:50:28Z</time>
</trkpt>
<trkpt lat="49.51474" lon="10.290499">
<ele>391.434</ele>
<time>2019-05-30T15:50:29Z</time>
</trkpt>
<trkpt lat="49.514732" lon="10.290553">
<ele>391.489</ele>
<time>2019-05-30T15:50:30Z</time>
</trkpt>
<trkpt lat="49.514725" lon="10.290608">
<ele>391.538</ele>
<time>2019-05-30T15:50:31Z</time>
</trkpt>
<trkpt lat="49.514713" lon="10.290666">
<ele>391.561</ele>
<time>2019-05-30T15:50:32Z</time>
</trkpt>
<trkpt lat="49.514702" lon="10.290722">
<ele>391.561</ele>
<time>2019-05-30T15:50:33Z</time>
</trkpt>
<trkpt lat="49.51469" lon="10.29078">
<ele>391.561</ele>
<time>2019-05-30T15:50:34Z</time>
</trkpt>
<trkpt lat="49.514683" lon="10.290837">
<ele>391.561</ele>
<time>2019-05-30T15:50:35Z</time>
</trkpt>
<trkpt lat="49.514668" lon="10.290894">
<ele>391.833</ele>
<time>2019-05-30T15:50:36Z</time>
</trkpt>
<trkpt lat="49.514656" lon="10.290951">
<ele>392.049</ele>
<time>2019-05-30T15:50:37Z</time>
</trkpt>
<trkpt lat="49.514645" lon="10.291007">
<ele>392.21</ele>
<time>2019-05-30T15:50:38Z</time>
</trkpt>
<trkpt lat="49.514633" lon="10.291063">
<ele>392.333</ele>
<time>2019-05-30T15:50:39Z</time>
</trkpt>
<trkpt lat="49.514618" lon="10.291121">
<ele>392.416</ele>
<time>2019-05-30T15:50:40Z</time>
</trkpt>
<trkpt lat="49.514606" lon="10.291177">
<ele>392.504</ele>
<time>2019-05-30T15:50:41Z</time>
</trkpt>
<trkpt lat="49.514591" lon="10.291233">
<ele>392.558</ele>
<time>2019-05-30T15:50:42Z</time>
</trkpt>
<trkpt lat="49.51458" lon="10.291292">
<ele>392.817</ele>
<time>2019-05-30T15:50:43Z</time>
</trkpt>
<trkpt lat="49.514565" lon="10.291351">
<ele>393.071</ele>
<time>2019-05-30T15:50:44Z</time>
</trkpt>
<trkpt lat="49.514553" lon="10.291411">
<ele>393.231</ele>
<time>2019-05-30T15:50:45Z</time>
</trkpt>
<trkpt lat="49.514534" lon="10.291472">
<ele>393.348</ele>
<time>2019-05-30T15:50:46Z</time>
</trkpt>
<trkpt lat="49.514519" lon="10.291533">
<ele>393.413</ele>
<time>2019-05-30T15:50:47Z</time>
</trkpt>
<trkpt lat="49.5145" lon="10.291594">
<ele>393.732</ele>
<time>2019-05-30T15:50:48Z</time>
</trkpt>
<trkpt lat="49.514481" lon="10.291653">
<ele>393.971</ele>
<time>2019-05-30T15:50:49Z</time>
</trkpt>
<trkpt lat="49.514465" lon="10.291712">
<ele>394.133</ele>
<time>2019-05-30T15:50:50Z</time>
</trkpt>
<trkpt lat="49.514446" lon="10.291774">
<ele>394.281</ele>
<time>2019-05-30T15:50:51Z</time>
</trkpt>
<trkpt lat="49.514423" lon="10.291833">
<ele>394.393</ele>
<time>2019-05-30T15:50:52Z</time>
</trkpt>
<trkpt lat="49.514408" lon="10.291891">
<ele>394.476</ele>
<time>2019-05-30T15:50:53Z</time>
</trkpt>
<trkpt lat="49.514389" lon="10.29195">
<ele>394.528</ele>
<time>2019-05-30T15:50:54Z</time>
</trkpt>
<trkpt lat="49.514366" lon="10.29201">
<ele>394.553</ele>
<time>2019-05-30T15:50:55Z</time>
</trkpt>
<trkpt lat="49.514347" lon="10.292069">
<ele>394.553</ele>
<time>2019-05-30T15:50:56Z</time>
</trkpt>
<trkpt lat="49.514324" lon="10.292127">
<ele>394.553</ele>
<time>2019-05-30T15:50:57Z</time>
</trkpt>
<trkpt lat="49.514301" lon="10.292183">
<ele>394.553</ele>
<time>2019-05-30T15:50:58Z</time>
</trkpt>
<trkpt lat="49.514278" lon="10.292239">
<ele>394.553</ele>
<time>2019-05-30T15:50:59Z</time>
</trkpt>
<trkpt lat="49.514256" lon="10.292296">
<ele>394.762</ele>
<time>2019-05-30T15:51:00Z</time>
</trkpt>
<trkpt lat="49.514233" lon="10.292353">
<ele>394.96</ele>
<time>2019-05-30T15:51:01Z</time>
</trkpt>
<trkpt lat="49.51421" lon="10.29241">
<ele>395.122</ele>
<time>2019-05-30T15:51:02Z</time>
</trkpt>
<trkpt lat="49.514187" lon="10.292467">
<ele>395.231</ele>
<time>2019-05-30T15:51:03Z</time>
</trkpt>
<trkpt lat="49.514164" lon="10.292524">
<ele>395.569</ele>
<time>2019-05-30T15:51:04Z</time>
</trkpt>
<trkpt lat="49.514145" lon="10.292583">
<ele>395.843</ele>
<time>2019-05-30T15:51:05Z</time>
</trkpt>
<trkpt lat="49.514122" lon="10.292642">
<ele>396.048</ele>
<time>2019-05-30T15:51:06Z</time>
</trkpt>
<trkpt lat="49.514095" lon="10.2927">
<ele>396.2</ele>
<time>2019-05-30T15:51:07Z</time>
</trkpt>
<trkpt lat="49.514072" lon="10.292759">
<ele>396.313</ele>
<time>2019-05-30T15:51:08Z</time>
</trkpt>
<trkpt lat="49.51405" lon="10.292818">
<ele>396.368</ele>
<time>2019-05-30T15:51:09Z</time>
</trkpt>
<trkpt lat="49.514027" lon="10.292878">
<ele>396.408</ele>
<time>2019-05-30T15:51:10Z</time>
</trkpt>
<trkpt lat="49.514" lon="10.29294">
<ele>396.434</ele>
<time>2019-05-30T15:51:11Z</time>
</trkpt>
<trkpt lat="49.513977" lon="10.293002">
<ele>396.434</ele>
<time>2019-05-30T15:51:12Z</time>
</trkpt>
<trkpt lat="49.513954" lon="10.293065">
<ele>396.434</ele>
<time>2019-05-30T15:51:13Z</time>
</trkpt>
<trkpt lat="49.513935" lon="10.29313">
<ele>396.434</ele>
<time>2019-05-30T15:51:14Z</time>
</trkpt>
<trkpt lat="49.513908" lon="10.293192">
<ele>396.691</ele>
<time>2019-05-30T15:51:15Z</time>
</trkpt>
<trkpt lat="49.513885" lon="10.293253">
<ele>396.891</ele>
<time>2019-05-30T15:51:16Z</time>
</trkpt>
<trkpt lat="49.51387" lon="10.293314">
<ele>397.042</ele>
<time>2019-05-30T15:51:17Z</time>
</trkpt>
<trkpt lat="49.513847" lon="10.293377">
<ele>397.154</ele>
<time>2019-05-30T15:51:18Z</time>
</trkpt>
<trkpt lat="49.513828" lon="10.29344">
<ele>397.236</ele>
<time>2019-05-30T15:51:19Z</time>
</trkpt>
<trkpt lat="49.513805" lon="10.293505">
<ele>397.296</ele>
<time>2019-05-30T15:51:20Z</time>
</trkpt>
<trkpt lat="49.513786" lon="10.29357">
<ele>397.349</ele>
<time>2019-05-30T15:51:21Z</time>
</trkpt>
<trkpt lat="49.513767" lon="10.293633">
<ele>397.375</ele>
<time>2019-05-30T15:51:22Z</time>
</trkpt>
<trkpt lat="49.513748" lon="10.2937">
<ele>397.375</ele>
<time>2019-05-30T15:51:23Z</time>
</trkpt>
<trkpt lat="49.513733" lon="10.293769">
<ele>397.375</ele>
<time>2019-05-30T15:51:24Z</time>
</trkpt>
<trkpt lat="49.513714" lon="10.293837">
<ele>397.375</ele>
<time>2019-05-30T15:51:25Z</time>
</trkpt>
<trkpt lat="49.513699" lon="10.293907">
<ele>397.375</ele>
<time>2019-05-30T15:51:26Z</time>
</trkpt>
<trkpt lat="49.513676" lon="10.293977">
<ele>397.375</ele>
<time>2019-05-30T15:51:27Z</time>
</trkpt>
<trkpt lat="49.51366" lon="10.294049">
<ele>397.375</ele>
<time>2019-05-30T15:51:28Z</time>
</trkpt>
<trkpt lat="49.513645" lon="10.294123">
<ele>397.375</ele>
<time>2019-05-30T15:51:29Z</time>
</trkpt>
<trkpt lat="49.513634" lon="10.294195">
<ele>397.375</ele>
<time>2019-05-30T15:51:30Z</time>
</trkpt>
<trkpt lat="49.513615" lon="10.29427">
<ele>397.375</ele>
<time>2019-05-30T15:51:31Z</time>
</trkpt>
<trkpt lat="49.513603" lon="10.294345">
<ele>397.375</ele>
<time>2019-05-30T15:51:32Z</time>
</trkpt>
<trkpt lat="49.513588" lon="10.29442">
<ele>397.375</ele>
<time>2019-05-30T15:51:33Z</time>
</trkpt>
<trkpt lat="49.513573" lon="10.294496">
<ele>397.375</ele>
<time>2019-05-30T15:51:34Z</time>
</trkpt>
<trkpt lat="49.513557" lon="10.29457">
<ele>397.375</ele>
<time>2019-05-30T15:51:35Z</time>
</trkpt>
<trkpt lat="49.513542" lon="10.294643">
<ele>397.375</ele>
<time>2019-05-30T15:51:36Z</time>
</trkpt>
<trkpt lat="49.513531" lon="10.294718">
<ele>397.375</ele>
<time>2019-05-30T15:51:37Z</time>
</trkpt>
<trkpt lat="49.513515" lon="10.294793">
<ele>397.375</ele>
<time>2019-05-30T15:51:38Z</time>
</trkpt>
<trkpt lat="49.513504" lon="10.294868">
<ele>397.375</ele>
<time>2019-05-30T15:51:39Z</time>
</trkpt>
<trkpt lat="49.513493" lon="10.294945">
<ele>397.375</ele>
<time>2019-05-30T15:51:40Z</time>
</trkpt>
<trkpt lat="49.513477" lon="10.295022">
<ele>397.375</ele>
<time>2019-05-30T15:51:41Z</time>
</trkpt>
<trkpt lat="49.51347" lon="10.295096">
<ele>397.375</ele>
<time>2019-05-30T15:51:42Z</time>
</trkpt>
<trkpt lat="49.513458" lon="10.295173">
<ele>397.375</ele>
<time>2019-05-30T15:51:43Z</time>
</trkpt>
<trkpt lat="49.513447" lon="10.29525">
<ele>397.375</ele>
<time>2019-05-30T15:51:44Z</time>
</trkpt>
<trkpt lat="49.513443" lon="10.295327">
<ele>397.632</ele>
<time>2019-05-30T15:51:45Z</time>
</trkpt>
<trkpt lat="49.513435" lon="10.295405">
<ele>397.832</ele>
<time>2019-05-30T15:51:46Z</time>
</trkpt>
<trkpt lat="49.513424" lon="10.295483">
<ele>397.986</ele>
<time>2019-05-30T15:51:47Z</time>
</trkpt>
<trkpt lat="49.513412" lon="10.295565">
<ele>398.096</ele>
<time>2019-05-30T15:51:48Z</time>
</trkpt>
<trkpt lat="49.513409" lon="10.295647">
<ele>398.179</ele>
<time>2019-05-30T15:51:49Z</time>
</trkpt>
<trkpt lat="49.513401" lon="10.295728">
<ele>398.239</ele>
<time>2019-05-30T15:51:50Z</time>
</trkpt>
<trkpt lat="49.513393" lon="10.295815">
<ele>398.291</ele>
<time>2019-05-30T15:51:51Z</time>
</trkpt>
<trkpt lat="49.513386" lon="10.295899">
<ele>398.316</ele>
<time>2019-05-30T15:51:52Z</time>
</trkpt>
<trkpt lat="49.513382" lon="10.295987">
<ele>398.316</ele>
<time>2019-05-30T15:51:53Z</time>
</trkpt>
<trkpt lat="49.513378" lon="10.296075">
<ele>398.316</ele>
<time>2019-05-30T15:51:54Z</time>
</trkpt>
<trkpt lat="49.513378" lon="10.296165">
<ele>398.316</ele>
<time>2019-05-30T15:51:55Z</time>
</trkpt>
<trkpt lat="49.513378" lon="10.296257">
<ele>398.316</ele>
<time>2019-05-30T15:51:56Z</time>
</trkpt>
<trkpt lat="49.513378" lon="10.296348">
<ele>398.316</ele>
<time>2019-05-30T15:51:57Z</time>
</trkpt>
<trkpt lat="49.513374" lon="10.29644">
<ele>398.316</ele>
<time>2019-05-30T15:51:58Z</time>
</trkpt>
<trkpt lat="49.513378" lon="10.296532">
<ele>398.316</ele>
<time>2019-05-30T15:51:59Z</time>
</trkpt>
<trkpt lat="49.513374" lon="10.296624">
<ele>398.316</ele>
<time>2019-05-30T15:52:00Z</time>
</trkpt>
<trkpt lat="49.513374" lon="10.296719">
<ele>398.316</ele>
<time>2019-05-30T15:52:01Z</time>
</trkpt>
<trkpt lat="49.513374" lon="10.296811">
<ele>398.316</ele>
<time>2019-05-30T15:52:02Z</time>
</trkpt>
<trkpt lat="49.513378" lon="10.296908">
<ele>398.316</ele>
<time>2019-05-30T15:52:03Z</time>
</trkpt>
<trkpt lat="49.513378" lon="10.297007">
<ele>398.316</ele>
<time>2019-05-30T15:52:04Z</time>
</trkpt>
<trkpt lat="49.513382" lon="10.297105">
<ele>398.057</ele>
<time>2019-05-30T15:52:05Z</time>
</trkpt>
<trkpt lat="49.513386" lon="10.297202">
<ele>397.856</ele>
<time>2019-05-30T15:52:06Z</time>
</trkpt>
<trkpt lat="49.51339" lon="10.297301">
<ele>397.703</ele>
<time>2019-05-30T15:52:07Z</time>
</trkpt>
<trkpt lat="49.513397" lon="10.297401">
<ele>397.59</ele>
<time>2019-05-30T15:52:08Z</time>
</trkpt>
<trkpt lat="49.513405" lon="10.297503">
<ele>397.509</ele>
<time>2019-05-30T15:52:09Z</time>
</trkpt>
<trkpt lat="49.513409" lon="10.297605">
<ele>397.451</ele>
<time>2019-05-30T15:52:10Z</time>
</trkpt>
<trkpt lat="49.513412" lon="10.297708">
<ele>397.4</ele>
<time>2019-05-30T15:52:11Z</time>
</trkpt>
<trkpt lat="49.513424" lon="10.297813">
<ele>397.375</ele>
<time>2019-05-30T15:52:12Z</time>
</trkpt>
<trkpt lat="49.513432" lon="10.297918">
<ele>397.375</ele>
<time>2019-05-30T15:52:13Z</time>
</trkpt>
<trkpt lat="49.513439" lon="10.298026">
<ele>397.107</ele>
<time>2019-05-30T15:52:14Z</time>
</trkpt>
<trkpt lat="49.513447" lon="10.298135">
<ele>396.899</ele>
<time>2019-05-30T15:52:15Z</time>
</trkpt>
<trkpt lat="49.513454" lon="10.298245">
<ele>396.742</ele>
<time>2019-05-30T15:52:16Z</time>
</trkpt>
<trkpt lat="49.513466" lon="10.298355">
<ele>396.628</ele>
<time>2019-05-30T15:52:17Z</time>
</trkpt>
<trkpt lat="49.513474" lon="10.298466">
<ele>396.549</ele>
<time>2019-05-30T15:52:18Z</time>
</trkpt>
<trkpt lat="49.513481" lon="10.298574">
<ele>396.499</ele>
<time>2019-05-30T15:52:19Z</time>
</trkpt>
<trkpt lat="49.513493" lon="10.298686">
<ele>396.46</ele>
<time>2019-05-30T15:52:20Z</time>
</trkpt>
<trkpt lat="49.513504" lon="10.298797">
<ele>396.203</ele>
<time>2019-05-30T15:52:21Z</time>
</trkpt>
<trkpt lat="49.513512" lon="10.298908">
<ele>396.011</ele>
<time>2019-05-30T15:52:22Z</time>
</trkpt>
<trkpt lat="49.513523" lon="10.299022">
<ele>395.854</ele>
<time>2019-05-30T15:52:23Z</time>
</trkpt>
<trkpt lat="49.513531" lon="10.299133">
<ele>395.727</ele>
<time>2019-05-30T15:52:24Z</time>
</trkpt>
<trkpt lat="49.513542" lon="10.299247">
<ele>395.63</ele>
<time>2019-05-30T15:52:25Z</time>
</trkpt>
<trkpt lat="49.51355" lon="10.299362">
<ele>395.571</ele>
<time>2019-05-30T15:52:26Z</time>
</trkpt>
<trkpt lat="49.513561" lon="10.299479">
<ele>395.287</ele>
<time>2019-05-30T15:52:27Z</time>
</trkpt>
<trkpt lat="49.513573" lon="10.299599">
<ele>395.069</ele>
<time>2019-05-30T15:52:28Z</time>
</trkpt>
<trkpt lat="49.51358" lon="10.299721">
<ele>394.91</ele>
<time>2019-05-30T15:52:29Z</time>
</trkpt>
<trkpt lat="49.513592" lon="10.299842">
<ele>394.811</ele>
<time>2019-05-30T15:52:30Z</time>
</trkpt>
<trkpt lat="49.513603" lon="10.299966">
<ele>394.707</ele>
<time>2019-05-30T15:52:31Z</time>
</trkpt>
<trkpt lat="49.513611" lon="10.300087">
<ele>394.394</ele>
<time>2019-05-30T15:52:32Z</time>
</trkpt>
<trkpt lat="49.513622" lon="10.300211">
<ele>394.151</ele>
<time>2019-05-30T15:52:33Z</time>
</trkpt>
<trkpt lat="49.513634" lon="10.300333">
<ele>393.97</ele>
<time>2019-05-30T15:52:34Z</time>
</trkpt>
<trkpt lat="49.513641" lon="10.300458">
<ele>393.767</ele>
<time>2019-05-30T15:52:35Z</time>
</trkpt>
<trkpt lat="49.513653" lon="10.300584">
<ele>393.7</ele>
<time>2019-05-30T15:52:36Z</time>
</trkpt>
<trkpt lat="49.513664" lon="10.30071">
<ele>393.422</ele>
<time>2019-05-30T15:52:37Z</time>
</trkpt>
<trkpt lat="49.513672" lon="10.300838">
<ele>393.222</ele>
<time>2019-05-30T15:52:38Z</time>
</trkpt>
<trkpt lat="49.513687" lon="10.300968">
<ele>393.112</ele>
<time>2019-05-30T15:52:39Z</time>
</trkpt>
<trkpt lat="49.513699" lon="10.301099">
<ele>392.782</ele>
<time>2019-05-30T15:52:40Z</time>
</trkpt>
<trkpt lat="49.513706" lon="10.301229">
<ele>392.484</ele>
<time>2019-05-30T15:52:41Z</time>
</trkpt>
<trkpt lat="49.513718" lon="10.301361">
<ele>392.249</ele>
<time>2019-05-30T15:52:42Z</time>
</trkpt>
<trkpt lat="49.513729" lon="10.301492">
<ele>392.099</ele>
<time>2019-05-30T15:52:43Z</time>
</trkpt>
<trkpt lat="49.513737" lon="10.301623">
<ele>391.716</ele>
<time>2019-05-30T15:52:44Z</time>
</trkpt>
<trkpt lat="49.513748" lon="10.301755">
<ele>391.429</ele>
<time>2019-05-30T15:52:45Z</time>
</trkpt>
<trkpt lat="49.51376" lon="10.301885">
<ele>391.209</ele>
<time>2019-05-30T15:52:46Z</time>
</trkpt>
<trkpt lat="49.513771" lon="10.302017">
<ele>391.048</ele>
<time>2019-05-30T15:52:47Z</time>
</trkpt>
<trkpt lat="49.513783" lon="10.302147">
<ele>390.938</ele>
<time>2019-05-30T15:52:48Z</time>
</trkpt>
<trkpt lat="49.513798" lon="10.302277">
<ele>390.626</ele>
<time>2019-05-30T15:52:49Z</time>
</trkpt>
<trkpt lat="49.513805" lon="10.302404">
<ele>390.394</ele>
<time>2019-05-30T15:52:50Z</time>
</trkpt>
<trkpt lat="49.513813" lon="10.302533">
<ele>390.183</ele>
<time>2019-05-30T15:52:51Z</time>
</trkpt>
<trkpt lat="49.513821" lon="10.302663">
<ele>390.037</ele>
<time>2019-05-30T15:52:52Z</time>
</trkpt>
<trkpt lat="49.513832" lon="10.302794">
<ele>389.938</ele>
<time>2019-05-30T15:52:53Z</time>
</trkpt>
<trkpt lat="49.513844" lon="10.302924">
<ele>389.621</ele>
<time>2019-05-30T15:52:54Z</time>
</trkpt>
<trkpt lat="49.513855" lon="10.303059">
<ele>389.404</ele>
<time>2019-05-30T15:52:55Z</time>
</trkpt>
<trkpt lat="49.513866" lon="10.303195">
<ele>388.997</ele>
<time>2019-05-30T15:52:56Z</time>
</trkpt>
<trkpt lat="49.51387" lon="10.30333">
<ele>388.631</ele>
<time>2019-05-30T15:52:57Z</time>
</trkpt>
<trkpt lat="49.513882" lon="10.303469">
<ele>388.408</ele>
<time>2019-05-30T15:52:58Z</time>
</trkpt>
<trkpt lat="49.513893" lon="10.303609">
<ele>388.25</ele>
<time>2019-05-30T15:52:59Z</time>
</trkpt>
<trkpt lat="49.513901" lon="10.303748">
<ele>388.137</ele>
<time>2019-05-30T15:53:00Z</time>
</trkpt>
<trkpt lat="49.513908" lon="10.303886">
<ele>387.787</ele>
<time>2019-05-30T15:53:01Z</time>
</trkpt>
<trkpt lat="49.513916" lon="10.304029">
<ele>387.531</ele>
<time>2019-05-30T15:53:02Z</time>
</trkpt>
<trkpt lat="49.513924" lon="10.304167">
<ele>387.371</ele>
<time>2019-05-30T15:53:03Z</time>
</trkpt>
<trkpt lat="49.513931" lon="10.304307">
<ele>386.992</ele>
<time>2019-05-30T15:53:04Z</time>
</trkpt>
<trkpt lat="49.513935" lon="10.304445">
<ele>386.686</ele>
<time>2019-05-30T15:53:05Z</time>
</trkpt>
<trkpt lat="49.513935" lon="10.304585">
<ele>386.447</ele>
<time>2019-05-30T15:53:06Z</time>
</trkpt>
<trkpt lat="49.513939" lon="10.304724">
<ele>386.268</ele>
<time>2019-05-30T15:53:07Z</time>
</trkpt>
<trkpt lat="49.513943" lon="10.304862">
<ele>386.164</ele>
<time>2019-05-30T15:53:08Z</time>
</trkpt>
<trkpt lat="49.513943" lon="10.305002">
<ele>385.814</ele>
<time>2019-05-30T15:53:09Z</time>
</trkpt>
<trkpt lat="49.513947" lon="10.30514">
<ele>385.572</ele>
<time>2019-05-30T15:53:10Z</time>
</trkpt>
<trkpt lat="49.513947" lon="10.305279">
<ele>385.347</ele>
<time>2019-05-30T15:53:11Z</time>
</trkpt>
<trkpt lat="49.513947" lon="10.305418">
<ele>385.189</ele>
<time>2019-05-30T15:53:12Z</time>
</trkpt>
<trkpt lat="49.513947" lon="10.30556">
<ele>385.082</ele>
<time>2019-05-30T15:53:13Z</time>
</trkpt>
<trkpt lat="49.513947" lon="10.305702">
<ele>384.716</ele>
<time>2019-05-30T15:53:14Z</time>
</trkpt>
<trkpt lat="49.513939" lon="10.305845">
<ele>384.427</ele>
<time>2019-05-30T15:53:15Z</time>
</trkpt>
<trkpt lat="49.513935" lon="10.305988">
<ele>384.247</ele>
<time>2019-05-30T15:53:16Z</time>
</trkpt>
<trkpt lat="49.513935" lon="10.306131">
<ele>383.776</ele>
<time>2019-05-30T15:53:17Z</time>
</trkpt>
<trkpt lat="49.513931" lon="10.306274">
<ele>383.464</ele>
<time>2019-05-30T15:53:18Z</time>
</trkpt>
<trkpt lat="49.513924" lon="10.306417">
<ele>383.237</ele>
<time>2019-05-30T15:53:19Z</time>
</trkpt>
<trkpt lat="49.51392" lon="10.306561">
<ele>383.075</ele>
<time>2019-05-30T15:53:20Z</time>
</trkpt>
<trkpt lat="49.513908" lon="10.306705">
<ele>382.677</ele>
<time>2019-05-30T15:53:21Z</time>
</trkpt>
<trkpt lat="49.513901" lon="10.30685">
<ele>382.382</ele>
<time>2019-05-30T15:53:22Z</time>
</trkpt>
<trkpt lat="49.513893" lon="10.306995">
<ele>382.192</ele>
<time>2019-05-30T15:53:23Z</time>
</trkpt>
<trkpt lat="49.513882" lon="10.307139">
<ele>382.096</ele>
<time>2019-05-30T15:53:24Z</time>
</trkpt>
<trkpt lat="49.51387" lon="10.307283">
<ele>381.767</ele>
<time>2019-05-30T15:53:25Z</time>
</trkpt>
<trkpt lat="49.513859" lon="10.307428">
<ele>381.503</ele>
<time>2019-05-30T15:53:26Z</time>
</trkpt>
<trkpt lat="49.513847" lon="10.307573">
<ele>381.3</ele>
<time>2019-05-30T15:53:27Z</time>
</trkpt>
<trkpt lat="49.513836" lon="10.307715">
<ele>380.966</ele>
<time>2019-05-30T15:53:28Z</time>
</trkpt>
<trkpt lat="49.513821" lon="10.307858">
<ele>380.568</ele>
<time>2019-05-30T15:53:29Z</time>
</trkpt>
<trkpt lat="49.513805" lon="10.308001">
<ele>380.396</ele>
<time>2019-05-30T15:53:30Z</time>
</trkpt>
<trkpt lat="49.51379" lon="10.308142">
<ele>380.322</ele>
<time>2019-05-30T15:53:31Z</time>
</trkpt>
<trkpt lat="49.513771" lon="10.308286">
<ele>380.008</ele>
<time>2019-05-30T15:53:32Z</time>
</trkpt>
<trkpt lat="49.513756" lon="10.308426">
<ele>379.745</ele>
<time>2019-05-30T15:53:33Z</time>
</trkpt>
<trkpt lat="49.513737" lon="10.30857">
<ele>379.518</ele>
<time>2019-05-30T15:53:34Z</time>
</trkpt>
<trkpt lat="49.513721" lon="10.308713">
<ele>379.346</ele>
<time>2019-05-30T15:53:35Z</time>
</trkpt>
<trkpt lat="49.513702" lon="10.308857">
<ele>379.227</ele>
<time>2019-05-30T15:53:36Z</time>
</trkpt>
<trkpt lat="49.513676" lon="10.309">
<ele>379.116</ele>
<time>2019-05-30T15:53:37Z</time>
</trkpt>
<trkpt lat="49.513657" lon="10.309142">
<ele>379.09</ele>
<time>2019-05-30T15:53:38Z</time>
</trkpt>
<trkpt lat="49.51363" lon="10.309285">
<ele>378.839</ele>
<time>2019-05-30T15:53:39Z</time>
</trkpt>
<trkpt lat="49.513607" lon="10.309427">
<ele>378.662</ele>
<time>2019-05-30T15:53:40Z</time>
</trkpt>
<trkpt lat="49.513588" lon="10.30957">
<ele>378.48</ele>
<time>2019-05-30T15:53:41Z</time>
</trkpt>
<trkpt lat="49.513565" lon="10.309711">
<ele>378.35</ele>
<time>2019-05-30T15:53:42Z</time>
</trkpt>
<trkpt lat="49.513542" lon="10.309852">
<ele>377.983</ele>
<time>2019-05-30T15:53:43Z</time>
</trkpt>
<trkpt lat="49.513515" lon="10.309991">
<ele>377.689</ele>
<time>2019-05-30T15:53:44Z</time>
</trkpt>
<trkpt lat="49.513489" lon="10.310131">
<ele>377.463</ele>
<time>2019-05-30T15:53:45Z</time>
</trkpt>
<trkpt lat="49.513466" lon="10.310271">
<ele>377.298</ele>
<time>2019-05-30T15:53:46Z</time>
</trkpt>
<trkpt lat="49.513439" lon="10.310411">
<ele>377.15</ele>
<time>2019-05-30T15:53:47Z</time>
</trkpt>
<trkpt lat="49.513412" lon="10.31055">
<ele>377.094</ele>
<time>2019-05-30T15:53:48Z</time>
</trkpt>
<trkpt lat="49.513378" lon="10.310685">
<ele>377.066</ele>
<time>2019-05-30T15:53:49Z</time>
</trkpt>
<trkpt lat="49.513351" lon="10.310821">
<ele>377.041</ele>
<time>2019-05-30T15:53:50Z</time>
</trkpt>
<trkpt lat="49.513317" lon="10.310952">
<ele>377.041</ele>
<time>2019-05-30T15:53:51Z</time>
</trkpt>
<trkpt lat="49.513287" lon="10.311087">
<ele>377.041</ele>
<time>2019-05-30T15:53:52Z</time>
</trkpt>
<trkpt lat="49.513256" lon="10.311221">
<ele>377.041</ele>
<time>2019-05-30T15:53:53Z</time>
</trkpt>
<trkpt lat="49.513222" lon="10.311355">
<ele>377.041</ele>
<time>2019-05-30T15:53:54Z</time>
</trkpt>
<trkpt lat="49.513184" lon="10.311487">
<ele>377.041</ele>
<time>2019-05-30T15:53:55Z</time>
</trkpt>
<trkpt lat="49.513153" lon="10.311619">
<ele>376.816</ele>
<time>2019-05-30T15:53:56Z</time>
</trkpt>
<trkpt lat="49.513119" lon="10.31175">
<ele>376.638</ele>
<time>2019-05-30T15:53:57Z</time>
</trkpt>
<trkpt lat="49.513084" lon="10.311878">
<ele>376.502</ele>
<time>2019-05-30T15:53:58Z</time>
</trkpt>
<trkpt lat="49.513046" lon="10.312007">
<ele>376.401</ele>
<time>2019-05-30T15:53:59Z</time>
</trkpt>
<trkpt lat="49.513008" lon="10.312134">
<ele>376.331</ele>
<time>2019-05-30T15:54:00Z</time>
</trkpt>
<trkpt lat="49.512974" lon="10.31226">
<ele>376.257</ele>
<time>2019-05-30T15:54:01Z</time>
</trkpt>
<trkpt lat="49.512939" lon="10.312388">
<ele>376.212</ele>
<time>2019-05-30T15:54:02Z</time>
</trkpt>
<trkpt lat="49.512901" lon="10.312513">
<ele>375.961</ele>
<time>2019-05-30T15:54:03Z</time>
</trkpt>
<trkpt lat="49.512863" lon="10.312638">
<ele>375.708</ele>
<time>2019-05-30T15:54:04Z</time>
</trkpt>
<trkpt lat="49.512825" lon="10.31276">
<ele>375.546</ele>
<time>2019-05-30T15:54:05Z</time>
</trkpt>
<trkpt lat="49.512787" lon="10.312879">
<ele>375.43</ele>
<time>2019-05-30T15:54:06Z</time>
</trkpt>
<trkpt lat="49.512753" lon="10.312995">
<ele>375.348</ele>
<time>2019-05-30T15:54:07Z</time>
</trkpt>
<trkpt lat="49.512711" lon="10.313113">
<ele>375.297</ele>
<time>2019-05-30T15:54:08Z</time>
</trkpt>
<trkpt lat="49.512672" lon="10.313231">
<ele>375.271</ele>
<time>2019-05-30T15:54:09Z</time>
</trkpt>
<trkpt lat="49.51263" lon="10.313349">
<ele>375.249</ele>
<time>2019-05-30T15:54:10Z</time>
</trkpt>
<trkpt lat="49.512589" lon="10.313465">
<ele>375.249</ele>
<time>2019-05-30T15:54:11Z</time>
</trkpt>
<trkpt lat="49.512547" lon="10.31358">
<ele>375.249</ele>
<time>2019-05-30T15:54:12Z</time>
</trkpt>
<trkpt lat="49.512505" lon="10.313695">
<ele>375.249</ele>
<time>2019-05-30T15:54:13Z</time>
</trkpt>
<trkpt lat="49.512466" lon="10.31381">
<ele>375.249</ele>
<time>2019-05-30T15:54:14Z</time>
</trkpt>
<trkpt lat="49.512421" lon="10.313925">
<ele>374.993</ele>
<time>2019-05-30T15:54:15Z</time>
</trkpt>
<trkpt lat="49.512375" lon="10.314038">
<ele>374.793</ele>
<time>2019-05-30T15:54:16Z</time>
</trkpt>
<trkpt lat="49.512333" lon="10.314152">
<ele>374.641</ele>
<time>2019-05-30T15:54:17Z</time>
</trkpt>
<trkpt lat="49.512287" lon="10.314263">
<ele>374.529</ele>
<time>2019-05-30T15:54:18Z</time>
</trkpt>
<trkpt lat="49.512241" lon="10.314375">
<ele>374.448</ele>
<time>2019-05-30T15:54:19Z</time>
</trkpt>
<trkpt lat="49.512196" lon="10.314487">
<ele>374.388</ele>
<time>2019-05-30T15:54:20Z</time>
</trkpt>
<trkpt lat="49.51215" lon="10.314598">
<ele>374.336</ele>
<time>2019-05-30T15:54:21Z</time>
</trkpt>
<trkpt lat="49.512108" lon="10.314707">
<ele>374.31</ele>
<time>2019-05-30T15:54:22Z</time>
</trkpt>
<trkpt lat="49.512058" lon="10.314816">
<ele>374.039</ele>
<time>2019-05-30T15:54:23Z</time>
</trkpt>
<trkpt lat="49.512009" lon="10.314923">
<ele>373.829</ele>
<time>2019-05-30T15:54:24Z</time>
</trkpt>
<trkpt lat="49.511963" lon="10.31503">
<ele>373.668</ele>
<time>2019-05-30T15:54:25Z</time>
</trkpt>
<trkpt lat="49.511913" lon="10.315135">
<ele>373.55</ele>
<time>2019-05-30T15:54:26Z</time>
</trkpt>
<trkpt lat="49.511864" lon="10.31524">
<ele>373.483</ele>
<time>2019-05-30T15:54:27Z</time>
</trkpt>
<trkpt lat="49.511814" lon="10.315345">
<ele>373.216</ele>
<time>2019-05-30T15:54:28Z</time>
</trkpt>
<trkpt lat="49.511768" lon="10.315447">
<ele>373.016</ele>
<time>2019-05-30T15:54:29Z</time>
</trkpt>
<trkpt lat="49.511715" lon="10.315552">
<ele>372.874</ele>
<time>2019-05-30T15:54:30Z</time>
</trkpt>
<trkpt lat="49.511665" lon="10.315655">
<ele>372.75</ele>
<time>2019-05-30T15:54:31Z</time>
</trkpt>
<trkpt lat="49.511616" lon="10.315761">
<ele>372.653</ele>
<time>2019-05-30T15:54:32Z</time>
</trkpt>
<trkpt lat="49.511559" lon="10.315862">
<ele>372.584</ele>
<time>2019-05-30T15:54:33Z</time>
</trkpt>
<trkpt lat="49.511505" lon="10.315964">
<ele>372.542</ele>
<time>2019-05-30T15:54:34Z</time>
</trkpt>
<trkpt lat="49.511456" lon="10.316062">
<ele>372.29</ele>
<time>2019-05-30T15:54:35Z</time>
</trkpt>
<trkpt lat="49.511402" lon="10.316156">
<ele>372.064</ele>
<time>2019-05-30T15:54:36Z</time>
</trkpt>
<trkpt lat="49.511353" lon="10.316254">
<ele>371.91</ele>
<time>2019-05-30T15:54:37Z</time>
</trkpt>
<trkpt lat="49.511299" lon="10.31635">
<ele>371.801</ele>
<time>2019-05-30T15:54:38Z</time>
</trkpt>
<trkpt lat="49.51125" lon="10.316443">
<ele>371.719</ele>
<time>2019-05-30T15:54:39Z</time>
</trkpt>
<trkpt lat="49.511196" lon="10.316535">
<ele>371.66</ele>
<time>2019-05-30T15:54:40Z</time>
</trkpt>
<trkpt lat="49.511147" lon="10.316625">
<ele>371.606</ele>
<time>2019-05-30T15:54:41Z</time>
</trkpt>
<trkpt lat="49.511093" lon="10.316716">
<ele>371.58</ele>
<time>2019-05-30T15:54:42Z</time>
</trkpt>
<trkpt lat="49.511036" lon="10.316809">
<ele>371.58</ele>
<time>2019-05-30T15:54:43Z</time>
</trkpt>
<trkpt lat="49.510983" lon="10.316902">
<ele>371.58</ele>
<time>2019-05-30T15:54:44Z</time>
</trkpt>
<trkpt lat="49.510929" lon="10.316992">
<ele>371.58</ele>
<time>2019-05-30T15:54:45Z</time>
</trkpt>
<trkpt lat="49.510872" lon="10.317083">
<ele>371.331</ele>
<time>2019-05-30T15:54:46Z</time>
</trkpt>
<trkpt lat="49.510811" lon="10.317173">
<ele>371.134</ele>
<time>2019-05-30T15:54:47Z</time>
</trkpt>
<trkpt lat="49.510754" lon="10.317266">
<ele>370.986</ele>
<time>2019-05-30T15:54:48Z</time>
</trkpt>
<trkpt lat="49.510696" lon="10.317357">
<ele>370.874</ele>
<time>2019-05-30T15:54:49Z</time>
</trkpt>
<trkpt lat="49.510639" lon="10.317448">
<ele>370.797</ele>
<time>2019-05-30T15:54:50Z</time>
</trkpt>
<trkpt lat="49.510574" lon="10.317538">
<ele>370.717</ele>
<time>2019-05-30T15:54:51Z</time>
</trkpt>
<trkpt lat="49.510517" lon="10.317627">
<ele>370.668</ele>
<time>2019-05-30T15:54:52Z</time>
</trkpt>
<trkpt lat="49.510456" lon="10.317716">
<ele>370.412</ele>
<time>2019-05-30T15:54:53Z</time>
</trkpt>
<trkpt lat="49.510395" lon="10.317805">
<ele>370.158</ele>
<time>2019-05-30T15:54:54Z</time>
</trkpt>
<trkpt lat="49.510334" lon="10.317893">
<ele>369.998</ele>
<time>2019-05-30T15:54:55Z</time>
</trkpt>
<trkpt lat="49.510277" lon="10.31798">
<ele>369.881</ele>
<time>2019-05-30T15:54:56Z</time>
</trkpt>
<trkpt lat="49.510216" lon="10.318067">
<ele>369.8</ele>
<time>2019-05-30T15:54:57Z</time>
</trkpt>
<trkpt lat="49.510151" lon="10.31815">
<ele>369.75</ele>
<time>2019-05-30T15:54:58Z</time>
</trkpt>
<trkpt lat="49.51009" lon="10.318233">
<ele>369.73</ele>
<time>2019-05-30T15:54:59Z</time>
</trkpt>
<trkpt lat="49.510029" lon="10.318315">
<ele>369.496</ele>
<time>2019-05-30T15:55:00Z</time>
</trkpt>
<trkpt lat="49.509968" lon="10.318397">
<ele>369.3</ele>
<time>2019-05-30T15:55:01Z</time>
</trkpt>
<trkpt lat="49.509903" lon="10.318479">
<ele>369.138</ele>
<time>2019-05-30T15:55:02Z</time>
</trkpt>
<trkpt lat="49.509842" lon="10.31856">
<ele>369.028</ele>
<time>2019-05-30T15:55:03Z</time>
</trkpt>
<trkpt lat="49.509777" lon="10.318642">
<ele>368.69</ele>
<time>2019-05-30T15:55:04Z</time>
</trkpt>
<trkpt lat="49.509712" lon="10.318722">
<ele>368.42</ele>
<time>2019-05-30T15:55:05Z</time>
</trkpt>
<trkpt lat="49.509647" lon="10.318803">
<ele>368.21</ele>
<time>2019-05-30T15:55:06Z</time>
</trkpt>
<trkpt lat="49.509579" lon="10.318883">
<ele>368.086</ele>
<time>2019-05-30T15:55:07Z</time>
</trkpt>
<trkpt lat="49.509514" lon="10.318962">
<ele>367.702</ele>
<time>2019-05-30T15:55:08Z</time>
</trkpt>
<trkpt lat="49.509445" lon="10.319037">
<ele>367.44</ele>
<time>2019-05-30T15:55:09Z</time>
</trkpt>
<trkpt lat="49.509377" lon="10.319109">
<ele>367.255</ele>
<time>2019-05-30T15:55:10Z</time>
</trkpt>
<trkpt lat="49.509308" lon="10.319184">
<ele>367.079</ele>
<time>2019-05-30T15:55:11Z</time>
</trkpt>
<trkpt lat="49.509243" lon="10.319258">
<ele>366.965</ele>
<time>2019-05-30T15:55:12Z</time>
</trkpt>
<trkpt lat="49.509174" lon="10.319331">
<ele>366.883</ele>
<time>2019-05-30T15:55:13Z</time>
</trkpt>
<trkpt lat="49.509109" lon="10.319407">
<ele>366.833</ele>
<time>2019-05-30T15:55:14Z</time>
</trkpt>
<trkpt lat="49.509041" lon="10.319484">
<ele>366.535</ele>
<time>2019-05-30T15:55:15Z</time>
</trkpt>
<trkpt lat="49.508972" lon="10.319559">
<ele>366.266</ele>
<time>2019-05-30T15:55:16Z</time>
</trkpt>
<trkpt lat="49.508907" lon="10.319633">
<ele>366.084</ele>
<time>2019-05-30T15:55:17Z</time>
</trkpt>
<trkpt lat="49.508839" lon="10.319708">
<ele>365.95</ele>
<time>2019-05-30T15:55:18Z</time>
</trkpt>
<trkpt lat="49.50877" lon="10.319783">
<ele>365.858</ele>
<time>2019-05-30T15:55:19Z</time>
</trkpt>
<trkpt lat="49.508701" lon="10.31986">
<ele>365.787</ele>
<time>2019-05-30T15:55:20Z</time>
</trkpt>
<trkpt lat="49.508633" lon="10.319939">
<ele>365.726</ele>
<time>2019-05-30T15:55:21Z</time>
</trkpt>
<trkpt lat="49.508564" lon="10.320018">
<ele>365.446</ele>
<time>2019-05-30T15:55:22Z</time>
</trkpt>
<trkpt lat="49.508495" lon="10.320097">
<ele>365.152</ele>
<time>2019-05-30T15:55:23Z</time>
</trkpt>
<trkpt lat="49.508427" lon="10.320177">
<ele>364.973</ele>
<time>2019-05-30T15:55:24Z</time>
</trkpt>
<trkpt lat="49.508358" lon="10.320259">
<ele>364.843</ele>
<time>2019-05-30T15:55:25Z</time>
</trkpt>
<trkpt lat="49.508293" lon="10.32034">
<ele>364.767</ele>
<time>2019-05-30T15:55:26Z</time>
</trkpt>
<trkpt lat="49.508228" lon="10.320427">
<ele>364.463</ele>
<time>2019-05-30T15:55:27Z</time>
</trkpt>
<trkpt lat="49.50816" lon="10.320513">
<ele>364.244</ele>
<time>2019-05-30T15:55:28Z</time>
</trkpt>
<trkpt lat="49.508091" lon="10.320602">
<ele>364.093</ele>
<time>2019-05-30T15:55:29Z</time>
</trkpt>
<trkpt lat="49.508018" lon="10.320693">
<ele>363.994</ele>
<time>2019-05-30T15:55:30Z</time>
</trkpt>
<trkpt lat="49.50795" lon="10.320785">
<ele>363.674</ele>
<time>2019-05-30T15:55:31Z</time>
</trkpt>
<trkpt lat="49.507877" lon="10.320886">
<ele>363.421</ele>
<time>2019-05-30T15:55:32Z</time>
</trkpt>
<trkpt lat="49.507812" lon="10.320985">
<ele>363.228</ele>
<time>2019-05-30T15:55:33Z</time>
</trkpt>
<trkpt lat="49.507748" lon="10.321089">
<ele>363.114</ele>
<time>2019-05-30T15:55:34Z</time>
</trkpt>
<trkpt lat="49.507687" lon="10.32119">
<ele>362.747</ele>
<time>2019-05-30T15:55:35Z</time>
</trkpt>
<trkpt lat="49.507622" lon="10.321294">
<ele>362.449</ele>
<time>2019-05-30T15:55:36Z</time>
</trkpt>
<trkpt lat="49.507557" lon="10.321395">
<ele>362.257</ele>
<time>2019-05-30T15:55:37Z</time>
</trkpt>
<trkpt lat="49.507496" lon="10.321504">
<ele>361.845</ele>
<time>2019-05-30T15:55:38Z</time>
</trkpt>
<trkpt lat="49.507431" lon="10.321615">
<ele>361.568</ele>
<time>2019-05-30T15:55:39Z</time>
</trkpt>
<trkpt lat="49.50737" lon="10.32173">
<ele>361.111</ele>
<time>2019-05-30T15:55:40Z</time>
</trkpt>
<trkpt lat="49.507317" lon="10.321841">
<ele>360.711</ele>
<time>2019-05-30T15:55:41Z</time>
</trkpt>
<trkpt lat="49.507252" lon="10.321962">
<ele>360.414</ele>
<time>2019-05-30T15:55:42Z</time>
</trkpt>
<trkpt lat="49.507198" lon="10.322078">
<ele>360.234</ele>
<time>2019-05-30T15:55:43Z</time>
</trkpt>
<trkpt lat="49.507149" lon="10.322199">
<ele>359.825</ele>
<time>2019-05-30T15:55:44Z</time>
</trkpt>
<trkpt lat="49.507095" lon="10.322318">
<ele>359.514</ele>
<time>2019-05-30T15:55:45Z</time>
</trkpt>
<trkpt lat="49.507046" lon="10.322438">
<ele>359.296</ele>
<time>2019-05-30T15:55:46Z</time>
</trkpt>
<trkpt lat="49.507" lon="10.322558">
<ele>359.163</ele>
<time>2019-05-30T15:55:47Z</time>
</trkpt>
<trkpt lat="49.506954" lon="10.322683">
<ele>358.79</ele>
<time>2019-05-30T15:55:48Z</time>
</trkpt>
<trkpt lat="49.506908" lon="10.322806">
<ele>358.54</ele>
<time>2019-05-30T15:55:49Z</time>
</trkpt>
<trkpt lat="49.506866" lon="10.32293">
<ele>358.363</ele>
<time>2019-05-30T15:55:50Z</time>
</trkpt>
<trkpt lat="49.506832" lon="10.323051">
<ele>358.202</ele>
<time>2019-05-30T15:55:51Z</time>
</trkpt>
<trkpt lat="49.506794" lon="10.323175">
<ele>357.849</ele>
<time>2019-05-30T15:55:52Z</time>
</trkpt>
<trkpt lat="49.506763" lon="10.323299">
<ele>357.562</ele>
<time>2019-05-30T15:55:53Z</time>
</trkpt>
<trkpt lat="49.506729" lon="10.323425">
<ele>357.341</ele>
<time>2019-05-30T15:55:54Z</time>
</trkpt>
<trkpt lat="49.506699" lon="10.32355">
<ele>357.178</ele>
<time>2019-05-30T15:55:55Z</time>
</trkpt>
<trkpt lat="49.506668" lon="10.323676">
<ele>357.014</ele>
<time>2019-05-30T15:55:56Z</time>
</trkpt>
<trkpt lat="49.506641" lon="10.323807">
<ele>356.734</ele>
<time>2019-05-30T15:55:57Z</time>
</trkpt>
<trkpt lat="49.506611" lon="10.323942">
<ele>356.526</ele>
<time>2019-05-30T15:55:58Z</time>
</trkpt>
<trkpt lat="49.506584" lon="10.324074">
<ele>356.392</ele>
<time>2019-05-30T15:55:59Z</time>
</trkpt>
<trkpt lat="49.506557" lon="10.324212">
<ele>356.302</ele>
<time>2019-05-30T15:56:00Z</time>
</trkpt>
<trkpt lat="49.506535" lon="10.324347">
<ele>355.846</ele>
<time>2019-05-30T15:56:01Z</time>
</trkpt>
<trkpt lat="49.506508" lon="10.324483">
<ele>355.477</ele>
<time>2019-05-30T15:56:02Z</time>
</trkpt>
<trkpt lat="49.506489" lon="10.324618">
<ele>355.237</ele>
<time>2019-05-30T15:56:03Z</time>
</trkpt>
<trkpt lat="49.506474" lon="10.32475">
<ele>354.777</ele>
<time>2019-05-30T15:56:04Z</time>
</trkpt>
<trkpt lat="49.506462" lon="10.324887">
<ele>354.428</ele>
<time>2019-05-30T15:56:05Z</time>
</trkpt>
<trkpt lat="49.506447" lon="10.325024">
<ele>354.157</ele>
<time>2019-05-30T15:56:06Z</time>
</trkpt>
<trkpt lat="49.506435" lon="10.325158">
<ele>353.954</ele>
<time>2019-05-30T15:56:07Z</time>
</trkpt>
<trkpt lat="49.50642" lon="10.325295">
<ele>353.821</ele>
<time>2019-05-30T15:56:08Z</time>
</trkpt>
<trkpt lat="49.506405" lon="10.325428">
<ele>353.76</ele>
<time>2019-05-30T15:56:09Z</time>
</trkpt>
<trkpt lat="49.506397" lon="10.32556">
<ele>353.5</ele>
<time>2019-05-30T15:56:10Z</time>
</trkpt>
<trkpt lat="49.50639" lon="10.325691">
<ele>353.277</ele>
<time>2019-05-30T15:56:11Z</time>
</trkpt>
<trkpt lat="49.506386" lon="10.325822">
<ele>353.136</ele>
<time>2019-05-30T15:56:12Z</time>
</trkpt>
<trkpt lat="49.506386" lon="10.325955">
<ele>352.959</ele>
<time>2019-05-30T15:56:13Z</time>
</trkpt>
<trkpt lat="49.506386" lon="10.326087">
<ele>352.819</ele>
<time>2019-05-30T15:56:14Z</time>
</trkpt>
<trkpt lat="49.506386" lon="10.326218">
<ele>352.714</ele>
<time>2019-05-30T15:56:15Z</time>
</trkpt>
<trkpt lat="49.506386" lon="10.32635">
<ele>352.649</ele>
<time>2019-05-30T15:56:16Z</time>
</trkpt>
<trkpt lat="49.50639" lon="10.326482">
<ele>352.396</ele>
<time>2019-05-30T15:56:17Z</time>
</trkpt>
<trkpt lat="49.506397" lon="10.326613">
<ele>352.192</ele>
<time>2019-05-30T15:56:18Z</time>
</trkpt>
<trkpt lat="49.506401" lon="10.326745">
<ele>352.054</ele>
<time>2019-05-30T15:56:19Z</time>
</trkpt>
<trkpt lat="49.506405" lon="10.326877">
<ele>351.959</ele>
<time>2019-05-30T15:56:20Z</time>
</trkpt>
<trkpt lat="49.506416" lon="10.327008">
<ele>351.861</ele>
<time>2019-05-30T15:56:21Z</time>
</trkpt>
<trkpt lat="49.506428" lon="10.32714">
<ele>351.793</ele>
<time>2019-05-30T15:56:22Z</time>
</trkpt>
<trkpt lat="49.506435" lon="10.327271">
<ele>351.517</ele>
<time>2019-05-30T15:56:23Z</time>
</trkpt>
<trkpt lat="49.506451" lon="10.327403">
<ele>351.303</ele>
<time>2019-05-30T15:56:24Z</time>
</trkpt>
<trkpt lat="49.50647" lon="10.327535">
<ele>351.08</ele>
<time>2019-05-30T15:56:25Z</time>
</trkpt>
<trkpt lat="49.506489" lon="10.327663">
<ele>350.963</ele>
<time>2019-05-30T15:56:26Z</time>
</trkpt>
<trkpt lat="49.506508" lon="10.327795">
<ele>350.882</ele>
<time>2019-05-30T15:56:27Z</time>
</trkpt>
<trkpt lat="49.506531" lon="10.327927">
<ele>350.832</ele>
<time>2019-05-30T15:56:28Z</time>
</trkpt>
<trkpt lat="49.506554" lon="10.328058">
<ele>350.808</ele>
<time>2019-05-30T15:56:29Z</time>
</trkpt>
<trkpt lat="49.506577" lon="10.32819">
<ele>350.786</ele>
<time>2019-05-30T15:56:30Z</time>
</trkpt>
<trkpt lat="49.506607" lon="10.328319">
<ele>350.557</ele>
<time>2019-05-30T15:56:31Z</time>
</trkpt>
<trkpt lat="49.506638" lon="10.328448">
<ele>350.365</ele>
<time>2019-05-30T15:56:32Z</time>
</trkpt>
<trkpt lat="49.506668" lon="10.328577">
<ele>350.208</ele>
<time>2019-05-30T15:56:33Z</time>
</trkpt>
<trkpt lat="49.506699" lon="10.328705">
<ele>350.081</ele>
<time>2019-05-30T15:56:34Z</time>
</trkpt>
<trkpt lat="49.506737" lon="10.328832">
<ele>349.986</ele>
<time>2019-05-30T15:56:35Z</time>
</trkpt>
<trkpt lat="49.506775" lon="10.328957">
<ele>349.916</ele>
<time>2019-05-30T15:56:36Z</time>
</trkpt>
<trkpt lat="49.506813" lon="10.329082">
<ele>349.876</ele>
<time>2019-05-30T15:56:37Z</time>
</trkpt>
<trkpt lat="49.506855" lon="10.329206">
<ele>349.58</ele>
<time>2019-05-30T15:56:38Z</time>
</trkpt>
<trkpt lat="49.506893" lon="10.329331">
<ele>349.353</ele>
<time>2019-05-30T15:56:39Z</time>
</trkpt>
<trkpt lat="49.506935" lon="10.329454">
<ele>349.203</ele>
<time>2019-05-30T15:56:40Z</time>
</trkpt>
<trkpt lat="49.506973" lon="10.329582">
<ele>349.041</ele>
<time>2019-05-30T15:56:41Z</time>
</trkpt>
<trkpt lat="49.507019" lon="10.329708">
<ele>348.917</ele>
<time>2019-05-30T15:56:42Z</time>
</trkpt>
<trkpt lat="49.507053" lon="10.329833">
<ele>348.828</ele>
<time>2019-05-30T15:56:43Z</time>
</trkpt>
<trkpt lat="49.507099" lon="10.329959">
<ele>348.771</ele>
<time>2019-05-30T15:56:44Z</time>
</trkpt>
<trkpt lat="49.507141" lon="10.330081">
<ele>348.743</ele>
<time>2019-05-30T15:56:45Z</time>
</trkpt>
<trkpt lat="49.507187" lon="10.330205">
<ele>348.743</ele>
<time>2019-05-30T15:56:46Z</time>
</trkpt>
<trkpt lat="49.507225" lon="10.330328">
<ele>348.459</ele>
<time>2019-05-30T15:56:47Z</time>
</trkpt>
<trkpt lat="49.507271" lon="10.330452">
<ele>348.236</ele>
<time>2019-05-30T15:56:48Z</time>
</trkpt>
<trkpt lat="49.507313" lon="10.330573">
<ele>348.063</ele>
<time>2019-05-30T15:56:49Z</time>
</trkpt>
<trkpt lat="49.507355" lon="10.330695">
<ele>347.945</ele>
<time>2019-05-30T15:56:50Z</time>
</trkpt>
<trkpt lat="49.507397" lon="10.330818">
<ele>347.816</ele>
<time>2019-05-30T15:56:51Z</time>
</trkpt>
<trkpt lat="49.507439" lon="10.33094">
<ele>347.724</ele>
<time>2019-05-30T15:56:52Z</time>
</trkpt>
<trkpt lat="49.507481" lon="10.331063">
<ele>347.665</ele>
<time>2019-05-30T15:56:53Z</time>
</trkpt>
<trkpt lat="49.507523" lon="10.331187">
<ele>347.637</ele>
<time>2019-05-30T15:56:54Z</time>
</trkpt>
<trkpt lat="49.507561" lon="10.33131">
<ele>347.637</ele>
<time>2019-05-30T15:56:55Z</time>
</trkpt>
<trkpt lat="49.507603" lon="10.331433">
<ele>347.637</ele>
<time>2019-05-30T15:56:56Z</time>
</trkpt>
<trkpt lat="49.507641" lon="10.331556">
<ele>347.637</ele>
<time>2019-05-30T15:56:57Z</time>
</trkpt>
<trkpt lat="49.507683" lon="10.331678">
<ele>347.637</ele>
<time>2019-05-30T15:56:58Z</time>
</trkpt>
<trkpt lat="49.507725" lon="10.3318">
<ele>347.637</ele>
<time>2019-05-30T15:56:59Z</time>
</trkpt>
<trkpt lat="49.507767" lon="10.33192">
<ele>347.637</ele>
<time>2019-05-30T15:57:00Z</time>
</trkpt>
<trkpt lat="49.507809" lon="10.332042">
<ele>347.41</ele>
<time>2019-05-30T15:57:01Z</time>
</trkpt>
<trkpt lat="49.507851" lon="10.332163">
<ele>347.219</ele>
<time>2019-05-30T15:57:02Z</time>
</trkpt>
<trkpt lat="49.507893" lon="10.332287">
<ele>347.061</ele>
<time>2019-05-30T15:57:03Z</time>
</trkpt>
<trkpt lat="49.507935" lon="10.332412">
<ele>346.935</ele>
<time>2019-05-30T15:57:04Z</time>
</trkpt>
<trkpt lat="49.507977" lon="10.332537">
<ele>346.837</ele>
<time>2019-05-30T15:57:05Z</time>
</trkpt>
<trkpt lat="49.508018" lon="10.332662">
<ele>346.767</ele>
<time>2019-05-30T15:57:06Z</time>
</trkpt>
<trkpt lat="49.50806" lon="10.332786">
<ele>346.722</ele>
<time>2019-05-30T15:57:07Z</time>
</trkpt>
<trkpt lat="49.508099" lon="10.332909">
<ele>346.701</ele>
<time>2019-05-30T15:57:08Z</time>
</trkpt>
<trkpt lat="49.508144" lon="10.333034">
<ele>346.701</ele>
<time>2019-05-30T15:57:09Z</time>
</trkpt>
<trkpt lat="49.508183" lon="10.333158">
<ele>346.511</ele>
<time>2019-05-30T15:57:10Z</time>
</trkpt>
<trkpt lat="49.508228" lon="10.333282">
<ele>346.333</ele>
<time>2019-05-30T15:57:11Z</time>
</trkpt>
<trkpt lat="49.508266" lon="10.333406">
<ele>346.186</ele>
<time>2019-05-30T15:57:12Z</time>
</trkpt>
<trkpt lat="49.508308" lon="10.333531">
<ele>346.068</ele>
<time>2019-05-30T15:57:13Z</time>
</trkpt>
<trkpt lat="49.508354" lon="10.333655">
<ele>345.991</ele>
<time>2019-05-30T15:57:14Z</time>
</trkpt>
<trkpt lat="49.508392" lon="10.333778">
<ele>345.691</ele>
<time>2019-05-30T15:57:15Z</time>
</trkpt>
<trkpt lat="49.50843" lon="10.333902">
<ele>345.453</ele>
<time>2019-05-30T15:57:16Z</time>
</trkpt>
<trkpt lat="49.508472" lon="10.334026">
<ele>345.274</ele>
<time>2019-05-30T15:57:17Z</time>
</trkpt>
<trkpt lat="49.508514" lon="10.334151">
<ele>345.131</ele>
<time>2019-05-30T15:57:18Z</time>
</trkpt>
<trkpt lat="49.508556" lon="10.334277">
<ele>345.051</ele>
<time>2019-05-30T15:57:19Z</time>
</trkpt>
<trkpt lat="49.508595" lon="10.3344">
<ele>344.992</ele>
<time>2019-05-30T15:57:20Z</time>
</trkpt>
<trkpt lat="49.508636" lon="10.334527">
<ele>344.939</ele>
<time>2019-05-30T15:57:21Z</time>
</trkpt>
<trkpt lat="49.508678" lon="10.334652">
<ele>344.913</ele>
<time>2019-05-30T15:57:22Z</time>
</trkpt>
<trkpt lat="49.508717" lon="10.33478">
<ele>344.913</ele>
<time>2019-05-30T15:57:23Z</time>
</trkpt>
<trkpt lat="49.508762" lon="10.334908">
<ele>344.649</ele>
<time>2019-05-30T15:57:24Z</time>
</trkpt>
<trkpt lat="49.508808" lon="10.335036">
<ele>344.444</ele>
<time>2019-05-30T15:57:25Z</time>
</trkpt>
<trkpt lat="49.508846" lon="10.335161">
<ele>344.287</ele>
<time>2019-05-30T15:57:26Z</time>
</trkpt>
<trkpt lat="49.508888" lon="10.335285">
<ele>344.173</ele>
<time>2019-05-30T15:57:27Z</time>
</trkpt>
<trkpt lat="49.508926" lon="10.33541">
<ele>344.112</ele>
<time>2019-05-30T15:57:28Z</time>
</trkpt>
<trkpt lat="49.508972" lon="10.335535">
<ele>343.826</ele>
<time>2019-05-30T15:57:29Z</time>
</trkpt>
<trkpt lat="49.50901" lon="10.33566">
<ele>343.615</ele>
<time>2019-05-30T15:57:30Z</time>
</trkpt>
<trkpt lat="49.509056" lon="10.335783">
<ele>343.424</ele>
<time>2019-05-30T15:57:31Z</time>
</trkpt>
<trkpt lat="49.509094" lon="10.335907">
<ele>343.291</ele>
<time>2019-05-30T15:57:32Z</time>
</trkpt>
<trkpt lat="49.509136" lon="10.33603">
<ele>343.199</ele>
<time>2019-05-30T15:57:33Z</time>
</trkpt>
<trkpt lat="49.509178" lon="10.336153">
<ele>342.911</ele>
<time>2019-05-30T15:57:34Z</time>
</trkpt>
<trkpt lat="49.50922" lon="10.336275">
<ele>342.686</ele>
<time>2019-05-30T15:57:35Z</time>
</trkpt>
<trkpt lat="49.509262" lon="10.336398">
<ele>342.519</ele>
<time>2019-05-30T15:57:36Z</time>
</trkpt>
<trkpt lat="49.509304" lon="10.336519">
<ele>342.371</ele>
<time>2019-05-30T15:57:37Z</time>
</trkpt>
<trkpt lat="49.509342" lon="10.336642">
<ele>342.313</ele>
<time>2019-05-30T15:57:38Z</time>
</trkpt>
<trkpt lat="49.509384" lon="10.336764">
<ele>341.992</ele>
<time>2019-05-30T15:57:39Z</time>
</trkpt>
<trkpt lat="49.509426" lon="10.336888">
<ele>341.754</ele>
<time>2019-05-30T15:57:40Z</time>
</trkpt>
<trkpt lat="49.509468" lon="10.337013">
<ele>341.534</ele>
<time>2019-05-30T15:57:41Z</time>
</trkpt>
<trkpt lat="49.509506" lon="10.337139">
<ele>341.393</ele>
<time>2019-05-30T15:57:42Z</time>
</trkpt>
<trkpt lat="49.509548" lon="10.337263">
<ele>341.036</ele>
<time>2019-05-30T15:57:43Z</time>
</trkpt>
<trkpt lat="49.50959" lon="10.337388">
<ele>340.753</ele>
<time>2019-05-30T15:57:44Z</time>
</trkpt>
<trkpt lat="49.509632" lon="10.337514">
<ele>340.536</ele>
<time>2019-05-30T15:57:45Z</time>
</trkpt>
<trkpt lat="49.509674" lon="10.33764">
<ele>340.382</ele>
<time>2019-05-30T15:57:46Z</time>
</trkpt>
<trkpt lat="49.50972" lon="10.337768">
<ele>340.261</ele>
<time>2019-05-30T15:57:47Z</time>
</trkpt>
<trkpt lat="49.509762" lon="10.337897">
<ele>339.968</ele>
<time>2019-05-30T15:57:48Z</time>
</trkpt>
<trkpt lat="49.509808" lon="10.338025">
<ele>339.752</ele>
<time>2019-05-30T15:57:49Z</time>
</trkpt>
<trkpt lat="49.509853" lon="10.338155">
<ele>339.601</ele>
<time>2019-05-30T15:57:50Z</time>
</trkpt>
<trkpt lat="49.509899" lon="10.338287">
<ele>339.255</ele>
<time>2019-05-30T15:57:51Z</time>
</trkpt>
<trkpt lat="49.509941" lon="10.33842">
<ele>338.975</ele>
<time>2019-05-30T15:57:52Z</time>
</trkpt>
<trkpt lat="49.509983" lon="10.338553">
<ele>338.758</ele>
<time>2019-05-30T15:57:53Z</time>
</trkpt>
<trkpt lat="49.510025" lon="10.338685">
<ele>338.623</ele>
<time>2019-05-30T15:57:54Z</time>
</trkpt>
<trkpt lat="49.510071" lon="10.338818">
<ele>338.209</ele>
<time>2019-05-30T15:57:55Z</time>
</trkpt>
<trkpt lat="49.510109" lon="10.338955">
<ele>337.937</ele>
<time>2019-05-30T15:57:56Z</time>
</trkpt>
<trkpt lat="49.510151" lon="10.339091">
<ele>337.47</ele>
<time>2019-05-30T15:57:57Z</time>
</trkpt>
<trkpt lat="49.510185" lon="10.33923">
<ele>337.149</ele>
<time>2019-05-30T15:57:58Z</time>
</trkpt>
<trkpt lat="49.510227" lon="10.33937">
<ele>336.632</ele>
<time>2019-05-30T15:57:59Z</time>
</trkpt>
<trkpt lat="49.510262" lon="10.339511">
<ele>336.267</ele>
<time>2019-05-30T15:58:00Z</time>
</trkpt>
<trkpt lat="49.510296" lon="10.339655">
<ele>335.949</ele>
<time>2019-05-30T15:58:01Z</time>
</trkpt>
<trkpt lat="49.510326" lon="10.3398">
<ele>335.478</ele>
<time>2019-05-30T15:58:02Z</time>
</trkpt>
<trkpt lat="49.510357" lon="10.339943">
<ele>335.176</ele>
<time>2019-05-30T15:58:03Z</time>
</trkpt>
<trkpt lat="49.510384" lon="10.340087">
<ele>334.679</ele>
<time>2019-05-30T15:58:04Z</time>
</trkpt>
<trkpt lat="49.51041" lon="10.340232">
<ele>334.304</ele>
<time>2019-05-30T15:58:05Z</time>
</trkpt>
<trkpt lat="49.510433" lon="10.340378">
<ele>334.022</ele>
<time>2019-05-30T15:58:06Z</time>
</trkpt>
<trkpt lat="49.510448" lon="10.340525">
<ele>333.771</ele>
<time>2019-05-30T15:58:07Z</time>
</trkpt>
<trkpt lat="49.510468" lon="10.34067">
<ele>333.442</ele>
<time>2019-05-30T15:58:08Z</time>
</trkpt>
<trkpt lat="49.510483" lon="10.340818">
<ele>333.214</ele>
<time>2019-05-30T15:58:09Z</time>
</trkpt>
<trkpt lat="49.510498" lon="10.340961">
<ele>333.05</ele>
<time>2019-05-30T15:58:10Z</time>
</trkpt>
<trkpt lat="49.510509" lon="10.341108">
<ele>332.905</ele>
<time>2019-05-30T15:58:11Z</time>
</trkpt>
<trkpt lat="49.510521" lon="10.341251">
<ele>332.56</ele>
<time>2019-05-30T15:58:12Z</time>
</trkpt>
<trkpt lat="49.510525" lon="10.341396">
<ele>332.282</ele>
<time>2019-05-30T15:58:13Z</time>
</trkpt>
<trkpt lat="49.510532" lon="10.34154">
<ele>332.065</ele>
<time>2019-05-30T15:58:14Z</time>
</trkpt>
<trkpt lat="49.510536" lon="10.341683">
<ele>331.906</ele>
<time>2019-05-30T15:58:15Z</time>
</trkpt>
<trkpt lat="49.51054" lon="10.341826">
<ele>331.73</ele>
<time>2019-05-30T15:58:16Z</time>
</trkpt>
<trkpt lat="49.51054" lon="10.341973">
<ele>331.675</ele>
<time>2019-05-30T15:58:17Z</time>
</trkpt>
<trkpt lat="49.510536" lon="10.342118">
<ele>331.648</ele>
<time>2019-05-30T15:58:18Z</time>
</trkpt>
<trkpt lat="49.510532" lon="10.342261">
<ele>331.421</ele>
<time>2019-05-30T15:58:19Z</time>
</trkpt>
<trkpt lat="49.510525" lon="10.342403">
<ele>331.259</ele>
<time>2019-05-30T15:58:20Z</time>
</trkpt>
<trkpt lat="49.510517" lon="10.342543">
<ele>331.093</ele>
<time>2019-05-30T15:58:21Z</time>
</trkpt>
<trkpt lat="49.510509" lon="10.342681">
<ele>330.973</ele>
<time>2019-05-30T15:58:22Z</time>
</trkpt>
<trkpt lat="49.510498" lon="10.342818">
<ele>330.64</ele>
<time>2019-05-30T15:58:23Z</time>
</trkpt>
<trkpt lat="49.510487" lon="10.342954">
<ele>330.374</ele>
<time>2019-05-30T15:58:24Z</time>
</trkpt>
<trkpt lat="49.510471" lon="10.343087">
<ele>330.168</ele>
<time>2019-05-30T15:58:25Z</time>
</trkpt>
<trkpt lat="49.510456" lon="10.343219">
<ele>330.017</ele>
<time>2019-05-30T15:58:26Z</time>
</trkpt>
<trkpt lat="49.510433" lon="10.343345">
<ele>329.877</ele>
<time>2019-05-30T15:58:27Z</time>
</trkpt>
<trkpt lat="49.51041" lon="10.343472">
<ele>329.826</ele>
<time>2019-05-30T15:58:28Z</time>
</trkpt>
<trkpt lat="49.510387" lon="10.343598">
<ele>329.801</ele>
<time>2019-05-30T15:58:29Z</time>
</trkpt>
<trkpt lat="49.510365" lon="10.343724">
<ele>329.779</ele>
<time>2019-05-30T15:58:30Z</time>
</trkpt>
<trkpt lat="49.510342" lon="10.343848">
<ele>329.779</ele>
<time>2019-05-30T15:58:31Z</time>
</trkpt>
<trkpt lat="49.510315" lon="10.343973">
<ele>329.779</ele>
<time>2019-05-30T15:58:32Z</time>
</trkpt>
<trkpt lat="49.510284" lon="10.344097">
<ele>329.779</ele>
<time>2019-05-30T15:58:33Z</time>
</trkpt>
<trkpt lat="49.510258" lon="10.344218">
<ele>329.779</ele>
<time>2019-05-30T15:58:34Z</time>
</trkpt>
<trkpt lat="49.510231" lon="10.344338">
<ele>329.549</ele>
<time>2019-05-30T15:58:35Z</time>
</trkpt>
<trkpt lat="49.510201" lon="10.344455">
<ele>329.369</ele>
<time>2019-05-30T15:58:36Z</time>
</trkpt>
<trkpt lat="49.51017" lon="10.344572">
<ele>329.231</ele>
<time>2019-05-30T15:58:37Z</time>
</trkpt>
<trkpt lat="49.510136" lon="10.344687">
<ele>329.129</ele>
<time>2019-05-30T15:58:38Z</time>
</trkpt>
<trkpt lat="49.510101" lon="10.3448">
<ele>329.055</ele>
<time>2019-05-30T15:58:39Z</time>
</trkpt>
<trkpt lat="49.510063" lon="10.344913">
<ele>329.001</ele>
<time>2019-05-30T15:58:40Z</time>
</trkpt>
<trkpt lat="49.510029" lon="10.345023">
<ele>328.953</ele>
<time>2019-05-30T15:58:41Z</time>
</trkpt>
<trkpt lat="49.509991" lon="10.345132">
<ele>328.929</ele>
<time>2019-05-30T15:58:42Z</time>
</trkpt>
<trkpt lat="49.509956" lon="10.345239">
<ele>328.929</ele>
<time>2019-05-30T15:58:43Z</time>
</trkpt>
<trkpt lat="49.509914" lon="10.345345">
<ele>328.929</ele>
<time>2019-05-30T15:58:44Z</time>
</trkpt>
<trkpt lat="49.509872" lon="10.34545">
<ele>328.929</ele>
<time>2019-05-30T15:58:45Z</time>
</trkpt>
<trkpt lat="49.50983" lon="10.345553">
<ele>328.929</ele>
<time>2019-05-30T15:58:46Z</time>
</trkpt>
<trkpt lat="49.509792" lon="10.345656">
<ele>328.929</ele>
<time>2019-05-30T15:58:47Z</time>
</trkpt>
<trkpt lat="49.50975" lon="10.345758">
<ele>328.929</ele>
<time>2019-05-30T15:58:48Z</time>
</trkpt>
<trkpt lat="49.509705" lon="10.34586">
<ele>328.929</ele>
<time>2019-05-30T15:58:49Z</time>
</trkpt>
<trkpt lat="49.509666" lon="10.345958">
<ele>328.929</ele>
<time>2019-05-30T15:58:50Z</time>
</trkpt>
<trkpt lat="49.509628" lon="10.346056">
<ele>328.929</ele>
<time>2019-05-30T15:58:51Z</time>
</trkpt>
<trkpt lat="49.50959" lon="10.346155">
<ele>328.929</ele>
<time>2019-05-30T15:58:52Z</time>
</trkpt>
<trkpt lat="49.509548" lon="10.346251">
<ele>328.929</ele>
<time>2019-05-30T15:58:53Z</time>
</trkpt>
<trkpt lat="49.509506" lon="10.346347">
<ele>328.929</ele>
<time>2019-05-30T15:58:54Z</time>
</trkpt>
<trkpt lat="49.509468" lon="10.346439">
<ele>328.929</ele>
<time>2019-05-30T15:58:55Z</time>
</trkpt>
<trkpt lat="49.50943" lon="10.346532">
<ele>328.929</ele>
<time>2019-05-30T15:58:56Z</time>
</trkpt>
<trkpt lat="49.509392" lon="10.346623">
<ele>328.929</ele>
<time>2019-05-30T15:58:57Z</time>
</trkpt>
<trkpt lat="49.509354" lon="10.346715">
<ele>328.929</ele>
<time>2019-05-30T15:58:58Z</time>
</trkpt>
<trkpt lat="49.509319" lon="10.346806">
<ele>328.929</ele>
<time>2019-05-30T15:58:59Z</time>
</trkpt>
<trkpt lat="49.509281" lon="10.346896">
<ele>328.929</ele>
<time>2019-05-30T15:59:00Z</time>
</trkpt>
<trkpt lat="49.509243" lon="10.346989">
<ele>328.929</ele>
<time>2019-05-30T15:59:01Z</time>
</trkpt>
<trkpt lat="49.509209" lon="10.347076">
<ele>328.929</ele>
<time>2019-05-30T15:59:02Z</time>
</trkpt>
<trkpt lat="49.509174" lon="10.347166">
<ele>328.929</ele>
<time>2019-05-30T15:59:03Z</time>
</trkpt>
<trkpt lat="49.509136" lon="10.347259">
<ele>328.929</ele>
<time>2019-05-30T15:59:04Z</time>
</trkpt>
<trkpt lat="49.509098" lon="10.34735">
<ele>328.929</ele>
<time>2019-05-30T15:59:05Z</time>
</trkpt>
<trkpt lat="49.50906" lon="10.347441">
<ele>328.929</ele>
<time>2019-05-30T15:59:06Z</time>
</trkpt>
<trkpt lat="49.509018" lon="10.347531">
<ele>328.929</ele>
<time>2019-05-30T15:59:07Z</time>
</trkpt>
<trkpt lat="49.50898" lon="10.347625">
<ele>328.929</ele>
<time>2019-05-30T15:59:08Z</time>
</trkpt>
<trkpt lat="49.508945" lon="10.347717">
<ele>328.929</ele>
<time>2019-05-30T15:59:09Z</time>
</trkpt>
<trkpt lat="49.508907" lon="10.34781">
<ele>328.929</ele>
<time>2019-05-30T15:59:10Z</time>
</trkpt>
<trkpt lat="49.508869" lon="10.347903">
<ele>328.929</ele>
<time>2019-05-30T15:59:11Z</time>
</trkpt>
<trkpt lat="49.508835" lon="10.347999">
<ele>328.929</ele>
<time>2019-05-30T15:59:12Z</time>
</trkpt>
<trkpt lat="49.508797" lon="10.348092">
<ele>328.929</ele>
<time>2019-05-30T15:59:13Z</time>
</trkpt>
<trkpt lat="49.508759" lon="10.348185">
<ele>328.929</ele>
<time>2019-05-30T15:59:14Z</time>
</trkpt>
<trkpt lat="49.50872" lon="10.348281">
<ele>328.929</ele>
<time>2019-05-30T15:59:15Z</time>
</trkpt>
<trkpt lat="49.508686" lon="10.348377">
<ele>328.929</ele>
<time>2019-05-30T15:59:16Z</time>
</trkpt>
<trkpt lat="49.508648" lon="10.348474">
<ele>328.929</ele>
<time>2019-05-30T15:59:17Z</time>
</trkpt>
<trkpt lat="49.50861" lon="10.348572">
<ele>328.929</ele>
<time>2019-05-30T15:59:18Z</time>
</trkpt>
<trkpt lat="49.508575" lon="10.34867">
<ele>328.929</ele>
<time>2019-05-30T15:59:19Z</time>
</trkpt>
<trkpt lat="49.508541" lon="10.348768">
<ele>328.929</ele>
<time>2019-05-30T15:59:20Z</time>
</trkpt>
<trkpt lat="49.508503" lon="10.348867">
<ele>328.929</ele>
<time>2019-05-30T15:59:21Z</time>
</trkpt>
<trkpt lat="49.508465" lon="10.348967">
<ele>328.929</ele>
<time>2019-05-30T15:59:22Z</time>
</trkpt>
<trkpt lat="49.50843" lon="10.349063">
<ele>328.929</ele>
<time>2019-05-30T15:59:23Z</time>
</trkpt>
<trkpt lat="49.508392" lon="10.349163">
<ele>328.929</ele>
<time>2019-05-30T15:59:24Z</time>
</trkpt>
<trkpt lat="49.508362" lon="10.349261">
<ele>328.929</ele>
<time>2019-05-30T15:59:25Z</time>
</trkpt>
<trkpt lat="49.508327" lon="10.349361">
<ele>328.929</ele>
<time>2019-05-30T15:59:26Z</time>
</trkpt>
<trkpt lat="49.508293" lon="10.349459">
<ele>328.929</ele>
<time>2019-05-30T15:59:27Z</time>
</trkpt>
<trkpt lat="49.508263" lon="10.349555">
<ele>328.929</ele>
<time>2019-05-30T15:59:28Z</time>
</trkpt>
<trkpt lat="49.508228" lon="10.349651">
<ele>328.929</ele>
<time>2019-05-30T15:59:29Z</time>
</trkpt>
<trkpt lat="49.508198" lon="10.349747">
<ele>328.929</ele>
<time>2019-05-30T15:59:30Z</time>
</trkpt>
<trkpt lat="49.508163" lon="10.34984">
<ele>328.929</ele>
<time>2019-05-30T15:59:31Z</time>
</trkpt>
<trkpt lat="49.508129" lon="10.349936">
<ele>329.179</ele>
<time>2019-05-30T15:59:32Z</time>
</trkpt>
<trkpt lat="49.508099" lon="10.35003">
<ele>329.376</ele>
<time>2019-05-30T15:59:33Z</time>
</trkpt>
<trkpt lat="49.508072" lon="10.350123">
<ele>329.525</ele>
<time>2019-05-30T15:59:34Z</time>
</trkpt>
<trkpt lat="49.508041" lon="10.350217">
<ele>329.635</ele>
<time>2019-05-30T15:59:35Z</time>
</trkpt>
<trkpt lat="49.508011" lon="10.35031">
<ele>329.711</ele>
<time>2019-05-30T15:59:36Z</time>
</trkpt>
<trkpt lat="49.50798" lon="10.350402">
<ele>329.757</ele>
<time>2019-05-30T15:59:37Z</time>
</trkpt>
<trkpt lat="49.50795" lon="10.350495">
<ele>329.779</ele>
<time>2019-05-30T15:59:38Z</time>
</trkpt>
<trkpt lat="49.507919" lon="10.350585">
<ele>329.779</ele>
<time>2019-05-30T15:59:39Z</time>
</trkpt>
<trkpt lat="49.507893" lon="10.350676">
<ele>329.779</ele>
<time>2019-05-30T15:59:40Z</time>
</trkpt>
<trkpt lat="49.507862" lon="10.350763">
<ele>329.779</ele>
<time>2019-05-30T15:59:41Z</time>
</trkpt>
<trkpt lat="49.507835" lon="10.350852">
<ele>329.779</ele>
<time>2019-05-30T15:59:42Z</time>
</trkpt>
<trkpt lat="49.507805" lon="10.350938">
<ele>329.779</ele>
<time>2019-05-30T15:59:43Z</time>
</trkpt>
<trkpt lat="49.507771" lon="10.351027">
<ele>330.039</ele>
<time>2019-05-30T15:59:44Z</time>
</trkpt>
<trkpt lat="49.507744" lon="10.351115">
<ele>330.243</ele>
<time>2019-05-30T15:59:45Z</time>
</trkpt>
<trkpt lat="49.507717" lon="10.351203">
<ele>330.399</ele>
<time>2019-05-30T15:59:46Z</time>
</trkpt>
<trkpt lat="49.507687" lon="10.351294">
<ele>330.516</ele>
<time>2019-05-30T15:59:47Z</time>
</trkpt>
<trkpt lat="49.50766" lon="10.351383">
<ele>330.596</ele>
<time>2019-05-30T15:59:48Z</time>
</trkpt>
<trkpt lat="49.507633" lon="10.35147">
<ele>330.647</ele>
<time>2019-05-30T15:59:49Z</time>
</trkpt>
<trkpt lat="49.507603" lon="10.351557">
<ele>330.688</ele>
<time>2019-05-30T15:59:50Z</time>
</trkpt>
<trkpt lat="49.507576" lon="10.351644">
<ele>330.714</ele>
<time>2019-05-30T15:59:51Z</time>
</trkpt>
<trkpt lat="49.507545" lon="10.351727">
<ele>330.714</ele>
<time>2019-05-30T15:59:52Z</time>
</trkpt>
<trkpt lat="49.507519" lon="10.35181">
<ele>330.982</ele>
<time>2019-05-30T15:59:53Z</time>
</trkpt>
<trkpt lat="49.507492" lon="10.351893">
<ele>331.188</ele>
<time>2019-05-30T15:59:54Z</time>
</trkpt>
<trkpt lat="49.507469" lon="10.351974">
<ele>331.346</ele>
<time>2019-05-30T15:59:55Z</time>
</trkpt>
<trkpt lat="49.507442" lon="10.352055">
<ele>331.464</ele>
<time>2019-05-30T15:59:56Z</time>
</trkpt>
<trkpt lat="49.507412" lon="10.352134">
<ele>331.546</ele>
<time>2019-05-30T15:59:57Z</time>
</trkpt>
<trkpt lat="49.507389" lon="10.35221">
<ele>331.597</ele>
<time>2019-05-30T15:59:58Z</time>
</trkpt>
<trkpt lat="49.507362" lon="10.35229">
<ele>331.621</ele>
<time>2019-05-30T15:59:59Z</time>
</trkpt>
<trkpt lat="49.507336" lon="10.352366">
<ele>331.854</ele>
<time>2019-05-30T16:00:00Z</time>
</trkpt>
<trkpt lat="49.507313" lon="10.35244">
<ele>332.048</ele>
<time>2019-05-30T16:00:01Z</time>
</trkpt>
<trkpt lat="49.507282" lon="10.35251">
<ele>332.209</ele>
<time>2019-05-30T16:00:02Z</time>
</trkpt>
<trkpt lat="49.507256" lon="10.35258">
<ele>332.339</ele>
<time>2019-05-30T16:00:03Z</time>
</trkpt>
<trkpt lat="49.507233" lon="10.352649">
<ele>332.424</ele>
<time>2019-05-30T16:00:04Z</time>
</trkpt>
<trkpt lat="49.507206" lon="10.352716">
<ele>332.707</ele>
<time>2019-05-30T16:00:05Z</time>
</trkpt>
<trkpt lat="49.507183" lon="10.352783">
<ele>332.93</ele>
<time>2019-05-30T16:00:06Z</time>
</trkpt>
<trkpt lat="49.507153" lon="10.352848">
<ele>333.097</ele>
<time>2019-05-30T16:00:07Z</time>
</trkpt>
<trkpt lat="49.50713" lon="10.352911">
<ele>333.229</ele>
<time>2019-05-30T16:00:08Z</time>
</trkpt>
<trkpt lat="49.507107" lon="10.352974">
<ele>333.305</ele>
<time>2019-05-30T16:00:09Z</time>
</trkpt>
<trkpt lat="49.507084" lon="10.353032">
<ele>333.361</ele>
<time>2019-05-30T16:00:10Z</time>
</trkpt>
<trkpt lat="49.507057" lon="10.353086">
<ele>333.628</ele>
<time>2019-05-30T16:00:11Z</time>
</trkpt>
<trkpt lat="49.507034" lon="10.353142">
<ele>333.839</ele>
<time>2019-05-30T16:00:12Z</time>
</trkpt>
<trkpt lat="49.507011" lon="10.353196">
<ele>333.995</ele>
<time>2019-05-30T16:00:13Z</time>
</trkpt>
<trkpt lat="49.506989" lon="10.353252">
<ele>334.123</ele>
<time>2019-05-30T16:00:14Z</time>
</trkpt>
<trkpt lat="49.506962" lon="10.353305">
<ele>334.205</ele>
<time>2019-05-30T16:00:15Z</time>
</trkpt>
<trkpt lat="49.506935" lon="10.35336">
<ele>334.511</ele>
<time>2019-05-30T16:00:16Z</time>
</trkpt>
<trkpt lat="49.506908" lon="10.353415">
<ele>334.757</ele>
<time>2019-05-30T16:00:17Z</time>
</trkpt>
<trkpt lat="49.506886" lon="10.35347">
<ele>334.943</ele>
<time>2019-05-30T16:00:18Z</time>
</trkpt>
<trkpt lat="49.506859" lon="10.353521">
<ele>335.07</ele>
<time>2019-05-30T16:00:19Z</time>
</trkpt>
<trkpt lat="49.506828" lon="10.353573">
<ele>335.147</ele>
<time>2019-05-30T16:00:20Z</time>
</trkpt>
<trkpt lat="49.506802" lon="10.353627">
<ele>335.436</ele>
<time>2019-05-30T16:00:21Z</time>
</trkpt>
<trkpt lat="49.506771" lon="10.353678">
<ele>335.659</ele>
<time>2019-05-30T16:00:22Z</time>
</trkpt>
<trkpt lat="49.506744" lon="10.353735">
<ele>335.828</ele>
<time>2019-05-30T16:00:23Z</time>
</trkpt>
<trkpt lat="49.506714" lon="10.353788">
<ele>335.941</ele>
<time>2019-05-30T16:00:24Z</time>
</trkpt>
<trkpt lat="49.506687" lon="10.35384">
<ele>336.029</ele>
<time>2019-05-30T16:00:25Z</time>
</trkpt>
<trkpt lat="49.506657" lon="10.353893">
<ele>336.093</ele>
<time>2019-05-30T16:00:26Z</time>
</trkpt>
<trkpt lat="49.506626" lon="10.353945">
<ele>336.13</ele>
<time>2019-05-30T16:00:27Z</time>
</trkpt>
<trkpt lat="49.506596" lon="10.353996">
<ele>336.403</ele>
<time>2019-05-30T16:00:28Z</time>
</trkpt>
<trkpt lat="49.506565" lon="10.354049">
<ele>336.61</ele>
<time>2019-05-30T16:00:29Z</time>
</trkpt>
<trkpt lat="49.506535" lon="10.354098">
<ele>336.748</ele>
<time>2019-05-30T16:00:30Z</time>
</trkpt>
<trkpt lat="49.5065" lon="10.354149">
<ele>336.895</ele>
<time>2019-05-30T16:00:31Z</time>
</trkpt>
<trkpt lat="49.50647" lon="10.354197">
<ele>337.012</ele>
<time>2019-05-30T16:00:32Z</time>
</trkpt>
<trkpt lat="49.506435" lon="10.354245">
<ele>337.096</ele>
<time>2019-05-30T16:00:33Z</time>
</trkpt>
<trkpt lat="49.506405" lon="10.354296">
<ele>337.148</ele>
<time>2019-05-30T16:00:34Z</time>
</trkpt>
<trkpt lat="49.506371" lon="10.354343">
<ele>337.174</ele>
<time>2019-05-30T16:00:35Z</time>
</trkpt>
<trkpt lat="49.506336" lon="10.35439">
<ele>337.173</ele>
<time>2019-05-30T16:00:36Z</time>
</trkpt>
<trkpt lat="49.506298" lon="10.354439">
<ele>337.173</ele>
<time>2019-05-30T16:00:37Z</time>
</trkpt>
<trkpt lat="49.506264" lon="10.354486">
<ele>337.174</ele>
<time>2019-05-30T16:00:38Z</time>
</trkpt>
<trkpt lat="49.506226" lon="10.354537">
<ele>337.174</ele>
<time>2019-05-30T16:00:39Z</time>
</trkpt>
<trkpt lat="49.506191" lon="10.354585">
<ele>337.174</ele>
<time>2019-05-30T16:00:40Z</time>
</trkpt>
<trkpt lat="49.506153" lon="10.354633">
<ele>337.446</ele>
<time>2019-05-30T16:00:41Z</time>
</trkpt>
<trkpt lat="49.506115" lon="10.354685">
<ele>337.673</ele>
<time>2019-05-30T16:00:42Z</time>
</trkpt>
<trkpt lat="49.506077" lon="10.354733">
<ele>337.859</ele>
<time>2019-05-30T16:00:43Z</time>
</trkpt>
<trkpt lat="49.506042" lon="10.354782">
<ele>338.006</ele>
<time>2019-05-30T16:00:44Z</time>
</trkpt>
<trkpt lat="49.506004" lon="10.354826">
<ele>338.119</ele>
<time>2019-05-30T16:00:45Z</time>
</trkpt>
<trkpt lat="49.505962" lon="10.354874">
<ele>338.201</ele>
<time>2019-05-30T16:00:46Z</time>
</trkpt>
<trkpt lat="49.50592" lon="10.354922">
<ele>338.253</ele>
<time>2019-05-30T16:00:47Z</time>
</trkpt>
<trkpt lat="49.505882" lon="10.354966">
<ele>338.279</ele>
<time>2019-05-30T16:00:48Z</time>
</trkpt>
<trkpt lat="49.505844" lon="10.35501">
<ele>338.279</ele>
<time>2019-05-30T16:00:49Z</time>
</trkpt>
<trkpt lat="49.505798" lon="10.355055">
<ele>338.279</ele>
<time>2019-05-30T16:00:50Z</time>
</trkpt>
<trkpt lat="49.505756" lon="10.355102">
<ele>338.279</ele>
<time>2019-05-30T16:00:51Z</time>
</trkpt>
<trkpt lat="49.505718" lon="10.355151">
<ele>338.279</ele>
<time>2019-05-30T16:00:52Z</time>
</trkpt>
<trkpt lat="49.505672" lon="10.3552">
<ele>338.279</ele>
<time>2019-05-30T16:00:53Z</time>
</trkpt>
<trkpt lat="49.505627" lon="10.355248">
<ele>338.279</ele>
<time>2019-05-30T16:00:54Z</time>
</trkpt>
<trkpt lat="49.505585" lon="10.3553">
<ele>338.279</ele>
<time>2019-05-30T16:00:55Z</time>
</trkpt>
<trkpt lat="49.505539" lon="10.355348">
<ele>338.532</ele>
<time>2019-05-30T16:00:56Z</time>
</trkpt>
<trkpt lat="49.505493" lon="10.355398">
<ele>338.727</ele>
<time>2019-05-30T16:00:57Z</time>
</trkpt>
<trkpt lat="49.505455" lon="10.355449">
<ele>338.874</ele>
<time>2019-05-30T16:00:58Z</time>
</trkpt>
<trkpt lat="49.505413" lon="10.355498">
<ele>338.983</ele>
<time>2019-05-30T16:00:59Z</time>
</trkpt>
<trkpt lat="49.505371" lon="10.355549">
<ele>339.059</ele>
<time>2019-05-30T16:01:00Z</time>
</trkpt>
<trkpt lat="49.505325" lon="10.355598">
<ele>339.139</ele>
<time>2019-05-30T16:01:01Z</time>
</trkpt>
<trkpt lat="49.505287" lon="10.35565">
<ele>339.189</ele>
<time>2019-05-30T16:01:02Z</time>
</trkpt>
<trkpt lat="49.505241" lon="10.355703">
<ele>339.214</ele>
<time>2019-05-30T16:01:03Z</time>
</trkpt>
<trkpt lat="49.505199" lon="10.355755">
<ele>339.214</ele>
<time>2019-05-30T16:01:04Z</time>
</trkpt>
<trkpt lat="49.505161" lon="10.355811">
<ele>339.214</ele>
<time>2019-05-30T16:01:05Z</time>
</trkpt>
<trkpt lat="49.505116" lon="10.355868">
<ele>339.214</ele>
<time>2019-05-30T16:01:06Z</time>
</trkpt>
<trkpt lat="49.50507" lon="10.355927">
<ele>339.214</ele>
<time>2019-05-30T16:01:07Z</time>
</trkpt>
<trkpt lat="49.505028" lon="10.355989">
<ele>339.214</ele>
<time>2019-05-30T16:01:08Z</time>
</trkpt>
<trkpt lat="49.504982" lon="10.356051">
<ele>339.002</ele>
<time>2019-05-30T16:01:09Z</time>
</trkpt>
<trkpt lat="49.50494" lon="10.35612">
<ele>338.855</ele>
<time>2019-05-30T16:01:10Z</time>
</trkpt>
<trkpt lat="49.504894" lon="10.35619">
<ele>338.7</ele>
<time>2019-05-30T16:01:11Z</time>
</trkpt>
<trkpt lat="49.504852" lon="10.356259">
<ele>338.58</ele>
<time>2019-05-30T16:01:12Z</time>
</trkpt>
<trkpt lat="49.504807" lon="10.356333">
<ele>338.49</ele>
<time>2019-05-30T16:01:13Z</time>
</trkpt>
<trkpt lat="49.504761" lon="10.356408">
<ele>338.424</ele>
<time>2019-05-30T16:01:14Z</time>
</trkpt>
<trkpt lat="49.504715" lon="10.356487">
<ele>338.383</ele>
<time>2019-05-30T16:01:15Z</time>
</trkpt>
<trkpt lat="49.504673" lon="10.356566">
<ele>338.363</ele>
<time>2019-05-30T16:01:16Z</time>
</trkpt>
<trkpt lat="49.504627" lon="10.356648">
<ele>338.363</ele>
<time>2019-05-30T16:01:17Z</time>
</trkpt>
<trkpt lat="49.504581" lon="10.356729">
<ele>338.364</ele>
<time>2019-05-30T16:01:18Z</time>
</trkpt>
<trkpt lat="49.504539" lon="10.356813">
<ele>338.131</ele>
<time>2019-05-30T16:01:19Z</time>
</trkpt>
<trkpt lat="49.504494" lon="10.356902">
<ele>337.969</ele>
<time>2019-05-30T16:01:20Z</time>
</trkpt>
<trkpt lat="49.504448" lon="10.356994">
<ele>337.814</ele>
<time>2019-05-30T16:01:21Z</time>
</trkpt>
<trkpt lat="49.504406" lon="10.357086">
<ele>337.443</ele>
<time>2019-05-30T16:01:22Z</time>
</trkpt>
<trkpt lat="49.50436" lon="10.357185">
<ele>337.147</ele>
<time>2019-05-30T16:01:23Z</time>
</trkpt>
<trkpt lat="49.504318" lon="10.357285">
<ele>336.915</ele>
<time>2019-05-30T16:01:24Z</time>
</trkpt>
<trkpt lat="49.504272" lon="10.357388">
<ele>336.772</ele>
<time>2019-05-30T16:01:25Z</time>
</trkpt>
<trkpt lat="49.504227" lon="10.357489">
<ele>336.383</ele>
<time>2019-05-30T16:01:26Z</time>
</trkpt>
<trkpt lat="49.504185" lon="10.357592">
<ele>336.032</ele>
<time>2019-05-30T16:01:27Z</time>
</trkpt>
<trkpt lat="49.504143" lon="10.357697">
<ele>335.879</ele>
<time>2019-05-30T16:01:28Z</time>
</trkpt>
<trkpt lat="49.504097" lon="10.357801">
<ele>335.532</ele>
<time>2019-05-30T16:01:29Z</time>
</trkpt>
<trkpt lat="49.504055" lon="10.357908">
<ele>335.281</ele>
<time>2019-05-30T16:01:30Z</time>
</trkpt>
<trkpt lat="49.504009" lon="10.358013">
<ele>335.045</ele>
<time>2019-05-30T16:01:31Z</time>
</trkpt>
<trkpt lat="49.503963" lon="10.358122">
<ele>334.87</ele>
<time>2019-05-30T16:01:32Z</time>
</trkpt>
<trkpt lat="49.503918" lon="10.358231">
<ele>334.763</ele>
<time>2019-05-30T16:01:33Z</time>
</trkpt>
<trkpt lat="49.503868" lon="10.358341">
<ele>334.438</ele>
<time>2019-05-30T16:01:34Z</time>
</trkpt>
<trkpt lat="49.503826" lon="10.358455">
<ele>334.183</ele>
<time>2019-05-30T16:01:35Z</time>
</trkpt>
<trkpt lat="49.503773" lon="10.358568">
<ele>333.989</ele>
<time>2019-05-30T16:01:36Z</time>
</trkpt>
<trkpt lat="49.503727" lon="10.358682">
<ele>333.815</ele>
<time>2019-05-30T16:01:37Z</time>
</trkpt>
<trkpt lat="49.503677" lon="10.358796">
<ele>333.748</ele>
<time>2019-05-30T16:01:38Z</time>
</trkpt>
<trkpt lat="49.503628" lon="10.358912">
<ele>333.43</ele>
<time>2019-05-30T16:01:39Z</time>
</trkpt>
<trkpt lat="49.503574" lon="10.359029">
<ele>333.201</ele>
<time>2019-05-30T16:01:40Z</time>
</trkpt>
<trkpt lat="49.503529" lon="10.359146">
<ele>332.992</ele>
<time>2019-05-30T16:01:41Z</time>
</trkpt>
<trkpt lat="49.503475" lon="10.359265">
<ele>332.863</ele>
<time>2019-05-30T16:01:42Z</time>
</trkpt>
<trkpt lat="49.503426" lon="10.359383">
<ele>332.474</ele>
<time>2019-05-30T16:01:43Z</time>
</trkpt>
<trkpt lat="49.503372" lon="10.359502">
<ele>332.164</ele>
<time>2019-05-30T16:01:44Z</time>
</trkpt>
<trkpt lat="49.503323" lon="10.359622">
<ele>331.963</ele>
<time>2019-05-30T16:01:45Z</time>
</trkpt>
<trkpt lat="49.503269" lon="10.359743">
<ele>331.502</ele>
<time>2019-05-30T16:01:46Z</time>
</trkpt>
<trkpt lat="49.503216" lon="10.359865">
<ele>331.078</ele>
<time>2019-05-30T16:01:47Z</time>
</trkpt>
<trkpt lat="49.50317" lon="10.359988">
<ele>330.839</ele>
<time>2019-05-30T16:01:48Z</time>
</trkpt>
<trkpt lat="49.503117" lon="10.360114">
<ele>330.675</ele>
<time>2019-05-30T16:01:49Z</time>
</trkpt>
<trkpt lat="49.503067" lon="10.360237">
<ele>330.556</ele>
<time>2019-05-30T16:01:50Z</time>
</trkpt>
<trkpt lat="49.503014" lon="10.360359">
<ele>330.464</ele>
<time>2019-05-30T16:01:51Z</time>
</trkpt>
<trkpt lat="49.502964" lon="10.360481">
<ele>330.154</ele>
<time>2019-05-30T16:01:52Z</time>
</trkpt>
<trkpt lat="49.502914" lon="10.360601">
<ele>329.917</ele>
<time>2019-05-30T16:01:53Z</time>
</trkpt>
<trkpt lat="49.502865" lon="10.360718">
<ele>329.656</ele>
<time>2019-05-30T16:01:54Z</time>
</trkpt>
<trkpt lat="49.502815" lon="10.360839">
<ele>329.526</ele>
<time>2019-05-30T16:01:55Z</time>
</trkpt>
<trkpt lat="49.502766" lon="10.360956">
<ele>329.438</ele>
<time>2019-05-30T16:01:56Z</time>
</trkpt>
<trkpt lat="49.50272" lon="10.361075">
<ele>329.387</ele>
<time>2019-05-30T16:01:57Z</time>
</trkpt>
<trkpt lat="49.502666" lon="10.361191">
<ele>329.105</ele>
<time>2019-05-30T16:01:58Z</time>
</trkpt>
<trkpt lat="49.502617" lon="10.361305">
<ele>328.901</ele>
<time>2019-05-30T16:01:59Z</time>
</trkpt>
<trkpt lat="49.502567" lon="10.361417">
<ele>328.762</ele>
<time>2019-05-30T16:02:00Z</time>
</trkpt>
<trkpt lat="49.502522" lon="10.361528">
<ele>328.612</ele>
<time>2019-05-30T16:02:01Z</time>
</trkpt>
<trkpt lat="49.502468" lon="10.361639">
<ele>328.497</ele>
<time>2019-05-30T16:02:02Z</time>
</trkpt>
<trkpt lat="49.502422" lon="10.361749">
<ele>328.415</ele>
<time>2019-05-30T16:02:03Z</time>
</trkpt>
<trkpt lat="49.502377" lon="10.361858">
<ele>328.36</ele>
<time>2019-05-30T16:02:04Z</time>
</trkpt>
<trkpt lat="49.502327" lon="10.361968">
<ele>328.334</ele>
<time>2019-05-30T16:02:05Z</time>
</trkpt>
<trkpt lat="49.502281" lon="10.362079">
<ele>328.09</ele>
<time>2019-05-30T16:02:06Z</time>
</trkpt>
<trkpt lat="49.502235" lon="10.362186">
<ele>327.896</ele>
<time>2019-05-30T16:02:07Z</time>
</trkpt>
<trkpt lat="49.50219" lon="10.362293">
<ele>327.747</ele>
<time>2019-05-30T16:02:08Z</time>
</trkpt>
<trkpt lat="49.502144" lon="10.3624">
<ele>327.636</ele>
<time>2019-05-30T16:02:09Z</time>
</trkpt>
<trkpt lat="49.502098" lon="10.362505">
<ele>327.557</ele>
<time>2019-05-30T16:02:10Z</time>
</trkpt>
<trkpt lat="49.502056" lon="10.36261">
<ele>327.477</ele>
<time>2019-05-30T16:02:11Z</time>
</trkpt>
<trkpt lat="49.50201" lon="10.362717">
<ele>327.425</ele>
<time>2019-05-30T16:02:12Z</time>
</trkpt>
<trkpt lat="49.501968" lon="10.362823">
<ele>327.4</ele>
<time>2019-05-30T16:02:13Z</time>
</trkpt>
<trkpt lat="49.501923" lon="10.36293">
<ele>327.4</ele>
<time>2019-05-30T16:02:14Z</time>
</trkpt>
<trkpt lat="49.501877" lon="10.363037">
<ele>327.4</ele>
<time>2019-05-30T16:02:15Z</time>
</trkpt>
<trkpt lat="49.501835" lon="10.363142">
<ele>327.4</ele>
<time>2019-05-30T16:02:16Z</time>
</trkpt>
<trkpt lat="49.501785" lon="10.363245">
<ele>327.4</ele>
<time>2019-05-30T16:02:17Z</time>
</trkpt>
<trkpt lat="49.50174" lon="10.363351">
<ele>327.167</ele>
<time>2019-05-30T16:02:18Z</time>
</trkpt>
<trkpt lat="49.50169" lon="10.363456">
<ele>326.981</ele>
<time>2019-05-30T16:02:19Z</time>
</trkpt>
<trkpt lat="49.501644" lon="10.363559">
<ele>326.855</ele>
<time>2019-05-30T16:02:20Z</time>
</trkpt>
<trkpt lat="49.501595" lon="10.363662">
<ele>326.718</ele>
<time>2019-05-30T16:02:21Z</time>
</trkpt>
<trkpt lat="49.501545" lon="10.363764">
<ele>326.613</ele>
<time>2019-05-30T16:02:22Z</time>
</trkpt>
<trkpt lat="49.501492" lon="10.363864">
<ele>326.538</ele>
<time>2019-05-30T16:02:23Z</time>
</trkpt>
<trkpt lat="49.501438" lon="10.363965">
<ele>326.492</ele>
<time>2019-05-30T16:02:24Z</time>
</trkpt>
<trkpt lat="49.501381" lon="10.364065">
<ele>326.258</ele>
<time>2019-05-30T16:02:25Z</time>
</trkpt>
<trkpt lat="49.501328" lon="10.364161">
<ele>326.052</ele>
<time>2019-05-30T16:02:26Z</time>
</trkpt>
<trkpt lat="49.50127" lon="10.364255">
<ele>325.914</ele>
<time>2019-05-30T16:02:27Z</time>
</trkpt>
<trkpt lat="49.501213" lon="10.364348">
<ele>325.813</ele>
<time>2019-05-30T16:02:28Z</time>
</trkpt>
<trkpt lat="49.501156" lon="10.364436">
<ele>325.74</ele>
<time>2019-05-30T16:02:29Z</time>
</trkpt>
<trkpt lat="49.501091" lon="10.364525">
<ele>325.686</ele>
<time>2019-05-30T16:02:30Z</time>
</trkpt>
<trkpt lat="49.50103" lon="10.36461">
<ele>325.639</ele>
<time>2019-05-30T16:02:31Z</time>
</trkpt>
<trkpt lat="49.500973" lon="10.364694">
<ele>325.616</ele>
<time>2019-05-30T16:02:32Z</time>
</trkpt>
<trkpt lat="49.500916" lon="10.364776">
<ele>325.348</ele>
<time>2019-05-30T16:02:33Z</time>
</trkpt>
<trkpt lat="49.500854" lon="10.364857">
<ele>325.138</ele>
<time>2019-05-30T16:02:34Z</time>
</trkpt>
<trkpt lat="49.500797" lon="10.364935">
<ele>324.982</ele>
<time>2019-05-30T16:02:35Z</time>
</trkpt>
<trkpt lat="49.50074" lon="10.365013">
<ele>324.865</ele>
<time>2019-05-30T16:02:36Z</time>
</trkpt>
<trkpt lat="49.500683" lon="10.365093">
<ele>324.783</ele>
<time>2019-05-30T16:02:37Z</time>
</trkpt>
<trkpt lat="49.500633" lon="10.365173">
<ele>324.729</ele>
<time>2019-05-30T16:02:38Z</time>
</trkpt>
<trkpt lat="49.500576" lon="10.365252">
<ele>324.705</ele>
<time>2019-05-30T16:02:39Z</time>
</trkpt>
<trkpt lat="49.500523" lon="10.365327">
<ele>324.682</ele>
<time>2019-05-30T16:02:40Z</time>
</trkpt>
<trkpt lat="49.500469" lon="10.365404">
<ele>324.682</ele>
<time>2019-05-30T16:02:41Z</time>
</trkpt>
<trkpt lat="49.500416" lon="10.365477">
<ele>324.682</ele>
<time>2019-05-30T16:02:42Z</time>
</trkpt>
<trkpt lat="49.500366" lon="10.36555">
<ele>324.682</ele>
<time>2019-05-30T16:02:43Z</time>
</trkpt>
<trkpt lat="49.500313" lon="10.365624">
<ele>324.682</ele>
<time>2019-05-30T16:02:44Z</time>
</trkpt>
<trkpt lat="49.500263" lon="10.365702">
<ele>324.682</ele>
<time>2019-05-30T16:02:45Z</time>
</trkpt>
<trkpt lat="49.500214" lon="10.365779">
<ele>324.682</ele>
<time>2019-05-30T16:02:46Z</time>
</trkpt>
<trkpt lat="49.500168" lon="10.365855">
<ele>324.682</ele>
<time>2019-05-30T16:02:47Z</time>
</trkpt>
<trkpt lat="49.500118" lon="10.365932">
<ele>324.682</ele>
<time>2019-05-30T16:02:48Z</time>
</trkpt>
<trkpt lat="49.500076" lon="10.366008">
<ele>324.887</ele>
<time>2019-05-30T16:02:49Z</time>
</trkpt>
<trkpt lat="49.500027" lon="10.366087">
<ele>325.035</ele>
<time>2019-05-30T16:02:50Z</time>
</trkpt>
<trkpt lat="49.499981" lon="10.366167">
<ele>325.185</ele>
<time>2019-05-30T16:02:51Z</time>
</trkpt>
<trkpt lat="49.499939" lon="10.366248">
<ele>325.306</ele>
<time>2019-05-30T16:02:52Z</time>
</trkpt>
<trkpt lat="49.499889" lon="10.366332">
<ele>325.4</ele>
<time>2019-05-30T16:02:53Z</time>
</trkpt>
<trkpt lat="49.499851" lon="10.366416">
<ele>325.468</ele>
<time>2019-05-30T16:02:54Z</time>
</trkpt>
<trkpt lat="49.499805" lon="10.366504">
<ele>325.511</ele>
<time>2019-05-30T16:02:55Z</time>
</trkpt>
<trkpt lat="49.499763" lon="10.366594">
<ele>325.528</ele>
<time>2019-05-30T16:02:56Z</time>
</trkpt>
<trkpt lat="49.499725" lon="10.366687">
<ele>325.311</ele>
<time>2019-05-30T16:02:57Z</time>
</trkpt>
<trkpt lat="49.499687" lon="10.36678">
<ele>325.139</ele>
<time>2019-05-30T16:02:58Z</time>
</trkpt>
<trkpt lat="49.499649" lon="10.366873">
<ele>325.006</ele>
<time>2019-05-30T16:02:59Z</time>
</trkpt>
<trkpt lat="49.499607" lon="10.366967">
<ele>324.916</ele>
<time>2019-05-30T16:03:00Z</time>
</trkpt>
<trkpt lat="49.499565" lon="10.367064">
<ele>324.818</ele>
<time>2019-05-30T16:03:01Z</time>
</trkpt>
<trkpt lat="49.499531" lon="10.367162">
<ele>324.748</ele>
<time>2019-05-30T16:03:02Z</time>
</trkpt>
<trkpt lat="49.4995" lon="10.367258">
<ele>324.704</ele>
<time>2019-05-30T16:03:03Z</time>
</trkpt>
<trkpt lat="49.49947" lon="10.367356">
<ele>324.682</ele>
<time>2019-05-30T16:03:04Z</time>
</trkpt>
<trkpt lat="49.499439" lon="10.367457">
<ele>324.682</ele>
<time>2019-05-30T16:03:05Z</time>
</trkpt>
<trkpt lat="49.499409" lon="10.367563">
<ele>324.682</ele>
<time>2019-05-30T16:03:06Z</time>
</trkpt>
<trkpt lat="49.499378" lon="10.367667">
<ele>324.682</ele>
<time>2019-05-30T16:03:07Z</time>
</trkpt>
<trkpt lat="49.499348" lon="10.367771">
<ele>324.448</ele>
<time>2019-05-30T16:03:08Z</time>
</trkpt>
<trkpt lat="49.499321" lon="10.367878">
<ele>324.262</ele>
<time>2019-05-30T16:03:09Z</time>
</trkpt>
<trkpt lat="49.499298" lon="10.367987">
<ele>324.134</ele>
<time>2019-05-30T16:03:10Z</time>
</trkpt>
<trkpt lat="49.499275" lon="10.368093">
<ele>323.996</ele>
<time>2019-05-30T16:03:11Z</time>
</trkpt>
<trkpt lat="49.499256" lon="10.368201">
<ele>323.893</ele>
<time>2019-05-30T16:03:12Z</time>
</trkpt>
<trkpt lat="49.499233" lon="10.36831">
<ele>323.82</ele>
<time>2019-05-30T16:03:13Z</time>
</trkpt>
<trkpt lat="49.49921" lon="10.368417">
<ele>323.772</ele>
<time>2019-05-30T16:03:14Z</time>
</trkpt>
<trkpt lat="49.499187" lon="10.368524">
<ele>323.748</ele>
<time>2019-05-30T16:03:15Z</time>
</trkpt>
<trkpt lat="49.499165" lon="10.368627">
<ele>323.748</ele>
<time>2019-05-30T16:03:16Z</time>
</trkpt>
<trkpt lat="49.499142" lon="10.368731">
<ele>323.748</ele>
<time>2019-05-30T16:03:17Z</time>
</trkpt>
<trkpt lat="49.499126" lon="10.368836">
<ele>323.748</ele>
<time>2019-05-30T16:03:18Z</time>
</trkpt>
<trkpt lat="49.499107" lon="10.36894">
<ele>323.748</ele>
<time>2019-05-30T16:03:19Z</time>
</trkpt>
<trkpt lat="49.499088" lon="10.369043">
<ele>323.748</ele>
<time>2019-05-30T16:03:20Z</time>
</trkpt>
<trkpt lat="49.499069" lon="10.369146">
<ele>323.748</ele>
<time>2019-05-30T16:03:21Z</time>
</trkpt>
<trkpt lat="49.49905" lon="10.369248">
<ele>323.748</ele>
<time>2019-05-30T16:03:22Z</time>
</trkpt>
<trkpt lat="49.499031" lon="10.369351">
<ele>323.748</ele>
<time>2019-05-30T16:03:23Z</time>
</trkpt>
<trkpt lat="49.499012" lon="10.369455">
<ele>323.748</ele>
<time>2019-05-30T16:03:24Z</time>
</trkpt>
<trkpt lat="49.498993" lon="10.369556">
<ele>323.748</ele>
<time>2019-05-30T16:03:25Z</time>
</trkpt>
<trkpt lat="49.49897" lon="10.369658">
<ele>323.748</ele>
<time>2019-05-30T16:03:26Z</time>
</trkpt>
<trkpt lat="49.498955" lon="10.369761">
<ele>323.509</ele>
<time>2019-05-30T16:03:27Z</time>
</trkpt>
<trkpt lat="49.498932" lon="10.369864">
<ele>323.319</ele>
<time>2019-05-30T16:03:28Z</time>
</trkpt>
<trkpt lat="49.498913" lon="10.369968">
<ele>323.174</ele>
<time>2019-05-30T16:03:29Z</time>
</trkpt>
<trkpt lat="49.498894" lon="10.370071">
<ele>323.073</ele>
<time>2019-05-30T16:03:30Z</time>
</trkpt>
<trkpt lat="49.498871" lon="10.370174">
<ele>322.966</ele>
<time>2019-05-30T16:03:31Z</time>
</trkpt>
<trkpt lat="49.498852" lon="10.370277">
<ele>322.888</ele>
<time>2019-05-30T16:03:32Z</time>
</trkpt>
<trkpt lat="49.498837" lon="10.370376">
<ele>322.838</ele>
<time>2019-05-30T16:03:33Z</time>
</trkpt>
<trkpt lat="49.498814" lon="10.370472">
<ele>322.814</ele>
<time>2019-05-30T16:03:34Z</time>
</trkpt>
<trkpt lat="49.498798" lon="10.370566">
<ele>322.814</ele>
<time>2019-05-30T16:03:35Z</time>
</trkpt>
<trkpt lat="49.498779" lon="10.370663">
<ele>322.814</ele>
<time>2019-05-30T16:03:36Z</time>
</trkpt>
<trkpt lat="49.49876" lon="10.37076">
<ele>322.814</ele>
<time>2019-05-30T16:03:37Z</time>
</trkpt>
<trkpt lat="49.498741" lon="10.370865">
<ele>322.814</ele>
<time>2019-05-30T16:03:38Z</time>
</trkpt>
<trkpt lat="49.498718" lon="10.370967">
<ele>322.814</ele>
<time>2019-05-30T16:03:39Z</time>
</trkpt>
<trkpt lat="49.498699" lon="10.371065">
<ele>322.814</ele>
<time>2019-05-30T16:03:40Z</time>
</trkpt>
<trkpt lat="49.498676" lon="10.371165">
<ele>322.814</ele>
<time>2019-05-30T16:03:41Z</time>
</trkpt>
<trkpt lat="49.498657" lon="10.371264">
<ele>322.814</ele>
<time>2019-05-30T16:03:42Z</time>
</trkpt>
<trkpt lat="49.498642" lon="10.371368">
<ele>322.814</ele>
<time>2019-05-30T16:03:43Z</time>
</trkpt>
<trkpt lat="49.498623" lon="10.371469">
<ele>322.814</ele>
<time>2019-05-30T16:03:44Z</time>
</trkpt>
<trkpt lat="49.498604" lon="10.371573">
<ele>322.814</ele>
<time>2019-05-30T16:03:45Z</time>
</trkpt>
<trkpt lat="49.498585" lon="10.371673">
<ele>322.814</ele>
<time>2019-05-30T16:03:46Z</time>
</trkpt>
<trkpt lat="49.498566" lon="10.371774">
<ele>322.814</ele>
<time>2019-05-30T16:03:47Z</time>
</trkpt>
<trkpt lat="49.498547" lon="10.371877">
<ele>322.814</ele>
<time>2019-05-30T16:03:48Z</time>
</trkpt>
<trkpt lat="49.498528" lon="10.371981">
<ele>322.814</ele>
<time>2019-05-30T16:03:49Z</time>
</trkpt>
<trkpt lat="49.498505" lon="10.372084">
<ele>322.814</ele>
<time>2019-05-30T16:03:50Z</time>
</trkpt>
<trkpt lat="49.498482" lon="10.372186">
<ele>322.814</ele>
<time>2019-05-30T16:03:51Z</time>
</trkpt>
<trkpt lat="49.498463" lon="10.372285">
<ele>322.814</ele>
<time>2019-05-30T16:03:52Z</time>
</trkpt>
<trkpt lat="49.49844" lon="10.372385">
<ele>322.814</ele>
<time>2019-05-30T16:03:53Z</time>
</trkpt>
<trkpt lat="49.498417" lon="10.372488">
<ele>322.814</ele>
<time>2019-05-30T16:03:54Z</time>
</trkpt>
<trkpt lat="49.498398" lon="10.372588">
<ele>322.814</ele>
<time>2019-05-30T16:03:55Z</time>
</trkpt>
<trkpt lat="49.498375" lon="10.37269">
<ele>322.814</ele>
<time>2019-05-30T16:03:56Z</time>
</trkpt>
<trkpt lat="49.498352" lon="10.372791">
<ele>322.814</ele>
<time>2019-05-30T16:03:57Z</time>
</trkpt>
<trkpt lat="49.498333" lon="10.372894">
<ele>322.814</ele>
<time>2019-05-30T16:03:58Z</time>
</trkpt>
<trkpt lat="49.49831" lon="10.372996">
<ele>322.814</ele>
<time>2019-05-30T16:03:59Z</time>
</trkpt>
<trkpt lat="49.498283" lon="10.373098">
<ele>322.814</ele>
<time>2019-05-30T16:04:00Z</time>
</trkpt>
<trkpt lat="49.49826" lon="10.373199">
<ele>322.814</ele>
<time>2019-05-30T16:04:01Z</time>
</trkpt>
<trkpt lat="49.498234" lon="10.373297">
<ele>322.814</ele>
<time>2019-05-30T16:04:02Z</time>
</trkpt>
<trkpt lat="49.498211" lon="10.373393">
<ele>322.814</ele>
<time>2019-05-30T16:04:03Z</time>
</trkpt>
<trkpt lat="49.498184" lon="10.373491">
<ele>322.814</ele>
<time>2019-05-30T16:04:04Z</time>
</trkpt>
<trkpt lat="49.498158" lon="10.373585">
<ele>322.814</ele>
<time>2019-05-30T16:04:05Z</time>
</trkpt>
<trkpt lat="49.498131" lon="10.37368">
<ele>322.814</ele>
<time>2019-05-30T16:04:06Z</time>
</trkpt>
<trkpt lat="49.4981" lon="10.373776">
<ele>322.814</ele>
<time>2019-05-30T16:04:07Z</time>
</trkpt>
<trkpt lat="49.498074" lon="10.37387">
<ele>322.814</ele>
<time>2019-05-30T16:04:08Z</time>
</trkpt>
<trkpt lat="49.498047" lon="10.373965">
<ele>322.814</ele>
<time>2019-05-30T16:04:09Z</time>
</trkpt>
<trkpt lat="49.498016" lon="10.37406">
<ele>322.814</ele>
<time>2019-05-30T16:04:10Z</time>
</trkpt>
<trkpt lat="49.497986" lon="10.374155">
<ele>323.042</ele>
<time>2019-05-30T16:04:11Z</time>
</trkpt>
<trkpt lat="49.497955" lon="10.374253">
<ele>323.234</ele>
<time>2019-05-30T16:04:12Z</time>
</trkpt>
<trkpt lat="49.497925" lon="10.374345">
<ele>323.392</ele>
<time>2019-05-30T16:04:13Z</time>
</trkpt>
<trkpt lat="49.497894" lon="10.37444">
<ele>323.516</ele>
<time>2019-05-30T16:04:14Z</time>
</trkpt>
<trkpt lat="49.49786" lon="10.374537">
<ele>323.612</ele>
<time>2019-05-30T16:04:15Z</time>
</trkpt>
<trkpt lat="49.497829" lon="10.374631">
<ele>323.683</ele>
<time>2019-05-30T16:04:16Z</time>
</trkpt>
<trkpt lat="49.497795" lon="10.374728">
<ele>323.727</ele>
<time>2019-05-30T16:04:17Z</time>
</trkpt>
<trkpt lat="49.497765" lon="10.374824">
<ele>323.748</ele>
<time>2019-05-30T16:04:18Z</time>
</trkpt>
<trkpt lat="49.49773" lon="10.374918">
<ele>323.748</ele>
<time>2019-05-30T16:04:19Z</time>
</trkpt>
<trkpt lat="49.4977" lon="10.375011">
<ele>323.748</ele>
<time>2019-05-30T16:04:20Z</time>
</trkpt>
<trkpt lat="49.497669" lon="10.375107">
<ele>323.748</ele>
<time>2019-05-30T16:04:21Z</time>
</trkpt>
<trkpt lat="49.497639" lon="10.3752">
<ele>323.748</ele>
<time>2019-05-30T16:04:22Z</time>
</trkpt>
<trkpt lat="49.497608" lon="10.375295">
<ele>323.748</ele>
<time>2019-05-30T16:04:23Z</time>
</trkpt>
<trkpt lat="49.497578" lon="10.37539">
<ele>323.748</ele>
<time>2019-05-30T16:04:24Z</time>
</trkpt>
<trkpt lat="49.497551" lon="10.375485">
<ele>323.748</ele>
<time>2019-05-30T16:04:25Z</time>
</trkpt>
<trkpt lat="49.497517" lon="10.375582">
<ele>323.748</ele>
<time>2019-05-30T16:04:26Z</time>
</trkpt>
<trkpt lat="49.497486" lon="10.375678">
<ele>323.748</ele>
<time>2019-05-30T16:04:27Z</time>
</trkpt>
<trkpt lat="49.497452" lon="10.375775">
<ele>323.748</ele>
<time>2019-05-30T16:04:28Z</time>
</trkpt>
<trkpt lat="49.497421" lon="10.37587">
<ele>323.748</ele>
<time>2019-05-30T16:04:29Z</time>
</trkpt>
<trkpt lat="49.497391" lon="10.375963">
<ele>323.748</ele>
<time>2019-05-30T16:04:30Z</time>
</trkpt>
<trkpt lat="49.49736" lon="10.376057">
<ele>323.748</ele>
<time>2019-05-30T16:04:31Z</time>
</trkpt>
<trkpt lat="49.49733" lon="10.376148">
<ele>323.748</ele>
<time>2019-05-30T16:04:32Z</time>
</trkpt>
<trkpt lat="49.497299" lon="10.37624">
<ele>323.748</ele>
<time>2019-05-30T16:04:33Z</time>
</trkpt>
<trkpt lat="49.497269" lon="10.37633">
<ele>323.748</ele>
<time>2019-05-30T16:04:34Z</time>
</trkpt>
<trkpt lat="49.497238" lon="10.376418">
<ele>323.748</ele>
<time>2019-05-30T16:04:35Z</time>
</trkpt>
<trkpt lat="49.497208" lon="10.37651">
<ele>323.748</ele>
<time>2019-05-30T16:04:36Z</time>
</trkpt>
<trkpt lat="49.497177" lon="10.3766">
<ele>323.748</ele>
<time>2019-05-30T16:04:37Z</time>
</trkpt>
<trkpt lat="49.497154" lon="10.37669">
<ele>323.748</ele>
<time>2019-05-30T16:04:38Z</time>
</trkpt>
<trkpt lat="49.497128" lon="10.376781">
<ele>323.748</ele>
<time>2019-05-30T16:04:39Z</time>
</trkpt>
<trkpt lat="49.497101" lon="10.37687">
<ele>323.748</ele>
<time>2019-05-30T16:04:40Z</time>
</trkpt>
<trkpt lat="49.497078" lon="10.376963">
<ele>323.748</ele>
<time>2019-05-30T16:04:41Z</time>
</trkpt>
<trkpt lat="49.497051" lon="10.377055">
<ele>323.748</ele>
<time>2019-05-30T16:04:42Z</time>
</trkpt>
<trkpt lat="49.497028" lon="10.377149">
<ele>324.019</ele>
<time>2019-05-30T16:04:43Z</time>
</trkpt>
<trkpt lat="49.497005" lon="10.377241">
<ele>324.226</ele>
<time>2019-05-30T16:04:44Z</time>
</trkpt>
<trkpt lat="49.496986" lon="10.377337">
<ele>324.386</ele>
<time>2019-05-30T16:04:45Z</time>
</trkpt>
<trkpt lat="49.496967" lon="10.377432">
<ele>324.506</ele>
<time>2019-05-30T16:04:46Z</time>
</trkpt>
<trkpt lat="49.496948" lon="10.377524">
<ele>324.583</ele>
<time>2019-05-30T16:04:47Z</time>
</trkpt>
<trkpt lat="49.496937" lon="10.377623">
<ele>324.636</ele>
<time>2019-05-30T16:04:48Z</time>
</trkpt>
<trkpt lat="49.496918" lon="10.377726">
<ele>324.66</ele>
<time>2019-05-30T16:04:49Z</time>
</trkpt>
<trkpt lat="49.496902" lon="10.377831">
<ele>324.682</ele>
<time>2019-05-30T16:04:50Z</time>
</trkpt>
<trkpt lat="49.496887" lon="10.377938">
<ele>324.682</ele>
<time>2019-05-30T16:04:51Z</time>
</trkpt>
<trkpt lat="49.49688" lon="10.378046">
<ele>324.682</ele>
<time>2019-05-30T16:04:52Z</time>
</trkpt>
<trkpt lat="49.496864" lon="10.378157">
<ele>324.682</ele>
<time>2019-05-30T16:04:53Z</time>
</trkpt>
<trkpt lat="49.496857" lon="10.378263">
<ele>324.682</ele>
<time>2019-05-30T16:04:54Z</time>
</trkpt>
<trkpt lat="49.496853" lon="10.378373">
<ele>324.682</ele>
<time>2019-05-30T16:04:55Z</time>
</trkpt>
<trkpt lat="49.496849" lon="10.378484">
<ele>324.682</ele>
<time>2019-05-30T16:04:56Z</time>
</trkpt>
<trkpt lat="49.496849" lon="10.378591">
<ele>324.682</ele>
<time>2019-05-30T16:04:57Z</time>
</trkpt>
<trkpt lat="49.496853" lon="10.378697">
<ele>324.682</ele>
<time>2019-05-30T16:04:58Z</time>
</trkpt>
<trkpt lat="49.496861" lon="10.378803">
<ele>324.682</ele>
<time>2019-05-30T16:04:59Z</time>
</trkpt>
<trkpt lat="49.496864" lon="10.378909">
<ele>324.682</ele>
<time>2019-05-30T16:05:00Z</time>
</trkpt>
<trkpt lat="49.496872" lon="10.379018">
<ele>324.682</ele>
<time>2019-05-30T16:05:01Z</time>
</trkpt>
<trkpt lat="49.49688" lon="10.379128">
<ele>324.682</ele>
<time>2019-05-30T16:05:02Z</time>
</trkpt>
<trkpt lat="49.496883" lon="10.37924">
<ele>324.682</ele>
<time>2019-05-30T16:05:03Z</time>
</trkpt>
<trkpt lat="49.496887" lon="10.379352">
<ele>324.682</ele>
<time>2019-05-30T16:05:04Z</time>
</trkpt>
<trkpt lat="49.496895" lon="10.379465">
<ele>324.682</ele>
<time>2019-05-30T16:05:05Z</time>
</trkpt>
<trkpt lat="49.496899" lon="10.379578">
<ele>324.682</ele>
<time>2019-05-30T16:05:06Z</time>
</trkpt>
<trkpt lat="49.496906" lon="10.379693">
<ele>324.682</ele>
<time>2019-05-30T16:05:07Z</time>
</trkpt>
<trkpt lat="49.496914" lon="10.37981">
<ele>324.446</ele>
<time>2019-05-30T16:05:08Z</time>
</trkpt>
<trkpt lat="49.496918" lon="10.379925">
<ele>324.26</ele>
<time>2019-05-30T16:05:09Z</time>
</trkpt>
<trkpt lat="49.496925" lon="10.38004">
<ele>324.134</ele>
<time>2019-05-30T16:05:10Z</time>
</trkpt>
<trkpt lat="49.496933" lon="10.380156">
<ele>323.998</ele>
<time>2019-05-30T16:05:11Z</time>
</trkpt>
<trkpt lat="49.496941" lon="10.380268">
<ele>323.894</ele>
<time>2019-05-30T16:05:12Z</time>
</trkpt>
<trkpt lat="49.496948" lon="10.380382">
<ele>323.819</ele>
<time>2019-05-30T16:05:13Z</time>
</trkpt>
<trkpt lat="49.496948" lon="10.380495">
<ele>323.771</ele>
<time>2019-05-30T16:05:14Z</time>
</trkpt>
<trkpt lat="49.496956" lon="10.380607">
<ele>323.748</ele>
<time>2019-05-30T16:05:15Z</time>
</trkpt>
<trkpt lat="49.49696" lon="10.380719">
<ele>323.748</ele>
<time>2019-05-30T16:05:16Z</time>
</trkpt>
<trkpt lat="49.496967" lon="10.380828">
<ele>323.748</ele>
<time>2019-05-30T16:05:17Z</time>
</trkpt>
<trkpt lat="49.496975" lon="10.380937">
<ele>323.748</ele>
<time>2019-05-30T16:05:18Z</time>
</trkpt>
<trkpt lat="49.496983" lon="10.381042">
<ele>323.748</ele>
<time>2019-05-30T16:05:19Z</time>
</trkpt>
<trkpt lat="49.496986" lon="10.381146">
<ele>323.748</ele>
<time>2019-05-30T16:05:20Z</time>
</trkpt>
<trkpt lat="49.49699" lon="10.381249">
<ele>323.748</ele>
<time>2019-05-30T16:05:21Z</time>
</trkpt>
<trkpt lat="49.496998" lon="10.381353">
<ele>323.748</ele>
<time>2019-05-30T16:05:22Z</time>
</trkpt>
<trkpt lat="49.497002" lon="10.381454">
<ele>323.748</ele>
<time>2019-05-30T16:05:23Z</time>
</trkpt>
<trkpt lat="49.497009" lon="10.381558">
<ele>323.748</ele>
<time>2019-05-30T16:05:24Z</time>
</trkpt>
<trkpt lat="49.497013" lon="10.38166">
<ele>323.748</ele>
<time>2019-05-30T16:05:25Z</time>
</trkpt>
<trkpt lat="49.497013" lon="10.381761">
<ele>323.748</ele>
<time>2019-05-30T16:05:26Z</time>
</trkpt>
<trkpt lat="49.497021" lon="10.38186">
<ele>323.985</ele>
<time>2019-05-30T16:05:27Z</time>
</trkpt>
<trkpt lat="49.497025" lon="10.38196">
<ele>324.173</ele>
<time>2019-05-30T16:05:28Z</time>
</trkpt>
<trkpt lat="49.497028" lon="10.382058">
<ele>324.32</ele>
<time>2019-05-30T16:05:29Z</time>
</trkpt>
<trkpt lat="49.497036" lon="10.382156">
<ele>324.421</ele>
<time>2019-05-30T16:05:30Z</time>
</trkpt>
<trkpt lat="49.49704" lon="10.382257">
<ele>324.529</ele>
<time>2019-05-30T16:05:31Z</time>
</trkpt>
<trkpt lat="49.497047" lon="10.382354">
<ele>324.603</ele>
<time>2019-05-30T16:05:32Z</time>
</trkpt>
<trkpt lat="49.497047" lon="10.38245">
<ele>324.902</ele>
<time>2019-05-30T16:05:33Z</time>
</trkpt>
<trkpt lat="49.497055" lon="10.382548">
<ele>325.136</ele>
<time>2019-05-30T16:05:34Z</time>
</trkpt>
<trkpt lat="49.497059" lon="10.382643">
<ele>325.376</ele>
<time>2019-05-30T16:05:35Z</time>
</trkpt>
<trkpt lat="49.497066" lon="10.382741">
<ele>325.507</ele>
<time>2019-05-30T16:05:36Z</time>
</trkpt>
<trkpt lat="49.497074" lon="10.382838">
<ele>325.593</ele>
<time>2019-05-30T16:05:37Z</time>
</trkpt>
<trkpt lat="49.497078" lon="10.382936">
<ele>325.648</ele>
<time>2019-05-30T16:05:38Z</time>
</trkpt>
<trkpt lat="49.497086" lon="10.383034">
<ele>325.677</ele>
<time>2019-05-30T16:05:39Z</time>
</trkpt>
<trkpt lat="49.497089" lon="10.383131">
<ele>325.701</ele>
<time>2019-05-30T16:05:40Z</time>
</trkpt>
<trkpt lat="49.497101" lon="10.383228">
<ele>325.701</ele>
<time>2019-05-30T16:05:41Z</time>
</trkpt>
<trkpt lat="49.497108" lon="10.383327">
<ele>325.701</ele>
<time>2019-05-30T16:05:42Z</time>
</trkpt>
<trkpt lat="49.497112" lon="10.383425">
<ele>325.701</ele>
<time>2019-05-30T16:05:43Z</time>
</trkpt>
<trkpt lat="49.497124" lon="10.383522">
<ele>325.701</ele>
<time>2019-05-30T16:05:44Z</time>
</trkpt>
<trkpt lat="49.497131" lon="10.383618">
<ele>325.701</ele>
<time>2019-05-30T16:05:45Z</time>
</trkpt>
<trkpt lat="49.497143" lon="10.383715">
<ele>325.701</ele>
<time>2019-05-30T16:05:46Z</time>
</trkpt>
<trkpt lat="49.49715" lon="10.383812">
<ele>325.701</ele>
<time>2019-05-30T16:05:47Z</time>
</trkpt>
<trkpt lat="49.497158" lon="10.383908">
<ele>325.701</ele>
<time>2019-05-30T16:05:48Z</time>
</trkpt>
<trkpt lat="49.497166" lon="10.384004">
<ele>325.969</ele>
<time>2019-05-30T16:05:49Z</time>
</trkpt>
<trkpt lat="49.497173" lon="10.384098">
<ele>326.16</ele>
<time>2019-05-30T16:05:50Z</time>
</trkpt>
<trkpt lat="49.497181" lon="10.384195">
<ele>326.356</ele>
<time>2019-05-30T16:05:51Z</time>
</trkpt>
<trkpt lat="49.497192" lon="10.384292">
<ele>326.514</ele>
<time>2019-05-30T16:05:52Z</time>
</trkpt>
<trkpt lat="49.497204" lon="10.384388">
<ele>326.635</ele>
<time>2019-05-30T16:05:53Z</time>
</trkpt>
<trkpt lat="49.497215" lon="10.384484">
<ele>326.722</ele>
<time>2019-05-30T16:05:54Z</time>
</trkpt>
<trkpt lat="49.497227" lon="10.384583">
<ele>326.778</ele>
<time>2019-05-30T16:05:55Z</time>
</trkpt>
<trkpt lat="49.497238" lon="10.38468">
<ele>326.805</ele>
<time>2019-05-30T16:05:56Z</time>
</trkpt>
<trkpt lat="49.49725" lon="10.384778">
<ele>326.805</ele>
<time>2019-05-30T16:05:57Z</time>
</trkpt>
<trkpt lat="49.497261" lon="10.384878">
<ele>326.805</ele>
<time>2019-05-30T16:05:58Z</time>
</trkpt>
<trkpt lat="49.497272" lon="10.384978">
<ele>326.805</ele>
<time>2019-05-30T16:05:59Z</time>
</trkpt>
<trkpt lat="49.49728" lon="10.385079">
<ele>326.805</ele>
<time>2019-05-30T16:06:00Z</time>
</trkpt>
<trkpt lat="49.497288" lon="10.385178">
<ele>326.805</ele>
<time>2019-05-30T16:06:01Z</time>
</trkpt>
<trkpt lat="49.497295" lon="10.385275">
<ele>326.805</ele>
<time>2019-05-30T16:06:02Z</time>
</trkpt>
<trkpt lat="49.497303" lon="10.385372">
<ele>326.805</ele>
<time>2019-05-30T16:06:03Z</time>
</trkpt>
<trkpt lat="49.497311" lon="10.385468">
<ele>326.805</ele>
<time>2019-05-30T16:06:04Z</time>
</trkpt>
<trkpt lat="49.497318" lon="10.385567">
<ele>326.805</ele>
<time>2019-05-30T16:06:05Z</time>
</trkpt>
<trkpt lat="49.497326" lon="10.385663">
<ele>326.805</ele>
<time>2019-05-30T16:06:06Z</time>
</trkpt>
<trkpt lat="49.497334" lon="10.385764">
<ele>326.805</ele>
<time>2019-05-30T16:06:07Z</time>
</trkpt>
<trkpt lat="49.497341" lon="10.385863">
<ele>326.805</ele>
<time>2019-05-30T16:06:08Z</time>
</trkpt>
<trkpt lat="49.497345" lon="10.385963">
<ele>326.805</ele>
<time>2019-05-30T16:06:09Z</time>
</trkpt>
<trkpt lat="49.497353" lon="10.386064">
<ele>326.805</ele>
<time>2019-05-30T16:06:10Z</time>
</trkpt>
<trkpt lat="49.497356" lon="10.386165">
<ele>326.805</ele>
<time>2019-05-30T16:06:11Z</time>
</trkpt>
<trkpt lat="49.497364" lon="10.386263">
<ele>326.805</ele>
<time>2019-05-30T16:06:12Z</time>
</trkpt>
<trkpt lat="49.497368" lon="10.386363">
<ele>326.805</ele>
<time>2019-05-30T16:06:13Z</time>
</trkpt>
<trkpt lat="49.497372" lon="10.386462">
<ele>326.805</ele>
<time>2019-05-30T16:06:14Z</time>
</trkpt>
<trkpt lat="49.497379" lon="10.386562">
<ele>326.805</ele>
<time>2019-05-30T16:06:15Z</time>
</trkpt>
<trkpt lat="49.497387" lon="10.386659">
<ele>326.806</ele>
<time>2019-05-30T16:06:16Z</time>
</trkpt>
<trkpt lat="49.497395" lon="10.386755">
<ele>326.805</ele>
<time>2019-05-30T16:06:17Z</time>
</trkpt>
<trkpt lat="49.497402" lon="10.386851">
<ele>326.805</ele>
<time>2019-05-30T16:06:18Z</time>
</trkpt>
<trkpt lat="49.497406" lon="10.386947">
<ele>326.805</ele>
<time>2019-05-30T16:06:19Z</time>
</trkpt>
<trkpt lat="49.497406" lon="10.387047">
<ele>326.805</ele>
<time>2019-05-30T16:06:20Z</time>
</trkpt>
<trkpt lat="49.49741" lon="10.387145">
<ele>326.805</ele>
<time>2019-05-30T16:06:21Z</time>
</trkpt>
<trkpt lat="49.497414" lon="10.387245">
<ele>326.805</ele>
<time>2019-05-30T16:06:22Z</time>
</trkpt>
<trkpt lat="49.497417" lon="10.387343">
<ele>326.805</ele>
<time>2019-05-30T16:06:23Z</time>
</trkpt>
<trkpt lat="49.497417" lon="10.387443">
<ele>326.805</ele>
<time>2019-05-30T16:06:24Z</time>
</trkpt>
<trkpt lat="49.497417" lon="10.387545">
<ele>326.806</ele>
<time>2019-05-30T16:06:25Z</time>
</trkpt>
<trkpt lat="49.497417" lon="10.387647">
<ele>326.805</ele>
<time>2019-05-30T16:06:26Z</time>
</trkpt>
<trkpt lat="49.497417" lon="10.387749">
<ele>326.805</ele>
<time>2019-05-30T16:06:27Z</time>
</trkpt>
<trkpt lat="49.497417" lon="10.387851">
<ele>326.805</ele>
<time>2019-05-30T16:06:28Z</time>
</trkpt>
<trkpt lat="49.497417" lon="10.38795">
<ele>326.805</ele>
<time>2019-05-30T16:06:29Z</time>
</trkpt>
<trkpt lat="49.497414" lon="10.388048">
<ele>326.805</ele>
<time>2019-05-30T16:06:30Z</time>
</trkpt>
<trkpt lat="49.49741" lon="10.388148">
<ele>326.805</ele>
<time>2019-05-30T16:06:31Z</time>
</trkpt>
<trkpt lat="49.497406" lon="10.388245">
<ele>326.805</ele>
<time>2019-05-30T16:06:32Z</time>
</trkpt>
<trkpt lat="49.497402" lon="10.388342">
<ele>326.805</ele>
<time>2019-05-30T16:06:33Z</time>
</trkpt>
<trkpt lat="49.497398" lon="10.388435">
<ele>326.805</ele>
<time>2019-05-30T16:06:34Z</time>
</trkpt>
<trkpt lat="49.497391" lon="10.388528">
<ele>326.805</ele>
<time>2019-05-30T16:06:35Z</time>
</trkpt>
<trkpt lat="49.497383" lon="10.388621">
<ele>326.805</ele>
<time>2019-05-30T16:06:36Z</time>
</trkpt>
<trkpt lat="49.497372" lon="10.388714">
<ele>326.805</ele>
<time>2019-05-30T16:06:37Z</time>
</trkpt>
<trkpt lat="49.497368" lon="10.388804">
<ele>326.805</ele>
<time>2019-05-30T16:06:38Z</time>
</trkpt>
<trkpt lat="49.497353" lon="10.388897">
<ele>326.805</ele>
<time>2019-05-30T16:06:39Z</time>
</trkpt>
<trkpt lat="49.497341" lon="10.38899">
<ele>326.805</ele>
<time>2019-05-30T16:06:40Z</time>
</trkpt>
<trkpt lat="49.497322" lon="10.389085">
<ele>326.805</ele>
<time>2019-05-30T16:06:41Z</time>
</trkpt>
<trkpt lat="49.497307" lon="10.389178">
<ele>326.805</ele>
<time>2019-05-30T16:06:42Z</time>
</trkpt>
<trkpt lat="49.497288" lon="10.389274">
<ele>326.805</ele>
<time>2019-05-30T16:06:43Z</time>
</trkpt>
<trkpt lat="49.497269" lon="10.389366">
<ele>326.805</ele>
<time>2019-05-30T16:06:44Z</time>
</trkpt>
<trkpt lat="49.497246" lon="10.389458">
<ele>326.805</ele>
<time>2019-05-30T16:06:45Z</time>
</trkpt>
<trkpt lat="49.497227" lon="10.389552">
<ele>326.805</ele>
<time>2019-05-30T16:06:46Z</time>
</trkpt>
<trkpt lat="49.497204" lon="10.389645">
<ele>326.805</ele>
<time>2019-05-30T16:06:47Z</time>
</trkpt>
<trkpt lat="49.497177" lon="10.389738">
<ele>326.805</ele>
<time>2019-05-30T16:06:48Z</time>
</trkpt>
<trkpt lat="49.497147" lon="10.389833">
<ele>326.805</ele>
<time>2019-05-30T16:06:49Z</time>
</trkpt>
<trkpt lat="49.49712" lon="10.389927">
<ele>326.805</ele>
<time>2019-05-30T16:06:50Z</time>
</trkpt>
<trkpt lat="49.497089" lon="10.390019">
<ele>326.805</ele>
<time>2019-05-30T16:06:51Z</time>
</trkpt>
<trkpt lat="49.497059" lon="10.390114">
<ele>326.494</ele>
<time>2019-05-30T16:06:52Z</time>
</trkpt>
<trkpt lat="49.497025" lon="10.390205">
<ele>326.257</ele>
<time>2019-05-30T16:06:53Z</time>
</trkpt>
<trkpt lat="49.49699" lon="10.3903">
<ele>326.081</ele>
<time>2019-05-30T16:06:54Z</time>
</trkpt>
<trkpt lat="49.496952" lon="10.390392">
<ele>325.953</ele>
<time>2019-05-30T16:06:55Z</time>
</trkpt>
<trkpt lat="49.496918" lon="10.390485">
<ele>325.865</ele>
<time>2019-05-30T16:06:56Z</time>
</trkpt>
<trkpt lat="49.49688" lon="10.390574">
<ele>325.812</ele>
<time>2019-05-30T16:06:57Z</time>
</trkpt>
<trkpt lat="49.496841" lon="10.390663">
<ele>325.79</ele>
<time>2019-05-30T16:06:58Z</time>
</trkpt>
<trkpt lat="49.496799" lon="10.390753">
<ele>325.786</ele>
<time>2019-05-30T16:06:59Z</time>
</trkpt>
<trkpt lat="49.496754" lon="10.390841">
<ele>325.786</ele>
<time>2019-05-30T16:07:00Z</time>
</trkpt>
<trkpt lat="49.496712" lon="10.390926">
<ele>325.786</ele>
<time>2019-05-30T16:07:01Z</time>
</trkpt>
<trkpt lat="49.496666" lon="10.39101">
<ele>325.786</ele>
<time>2019-05-30T16:07:02Z</time>
</trkpt>
<trkpt lat="49.496624" lon="10.391096">
<ele>325.489</ele>
<time>2019-05-30T16:07:03Z</time>
</trkpt>
<trkpt lat="49.496578" lon="10.391178">
<ele>325.263</ele>
<time>2019-05-30T16:07:04Z</time>
</trkpt>
<trkpt lat="49.496529" lon="10.391257">
<ele>325.086</ele>
<time>2019-05-30T16:07:05Z</time>
</trkpt>
<trkpt lat="49.496483" lon="10.391334">
<ele>324.963</ele>
<time>2019-05-30T16:07:06Z</time>
</trkpt>
<trkpt lat="49.496429" lon="10.39141">
<ele>324.873</ele>
<time>2019-05-30T16:07:07Z</time>
</trkpt>
<trkpt lat="49.49638" lon="10.391481">
<ele>324.817</ele>
<time>2019-05-30T16:07:08Z</time>
</trkpt>
<trkpt lat="49.496326" lon="10.391553">
<ele>324.796</ele>
<time>2019-05-30T16:07:09Z</time>
</trkpt>
<trkpt lat="49.496265" lon="10.391623">
<ele>324.559</ele>
<time>2019-05-30T16:07:10Z</time>
</trkpt>
<trkpt lat="49.496212" lon="10.391691">
<ele>324.362</ele>
<time>2019-05-30T16:07:11Z</time>
</trkpt>
<trkpt lat="49.496155" lon="10.391762">
<ele>324.199</ele>
<time>2019-05-30T16:07:12Z</time>
</trkpt>
<trkpt lat="49.496098" lon="10.391828">
<ele>324.07</ele>
<time>2019-05-30T16:07:13Z</time>
</trkpt>
<trkpt lat="49.496037" lon="10.391892">
<ele>323.971</ele>
<time>2019-05-30T16:07:14Z</time>
</trkpt>
<trkpt lat="49.495975" lon="10.391952">
<ele>323.901</ele>
<time>2019-05-30T16:07:15Z</time>
</trkpt>
<trkpt lat="49.495914" lon="10.39201">
<ele>323.859</ele>
<time>2019-05-30T16:07:16Z</time>
</trkpt>
<trkpt lat="49.495853" lon="10.392064">
<ele>323.606</ele>
<time>2019-05-30T16:07:17Z</time>
</trkpt>
<trkpt lat="49.495789" lon="10.392113">
<ele>323.404</ele>
<time>2019-05-30T16:07:18Z</time>
</trkpt>
<trkpt lat="49.495728" lon="10.392165">
<ele>323.259</ele>
<time>2019-05-30T16:07:19Z</time>
</trkpt>
<trkpt lat="49.495667" lon="10.392217">
<ele>323.159</ele>
<time>2019-05-30T16:07:20Z</time>
</trkpt>
<trkpt lat="49.495605" lon="10.392263">
<ele>322.846</ele>
<time>2019-05-30T16:07:21Z</time>
</trkpt>
<trkpt lat="49.495541" lon="10.392305">
<ele>322.595</ele>
<time>2019-05-30T16:07:22Z</time>
</trkpt>
<trkpt lat="49.495476" lon="10.392345">
<ele>322.403</ele>
<time>2019-05-30T16:07:23Z</time>
</trkpt>
<trkpt lat="49.495415" lon="10.392383">
<ele>322.265</ele>
<time>2019-05-30T16:07:24Z</time>
</trkpt>
<trkpt lat="49.49535" lon="10.392422">
<ele>322.177</ele>
<time>2019-05-30T16:07:25Z</time>
</trkpt>
<trkpt lat="49.495285" lon="10.392455">
<ele>322.112</ele>
<time>2019-05-30T16:07:26Z</time>
</trkpt>
<trkpt lat="49.49522" lon="10.392487">
<ele>322.07</ele>
<time>2019-05-30T16:07:27Z</time>
</trkpt>
<trkpt lat="49.495159" lon="10.39252">
<ele>322.05</ele>
<time>2019-05-30T16:07:28Z</time>
</trkpt>
<trkpt lat="49.495098" lon="10.392552">
<ele>322.05</ele>
<time>2019-05-30T16:07:29Z</time>
</trkpt>
<trkpt lat="49.495041" lon="10.39258">
<ele>322.05</ele>
<time>2019-05-30T16:07:30Z</time>
</trkpt>
<trkpt lat="49.49498" lon="10.392609">
<ele>322.05</ele>
<time>2019-05-30T16:07:31Z</time>
</trkpt>
<trkpt lat="49.494919" lon="10.392636">
<ele>322.05</ele>
<time>2019-05-30T16:07:32Z</time>
</trkpt>
<trkpt lat="49.494862" lon="10.392665">
<ele>322.05</ele>
<time>2019-05-30T16:07:33Z</time>
</trkpt>
<trkpt lat="49.494797" lon="10.392694">
<ele>322.05</ele>
<time>2019-05-30T16:07:34Z</time>
</trkpt>
<trkpt lat="49.494736" lon="10.39272">
<ele>322.05</ele>
<time>2019-05-30T16:07:35Z</time>
</trkpt>
<trkpt lat="49.494678" lon="10.392747">
<ele>322.05</ele>
<time>2019-05-30T16:07:36Z</time>
</trkpt>
<trkpt lat="49.494625" lon="10.392772">
<ele>322.05</ele>
<time>2019-05-30T16:07:37Z</time>
</trkpt>
<trkpt lat="49.494564" lon="10.392796">
<ele>322.05</ele>
<time>2019-05-30T16:07:38Z</time>
</trkpt>
<trkpt lat="49.494507" lon="10.392818">
<ele>322.05</ele>
<time>2019-05-30T16:07:39Z</time>
</trkpt>
<trkpt lat="49.49445" lon="10.392841">
<ele>322.05</ele>
<time>2019-05-30T16:07:40Z</time>
</trkpt>
<trkpt lat="49.494396" lon="10.392862">
<ele>322.05</ele>
<time>2019-05-30T16:07:41Z</time>
</trkpt>
<trkpt lat="49.494339" lon="10.392877">
<ele>322.05</ele>
<time>2019-05-30T16:07:42Z</time>
</trkpt>
<trkpt lat="49.494293" lon="10.392887">
<ele>322.05</ele>
<time>2019-05-30T16:07:43Z</time>
</trkpt>
<trkpt lat="49.494244" lon="10.392887">
<ele>322.05</ele>
<time>2019-05-30T16:07:44Z</time>
</trkpt>
<trkpt lat="49.494194" lon="10.392875">
<ele>322.05</ele>
<time>2019-05-30T16:07:45Z</time>
</trkpt>
<trkpt lat="49.494144" lon="10.392857">
<ele>322.05</ele>
<time>2019-05-30T16:07:46Z</time>
</trkpt>
<trkpt lat="49.494099" lon="10.392839">
<ele>322.05</ele>
<time>2019-05-30T16:07:47Z</time>
</trkpt>
<trkpt lat="49.494049" lon="10.392838">
<ele>322.05</ele>
<time>2019-05-30T16:07:48Z</time>
</trkpt>
<trkpt lat="49.494011" lon="10.392859">
<ele>322.05</ele>
<time>2019-05-30T16:07:49Z</time>
</trkpt>
<trkpt lat="49.493973" lon="10.392892">
<ele>322.05</ele>
<time>2019-05-30T16:07:50Z</time>
</trkpt>
<trkpt lat="49.493946" lon="10.392938">
<ele>322.05</ele>
<time>2019-05-30T16:07:51Z</time>
</trkpt>
<trkpt lat="49.493927" lon="10.392995">
<ele>322.05</ele>
<time>2019-05-30T16:07:52Z</time>
</trkpt>
<trkpt lat="49.493919" lon="10.393057">
<ele>322.05</ele>
<time>2019-05-30T16:07:53Z</time>
</trkpt>
<trkpt lat="49.493923" lon="10.393116">
<ele>322.05</ele>
<time>2019-05-30T16:07:54Z</time>
</trkpt>
<trkpt lat="49.493938" lon="10.393168">
<ele>322.05</ele>
<time>2019-05-30T16:07:55Z</time>
</trkpt>
<trkpt lat="49.493958" lon="10.393215">
<ele>322.287</ele>
<time>2019-05-30T16:07:56Z</time>
</trkpt>
<trkpt lat="49.493988" lon="10.39326">
<ele>322.479</ele>
<time>2019-05-30T16:07:57Z</time>
</trkpt>
<trkpt lat="49.494022" lon="10.393307">
<ele>322.635</ele>
<time>2019-05-30T16:07:58Z</time>
</trkpt>
<trkpt lat="49.494045" lon="10.39336">
<ele>322.748</ele>
<time>2019-05-30T16:07:59Z</time>
</trkpt>
<trkpt lat="49.494072" lon="10.393417">
<ele>322.826</ele>
<time>2019-05-30T16:08:00Z</time>
</trkpt>
<trkpt lat="49.494091" lon="10.393476">
<ele>322.908</ele>
<time>2019-05-30T16:08:01Z</time>
</trkpt>
<trkpt lat="49.49411" lon="10.393537">
<ele>322.96</ele>
<time>2019-05-30T16:08:02Z</time>
</trkpt>
<trkpt lat="49.494129" lon="10.393597">
<ele>322.984</ele>
<time>2019-05-30T16:08:03Z</time>
</trkpt>
<trkpt lat="49.494144" lon="10.393657">
<ele>322.984</ele>
<time>2019-05-30T16:08:04Z</time>
</trkpt>
<trkpt lat="49.494164" lon="10.39372">
<ele>322.984</ele>
<time>2019-05-30T16:08:05Z</time>
</trkpt>
<trkpt lat="49.494179" lon="10.39378">
<ele>322.984</ele>
<time>2019-05-30T16:08:06Z</time>
</trkpt>
<trkpt lat="49.49419" lon="10.393843">
<ele>322.984</ele>
<time>2019-05-30T16:08:07Z</time>
</trkpt>
<trkpt lat="49.494205" lon="10.393907">
<ele>323.195</ele>
<time>2019-05-30T16:08:08Z</time>
</trkpt>
<trkpt lat="49.494217" lon="10.39397">
<ele>323.363</ele>
<time>2019-05-30T16:08:09Z</time>
</trkpt>
<trkpt lat="49.494232" lon="10.394033">
<ele>323.48</ele>
<time>2019-05-30T16:08:10Z</time>
</trkpt>
<trkpt lat="49.494244" lon="10.394096">
<ele>323.604</ele>
<time>2019-05-30T16:08:11Z</time>
</trkpt>
<trkpt lat="49.494259" lon="10.394156">
<ele>323.699</ele>
<time>2019-05-30T16:08:12Z</time>
</trkpt>
<trkpt lat="49.49427" lon="10.394217">
<ele>323.767</ele>
<time>2019-05-30T16:08:13Z</time>
</trkpt>
<trkpt lat="49.494278" lon="10.394277">
<ele>323.812</ele>
<time>2019-05-30T16:08:14Z</time>
</trkpt>
<trkpt lat="49.494289" lon="10.394338">
<ele>323.833</ele>
<time>2019-05-30T16:08:15Z</time>
</trkpt>
<trkpt lat="49.494301" lon="10.394399">
<ele>323.833</ele>
<time>2019-05-30T16:08:16Z</time>
</trkpt>
<trkpt lat="49.494308" lon="10.394457">
<ele>324.068</ele>
<time>2019-05-30T16:08:17Z</time>
</trkpt>
<trkpt lat="49.49432" lon="10.394517">
<ele>324.255</ele>
<time>2019-05-30T16:08:18Z</time>
</trkpt>
<trkpt lat="49.494331" lon="10.394574">
<ele>324.403</ele>
<time>2019-05-30T16:08:19Z</time>
</trkpt>
<trkpt lat="49.494339" lon="10.394633">
<ele>324.506</ele>
<time>2019-05-30T16:08:20Z</time>
</trkpt>
<trkpt lat="49.49435" lon="10.394693">
<ele>324.615</ele>
<time>2019-05-30T16:08:21Z</time>
</trkpt>
<trkpt lat="49.494358" lon="10.39475">
<ele>324.693</ele>
<time>2019-05-30T16:08:22Z</time>
</trkpt>
<trkpt lat="49.494366" lon="10.394809">
<ele>324.743</ele>
<time>2019-05-30T16:08:23Z</time>
</trkpt>
<trkpt lat="49.494373" lon="10.394865">
<ele>324.767</ele>
<time>2019-05-30T16:08:24Z</time>
</trkpt>
<trkpt lat="49.494373" lon="10.394923">
<ele>324.767</ele>
<time>2019-05-30T16:08:25Z</time>
</trkpt>
<trkpt lat="49.494381" lon="10.394982">
<ele>324.767</ele>
<time>2019-05-30T16:08:26Z</time>
</trkpt>
<trkpt lat="49.494385" lon="10.395041">
<ele>325.005</ele>
<time>2019-05-30T16:08:27Z</time>
</trkpt>
<trkpt lat="49.494389" lon="10.395103">
<ele>325.193</ele>
<time>2019-05-30T16:08:28Z</time>
</trkpt>
<trkpt lat="49.494396" lon="10.395164">
<ele>325.342</ele>
<time>2019-05-30T16:08:29Z</time>
</trkpt>
<trkpt lat="49.4944" lon="10.395224">
<ele>325.444</ele>
<time>2019-05-30T16:08:30Z</time>
</trkpt>
<trkpt lat="49.494404" lon="10.395284">
<ele>325.551</ele>
<time>2019-05-30T16:08:31Z</time>
</trkpt>
<trkpt lat="49.494404" lon="10.395343">
<ele>325.629</ele>
<time>2019-05-30T16:08:32Z</time>
</trkpt>
<trkpt lat="49.494408" lon="10.395404">
<ele>325.678</ele>
<time>2019-05-30T16:08:33Z</time>
</trkpt>
<trkpt lat="49.494404" lon="10.395463">
<ele>325.701</ele>
<time>2019-05-30T16:08:34Z</time>
</trkpt>
<trkpt lat="49.494408" lon="10.395523">
<ele>325.954</ele>
<time>2019-05-30T16:08:35Z</time>
</trkpt>
<trkpt lat="49.494408" lon="10.395585">
<ele>326.154</ele>
<time>2019-05-30T16:08:36Z</time>
</trkpt>
<trkpt lat="49.494411" lon="10.395649">
<ele>326.304</ele>
<time>2019-05-30T16:08:37Z</time>
</trkpt>
<trkpt lat="49.494415" lon="10.39571">
<ele>326.417</ele>
<time>2019-05-30T16:08:38Z</time>
</trkpt>
<trkpt lat="49.494415" lon="10.395772">
<ele>326.5</ele>
<time>2019-05-30T16:08:39Z</time>
</trkpt>
<trkpt lat="49.494415" lon="10.395833">
<ele>326.559</ele>
<time>2019-05-30T16:08:40Z</time>
</trkpt>
<trkpt lat="49.494419" lon="10.395895">
<ele>326.611</ele>
<time>2019-05-30T16:08:41Z</time>
</trkpt>
<trkpt lat="49.494419" lon="10.395955">
<ele>326.636</ele>
<time>2019-05-30T16:08:42Z</time>
</trkpt>
<trkpt lat="49.494423" lon="10.396017">
<ele>326.905</ele>
<time>2019-05-30T16:08:43Z</time>
</trkpt>
<trkpt lat="49.494427" lon="10.396076">
<ele>327.112</ele>
<time>2019-05-30T16:08:44Z</time>
</trkpt>
<trkpt lat="49.494427" lon="10.396137">
<ele>327.274</ele>
<time>2019-05-30T16:08:45Z</time>
</trkpt>
<trkpt lat="49.494427" lon="10.396198">
<ele>327.388</ele>
<time>2019-05-30T16:08:46Z</time>
</trkpt>
<trkpt lat="49.494431" lon="10.39626">
<ele>327.469</ele>
<time>2019-05-30T16:08:47Z</time>
</trkpt>
<trkpt lat="49.494431" lon="10.396321">
<ele>327.519</ele>
<time>2019-05-30T16:08:48Z</time>
</trkpt>
<trkpt lat="49.494434" lon="10.396383">
<ele>327.544</ele>
<time>2019-05-30T16:08:49Z</time>
</trkpt>
<trkpt lat="49.494438" lon="10.396447">
<ele>327.779</ele>
<time>2019-05-30T16:08:50Z</time>
</trkpt>
<trkpt lat="49.494438" lon="10.39651">
<ele>327.976</ele>
<time>2019-05-30T16:08:51Z</time>
</trkpt>
<trkpt lat="49.494442" lon="10.396571">
<ele>328.139</ele>
<time>2019-05-30T16:08:52Z</time>
</trkpt>
<trkpt lat="49.494442" lon="10.396636">
<ele>328.268</ele>
<time>2019-05-30T16:08:53Z</time>
</trkpt>
<trkpt lat="49.494446" lon="10.3967">
<ele>328.366</ele>
<time>2019-05-30T16:08:54Z</time>
</trkpt>
<trkpt lat="49.49445" lon="10.396764">
<ele>328.437</ele>
<time>2019-05-30T16:08:55Z</time>
</trkpt>
<trkpt lat="49.494457" lon="10.396827">
<ele>328.483</ele>
<time>2019-05-30T16:08:56Z</time>
</trkpt>
<trkpt lat="49.494465" lon="10.39689">
<ele>328.504</ele>
<time>2019-05-30T16:08:57Z</time>
</trkpt>
<trkpt lat="49.494469" lon="10.396955">
<ele>328.504</ele>
<time>2019-05-30T16:08:58Z</time>
</trkpt>
<trkpt lat="49.494473" lon="10.397018">
<ele>328.733</ele>
<time>2019-05-30T16:08:59Z</time>
</trkpt>
<trkpt lat="49.49448" lon="10.397079">
<ele>328.895</ele>
<time>2019-05-30T16:09:00Z</time>
</trkpt>
<trkpt lat="49.494492" lon="10.397141">
<ele>329.06</ele>
<time>2019-05-30T16:09:01Z</time>
</trkpt>
<trkpt lat="49.494499" lon="10.397207">
<ele>329.194</ele>
<time>2019-05-30T16:09:02Z</time>
</trkpt>
<trkpt lat="49.494507" lon="10.397272">
<ele>329.296</ele>
<time>2019-05-30T16:09:03Z</time>
</trkpt>
<trkpt lat="49.494514" lon="10.397337">
<ele>329.369</ele>
<time>2019-05-30T16:09:04Z</time>
</trkpt>
<trkpt lat="49.494526" lon="10.397403">
<ele>329.413</ele>
<time>2019-05-30T16:09:05Z</time>
</trkpt>
<trkpt lat="49.494537" lon="10.39747">
<ele>329.649</ele>
<time>2019-05-30T16:09:06Z</time>
</trkpt>
<trkpt lat="49.494549" lon="10.397536">
<ele>329.846</ele>
<time>2019-05-30T16:09:07Z</time>
</trkpt>
<trkpt lat="49.49456" lon="10.397603">
<ele>329.982</ele>
<time>2019-05-30T16:09:08Z</time>
</trkpt>
<trkpt lat="49.494572" lon="10.397669">
<ele>330.081</ele>
<time>2019-05-30T16:09:09Z</time>
</trkpt>
<trkpt lat="49.494587" lon="10.397729">
<ele>330.149</ele>
<time>2019-05-30T16:09:10Z</time>
</trkpt>
<trkpt lat="49.494602" lon="10.397788">
<ele>330.221</ele>
<time>2019-05-30T16:09:11Z</time>
</trkpt>
<trkpt lat="49.494614" lon="10.397848">
<ele>330.267</ele>
<time>2019-05-30T16:09:12Z</time>
</trkpt>
<trkpt lat="49.494633" lon="10.39791">
<ele>330.289</ele>
<time>2019-05-30T16:09:13Z</time>
</trkpt>
<trkpt lat="49.494648" lon="10.397972">
<ele>330.289</ele>
<time>2019-05-30T16:09:14Z</time>
</trkpt>
<trkpt lat="49.494667" lon="10.398031">
<ele>330.289</ele>
<time>2019-05-30T16:09:15Z</time>
</trkpt>
<trkpt lat="49.494682" lon="10.398093">
<ele>330.557</ele>
<time>2019-05-30T16:09:16Z</time>
</trkpt>
<trkpt lat="49.494701" lon="10.398157">
<ele>330.77</ele>
<time>2019-05-30T16:09:17Z</time>
</trkpt>
<trkpt lat="49.494724" lon="10.398218">
<ele>330.935</ele>
<time>2019-05-30T16:09:18Z</time>
</trkpt>
<trkpt lat="49.494743" lon="10.398278">
<ele>331.058</ele>
<time>2019-05-30T16:09:19Z</time>
</trkpt>
<trkpt lat="49.494766" lon="10.398336">
<ele>331.142</ele>
<time>2019-05-30T16:09:20Z</time>
</trkpt>
<trkpt lat="49.494793" lon="10.398394">
<ele>331.227</ele>
<time>2019-05-30T16:09:21Z</time>
</trkpt>
<trkpt lat="49.49482" lon="10.398452">
<ele>331.282</ele>
<time>2019-05-30T16:09:22Z</time>
</trkpt>
<trkpt lat="49.49485" lon="10.398511">
<ele>331.309</ele>
<time>2019-05-30T16:09:23Z</time>
</trkpt>
<trkpt lat="49.494877" lon="10.39857">
<ele>331.308</ele>
<time>2019-05-30T16:09:24Z</time>
</trkpt>
<trkpt lat="49.494904" lon="10.39863">
<ele>331.308</ele>
<time>2019-05-30T16:09:25Z</time>
</trkpt>
<trkpt lat="49.494934" lon="10.398691">
<ele>331.308</ele>
<time>2019-05-30T16:09:26Z</time>
</trkpt>
<trkpt lat="49.494965" lon="10.398753">
<ele>331.309</ele>
<time>2019-05-30T16:09:27Z</time>
</trkpt>
<trkpt lat="49.494999" lon="10.398813">
<ele>331.308</ele>
<time>2019-05-30T16:09:28Z</time>
</trkpt>
<trkpt lat="49.495037" lon="10.398875">
<ele>331.308</ele>
<time>2019-05-30T16:09:29Z</time>
</trkpt>
<trkpt lat="49.495075" lon="10.398936">
<ele>331.309</ele>
<time>2019-05-30T16:09:30Z</time>
</trkpt>
<trkpt lat="49.495117" lon="10.399">
<ele>331.309</ele>
<time>2019-05-30T16:09:31Z</time>
</trkpt>
<trkpt lat="49.495155" lon="10.399065">
<ele>331.044</ele>
<time>2019-05-30T16:09:32Z</time>
</trkpt>
<trkpt lat="49.495193" lon="10.399129">
<ele>330.846</ele>
<time>2019-05-30T16:09:33Z</time>
</trkpt>
<trkpt lat="49.495235" lon="10.399192">
<ele>330.698</ele>
<time>2019-05-30T16:09:34Z</time>
</trkpt>
<trkpt lat="49.495281" lon="10.399257">
<ele>330.596</ele>
<time>2019-05-30T16:09:35Z</time>
</trkpt>
<trkpt lat="49.495319" lon="10.399325">
<ele>330.525</ele>
<time>2019-05-30T16:09:36Z</time>
</trkpt>
<trkpt lat="49.495361" lon="10.399391">
<ele>330.482</ele>
<time>2019-05-30T16:09:37Z</time>
</trkpt>
<trkpt lat="49.495407" lon="10.399458">
<ele>330.462</ele>
<time>2019-05-30T16:09:38Z</time>
</trkpt>
<trkpt lat="49.495453" lon="10.399527">
<ele>330.458</ele>
<time>2019-05-30T16:09:39Z</time>
</trkpt>
<trkpt lat="49.495495" lon="10.399596">
<ele>330.458</ele>
<time>2019-05-30T16:09:40Z</time>
</trkpt>
<trkpt lat="49.495537" lon="10.39967">
<ele>330.458</ele>
<time>2019-05-30T16:09:41Z</time>
</trkpt>
<trkpt lat="49.495575" lon="10.399749">
<ele>330.174</ele>
<time>2019-05-30T16:09:42Z</time>
</trkpt>
<trkpt lat="49.495609" lon="10.399832">
<ele>329.958</ele>
<time>2019-05-30T16:09:43Z</time>
</trkpt>
<trkpt lat="49.495644" lon="10.399917">
<ele>329.795</ele>
<time>2019-05-30T16:09:44Z</time>
</trkpt>
<trkpt lat="49.495674" lon="10.400002">
<ele>329.678</ele>
<time>2019-05-30T16:09:45Z</time>
</trkpt>
<trkpt lat="49.495705" lon="10.400093">
<ele>329.597</ele>
<time>2019-05-30T16:09:46Z</time>
</trkpt>
<trkpt lat="49.495731" lon="10.400185">
<ele>329.551</ele>
<time>2019-05-30T16:09:47Z</time>
</trkpt>
<trkpt lat="49.495758" lon="10.400279">
<ele>329.527</ele>
<time>2019-05-30T16:09:48Z</time>
</trkpt>
<trkpt lat="49.495777" lon="10.400375">
<ele>329.524</ele>
<time>2019-05-30T16:09:49Z</time>
</trkpt>
<trkpt lat="49.495804" lon="10.400474">
<ele>329.524</ele>
<time>2019-05-30T16:09:50Z</time>
</trkpt>
<trkpt lat="49.495819" lon="10.400572">
<ele>329.295</ele>
<time>2019-05-30T16:09:51Z</time>
</trkpt>
<trkpt lat="49.495838" lon="10.400668">
<ele>329.104</ele>
<time>2019-05-30T16:09:52Z</time>
</trkpt>
<trkpt lat="49.49585" lon="10.400767">
<ele>328.947</ele>
<time>2019-05-30T16:09:53Z</time>
</trkpt>
<trkpt lat="49.495861" lon="10.400867">
<ele>328.822</ele>
<time>2019-05-30T16:09:54Z</time>
</trkpt>
<trkpt lat="49.495872" lon="10.400969">
<ele>328.726</ele>
<time>2019-05-30T16:09:55Z</time>
</trkpt>
<trkpt lat="49.49588" lon="10.401071">
<ele>328.656</ele>
<time>2019-05-30T16:09:56Z</time>
</trkpt>
<trkpt lat="49.495888" lon="10.401174">
<ele>328.611</ele>
<time>2019-05-30T16:09:57Z</time>
</trkpt>
<trkpt lat="49.495892" lon="10.401275">
<ele>328.59</ele>
<time>2019-05-30T16:09:58Z</time>
</trkpt>
<trkpt lat="49.495895" lon="10.401377">
<ele>328.59</ele>
<time>2019-05-30T16:09:59Z</time>
</trkpt>
<trkpt lat="49.495895" lon="10.401477">
<ele>328.59</ele>
<time>2019-05-30T16:10:00Z</time>
</trkpt>
<trkpt lat="49.495895" lon="10.401571">
<ele>328.59</ele>
<time>2019-05-30T16:10:01Z</time>
</trkpt>
<trkpt lat="49.495895" lon="10.401667">
<ele>328.589</ele>
<time>2019-05-30T16:10:02Z</time>
</trkpt>
<trkpt lat="49.495892" lon="10.401758">
<ele>328.59</ele>
<time>2019-05-30T16:10:03Z</time>
</trkpt>
<trkpt lat="49.495888" lon="10.401847">
<ele>328.59</ele>
<time>2019-05-30T16:10:04Z</time>
</trkpt>
<trkpt lat="49.495888" lon="10.401935">
<ele>328.59</ele>
<time>2019-05-30T16:10:05Z</time>
</trkpt>
<trkpt lat="49.495884" lon="10.402019">
<ele>328.59</ele>
<time>2019-05-30T16:10:06Z</time>
</trkpt>
<trkpt lat="49.495884" lon="10.4021">
<ele>328.589</ele>
<time>2019-05-30T16:10:07Z</time>
</trkpt>
<trkpt lat="49.495884" lon="10.40218">
<ele>328.59</ele>
<time>2019-05-30T16:10:08Z</time>
</trkpt>
<trkpt lat="49.495884" lon="10.402262">
<ele>328.589</ele>
<time>2019-05-30T16:10:09Z</time>
</trkpt>
<trkpt lat="49.49588" lon="10.40234">
<ele>328.59</ele>
<time>2019-05-30T16:10:10Z</time>
</trkpt>
<trkpt lat="49.495872" lon="10.402418">
<ele>328.83</ele>
<time>2019-05-30T16:10:11Z</time>
</trkpt>
<trkpt lat="49.495869" lon="10.402493">
<ele>329.036</ele>
<time>2019-05-30T16:10:12Z</time>
</trkpt>
<trkpt lat="49.495861" lon="10.402569">
<ele>329.208</ele>
<time>2019-05-30T16:10:13Z</time>
</trkpt>
<trkpt lat="49.495857" lon="10.40264">
<ele>329.348</ele>
<time>2019-05-30T16:10:14Z</time>
</trkpt>
<trkpt lat="49.495853" lon="10.402714">
<ele>329.456</ele>
<time>2019-05-30T16:10:15Z</time>
</trkpt>
<trkpt lat="49.49585" lon="10.402788">
<ele>329.534</ele>
<time>2019-05-30T16:10:16Z</time>
</trkpt>
<trkpt lat="49.49585" lon="10.402862">
<ele>329.584</ele>
<time>2019-05-30T16:10:17Z</time>
</trkpt>
<trkpt lat="49.495846" lon="10.402933">
<ele>329.609</ele>
<time>2019-05-30T16:10:18Z</time>
</trkpt>
<trkpt lat="49.495842" lon="10.403002">
<ele>329.609</ele>
<time>2019-05-30T16:10:19Z</time>
</trkpt>
<trkpt lat="49.495838" lon="10.403068">
<ele>329.609</ele>
<time>2019-05-30T16:10:20Z</time>
</trkpt>
<trkpt lat="49.495838" lon="10.403132">
<ele>329.609</ele>
<time>2019-05-30T16:10:21Z</time>
</trkpt>
<trkpt lat="49.495838" lon="10.403192">
<ele>329.609</ele>
<time>2019-05-30T16:10:22Z</time>
</trkpt>
<trkpt lat="49.495838" lon="10.403246">
<ele>329.609</ele>
<time>2019-05-30T16:10:23Z</time>
</trkpt>
<trkpt lat="49.495834" lon="10.403298">
<ele>329.609</ele>
<time>2019-05-30T16:10:24Z</time>
</trkpt>
<trkpt lat="49.495834" lon="10.403346">
<ele>329.609</ele>
<time>2019-05-30T16:10:25Z</time>
</trkpt>
<trkpt lat="49.495834" lon="10.403392">
<ele>329.609</ele>
<time>2019-05-30T16:10:26Z</time>
</trkpt>
<trkpt lat="49.495834" lon="10.403434">
<ele>329.609</ele>
<time>2019-05-30T16:10:27Z</time>
</trkpt>
<trkpt lat="49.495838" lon="10.40347">
<ele>329.609</ele>
<time>2019-05-30T16:10:28Z</time>
</trkpt>
<trkpt lat="49.495838" lon="10.403503">
<ele>329.609</ele>
<time>2019-05-30T16:10:29Z</time>
</trkpt>
<trkpt lat="49.495842" lon="10.403528">
<ele>329.609</ele>
<time>2019-05-30T16:10:30Z</time>
</trkpt>
<trkpt lat="49.49585" lon="10.40355">
<ele>329.609</ele>
<time>2019-05-30T16:10:31Z</time>
</trkpt>
<trkpt lat="49.495853" lon="10.403563">
<ele>329.609</ele>
<time>2019-05-30T16:10:32Z</time>
</trkpt>
<trkpt lat="49.495853" lon="10.403568">
<ele>329.824</ele>
<time>2019-05-30T16:10:33Z</time>
</trkpt>
<trkpt lat="49.495853" lon="10.403566">
<ele>330.005</ele>
<time>2019-05-30T16:10:34Z</time>
</trkpt>
<trkpt lat="49.495853" lon="10.403568">
<ele>330.154</ele>
<time>2019-05-30T16:10:35Z</time>
</trkpt>
<trkpt lat="49.495869" lon="10.403582">
<ele>330.284</ele>
<time>2019-05-30T16:10:38Z</time>
</trkpt>
<trkpt lat="49.495872" lon="10.403588">
<ele>330.372</ele>
<time>2019-05-30T16:10:39Z</time>
</trkpt>
<trkpt lat="49.495872" lon="10.403591">
<ele>330.462</ele>
<time>2019-05-30T16:10:40Z</time>
</trkpt>
<trkpt lat="49.495876" lon="10.403595">
<ele>330.498</ele>
<time>2019-05-30T16:10:41Z</time>
</trkpt>
<trkpt lat="49.495884" lon="10.403598">
<ele>330.544</ele>
<time>2019-05-30T16:10:42Z</time>
</trkpt>
<trkpt lat="49.495892" lon="10.403602">
<ele>330.544</ele>
<time>2019-05-30T16:10:43Z</time>
</trkpt>
<trkpt lat="49.495903" lon="10.403605">
<ele>330.544</ele>
<time>2019-05-30T16:10:44Z</time>
</trkpt>
<trkpt lat="49.495907" lon="10.403608">
<ele>330.543</ele>
<time>2019-05-30T16:10:45Z</time>
</trkpt>
<trkpt lat="49.495914" lon="10.403615">
<ele>330.544</ele>
<time>2019-05-30T16:10:46Z</time>
</trkpt>
<trkpt lat="49.495922" lon="10.403617">
<ele>330.544</ele>
<time>2019-05-30T16:10:47Z</time>
</trkpt>
<trkpt lat="49.495926" lon="10.403621">
<ele>330.544</ele>
<time>2019-05-30T16:10:48Z</time>
</trkpt>
<trkpt lat="49.495937" lon="10.403628">
<ele>330.543</ele>
<time>2019-05-30T16:10:49Z</time>
</trkpt>
<trkpt lat="49.495937" lon="10.403638">
<ele>330.544</ele>
<time>2019-05-30T16:10:50Z</time>
</trkpt>
<trkpt lat="49.495941" lon="10.40365">
<ele>330.543</ele>
<time>2019-05-30T16:10:51Z</time>
</trkpt>
<trkpt lat="49.495945" lon="10.403663">
<ele>330.544</ele>
<time>2019-05-30T16:10:52Z</time>
</trkpt>
<trkpt lat="49.495953" lon="10.403678">
<ele>330.544</ele>
<time>2019-05-30T16:10:53Z</time>
</trkpt>
<trkpt lat="49.495956" lon="10.403692">
<ele>330.544</ele>
<time>2019-05-30T16:10:54Z</time>
</trkpt>
<trkpt lat="49.49596" lon="10.403707">
<ele>330.543</ele>
<time>2019-05-30T16:10:55Z</time>
</trkpt>
<trkpt lat="49.495964" lon="10.403719">
<ele>330.543</ele>
<time>2019-05-30T16:10:56Z</time>
</trkpt>
<trkpt lat="49.495964" lon="10.403733">
<ele>330.543</ele>
<time>2019-05-30T16:10:57Z</time>
</trkpt>
<trkpt lat="49.495968" lon="10.403747">
<ele>330.543</ele>
<time>2019-05-30T16:10:58Z</time>
</trkpt>
<trkpt lat="49.495972" lon="10.40376">
<ele>330.544</ele>
<time>2019-05-30T16:10:59Z</time>
</trkpt>
<trkpt lat="49.495972" lon="10.403773">
<ele>330.544</ele>
<time>2019-05-30T16:11:00Z</time>
</trkpt>
<trkpt lat="49.495975" lon="10.403787">
<ele>330.543</ele>
<time>2019-05-30T16:11:01Z</time>
</trkpt>
<trkpt lat="49.495975" lon="10.403801">
<ele>330.543</ele>
<time>2019-05-30T16:11:02Z</time>
</trkpt>
<trkpt lat="49.495979" lon="10.403817">
<ele>330.544</ele>
<time>2019-05-30T16:11:03Z</time>
</trkpt>
<trkpt lat="49.495983" lon="10.403832">
<ele>330.544</ele>
<time>2019-05-30T16:11:04Z</time>
</trkpt>
<trkpt lat="49.495987" lon="10.403845">
<ele>330.544</ele>
<time>2019-05-30T16:11:05Z</time>
</trkpt>
<trkpt lat="49.495991" lon="10.403857">
<ele>330.544</ele>
<time>2019-05-30T16:11:06Z</time>
</trkpt>
<trkpt lat="49.495995" lon="10.403872">
<ele>330.544</ele>
<time>2019-05-30T16:11:07Z</time>
</trkpt>
<trkpt lat="49.495998" lon="10.403889">
<ele>330.544</ele>
<time>2019-05-30T16:11:08Z</time>
</trkpt>
<trkpt lat="49.496002" lon="10.403905">
<ele>330.544</ele>
<time>2019-05-30T16:11:09Z</time>
</trkpt>
<trkpt lat="49.49601" lon="10.403922">
<ele>330.544</ele>
<time>2019-05-30T16:11:10Z</time>
</trkpt>
<trkpt lat="49.496014" lon="10.403936">
<ele>330.543</ele>
<time>2019-05-30T16:11:11Z</time>
</trkpt>
<trkpt lat="49.496021" lon="10.403952">
<ele>330.544</ele>
<time>2019-05-30T16:11:12Z</time>
</trkpt>
<trkpt lat="49.496029" lon="10.403965">
<ele>330.544</ele>
<time>2019-05-30T16:11:13Z</time>
</trkpt>
<trkpt lat="49.496037" lon="10.403976">
<ele>330.544</ele>
<time>2019-05-30T16:11:14Z</time>
</trkpt>
<trkpt lat="49.49604" lon="10.40399">
<ele>330.544</ele>
<time>2019-05-30T16:11:15Z</time>
</trkpt>
<trkpt lat="49.496048" lon="10.404004">
<ele>330.543</ele>
<time>2019-05-30T16:11:16Z</time>
</trkpt>
<trkpt lat="49.496059" lon="10.404013">
<ele>330.544</ele>
<time>2019-05-30T16:11:17Z</time>
</trkpt>
<trkpt lat="49.496067" lon="10.404021">
<ele>330.543</ele>
<time>2019-05-30T16:11:18Z</time>
</trkpt>
<trkpt lat="49.496075" lon="10.404029">
<ele>330.543</ele>
<time>2019-05-30T16:11:19Z</time>
</trkpt>
<trkpt lat="49.496086" lon="10.404034">
<ele>330.544</ele>
<time>2019-05-30T16:11:20Z</time>
</trkpt>
<trkpt lat="49.496094" lon="10.404041">
<ele>330.544</ele>
<time>2019-05-30T16:11:21Z</time>
</trkpt>
<trkpt lat="49.496101" lon="10.40405">
<ele>330.543</ele>
<time>2019-05-30T16:11:22Z</time>
</trkpt>
<trkpt lat="49.496113" lon="10.404057">
<ele>330.544</ele>
<time>2019-05-30T16:11:23Z</time>
</trkpt>
<trkpt lat="49.496117" lon="10.404061">
<ele>330.544</ele>
<time>2019-05-30T16:11:24Z</time>
</trkpt>
<trkpt lat="49.496124" lon="10.404063">
<ele>330.544</ele>
<time>2019-05-30T16:11:25Z</time>
</trkpt>
<trkpt lat="49.496132" lon="10.40407">
<ele>330.543</ele>
<time>2019-05-30T16:11:26Z</time>
</trkpt>
<trkpt lat="49.49614" lon="10.404077">
<ele>330.543</ele>
<time>2019-05-30T16:11:27Z</time>
</trkpt>
<trkpt lat="49.496147" lon="10.404086">
<ele>330.544</ele>
<time>2019-05-30T16:11:28Z</time>
</trkpt>
<trkpt lat="49.496151" lon="10.404097">
<ele>330.544</ele>
<time>2019-05-30T16:11:29Z</time>
</trkpt>
<trkpt lat="49.496155" lon="10.404107">
<ele>330.544</ele>
<time>2019-05-30T16:11:30Z</time>
</trkpt>
<trkpt lat="49.496155" lon="10.404119">
<ele>330.544</ele>
<time>2019-05-30T16:11:31Z</time>
</trkpt>
<trkpt lat="49.496159" lon="10.404128">
<ele>330.544</ele>
<time>2019-05-30T16:11:32Z</time>
</trkpt>
<trkpt lat="49.496159" lon="10.404134">
<ele>330.544</ele>
<time>2019-05-30T16:11:33Z</time>
</trkpt>
<trkpt lat="49.496159" lon="10.40414">
<ele>330.543</ele>
<time>2019-05-30T16:11:34Z</time>
</trkpt>
<trkpt lat="49.496162" lon="10.404148">
<ele>330.544</ele>
<time>2019-05-30T16:11:35Z</time>
</trkpt>
<trkpt lat="49.496159" lon="10.404155">
<ele>330.544</ele>
<time>2019-05-30T16:11:36Z</time>
</trkpt>
<trkpt lat="49.496155" lon="10.404159">
<ele>330.543</ele>
<time>2019-05-30T16:11:37Z</time>
</trkpt>
<trkpt lat="49.496155" lon="10.404161">
<ele>330.544</ele>
<time>2019-05-30T16:11:38Z</time>
</trkpt>
<trkpt lat="49.496147" lon="10.404165">
<ele>330.543</ele>
<time>2019-05-30T16:11:39Z</time>
</trkpt>
<trkpt lat="49.496143" lon="10.404168">
<ele>330.544</ele>
<time>2019-05-30T16:11:40Z</time>
</trkpt>
<trkpt lat="49.496136" lon="10.40417">
<ele>330.543</ele>
<time>2019-05-30T16:11:41Z</time>
</trkpt>
<trkpt lat="49.496132" lon="10.404176">
<ele>330.543</ele>
<time>2019-05-30T16:11:42Z</time>
</trkpt>
<trkpt lat="49.496124" lon="10.404181">
<ele>330.544</ele>
<time>2019-05-30T16:11:43Z</time>
</trkpt>
<trkpt lat="49.496117" lon="10.404188">
<ele>330.544</ele>
<time>2019-05-30T16:11:44Z</time>
</trkpt>
<trkpt lat="49.496113" lon="10.404202">
<ele>330.544</ele>
<time>2019-05-30T16:11:45Z</time>
</trkpt>
<trkpt lat="49.496117" lon="10.404216">
<ele>330.544</ele>
<time>2019-05-30T16:11:46Z</time>
</trkpt>
<trkpt lat="49.496117" lon="10.40423">
<ele>330.544</ele>
<time>2019-05-30T16:11:47Z</time>
</trkpt>
<trkpt lat="49.49612" lon="10.404243">
<ele>330.543</ele>
<time>2019-05-30T16:11:48Z</time>
</trkpt>
<trkpt lat="49.49612" lon="10.404258">
<ele>330.544</ele>
<time>2019-05-30T16:11:49Z</time>
</trkpt>
<trkpt lat="49.496128" lon="10.404273">
<ele>330.544</ele>
<time>2019-05-30T16:11:50Z</time>
</trkpt>
<trkpt lat="49.496132" lon="10.404288">
<ele>330.543</ele>
<time>2019-05-30T16:11:51Z</time>
</trkpt>
<trkpt lat="49.496132" lon="10.404304">
<ele>330.543</ele>
<time>2019-05-30T16:11:52Z</time>
</trkpt>
<trkpt lat="49.496136" lon="10.40432">
<ele>330.544</ele>
<time>2019-05-30T16:11:53Z</time>
</trkpt>
<trkpt lat="49.496136" lon="10.404337">
<ele>330.544</ele>
<time>2019-05-30T16:11:54Z</time>
</trkpt>
<trkpt lat="49.49614" lon="10.404352">
<ele>330.543</ele>
<time>2019-05-30T16:11:55Z</time>
</trkpt>
<trkpt lat="49.49614" lon="10.404363">
<ele>330.544</ele>
<time>2019-05-30T16:11:56Z</time>
</trkpt>
<trkpt lat="49.49614" lon="10.404379">
<ele>330.543</ele>
<time>2019-05-30T16:11:57Z</time>
</trkpt>
<trkpt lat="49.496143" lon="10.404389">
<ele>330.544</ele>
<time>2019-05-30T16:11:58Z</time>
</trkpt>
<trkpt lat="49.496143" lon="10.404398">
<ele>330.544</ele>
<time>2019-05-30T16:11:59Z</time>
</trkpt>
<trkpt lat="49.496147" lon="10.404402">
<ele>330.544</ele>
<time>2019-05-30T16:12:00Z</time>
</trkpt>
<trkpt lat="49.496147" lon="10.404404">
<ele>330.544</ele>
<time>2019-05-30T16:12:01Z</time>
</trkpt>
<trkpt lat="49.496151" lon="10.404405">
<ele>330.544</ele>
<time>2019-05-30T16:12:02Z</time>
</trkpt>
<trkpt lat="49.496155" lon="10.404435">
<ele>330.544</ele>
<time>2019-05-30T16:12:17Z</time>
</trkpt>
<trkpt lat="49.496159" lon="10.404442">
<ele>330.782</ele>
<time>2019-05-30T16:12:18Z</time>
</trkpt>
<trkpt lat="49.496159" lon="10.404447">
<ele>330.968</ele>
<time>2019-05-30T16:12:19Z</time>
</trkpt>
<trkpt lat="49.496162" lon="10.404449">
<ele>331.131</ele>
<time>2019-05-30T16:12:20Z</time>
</trkpt>
<trkpt lat="49.496162" lon="10.40445">
<ele>331.284</ele>
<time>2019-05-30T16:12:21Z</time>
</trkpt>
<trkpt lat="49.496174" lon="10.404496">
<ele>331.333</ele>
<time>2019-05-30T16:12:51Z</time>
</trkpt>
<trkpt lat="49.496178" lon="10.404518">
<ele>331.362</ele>
<time>2019-05-30T16:12:52Z</time>
</trkpt>
<trkpt lat="49.496185" lon="10.404545">
<ele>331.373</ele>
<time>2019-05-30T16:12:53Z</time>
</trkpt>
<trkpt lat="49.496193" lon="10.404572">
<ele>331.394</ele>
<time>2019-05-30T16:12:54Z</time>
</trkpt>
<trkpt lat="49.496201" lon="10.404595">
<ele>331.394</ele>
<time>2019-05-30T16:12:55Z</time>
</trkpt>
<trkpt lat="49.496201" lon="10.404608">
<ele>331.394</ele>
<time>2019-05-30T16:12:56Z</time>
</trkpt>
<trkpt lat="49.496204" lon="10.404612">
<ele>331.394</ele>
<time>2019-05-30T16:12:57Z</time>
</trkpt>
<trkpt lat="49.496208" lon="10.404615">
<ele>331.394</ele>
<time>2019-05-30T16:12:58Z</time>
</trkpt>
<trkpt lat="49.49622" lon="10.404633">
<ele>331.394</ele>
<time>2019-05-30T16:13:02Z</time>
</trkpt>
<trkpt lat="49.496223" lon="10.404652">
<ele>331.394</ele>
<time>2019-05-30T16:13:03Z</time>
</trkpt>
<trkpt lat="49.496231" lon="10.404675">
<ele>331.394</ele>
<time>2019-05-30T16:13:04Z</time>
</trkpt>
<trkpt lat="49.496235" lon="10.404698">
<ele>331.393</ele>
<time>2019-05-30T16:13:05Z</time>
</trkpt>
<trkpt lat="49.496246" lon="10.404725">
<ele>331.394</ele>
<time>2019-05-30T16:13:06Z</time>
</trkpt>
<trkpt lat="49.496258" lon="10.404758">
<ele>331.393</ele>
<time>2019-05-30T16:13:07Z</time>
</trkpt>
<trkpt lat="49.496265" lon="10.404792">
<ele>331.394</ele>
<time>2019-05-30T16:13:08Z</time>
</trkpt>
<trkpt lat="49.496277" lon="10.404834">
<ele>331.394</ele>
<time>2019-05-30T16:13:09Z</time>
</trkpt>
<trkpt lat="49.496292" lon="10.404876">
<ele>331.394</ele>
<time>2019-05-30T16:13:10Z</time>
</trkpt>
<trkpt lat="49.496304" lon="10.40492">
<ele>331.394</ele>
<time>2019-05-30T16:13:11Z</time>
</trkpt>
<trkpt lat="49.496319" lon="10.404966">
<ele>331.394</ele>
<time>2019-05-30T16:13:12Z</time>
</trkpt>
<trkpt lat="49.49633" lon="10.405014">
<ele>331.394</ele>
<time>2019-05-30T16:13:13Z</time>
</trkpt>
<trkpt lat="49.496349" lon="10.40506">
<ele>331.394</ele>
<time>2019-05-30T16:13:14Z</time>
</trkpt>
<trkpt lat="49.496365" lon="10.405107">
<ele>331.393</ele>
<time>2019-05-30T16:13:15Z</time>
</trkpt>
<trkpt lat="49.49638" lon="10.405152">
<ele>331.394</ele>
<time>2019-05-30T16:13:16Z</time>
</trkpt>
<trkpt lat="49.496384" lon="10.405191">
<ele>331.394</ele>
<time>2019-05-30T16:13:17Z</time>
</trkpt>
<trkpt lat="49.49638" lon="10.405235">
<ele>331.394</ele>
<time>2019-05-30T16:13:18Z</time>
</trkpt>
<trkpt lat="49.496376" lon="10.405282">
<ele>331.394</ele>
<time>2019-05-30T16:13:19Z</time>
</trkpt>
<trkpt lat="49.496376" lon="10.405336">
<ele>331.394</ele>
<time>2019-05-30T16:13:20Z</time>
</trkpt>
<trkpt lat="49.496387" lon="10.405401">
<ele>331.394</ele>
<time>2019-05-30T16:13:21Z</time>
</trkpt>
<trkpt lat="49.496395" lon="10.405468">
<ele>331.394</ele>
<time>2019-05-30T16:13:22Z</time>
</trkpt>
<trkpt lat="49.49641" lon="10.405544">
<ele>331.394</ele>
<time>2019-05-30T16:13:23Z</time>
</trkpt>
<trkpt lat="49.496426" lon="10.405618">
<ele>331.394</ele>
<time>2019-05-30T16:13:24Z</time>
</trkpt>
<trkpt lat="49.496449" lon="10.405695">
<ele>331.394</ele>
<time>2019-05-30T16:13:25Z</time>
</trkpt>
<trkpt lat="49.496468" lon="10.405768">
<ele>331.394</ele>
<time>2019-05-30T16:13:26Z</time>
</trkpt>
<trkpt lat="49.49649" lon="10.405846">
<ele>331.394</ele>
<time>2019-05-30T16:13:27Z</time>
</trkpt>
<trkpt lat="49.49651" lon="10.405927">
<ele>331.394</ele>
<time>2019-05-30T16:13:28Z</time>
</trkpt>
<trkpt lat="49.496529" lon="10.40601">
<ele>331.394</ele>
<time>2019-05-30T16:13:29Z</time>
</trkpt>
<trkpt lat="49.496555" lon="10.406092">
<ele>331.394</ele>
<time>2019-05-30T16:13:30Z</time>
</trkpt>
<trkpt lat="49.496578" lon="10.406173">
<ele>331.394</ele>
<time>2019-05-30T16:13:31Z</time>
</trkpt>
<trkpt lat="49.496609" lon="10.406255">
<ele>331.394</ele>
<time>2019-05-30T16:13:32Z</time>
</trkpt>
<trkpt lat="49.496635" lon="10.406338">
<ele>331.394</ele>
<time>2019-05-30T16:13:33Z</time>
</trkpt>
<trkpt lat="49.496666" lon="10.40642">
<ele>331.394</ele>
<time>2019-05-30T16:13:34Z</time>
</trkpt>
<trkpt lat="49.496696" lon="10.406502">
<ele>331.17</ele>
<time>2019-05-30T16:13:35Z</time>
</trkpt>
<trkpt lat="49.496727" lon="10.406583">
<ele>330.998</ele>
<time>2019-05-30T16:13:36Z</time>
</trkpt>
<trkpt lat="49.496758" lon="10.406667">
<ele>330.866</ele>
<time>2019-05-30T16:13:37Z</time>
</trkpt>
<trkpt lat="49.496796" lon="10.406749">
<ele>330.776</ele>
<time>2019-05-30T16:13:38Z</time>
</trkpt>
<trkpt lat="49.49683" lon="10.406832">
<ele>330.679</ele>
<time>2019-05-30T16:13:39Z</time>
</trkpt>
<trkpt lat="49.496868" lon="10.406915">
<ele>330.61</ele>
<time>2019-05-30T16:13:40Z</time>
</trkpt>
<trkpt lat="49.496902" lon="10.407">
<ele>330.565</ele>
<time>2019-05-30T16:13:41Z</time>
</trkpt>
<trkpt lat="49.496941" lon="10.407085">
<ele>330.544</ele>
<time>2019-05-30T16:13:42Z</time>
</trkpt>
<trkpt lat="49.496975" lon="10.40717">
<ele>330.544</ele>
<time>2019-05-30T16:13:43Z</time>
</trkpt>
<trkpt lat="49.497013" lon="10.407255">
<ele>330.544</ele>
<time>2019-05-30T16:13:44Z</time>
</trkpt>
<trkpt lat="49.497051" lon="10.407338">
<ele>330.544</ele>
<time>2019-05-30T16:13:45Z</time>
</trkpt>
<trkpt lat="49.497089" lon="10.407417">
<ele>330.543</ele>
<time>2019-05-30T16:13:46Z</time>
</trkpt>
<trkpt lat="49.497131" lon="10.407496">
<ele>330.544</ele>
<time>2019-05-30T16:13:47Z</time>
</trkpt>
<trkpt lat="49.497169" lon="10.407577">
<ele>330.544</ele>
<time>2019-05-30T16:13:48Z</time>
</trkpt>
<trkpt lat="49.497211" lon="10.407656">
<ele>330.544</ele>
<time>2019-05-30T16:13:49Z</time>
</trkpt>
<trkpt lat="49.497253" lon="10.407731">
<ele>330.544</ele>
<time>2019-05-30T16:13:50Z</time>
</trkpt>
<trkpt lat="49.497295" lon="10.407806">
<ele>330.544</ele>
<time>2019-05-30T16:13:51Z</time>
</trkpt>
<trkpt lat="49.497341" lon="10.40788">
<ele>330.26</ele>
<time>2019-05-30T16:13:52Z</time>
</trkpt>
<trkpt lat="49.497379" lon="10.407955">
<ele>330.036</ele>
<time>2019-05-30T16:13:53Z</time>
</trkpt>
<trkpt lat="49.497425" lon="10.408029">
<ele>329.864</ele>
<time>2019-05-30T16:13:54Z</time>
</trkpt>
<trkpt lat="49.497463" lon="10.408098">
<ele>329.741</ele>
<time>2019-05-30T16:13:55Z</time>
</trkpt>
<trkpt lat="49.497505" lon="10.40817">
<ele>329.656</ele>
<time>2019-05-30T16:13:56Z</time>
</trkpt>
<trkpt lat="49.497555" lon="10.40824">
<ele>329.598</ele>
<time>2019-05-30T16:13:57Z</time>
</trkpt>
<trkpt lat="49.497601" lon="10.408308">
<ele>329.553</ele>
<time>2019-05-30T16:13:58Z</time>
</trkpt>
<trkpt lat="49.497643" lon="10.408381">
<ele>329.524</ele>
<time>2019-05-30T16:13:59Z</time>
</trkpt>
<trkpt lat="49.497684" lon="10.408457">
<ele>329.524</ele>
<time>2019-05-30T16:14:00Z</time>
</trkpt>
<trkpt lat="49.497726" lon="10.40853">
<ele>329.499</ele>
<time>2019-05-30T16:14:01Z</time>
</trkpt>
<trkpt lat="49.497768" lon="10.408595">
<ele>329.48</ele>
<time>2019-05-30T16:14:02Z</time>
</trkpt>
<trkpt lat="49.497818" lon="10.408662">
<ele>329.465</ele>
<time>2019-05-30T16:14:03Z</time>
</trkpt>
<trkpt lat="49.497864" lon="10.408731">
<ele>329.455</ele>
<time>2019-05-30T16:14:04Z</time>
</trkpt>
<trkpt lat="49.497913" lon="10.408802">
<ele>329.448</ele>
<time>2019-05-30T16:14:05Z</time>
</trkpt>
<trkpt lat="49.497959" lon="10.408872">
<ele>329.364</ele>
<time>2019-05-30T16:14:06Z</time>
</trkpt>
<trkpt lat="49.498005" lon="10.408942">
<ele>329.12</ele>
<time>2019-05-30T16:14:07Z</time>
</trkpt>
<trkpt lat="49.498055" lon="10.40901">
<ele>328.95</ele>
<time>2019-05-30T16:14:08Z</time>
</trkpt>
<trkpt lat="49.498093" lon="10.409079">
<ele>328.762</ele>
<time>2019-05-30T16:14:09Z</time>
</trkpt>
<trkpt lat="49.498138" lon="10.409145">
<ele>328.624</ele>
<time>2019-05-30T16:14:10Z</time>
</trkpt>
<trkpt lat="49.498188" lon="10.409212">
<ele>328.506</ele>
<time>2019-05-30T16:14:11Z</time>
</trkpt>
<trkpt lat="49.498234" lon="10.40928">
<ele>328.419</ele>
<time>2019-05-30T16:14:12Z</time>
</trkpt>
<trkpt lat="49.498283" lon="10.409348">
<ele>328.362</ele>
<time>2019-05-30T16:14:13Z</time>
</trkpt>
<trkpt lat="49.498329" lon="10.409415">
<ele>328.334</ele>
<time>2019-05-30T16:14:14Z</time>
</trkpt>
<trkpt lat="49.498379" lon="10.409481">
<ele>328.334</ele>
<time>2019-05-30T16:14:15Z</time>
</trkpt>
<trkpt lat="49.498421" lon="10.409552">
<ele>328.334</ele>
<time>2019-05-30T16:14:16Z</time>
</trkpt>
<trkpt lat="49.498466" lon="10.409623">
<ele>328.334</ele>
<time>2019-05-30T16:14:17Z</time>
</trkpt>
<trkpt lat="49.498512" lon="10.409692">
<ele>328.334</ele>
<time>2019-05-30T16:14:18Z</time>
</trkpt>
<trkpt lat="49.498562" lon="10.409759">
<ele>328.334</ele>
<time>2019-05-30T16:14:19Z</time>
</trkpt>
<trkpt lat="49.498615" lon="10.409823">
<ele>328.334</ele>
<time>2019-05-30T16:14:20Z</time>
</trkpt>
<trkpt lat="49.498669" lon="10.409887">
<ele>328.334</ele>
<time>2019-05-30T16:14:21Z</time>
</trkpt>
<trkpt lat="49.498714" lon="10.409952">
<ele>328.047</ele>
<time>2019-05-30T16:14:22Z</time>
</trkpt>
<trkpt lat="49.498764" lon="10.41002">
<ele>327.824</ele>
<time>2019-05-30T16:14:23Z</time>
</trkpt>
<trkpt lat="49.498814" lon="10.410089">
<ele>327.655</ele>
<time>2019-05-30T16:14:24Z</time>
</trkpt>
<trkpt lat="49.498863" lon="10.410157">
<ele>327.557</ele>
<time>2019-05-30T16:14:25Z</time>
</trkpt>
<trkpt lat="49.498909" lon="10.410223">
<ele>327.223</ele>
<time>2019-05-30T16:14:26Z</time>
</trkpt>
<trkpt lat="49.498962" lon="10.410294">
<ele>326.979</ele>
<time>2019-05-30T16:14:27Z</time>
</trkpt>
<trkpt lat="49.499012" lon="10.41036">
<ele>326.799</ele>
<time>2019-05-30T16:14:28Z</time>
</trkpt>
<trkpt lat="49.499065" lon="10.410428">
<ele>326.633</ele>
<time>2019-05-30T16:14:29Z</time>
</trkpt>
<trkpt lat="49.499111" lon="10.410501">
<ele>326.536</ele>
<time>2019-05-30T16:14:30Z</time>
</trkpt>
<trkpt lat="49.499165" lon="10.410575">
<ele>326.456</ele>
<time>2019-05-30T16:14:31Z</time>
</trkpt>
<trkpt lat="49.49921" lon="10.410648">
<ele>326.405</ele>
<time>2019-05-30T16:14:32Z</time>
</trkpt>
<trkpt lat="49.499256" lon="10.41072">
<ele>326.145</ele>
<time>2019-05-30T16:14:33Z</time>
</trkpt>
<trkpt lat="49.499298" lon="10.4108">
<ele>325.913</ele>
<time>2019-05-30T16:14:34Z</time>
</trkpt>
<trkpt lat="49.49934" lon="10.410882">
<ele>325.754</ele>
<time>2019-05-30T16:14:35Z</time>
</trkpt>
<trkpt lat="49.499378" lon="10.410967">
<ele>325.637</ele>
<time>2019-05-30T16:14:36Z</time>
</trkpt>
<trkpt lat="49.499416" lon="10.411057">
<ele>325.553</ele>
<time>2019-05-30T16:14:37Z</time>
</trkpt>
<trkpt lat="49.499451" lon="10.411153">
<ele>325.504</ele>
<time>2019-05-30T16:14:38Z</time>
</trkpt>
<trkpt lat="49.499481" lon="10.411253">
<ele>325.419</ele>
<time>2019-05-30T16:14:39Z</time>
</trkpt>
<trkpt lat="49.499512" lon="10.41136">
<ele>325.389</ele>
<time>2019-05-30T16:14:40Z</time>
</trkpt>
<trkpt lat="49.499531" lon="10.411475">
<ele>325.362</ele>
<time>2019-05-30T16:14:41Z</time>
</trkpt>
<trkpt lat="49.499561" lon="10.411593">
<ele>325.362</ele>
<time>2019-05-30T16:14:42Z</time>
</trkpt>
<trkpt lat="49.499588" lon="10.41172">
<ele>325.362</ele>
<time>2019-05-30T16:14:43Z</time>
</trkpt>
<trkpt lat="49.499622" lon="10.411848">
<ele>325.362</ele>
<time>2019-05-30T16:14:44Z</time>
</trkpt>
<trkpt lat="49.499657" lon="10.411977">
<ele>325.362</ele>
<time>2019-05-30T16:14:45Z</time>
</trkpt>
<trkpt lat="49.499695" lon="10.412098">
<ele>325.362</ele>
<time>2019-05-30T16:14:46Z</time>
</trkpt>
<trkpt lat="49.499737" lon="10.412213">
<ele>325.362</ele>
<time>2019-05-30T16:14:47Z</time>
</trkpt>
<trkpt lat="49.499771" lon="10.412317">
<ele>325.362</ele>
<time>2019-05-30T16:14:48Z</time>
</trkpt>
<trkpt lat="49.499805" lon="10.41241">
<ele>325.362</ele>
<time>2019-05-30T16:14:49Z</time>
</trkpt>
<trkpt lat="49.49984" lon="10.412498">
<ele>325.362</ele>
<time>2019-05-30T16:14:50Z</time>
</trkpt>
<trkpt lat="49.499874" lon="10.412581">
<ele>325.362</ele>
<time>2019-05-30T16:14:51Z</time>
</trkpt>
<trkpt lat="49.499905" lon="10.412648">
<ele>325.362</ele>
<time>2019-05-30T16:14:52Z</time>
</trkpt>
<trkpt lat="49.49992" lon="10.412699">
<ele>325.362</ele>
<time>2019-05-30T16:14:53Z</time>
</trkpt>
<trkpt lat="49.499939" lon="10.412737">
<ele>325.362</ele>
<time>2019-05-30T16:14:54Z</time>
</trkpt>
<trkpt lat="49.49995" lon="10.412777">
<ele>325.362</ele>
<time>2019-05-30T16:14:55Z</time>
</trkpt>
<trkpt lat="49.499969" lon="10.412818">
<ele>325.362</ele>
<time>2019-05-30T16:14:56Z</time>
</trkpt>
<trkpt lat="49.499985" lon="10.41286">
<ele>325.362</ele>
<time>2019-05-30T16:14:57Z</time>
</trkpt>
<trkpt lat="49.500004" lon="10.4129">
<ele>325.362</ele>
<time>2019-05-30T16:14:58Z</time>
</trkpt>
<trkpt lat="49.500019" lon="10.412945">
<ele>325.362</ele>
<time>2019-05-30T16:14:59Z</time>
</trkpt>
<trkpt lat="49.500038" lon="10.412993">
<ele>325.362</ele>
<time>2019-05-30T16:15:00Z</time>
</trkpt>
<trkpt lat="49.500057" lon="10.413043">
<ele>325.362</ele>
<time>2019-05-30T16:15:01Z</time>
</trkpt>
<trkpt lat="49.500072" lon="10.413091">
<ele>325.362</ele>
<time>2019-05-30T16:15:02Z</time>
</trkpt>
<trkpt lat="49.50008" lon="10.413122">
<ele>325.362</ele>
<time>2019-05-30T16:15:03Z</time>
</trkpt>
<trkpt lat="49.500092" lon="10.413147">
<ele>325.105</ele>
<time>2019-05-30T16:15:04Z</time>
</trkpt>
<trkpt lat="49.500107" lon="10.413165">
<ele>325.098</ele>
<time>2019-05-30T16:15:05Z</time>
</trkpt>
<trkpt lat="49.500114" lon="10.413183">
<ele>325.16</ele>
<time>2019-05-30T16:15:06Z</time>
</trkpt>
<trkpt lat="49.500126" lon="10.413206">
<ele>325.213</ele>
<time>2019-05-30T16:15:07Z</time>
</trkpt>
<trkpt lat="49.500141" lon="10.413231">
<ele>325.067</ele>
<time>2019-05-30T16:15:08Z</time>
</trkpt>
<trkpt lat="49.500149" lon="10.413257">
<ele>324.943</ele>
<time>2019-05-30T16:15:09Z</time>
</trkpt>
<trkpt lat="49.500164" lon="10.413285">
<ele>324.841</ele>
<time>2019-05-30T16:15:10Z</time>
</trkpt>
<trkpt lat="49.500179" lon="10.413321">
<ele>324.77</ele>
<time>2019-05-30T16:15:11Z</time>
</trkpt>
<trkpt lat="49.500202" lon="10.413367">
<ele>324.717</ele>
<time>2019-05-30T16:15:12Z</time>
</trkpt>
<trkpt lat="49.500214" lon="10.413413">
<ele>324.678</ele>
<time>2019-05-30T16:15:13Z</time>
</trkpt>
<trkpt lat="49.500225" lon="10.41346">
<ele>324.642</ele>
<time>2019-05-30T16:15:14Z</time>
</trkpt>
<trkpt lat="49.500237" lon="10.413507">
<ele>324.612</ele>
<time>2019-05-30T16:15:15Z</time>
</trkpt>
<trkpt lat="49.500248" lon="10.413555">
<ele>324.597</ele>
<time>2019-05-30T16:15:16Z</time>
</trkpt>
<trkpt lat="49.500263" lon="10.4136">
<ele>324.597</ele>
<time>2019-05-30T16:15:17Z</time>
</trkpt>
<trkpt lat="49.500275" lon="10.41364">
<ele>324.597</ele>
<time>2019-05-30T16:15:18Z</time>
</trkpt>
<trkpt lat="49.500286" lon="10.41368">
<ele>324.597</ele>
<time>2019-05-30T16:15:19Z</time>
</trkpt>
<trkpt lat="49.500294" lon="10.413718">
<ele>324.597</ele>
<time>2019-05-30T16:15:20Z</time>
</trkpt>
<trkpt lat="49.500305" lon="10.413756">
<ele>324.597</ele>
<time>2019-05-30T16:15:21Z</time>
</trkpt>
<trkpt lat="49.500317" lon="10.413798">
<ele>324.346</ele>
<time>2019-05-30T16:15:22Z</time>
</trkpt>
<trkpt lat="49.500328" lon="10.413845">
<ele>324.145</ele>
<time>2019-05-30T16:15:23Z</time>
</trkpt>
<trkpt lat="49.500343" lon="10.413889">
<ele>323.983</ele>
<time>2019-05-30T16:15:24Z</time>
</trkpt>
<trkpt lat="49.500362" lon="10.413939">
<ele>323.866</ele>
<time>2019-05-30T16:15:25Z</time>
</trkpt>
<trkpt lat="49.500374" lon="10.413997">
<ele>323.781</ele>
<time>2019-05-30T16:15:26Z</time>
</trkpt>
<trkpt lat="49.500389" lon="10.41405">
<ele>323.725</ele>
<time>2019-05-30T16:15:27Z</time>
</trkpt>
<trkpt lat="49.500408" lon="10.414108">
<ele>323.686</ele>
<time>2019-05-30T16:15:28Z</time>
</trkpt>
<trkpt lat="49.500431" lon="10.414173">
<ele>323.663</ele>
<time>2019-05-30T16:15:29Z</time>
</trkpt>
<trkpt lat="49.50045" lon="10.414233">
<ele>323.579</ele>
<time>2019-05-30T16:15:30Z</time>
</trkpt>
<trkpt lat="49.500473" lon="10.414293">
<ele>323.494</ele>
<time>2019-05-30T16:15:31Z</time>
</trkpt>
<trkpt lat="49.500496" lon="10.414351">
<ele>323.434</ele>
<time>2019-05-30T16:15:32Z</time>
</trkpt>
<trkpt lat="49.500515" lon="10.414411">
<ele>323.392</ele>
<time>2019-05-30T16:15:33Z</time>
</trkpt>
<trkpt lat="49.500526" lon="10.41447">
<ele>323.359</ele>
<time>2019-05-30T16:15:34Z</time>
</trkpt>
<trkpt lat="49.500538" lon="10.41453">
<ele>323.341</ele>
<time>2019-05-30T16:15:35Z</time>
</trkpt>
<trkpt lat="49.500553" lon="10.41459">
<ele>323.332</ele>
<time>2019-05-30T16:15:36Z</time>
</trkpt>
<trkpt lat="49.500565" lon="10.414652">
<ele>323.345</ele>
<time>2019-05-30T16:15:37Z</time>
</trkpt>
<trkpt lat="49.500572" lon="10.414712">
<ele>323.345</ele>
<time>2019-05-30T16:15:38Z</time>
</trkpt>
<trkpt lat="49.500587" lon="10.41477">
<ele>323.423</ele>
<time>2019-05-30T16:15:39Z</time>
</trkpt>
<trkpt lat="49.500599" lon="10.414827">
<ele>323.487</ele>
<time>2019-05-30T16:15:40Z</time>
</trkpt>
<trkpt lat="49.500614" lon="10.414882">
<ele>323.542</ele>
<time>2019-05-30T16:15:41Z</time>
</trkpt>
<trkpt lat="49.500629" lon="10.41493">
<ele>323.586</ele>
<time>2019-05-30T16:15:42Z</time>
</trkpt>
<trkpt lat="49.500637" lon="10.414968">
<ele>323.607</ele>
<time>2019-05-30T16:15:43Z</time>
</trkpt>
<trkpt lat="49.500652" lon="10.415006">
<ele>323.553</ele>
<time>2019-05-30T16:15:44Z</time>
</trkpt>
<trkpt lat="49.500664" lon="10.41504">
<ele>323.505</ele>
<time>2019-05-30T16:15:45Z</time>
</trkpt>
<trkpt lat="49.500687" lon="10.415071">
<ele>323.46</ele>
<time>2019-05-30T16:15:46Z</time>
</trkpt>
<trkpt lat="49.50071" lon="10.415092">
<ele>323.419</ele>
<time>2019-05-30T16:15:47Z</time>
</trkpt>
<trkpt lat="49.500729" lon="10.415104">
<ele>323.382</ele>
<time>2019-05-30T16:15:48Z</time>
</trkpt>
<trkpt lat="49.500755" lon="10.415104">
<ele>323.353</ele>
<time>2019-05-30T16:15:49Z</time>
</trkpt>
<trkpt lat="49.500778" lon="10.415097">
<ele>323.283</ele>
<time>2019-05-30T16:15:50Z</time>
</trkpt>
<trkpt lat="49.500801" lon="10.415085">
<ele>323.099</ele>
<time>2019-05-30T16:15:51Z</time>
</trkpt>
<trkpt lat="49.500828" lon="10.415073">
<ele>322.89</ele>
<time>2019-05-30T16:15:52Z</time>
</trkpt>
<trkpt lat="49.500851" lon="10.41505">
<ele>322.753</ele>
<time>2019-05-30T16:15:53Z</time>
</trkpt>
<trkpt lat="49.500874" lon="10.415024">
<ele>322.645</ele>
<time>2019-05-30T16:15:54Z</time>
</trkpt>
<trkpt lat="49.500893" lon="10.414993">
<ele>322.566</ele>
<time>2019-05-30T16:15:55Z</time>
</trkpt>
<trkpt lat="49.500919" lon="10.414971">
<ele>322.519</ele>
<time>2019-05-30T16:15:56Z</time>
</trkpt>
<trkpt lat="49.500946" lon="10.414947">
<ele>322.492</ele>
<time>2019-05-30T16:15:57Z</time>
</trkpt>
<trkpt lat="49.500969" lon="10.414897">
<ele>322.474</ele>
<time>2019-05-30T16:15:58Z</time>
</trkpt>
<trkpt lat="49.500992" lon="10.414862">
<ele>322.474</ele>
<time>2019-05-30T16:15:59Z</time>
</trkpt>
<trkpt lat="49.501022" lon="10.414831">
<ele>322.474</ele>
<time>2019-05-30T16:16:00Z</time>
</trkpt>
<trkpt lat="49.501057" lon="10.414806">
<ele>322.474</ele>
<time>2019-05-30T16:16:01Z</time>
</trkpt>
<trkpt lat="49.501087" lon="10.414777">
<ele>322.474</ele>
<time>2019-05-30T16:16:02Z</time>
</trkpt>
<trkpt lat="49.501122" lon="10.41474">
<ele>322.474</ele>
<time>2019-05-30T16:16:03Z</time>
</trkpt>
<trkpt lat="49.501148" lon="10.414705">
<ele>322.474</ele>
<time>2019-05-30T16:16:04Z</time>
</trkpt>
<trkpt lat="49.501175" lon="10.414675">
<ele>322.212</ele>
<time>2019-05-30T16:16:05Z</time>
</trkpt>
<trkpt lat="49.501198" lon="10.414649">
<ele>322.014</ele>
<time>2019-05-30T16:16:06Z</time>
</trkpt>
<trkpt lat="49.501225" lon="10.414628">
<ele>321.852</ele>
<time>2019-05-30T16:16:07Z</time>
</trkpt>
<trkpt lat="49.501251" lon="10.414603">
<ele>321.744</ele>
<time>2019-05-30T16:16:08Z</time>
</trkpt>
<trkpt lat="49.501278" lon="10.41458">
<ele>321.628</ele>
<time>2019-05-30T16:16:09Z</time>
</trkpt>
<trkpt lat="49.501305" lon="10.414555">
<ele>321.544</ele>
<time>2019-05-30T16:16:10Z</time>
</trkpt>
<trkpt lat="49.501331" lon="10.41453">
<ele>321.485</ele>
<time>2019-05-30T16:16:11Z</time>
</trkpt>
<trkpt lat="49.501343" lon="10.414477">
<ele>321.456</ele>
<time>2019-05-30T16:16:12Z</time>
</trkpt>
<trkpt lat="49.501366" lon="10.414447">
<ele>321.456</ele>
<time>2019-05-30T16:16:13Z</time>
</trkpt>
<trkpt lat="49.501389" lon="10.414425">
<ele>321.456</ele>
<time>2019-05-30T16:16:14Z</time>
</trkpt>
<trkpt lat="49.501408" lon="10.414404">
<ele>321.456</ele>
<time>2019-05-30T16:16:15Z</time>
</trkpt>
<trkpt lat="49.501434" lon="10.41438">
<ele>321.456</ele>
<time>2019-05-30T16:16:16Z</time>
</trkpt>
<trkpt lat="49.501461" lon="10.41436">
<ele>321.456</ele>
<time>2019-05-30T16:16:17Z</time>
</trkpt>
<trkpt lat="49.501484" lon="10.414345">
<ele>321.456</ele>
<time>2019-05-30T16:16:18Z</time>
</trkpt>
<trkpt lat="49.501514" lon="10.414327">
<ele>321.456</ele>
<time>2019-05-30T16:16:19Z</time>
</trkpt>
<trkpt lat="49.501545" lon="10.414307">
<ele>321.456</ele>
<time>2019-05-30T16:16:20Z</time>
</trkpt>
<trkpt lat="49.501579" lon="10.414285">
<ele>321.456</ele>
<time>2019-05-30T16:16:21Z</time>
</trkpt>
<trkpt lat="49.50161" lon="10.41427">
<ele>321.456</ele>
<time>2019-05-30T16:16:22Z</time>
</trkpt>
<trkpt lat="49.501644" lon="10.414257">
<ele>321.456</ele>
<time>2019-05-30T16:16:23Z</time>
</trkpt>
<trkpt lat="49.501682" lon="10.414241">
<ele>321.456</ele>
<time>2019-05-30T16:16:24Z</time>
</trkpt>
<trkpt lat="49.501728" lon="10.414232">
<ele>321.456</ele>
<time>2019-05-30T16:16:25Z</time>
</trkpt>
<trkpt lat="49.50177" lon="10.414225">
<ele>321.456</ele>
<time>2019-05-30T16:16:26Z</time>
</trkpt>
<trkpt lat="49.501816" lon="10.414218">
<ele>321.456</ele>
<time>2019-05-30T16:16:27Z</time>
</trkpt>
<trkpt lat="49.501862" lon="10.414213">
<ele>321.456</ele>
<time>2019-05-30T16:16:28Z</time>
</trkpt>
<trkpt lat="49.501904" lon="10.414205">
<ele>321.456</ele>
<time>2019-05-30T16:16:29Z</time>
</trkpt>
<trkpt lat="49.501945" lon="10.414199">
<ele>321.456</ele>
<time>2019-05-30T16:16:30Z</time>
</trkpt>
<trkpt lat="49.501987" lon="10.414193">
<ele>321.456</ele>
<time>2019-05-30T16:16:31Z</time>
</trkpt>
<trkpt lat="49.502033" lon="10.414185">
<ele>321.456</ele>
<time>2019-05-30T16:16:32Z</time>
</trkpt>
<trkpt lat="49.502075" lon="10.414185">
<ele>321.456</ele>
<time>2019-05-30T16:16:33Z</time>
</trkpt>
<trkpt lat="49.502121" lon="10.414185">
<ele>321.456</ele>
<time>2019-05-30T16:16:34Z</time>
</trkpt>
<trkpt lat="49.502167" lon="10.414176">
<ele>321.456</ele>
<time>2019-05-30T16:16:35Z</time>
</trkpt>
<trkpt lat="49.502213" lon="10.414167">
<ele>321.456</ele>
<time>2019-05-30T16:16:36Z</time>
</trkpt>
<trkpt lat="49.502258" lon="10.41416">
<ele>321.456</ele>
<time>2019-05-30T16:16:37Z</time>
</trkpt>
<trkpt lat="49.502304" lon="10.414155">
<ele>321.456</ele>
<time>2019-05-30T16:16:38Z</time>
</trkpt>
<trkpt lat="49.50235" lon="10.414153">
<ele>321.456</ele>
<time>2019-05-30T16:16:39Z</time>
</trkpt>
<trkpt lat="49.502392" lon="10.41415">
<ele>321.456</ele>
<time>2019-05-30T16:16:40Z</time>
</trkpt>
<trkpt lat="49.502441" lon="10.41415">
<ele>321.456</ele>
<time>2019-05-30T16:16:41Z</time>
</trkpt>
<trkpt lat="49.502487" lon="10.414146">
<ele>321.456</ele>
<time>2019-05-30T16:16:42Z</time>
</trkpt>
<trkpt lat="49.502525" lon="10.414144">
<ele>321.456</ele>
<time>2019-05-30T16:16:43Z</time>
</trkpt>
<trkpt lat="49.502571" lon="10.414138">
<ele>321.456</ele>
<time>2019-05-30T16:16:44Z</time>
</trkpt>
<trkpt lat="49.502613" lon="10.414134">
<ele>321.456</ele>
<time>2019-05-30T16:16:45Z</time>
</trkpt>
<trkpt lat="49.502655" lon="10.41413">
<ele>321.227</ele>
<time>2019-05-30T16:16:46Z</time>
</trkpt>
<trkpt lat="49.502697" lon="10.414124">
<ele>321.045</ele>
<time>2019-05-30T16:16:47Z</time>
</trkpt>
<trkpt lat="49.502735" lon="10.414122">
<ele>320.998</ele>
<time>2019-05-30T16:16:48Z</time>
</trkpt>
<trkpt lat="49.502766" lon="10.41413">
<ele>321.075</ele>
<time>2019-05-30T16:16:49Z</time>
</trkpt>
<trkpt lat="49.502785" lon="10.414145">
<ele>321.144</ele>
<time>2019-05-30T16:16:50Z</time>
</trkpt>
<trkpt lat="49.502808" lon="10.41416">
<ele>321.205</ele>
<time>2019-05-30T16:16:51Z</time>
</trkpt>
<trkpt lat="49.502827" lon="10.414175">
<ele>321.263</ele>
<time>2019-05-30T16:16:52Z</time>
</trkpt>
<trkpt lat="49.502838" lon="10.414202">
<ele>321.317</ele>
<time>2019-05-30T16:16:53Z</time>
</trkpt>
<trkpt lat="49.502846" lon="10.414227">
<ele>321.369</ele>
<time>2019-05-30T16:16:54Z</time>
</trkpt>
<trkpt lat="49.502846" lon="10.414241">
<ele>321.423</ele>
<time>2019-05-30T16:16:55Z</time>
</trkpt>
<trkpt lat="49.502846" lon="10.414247">
<ele>321.456</ele>
<time>2019-05-30T16:16:56Z</time>
</trkpt>
<trkpt lat="49.502842" lon="10.414247">
<ele>321.456</ele>
<time>2019-05-30T16:16:57Z</time>
</trkpt>
<trkpt lat="49.50285" lon="10.414248">
<ele>321.456</ele>
<time>2019-05-30T16:16:58Z</time>
</trkpt>
<trkpt lat="49.502857" lon="10.414241">
<ele>321.456</ele>
<time>2019-05-30T16:17:00Z</time>
</trkpt>
<trkpt lat="49.502861" lon="10.414232">
<ele>321.456</ele>
<time>2019-05-30T16:17:01Z</time>
</trkpt>
<trkpt lat="49.502869" lon="10.414239">
<ele>321.456</ele>
<time>2019-05-30T16:17:02Z</time>
</trkpt>
<trkpt lat="49.502872" lon="10.414247">
<ele>321.456</ele>
<time>2019-05-30T16:17:03Z</time>
</trkpt>
<trkpt lat="49.502872" lon="10.414255">
<ele>321.456</ele>
<time>2019-05-30T16:17:04Z</time>
</trkpt>
<trkpt lat="49.502876" lon="10.414266">
<ele>321.456</ele>
<time>2019-05-30T16:17:05Z</time>
</trkpt>
<trkpt lat="49.502876" lon="10.414274">
<ele>321.456</ele>
<time>2019-05-30T16:17:06Z</time>
</trkpt>
<trkpt lat="49.50288" lon="10.414283">
<ele>321.456</ele>
<time>2019-05-30T16:17:07Z</time>
</trkpt>
<trkpt lat="49.50288" lon="10.414295">
<ele>321.456</ele>
<time>2019-05-30T16:17:08Z</time>
</trkpt>
<trkpt lat="49.502884" lon="10.414313">
<ele>321.456</ele>
<time>2019-05-30T16:17:09Z</time>
</trkpt>
<trkpt lat="49.502884" lon="10.41433">
<ele>321.456</ele>
<time>2019-05-30T16:17:10Z</time>
</trkpt>
<trkpt lat="49.502884" lon="10.414356">
<ele>321.456</ele>
<time>2019-05-30T16:17:11Z</time>
</trkpt>
<trkpt lat="49.502884" lon="10.414387">
<ele>321.456</ele>
<time>2019-05-30T16:17:12Z</time>
</trkpt>
<trkpt lat="49.502884" lon="10.414421">
<ele>321.456</ele>
<time>2019-05-30T16:17:13Z</time>
</trkpt>
<trkpt lat="49.502895" lon="10.414452">
<ele>321.456</ele>
<time>2019-05-30T16:17:14Z</time>
</trkpt>
<trkpt lat="49.502907" lon="10.414488">
<ele>321.456</ele>
<time>2019-05-30T16:17:15Z</time>
</trkpt>
<trkpt lat="49.502914" lon="10.414523">
<ele>321.456</ele>
<time>2019-05-30T16:17:16Z</time>
</trkpt>
<trkpt lat="49.502926" lon="10.414557">
<ele>321.456</ele>
<time>2019-05-30T16:17:17Z</time>
</trkpt>
<trkpt lat="49.502937" lon="10.414593">
<ele>321.456</ele>
<time>2019-05-30T16:17:18Z</time>
</trkpt>
<trkpt lat="49.502949" lon="10.414632">
<ele>321.456</ele>
<time>2019-05-30T16:17:19Z</time>
</trkpt>
<trkpt lat="49.50296" lon="10.414673">
<ele>321.456</ele>
<time>2019-05-30T16:17:20Z</time>
</trkpt>
<trkpt lat="49.502968" lon="10.414717">
<ele>321.456</ele>
<time>2019-05-30T16:17:21Z</time>
</trkpt>
<trkpt lat="49.502979" lon="10.414759">
<ele>321.456</ele>
<time>2019-05-30T16:17:22Z</time>
</trkpt>
<trkpt lat="49.502987" lon="10.414798">
<ele>321.456</ele>
<time>2019-05-30T16:17:23Z</time>
</trkpt>
<trkpt lat="49.502995" lon="10.414848">
<ele>321.456</ele>
<time>2019-05-30T16:17:24Z</time>
</trkpt>
<trkpt lat="49.503002" lon="10.414899">
<ele>321.456</ele>
<time>2019-05-30T16:17:25Z</time>
</trkpt>
<trkpt lat="49.503017" lon="10.414942">
<ele>321.456</ele>
<time>2019-05-30T16:17:26Z</time>
</trkpt>
<trkpt lat="49.503033" lon="10.414971">
<ele>321.456</ele>
<time>2019-05-30T16:17:27Z</time>
</trkpt>
<trkpt lat="49.503048" lon="10.414995">
<ele>321.456</ele>
<time>2019-05-30T16:17:28Z</time>
</trkpt>
<trkpt lat="49.503078" lon="10.415018">
<ele>321.456</ele>
<time>2019-05-30T16:17:29Z</time>
</trkpt>
<trkpt lat="49.503101" lon="10.415037">
<ele>321.456</ele>
<time>2019-05-30T16:17:30Z</time>
</trkpt>
<trkpt lat="49.503139" lon="10.41505">
<ele>321.456</ele>
<time>2019-05-30T16:17:31Z</time>
</trkpt>
<trkpt lat="49.503162" lon="10.415067">
<ele>321.456</ele>
<time>2019-05-30T16:17:32Z</time>
</trkpt>
<trkpt lat="49.503193" lon="10.415087">
<ele>321.456</ele>
<time>2019-05-30T16:17:33Z</time>
</trkpt>
<trkpt lat="49.503231" lon="10.415102">
<ele>321.456</ele>
<time>2019-05-30T16:17:34Z</time>
</trkpt>
<trkpt lat="49.503265" lon="10.415118">
<ele>321.191</ele>
<time>2019-05-30T16:17:35Z</time>
</trkpt>
<trkpt lat="49.503304" lon="10.415133">
<ele>320.992</ele>
<time>2019-05-30T16:17:36Z</time>
</trkpt>
<trkpt lat="49.503338" lon="10.415154">
<ele>320.848</ele>
<time>2019-05-30T16:17:37Z</time>
</trkpt>
<trkpt lat="49.503357" lon="10.415183">
<ele>320.742</ele>
<time>2019-05-30T16:17:38Z</time>
</trkpt>
<trkpt lat="49.503376" lon="10.415218">
<ele>320.671</ele>
<time>2019-05-30T16:17:39Z</time>
</trkpt>
<trkpt lat="49.503403" lon="10.415253">
<ele>320.61</ele>
<time>2019-05-30T16:17:40Z</time>
</trkpt>
<trkpt lat="49.503422" lon="10.41529">
<ele>320.82</ele>
<time>2019-05-30T16:17:41Z</time>
</trkpt>
<trkpt lat="49.503437" lon="10.415328">
<ele>320.997</ele>
<time>2019-05-30T16:17:42Z</time>
</trkpt>
<trkpt lat="49.503456" lon="10.415366">
<ele>321.165</ele>
<time>2019-05-30T16:17:43Z</time>
</trkpt>
<trkpt lat="49.503468" lon="10.415405">
<ele>321.279</ele>
<time>2019-05-30T16:17:44Z</time>
</trkpt>
<trkpt lat="49.503487" lon="10.415452">
<ele>321.373</ele>
<time>2019-05-30T16:17:45Z</time>
</trkpt>
<trkpt lat="49.503502" lon="10.415498">
<ele>321.427</ele>
<time>2019-05-30T16:17:46Z</time>
</trkpt>
<trkpt lat="49.503525" lon="10.415546">
<ele>321.449</ele>
<time>2019-05-30T16:17:47Z</time>
</trkpt>
<trkpt lat="49.503544" lon="10.415594">
<ele>321.456</ele>
<time>2019-05-30T16:17:48Z</time>
</trkpt>
<trkpt lat="49.503563" lon="10.415645">
<ele>321.456</ele>
<time>2019-05-30T16:17:49Z</time>
</trkpt>
<trkpt lat="49.503582" lon="10.415699">
<ele>321.675</ele>
<time>2019-05-30T16:17:50Z</time>
</trkpt>
<trkpt lat="49.503605" lon="10.415753">
<ele>321.857</ele>
<time>2019-05-30T16:17:51Z</time>
</trkpt>
<trkpt lat="49.503628" lon="10.415808">
<ele>321.998</ele>
<time>2019-05-30T16:17:52Z</time>
</trkpt>
<trkpt lat="49.503647" lon="10.415865">
<ele>322.104</ele>
<time>2019-05-30T16:17:53Z</time>
</trkpt>
<trkpt lat="49.503662" lon="10.415921">
<ele>322.188</ele>
<time>2019-05-30T16:17:54Z</time>
</trkpt>
<trkpt lat="49.503681" lon="10.415974">
<ele>322.248</ele>
<time>2019-05-30T16:17:55Z</time>
</trkpt>
<trkpt lat="49.5037" lon="10.41603">
<ele>322.287</ele>
<time>2019-05-30T16:17:56Z</time>
</trkpt>
<trkpt lat="49.503719" lon="10.416086">
<ele>322.3</ele>
<time>2019-05-30T16:17:57Z</time>
</trkpt>
<trkpt lat="49.503731" lon="10.416143">
<ele>322.1</ele>
<time>2019-05-30T16:17:58Z</time>
</trkpt>
<trkpt lat="49.503746" lon="10.416198">
<ele>321.953</ele>
<time>2019-05-30T16:17:59Z</time>
</trkpt>
<trkpt lat="49.503765" lon="10.416244">
<ele>321.804</ele>
<time>2019-05-30T16:18:00Z</time>
</trkpt>
<trkpt lat="49.50378" lon="10.416292">
<ele>321.683</ele>
<time>2019-05-30T16:18:01Z</time>
</trkpt>
<trkpt lat="49.503796" lon="10.41634">
<ele>321.588</ele>
<time>2019-05-30T16:18:02Z</time>
</trkpt>
<trkpt lat="49.503807" lon="10.416378">
<ele>321.521</ele>
<time>2019-05-30T16:18:03Z</time>
</trkpt>
<trkpt lat="49.503822" lon="10.416415">
<ele>321.479</ele>
<time>2019-05-30T16:18:04Z</time>
</trkpt>
<trkpt lat="49.50383" lon="10.416451">
<ele>321.456</ele>
<time>2019-05-30T16:18:05Z</time>
</trkpt>
<trkpt lat="49.503841" lon="10.416483">
<ele>321.456</ele>
<time>2019-05-30T16:18:06Z</time>
</trkpt>
<trkpt lat="49.503899" lon="10.416508">
<ele>321.456</ele>
<time>2019-05-30T16:18:07Z</time>
</trkpt>
<trkpt lat="49.503925" lon="10.416523">
<ele>321.223</ele>
<time>2019-05-30T16:18:08Z</time>
</trkpt>
<trkpt lat="49.503944" lon="10.416537">
<ele>321.054</ele>
<time>2019-05-30T16:18:09Z</time>
</trkpt>
<trkpt lat="49.503956" lon="10.416548">
<ele>320.889</ele>
<time>2019-05-30T16:18:10Z</time>
</trkpt>
<trkpt lat="49.503956" lon="10.416553">
<ele>320.756</ele>
<time>2019-05-30T16:18:11Z</time>
</trkpt>
<trkpt lat="49.503952" lon="10.416558">
<ele>320.661</ele>
<time>2019-05-30T16:18:12Z</time>
</trkpt>
<trkpt lat="49.503952" lon="10.416565">
<ele>320.591</ele>
<time>2019-05-30T16:18:13Z</time>
</trkpt>
<trkpt lat="49.503925" lon="10.416589">
<ele>320.544</ele>
<time>2019-05-30T16:18:16Z</time>
</trkpt>
<trkpt lat="49.50391" lon="10.416598">
<ele>320.522</ele>
<time>2019-05-30T16:18:17Z</time>
</trkpt>
<trkpt lat="49.503891" lon="10.4166">
<ele>320.522</ele>
<time>2019-05-30T16:18:18Z</time>
</trkpt>
<trkpt lat="49.503864" lon="10.4166">
<ele>320.522</ele>
<time>2019-05-30T16:18:19Z</time>
</trkpt>
<trkpt lat="49.503841" lon="10.416602">
<ele>320.522</ele>
<time>2019-05-30T16:18:20Z</time>
</trkpt>
<trkpt lat="49.503819" lon="10.416613">
<ele>320.522</ele>
<time>2019-05-30T16:18:21Z</time>
</trkpt>
<trkpt lat="49.503799" lon="10.416618">
<ele>320.522</ele>
<time>2019-05-30T16:18:22Z</time>
</trkpt>
<trkpt lat="49.503784" lon="10.416627">
<ele>320.849</ele>
<time>2019-05-30T16:18:23Z</time>
</trkpt>
<trkpt lat="49.503765" lon="10.416636">
<ele>321.049</ele>
<time>2019-05-30T16:18:24Z</time>
</trkpt>
<trkpt lat="49.503746" lon="10.41664">
<ele>321.235</ele>
<time>2019-05-30T16:18:25Z</time>
</trkpt>
<trkpt lat="49.503727" lon="10.416654">
<ele>321.355</ele>
<time>2019-05-30T16:18:26Z</time>
</trkpt>
<trkpt lat="49.503704" lon="10.416665">
<ele>321.451</ele>
<time>2019-05-30T16:18:27Z</time>
</trkpt>
<trkpt lat="49.503681" lon="10.41667">
<ele>321.514</ele>
<time>2019-05-30T16:18:28Z</time>
</trkpt>
<trkpt lat="49.503654" lon="10.416677">
<ele>321.53</ele>
<time>2019-05-30T16:18:29Z</time>
</trkpt>
<trkpt lat="49.503624" lon="10.416674">
<ele>321.541</ele>
<time>2019-05-30T16:18:30Z</time>
</trkpt>
<trkpt lat="49.503597" lon="10.416679">
<ele>321.541</ele>
<time>2019-05-30T16:18:31Z</time>
</trkpt>
<trkpt lat="49.503574" lon="10.416688">
<ele>321.541</ele>
<time>2019-05-30T16:18:32Z</time>
</trkpt>
<trkpt lat="49.503555" lon="10.4167">
<ele>321.859</ele>
<time>2019-05-30T16:18:33Z</time>
</trkpt>
<trkpt lat="49.503529" lon="10.416711">
<ele>322.084</ele>
<time>2019-05-30T16:18:34Z</time>
</trkpt>
<trkpt lat="49.503502" lon="10.416718">
<ele>322.266</ele>
<time>2019-05-30T16:18:35Z</time>
</trkpt>
<trkpt lat="49.503475" lon="10.416732">
<ele>322.385</ele>
<time>2019-05-30T16:18:36Z</time>
</trkpt>
<trkpt lat="49.503452" lon="10.416742">
<ele>322.465</ele>
<time>2019-05-30T16:18:37Z</time>
</trkpt>
<trkpt lat="49.503433" lon="10.416752">
<ele>322.527</ele>
<time>2019-05-30T16:18:38Z</time>
</trkpt>
<trkpt lat="49.50341" lon="10.416767">
<ele>322.559</ele>
<time>2019-05-30T16:18:39Z</time>
</trkpt>
<trkpt lat="49.503384" lon="10.416781">
<ele>322.559</ele>
<time>2019-05-30T16:18:40Z</time>
</trkpt>
<trkpt lat="49.503353" lon="10.416793">
<ele>322.749</ele>
<time>2019-05-30T16:18:41Z</time>
</trkpt>
<trkpt lat="49.50333" lon="10.416812">
<ele>322.93</ele>
<time>2019-05-30T16:18:42Z</time>
</trkpt>
<trkpt lat="49.503315" lon="10.416833">
<ele>323.077</ele>
<time>2019-05-30T16:18:43Z</time>
</trkpt>
<trkpt lat="49.503307" lon="10.416862">
<ele>323.192</ele>
<time>2019-05-30T16:18:44Z</time>
</trkpt>
<trkpt lat="49.503296" lon="10.416897">
<ele>323.288</ele>
<time>2019-05-30T16:18:45Z</time>
</trkpt>
<trkpt lat="49.503273" lon="10.416917">
<ele>323.353</ele>
<time>2019-05-30T16:18:46Z</time>
</trkpt>
<trkpt lat="49.50325" lon="10.41694">
<ele>323.389</ele>
<time>2019-05-30T16:18:47Z</time>
</trkpt>
<trkpt lat="49.503231" lon="10.41696">
<ele>323.409</ele>
<time>2019-05-30T16:18:48Z</time>
</trkpt>
<trkpt lat="49.503216" lon="10.416979">
<ele>323.409</ele>
<time>2019-05-30T16:18:49Z</time>
</trkpt>
<trkpt lat="49.503201" lon="10.416988">
<ele>323.409</ele>
<time>2019-05-30T16:18:50Z</time>
</trkpt>
<trkpt lat="49.503178" lon="10.417012">
<ele>323.687</ele>
<time>2019-05-30T16:18:51Z</time>
</trkpt>
<trkpt lat="49.503155" lon="10.417031">
<ele>323.949</ele>
<time>2019-05-30T16:18:52Z</time>
</trkpt>
<trkpt lat="49.503139" lon="10.41705">
<ele>324.157</ele>
<time>2019-05-30T16:18:53Z</time>
</trkpt>
<trkpt lat="49.503117" lon="10.417061">
<ele>324.337</ele>
<time>2019-05-30T16:18:54Z</time>
</trkpt>
<trkpt lat="49.503101" lon="10.417069">
<ele>324.486</ele>
<time>2019-05-30T16:18:55Z</time>
</trkpt>
<trkpt lat="49.503082" lon="10.417084">
<ele>324.592</ele>
<time>2019-05-30T16:18:56Z</time>
</trkpt>
<trkpt lat="49.503067" lon="10.417094">
<ele>324.653</ele>
<time>2019-05-30T16:18:57Z</time>
</trkpt>
<trkpt lat="49.503048" lon="10.41711">
<ele>324.881</ele>
<time>2019-05-30T16:18:58Z</time>
</trkpt>
<trkpt lat="49.503025" lon="10.417131">
<ele>325.058</ele>
<time>2019-05-30T16:18:59Z</time>
</trkpt>
<trkpt lat="49.50301" lon="10.417149">
<ele>325.196</ele>
<time>2019-05-30T16:19:00Z</time>
</trkpt>
<trkpt lat="49.502991" lon="10.417159">
<ele>325.294</ele>
<time>2019-05-30T16:19:01Z</time>
</trkpt>
<trkpt lat="49.502968" lon="10.417159">
<ele>325.402</ele>
<time>2019-05-30T16:19:02Z</time>
</trkpt>
<trkpt lat="49.502949" lon="10.417162">
<ele>325.472</ele>
<time>2019-05-30T16:19:03Z</time>
</trkpt>
<trkpt lat="49.502926" lon="10.417164">
<ele>325.511</ele>
<time>2019-05-30T16:19:04Z</time>
</trkpt>
<trkpt lat="49.502907" lon="10.417165">
<ele>325.758</ele>
<time>2019-05-30T16:19:05Z</time>
</trkpt>
<trkpt lat="49.502884" lon="10.417192">
<ele>325.99</ele>
<time>2019-05-30T16:19:06Z</time>
</trkpt>
<trkpt lat="49.502869" lon="10.41722">
<ele>326.143</ele>
<time>2019-05-30T16:19:07Z</time>
</trkpt>
<trkpt lat="49.502853" lon="10.417238">
<ele>326.274</ele>
<time>2019-05-30T16:19:08Z</time>
</trkpt>
<trkpt lat="49.502834" lon="10.417252">
<ele>326.354</ele>
<time>2019-05-30T16:19:09Z</time>
</trkpt>
<trkpt lat="49.502815" lon="10.417264">
<ele>326.389</ele>
<time>2019-05-30T16:19:10Z</time>
</trkpt>
<trkpt lat="49.502796" lon="10.41727">
<ele>326.652</ele>
<time>2019-05-30T16:19:11Z</time>
</trkpt>
<trkpt lat="49.502781" lon="10.41728">
<ele>326.861</ele>
<time>2019-05-30T16:19:12Z</time>
</trkpt>
<trkpt lat="49.502758" lon="10.41729">
<ele>327.017</ele>
<time>2019-05-30T16:19:13Z</time>
</trkpt>
<trkpt lat="49.502743" lon="10.417305">
<ele>327.142</ele>
<time>2019-05-30T16:19:14Z</time>
</trkpt>
<trkpt lat="49.502724" lon="10.417327">
<ele>327.249</ele>
<time>2019-05-30T16:19:15Z</time>
</trkpt>
<trkpt lat="49.502701" lon="10.417323">
<ele>327.33</ele>
<time>2019-05-30T16:19:16Z</time>
</trkpt>
<trkpt lat="49.502674" lon="10.417327">
<ele>327.372</ele>
<time>2019-05-30T16:19:17Z</time>
</trkpt>
<trkpt lat="49.502651" lon="10.417323">
<ele>327.642</ele>
<time>2019-05-30T16:19:18Z</time>
</trkpt>
<trkpt lat="49.502628" lon="10.417327">
<ele>327.848</ele>
<time>2019-05-30T16:19:19Z</time>
</trkpt>
<trkpt lat="49.502613" lon="10.417337">
<ele>327.986</ele>
<time>2019-05-30T16:19:20Z</time>
</trkpt>
<trkpt lat="49.502598" lon="10.417348">
<ele>328.086</ele>
<time>2019-05-30T16:19:21Z</time>
</trkpt>
<trkpt lat="49.50259" lon="10.417367">
<ele>328.187</ele>
<time>2019-05-30T16:19:22Z</time>
</trkpt>
<trkpt lat="49.50259" lon="10.4174">
<ele>328.257</ele>
<time>2019-05-30T16:19:23Z</time>
</trkpt>
<trkpt lat="49.50259" lon="10.417439">
<ele>328.309</ele>
<time>2019-05-30T16:19:24Z</time>
</trkpt>
<trkpt lat="49.502586" lon="10.417469">
<ele>328.334</ele>
<time>2019-05-30T16:19:25Z</time>
</trkpt>
<trkpt lat="49.502583" lon="10.4175">
<ele>328.334</ele>
<time>2019-05-30T16:19:26Z</time>
</trkpt>
<trkpt lat="49.502575" lon="10.417532">
<ele>328.334</ele>
<time>2019-05-30T16:19:27Z</time>
</trkpt>
<trkpt lat="49.502567" lon="10.417559">
<ele>328.334</ele>
<time>2019-05-30T16:19:28Z</time>
</trkpt>
<trkpt lat="49.50256" lon="10.417583">
<ele>328.334</ele>
<time>2019-05-30T16:19:29Z</time>
</trkpt>
<trkpt lat="49.502552" lon="10.417603">
<ele>328.334</ele>
<time>2019-05-30T16:19:30Z</time>
</trkpt>
<trkpt lat="49.502544" lon="10.417618">
<ele>328.334</ele>
<time>2019-05-30T16:19:31Z</time>
</trkpt>
<trkpt lat="49.502537" lon="10.417633">
<ele>328.334</ele>
<time>2019-05-30T16:19:32Z</time>
</trkpt>
<trkpt lat="49.502533" lon="10.417642">
<ele>328.334</ele>
<time>2019-05-30T16:19:33Z</time>
</trkpt>
<trkpt lat="49.502529" lon="10.41765">
<ele>328.334</ele>
<time>2019-05-30T16:19:34Z</time>
</trkpt>
<trkpt lat="49.502525" lon="10.417658">
<ele>328.334</ele>
<time>2019-05-30T16:19:35Z</time>
</trkpt>
<trkpt lat="49.502529" lon="10.41764">
<ele>328.334</ele>
<time>2019-05-30T16:20:54Z</time>
</trkpt>
<trkpt lat="49.502541" lon="10.41762">
<ele>328.334</ele>
<time>2019-05-30T16:20:55Z</time>
</trkpt>
<trkpt lat="49.502552" lon="10.417602">
<ele>328.334</ele>
<time>2019-05-30T16:20:56Z</time>
</trkpt>
<trkpt lat="49.50256" lon="10.417586">
<ele>328.334</ele>
<time>2019-05-30T16:20:57Z</time>
</trkpt>
<trkpt lat="49.502567" lon="10.417568">
<ele>328.334</ele>
<time>2019-05-30T16:20:58Z</time>
</trkpt>
<trkpt lat="49.502575" lon="10.417546">
<ele>328.334</ele>
<time>2019-05-30T16:20:59Z</time>
</trkpt>
<trkpt lat="49.502586" lon="10.417528">
<ele>328.334</ele>
<time>2019-05-30T16:21:00Z</time>
</trkpt>
<trkpt lat="49.502594" lon="10.41751">
<ele>328.334</ele>
<time>2019-05-30T16:21:01Z</time>
</trkpt>
<trkpt lat="49.502605" lon="10.417492">
<ele>328.334</ele>
<time>2019-05-30T16:21:02Z</time>
</trkpt>
<trkpt lat="49.502617" lon="10.417478">
<ele>328.334</ele>
<time>2019-05-30T16:21:03Z</time>
</trkpt>
<trkpt lat="49.502621" lon="10.417457">
<ele>328.566</ele>
<time>2019-05-30T16:21:04Z</time>
</trkpt>
<trkpt lat="49.502621" lon="10.417442">
<ele>328.744</ele>
<time>2019-05-30T16:21:05Z</time>
</trkpt>
<trkpt lat="49.502628" lon="10.417432">
<ele>328.754</ele>
<time>2019-05-30T16:21:06Z</time>
</trkpt>
<trkpt lat="49.502644" lon="10.417421">
<ele>328.613</ele>
<time>2019-05-30T16:21:07Z</time>
</trkpt>
<trkpt lat="49.502655" lon="10.417413">
<ele>328.491</ele>
<time>2019-05-30T16:21:08Z</time>
</trkpt>
<trkpt lat="49.502674" lon="10.417407">
<ele>328.418</ele>
<time>2019-05-30T16:21:09Z</time>
</trkpt>
<trkpt lat="49.502693" lon="10.417397">
<ele>328.316</ele>
<time>2019-05-30T16:21:10Z</time>
</trkpt>
<trkpt lat="49.50272" lon="10.417378">
<ele>328.223</ele>
<time>2019-05-30T16:21:11Z</time>
</trkpt>
<trkpt lat="49.50275" lon="10.417348">
<ele>328.155</ele>
<time>2019-05-30T16:21:12Z</time>
</trkpt>
<trkpt lat="49.502769" lon="10.417329">
<ele>328.101</ele>
<time>2019-05-30T16:21:13Z</time>
</trkpt>
<trkpt lat="49.502785" lon="10.417316">
<ele>327.785</ele>
<time>2019-05-30T16:21:14Z</time>
</trkpt>
<trkpt lat="49.502804" lon="10.417302">
<ele>327.547</ele>
<time>2019-05-30T16:21:15Z</time>
</trkpt>
<trkpt lat="49.502819" lon="10.417264">
<ele>327.394</ele>
<time>2019-05-30T16:21:16Z</time>
</trkpt>
<trkpt lat="49.50285" lon="10.417241">
<ele>327.285</ele>
<time>2019-05-30T16:21:17Z</time>
</trkpt>
<trkpt lat="49.502869" lon="10.417222">
<ele>327.231</ele>
<time>2019-05-30T16:21:18Z</time>
</trkpt>
<trkpt lat="49.502895" lon="10.417212">
<ele>326.952</ele>
<time>2019-05-30T16:21:19Z</time>
</trkpt>
<trkpt lat="49.502926" lon="10.41721">
<ele>326.694</ele>
<time>2019-05-30T16:21:20Z</time>
</trkpt>
<trkpt lat="49.502956" lon="10.417201">
<ele>326.471</ele>
<time>2019-05-30T16:21:21Z</time>
</trkpt>
<trkpt lat="49.502991" lon="10.417192">
<ele>326.363</ele>
<time>2019-05-30T16:21:22Z</time>
</trkpt>
<trkpt lat="49.503029" lon="10.41718">
<ele>326</ele>
<time>2019-05-30T16:21:23Z</time>
</trkpt>
<trkpt lat="49.503067" lon="10.417162">
<ele>325.72</ele>
<time>2019-05-30T16:21:24Z</time>
</trkpt>
<trkpt lat="49.503109" lon="10.417147">
<ele>325.487</ele>
<time>2019-05-30T16:21:25Z</time>
</trkpt>
<trkpt lat="49.503143" lon="10.417118">
<ele>325.327</ele>
<time>2019-05-30T16:21:26Z</time>
</trkpt>
<trkpt lat="49.503181" lon="10.417109">
<ele>325.223</ele>
<time>2019-05-30T16:21:27Z</time>
</trkpt>
<trkpt lat="49.503201" lon="10.417048">
<ele>325.181</ele>
<time>2019-05-30T16:21:28Z</time>
</trkpt>
<trkpt lat="49.503223" lon="10.417035">
<ele>324.914</ele>
<time>2019-05-30T16:21:29Z</time>
</trkpt>
<trkpt lat="49.503242" lon="10.417024">
<ele>324.709</ele>
<time>2019-05-30T16:21:30Z</time>
</trkpt>
<trkpt lat="49.503258" lon="10.417017">
<ele>324.566</ele>
<time>2019-05-30T16:21:31Z</time>
</trkpt>
<trkpt lat="49.503273" lon="10.416998">
<ele>324.456</ele>
<time>2019-05-30T16:21:32Z</time>
</trkpt>
<trkpt lat="49.503284" lon="10.41698">
<ele>324.167</ele>
<time>2019-05-30T16:21:33Z</time>
</trkpt>
<trkpt lat="49.503307" lon="10.41696">
<ele>323.904</ele>
<time>2019-05-30T16:21:34Z</time>
</trkpt>
<trkpt lat="49.503307" lon="10.41689">
<ele>323.679</ele>
<time>2019-05-30T16:21:35Z</time>
</trkpt>
<trkpt lat="49.503338" lon="10.416865">
<ele>323.506</ele>
<time>2019-05-30T16:21:36Z</time>
</trkpt>
<trkpt lat="49.503361" lon="10.416845">
<ele>323.348</ele>
<time>2019-05-30T16:21:37Z</time>
</trkpt>
<trkpt lat="49.503391" lon="10.416824">
<ele>323.305</ele>
<time>2019-05-30T16:21:38Z</time>
</trkpt>
<trkpt lat="49.503422" lon="10.416801">
<ele>323.017</ele>
<time>2019-05-30T16:21:39Z</time>
</trkpt>
<trkpt lat="49.503452" lon="10.416784">
<ele>322.801</ele>
<time>2019-05-30T16:21:40Z</time>
</trkpt>
<trkpt lat="49.503487" lon="10.416768">
<ele>322.648</ele>
<time>2019-05-30T16:21:41Z</time>
</trkpt>
<trkpt lat="49.503521" lon="10.416742">
<ele>322.54</ele>
<time>2019-05-30T16:21:42Z</time>
</trkpt>
<trkpt lat="49.503563" lon="10.416721">
<ele>322.455</ele>
<time>2019-05-30T16:21:43Z</time>
</trkpt>
<trkpt lat="49.503601" lon="10.416713">
<ele>322.376</ele>
<time>2019-05-30T16:21:44Z</time>
</trkpt>
<trkpt lat="49.503632" lon="10.416705">
<ele>322.112</ele>
<time>2019-05-30T16:21:45Z</time>
</trkpt>
<trkpt lat="49.50367" lon="10.416698">
<ele>321.916</ele>
<time>2019-05-30T16:21:46Z</time>
</trkpt>
<trkpt lat="49.503704" lon="10.41669">
<ele>321.765</ele>
<time>2019-05-30T16:21:47Z</time>
</trkpt>
<trkpt lat="49.503738" lon="10.416678">
<ele>321.664</ele>
<time>2019-05-30T16:21:48Z</time>
</trkpt>
<trkpt lat="49.503773" lon="10.41667">
<ele>321.597</ele>
<time>2019-05-30T16:21:49Z</time>
</trkpt>
<trkpt lat="49.503796" lon="10.416629">
<ele>321.531</ele>
<time>2019-05-30T16:21:50Z</time>
</trkpt>
<trkpt lat="49.503826" lon="10.416596">
<ele>321.259</ele>
<time>2019-05-30T16:21:51Z</time>
</trkpt>
<trkpt lat="49.503849" lon="10.416581">
<ele>321.044</ele>
<time>2019-05-30T16:21:52Z</time>
</trkpt>
<trkpt lat="49.503872" lon="10.416572">
<ele>320.811</ele>
<time>2019-05-30T16:21:53Z</time>
</trkpt>
<trkpt lat="49.503899" lon="10.416569">
<ele>320.707</ele>
<time>2019-05-30T16:21:54Z</time>
</trkpt>
<trkpt lat="49.503922" lon="10.416569">
<ele>320.548</ele>
<time>2019-05-30T16:21:55Z</time>
</trkpt>
<trkpt lat="49.503944" lon="10.416569">
<ele>320.437</ele>
<time>2019-05-30T16:21:56Z</time>
</trkpt>
<trkpt lat="49.503967" lon="10.416571">
<ele>320.371</ele>
<time>2019-05-30T16:21:57Z</time>
</trkpt>
<trkpt lat="49.503994" lon="10.41656">
<ele>320.34</ele>
<time>2019-05-30T16:21:58Z</time>
</trkpt>
<trkpt lat="49.504021" lon="10.416562">
<ele>320.315</ele>
<time>2019-05-30T16:21:59Z</time>
</trkpt>
<trkpt lat="49.504036" lon="10.416569">
<ele>320.288</ele>
<time>2019-05-30T16:22:00Z</time>
</trkpt>
<trkpt lat="49.504051" lon="10.416574">
<ele>320.274</ele>
<time>2019-05-30T16:22:01Z</time>
</trkpt>
<trkpt lat="49.504063" lon="10.416583">
<ele>320.268</ele>
<time>2019-05-30T16:22:02Z</time>
</trkpt>
<trkpt lat="49.504082" lon="10.416587">
<ele>320.268</ele>
<time>2019-05-30T16:22:03Z</time>
</trkpt>
<trkpt lat="49.504089" lon="10.416585">
<ele>320.268</ele>
<time>2019-05-30T16:22:04Z</time>
</trkpt>
<trkpt lat="49.504108" lon="10.416585">
<ele>320.268</ele>
<time>2019-05-30T16:22:05Z</time>
</trkpt>
<trkpt lat="49.50412" lon="10.416583">
<ele>320.268</ele>
<time>2019-05-30T16:22:06Z</time>
</trkpt>
<trkpt lat="49.504116" lon="10.416583">
<ele>320.268</ele>
<time>2019-05-30T16:22:07Z</time>
</trkpt>
<trkpt lat="49.504131" lon="10.416605">
<ele>320.268</ele>
<time>2019-05-30T16:22:14Z</time>
</trkpt>
<trkpt lat="49.504135" lon="10.416604">
<ele>320.268</ele>
<time>2019-05-30T16:22:15Z</time>
</trkpt>
<trkpt lat="49.504139" lon="10.416605">
<ele>320.268</ele>
<time>2019-05-30T16:22:16Z</time>
</trkpt>
<trkpt lat="49.504135" lon="10.416604">
<ele>320.268</ele>
<time>2019-05-30T16:22:17Z</time>
</trkpt>
<trkpt lat="49.504154" lon="10.416583">
<ele>320.268</ele>
<time>2019-05-30T16:22:41Z</time>
</trkpt>
<trkpt lat="49.504158" lon="10.416583">
<ele>320.268</ele>
<time>2019-05-30T16:22:42Z</time>
</trkpt>
<trkpt lat="49.504162" lon="10.416576">
<ele>320.268</ele>
<time>2019-05-30T16:22:43Z</time>
</trkpt>
<trkpt lat="49.504166" lon="10.416578">
<ele>320.268</ele>
<time>2019-05-30T16:22:44Z</time>
</trkpt>
<trkpt lat="49.504169" lon="10.416578">
<ele>320.268</ele>
<time>2019-05-30T16:22:45Z</time>
</trkpt>
<trkpt lat="49.504185" lon="10.416567">
<ele>320.268</ele>
<time>2019-05-30T16:23:10Z</time>
</trkpt>
<trkpt lat="49.504185" lon="10.416565">
<ele>320.332</ele>
<time>2019-05-30T16:23:11Z</time>
</trkpt>
<trkpt lat="49.504185" lon="10.416555">
<ele>320.374</ele>
<time>2019-05-30T16:23:12Z</time>
</trkpt>
<trkpt lat="49.504185" lon="10.416545">
<ele>320.408</ele>
<time>2019-05-30T16:23:14Z</time>
</trkpt>
<trkpt lat="49.504189" lon="10.416538">
<ele>320.465</ele>
<time>2019-05-30T16:23:15Z</time>
</trkpt>
<trkpt lat="49.504177" lon="10.416523">
<ele>320.495</ele>
<time>2019-05-30T16:23:16Z</time>
</trkpt>
<trkpt lat="49.504173" lon="10.416527">
<ele>320.502</ele>
<time>2019-05-30T16:23:17Z</time>
</trkpt>
<trkpt lat="49.504173" lon="10.416531">
<ele>320.508</ele>
<time>2019-05-30T16:23:18Z</time>
</trkpt>
<trkpt lat="49.504169" lon="10.416539">
<ele>320.364</ele>
<time>2019-05-30T16:23:19Z</time>
</trkpt>
<trkpt lat="49.504169" lon="10.416572">
<ele>320.169</ele>
<time>2019-05-30T16:23:20Z</time>
</trkpt>
<trkpt lat="49.504162" lon="10.416576">
<ele>320.105</ele>
<time>2019-05-30T16:23:21Z</time>
</trkpt>
<trkpt lat="49.504128" lon="10.416573">
<ele>319.988</ele>
<time>2019-05-30T16:23:27Z</time>
</trkpt>
<trkpt lat="49.504116" lon="10.416581">
<ele>319.926</ele>
<time>2019-05-30T16:23:28Z</time>
</trkpt>
<trkpt lat="49.504108" lon="10.416571">
<ele>319.893</ele>
<time>2019-05-30T16:23:29Z</time>
</trkpt>
<trkpt lat="49.504108" lon="10.416558">
<ele>319.859</ele>
<time>2019-05-30T16:23:30Z</time>
</trkpt>
<trkpt lat="49.504116" lon="10.416545">
<ele>319.855</ele>
<time>2019-05-30T16:23:31Z</time>
</trkpt>
<trkpt lat="49.504128" lon="10.416522">
<ele>319.853</ele>
<time>2019-05-30T16:23:32Z</time>
</trkpt>
<trkpt lat="49.504139" lon="10.416492">
<ele>319.852</ele>
<time>2019-05-30T16:23:33Z</time>
</trkpt>
<trkpt lat="49.504139" lon="10.416491">
<ele>320.057</ele>
<time>2019-05-30T16:23:34Z</time>
</trkpt>
<trkpt lat="49.504139" lon="10.416485">
<ele>320.199</ele>
<time>2019-05-30T16:23:35Z</time>
</trkpt>
<trkpt lat="49.504143" lon="10.416476">
<ele>320.362</ele>
<time>2019-05-30T16:23:36Z</time>
</trkpt>
<trkpt lat="49.504147" lon="10.416462">
<ele>320.479</ele>
<time>2019-05-30T16:23:37Z</time>
</trkpt>
<trkpt lat="49.504173" lon="10.416497">
<ele>320.557</ele>
<time>2019-05-30T16:23:40Z</time>
</trkpt>
<trkpt lat="49.504158" lon="10.416531">
<ele>320.589</ele>
<time>2019-05-30T16:23:41Z</time>
</trkpt>
<trkpt lat="49.504158" lon="10.416543">
<ele>320.371</ele>
<time>2019-05-30T16:23:42Z</time>
</trkpt>
<trkpt lat="49.504154" lon="10.416567">
<ele>320.448</ele>
<time>2019-05-30T16:23:43Z</time>
</trkpt>
<trkpt lat="49.504154" lon="10.416571">
<ele>320.247</ele>
<time>2019-05-30T16:23:44Z</time>
</trkpt>
<trkpt lat="49.504154" lon="10.416574">
<ele>320.116</ele>
<time>2019-05-30T16:23:45Z</time>
</trkpt>
<trkpt lat="49.504154" lon="10.41658">
<ele>320.171</ele>
<time>2019-05-30T16:23:46Z</time>
</trkpt>
<trkpt lat="49.504158" lon="10.416589">
<ele>320.095</ele>
<time>2019-05-30T16:23:47Z</time>
</trkpt>
<trkpt lat="49.504162" lon="10.416594">
<ele>320.057</ele>
<time>2019-05-30T16:23:48Z</time>
</trkpt>
<trkpt lat="49.504154" lon="10.416596">
<ele>320.006</ele>
<time>2019-05-30T16:23:49Z</time>
</trkpt>
<trkpt lat="49.504143" lon="10.416595">
<ele>319.972</ele>
<time>2019-05-30T16:23:50Z</time>
</trkpt>
<trkpt lat="49.504135" lon="10.416596">
<ele>319.956</ele>
<time>2019-05-30T16:23:51Z</time>
</trkpt>
<trkpt lat="49.50412" lon="10.41663">
<ele>319.926</ele>
<time>2019-05-30T16:23:57Z</time>
</trkpt>
<trkpt lat="49.504116" lon="10.416637">
<ele>319.923</ele>
<time>2019-05-30T16:23:58Z</time>
</trkpt>
<trkpt lat="49.50412" lon="10.416632">
<ele>319.943</ele>
<time>2019-05-30T16:23:59Z</time>
</trkpt>
<trkpt lat="49.504143" lon="10.416594">
<ele>319.96</ele>
<time>2019-05-30T16:24:00Z</time>
</trkpt>
<trkpt lat="49.504139" lon="10.41659">
<ele>319.867</ele>
<time>2019-05-30T16:24:01Z</time>
</trkpt>
<trkpt lat="49.504112" lon="10.416721">
<ele>320.274</ele>
<time>2019-05-30T16:24:14Z</time>
</trkpt>
<trkpt lat="49.504108" lon="10.416728">
<ele>320.192</ele>
<time>2019-05-30T16:24:15Z</time>
</trkpt>
<trkpt lat="49.504108" lon="10.416748">
<ele>320.138</ele>
<time>2019-05-30T16:24:16Z</time>
</trkpt>
<trkpt lat="49.504105" lon="10.416768">
<ele>320.092</ele>
<time>2019-05-30T16:24:17Z</time>
</trkpt>
<trkpt lat="49.504101" lon="10.416795">
<ele>320.068</ele>
<time>2019-05-30T16:24:18Z</time>
</trkpt>
<trkpt lat="49.504101" lon="10.416812">
<ele>320.043</ele>
<time>2019-05-30T16:24:19Z</time>
</trkpt>
<trkpt lat="49.504105" lon="10.416837">
<ele>320.024</ele>
<time>2019-05-30T16:24:20Z</time>
</trkpt>
<trkpt lat="49.504078" lon="10.416585">
<ele>320.002</ele>
<time>2019-05-30T16:26:35Z</time>
</trkpt>
<trkpt lat="49.504116" lon="10.416558">
<ele>320.049</ele>
<time>2019-05-30T16:26:36Z</time>
</trkpt>
<trkpt lat="49.504089" lon="10.416604">
<ele>320.132</ele>
<time>2019-05-30T16:26:37Z</time>
</trkpt>
<trkpt lat="49.504074" lon="10.416627">
<ele>320.135</ele>
<time>2019-05-30T16:26:38Z</time>
</trkpt>
<trkpt lat="49.504082" lon="10.416632">
<ele>320.287</ele>
<time>2019-05-30T16:26:39Z</time>
</trkpt>
<trkpt lat="49.504078" lon="10.416703">
<ele>320.334</ele>
<time>2019-05-30T16:26:52Z</time>
</trkpt>
<trkpt lat="49.504074" lon="10.416713">
<ele>320.367</ele>
<time>2019-05-30T16:26:53Z</time>
</trkpt>
<trkpt lat="49.504063" lon="10.416727">
<ele>320.385</ele>
<time>2019-05-30T16:26:54Z</time>
</trkpt>
<trkpt lat="49.504055" lon="10.416739">
<ele>320.397</ele>
<time>2019-05-30T16:26:55Z</time>
</trkpt>
<trkpt lat="49.504047" lon="10.416739">
<ele>320.433</ele>
<time>2019-05-30T16:26:56Z</time>
</trkpt>
<trkpt lat="49.504036" lon="10.416748">
<ele>320.444</ele>
<time>2019-05-30T16:26:57Z</time>
</trkpt>
<trkpt lat="49.504036" lon="10.416759">
<ele>320.446</ele>
<time>2019-05-30T16:26:58Z</time>
</trkpt>
<trkpt lat="49.504028" lon="10.416774">
<ele>320.439</ele>
<time>2019-05-30T16:26:59Z</time>
</trkpt>
<trkpt lat="49.50404" lon="10.416732">
<ele>320.437</ele>
<time>2019-05-30T16:27:00Z</time>
</trkpt>
<trkpt lat="49.50404" lon="10.41673">
<ele>320.437</ele>
<time>2019-05-30T16:27:01Z</time>
</trkpt>
<trkpt lat="49.504032" lon="10.416732">
<ele>320.437</ele>
<time>2019-05-30T16:27:02Z</time>
</trkpt>
<trkpt lat="49.504036" lon="10.416761">
<ele>320.437</ele>
<time>2019-05-30T16:27:07Z</time>
</trkpt>
<trkpt lat="49.50404" lon="10.416757">
<ele>320.437</ele>
<time>2019-05-30T16:27:08Z</time>
</trkpt>
<trkpt lat="49.504051" lon="10.41677">
<ele>320.437</ele>
<time>2019-05-30T16:27:09Z</time>
</trkpt>
<trkpt lat="49.504051" lon="10.416781">
<ele>320.437</ele>
<time>2019-05-30T16:27:10Z</time>
</trkpt>
<trkpt lat="49.504055" lon="10.416805">
<ele>320.437</ele>
<time>2019-05-30T16:27:11Z</time>
</trkpt>
<trkpt lat="49.504055" lon="10.416795">
<ele>320.437</ele>
<time>2019-05-30T16:27:12Z</time>
</trkpt>
<trkpt lat="49.504059" lon="10.416812">
<ele>320.437</ele>
<time>2019-05-30T16:27:13Z</time>
</trkpt>
<trkpt lat="49.504063" lon="10.416808">
<ele>320.437</ele>
<time>2019-05-30T16:27:14Z</time>
</trkpt>
<trkpt lat="49.504063" lon="10.416807">
<ele>320.437</ele>
<time>2019-05-30T16:27:15Z</time>
</trkpt>
<trkpt lat="49.504063" lon="10.416814">
<ele>320.437</ele>
<time>2019-05-30T16:27:16Z</time>
</trkpt>
<trkpt lat="49.504066" lon="10.416734">
<ele>320.437</ele>
<time>2019-05-30T16:27:21Z</time>
</trkpt>
<trkpt lat="49.504066" lon="10.416723">
<ele>320.437</ele>
<time>2019-05-30T16:27:22Z</time>
</trkpt>
<trkpt lat="49.50407" lon="10.416709">
<ele>320.437</ele>
<time>2019-05-30T16:27:23Z</time>
</trkpt>
<trkpt lat="49.50407" lon="10.416725">
<ele>320.437</ele>
<time>2019-05-30T16:27:24Z</time>
</trkpt>
<trkpt lat="49.504078" lon="10.416683">
<ele>320.437</ele>
<time>2019-05-30T16:27:25Z</time>
</trkpt>
<trkpt lat="49.504086" lon="10.416638">
<ele>320.437</ele>
<time>2019-05-30T16:27:26Z</time>
</trkpt>
<trkpt lat="49.504086" lon="10.416634">
<ele>320.437</ele>
<time>2019-05-30T16:27:27Z</time>
</trkpt>
<trkpt lat="49.504097" lon="10.416573">
<ele>320.437</ele>
<time>2019-05-30T16:27:28Z</time>
</trkpt>
<trkpt lat="49.504101" lon="10.416556">
<ele>320.437</ele>
<time>2019-05-30T16:27:29Z</time>
</trkpt>
<trkpt lat="49.504112" lon="10.416533">
<ele>320.437</ele>
<time>2019-05-30T16:27:30Z</time>
</trkpt>
<trkpt lat="49.504116" lon="10.416556">
<ele>320.437</ele>
<time>2019-05-30T16:27:31Z</time>
</trkpt>
<trkpt lat="49.50412" lon="10.416543">
<ele>320.437</ele>
<time>2019-05-30T16:27:32Z</time>
</trkpt>
<trkpt lat="49.504124" lon="10.416543">
<ele>320.437</ele>
<time>2019-05-30T16:27:33Z</time>
</trkpt>
<trkpt lat="49.504128" lon="10.416538">
<ele>320.437</ele>
<time>2019-05-30T16:27:34Z</time>
</trkpt>
<trkpt lat="49.50412" lon="10.416556">
<ele>320.437</ele>
<time>2019-05-30T16:27:35Z</time>
</trkpt>
<trkpt lat="49.504112" lon="10.41658">
<ele>320.437</ele>
<time>2019-05-30T16:27:36Z</time>
</trkpt>
<trkpt lat="49.504086" lon="10.416623">
<ele>320.437</ele>
<time>2019-05-30T16:27:47Z</time>
</trkpt>
<trkpt lat="49.504086" lon="10.416608">
<ele>320.437</ele>
<time>2019-05-30T16:27:48Z</time>
</trkpt>
<trkpt lat="49.504089" lon="10.416602">
<ele>320.437</ele>
<time>2019-05-30T16:27:49Z</time>
</trkpt>
<trkpt lat="49.504089" lon="10.416594">
<ele>320.437</ele>
<time>2019-05-30T16:27:50Z</time>
</trkpt>
<trkpt lat="49.504105" lon="10.416589">
<ele>320.437</ele>
<time>2019-05-30T16:27:51Z</time>
</trkpt>
<trkpt lat="49.504108" lon="10.416578">
<ele>320.437</ele>
<time>2019-05-30T16:27:52Z</time>
</trkpt>
<trkpt lat="49.504116" lon="10.416571">
<ele>320.437</ele>
<time>2019-05-30T16:27:53Z</time>
</trkpt>
<trkpt lat="49.50412" lon="10.416562">
<ele>320.437</ele>
<time>2019-05-30T16:27:54Z</time>
</trkpt>
<trkpt lat="49.50412" lon="10.416553">
<ele>320.437</ele>
<time>2019-05-30T16:27:55Z</time>
</trkpt>
<trkpt lat="49.50412" lon="10.41655">
<ele>320.437</ele>
<time>2019-05-30T16:27:56Z</time>
</trkpt>
<trkpt lat="49.504124" lon="10.416531">
<ele>320.437</ele>
<time>2019-05-30T16:27:57Z</time>
</trkpt>
<trkpt lat="49.504124" lon="10.4165">
<ele>320.437</ele>
<time>2019-05-30T16:27:59Z</time>
</trkpt>
<trkpt lat="49.504135" lon="10.416489">
<ele>320.437</ele>
<time>2019-05-30T16:28:00Z</time>
</trkpt>
<trkpt lat="49.504143" lon="10.416471">
<ele>320.437</ele>
<time>2019-05-30T16:28:01Z</time>
</trkpt>
<trkpt lat="49.50415" lon="10.416458">
<ele>320.437</ele>
<time>2019-05-30T16:28:02Z</time>
</trkpt>
<trkpt lat="49.504154" lon="10.416445">
<ele>320.437</ele>
<time>2019-05-30T16:28:03Z</time>
</trkpt>
<trkpt lat="49.504162" lon="10.416432">
<ele>320.437</ele>
<time>2019-05-30T16:28:05Z</time>
</trkpt>
<trkpt lat="49.504162" lon="10.416418">
<ele>320.437</ele>
<time>2019-05-30T16:28:06Z</time>
</trkpt>
<trkpt lat="49.504166" lon="10.416409">
<ele>320.437</ele>
<time>2019-05-30T16:28:07Z</time>
</trkpt>
<trkpt lat="49.504162" lon="10.416405">
<ele>320.437</ele>
<time>2019-05-30T16:28:08Z</time>
</trkpt>
<trkpt lat="49.504162" lon="10.416409">
<ele>320.437</ele>
<time>2019-05-30T16:28:09Z</time>
</trkpt>
<trkpt lat="49.504166" lon="10.4164">
<ele>320.437</ele>
<time>2019-05-30T16:28:10Z</time>
</trkpt>
<trkpt lat="49.504166" lon="10.416409">
<ele>320.437</ele>
<time>2019-05-30T16:28:11Z</time>
</trkpt>
<trkpt lat="49.504166" lon="10.416407">
<ele>320.437</ele>
<time>2019-05-30T16:28:12Z</time>
</trkpt>
<trkpt lat="49.504177" lon="10.41639">
<ele>320.437</ele>
<time>2019-05-30T16:28:13Z</time>
</trkpt>
<trkpt lat="49.504181" lon="10.416378">
<ele>320.437</ele>
<time>2019-05-30T16:28:14Z</time>
</trkpt>
<trkpt lat="49.504173" lon="10.416365">
<ele>320.437</ele>
<time>2019-05-30T16:28:15Z</time>
</trkpt>
<trkpt lat="49.504162" lon="10.41638">
<ele>320.437</ele>
<time>2019-05-30T16:28:16Z</time>
</trkpt>
<trkpt lat="49.504158" lon="10.416375">
<ele>320.437</ele>
<time>2019-05-30T16:28:17Z</time>
</trkpt>
<trkpt lat="49.50415" lon="10.416403">
<ele>320.437</ele>
<time>2019-05-30T16:28:18Z</time>
</trkpt>
<trkpt lat="49.504143" lon="10.41644">
<ele>320.437</ele>
<time>2019-05-30T16:28:20Z</time>
</trkpt>
<trkpt lat="49.504135" lon="10.416427">
<ele>320.437</ele>
<time>2019-05-30T16:28:21Z</time>
</trkpt>
<trkpt lat="49.504131" lon="10.416443">
<ele>320.437</ele>
<time>2019-05-30T16:28:22Z</time>
</trkpt>
<trkpt lat="49.504131" lon="10.416433">
<ele>320.437</ele>
<time>2019-05-30T16:28:23Z</time>
</trkpt>
<trkpt lat="49.504128" lon="10.416426">
<ele>320.437</ele>
<time>2019-05-30T16:28:24Z</time>
</trkpt>
<trkpt lat="49.504124" lon="10.416424">
<ele>320.437</ele>
<time>2019-05-30T16:28:25Z</time>
</trkpt>
<trkpt lat="49.504128" lon="10.41644">
<ele>320.437</ele>
<time>2019-05-30T16:28:26Z</time>
</trkpt>
<trkpt lat="49.504124" lon="10.416442">
<ele>320.437</ele>
<time>2019-05-30T16:28:27Z</time>
</trkpt>
<trkpt lat="49.504124" lon="10.416434">
<ele>320.437</ele>
<time>2019-05-30T16:28:28Z</time>
</trkpt>
<trkpt lat="49.504124" lon="10.416418">
<ele>320.437</ele>
<time>2019-05-30T16:28:29Z</time>
</trkpt>
<trkpt lat="49.504143" lon="10.416409">
<ele>320.437</ele>
<time>2019-05-30T16:28:30Z</time>
</trkpt>
<trkpt lat="49.504143" lon="10.416395">
<ele>320.437</ele>
<time>2019-05-30T16:28:31Z</time>
</trkpt>
<trkpt lat="49.504143" lon="10.416389">
<ele>320.437</ele>
<time>2019-05-30T16:28:32Z</time>
</trkpt>
<trkpt lat="49.504147" lon="10.416403">
<ele>320.437</ele>
<time>2019-05-30T16:28:33Z</time>
</trkpt>
<trkpt lat="49.504143" lon="10.416401">
<ele>320.437</ele>
<time>2019-05-30T16:28:34Z</time>
</trkpt>
<trkpt lat="49.504124" lon="10.416387">
<ele>320.437</ele>
<time>2019-05-30T16:28:35Z</time>
</trkpt>
<trkpt lat="49.50412" lon="10.416392">
<ele>320.437</ele>
<time>2019-05-30T16:28:36Z</time>
</trkpt>
<trkpt lat="49.504116" lon="10.4164">
<ele>320.437</ele>
<time>2019-05-30T16:28:37Z</time>
</trkpt>
<trkpt lat="49.504108" lon="10.416424">
<ele>320.437</ele>
<time>2019-05-30T16:28:38Z</time>
</trkpt>
<trkpt lat="49.504097" lon="10.416457">
<ele>320.437</ele>
<time>2019-05-30T16:28:39Z</time>
</trkpt>
<trkpt lat="49.504086" lon="10.416478">
<ele>320.437</ele>
<time>2019-05-30T16:28:40Z</time>
</trkpt>
<trkpt lat="49.504082" lon="10.416492">
<ele>320.437</ele>
<time>2019-05-30T16:28:41Z</time>
</trkpt>
<trkpt lat="49.504078" lon="10.416502">
<ele>320.437</ele>
<time>2019-05-30T16:28:42Z</time>
</trkpt>
<trkpt lat="49.504074" lon="10.416493">
<ele>320.437</ele>
<time>2019-05-30T16:28:43Z</time>
</trkpt>
<trkpt lat="49.504078" lon="10.416508">
<ele>320.437</ele>
<time>2019-05-30T16:28:44Z</time>
</trkpt>
<trkpt lat="49.504086" lon="10.416516">
<ele>320.437</ele>
<time>2019-05-30T16:28:45Z</time>
</trkpt>
<trkpt lat="49.504089" lon="10.416527">
<ele>320.437</ele>
<time>2019-05-30T16:28:46Z</time>
</trkpt>
<trkpt lat="49.504089" lon="10.416513">
<ele>320.437</ele>
<time>2019-05-30T16:28:47Z</time>
</trkpt>
<trkpt lat="49.504139" lon="10.416495">
<ele>320.437</ele>
<time>2019-05-30T16:28:57Z</time>
</trkpt>
<trkpt lat="49.504143" lon="10.416462">
<ele>320.437</ele>
<time>2019-05-30T16:28:58Z</time>
</trkpt>
<trkpt lat="49.504147" lon="10.416467">
<ele>320.437</ele>
<time>2019-05-30T16:28:59Z</time>
</trkpt>
<trkpt lat="49.504162" lon="10.416478">
<ele>320.437</ele>
<time>2019-05-30T16:29:00Z</time>
</trkpt>
<trkpt lat="49.504166" lon="10.416458">
<ele>320.437</ele>
<time>2019-05-30T16:29:01Z</time>
</trkpt>
<trkpt lat="49.504173" lon="10.416403">
<ele>320.437</ele>
<time>2019-05-30T16:29:02Z</time>
</trkpt>
<trkpt lat="49.504177" lon="10.416389">
<ele>320.437</ele>
<time>2019-05-30T16:29:03Z</time>
</trkpt>
<trkpt lat="49.504177" lon="10.416373">
<ele>320.437</ele>
<time>2019-05-30T16:29:04Z</time>
</trkpt>
<trkpt lat="49.504181" lon="10.41636">
<ele>320.437</ele>
<time>2019-05-30T16:29:05Z</time>
</trkpt>
<trkpt lat="49.504185" lon="10.416342">
<ele>320.437</ele>
<time>2019-05-30T16:29:06Z</time>
</trkpt>
<trkpt lat="49.504185" lon="10.416331">
<ele>320.437</ele>
<time>2019-05-30T16:29:07Z</time>
</trkpt>
<trkpt lat="49.504192" lon="10.416324">
<ele>320.437</ele>
<time>2019-05-30T16:29:08Z</time>
</trkpt>
<trkpt lat="49.504196" lon="10.416311">
<ele>320.437</ele>
<time>2019-05-30T16:29:09Z</time>
</trkpt>
<trkpt lat="49.504196" lon="10.416335">
<ele>320.437</ele>
<time>2019-05-30T16:29:10Z</time>
</trkpt>
<trkpt lat="49.504215" lon="10.416311">
<ele>320.437</ele>
<time>2019-05-30T16:29:11Z</time>
</trkpt>
<trkpt lat="49.504223" lon="10.416303">
<ele>320.437</ele>
<time>2019-05-30T16:29:12Z</time>
</trkpt>
<trkpt lat="49.504219" lon="10.416311">
<ele>320.437</ele>
<time>2019-05-30T16:29:13Z</time>
</trkpt>
<trkpt lat="49.504219" lon="10.41632">
<ele>320.437</ele>
<time>2019-05-30T16:29:14Z</time>
</trkpt>
<trkpt lat="49.504219" lon="10.416313">
<ele>320.437</ele>
<time>2019-05-30T16:29:15Z</time>
</trkpt>
<trkpt lat="49.504211" lon="10.416295">
<ele>320.437</ele>
<time>2019-05-30T16:29:16Z</time>
</trkpt>
<trkpt lat="49.504208" lon="10.416265">
<ele>320.437</ele>
<time>2019-05-30T16:29:17Z</time>
</trkpt>
<trkpt lat="49.504208" lon="10.416246">
<ele>320.437</ele>
<time>2019-05-30T16:29:18Z</time>
</trkpt>
<trkpt lat="49.504215" lon="10.416238">
<ele>320.437</ele>
<time>2019-05-30T16:29:19Z</time>
</trkpt>
<trkpt lat="49.504219" lon="10.416242">
<ele>320.437</ele>
<time>2019-05-30T16:29:20Z</time>
</trkpt>
<trkpt lat="49.504219" lon="10.416233">
<ele>320.437</ele>
<time>2019-05-30T16:29:21Z</time>
</trkpt>
<trkpt lat="49.504211" lon="10.416248">
<ele>320.437</ele>
<time>2019-05-30T16:29:22Z</time>
</trkpt>
<trkpt lat="49.504215" lon="10.416224">
<ele>320.437</ele>
<time>2019-05-30T16:29:23Z</time>
</trkpt>
<trkpt lat="49.504219" lon="10.416206">
<ele>320.437</ele>
<time>2019-05-30T16:29:24Z</time>
</trkpt>
<trkpt lat="49.504208" lon="10.416222">
<ele>320.437</ele>
<time>2019-05-30T16:29:25Z</time>
</trkpt>
<trkpt lat="49.5042" lon="10.416205">
<ele>320.437</ele>
<time>2019-05-30T16:29:26Z</time>
</trkpt>
<trkpt lat="49.504211" lon="10.416205">
<ele>320.437</ele>
<time>2019-05-30T16:29:27Z</time>
</trkpt>
<trkpt lat="49.504211" lon="10.41621">
<ele>320.437</ele>
<time>2019-05-30T16:29:28Z</time>
</trkpt>
<trkpt lat="49.504208" lon="10.416203">
<ele>320.437</ele>
<time>2019-05-30T16:29:29Z</time>
</trkpt>
<trkpt lat="49.5042" lon="10.416208">
<ele>320.437</ele>
<time>2019-05-30T16:29:30Z</time>
</trkpt>
<trkpt lat="49.504204" lon="10.416219">
<ele>320.437</ele>
<time>2019-05-30T16:29:31Z</time>
</trkpt>
<trkpt lat="49.504196" lon="10.416237">
<ele>320.437</ele>
<time>2019-05-30T16:29:32Z</time>
</trkpt>
<trkpt lat="49.504189" lon="10.41628">
<ele>320.437</ele>
<time>2019-05-30T16:29:33Z</time>
</trkpt>
<trkpt lat="49.504185" lon="10.416322">
<ele>320.437</ele>
<time>2019-05-30T16:29:34Z</time>
</trkpt>
<trkpt lat="49.504177" lon="10.416345">
<ele>320.437</ele>
<time>2019-05-30T16:29:35Z</time>
</trkpt>
<trkpt lat="49.504162" lon="10.416352">
<ele>320.437</ele>
<time>2019-05-30T16:29:36Z</time>
</trkpt>
<trkpt lat="49.504158" lon="10.416375">
<ele>320.437</ele>
<time>2019-05-30T16:29:37Z</time>
</trkpt>
<trkpt lat="49.504158" lon="10.416392">
<ele>320.437</ele>
<time>2019-05-30T16:29:38Z</time>
</trkpt>
<trkpt lat="49.504158" lon="10.416418">
<ele>320.437</ele>
<time>2019-05-30T16:29:39Z</time>
</trkpt>
<trkpt lat="49.504162" lon="10.416436">
<ele>320.437</ele>
<time>2019-05-30T16:29:40Z</time>
</trkpt>
<trkpt lat="49.504158" lon="10.416476">
<ele>320.437</ele>
<time>2019-05-30T16:29:41Z</time>
</trkpt>
<trkpt lat="49.504166" lon="10.416495">
<ele>320.437</ele>
<time>2019-05-30T16:29:42Z</time>
</trkpt>
<trkpt lat="49.504166" lon="10.41651">
<ele>320.437</ele>
<time>2019-05-30T16:29:43Z</time>
</trkpt>
<trkpt lat="49.504166" lon="10.416518">
<ele>320.437</ele>
<time>2019-05-30T16:29:44Z</time>
</trkpt>
<trkpt lat="49.504166" lon="10.416548">
<ele>320.437</ele>
<time>2019-05-30T16:29:45Z</time>
</trkpt>
<trkpt lat="49.504154" lon="10.416552">
<ele>320.437</ele>
<time>2019-05-30T16:29:46Z</time>
</trkpt>
<trkpt lat="49.504154" lon="10.416545">
<ele>320.437</ele>
<time>2019-05-30T16:29:47Z</time>
</trkpt>
<trkpt lat="49.504139" lon="10.416537">
<ele>320.437</ele>
<time>2019-05-30T16:29:48Z</time>
</trkpt>
<trkpt lat="49.504135" lon="10.416538">
<ele>320.437</ele>
<time>2019-05-30T16:29:49Z</time>
</trkpt>
<trkpt lat="49.504135" lon="10.416548">
<ele>320.437</ele>
<time>2019-05-30T16:29:50Z</time>
</trkpt>
<trkpt lat="49.504131" lon="10.416567">
<ele>320.437</ele>
<time>2019-05-30T16:29:51Z</time>
</trkpt>
<trkpt lat="49.504128" lon="10.416548">
<ele>320.437</ele>
<time>2019-05-30T16:29:52Z</time>
</trkpt>
<trkpt lat="49.504128" lon="10.416539">
<ele>320.437</ele>
<time>2019-05-30T16:29:53Z</time>
</trkpt>
<trkpt lat="49.504135" lon="10.416527">
<ele>320.437</ele>
<time>2019-05-30T16:29:54Z</time>
</trkpt>
<trkpt lat="49.504135" lon="10.416531">
<ele>320.437</ele>
<time>2019-05-30T16:29:55Z</time>
</trkpt>
<trkpt lat="49.504128" lon="10.41655">
<ele>320.437</ele>
<time>2019-05-30T16:29:56Z</time>
</trkpt>
<trkpt lat="49.504124" lon="10.416556">
<ele>320.437</ele>
<time>2019-05-30T16:29:57Z</time>
</trkpt>
<trkpt lat="49.50412" lon="10.416545">
<ele>320.437</ele>
<time>2019-05-30T16:29:58Z</time>
</trkpt>
<trkpt lat="49.50412" lon="10.416538">
<ele>320.437</ele>
<time>2019-05-30T16:29:59Z</time>
</trkpt>
<trkpt lat="49.504112" lon="10.416535">
<ele>320.437</ele>
<time>2019-05-30T16:30:00Z</time>
</trkpt>
<trkpt lat="49.504112" lon="10.416527">
<ele>320.437</ele>
<time>2019-05-30T16:30:01Z</time>
</trkpt>
<trkpt lat="49.50412" lon="10.416505">
<ele>320.437</ele>
<time>2019-05-30T16:30:02Z</time>
</trkpt>
<trkpt lat="49.504124" lon="10.41648">
<ele>320.437</ele>
<time>2019-05-30T16:30:03Z</time>
</trkpt>
<trkpt lat="49.50412" lon="10.416467">
<ele>320.437</ele>
<time>2019-05-30T16:30:04Z</time>
</trkpt>
<trkpt lat="49.504143" lon="10.416398">
<ele>320.437</ele>
<time>2019-05-30T16:30:08Z</time>
</trkpt>
<trkpt lat="49.504139" lon="10.416382">
<ele>320.437</ele>
<time>2019-05-30T16:30:09Z</time>
</trkpt>
<trkpt lat="49.50412" lon="10.416422">
<ele>320.437</ele>
<time>2019-05-30T16:30:10Z</time>
</trkpt>
<trkpt lat="49.50412" lon="10.416434">
<ele>320.437</ele>
<time>2019-05-30T16:30:11Z</time>
</trkpt>
<trkpt lat="49.504128" lon="10.416426">
<ele>320.437</ele>
<time>2019-05-30T16:30:12Z</time>
</trkpt>
<trkpt lat="49.50412" lon="10.41644">
<ele>320.437</ele>
<time>2019-05-30T16:30:13Z</time>
</trkpt>
<trkpt lat="49.504116" lon="10.416451">
<ele>320.437</ele>
<time>2019-05-30T16:30:14Z</time>
</trkpt>
<trkpt lat="49.504116" lon="10.416453">
<ele>320.437</ele>
<time>2019-05-30T16:30:15Z</time>
</trkpt>
<trkpt lat="49.504013" lon="10.416523">
<ele>320.437</ele>
<time>2019-05-30T16:30:32Z</time>
</trkpt>
<trkpt lat="49.504002" lon="10.416539">
<ele>320.437</ele>
<time>2019-05-30T16:30:33Z</time>
</trkpt>
<trkpt lat="49.503994" lon="10.416562">
<ele>320.437</ele>
<time>2019-05-30T16:30:34Z</time>
</trkpt>
<trkpt lat="49.50399" lon="10.416567">
<ele>320.437</ele>
<time>2019-05-30T16:30:35Z</time>
</trkpt>
<trkpt lat="49.50399" lon="10.416572">
<ele>320.437</ele>
<time>2019-05-30T16:30:36Z</time>
</trkpt>
<trkpt lat="49.503986" lon="10.416573">
<ele>320.437</ele>
<time>2019-05-30T16:30:37Z</time>
</trkpt>
<trkpt lat="49.50399" lon="10.416572">
<ele>320.437</ele>
<time>2019-05-30T16:30:38Z</time>
</trkpt>
<trkpt lat="49.50399" lon="10.416589">
<ele>320.437</ele>
<time>2019-05-30T16:30:39Z</time>
</trkpt>
<trkpt lat="49.503986" lon="10.416589">
<ele>320.437</ele>
<time>2019-05-30T16:30:40Z</time>
</trkpt>
<trkpt lat="49.503975" lon="10.416618">
<ele>320.437</ele>
<time>2019-05-30T16:30:41Z</time>
</trkpt>
<trkpt lat="49.503971" lon="10.416621">
<ele>320.437</ele>
<time>2019-05-30T16:30:42Z</time>
</trkpt>
<trkpt lat="49.503963" lon="10.41662">
<ele>320.437</ele>
<time>2019-05-30T16:30:43Z</time>
</trkpt>
<trkpt lat="49.503956" lon="10.416636">
<ele>320.437</ele>
<time>2019-05-30T16:30:44Z</time>
</trkpt>
<trkpt lat="49.503944" lon="10.416645">
<ele>320.437</ele>
<time>2019-05-30T16:30:45Z</time>
</trkpt>
<trkpt lat="49.503937" lon="10.416665">
<ele>320.437</ele>
<time>2019-05-30T16:30:46Z</time>
</trkpt>
<trkpt lat="49.503933" lon="10.416677">
<ele>320.437</ele>
<time>2019-05-30T16:30:47Z</time>
</trkpt>
<trkpt lat="49.503948" lon="10.41665">
<ele>320.437</ele>
<time>2019-05-30T16:30:48Z</time>
</trkpt>
<trkpt lat="49.50396" lon="10.416618">
<ele>320.437</ele>
<time>2019-05-30T16:30:49Z</time>
</trkpt>
<trkpt lat="49.503948" lon="10.416648">
<ele>320.437</ele>
<time>2019-05-30T16:30:50Z</time>
</trkpt>
<trkpt lat="49.503914" lon="10.416711">
<ele>320.437</ele>
<time>2019-05-30T16:30:52Z</time>
</trkpt>
<trkpt lat="49.503922" lon="10.416702">
<ele>320.437</ele>
<time>2019-05-30T16:30:53Z</time>
</trkpt>
<trkpt lat="49.503925" lon="10.416698">
<ele>320.437</ele>
<time>2019-05-30T16:30:54Z</time>
</trkpt>
<trkpt lat="49.503925" lon="10.416697">
<ele>320.437</ele>
<time>2019-05-30T16:30:55Z</time>
</trkpt>
<trkpt lat="49.503941" lon="10.416677">
<ele>320.437</ele>
<time>2019-05-30T16:30:56Z</time>
</trkpt>
<trkpt lat="49.503944" lon="10.416686">
<ele>320.437</ele>
<time>2019-05-30T16:30:57Z</time>
</trkpt>
<trkpt lat="49.503941" lon="10.416694">
<ele>320.437</ele>
<time>2019-05-30T16:30:58Z</time>
</trkpt>
<trkpt lat="49.503941" lon="10.416683">
<ele>320.437</ele>
<time>2019-05-30T16:30:59Z</time>
</trkpt>
<trkpt lat="49.503948" lon="10.416681">
<ele>320.437</ele>
<time>2019-05-30T16:31:00Z</time>
</trkpt>
<trkpt lat="49.503929" lon="10.416774">
<ele>320.437</ele>
<time>2019-05-30T16:31:06Z</time>
</trkpt>
<trkpt lat="49.503929" lon="10.416786">
<ele>320.437</ele>
<time>2019-05-30T16:31:07Z</time>
</trkpt>
<trkpt lat="49.503925" lon="10.416799">
<ele>320.437</ele>
<time>2019-05-30T16:31:08Z</time>
</trkpt>
<trkpt lat="49.503925" lon="10.416777">
<ele>320.437</ele>
<time>2019-05-30T16:31:09Z</time>
</trkpt>
<trkpt lat="49.503922" lon="10.416765">
<ele>320.437</ele>
<time>2019-05-30T16:31:10Z</time>
</trkpt>
<trkpt lat="49.503914" lon="10.416763">
<ele>320.437</ele>
<time>2019-05-30T16:31:11Z</time>
</trkpt>
<trkpt lat="49.503914" lon="10.416748">
<ele>320.437</ele>
<time>2019-05-30T16:31:12Z</time>
</trkpt>
<trkpt lat="49.503925" lon="10.416737">
<ele>320.437</ele>
<time>2019-05-30T16:31:13Z</time>
</trkpt>
<trkpt lat="49.503933" lon="10.416709">
<ele>320.437</ele>
<time>2019-05-30T16:31:14Z</time>
</trkpt>
<trkpt lat="49.503937" lon="10.416702">
<ele>320.437</ele>
<time>2019-05-30T16:31:15Z</time>
</trkpt>
<trkpt lat="49.503922" lon="10.416739">
<ele>320.437</ele>
<time>2019-05-30T16:31:16Z</time>
</trkpt>
<trkpt lat="49.503918" lon="10.41674">
<ele>320.437</ele>
<time>2019-05-30T16:31:17Z</time>
</trkpt>
<trkpt lat="49.503925" lon="10.416674">
<ele>320.437</ele>
<time>2019-05-30T16:31:18Z</time>
</trkpt>
<trkpt lat="49.503925" lon="10.416658">
<ele>320.437</ele>
<time>2019-05-30T16:31:19Z</time>
</trkpt>
<trkpt lat="49.503925" lon="10.41667">
<ele>320.437</ele>
<time>2019-05-30T16:31:20Z</time>
</trkpt>
<trkpt lat="49.50396" lon="10.416625">
<ele>320.437</ele>
<time>2019-05-30T16:31:24Z</time>
</trkpt>
<trkpt lat="49.50396" lon="10.416645">
<ele>320.437</ele>
<time>2019-05-30T16:31:25Z</time>
</trkpt>
<trkpt lat="49.503963" lon="10.416669">
<ele>320.437</ele>
<time>2019-05-30T16:31:26Z</time>
</trkpt>
<trkpt lat="49.503983" lon="10.416655">
<ele>320.437</ele>
<time>2019-05-30T16:31:27Z</time>
</trkpt>
<trkpt lat="49.503983" lon="10.41666">
<ele>320.437</ele>
<time>2019-05-30T16:31:28Z</time>
</trkpt>
<trkpt lat="49.50399" lon="10.416643">
<ele>320.437</ele>
<time>2019-05-30T16:31:29Z</time>
</trkpt>
<trkpt lat="49.50399" lon="10.416648">
<ele>320.437</ele>
<time>2019-05-30T16:31:30Z</time>
</trkpt>
<trkpt lat="49.503986" lon="10.416645">
<ele>320.437</ele>
<time>2019-05-30T16:31:31Z</time>
</trkpt>
<trkpt lat="49.50399" lon="10.416669">
<ele>320.437</ele>
<time>2019-05-30T16:31:32Z</time>
</trkpt>
<trkpt lat="49.503986" lon="10.416695">
<ele>320.437</ele>
<time>2019-05-30T16:31:33Z</time>
</trkpt>
<trkpt lat="49.503979" lon="10.416721">
<ele>320.437</ele>
<time>2019-05-30T16:31:34Z</time>
</trkpt>
<trkpt lat="49.503986" lon="10.416715">
<ele>320.437</ele>
<time>2019-05-30T16:31:35Z</time>
</trkpt>
<trkpt lat="49.504002" lon="10.416709">
<ele>320.437</ele>
<time>2019-05-30T16:31:36Z</time>
</trkpt>
<trkpt lat="49.504002" lon="10.416721">
<ele>320.437</ele>
<time>2019-05-30T16:31:37Z</time>
</trkpt>
<trkpt lat="49.50399" lon="10.416728">
<ele>320.437</ele>
<time>2019-05-30T16:31:38Z</time>
</trkpt>
<trkpt lat="49.503971" lon="10.416713">
<ele>320.437</ele>
<time>2019-05-30T16:31:39Z</time>
</trkpt>
<trkpt lat="49.50396" lon="10.416727">
<ele>320.437</ele>
<time>2019-05-30T16:31:40Z</time>
</trkpt>
<trkpt lat="49.50396" lon="10.416694">
<ele>320.437</ele>
<time>2019-05-30T16:31:41Z</time>
</trkpt>
<trkpt lat="49.503975" lon="10.416629">
<ele>320.437</ele>
<time>2019-05-30T16:31:42Z</time>
</trkpt>
<trkpt lat="49.503986" lon="10.416613">
<ele>320.437</ele>
<time>2019-05-30T16:31:43Z</time>
</trkpt>
<trkpt lat="49.50399" lon="10.416627">
<ele>320.437</ele>
<time>2019-05-30T16:31:44Z</time>
</trkpt>
<trkpt lat="49.504074" lon="10.416427">
<ele>320.437</ele>
<time>2019-05-30T16:31:46Z</time>
</trkpt>
<trkpt lat="49.504089" lon="10.416434">
<ele>320.437</ele>
<time>2019-05-30T16:31:47Z</time>
</trkpt>
<trkpt lat="49.504105" lon="10.41645">
<ele>320.437</ele>
<time>2019-05-30T16:31:48Z</time>
</trkpt>
<trkpt lat="49.504112" lon="10.416453">
<ele>320.437</ele>
<time>2019-05-30T16:31:49Z</time>
</trkpt>
<trkpt lat="49.504124" lon="10.416558">
<ele>320.437</ele>
<time>2019-05-30T16:32:13Z</time>
</trkpt>
<trkpt lat="49.504124" lon="10.41656">
<ele>320.437</ele>
<time>2019-05-30T16:32:14Z</time>
</trkpt>
<trkpt lat="49.504128" lon="10.416572">
<ele>320.437</ele>
<time>2019-05-30T16:32:15Z</time>
</trkpt>
<trkpt lat="49.504124" lon="10.416581">
<ele>320.437</ele>
<time>2019-05-30T16:32:16Z</time>
</trkpt>
<trkpt lat="49.504124" lon="10.41659">
<ele>320.437</ele>
<time>2019-05-30T16:32:17Z</time>
</trkpt>
<trkpt lat="49.504135" lon="10.416594">
<ele>320.437</ele>
<time>2019-05-30T16:32:18Z</time>
</trkpt>
<trkpt lat="49.504143" lon="10.416594">
<ele>320.437</ele>
<time>2019-05-30T16:32:19Z</time>
</trkpt>
<trkpt lat="49.504128" lon="10.416629">
<ele>320.437</ele>
<time>2019-05-30T16:32:20Z</time>
</trkpt>
<trkpt lat="49.504124" lon="10.416652">
<ele>320.437</ele>
<time>2019-05-30T16:32:21Z</time>
</trkpt>
<trkpt lat="49.50412" lon="10.41666">
<ele>320.437</ele>
<time>2019-05-30T16:32:22Z</time>
</trkpt>
<trkpt lat="49.50412" lon="10.416661">
<ele>320.437</ele>
<time>2019-05-30T16:32:23Z</time>
</trkpt>
<trkpt lat="49.50412" lon="10.416663">
<ele>320.437</ele>
<time>2019-05-30T16:32:24Z</time>
</trkpt>
<trkpt lat="49.504128" lon="10.416646">
<ele>320.437</ele>
<time>2019-05-30T16:32:25Z</time>
</trkpt>
<trkpt lat="49.504147" lon="10.416623">
<ele>320.437</ele>
<time>2019-05-30T16:32:26Z</time>
</trkpt>
<trkpt lat="49.504154" lon="10.416606">
<ele>320.437</ele>
<time>2019-05-30T16:32:27Z</time>
</trkpt>
<trkpt lat="49.504162" lon="10.4166">
<ele>320.437</ele>
<time>2019-05-30T16:32:28Z</time>
</trkpt>
<trkpt lat="49.504173" lon="10.416574">
<ele>320.437</ele>
<time>2019-05-30T16:32:29Z</time>
</trkpt>
<trkpt lat="49.504169" lon="10.416562">
<ele>320.437</ele>
<time>2019-05-30T16:32:30Z</time>
</trkpt>
<trkpt lat="49.504169" lon="10.41655">
<ele>320.437</ele>
<time>2019-05-30T16:32:31Z</time>
</trkpt>
<trkpt lat="49.504169" lon="10.416538">
<ele>320.437</ele>
<time>2019-05-30T16:32:32Z</time>
</trkpt>
<trkpt lat="49.504173" lon="10.416537">
<ele>320.437</ele>
<time>2019-05-30T16:32:33Z</time>
</trkpt>
<trkpt lat="49.504158" lon="10.416545">
<ele>320.437</ele>
<time>2019-05-30T16:32:34Z</time>
</trkpt>
<trkpt lat="49.504147" lon="10.416553">
<ele>320.437</ele>
<time>2019-05-30T16:32:35Z</time>
</trkpt>
<trkpt lat="49.504143" lon="10.416573">
<ele>320.437</ele>
<time>2019-05-30T16:32:36Z</time>
</trkpt>
<trkpt lat="49.504131" lon="10.41658">
<ele>320.437</ele>
<time>2019-05-30T16:32:37Z</time>
</trkpt>
<trkpt lat="49.504124" lon="10.416587">
<ele>320.437</ele>
<time>2019-05-30T16:32:38Z</time>
</trkpt>
<trkpt lat="49.504116" lon="10.416598">
<ele>320.437</ele>
<time>2019-05-30T16:32:39Z</time>
</trkpt>
<trkpt lat="49.504105" lon="10.416605">
<ele>320.437</ele>
<time>2019-05-30T16:32:40Z</time>
</trkpt>
<trkpt lat="49.504086" lon="10.416654">
<ele>320.437</ele>
<time>2019-05-30T16:32:44Z</time>
</trkpt>
<trkpt lat="49.504086" lon="10.416638">
<ele>320.437</ele>
<time>2019-05-30T16:32:45Z</time>
</trkpt>
<trkpt lat="49.504086" lon="10.416629">
<ele>320.437</ele>
<time>2019-05-30T16:32:46Z</time>
</trkpt>
<trkpt lat="49.504078" lon="10.416636">
<ele>320.437</ele>
<time>2019-05-30T16:32:47Z</time>
</trkpt>
<trkpt lat="49.504089" lon="10.416625">
<ele>320.437</ele>
<time>2019-05-30T16:32:51Z</time>
</trkpt>
<trkpt lat="49.504074" lon="10.416643">
<ele>320.437</ele>
<time>2019-05-30T16:32:52Z</time>
</trkpt>
<trkpt lat="49.50407" lon="10.416665">
<ele>320.437</ele>
<time>2019-05-30T16:32:53Z</time>
</trkpt>
<trkpt lat="49.504059" lon="10.416661">
<ele>320.437</ele>
<time>2019-05-30T16:32:54Z</time>
</trkpt>
<trkpt lat="49.504055" lon="10.41667">
<ele>320.437</ele>
<time>2019-05-30T16:32:55Z</time>
</trkpt>
<trkpt lat="49.504055" lon="10.416678">
<ele>320.437</ele>
<time>2019-05-30T16:32:56Z</time>
</trkpt>
<trkpt lat="49.504055" lon="10.416702">
<ele>320.437</ele>
<time>2019-05-30T16:32:57Z</time>
</trkpt>
<trkpt lat="49.504051" lon="10.416734">
<ele>320.437</ele>
<time>2019-05-30T16:32:58Z</time>
</trkpt>
<trkpt lat="49.504051" lon="10.416746">
<ele>320.437</ele>
<time>2019-05-30T16:32:59Z</time>
</trkpt>
<trkpt lat="49.50404" lon="10.416753">
<ele>320.437</ele>
<time>2019-05-30T16:33:00Z</time>
</trkpt>
<trkpt lat="49.504036" lon="10.416745">
<ele>320.437</ele>
<time>2019-05-30T16:33:01Z</time>
</trkpt>
<trkpt lat="49.504025" lon="10.416761">
<ele>320.437</ele>
<time>2019-05-30T16:33:02Z</time>
</trkpt>
<trkpt lat="49.504032" lon="10.416757">
<ele>320.437</ele>
<time>2019-05-30T16:33:03Z</time>
</trkpt>
<trkpt lat="49.504036" lon="10.416759">
<ele>320.437</ele>
<time>2019-05-30T16:33:04Z</time>
</trkpt>
<trkpt lat="49.504036" lon="10.416767">
<ele>320.437</ele>
<time>2019-05-30T16:33:05Z</time>
</trkpt>
<trkpt lat="49.50404" lon="10.416774">
<ele>320.437</ele>
<time>2019-05-30T16:33:06Z</time>
</trkpt>
<trkpt lat="49.504028" lon="10.416763">
<ele>320.437</ele>
<time>2019-05-30T16:33:07Z</time>
</trkpt>
<trkpt lat="49.504032" lon="10.416772">
<ele>320.437</ele>
<time>2019-05-30T16:33:08Z</time>
</trkpt>
<trkpt lat="49.504036" lon="10.416777">
<ele>320.437</ele>
<time>2019-05-30T16:33:09Z</time>
</trkpt>
<trkpt lat="49.504025" lon="10.416795">
<ele>320.437</ele>
<time>2019-05-30T16:33:10Z</time>
</trkpt>
<trkpt lat="49.504025" lon="10.416808">
<ele>320.437</ele>
<time>2019-05-30T16:33:11Z</time>
</trkpt>
<trkpt lat="49.504017" lon="10.416823">
<ele>320.437</ele>
<time>2019-05-30T16:33:12Z</time>
</trkpt>
<trkpt lat="49.504002" lon="10.41682">
<ele>320.437</ele>
<time>2019-05-30T16:33:13Z</time>
</trkpt>
<trkpt lat="49.50399" lon="10.416839">
<ele>320.437</ele>
<time>2019-05-30T16:33:14Z</time>
</trkpt>
<trkpt lat="49.503967" lon="10.416849">
<ele>320.437</ele>
<time>2019-05-30T16:33:15Z</time>
</trkpt>
<trkpt lat="49.503952" lon="10.416845">
<ele>320.437</ele>
<time>2019-05-30T16:33:16Z</time>
</trkpt>
<trkpt lat="49.503948" lon="10.416849">
<ele>320.437</ele>
<time>2019-05-30T16:33:17Z</time>
</trkpt>
<trkpt lat="49.503948" lon="10.416845">
<ele>320.437</ele>
<time>2019-05-30T16:33:18Z</time>
</trkpt>
<trkpt lat="49.503944" lon="10.416847">
<ele>320.437</ele>
<time>2019-05-30T16:33:19Z</time>
</trkpt>
<trkpt lat="49.503941" lon="10.416858">
<ele>320.437</ele>
<time>2019-05-30T16:33:20Z</time>
</trkpt>
<trkpt lat="49.503948" lon="10.416866">
<ele>320.437</ele>
<time>2019-05-30T16:33:21Z</time>
</trkpt>
<trkpt lat="49.503941" lon="10.416851">
<ele>320.437</ele>
<time>2019-05-30T16:33:22Z</time>
</trkpt>
<trkpt lat="49.503952" lon="10.416849">
<ele>320.437</ele>
<time>2019-05-30T16:33:23Z</time>
</trkpt>
<trkpt lat="49.503963" lon="10.416849">
<ele>320.437</ele>
<time>2019-05-30T16:33:24Z</time>
</trkpt>
<trkpt lat="49.503963" lon="10.416839">
<ele>320.437</ele>
<time>2019-05-30T16:33:25Z</time>
</trkpt>
<trkpt lat="49.503983" lon="10.416843">
<ele>320.437</ele>
<time>2019-05-30T16:33:30Z</time>
</trkpt>
<trkpt lat="49.503986" lon="10.416853">
<ele>320.437</ele>
<time>2019-05-30T16:33:31Z</time>
</trkpt>
<trkpt lat="49.50399" lon="10.416865">
<ele>320.437</ele>
<time>2019-05-30T16:33:32Z</time>
</trkpt>
<trkpt lat="49.504002" lon="10.416866">
<ele>320.437</ele>
<time>2019-05-30T16:33:33Z</time>
</trkpt>
<trkpt lat="49.504013" lon="10.416857">
<ele>320.437</ele>
<time>2019-05-30T16:33:34Z</time>
</trkpt>
<trkpt lat="49.504025" lon="10.416862">
<ele>320.437</ele>
<time>2019-05-30T16:33:35Z</time>
</trkpt>
<trkpt lat="49.50404" lon="10.416862">
<ele>320.437</ele>
<time>2019-05-30T16:33:36Z</time>
</trkpt>
<trkpt lat="49.504051" lon="10.416857">
<ele>320.437</ele>
<time>2019-05-30T16:33:37Z</time>
</trkpt>
<trkpt lat="49.504063" lon="10.416843">
<ele>320.437</ele>
<time>2019-05-30T16:33:38Z</time>
</trkpt>
<trkpt lat="49.50407" lon="10.416833">
<ele>320.437</ele>
<time>2019-05-30T16:33:39Z</time>
</trkpt>
<trkpt lat="49.50407" lon="10.416828">
<ele>320.437</ele>
<time>2019-05-30T16:33:40Z</time>
</trkpt>
<trkpt lat="49.504078" lon="10.416816">
<ele>320.437</ele>
<time>2019-05-30T16:33:41Z</time>
</trkpt>
<trkpt lat="49.504078" lon="10.416826">
<ele>320.437</ele>
<time>2019-05-30T16:33:42Z</time>
</trkpt>
<trkpt lat="49.504082" lon="10.416823">
<ele>320.437</ele>
<time>2019-05-30T16:33:43Z</time>
</trkpt>
<trkpt lat="49.504078" lon="10.416828">
<ele>320.437</ele>
<time>2019-05-30T16:33:44Z</time>
</trkpt>
<trkpt lat="49.504078" lon="10.41679">
<ele>320.437</ele>
<time>2019-05-30T16:33:52Z</time>
</trkpt>
<trkpt lat="49.504078" lon="10.416786">
<ele>320.437</ele>
<time>2019-05-30T16:33:53Z</time>
</trkpt>
<trkpt lat="49.504082" lon="10.416767">
<ele>320.437</ele>
<time>2019-05-30T16:33:54Z</time>
</trkpt>
<trkpt lat="49.504086" lon="10.416759">
<ele>320.437</ele>
<time>2019-05-30T16:33:55Z</time>
</trkpt>
<trkpt lat="49.50412" lon="10.416767">
<ele>320.437</ele>
<time>2019-05-30T16:34:14Z</time>
</trkpt>
<trkpt lat="49.50412" lon="10.416759">
<ele>320.437</ele>
<time>2019-05-30T16:34:15Z</time>
</trkpt>
<trkpt lat="49.50412" lon="10.416765">
<ele>320.437</ele>
<time>2019-05-30T16:34:16Z</time>
</trkpt>
<trkpt lat="49.50412" lon="10.416774">
<ele>320.437</ele>
<time>2019-05-30T16:34:17Z</time>
</trkpt>
<trkpt lat="49.504124" lon="10.416776">
<ele>320.437</ele>
<time>2019-05-30T16:34:18Z</time>
</trkpt>
<trkpt lat="49.50412" lon="10.41677">
<ele>320.437</ele>
<time>2019-05-30T16:34:19Z</time>
</trkpt>
<trkpt lat="49.50412" lon="10.416765">
<ele>320.437</ele>
<time>2019-05-30T16:34:20Z</time>
</trkpt>
<trkpt lat="49.50412" lon="10.416759">
<ele>320.437</ele>
<time>2019-05-30T16:34:21Z</time>
</trkpt>
<trkpt lat="49.504135" lon="10.416681">
<ele>320.437</ele>
<time>2019-05-30T16:34:36Z</time>
</trkpt>
<trkpt lat="49.504135" lon="10.416676">
<ele>320.437</ele>
<time>2019-05-30T16:34:37Z</time>
</trkpt>
<trkpt lat="49.504128" lon="10.416674">
<ele>320.437</ele>
<time>2019-05-30T16:34:38Z</time>
</trkpt>
<trkpt lat="49.504128" lon="10.416667">
<ele>320.437</ele>
<time>2019-05-30T16:34:40Z</time>
</trkpt>
<trkpt lat="49.504124" lon="10.416667">
<ele>320.437</ele>
<time>2019-05-30T16:34:41Z</time>
</trkpt>
<trkpt lat="49.504124" lon="10.416656">
<ele>320.437</ele>
<time>2019-05-30T16:34:42Z</time>
</trkpt>
<trkpt lat="49.50412" lon="10.41664">
<ele>320.437</ele>
<time>2019-05-30T16:34:43Z</time>
</trkpt>
<trkpt lat="49.50412" lon="10.416637">
<ele>320.437</ele>
<time>2019-05-30T16:34:44Z</time>
</trkpt>
<trkpt lat="49.504101" lon="10.416632">
<ele>320.437</ele>
<time>2019-05-30T16:34:45Z</time>
</trkpt>
<trkpt lat="49.504101" lon="10.41663">
<ele>320.437</ele>
<time>2019-05-30T16:34:47Z</time>
</trkpt>
<trkpt lat="49.504105" lon="10.416627">
<ele>320.437</ele>
<time>2019-05-30T16:34:48Z</time>
</trkpt>
<trkpt lat="49.504105" lon="10.416592">
<ele>320.437</ele>
<time>2019-05-30T16:34:51Z</time>
</trkpt>
<trkpt lat="49.504055" lon="10.41655">
<ele>320.437</ele>
<time>2019-05-30T16:34:52Z</time>
</trkpt>
<trkpt lat="49.504051" lon="10.416508">
<ele>320.437</ele>
<time>2019-05-30T16:34:53Z</time>
</trkpt>
<trkpt lat="49.504036" lon="10.416491">
<ele>320.437</ele>
<time>2019-05-30T16:34:54Z</time>
</trkpt>
<trkpt lat="49.504025" lon="10.416492">
<ele>320.437</ele>
<time>2019-05-30T16:34:55Z</time>
</trkpt>
<trkpt lat="49.504009" lon="10.416493">
<ele>320.437</ele>
<time>2019-05-30T16:34:56Z</time>
</trkpt>
<trkpt lat="49.504005" lon="10.416505">
<ele>320.437</ele>
<time>2019-05-30T16:34:57Z</time>
</trkpt>
<trkpt lat="49.504002" lon="10.41648">
<ele>320.437</ele>
<time>2019-05-30T16:34:58Z</time>
</trkpt>
<trkpt lat="49.503994" lon="10.416483">
<ele>320.437</ele>
<time>2019-05-30T16:34:59Z</time>
</trkpt>
<trkpt lat="49.50399" lon="10.416471">
<ele>320.437</ele>
<time>2019-05-30T16:35:00Z</time>
</trkpt>
<trkpt lat="49.503983" lon="10.416462">
<ele>320.437</ele>
<time>2019-05-30T16:35:01Z</time>
</trkpt>
<trkpt lat="49.504044" lon="10.416589">
<ele>320.437</ele>
<time>2019-05-30T16:36:29Z</time>
</trkpt>
<trkpt lat="49.504059" lon="10.416527">
<ele>320.437</ele>
<time>2019-05-30T16:36:30Z</time>
</trkpt>
<trkpt lat="49.504101" lon="10.41648">
<ele>320.437</ele>
<time>2019-05-30T16:36:31Z</time>
</trkpt>
<trkpt lat="49.504181" lon="10.416401">
<ele>320.437</ele>
<time>2019-05-30T16:36:40Z</time>
</trkpt>
<trkpt lat="49.50415" lon="10.416443">
<ele>320.437</ele>
<time>2019-05-30T16:36:41Z</time>
</trkpt>
<trkpt lat="49.504135" lon="10.416471">
<ele>320.437</ele>
<time>2019-05-30T16:36:42Z</time>
</trkpt>
<trkpt lat="49.504124" lon="10.4165">
<ele>320.437</ele>
<time>2019-05-30T16:36:43Z</time>
</trkpt>
<trkpt lat="49.504105" lon="10.416513">
<ele>320.437</ele>
<time>2019-05-30T16:36:44Z</time>
</trkpt>
<trkpt lat="49.504112" lon="10.416525">
<ele>320.437</ele>
<time>2019-05-30T16:36:45Z</time>
</trkpt>
<trkpt lat="49.504093" lon="10.416527">
<ele>320.437</ele>
<time>2019-05-30T16:36:46Z</time>
</trkpt>
<trkpt lat="49.504101" lon="10.416535">
<ele>320.437</ele>
<time>2019-05-30T16:36:47Z</time>
</trkpt>
<trkpt lat="49.504101" lon="10.416539">
<ele>320.437</ele>
<time>2019-05-30T16:36:48Z</time>
</trkpt>
<trkpt lat="49.504108" lon="10.41656">
<ele>320.437</ele>
<time>2019-05-30T16:36:49Z</time>
</trkpt>
<trkpt lat="49.504089" lon="10.416545">
<ele>320.437</ele>
<time>2019-05-30T16:37:07Z</time>
</trkpt>
<trkpt lat="49.504078" lon="10.416573">
<ele>320.437</ele>
<time>2019-05-30T16:37:08Z</time>
</trkpt>
<trkpt lat="49.504074" lon="10.416583">
<ele>320.437</ele>
<time>2019-05-30T16:37:09Z</time>
</trkpt>
<trkpt lat="49.504059" lon="10.416598">
<ele>320.437</ele>
<time>2019-05-30T16:37:10Z</time>
</trkpt>
<trkpt lat="49.504059" lon="10.416595">
<ele>320.437</ele>
<time>2019-05-30T16:37:11Z</time>
</trkpt>
<trkpt lat="49.504044" lon="10.416606">
<ele>320.437</ele>
<time>2019-05-30T16:37:15Z</time>
</trkpt>
<trkpt lat="49.50404" lon="10.4166">
<ele>320.437</ele>
<time>2019-05-30T16:37:16Z</time>
</trkpt>
<trkpt lat="49.504028" lon="10.416608">
<ele>320.437</ele>
<time>2019-05-30T16:37:17Z</time>
</trkpt>
<trkpt lat="49.504028" lon="10.416606">
<ele>320.437</ele>
<time>2019-05-30T16:37:18Z</time>
</trkpt>
<trkpt lat="49.504036" lon="10.416595">
<ele>320.437</ele>
<time>2019-05-30T16:37:19Z</time>
</trkpt>
<trkpt lat="49.504032" lon="10.41659">
<ele>320.437</ele>
<time>2019-05-30T16:37:20Z</time>
</trkpt>
<trkpt lat="49.504028" lon="10.416595">
<ele>320.437</ele>
<time>2019-05-30T16:37:21Z</time>
</trkpt>
<trkpt lat="49.504025" lon="10.416596">
<ele>320.437</ele>
<time>2019-05-30T16:37:22Z</time>
</trkpt>
<trkpt lat="49.504017" lon="10.41661">
<ele>320.437</ele>
<time>2019-05-30T16:37:23Z</time>
</trkpt>
<trkpt lat="49.504013" lon="10.41662">
<ele>320.437</ele>
<time>2019-05-30T16:37:24Z</time>
</trkpt>
<trkpt lat="49.504005" lon="10.416627">
<ele>320.437</ele>
<time>2019-05-30T16:37:25Z</time>
</trkpt>
<trkpt lat="49.504002" lon="10.416637">
<ele>320.437</ele>
<time>2019-05-30T16:37:26Z</time>
</trkpt>
<trkpt lat="49.503998" lon="10.41665">
<ele>320.437</ele>
<time>2019-05-30T16:37:27Z</time>
</trkpt>
<trkpt lat="49.503994" lon="10.416656">
<ele>320.437</ele>
<time>2019-05-30T16:37:28Z</time>
</trkpt>
<trkpt lat="49.503994" lon="10.416654">
<ele>320.437</ele>
<time>2019-05-30T16:37:29Z</time>
</trkpt>
<trkpt lat="49.50399" lon="10.41666">
<ele>320.437</ele>
<time>2019-05-30T16:37:30Z</time>
</trkpt>
<trkpt lat="49.50399" lon="10.416645">
<ele>320.437</ele>
<time>2019-05-30T16:37:31Z</time>
</trkpt>
<trkpt lat="49.503994" lon="10.416634">
<ele>320.437</ele>
<time>2019-05-30T16:37:32Z</time>
</trkpt>
<trkpt lat="49.504002" lon="10.416615">
<ele>320.437</ele>
<time>2019-05-30T16:37:33Z</time>
</trkpt>
<trkpt lat="49.504025" lon="10.416583">
<ele>320.437</ele>
<time>2019-05-30T16:37:45Z</time>
</trkpt>
<trkpt lat="49.504032" lon="10.416583">
<ele>320.437</ele>
<time>2019-05-30T16:37:46Z</time>
</trkpt>
<trkpt lat="49.504036" lon="10.416583">
<ele>320.437</ele>
<time>2019-05-30T16:37:48Z</time>
</trkpt>
<trkpt lat="49.504036" lon="10.416589">
<ele>320.437</ele>
<time>2019-05-30T16:37:49Z</time>
</trkpt>
<trkpt lat="49.504063" lon="10.416627">
<ele>320.437</ele>
<time>2019-05-30T16:38:01Z</time>
</trkpt>
<trkpt lat="49.504063" lon="10.41664">
<ele>320.437</ele>
<time>2019-05-30T16:38:02Z</time>
</trkpt>
<trkpt lat="49.504066" lon="10.416638">
<ele>320.437</ele>
<time>2019-05-30T16:38:03Z</time>
</trkpt>
<trkpt lat="49.504066" lon="10.416646">
<ele>320.437</ele>
<time>2019-05-30T16:38:04Z</time>
</trkpt>
<trkpt lat="49.504066" lon="10.416641">
<ele>320.437</ele>
<time>2019-05-30T16:38:05Z</time>
</trkpt>
<trkpt lat="49.50407" lon="10.416636">
<ele>320.437</ele>
<time>2019-05-30T16:38:06Z</time>
</trkpt>
<trkpt lat="49.50407" lon="10.41665">
<ele>320.437</ele>
<time>2019-05-30T16:38:07Z</time>
</trkpt>
<trkpt lat="49.50407" lon="10.41666">
<ele>320.437</ele>
<time>2019-05-30T16:38:08Z</time>
</trkpt>
<trkpt lat="49.504074" lon="10.416655">
<ele>320.437</ele>
<time>2019-05-30T16:38:09Z</time>
</trkpt>
<trkpt lat="49.504074" lon="10.416656">
<ele>320.437</ele>
<time>2019-05-30T16:38:10Z</time>
</trkpt>
<trkpt lat="49.504063" lon="10.416688">
<ele>320.437</ele>
<time>2019-05-30T16:38:11Z</time>
</trkpt>
<trkpt lat="49.504055" lon="10.416711">
<ele>320.437</ele>
<time>2019-05-30T16:38:12Z</time>
</trkpt>
<trkpt lat="49.504055" lon="10.416719">
<ele>320.437</ele>
<time>2019-05-30T16:38:13Z</time>
</trkpt>
<trkpt lat="49.504047" lon="10.416734">
<ele>320.437</ele>
<time>2019-05-30T16:38:14Z</time>
</trkpt>
<trkpt lat="49.504044" lon="10.416737">
<ele>320.437</ele>
<time>2019-05-30T16:38:15Z</time>
</trkpt>
<trkpt lat="49.504051" lon="10.41674">
<ele>320.437</ele>
<time>2019-05-30T16:38:19Z</time>
</trkpt>
<trkpt lat="49.504055" lon="10.416734">
<ele>320.437</ele>
<time>2019-05-30T16:38:20Z</time>
</trkpt>
<trkpt lat="49.504059" lon="10.416715">
<ele>320.437</ele>
<time>2019-05-30T16:38:21Z</time>
</trkpt>
<trkpt lat="49.504063" lon="10.416707">
<ele>320.437</ele>
<time>2019-05-30T16:38:22Z</time>
</trkpt>
<trkpt lat="49.50407" lon="10.4167">
<ele>320.437</ele>
<time>2019-05-30T16:38:23Z</time>
</trkpt>
<trkpt lat="49.504101" lon="10.416679">
<ele>320.437</ele>
<time>2019-05-30T16:38:33Z</time>
</trkpt>
<trkpt lat="49.504101" lon="10.416683">
<ele>320.437</ele>
<time>2019-05-30T16:38:34Z</time>
</trkpt>
<trkpt lat="49.504093" lon="10.416692">
<ele>320.437</ele>
<time>2019-05-30T16:38:35Z</time>
</trkpt>
<trkpt lat="49.504093" lon="10.416698">
<ele>320.437</ele>
<time>2019-05-30T16:38:36Z</time>
</trkpt>
<trkpt lat="49.504089" lon="10.416694">
<ele>320.437</ele>
<time>2019-05-30T16:38:37Z</time>
</trkpt>
<trkpt lat="49.504093" lon="10.416695">
<ele>320.437</ele>
<time>2019-05-30T16:38:38Z</time>
</trkpt>
<trkpt lat="49.504093" lon="10.416692">
<ele>320.437</ele>
<time>2019-05-30T16:38:39Z</time>
</trkpt>
<trkpt lat="49.504101" lon="10.416686">
<ele>320.437</ele>
<time>2019-05-30T16:38:40Z</time>
</trkpt>
<trkpt lat="49.504108" lon="10.416681">
<ele>320.437</ele>
<time>2019-05-30T16:38:41Z</time>
</trkpt>
<trkpt lat="49.504116" lon="10.416677">
<ele>320.437</ele>
<time>2019-05-30T16:38:42Z</time>
</trkpt>
<trkpt lat="49.50412" lon="10.416663">
<ele>320.437</ele>
<time>2019-05-30T16:38:43Z</time>
</trkpt>
<trkpt lat="49.50412" lon="10.416667">
<ele>320.437</ele>
<time>2019-05-30T16:38:44Z</time>
</trkpt>
<trkpt lat="49.50412" lon="10.416656">
<ele>320.437</ele>
<time>2019-05-30T16:38:45Z</time>
</trkpt>
<trkpt lat="49.50412" lon="10.416655">
<ele>320.437</ele>
<time>2019-05-30T16:38:46Z</time>
</trkpt>
<trkpt lat="49.504097" lon="10.416688">
<ele>320.437</ele>
<time>2019-05-30T16:38:53Z</time>
</trkpt>
<trkpt lat="49.504105" lon="10.41667">
<ele>320.437</ele>
<time>2019-05-30T16:38:54Z</time>
</trkpt>
<trkpt lat="49.504108" lon="10.416658">
<ele>320.437</ele>
<time>2019-05-30T16:38:55Z</time>
</trkpt>
<trkpt lat="49.504108" lon="10.416652">
<ele>320.437</ele>
<time>2019-05-30T16:38:56Z</time>
</trkpt>
<trkpt lat="49.504128" lon="10.41656">
<ele>320.437</ele>
<time>2019-05-30T16:39:13Z</time>
</trkpt>
<trkpt lat="49.504128" lon="10.416555">
<ele>320.437</ele>
<time>2019-05-30T16:39:14Z</time>
</trkpt>
<trkpt lat="49.504128" lon="10.416537">
<ele>320.437</ele>
<time>2019-05-30T16:39:15Z</time>
</trkpt>
<trkpt lat="49.504128" lon="10.416535">
<ele>320.437</ele>
<time>2019-05-30T16:39:16Z</time>
</trkpt>
<trkpt lat="49.504124" lon="10.416539">
<ele>320.437</ele>
<time>2019-05-30T16:39:17Z</time>
</trkpt>
<trkpt lat="49.50412" lon="10.416543">
<ele>320.437</ele>
<time>2019-05-30T16:39:18Z</time>
</trkpt>
<trkpt lat="49.504124" lon="10.416497">
<ele>320.437</ele>
<time>2019-05-30T16:39:25Z</time>
</trkpt>
<trkpt lat="49.504124" lon="10.41648">
<ele>320.437</ele>
<time>2019-05-30T16:39:26Z</time>
</trkpt>
<trkpt lat="49.504131" lon="10.416497">
<ele>320.437</ele>
<time>2019-05-30T16:39:27Z</time>
</trkpt>
<trkpt lat="49.504143" lon="10.416482">
<ele>320.437</ele>
<time>2019-05-30T16:39:28Z</time>
</trkpt>
<trkpt lat="49.504147" lon="10.41648">
<ele>320.437</ele>
<time>2019-05-30T16:39:29Z</time>
</trkpt>
<trkpt lat="49.504143" lon="10.41646">
<ele>320.437</ele>
<time>2019-05-30T16:39:30Z</time>
</trkpt>
<trkpt lat="49.504139" lon="10.416443">
<ele>320.437</ele>
<time>2019-05-30T16:39:31Z</time>
</trkpt>
<trkpt lat="49.504143" lon="10.416433">
<ele>320.437</ele>
<time>2019-05-30T16:39:32Z</time>
</trkpt>
<trkpt lat="49.504139" lon="10.41643">
<ele>320.437</ele>
<time>2019-05-30T16:39:33Z</time>
</trkpt>
<trkpt lat="49.504147" lon="10.416418">
<ele>320.437</ele>
<time>2019-05-30T16:39:34Z</time>
</trkpt>
<trkpt lat="49.504143" lon="10.416409">
<ele>320.437</ele>
<time>2019-05-30T16:39:35Z</time>
</trkpt>
<trkpt lat="49.504147" lon="10.416398">
<ele>320.437</ele>
<time>2019-05-30T16:39:36Z</time>
</trkpt>
<trkpt lat="49.504147" lon="10.416401">
<ele>320.437</ele>
<time>2019-05-30T16:39:37Z</time>
</trkpt>
<trkpt lat="49.50415" lon="10.416395">
<ele>320.437</ele>
<time>2019-05-30T16:39:38Z</time>
</trkpt>
<trkpt lat="49.504147" lon="10.4164">
<ele>320.437</ele>
<time>2019-05-30T16:39:39Z</time>
</trkpt>
<trkpt lat="49.504154" lon="10.416417">
<ele>320.437</ele>
<time>2019-05-30T16:39:40Z</time>
</trkpt>
<trkpt lat="49.504147" lon="10.41642">
<ele>320.437</ele>
<time>2019-05-30T16:39:41Z</time>
</trkpt>
<trkpt lat="49.504154" lon="10.416442">
<ele>320.437</ele>
<time>2019-05-30T16:39:43Z</time>
</trkpt>
<trkpt lat="49.504154" lon="10.416447">
<ele>320.437</ele>
<time>2019-05-30T16:39:44Z</time>
</trkpt>
<trkpt lat="49.504154" lon="10.416449">
<ele>320.437</ele>
<time>2019-05-30T16:39:45Z</time>
</trkpt>
<trkpt lat="49.504131" lon="10.416464">
<ele>320.437</ele>
<time>2019-05-30T16:39:46Z</time>
</trkpt>
<trkpt lat="49.50412" lon="10.416476">
<ele>320.437</ele>
<time>2019-05-30T16:39:47Z</time>
</trkpt>
<trkpt lat="49.504108" lon="10.416493">
<ele>320.437</ele>
<time>2019-05-30T16:39:48Z</time>
</trkpt>
<trkpt lat="49.504105" lon="10.416497">
<ele>320.437</ele>
<time>2019-05-30T16:39:49Z</time>
</trkpt>
<trkpt lat="49.504108" lon="10.416507">
<ele>320.437</ele>
<time>2019-05-30T16:39:50Z</time>
</trkpt>
<trkpt lat="49.504097" lon="10.41651">
<ele>320.437</ele>
<time>2019-05-30T16:39:51Z</time>
</trkpt>
<trkpt lat="49.504101" lon="10.416512">
<ele>320.437</ele>
<time>2019-05-30T16:39:52Z</time>
</trkpt>
<trkpt lat="49.504124" lon="10.41651">
<ele>320.437</ele>
<time>2019-05-30T16:39:53Z</time>
</trkpt>
<trkpt lat="49.504143" lon="10.416535">
<ele>320.437</ele>
<time>2019-05-30T16:39:54Z</time>
</trkpt>
<trkpt lat="49.504154" lon="10.416555">
<ele>320.437</ele>
<time>2019-05-30T16:39:55Z</time>
</trkpt>
<trkpt lat="49.504154" lon="10.41658">
<ele>320.437</ele>
<time>2019-05-30T16:39:56Z</time>
</trkpt>
<trkpt lat="49.504135" lon="10.41659">
<ele>320.437</ele>
<time>2019-05-30T16:39:57Z</time>
</trkpt>
<trkpt lat="49.504124" lon="10.416589">
<ele>320.437</ele>
<time>2019-05-30T16:39:58Z</time>
</trkpt>
<trkpt lat="49.50412" lon="10.41659">
<ele>320.437</ele>
<time>2019-05-30T16:39:59Z</time>
</trkpt>
<trkpt lat="49.504116" lon="10.416587">
<ele>320.437</ele>
<time>2019-05-30T16:40:00Z</time>
</trkpt>
<trkpt lat="49.50412" lon="10.416587">
<ele>320.437</ele>
<time>2019-05-30T16:40:01Z</time>
</trkpt>
<trkpt lat="49.504124" lon="10.416596">
<ele>320.437</ele>
<time>2019-05-30T16:40:02Z</time>
</trkpt>
<trkpt lat="49.504139" lon="10.416595">
<ele>320.437</ele>
<time>2019-05-30T16:40:03Z</time>
</trkpt>
<trkpt lat="49.504139" lon="10.416604">
<ele>320.437</ele>
<time>2019-05-30T16:40:04Z</time>
</trkpt>
<trkpt lat="49.504139" lon="10.416608">
<ele>320.437</ele>
<time>2019-05-30T16:40:05Z</time>
</trkpt>
<trkpt lat="49.504135" lon="10.416608">
<ele>320.437</ele>
<time>2019-05-30T16:40:06Z</time>
</trkpt>
<trkpt lat="49.504105" lon="10.416638">
<ele>320.437</ele>
<time>2019-05-30T16:40:16Z</time>
</trkpt>
<trkpt lat="49.504108" lon="10.41665">
<ele>320.437</ele>
<time>2019-05-30T16:40:17Z</time>
</trkpt>
<trkpt lat="49.504108" lon="10.416654">
<ele>320.437</ele>
<time>2019-05-30T16:40:18Z</time>
</trkpt>
<trkpt lat="49.504108" lon="10.416655">
<ele>320.437</ele>
<time>2019-05-30T16:40:19Z</time>
</trkpt>
<trkpt lat="49.504105" lon="10.416663">
<ele>320.437</ele>
<time>2019-05-30T16:40:20Z</time>
</trkpt>
<trkpt lat="49.504105" lon="10.416658">
<ele>320.437</ele>
<time>2019-05-30T16:40:21Z</time>
</trkpt>
<trkpt lat="49.504101" lon="10.416646">
<ele>320.437</ele>
<time>2019-05-30T16:40:22Z</time>
</trkpt>
<trkpt lat="49.504101" lon="10.416638">
<ele>320.437</ele>
<time>2019-05-30T16:40:23Z</time>
</trkpt>
<trkpt lat="49.504105" lon="10.41661">
<ele>320.437</ele>
<time>2019-05-30T16:40:24Z</time>
</trkpt>
<trkpt lat="49.504101" lon="10.4166">
<ele>320.437</ele>
<time>2019-05-30T16:40:25Z</time>
</trkpt>
<trkpt lat="49.504108" lon="10.416602">
<ele>320.437</ele>
<time>2019-05-30T16:40:26Z</time>
</trkpt>
<trkpt lat="49.504116" lon="10.416592">
<ele>320.437</ele>
<time>2019-05-30T16:40:27Z</time>
</trkpt>
<trkpt lat="49.504139" lon="10.416565">
<ele>320.437</ele>
<time>2019-05-30T16:40:36Z</time>
</trkpt>
<trkpt lat="49.504147" lon="10.416567">
<ele>320.437</ele>
<time>2019-05-30T16:40:37Z</time>
</trkpt>
<trkpt lat="49.504154" lon="10.416562">
<ele>320.437</ele>
<time>2019-05-30T16:40:38Z</time>
</trkpt>
<trkpt lat="49.504169" lon="10.416553">
<ele>320.437</ele>
<time>2019-05-30T16:40:39Z</time>
</trkpt>
<trkpt lat="49.504177" lon="10.41655">
<ele>320.437</ele>
<time>2019-05-30T16:40:40Z</time>
</trkpt>
<trkpt lat="49.504177" lon="10.416541">
<ele>320.437</ele>
<time>2019-05-30T16:40:41Z</time>
</trkpt>
<trkpt lat="49.504189" lon="10.416547">
<ele>320.437</ele>
<time>2019-05-30T16:40:42Z</time>
</trkpt>
<trkpt lat="49.5042" lon="10.41655">
<ele>320.437</ele>
<time>2019-05-30T16:40:43Z</time>
</trkpt>
<trkpt lat="49.504204" lon="10.416556">
<ele>320.437</ele>
<time>2019-05-30T16:40:44Z</time>
</trkpt>
<trkpt lat="49.504246" lon="10.416571">
<ele>320.437</ele>
<time>2019-05-30T16:40:49Z</time>
</trkpt>
<trkpt lat="49.50425" lon="10.416567">
<ele>320.437</ele>
<time>2019-05-30T16:40:51Z</time>
</trkpt>
<trkpt lat="49.50425" lon="10.416571">
<ele>320.437</ele>
<time>2019-05-30T16:40:52Z</time>
</trkpt>
<trkpt lat="49.50425" lon="10.416569">
<ele>320.437</ele>
<time>2019-05-30T16:40:53Z</time>
</trkpt>
<trkpt lat="49.504246" lon="10.416573">
<ele>320.437</ele>
<time>2019-05-30T16:40:54Z</time>
</trkpt>
<trkpt lat="49.504246" lon="10.416589">
<ele>320.437</ele>
<time>2019-05-30T16:40:55Z</time>
</trkpt>
<trkpt lat="49.504246" lon="10.416596">
<ele>320.437</ele>
<time>2019-05-30T16:40:56Z</time>
</trkpt>
<trkpt lat="49.504242" lon="10.416585">
<ele>320.437</ele>
<time>2019-05-30T16:40:57Z</time>
</trkpt>
<trkpt lat="49.50425" lon="10.416596">
<ele>320.437</ele>
<time>2019-05-30T16:40:58Z</time>
</trkpt>
<trkpt lat="49.50423" lon="10.416585">
<ele>320.437</ele>
<time>2019-05-30T16:40:59Z</time>
</trkpt>
<trkpt lat="49.504227" lon="10.416587">
<ele>320.437</ele>
<time>2019-05-30T16:41:00Z</time>
</trkpt>
<trkpt lat="49.504208" lon="10.4166">
<ele>320.437</ele>
<time>2019-05-30T16:41:01Z</time>
</trkpt>
<trkpt lat="49.5042" lon="10.416598">
<ele>320.437</ele>
<time>2019-05-30T16:41:02Z</time>
</trkpt>
<trkpt lat="49.504185" lon="10.416596">
<ele>320.437</ele>
<time>2019-05-30T16:41:03Z</time>
</trkpt>
<trkpt lat="49.504177" lon="10.416598">
<ele>320.437</ele>
<time>2019-05-30T16:41:04Z</time>
</trkpt>
<trkpt lat="49.504173" lon="10.4166">
<ele>320.437</ele>
<time>2019-05-30T16:41:05Z</time>
</trkpt>
<trkpt lat="49.504131" lon="10.416669">
<ele>320.437</ele>
<time>2019-05-30T16:41:17Z</time>
</trkpt>
<trkpt lat="49.504128" lon="10.416688">
<ele>320.437</ele>
<time>2019-05-30T16:41:18Z</time>
</trkpt>
<trkpt lat="49.50412" lon="10.416695">
<ele>320.437</ele>
<time>2019-05-30T16:41:19Z</time>
</trkpt>
<trkpt lat="49.504116" lon="10.4167">
<ele>320.437</ele>
<time>2019-05-30T16:41:20Z</time>
</trkpt>
<trkpt lat="49.504112" lon="10.416711">
<ele>320.437</ele>
<time>2019-05-30T16:41:21Z</time>
</trkpt>
<trkpt lat="49.504105" lon="10.416702">
<ele>320.437</ele>
<time>2019-05-30T16:41:22Z</time>
</trkpt>
<trkpt lat="49.504101" lon="10.416721">
<ele>320.437</ele>
<time>2019-05-30T16:41:23Z</time>
</trkpt>
<trkpt lat="49.504097" lon="10.416711">
<ele>320.437</ele>
<time>2019-05-30T16:41:24Z</time>
</trkpt>
<trkpt lat="49.504089" lon="10.416721">
<ele>320.437</ele>
<time>2019-05-30T16:41:25Z</time>
</trkpt>
<trkpt lat="49.504097" lon="10.416727">
<ele>320.437</ele>
<time>2019-05-30T16:41:26Z</time>
</trkpt>
<trkpt lat="49.504101" lon="10.416725">
<ele>320.437</ele>
<time>2019-05-30T16:41:27Z</time>
</trkpt>
<trkpt lat="49.504097" lon="10.416718">
<ele>320.437</ele>
<time>2019-05-30T16:41:28Z</time>
</trkpt>
<trkpt lat="49.504108" lon="10.416705">
<ele>320.437</ele>
<time>2019-05-30T16:41:29Z</time>
</trkpt>
<trkpt lat="49.504108" lon="10.416709">
<ele>320.437</ele>
<time>2019-05-30T16:41:30Z</time>
</trkpt>
<trkpt lat="49.50412" lon="10.416688">
<ele>320.437</ele>
<time>2019-05-30T16:41:41Z</time>
</trkpt>
<trkpt lat="49.504112" lon="10.416688">
<ele>320.437</ele>
<time>2019-05-30T16:41:42Z</time>
</trkpt>
<trkpt lat="49.504116" lon="10.416674">
<ele>320.437</ele>
<time>2019-05-30T16:41:43Z</time>
</trkpt>
<trkpt lat="49.50412" lon="10.41666">
<ele>320.437</ele>
<time>2019-05-30T16:41:44Z</time>
</trkpt>
<trkpt lat="49.504105" lon="10.416629">
<ele>320.437</ele>
<time>2019-05-30T16:41:50Z</time>
</trkpt>
<trkpt lat="49.504101" lon="10.416637">
<ele>320.437</ele>
<time>2019-05-30T16:41:51Z</time>
</trkpt>
<trkpt lat="49.504105" lon="10.416623">
<ele>320.437</ele>
<time>2019-05-30T16:41:52Z</time>
</trkpt>
<trkpt lat="49.504105" lon="10.416634">
<ele>320.437</ele>
<time>2019-05-30T16:41:53Z</time>
</trkpt>
<trkpt lat="49.504101" lon="10.416643">
<ele>320.437</ele>
<time>2019-05-30T16:41:54Z</time>
</trkpt>
<trkpt lat="49.504097" lon="10.416652">
<ele>320.437</ele>
<time>2019-05-30T16:41:55Z</time>
</trkpt>
<trkpt lat="49.504093" lon="10.416665">
<ele>320.437</ele>
<time>2019-05-30T16:41:57Z</time>
</trkpt>
<trkpt lat="49.504089" lon="10.416681">
<ele>320.437</ele>
<time>2019-05-30T16:41:58Z</time>
</trkpt>
<trkpt lat="49.504086" lon="10.416695">
<ele>320.437</ele>
<time>2019-05-30T16:41:59Z</time>
</trkpt>
<trkpt lat="49.504082" lon="10.416702">
<ele>320.437</ele>
<time>2019-05-30T16:42:00Z</time>
</trkpt>
<trkpt lat="49.504078" lon="10.416709">
<ele>320.437</ele>
<time>2019-05-30T16:42:01Z</time>
</trkpt>
<trkpt lat="49.504082" lon="10.416721">
<ele>320.437</ele>
<time>2019-05-30T16:42:02Z</time>
</trkpt>
<trkpt lat="49.504086" lon="10.416721">
<ele>320.437</ele>
<time>2019-05-30T16:42:03Z</time>
</trkpt>
<trkpt lat="49.504086" lon="10.416739">
<ele>320.437</ele>
<time>2019-05-30T16:42:04Z</time>
</trkpt>
<trkpt lat="49.504089" lon="10.416752">
<ele>320.437</ele>
<time>2019-05-30T16:42:08Z</time>
</trkpt>
<trkpt lat="49.504093" lon="10.416735">
<ele>320.437</ele>
<time>2019-05-30T16:42:09Z</time>
</trkpt>
<trkpt lat="49.504097" lon="10.416735">
<ele>320.437</ele>
<time>2019-05-30T16:42:10Z</time>
</trkpt>
<trkpt lat="49.504093" lon="10.416746">
<ele>320.437</ele>
<time>2019-05-30T16:42:11Z</time>
</trkpt>
<trkpt lat="49.504086" lon="10.416763">
<ele>320.437</ele>
<time>2019-05-30T16:42:12Z</time>
</trkpt>
<trkpt lat="49.504078" lon="10.416765">
<ele>320.437</ele>
<time>2019-05-30T16:42:13Z</time>
</trkpt>
<trkpt lat="49.504082" lon="10.416759">
<ele>320.437</ele>
<time>2019-05-30T16:42:14Z</time>
</trkpt>
<trkpt lat="49.504078" lon="10.416757">
<ele>320.437</ele>
<time>2019-05-30T16:42:15Z</time>
</trkpt>
<trkpt lat="49.504086" lon="10.41675">
<ele>320.437</ele>
<time>2019-05-30T16:42:16Z</time>
</trkpt>
<trkpt lat="49.504078" lon="10.416748">
<ele>320.437</ele>
<time>2019-05-30T16:42:17Z</time>
</trkpt>
<trkpt lat="49.504082" lon="10.416737">
<ele>320.437</ele>
<time>2019-05-30T16:42:18Z</time>
</trkpt>
<trkpt lat="49.504078" lon="10.41674">
<ele>320.437</ele>
<time>2019-05-30T16:42:19Z</time>
</trkpt>
<trkpt lat="49.504074" lon="10.416746">
<ele>320.437</ele>
<time>2019-05-30T16:42:20Z</time>
</trkpt>
<trkpt lat="49.504063" lon="10.41675">
<ele>320.437</ele>
<time>2019-05-30T16:42:23Z</time>
</trkpt>
<trkpt lat="49.50407" lon="10.416717">
<ele>320.437</ele>
<time>2019-05-30T16:42:24Z</time>
</trkpt>
<trkpt lat="49.504066" lon="10.416711">
<ele>320.437</ele>
<time>2019-05-30T16:42:25Z</time>
</trkpt>
<trkpt lat="49.504063" lon="10.416702">
<ele>320.437</ele>
<time>2019-05-30T16:42:26Z</time>
</trkpt>
<trkpt lat="49.504066" lon="10.41669">
<ele>320.437</ele>
<time>2019-05-30T16:42:27Z</time>
</trkpt>
<trkpt lat="49.504066" lon="10.416694">
<ele>320.437</ele>
<time>2019-05-30T16:42:28Z</time>
</trkpt>
<trkpt lat="49.504078" lon="10.416694">
<ele>320.437</ele>
<time>2019-05-30T16:42:29Z</time>
</trkpt>
<trkpt lat="49.504093" lon="10.416702">
<ele>320.437</ele>
<time>2019-05-30T16:42:40Z</time>
</trkpt>
<trkpt lat="49.504101" lon="10.416702">
<ele>320.437</ele>
<time>2019-05-30T16:42:41Z</time>
</trkpt>
<trkpt lat="49.504105" lon="10.416686">
<ele>320.437</ele>
<time>2019-05-30T16:42:42Z</time>
</trkpt>
<trkpt lat="49.504101" lon="10.416685">
<ele>320.437</ele>
<time>2019-05-30T16:42:43Z</time>
</trkpt>
<trkpt lat="49.504112" lon="10.416679">
<ele>320.437</ele>
<time>2019-05-30T16:42:44Z</time>
</trkpt>
<trkpt lat="49.504112" lon="10.416681">
<ele>320.437</ele>
<time>2019-05-30T16:42:46Z</time>
</trkpt>
<trkpt lat="49.504112" lon="10.416676">
<ele>320.437</ele>
<time>2019-05-30T16:42:47Z</time>
</trkpt>
<trkpt lat="49.504101" lon="10.416676">
<ele>320.437</ele>
<time>2019-05-30T16:42:48Z</time>
</trkpt>
<trkpt lat="49.504097" lon="10.416679">
<ele>320.437</ele>
<time>2019-05-30T16:42:49Z</time>
</trkpt>
<trkpt lat="49.504089" lon="10.416688">
<ele>320.437</ele>
<time>2019-05-30T16:42:50Z</time>
</trkpt>
<trkpt lat="49.504089" lon="10.416681">
<ele>320.437</ele>
<time>2019-05-30T16:42:51Z</time>
</trkpt>
<trkpt lat="49.504112" lon="10.416637">
<ele>320.437</ele>
<time>2019-05-30T16:43:00Z</time>
</trkpt>
<trkpt lat="49.504105" lon="10.416638">
<ele>320.437</ele>
<time>2019-05-30T16:43:01Z</time>
</trkpt>
<trkpt lat="49.504101" lon="10.416646">
<ele>320.437</ele>
<time>2019-05-30T16:43:02Z</time>
</trkpt>
<trkpt lat="49.504101" lon="10.416645">
<ele>320.437</ele>
<time>2019-05-30T16:43:03Z</time>
</trkpt>
<trkpt lat="49.504097" lon="10.416648">
<ele>320.437</ele>
<time>2019-05-30T16:43:04Z</time>
</trkpt>
<trkpt lat="49.504089" lon="10.41666">
<ele>320.437</ele>
<time>2019-05-30T16:43:05Z</time>
</trkpt>
<trkpt lat="49.50412" lon="10.416646">
<ele>320.437</ele>
<time>2019-05-30T16:43:12Z</time>
</trkpt>
<trkpt lat="49.504116" lon="10.416656">
<ele>320.437</ele>
<time>2019-05-30T16:43:13Z</time>
</trkpt>
<trkpt lat="49.50412" lon="10.416667">
<ele>320.437</ele>
<time>2019-05-30T16:43:14Z</time>
</trkpt>
<trkpt lat="49.504101" lon="10.416695">
<ele>320.437</ele>
<time>2019-05-30T16:43:15Z</time>
</trkpt>
<trkpt lat="49.504086" lon="10.416719">
<ele>320.437</ele>
<time>2019-05-30T16:43:16Z</time>
</trkpt>
<trkpt lat="49.504074" lon="10.416719">
<ele>320.437</ele>
<time>2019-05-30T16:43:17Z</time>
</trkpt>
<trkpt lat="49.504059" lon="10.416711">
<ele>320.437</ele>
<time>2019-05-30T16:43:18Z</time>
</trkpt>
<trkpt lat="49.504044" lon="10.416711">
<ele>320.437</ele>
<time>2019-05-30T16:43:19Z</time>
</trkpt>
<trkpt lat="49.504028" lon="10.416688">
<ele>320.437</ele>
<time>2019-05-30T16:43:20Z</time>
</trkpt>
<trkpt lat="49.504028" lon="10.416667">
<ele>320.437</ele>
<time>2019-05-30T16:43:21Z</time>
</trkpt>
<trkpt lat="49.504028" lon="10.416658">
<ele>320.437</ele>
<time>2019-05-30T16:43:22Z</time>
</trkpt>
<trkpt lat="49.504021" lon="10.416658">
<ele>320.437</ele>
<time>2019-05-30T16:43:23Z</time>
</trkpt>
<trkpt lat="49.504021" lon="10.416648">
<ele>320.437</ele>
<time>2019-05-30T16:43:24Z</time>
</trkpt>
<trkpt lat="49.504028" lon="10.41661">
<ele>320.437</ele>
<time>2019-05-30T16:43:25Z</time>
</trkpt>
<trkpt lat="49.50404" lon="10.416592">
<ele>320.437</ele>
<time>2019-05-30T16:43:26Z</time>
</trkpt>
<trkpt lat="49.504047" lon="10.416587">
<ele>320.437</ele>
<time>2019-05-30T16:43:27Z</time>
</trkpt>
<trkpt lat="49.504055" lon="10.416583">
<ele>320.437</ele>
<time>2019-05-30T16:43:28Z</time>
</trkpt>
<trkpt lat="49.504059" lon="10.416565">
<ele>320.437</ele>
<time>2019-05-30T16:43:29Z</time>
</trkpt>
<trkpt lat="49.50407" lon="10.416538">
<ele>320.437</ele>
<time>2019-05-30T16:43:31Z</time>
</trkpt>
<trkpt lat="49.504078" lon="10.416533">
<ele>320.437</ele>
<time>2019-05-30T16:43:32Z</time>
</trkpt>
<trkpt lat="49.504089" lon="10.416535">
<ele>320.437</ele>
<time>2019-05-30T16:43:33Z</time>
</trkpt>
<trkpt lat="49.504093" lon="10.416539">
<ele>320.437</ele>
<time>2019-05-30T16:43:34Z</time>
</trkpt>
<trkpt lat="49.504108" lon="10.416523">
<ele>320.437</ele>
<time>2019-05-30T16:43:35Z</time>
</trkpt>
<trkpt lat="49.50412" lon="10.416487">
<ele>320.437</ele>
<time>2019-05-30T16:43:36Z</time>
</trkpt>
<trkpt lat="49.504131" lon="10.416473">
<ele>320.437</ele>
<time>2019-05-30T16:43:37Z</time>
</trkpt>
<trkpt lat="49.504139" lon="10.41645">
<ele>320.437</ele>
<time>2019-05-30T16:43:38Z</time>
</trkpt>
<trkpt lat="49.504147" lon="10.416438">
<ele>320.437</ele>
<time>2019-05-30T16:43:39Z</time>
</trkpt>
<trkpt lat="49.504154" lon="10.416429">
<ele>320.437</ele>
<time>2019-05-30T16:43:40Z</time>
</trkpt>
<trkpt lat="49.504154" lon="10.416436">
<ele>320.437</ele>
<time>2019-05-30T16:43:41Z</time>
</trkpt>
<trkpt lat="49.504166" lon="10.416429">
<ele>320.437</ele>
<time>2019-05-30T16:43:42Z</time>
</trkpt>
<trkpt lat="49.504173" lon="10.416411">
<ele>320.437</ele>
<time>2019-05-30T16:43:43Z</time>
</trkpt>
<trkpt lat="49.504185" lon="10.416401">
<ele>320.437</ele>
<time>2019-05-30T16:43:44Z</time>
</trkpt>
<trkpt lat="49.504181" lon="10.41642">
<ele>320.437</ele>
<time>2019-05-30T16:43:45Z</time>
</trkpt>
<trkpt lat="49.504185" lon="10.416433">
<ele>320.437</ele>
<time>2019-05-30T16:43:46Z</time>
</trkpt>
<trkpt lat="49.504181" lon="10.416458">
<ele>320.437</ele>
<time>2019-05-30T16:43:47Z</time>
</trkpt>
<trkpt lat="49.504181" lon="10.416467">
<ele>320.437</ele>
<time>2019-05-30T16:43:48Z</time>
</trkpt>
<trkpt lat="49.504162" lon="10.416505">
<ele>320.437</ele>
<time>2019-05-30T16:43:49Z</time>
</trkpt>
<trkpt lat="49.504169" lon="10.416493">
<ele>320.437</ele>
<time>2019-05-30T16:43:50Z</time>
</trkpt>
<trkpt lat="49.504173" lon="10.416487">
<ele>320.437</ele>
<time>2019-05-30T16:43:51Z</time>
</trkpt>
<trkpt lat="49.504169" lon="10.416491">
<ele>320.437</ele>
<time>2019-05-30T16:43:52Z</time>
</trkpt>
<trkpt lat="49.504169" lon="10.416497">
<ele>320.437</ele>
<time>2019-05-30T16:43:53Z</time>
</trkpt>
<trkpt lat="49.504173" lon="10.416483">
<ele>320.437</ele>
<time>2019-05-30T16:43:54Z</time>
</trkpt>
<trkpt lat="49.504169" lon="10.416473">
<ele>320.437</ele>
<time>2019-05-30T16:43:55Z</time>
</trkpt>
<trkpt lat="49.504166" lon="10.416478">
<ele>320.437</ele>
<time>2019-05-30T16:43:56Z</time>
</trkpt>
<trkpt lat="49.50412" lon="10.416537">
<ele>320.437</ele>
<time>2019-05-30T16:44:06Z</time>
</trkpt>
<trkpt lat="49.504108" lon="10.416538">
<ele>320.437</ele>
<time>2019-05-30T16:44:07Z</time>
</trkpt>
<trkpt lat="49.504101" lon="10.416552">
<ele>320.437</ele>
<time>2019-05-30T16:44:08Z</time>
</trkpt>
<trkpt lat="49.504105" lon="10.416558">
<ele>320.437</ele>
<time>2019-05-30T16:44:09Z</time>
</trkpt>
<trkpt lat="49.504101" lon="10.416562">
<ele>320.437</ele>
<time>2019-05-30T16:44:10Z</time>
</trkpt>
<trkpt lat="49.504112" lon="10.416552">
<ele>320.437</ele>
<time>2019-05-30T16:44:11Z</time>
</trkpt>
<trkpt lat="49.504124" lon="10.41655">
<ele>320.437</ele>
<time>2019-05-30T16:44:12Z</time>
</trkpt>
<trkpt lat="49.504124" lon="10.416562">
<ele>320.437</ele>
<time>2019-05-30T16:44:13Z</time>
</trkpt>
<trkpt lat="49.504124" lon="10.416571">
<ele>320.437</ele>
<time>2019-05-30T16:44:14Z</time>
</trkpt>
<trkpt lat="49.50412" lon="10.416576">
<ele>320.437</ele>
<time>2019-05-30T16:44:15Z</time>
</trkpt>
<trkpt lat="49.504112" lon="10.416595">
<ele>320.437</ele>
<time>2019-05-30T16:44:16Z</time>
</trkpt>
<trkpt lat="49.504108" lon="10.416632">
<ele>320.437</ele>
<time>2019-05-30T16:44:17Z</time>
</trkpt>
<trkpt lat="49.504116" lon="10.416643">
<ele>320.437</ele>
<time>2019-05-30T16:44:18Z</time>
</trkpt>
<trkpt lat="49.504116" lon="10.416648">
<ele>320.437</ele>
<time>2019-05-30T16:44:19Z</time>
</trkpt>
<trkpt lat="49.504124" lon="10.416677">
<ele>320.437</ele>
<time>2019-05-30T16:44:20Z</time>
</trkpt>
<trkpt lat="49.50412" lon="10.4167">
<ele>320.437</ele>
<time>2019-05-30T16:44:21Z</time>
</trkpt>
<trkpt lat="49.50412" lon="10.416713">
<ele>320.437</ele>
<time>2019-05-30T16:44:22Z</time>
</trkpt>
<trkpt lat="49.50412" lon="10.416721">
<ele>320.437</ele>
<time>2019-05-30T16:44:23Z</time>
</trkpt>
<trkpt lat="49.50412" lon="10.416711">
<ele>320.437</ele>
<time>2019-05-30T16:44:24Z</time>
</trkpt>
<trkpt lat="49.504112" lon="10.416707">
<ele>320.437</ele>
<time>2019-05-30T16:44:25Z</time>
</trkpt>
<trkpt lat="49.504105" lon="10.416703">
<ele>320.437</ele>
<time>2019-05-30T16:44:26Z</time>
</trkpt>
<trkpt lat="49.504089" lon="10.416709">
<ele>320.437</ele>
<time>2019-05-30T16:44:32Z</time>
</trkpt>
<trkpt lat="49.504089" lon="10.416717">
<ele>320.437</ele>
<time>2019-05-30T16:44:33Z</time>
</trkpt>
<trkpt lat="49.504082" lon="10.416728">
<ele>320.437</ele>
<time>2019-05-30T16:44:34Z</time>
</trkpt>
<trkpt lat="49.504078" lon="10.416737">
<ele>320.437</ele>
<time>2019-05-30T16:44:35Z</time>
</trkpt>
<trkpt lat="49.504078" lon="10.416735">
<ele>320.437</ele>
<time>2019-05-30T16:44:37Z</time>
</trkpt>
<trkpt lat="49.50407" lon="10.416732">
<ele>320.437</ele>
<time>2019-05-30T16:44:38Z</time>
</trkpt>
<trkpt lat="49.504063" lon="10.416755">
<ele>320.437</ele>
<time>2019-05-30T16:44:39Z</time>
</trkpt>
<trkpt lat="49.504055" lon="10.416767">
<ele>320.437</ele>
<time>2019-05-30T16:44:40Z</time>
</trkpt>
<trkpt lat="49.504051" lon="10.416781">
<ele>320.437</ele>
<time>2019-05-30T16:44:41Z</time>
</trkpt>
<trkpt lat="49.504044" lon="10.4168">
<ele>320.437</ele>
<time>2019-05-30T16:44:42Z</time>
</trkpt>
<trkpt lat="49.504047" lon="10.416814">
<ele>320.437</ele>
<time>2019-05-30T16:44:43Z</time>
</trkpt>
<trkpt lat="49.50404" lon="10.416837">
<ele>320.437</ele>
<time>2019-05-30T16:44:44Z</time>
</trkpt>
<trkpt lat="49.504036" lon="10.416843">
<ele>320.437</ele>
<time>2019-05-30T16:44:45Z</time>
</trkpt>
<trkpt lat="49.504032" lon="10.416857">
<ele>320.437</ele>
<time>2019-05-30T16:44:46Z</time>
</trkpt>
<trkpt lat="49.504032" lon="10.416826">
<ele>320.437</ele>
<time>2019-05-30T16:44:47Z</time>
</trkpt>
<trkpt lat="49.504032" lon="10.416832">
<ele>320.437</ele>
<time>2019-05-30T16:44:48Z</time>
</trkpt>
<trkpt lat="49.504036" lon="10.416823">
<ele>320.437</ele>
<time>2019-05-30T16:44:49Z</time>
</trkpt>
<trkpt lat="49.504032" lon="10.416842">
<ele>320.437</ele>
<time>2019-05-30T16:44:50Z</time>
</trkpt>
<trkpt lat="49.504025" lon="10.416884">
<ele>320.437</ele>
<time>2019-05-30T16:44:51Z</time>
</trkpt>
<trkpt lat="49.504025" lon="10.416877">
<ele>320.437</ele>
<time>2019-05-30T16:44:52Z</time>
</trkpt>
<trkpt lat="49.504025" lon="10.416874">
<ele>320.437</ele>
<time>2019-05-30T16:44:53Z</time>
</trkpt>
<trkpt lat="49.504028" lon="10.416855">
<ele>320.437</ele>
<time>2019-05-30T16:44:54Z</time>
</trkpt>
<trkpt lat="49.504036" lon="10.416845">
<ele>320.437</ele>
<time>2019-05-30T16:44:55Z</time>
</trkpt>
<trkpt lat="49.504044" lon="10.416823">
<ele>320.437</ele>
<time>2019-05-30T16:44:56Z</time>
</trkpt>
<trkpt lat="49.504032" lon="10.416843">
<ele>320.437</ele>
<time>2019-05-30T16:44:58Z</time>
</trkpt>
<trkpt lat="49.504028" lon="10.41686">
<ele>320.437</ele>
<time>2019-05-30T16:44:59Z</time>
</trkpt>
<trkpt lat="49.504025" lon="10.416865">
<ele>320.437</ele>
<time>2019-05-30T16:45:00Z</time>
</trkpt>
<trkpt lat="49.504025" lon="10.41687">
<ele>320.437</ele>
<time>2019-05-30T16:45:01Z</time>
</trkpt>
<trkpt lat="49.504025" lon="10.41686">
<ele>320.437</ele>
<time>2019-05-30T16:45:02Z</time>
</trkpt>
<trkpt lat="49.504021" lon="10.416839">
<ele>320.437</ele>
<time>2019-05-30T16:45:03Z</time>
</trkpt>
<trkpt lat="49.504021" lon="10.416824">
<ele>320.437</ele>
<time>2019-05-30T16:45:04Z</time>
</trkpt>
<trkpt lat="49.504025" lon="10.416817">
<ele>320.437</ele>
<time>2019-05-30T16:45:05Z</time>
</trkpt>
<trkpt lat="49.504017" lon="10.416818">
<ele>320.437</ele>
<time>2019-05-30T16:45:06Z</time>
</trkpt>
<trkpt lat="49.50407" lon="10.41673">
<ele>320.437</ele>
<time>2019-05-30T16:45:15Z</time>
</trkpt>
<trkpt lat="49.504078" lon="10.416711">
<ele>320.437</ele>
<time>2019-05-30T16:45:16Z</time>
</trkpt>
<trkpt lat="49.504082" lon="10.4167">
<ele>320.437</ele>
<time>2019-05-30T16:45:17Z</time>
</trkpt>
<trkpt lat="49.504082" lon="10.416698">
<ele>320.437</ele>
<time>2019-05-30T16:45:18Z</time>
</trkpt>
<trkpt lat="49.504082" lon="10.416692">
<ele>320.437</ele>
<time>2019-05-30T16:45:19Z</time>
</trkpt>
<trkpt lat="49.504082" lon="10.416688">
<ele>320.437</ele>
<time>2019-05-30T16:45:20Z</time>
</trkpt>
<trkpt lat="49.504089" lon="10.416695">
<ele>320.437</ele>
<time>2019-05-30T16:45:21Z</time>
</trkpt>
<trkpt lat="49.504086" lon="10.416702">
<ele>320.437</ele>
<time>2019-05-30T16:45:22Z</time>
</trkpt>
<trkpt lat="49.504105" lon="10.416604">
<ele>320.437</ele>
<time>2019-05-30T16:45:35Z</time>
</trkpt>
<trkpt lat="49.504112" lon="10.416583">
<ele>320.437</ele>
<time>2019-05-30T16:45:36Z</time>
</trkpt>
<trkpt lat="49.504112" lon="10.41659">
<ele>320.437</ele>
<time>2019-05-30T16:45:37Z</time>
</trkpt>
<trkpt lat="49.504101" lon="10.416595">
<ele>320.437</ele>
<time>2019-05-30T16:45:38Z</time>
</trkpt>
<trkpt lat="49.504093" lon="10.4166">
<ele>320.437</ele>
<time>2019-05-30T16:45:39Z</time>
</trkpt>
<trkpt lat="49.504089" lon="10.41661">
<ele>320.437</ele>
<time>2019-05-30T16:45:40Z</time>
</trkpt>
<trkpt lat="49.504086" lon="10.416562">
<ele>320.437</ele>
<time>2019-05-30T16:45:43Z</time>
</trkpt>
<trkpt lat="49.504082" lon="10.416541">
<ele>320.437</ele>
<time>2019-05-30T16:45:44Z</time>
</trkpt>
<trkpt lat="49.504089" lon="10.416537">
<ele>320.437</ele>
<time>2019-05-30T16:45:45Z</time>
</trkpt>
<trkpt lat="49.504089" lon="10.416533">
<ele>320.437</ele>
<time>2019-05-30T16:45:46Z</time>
</trkpt>
<trkpt lat="49.504093" lon="10.416529">
<ele>320.437</ele>
<time>2019-05-30T16:45:47Z</time>
</trkpt>
<trkpt lat="49.504097" lon="10.41651">
<ele>320.437</ele>
<time>2019-05-30T16:45:48Z</time>
</trkpt>
<trkpt lat="49.504101" lon="10.416492">
<ele>320.437</ele>
<time>2019-05-30T16:45:49Z</time>
</trkpt>
<trkpt lat="49.504105" lon="10.416474">
<ele>320.437</ele>
<time>2019-05-30T16:45:50Z</time>
</trkpt>
<trkpt lat="49.504105" lon="10.416455">
<ele>320.437</ele>
<time>2019-05-30T16:45:51Z</time>
</trkpt>
<trkpt lat="49.504097" lon="10.416462">
<ele>320.437</ele>
<time>2019-05-30T16:45:52Z</time>
</trkpt>
<trkpt lat="49.504089" lon="10.416471">
<ele>320.437</ele>
<time>2019-05-30T16:45:53Z</time>
</trkpt>
<trkpt lat="49.504101" lon="10.416395">
<ele>320.437</ele>
<time>2019-05-30T16:46:03Z</time>
</trkpt>
<trkpt lat="49.504101" lon="10.416397">
<ele>320.437</ele>
<time>2019-05-30T16:46:04Z</time>
</trkpt>
<trkpt lat="49.504108" lon="10.416393">
<ele>320.437</ele>
<time>2019-05-30T16:46:05Z</time>
</trkpt>
<trkpt lat="49.504097" lon="10.416393">
<ele>320.437</ele>
<time>2019-05-30T16:46:06Z</time>
</trkpt>
<trkpt lat="49.50412" lon="10.416357">
<ele>320.437</ele>
<time>2019-05-30T16:46:11Z</time>
</trkpt>
<trkpt lat="49.504139" lon="10.41632">
<ele>320.437</ele>
<time>2019-05-30T16:46:12Z</time>
</trkpt>
<trkpt lat="49.50415" lon="10.416303">
<ele>320.437</ele>
<time>2019-05-30T16:46:13Z</time>
</trkpt>
<trkpt lat="49.504154" lon="10.416293">
<ele>320.437</ele>
<time>2019-05-30T16:46:14Z</time>
</trkpt>
<trkpt lat="49.504158" lon="10.41628">
<ele>320.437</ele>
<time>2019-05-30T16:46:15Z</time>
</trkpt>
<trkpt lat="49.504162" lon="10.416268">
<ele>320.437</ele>
<time>2019-05-30T16:46:16Z</time>
</trkpt>
<trkpt lat="49.504158" lon="10.416265">
<ele>320.437</ele>
<time>2019-05-30T16:46:17Z</time>
</trkpt>
<trkpt lat="49.504166" lon="10.416254">
<ele>320.437</ele>
<time>2019-05-30T16:46:18Z</time>
</trkpt>
<trkpt lat="49.504158" lon="10.416275">
<ele>320.437</ele>
<time>2019-05-30T16:46:19Z</time>
</trkpt>
<trkpt lat="49.504162" lon="10.416271">
<ele>320.437</ele>
<time>2019-05-30T16:46:20Z</time>
</trkpt>
<trkpt lat="49.504169" lon="10.416263">
<ele>320.437</ele>
<time>2019-05-30T16:46:21Z</time>
</trkpt>
<trkpt lat="49.504177" lon="10.416257">
<ele>320.437</ele>
<time>2019-05-30T16:46:22Z</time>
</trkpt>
<trkpt lat="49.504185" lon="10.416254">
<ele>320.437</ele>
<time>2019-05-30T16:46:23Z</time>
</trkpt>
<trkpt lat="49.504162" lon="10.416375">
<ele>320.437</ele>
<time>2019-05-30T16:46:38Z</time>
</trkpt>
<trkpt lat="49.504158" lon="10.416389">
<ele>320.437</ele>
<time>2019-05-30T16:46:40Z</time>
</trkpt>
<trkpt lat="49.50415" lon="10.416389">
<ele>320.437</ele>
<time>2019-05-30T16:46:41Z</time>
</trkpt>
<trkpt lat="49.504139" lon="10.416401">
<ele>320.437</ele>
<time>2019-05-30T16:46:42Z</time>
</trkpt>
<trkpt lat="49.50412" lon="10.416429">
<ele>320.437</ele>
<time>2019-05-30T16:46:45Z</time>
</trkpt>
<trkpt lat="49.50412" lon="10.416426">
<ele>320.437</ele>
<time>2019-05-30T16:46:46Z</time>
</trkpt>
<trkpt lat="49.504112" lon="10.416422">
<ele>320.437</ele>
<time>2019-05-30T16:46:47Z</time>
</trkpt>
<trkpt lat="49.504112" lon="10.416418">
<ele>320.437</ele>
<time>2019-05-30T16:46:48Z</time>
</trkpt>
<trkpt lat="49.504101" lon="10.416433">
<ele>320.437</ele>
<time>2019-05-30T16:46:49Z</time>
</trkpt>
<trkpt lat="49.504089" lon="10.416467">
<ele>320.437</ele>
<time>2019-05-30T16:46:50Z</time>
</trkpt>
<trkpt lat="49.504082" lon="10.416497">
<ele>320.437</ele>
<time>2019-05-30T16:46:54Z</time>
</trkpt>
<trkpt lat="49.504078" lon="10.416489">
<ele>320.437</ele>
<time>2019-05-30T16:46:55Z</time>
</trkpt>
<trkpt lat="49.504082" lon="10.416495">
<ele>320.437</ele>
<time>2019-05-30T16:46:56Z</time>
</trkpt>
<trkpt lat="49.504078" lon="10.416499">
<ele>320.437</ele>
<time>2019-05-30T16:46:57Z</time>
</trkpt>
<trkpt lat="49.504074" lon="10.416513">
<ele>320.437</ele>
<time>2019-05-30T16:46:58Z</time>
</trkpt>
<trkpt lat="49.50407" lon="10.416525">
<ele>320.437</ele>
<time>2019-05-30T16:46:59Z</time>
</trkpt>
<trkpt lat="49.504074" lon="10.416525">
<ele>320.437</ele>
<time>2019-05-30T16:47:00Z</time>
</trkpt>
<trkpt lat="49.504074" lon="10.416529">
<ele>320.437</ele>
<time>2019-05-30T16:47:01Z</time>
</trkpt>
<trkpt lat="49.504074" lon="10.416527">
<ele>320.437</ele>
<time>2019-05-30T16:47:02Z</time>
</trkpt>
<trkpt lat="49.504108" lon="10.41648">
<ele>320.437</ele>
<time>2019-05-30T16:47:56Z</time>
</trkpt>
<trkpt lat="49.50412" lon="10.416451">
<ele>320.437</ele>
<time>2019-05-30T16:47:57Z</time>
</trkpt>
<trkpt lat="49.504124" lon="10.41643">
<ele>320.437</ele>
<time>2019-05-30T16:47:58Z</time>
</trkpt>
<trkpt lat="49.504131" lon="10.416415">
<ele>320.437</ele>
<time>2019-05-30T16:47:59Z</time>
</trkpt>
<trkpt lat="49.504139" lon="10.416407">
<ele>320.437</ele>
<time>2019-05-30T16:48:00Z</time>
</trkpt>
<trkpt lat="49.504143" lon="10.416403">
<ele>320.437</ele>
<time>2019-05-30T16:48:01Z</time>
</trkpt>
<trkpt lat="49.504143" lon="10.416398">
<ele>320.437</ele>
<time>2019-05-30T16:48:02Z</time>
</trkpt>
<trkpt lat="49.504147" lon="10.416393">
<ele>320.437</ele>
<time>2019-05-30T16:48:03Z</time>
</trkpt>
<trkpt lat="49.504143" lon="10.416392">
<ele>320.437</ele>
<time>2019-05-30T16:48:04Z</time>
</trkpt>
<trkpt lat="49.504139" lon="10.41639">
<ele>320.437</ele>
<time>2019-05-30T16:48:05Z</time>
</trkpt>
<trkpt lat="49.504139" lon="10.416403">
<ele>320.437</ele>
<time>2019-05-30T16:48:06Z</time>
</trkpt>
<trkpt lat="49.504135" lon="10.416405">
<ele>320.437</ele>
<time>2019-05-30T16:48:07Z</time>
</trkpt>
<trkpt lat="49.504135" lon="10.416409">
<ele>320.437</ele>
<time>2019-05-30T16:48:08Z</time>
</trkpt>
<trkpt lat="49.504139" lon="10.416387">
<ele>320.437</ele>
<time>2019-05-30T16:48:10Z</time>
</trkpt>
<trkpt lat="49.504139" lon="10.416382">
<ele>320.437</ele>
<time>2019-05-30T16:48:11Z</time>
</trkpt>
<trkpt lat="49.504131" lon="10.416393">
<ele>320.437</ele>
<time>2019-05-30T16:48:12Z</time>
</trkpt>
<trkpt lat="49.504131" lon="10.416385">
<ele>320.437</ele>
<time>2019-05-30T16:48:13Z</time>
</trkpt>
<trkpt lat="49.50412" lon="10.416387">
<ele>320.437</ele>
<time>2019-05-30T16:48:14Z</time>
</trkpt>
<trkpt lat="49.50412" lon="10.416395">
<ele>320.437</ele>
<time>2019-05-30T16:48:15Z</time>
</trkpt>
<trkpt lat="49.504112" lon="10.416409">
<ele>320.437</ele>
<time>2019-05-30T16:48:16Z</time>
</trkpt>
<trkpt lat="49.504108" lon="10.41642">
<ele>320.437</ele>
<time>2019-05-30T16:48:17Z</time>
</trkpt>
<trkpt lat="49.504105" lon="10.41643">
<ele>320.437</ele>
<time>2019-05-30T16:48:18Z</time>
</trkpt>
<trkpt lat="49.504097" lon="10.416502">
<ele>320.437</ele>
<time>2019-05-30T16:48:25Z</time>
</trkpt>
<trkpt lat="49.504097" lon="10.416505">
<ele>320.437</ele>
<time>2019-05-30T16:48:26Z</time>
</trkpt>
<trkpt lat="49.504093" lon="10.416516">
<ele>320.437</ele>
<time>2019-05-30T16:48:27Z</time>
</trkpt>
<trkpt lat="49.504089" lon="10.416541">
<ele>320.437</ele>
<time>2019-05-30T16:48:28Z</time>
</trkpt>
<trkpt lat="49.504089" lon="10.416537">
<ele>320.437</ele>
<time>2019-05-30T16:48:29Z</time>
</trkpt>
<trkpt lat="49.504089" lon="10.416539">
<ele>320.437</ele>
<time>2019-05-30T16:48:30Z</time>
</trkpt>
<trkpt lat="49.504086" lon="10.416543">
<ele>320.437</ele>
<time>2019-05-30T16:48:31Z</time>
</trkpt>
<trkpt lat="49.504082" lon="10.416547">
<ele>320.437</ele>
<time>2019-05-30T16:48:32Z</time>
</trkpt>
<trkpt lat="49.504059" lon="10.416573">
<ele>320.437</ele>
<time>2019-05-30T16:48:40Z</time>
</trkpt>
<trkpt lat="49.504059" lon="10.41658">
<ele>320.437</ele>
<time>2019-05-30T16:48:41Z</time>
</trkpt>
<trkpt lat="49.504055" lon="10.416585">
<ele>320.437</ele>
<time>2019-05-30T16:48:42Z</time>
</trkpt>
<trkpt lat="49.504051" lon="10.416587">
<ele>320.437</ele>
<time>2019-05-30T16:48:44Z</time>
</trkpt>
<trkpt lat="49.504051" lon="10.416583">
<ele>320.437</ele>
<time>2019-05-30T16:48:45Z</time>
</trkpt>
<trkpt lat="49.504005" lon="10.416636">
<ele>320.437</ele>
<time>2019-05-30T16:48:49Z</time>
</trkpt>
<trkpt lat="49.504002" lon="10.41664">
<ele>320.437</ele>
<time>2019-05-30T16:48:50Z</time>
</trkpt>
<trkpt lat="49.504002" lon="10.416648">
<ele>320.437</ele>
<time>2019-05-30T16:48:51Z</time>
</trkpt>
<trkpt lat="49.503998" lon="10.416646">
<ele>320.437</ele>
<time>2019-05-30T16:48:52Z</time>
</trkpt>
<trkpt lat="49.503994" lon="10.416652">
<ele>320.437</ele>
<time>2019-05-30T16:48:53Z</time>
</trkpt>
<trkpt lat="49.50399" lon="10.416655">
<ele>320.437</ele>
<time>2019-05-30T16:48:54Z</time>
</trkpt>
<trkpt lat="49.50399" lon="10.416646">
<ele>320.437</ele>
<time>2019-05-30T16:49:04Z</time>
</trkpt>
<trkpt lat="49.503994" lon="10.416646">
<ele>320.437</ele>
<time>2019-05-30T16:49:05Z</time>
</trkpt>
<trkpt lat="49.504002" lon="10.416605">
<ele>320.437</ele>
<time>2019-05-30T16:49:28Z</time>
</trkpt>
<trkpt lat="49.504002" lon="10.416594">
<ele>320.437</ele>
<time>2019-05-30T16:49:29Z</time>
</trkpt>
<trkpt lat="49.504005" lon="10.416595">
<ele>320.437</ele>
<time>2019-05-30T16:49:30Z</time>
</trkpt>
<trkpt lat="49.504005" lon="10.416592">
<ele>320.437</ele>
<time>2019-05-30T16:49:31Z</time>
</trkpt>
<trkpt lat="49.504009" lon="10.416592">
<ele>320.437</ele>
<time>2019-05-30T16:49:32Z</time>
</trkpt>
<trkpt lat="49.504025" lon="10.416587">
<ele>320.437</ele>
<time>2019-05-30T16:49:35Z</time>
</trkpt>
<trkpt lat="49.504028" lon="10.416592">
<ele>320.437</ele>
<time>2019-05-30T16:49:36Z</time>
</trkpt>
<trkpt lat="49.504028" lon="10.416589">
<ele>320.437</ele>
<time>2019-05-30T16:49:37Z</time>
</trkpt>
<trkpt lat="49.504036" lon="10.416581">
<ele>320.437</ele>
<time>2019-05-30T16:49:38Z</time>
</trkpt>
<trkpt lat="49.504036" lon="10.416578">
<ele>320.437</ele>
<time>2019-05-30T16:49:39Z</time>
</trkpt>
<trkpt lat="49.504032" lon="10.416572">
<ele>320.437</ele>
<time>2019-05-30T16:49:40Z</time>
</trkpt>
<trkpt lat="49.504028" lon="10.41656">
<ele>320.437</ele>
<time>2019-05-30T16:49:41Z</time>
</trkpt>
<trkpt lat="49.504025" lon="10.416556">
<ele>320.437</ele>
<time>2019-05-30T16:49:42Z</time>
</trkpt>
<trkpt lat="49.504021" lon="10.416565">
<ele>320.437</ele>
<time>2019-05-30T16:49:43Z</time>
</trkpt>
<trkpt lat="49.504013" lon="10.416587">
<ele>320.437</ele>
<time>2019-05-30T16:49:44Z</time>
</trkpt>
<trkpt lat="49.504009" lon="10.416602">
<ele>320.437</ele>
<time>2019-05-30T16:49:45Z</time>
</trkpt>
<trkpt lat="49.504009" lon="10.416613">
<ele>320.437</ele>
<time>2019-05-30T16:49:46Z</time>
</trkpt>
<trkpt lat="49.504005" lon="10.416623">
<ele>320.437</ele>
<time>2019-05-30T16:49:47Z</time>
</trkpt>
<trkpt lat="49.504005" lon="10.416627">
<ele>320.437</ele>
<time>2019-05-30T16:49:48Z</time>
</trkpt>
<trkpt lat="49.503998" lon="10.416643">
<ele>320.437</ele>
<time>2019-05-30T16:49:49Z</time>
</trkpt>
<trkpt lat="49.503994" lon="10.416652">
<ele>320.437</ele>
<time>2019-05-30T16:49:50Z</time>
</trkpt>
<trkpt lat="49.503998" lon="10.41665">
<ele>320.437</ele>
<time>2019-05-30T16:49:51Z</time>
</trkpt>
<trkpt lat="49.504005" lon="10.416646">
<ele>320.437</ele>
<time>2019-05-30T16:49:52Z</time>
</trkpt>
<trkpt lat="49.504005" lon="10.416645">
<ele>320.437</ele>
<time>2019-05-30T16:49:53Z</time>
</trkpt>
<trkpt lat="49.504021" lon="10.416643">
<ele>320.437</ele>
<time>2019-05-30T16:50:48Z</time>
</trkpt>
<trkpt lat="49.504017" lon="10.41664">
<ele>320.437</ele>
<time>2019-05-30T16:50:49Z</time>
</trkpt>
<trkpt lat="49.504021" lon="10.416637">
<ele>320.437</ele>
<time>2019-05-30T16:50:50Z</time>
</trkpt>
<trkpt lat="49.504025" lon="10.416637">
<ele>320.437</ele>
<time>2019-05-30T16:50:51Z</time>
</trkpt>
<trkpt lat="49.504028" lon="10.416646">
<ele>320.437</ele>
<time>2019-05-30T16:51:01Z</time>
</trkpt>
<trkpt lat="49.504028" lon="10.41665">
<ele>320.437</ele>
<time>2019-05-30T16:51:02Z</time>
</trkpt>
<trkpt lat="49.504036" lon="10.416636">
<ele>320.437</ele>
<time>2019-05-30T16:51:03Z</time>
</trkpt>
<trkpt lat="49.504036" lon="10.416621">
<ele>320.437</ele>
<time>2019-05-30T16:51:04Z</time>
</trkpt>
<trkpt lat="49.504047" lon="10.416613">
<ele>320.437</ele>
<time>2019-05-30T16:51:05Z</time>
</trkpt>
<trkpt lat="49.504055" lon="10.416608">
<ele>320.437</ele>
<time>2019-05-30T16:51:06Z</time>
</trkpt>
<trkpt lat="49.504055" lon="10.4166">
<ele>320.437</ele>
<time>2019-05-30T16:51:07Z</time>
</trkpt>
<trkpt lat="49.504059" lon="10.4166">
<ele>320.437</ele>
<time>2019-05-30T16:51:08Z</time>
</trkpt>
<trkpt lat="49.504066" lon="10.416592">
<ele>320.437</ele>
<time>2019-05-30T16:51:09Z</time>
</trkpt>
<trkpt lat="49.504078" lon="10.416558">
<ele>320.437</ele>
<time>2019-05-30T16:51:10Z</time>
</trkpt>
<trkpt lat="49.504078" lon="10.416541">
<ele>320.437</ele>
<time>2019-05-30T16:51:11Z</time>
</trkpt>
<trkpt lat="49.504097" lon="10.416525">
<ele>320.437</ele>
<time>2019-05-30T16:51:12Z</time>
</trkpt>
<trkpt lat="49.504101" lon="10.41652">
<ele>320.437</ele>
<time>2019-05-30T16:51:13Z</time>
</trkpt>
<trkpt lat="49.504093" lon="10.416516">
<ele>320.437</ele>
<time>2019-05-30T16:51:14Z</time>
</trkpt>
<trkpt lat="49.504097" lon="10.416497">
<ele>320.437</ele>
<time>2019-05-30T16:51:15Z</time>
</trkpt>
<trkpt lat="49.504097" lon="10.416478">
<ele>320.437</ele>
<time>2019-05-30T16:51:16Z</time>
</trkpt>
<trkpt lat="49.504101" lon="10.41646">
<ele>320.437</ele>
<time>2019-05-30T16:51:17Z</time>
</trkpt>
<trkpt lat="49.504097" lon="10.416457">
<ele>320.437</ele>
<time>2019-05-30T16:51:18Z</time>
</trkpt>
<trkpt lat="49.504047" lon="10.416497">
<ele>320.437</ele>
<time>2019-05-30T16:51:22Z</time>
</trkpt>
<trkpt lat="49.504036" lon="10.416505">
<ele>320.437</ele>
<time>2019-05-30T16:51:23Z</time>
</trkpt>
<trkpt lat="49.504044" lon="10.416493">
<ele>320.437</ele>
<time>2019-05-30T16:51:24Z</time>
</trkpt>
<trkpt lat="49.504055" lon="10.416473">
<ele>320.437</ele>
<time>2019-05-30T16:51:25Z</time>
</trkpt>
<trkpt lat="49.504059" lon="10.416451">
<ele>320.437</ele>
<time>2019-05-30T16:51:26Z</time>
</trkpt>
<trkpt lat="49.504074" lon="10.416424">
<ele>320.437</ele>
<time>2019-05-30T16:51:27Z</time>
</trkpt>
<trkpt lat="49.504082" lon="10.416409">
<ele>320.437</ele>
<time>2019-05-30T16:51:28Z</time>
</trkpt>
<trkpt lat="49.504074" lon="10.416413">
<ele>320.437</ele>
<time>2019-05-30T16:51:29Z</time>
</trkpt>
<trkpt lat="49.504066" lon="10.416422">
<ele>320.437</ele>
<time>2019-05-30T16:51:30Z</time>
</trkpt>
<trkpt lat="49.504066" lon="10.41642">
<ele>320.437</ele>
<time>2019-05-30T16:51:31Z</time>
</trkpt>
<trkpt lat="49.504055" lon="10.416413">
<ele>320.437</ele>
<time>2019-05-30T16:51:33Z</time>
</trkpt>
<trkpt lat="49.504055" lon="10.416418">
<ele>320.437</ele>
<time>2019-05-30T16:51:34Z</time>
</trkpt>
<trkpt lat="49.504059" lon="10.416422">
<ele>320.437</ele>
<time>2019-05-30T16:51:35Z</time>
</trkpt>
<trkpt lat="49.504066" lon="10.416417">
<ele>320.437</ele>
<time>2019-05-30T16:51:36Z</time>
</trkpt>
<trkpt lat="49.50407" lon="10.41642">
<ele>320.437</ele>
<time>2019-05-30T16:51:37Z</time>
</trkpt>
<trkpt lat="49.504074" lon="10.416418">
<ele>320.437</ele>
<time>2019-05-30T16:51:38Z</time>
</trkpt>
<trkpt lat="49.504105" lon="10.416375">
<ele>320.437</ele>
<time>2019-05-30T16:51:41Z</time>
</trkpt>
<trkpt lat="49.504116" lon="10.416389">
<ele>320.437</ele>
<time>2019-05-30T16:51:42Z</time>
</trkpt>
<trkpt lat="49.504124" lon="10.416392">
<ele>320.437</ele>
<time>2019-05-30T16:51:43Z</time>
</trkpt>
<trkpt lat="49.50412" lon="10.416405">
<ele>320.437</ele>
<time>2019-05-30T16:51:44Z</time>
</trkpt>
<trkpt lat="49.50415" lon="10.416413">
<ele>320.437</ele>
<time>2019-05-30T16:51:45Z</time>
</trkpt>
<trkpt lat="49.504162" lon="10.416434">
<ele>320.437</ele>
<time>2019-05-30T16:51:46Z</time>
</trkpt>
<trkpt lat="49.504169" lon="10.41645">
<ele>320.437</ele>
<time>2019-05-30T16:51:47Z</time>
</trkpt>
<trkpt lat="49.504154" lon="10.416445">
<ele>320.437</ele>
<time>2019-05-30T16:51:48Z</time>
</trkpt>
<trkpt lat="49.50415" lon="10.416443">
<ele>320.437</ele>
<time>2019-05-30T16:51:49Z</time>
</trkpt>
<trkpt lat="49.504143" lon="10.41644">
<ele>320.437</ele>
<time>2019-05-30T16:51:50Z</time>
</trkpt>
<trkpt lat="49.504143" lon="10.416438">
<ele>320.437</ele>
<time>2019-05-30T16:51:51Z</time>
</trkpt>
<trkpt lat="49.504143" lon="10.416434">
<ele>320.437</ele>
<time>2019-05-30T16:51:52Z</time>
</trkpt>
<trkpt lat="49.504154" lon="10.416424">
<ele>320.437</ele>
<time>2019-05-30T16:51:53Z</time>
</trkpt>
<trkpt lat="49.504158" lon="10.416418">
<ele>320.437</ele>
<time>2019-05-30T16:51:54Z</time>
</trkpt>
<trkpt lat="49.504162" lon="10.416407">
<ele>320.437</ele>
<time>2019-05-30T16:51:55Z</time>
</trkpt>
<trkpt lat="49.504162" lon="10.416403">
<ele>320.437</ele>
<time>2019-05-30T16:51:56Z</time>
</trkpt>
<trkpt lat="49.504169" lon="10.416389">
<ele>320.437</ele>
<time>2019-05-30T16:51:57Z</time>
</trkpt>
<trkpt lat="49.504181" lon="10.416367">
<ele>320.437</ele>
<time>2019-05-30T16:51:58Z</time>
</trkpt>
<trkpt lat="49.504185" lon="10.416352">
<ele>320.437</ele>
<time>2019-05-30T16:51:59Z</time>
</trkpt>
<trkpt lat="49.504189" lon="10.416335">
<ele>320.437</ele>
<time>2019-05-30T16:52:00Z</time>
</trkpt>
<trkpt lat="49.5042" lon="10.41632">
<ele>320.437</ele>
<time>2019-05-30T16:52:01Z</time>
</trkpt>
<trkpt lat="49.504196" lon="10.416322">
<ele>320.437</ele>
<time>2019-05-30T16:52:02Z</time>
</trkpt>
<trkpt lat="49.504192" lon="10.416308">
<ele>320.437</ele>
<time>2019-05-30T16:52:03Z</time>
</trkpt>
<trkpt lat="49.504189" lon="10.416293">
<ele>320.437</ele>
<time>2019-05-30T16:52:04Z</time>
</trkpt>
<trkpt lat="49.504185" lon="10.416284">
<ele>320.437</ele>
<time>2019-05-30T16:52:05Z</time>
</trkpt>
<trkpt lat="49.504185" lon="10.416286">
<ele>320.437</ele>
<time>2019-05-30T16:52:06Z</time>
</trkpt>
<trkpt lat="49.504189" lon="10.416288">
<ele>320.437</ele>
<time>2019-05-30T16:52:07Z</time>
</trkpt>
<trkpt lat="49.504185" lon="10.416292">
<ele>320.437</ele>
<time>2019-05-30T16:52:08Z</time>
</trkpt>
<trkpt lat="49.504177" lon="10.416282">
<ele>320.437</ele>
<time>2019-05-30T16:52:09Z</time>
</trkpt>
<trkpt lat="49.504166" lon="10.416277">
<ele>320.437</ele>
<time>2019-05-30T16:52:10Z</time>
</trkpt>
<trkpt lat="49.50415" lon="10.416311">
<ele>320.437</ele>
<time>2019-05-30T16:52:14Z</time>
</trkpt>
<trkpt lat="49.504147" lon="10.416315">
<ele>320.437</ele>
<time>2019-05-30T16:52:15Z</time>
</trkpt>
<trkpt lat="49.504143" lon="10.41632">
<ele>320.437</ele>
<time>2019-05-30T16:52:16Z</time>
</trkpt>
<trkpt lat="49.504131" lon="10.416327">
<ele>320.437</ele>
<time>2019-05-30T16:52:17Z</time>
</trkpt>
<trkpt lat="49.504128" lon="10.416327">
<ele>320.437</ele>
<time>2019-05-30T16:52:18Z</time>
</trkpt>
<trkpt lat="49.504128" lon="10.416352">
<ele>320.437</ele>
<time>2019-05-30T16:52:20Z</time>
</trkpt>
<trkpt lat="49.504131" lon="10.416355">
<ele>320.437</ele>
<time>2019-05-30T16:52:21Z</time>
</trkpt>
<trkpt lat="49.504124" lon="10.416363">
<ele>320.437</ele>
<time>2019-05-30T16:52:22Z</time>
</trkpt>
<trkpt lat="49.504131" lon="10.416362">
<ele>320.437</ele>
<time>2019-05-30T16:52:23Z</time>
</trkpt>
<trkpt lat="49.504135" lon="10.416352">
<ele>320.437</ele>
<time>2019-05-30T16:52:24Z</time>
</trkpt>
<trkpt lat="49.504128" lon="10.416344">
<ele>320.437</ele>
<time>2019-05-30T16:52:25Z</time>
</trkpt>
<trkpt lat="49.50412" lon="10.41636">
<ele>320.437</ele>
<time>2019-05-30T16:52:26Z</time>
</trkpt>
<trkpt lat="49.50412" lon="10.416362">
<ele>320.437</ele>
<time>2019-05-30T16:52:27Z</time>
</trkpt>
<trkpt lat="49.504108" lon="10.4164">
<ele>320.437</ele>
<time>2019-05-30T16:52:39Z</time>
</trkpt>
<trkpt lat="49.504108" lon="10.416405">
<ele>320.437</ele>
<time>2019-05-30T16:52:40Z</time>
</trkpt>
<trkpt lat="49.504105" lon="10.416409">
<ele>320.437</ele>
<time>2019-05-30T16:52:41Z</time>
</trkpt>
<trkpt lat="49.504108" lon="10.416405">
<ele>320.437</ele>
<time>2019-05-30T16:52:42Z</time>
</trkpt>
<trkpt lat="49.504074" lon="10.416467">
<ele>320.437</ele>
<time>2019-05-30T16:52:53Z</time>
</trkpt>
<trkpt lat="49.504074" lon="10.416468">
<ele>320.437</ele>
<time>2019-05-30T16:52:54Z</time>
</trkpt>
<trkpt lat="49.50407" lon="10.416466">
<ele>320.437</ele>
<time>2019-05-30T16:52:55Z</time>
</trkpt>
<trkpt lat="49.50407" lon="10.41647">
<ele>320.437</ele>
<time>2019-05-30T16:52:56Z</time>
</trkpt>
<trkpt lat="49.504025" lon="10.416573">
<ele>320.437</ele>
<time>2019-05-30T16:53:16Z</time>
</trkpt>
<trkpt lat="49.504025" lon="10.416574">
<ele>320.437</ele>
<time>2019-05-30T16:53:17Z</time>
</trkpt>
<trkpt lat="49.504025" lon="10.416572">
<ele>320.437</ele>
<time>2019-05-30T16:53:18Z</time>
</trkpt>
<trkpt lat="49.504025" lon="10.416571">
<ele>320.437</ele>
<time>2019-05-30T16:53:19Z</time>
</trkpt>
<trkpt lat="49.503986" lon="10.416643">
<ele>320.437</ele>
<time>2019-05-30T16:53:40Z</time>
</trkpt>
<trkpt lat="49.503986" lon="10.416634">
<ele>320.437</ele>
<time>2019-05-30T16:53:41Z</time>
</trkpt>
<trkpt lat="49.503986" lon="10.416629">
<ele>320.437</ele>
<time>2019-05-30T16:53:42Z</time>
</trkpt>
<trkpt lat="49.50399" lon="10.416625">
<ele>320.437</ele>
<time>2019-05-30T16:53:43Z</time>
</trkpt>
<trkpt lat="49.50399" lon="10.416616">
<ele>320.437</ele>
<time>2019-05-30T16:53:44Z</time>
</trkpt>
<trkpt lat="49.503998" lon="10.416608">
<ele>320.437</ele>
<time>2019-05-30T16:53:45Z</time>
</trkpt>
<trkpt lat="49.504025" lon="10.416583">
<ele>320.437</ele>
<time>2019-05-30T16:53:57Z</time>
</trkpt>
<trkpt lat="49.504025" lon="10.416576">
<ele>320.437</ele>
<time>2019-05-30T16:53:58Z</time>
</trkpt>
<trkpt lat="49.504021" lon="10.416573">
<ele>320.437</ele>
<time>2019-05-30T16:53:59Z</time>
</trkpt>
<trkpt lat="49.504017" lon="10.416564">
<ele>320.437</ele>
<time>2019-05-30T16:54:00Z</time>
</trkpt>
<trkpt lat="49.504017" lon="10.416556">
<ele>320.437</ele>
<time>2019-05-30T16:54:01Z</time>
</trkpt>
<trkpt lat="49.504013" lon="10.416558">
<ele>320.437</ele>
<time>2019-05-30T16:54:02Z</time>
</trkpt>
<trkpt lat="49.504013" lon="10.41656">
<ele>320.437</ele>
<time>2019-05-30T16:54:03Z</time>
</trkpt>
<trkpt lat="49.504013" lon="10.416538">
<ele>320.437</ele>
<time>2019-05-30T16:54:09Z</time>
</trkpt>
<trkpt lat="49.504005" lon="10.416533">
<ele>320.437</ele>
<time>2019-05-30T16:54:10Z</time>
</trkpt>
<trkpt lat="49.504002" lon="10.416531">
<ele>320.437</ele>
<time>2019-05-30T16:54:11Z</time>
</trkpt>
<trkpt lat="49.504002" lon="10.416525">
<ele>320.437</ele>
<time>2019-05-30T16:54:12Z</time>
</trkpt>
<trkpt lat="49.504005" lon="10.416522">
<ele>320.437</ele>
<time>2019-05-30T16:54:13Z</time>
</trkpt>
<trkpt lat="49.503998" lon="10.416531">
<ele>320.437</ele>
<time>2019-05-30T16:54:14Z</time>
</trkpt>
<trkpt lat="49.504002" lon="10.416533">
<ele>320.437</ele>
<time>2019-05-30T16:54:15Z</time>
</trkpt>
<trkpt lat="49.504044" lon="10.416493">
<ele>320.437</ele>
<time>2019-05-30T16:54:59Z</time>
</trkpt>
<trkpt lat="49.504044" lon="10.416497">
<ele>320.437</ele>
<time>2019-05-30T16:55:00Z</time>
</trkpt>
<trkpt lat="49.504051" lon="10.4165">
<ele>320.437</ele>
<time>2019-05-30T16:55:01Z</time>
</trkpt>
<trkpt lat="49.504047" lon="10.416507">
<ele>320.437</ele>
<time>2019-05-30T16:55:02Z</time>
</trkpt>
<trkpt lat="49.504047" lon="10.416502">
<ele>320.437</ele>
<time>2019-05-30T16:55:03Z</time>
</trkpt>
<trkpt lat="49.504044" lon="10.4165">
<ele>320.437</ele>
<time>2019-05-30T16:55:04Z</time>
</trkpt>
<trkpt lat="49.504055" lon="10.416427">
<ele>320.437</ele>
<time>2019-05-30T16:55:26Z</time>
</trkpt>
<trkpt lat="49.504055" lon="10.416415">
<ele>320.437</ele>
<time>2019-05-30T16:55:27Z</time>
</trkpt>
<trkpt lat="49.504055" lon="10.416413">
<ele>320.437</ele>
<time>2019-05-30T16:55:28Z</time>
</trkpt>
<trkpt lat="49.504059" lon="10.416422">
<ele>320.437</ele>
<time>2019-05-30T16:55:29Z</time>
</trkpt>
<trkpt lat="49.504055" lon="10.416429">
<ele>320.437</ele>
<time>2019-05-30T16:55:30Z</time>
</trkpt>
<trkpt lat="49.504055" lon="10.416443">
<ele>320.437</ele>
<time>2019-05-30T16:55:31Z</time>
</trkpt>
<trkpt lat="49.504009" lon="10.416548">
<ele>320.437</ele>
<time>2019-05-30T16:55:51Z</time>
</trkpt>
<trkpt lat="49.504013" lon="10.416547">
<ele>320.437</ele>
<time>2019-05-30T16:55:52Z</time>
</trkpt>
<trkpt lat="49.504017" lon="10.416543">
<ele>320.437</ele>
<time>2019-05-30T16:55:53Z</time>
</trkpt>
<trkpt lat="49.504025" lon="10.416539">
<ele>320.437</ele>
<time>2019-05-30T16:55:54Z</time>
</trkpt>
<trkpt lat="49.504066" lon="10.416555">
<ele>320.437</ele>
<time>2019-05-30T16:56:16Z</time>
</trkpt>
<trkpt lat="49.50407" lon="10.416548">
<ele>320.437</ele>
<time>2019-05-30T16:56:17Z</time>
</trkpt>
<trkpt lat="49.504074" lon="10.416547">
<ele>320.437</ele>
<time>2019-05-30T16:56:18Z</time>
</trkpt>
<trkpt lat="49.504078" lon="10.416533">
<ele>320.437</ele>
<time>2019-05-30T16:56:19Z</time>
</trkpt>
<trkpt lat="49.504082" lon="10.416525">
<ele>320.437</ele>
<time>2019-05-30T16:56:20Z</time>
</trkpt>
<trkpt lat="49.504089" lon="10.416512">
<ele>320.437</ele>
<time>2019-05-30T16:56:21Z</time>
</trkpt>
<trkpt lat="49.504089" lon="10.416502">
<ele>320.437</ele>
<time>2019-05-30T16:56:22Z</time>
</trkpt>
<trkpt lat="49.504093" lon="10.416492">
<ele>320.437</ele>
<time>2019-05-30T16:56:23Z</time>
</trkpt>
<trkpt lat="49.504093" lon="10.416493">
<ele>320.437</ele>
<time>2019-05-30T16:56:24Z</time>
</trkpt>
<trkpt lat="49.504093" lon="10.416492">
<ele>320.437</ele>
<time>2019-05-30T16:56:25Z</time>
</trkpt>
<trkpt lat="49.504101" lon="10.416482">
<ele>320.437</ele>
<time>2019-05-30T16:56:26Z</time>
</trkpt>
<trkpt lat="49.504101" lon="10.416473">
<ele>320.437</ele>
<time>2019-05-30T16:56:27Z</time>
</trkpt>
<trkpt lat="49.504105" lon="10.41647">
<ele>320.437</ele>
<time>2019-05-30T16:56:28Z</time>
</trkpt>
<trkpt lat="49.504108" lon="10.41647">
<ele>320.437</ele>
<time>2019-05-30T16:56:30Z</time>
</trkpt>
<trkpt lat="49.504063" lon="10.416512">
<ele>320.437</ele>
<time>2019-05-30T16:57:37Z</time>
</trkpt>
<trkpt lat="49.504059" lon="10.416522">
<ele>320.437</ele>
<time>2019-05-30T16:57:39Z</time>
</trkpt>
<trkpt lat="49.504059" lon="10.416515">
<ele>320.437</ele>
<time>2019-05-30T16:57:40Z</time>
</trkpt>
<trkpt lat="49.504028" lon="10.416576">
<ele>320.437</ele>
<time>2019-05-30T16:58:09Z</time>
</trkpt>
<trkpt lat="49.504025" lon="10.416578">
<ele>320.437</ele>
<time>2019-05-30T16:58:10Z</time>
</trkpt>
<trkpt lat="49.504025" lon="10.416572">
<ele>320.437</ele>
<time>2019-05-30T16:58:11Z</time>
</trkpt>
<trkpt lat="49.504021" lon="10.416572">
<ele>320.437</ele>
<time>2019-05-30T16:58:12Z</time>
</trkpt>
<trkpt lat="49.504025" lon="10.416562">
<ele>320.437</ele>
<time>2019-05-30T16:58:14Z</time>
</trkpt>
<trkpt lat="49.504025" lon="10.416556">
<ele>320.437</ele>
<time>2019-05-30T16:58:15Z</time>
</trkpt>
<trkpt lat="49.504025" lon="10.416552">
<ele>320.437</ele>
<time>2019-05-30T16:58:16Z</time>
</trkpt>
<trkpt lat="49.504055" lon="10.416485">
<ele>320.437</ele>
<time>2019-05-30T16:58:38Z</time>
</trkpt>
<trkpt lat="49.504051" lon="10.416489">
<ele>320.437</ele>
<time>2019-05-30T16:58:39Z</time>
</trkpt>
<trkpt lat="49.504051" lon="10.416485">
<ele>320.437</ele>
<time>2019-05-30T16:58:40Z</time>
</trkpt>
<trkpt lat="49.504074" lon="10.416471">
<ele>320.437</ele>
<time>2019-05-30T16:59:05Z</time>
</trkpt>
<trkpt lat="49.504078" lon="10.416466">
<ele>320.437</ele>
<time>2019-05-30T16:59:06Z</time>
</trkpt>
<trkpt lat="49.504082" lon="10.416457">
<ele>320.437</ele>
<time>2019-05-30T16:59:07Z</time>
</trkpt>
<trkpt lat="49.504086" lon="10.416458">
<ele>320.437</ele>
<time>2019-05-30T16:59:08Z</time>
</trkpt>
<trkpt lat="49.504082" lon="10.416464">
<ele>320.437</ele>
<time>2019-05-30T16:59:09Z</time>
</trkpt>
<trkpt lat="49.504089" lon="10.416457">
<ele>320.437</ele>
<time>2019-05-30T16:59:10Z</time>
</trkpt>
<trkpt lat="49.504089" lon="10.416453">
<ele>320.437</ele>
<time>2019-05-30T16:59:11Z</time>
</trkpt>
<trkpt lat="49.504093" lon="10.41647">
<ele>320.437</ele>
<time>2019-05-30T16:59:23Z</time>
</trkpt>
<trkpt lat="49.504097" lon="10.416468">
<ele>320.437</ele>
<time>2019-05-30T16:59:24Z</time>
</trkpt>
<trkpt lat="49.504093" lon="10.416476">
<ele>320.437</ele>
<time>2019-05-30T16:59:25Z</time>
</trkpt>
<trkpt lat="49.504089" lon="10.416482">
<ele>320.437</ele>
<time>2019-05-30T16:59:26Z</time>
</trkpt>
<trkpt lat="49.504097" lon="10.416474">
<ele>320.437</ele>
<time>2019-05-30T16:59:27Z</time>
</trkpt>
<trkpt lat="49.504097" lon="10.416467">
<ele>320.437</ele>
<time>2019-05-30T16:59:31Z</time>
</trkpt>
<trkpt lat="49.504089" lon="10.416476">
<ele>320.437</ele>
<time>2019-05-30T16:59:33Z</time>
</trkpt>
<trkpt lat="49.504093" lon="10.416474">
<ele>320.437</ele>
<time>2019-05-30T16:59:34Z</time>
</trkpt>
<trkpt lat="49.504089" lon="10.416474">
<ele>320.437</ele>
<time>2019-05-30T16:59:43Z</time>
</trkpt>
<trkpt lat="49.504093" lon="10.416466">
<ele>320.437</ele>
<time>2019-05-30T16:59:44Z</time>
</trkpt>
<trkpt lat="49.504093" lon="10.416455">
<ele>320.437</ele>
<time>2019-05-30T16:59:45Z</time>
</trkpt>
<trkpt lat="49.504089" lon="10.416462">
<ele>320.437</ele>
<time>2019-05-30T16:59:46Z</time>
</trkpt>
<trkpt lat="49.504078" lon="10.416482">
<ele>320.437</ele>
<time>2019-05-30T16:59:52Z</time>
</trkpt>
<trkpt lat="49.504078" lon="10.416491">
<ele>320.437</ele>
<time>2019-05-30T16:59:53Z</time>
</trkpt>
<trkpt lat="49.504078" lon="10.416497">
<ele>320.437</ele>
<time>2019-05-30T16:59:54Z</time>
</trkpt>
<trkpt lat="49.504066" lon="10.416503">
<ele>320.437</ele>
<time>2019-05-30T16:59:55Z</time>
</trkpt>
<trkpt lat="49.50407" lon="10.416516">
<ele>320.437</ele>
<time>2019-05-30T16:59:56Z</time>
</trkpt>
<trkpt lat="49.504074" lon="10.416523">
<ele>320.437</ele>
<time>2019-05-30T16:59:57Z</time>
</trkpt>
<trkpt lat="49.504086" lon="10.416537">
<ele>320.437</ele>
<time>2019-05-30T16:59:58Z</time>
</trkpt>
<trkpt lat="49.504089" lon="10.416548">
<ele>320.437</ele>
<time>2019-05-30T16:59:59Z</time>
</trkpt>
<trkpt lat="49.504097" lon="10.416552">
<ele>320.437</ele>
<time>2019-05-30T17:00:00Z</time>
</trkpt>
<trkpt lat="49.504108" lon="10.416555">
<ele>320.437</ele>
<time>2019-05-30T17:00:01Z</time>
</trkpt>
<trkpt lat="49.504116" lon="10.41656">
<ele>320.437</ele>
<time>2019-05-30T17:00:02Z</time>
</trkpt>
<trkpt lat="49.50412" lon="10.416573">
<ele>320.437</ele>
<time>2019-05-30T17:00:03Z</time>
</trkpt>
<trkpt lat="49.50412" lon="10.41658">
<ele>320.437</ele>
<time>2019-05-30T17:00:04Z</time>
</trkpt>
<trkpt lat="49.504124" lon="10.416583">
<ele>320.437</ele>
<time>2019-05-30T17:00:05Z</time>
</trkpt>
<trkpt lat="49.504124" lon="10.416578">
<ele>320.437</ele>
<time>2019-05-30T17:00:06Z</time>
</trkpt>
<trkpt lat="49.5042" lon="10.416571">
<ele>320.437</ele>
<time>2019-05-30T17:01:37Z</time>
</trkpt>
<trkpt lat="49.504208" lon="10.416564">
<ele>320.437</ele>
<time>2019-05-30T17:01:38Z</time>
</trkpt>
<trkpt lat="49.504215" lon="10.41656">
<ele>320.437</ele>
<time>2019-05-30T17:01:39Z</time>
</trkpt>
<trkpt lat="49.504223" lon="10.416553">
<ele>320.437</ele>
<time>2019-05-30T17:01:40Z</time>
</trkpt>
<trkpt lat="49.504246" lon="10.41655">
<ele>320.437</ele>
<time>2019-05-30T17:01:41Z</time>
</trkpt>
<trkpt lat="49.504261" lon="10.416547">
<ele>320.437</ele>
<time>2019-05-30T17:01:42Z</time>
</trkpt>
<trkpt lat="49.50428" lon="10.416545">
<ele>320.437</ele>
<time>2019-05-30T17:01:43Z</time>
</trkpt>
<trkpt lat="49.504292" lon="10.416541">
<ele>320.437</ele>
<time>2019-05-30T17:01:44Z</time>
</trkpt>
<trkpt lat="49.504311" lon="10.416539">
<ele>320.437</ele>
<time>2019-05-30T17:01:45Z</time>
</trkpt>
<trkpt lat="49.50433" lon="10.416537">
<ele>320.437</ele>
<time>2019-05-30T17:01:46Z</time>
</trkpt>
<trkpt lat="49.504353" lon="10.416527">
<ele>320.437</ele>
<time>2019-05-30T17:01:47Z</time>
</trkpt>
<trkpt lat="49.504379" lon="10.416507">
<ele>320.437</ele>
<time>2019-05-30T17:01:48Z</time>
</trkpt>
<trkpt lat="49.504398" lon="10.416478">
<ele>320.437</ele>
<time>2019-05-30T17:01:49Z</time>
</trkpt>
<trkpt lat="49.504417" lon="10.416438">
<ele>320.437</ele>
<time>2019-05-30T17:01:50Z</time>
</trkpt>
<trkpt lat="49.504448" lon="10.416392">
<ele>320.437</ele>
<time>2019-05-30T17:01:51Z</time>
</trkpt>
<trkpt lat="49.504478" lon="10.416373">
<ele>320.437</ele>
<time>2019-05-30T17:01:52Z</time>
</trkpt>
<trkpt lat="49.504513" lon="10.416336">
<ele>320.437</ele>
<time>2019-05-30T17:01:53Z</time>
</trkpt>
<trkpt lat="49.504543" lon="10.41631">
<ele>320.437</ele>
<time>2019-05-30T17:01:54Z</time>
</trkpt>
<trkpt lat="49.50457" lon="10.416273">
<ele>320.437</ele>
<time>2019-05-30T17:01:55Z</time>
</trkpt>
<trkpt lat="49.504593" lon="10.416238">
<ele>320.437</ele>
<time>2019-05-30T17:01:56Z</time>
</trkpt>
<trkpt lat="49.504612" lon="10.416202">
<ele>320.437</ele>
<time>2019-05-30T17:01:57Z</time>
</trkpt>
<trkpt lat="49.504635" lon="10.416164">
<ele>320.437</ele>
<time>2019-05-30T17:01:58Z</time>
</trkpt>
<trkpt lat="49.50465" lon="10.416126">
<ele>320.437</ele>
<time>2019-05-30T17:01:59Z</time>
</trkpt>
<trkpt lat="49.504669" lon="10.416083">
<ele>320.437</ele>
<time>2019-05-30T17:02:00Z</time>
</trkpt>
<trkpt lat="49.504681" lon="10.416042">
<ele>320.437</ele>
<time>2019-05-30T17:02:01Z</time>
</trkpt>
<trkpt lat="49.504704" lon="10.416005">
<ele>320.437</ele>
<time>2019-05-30T17:02:02Z</time>
</trkpt>
<trkpt lat="49.504723" lon="10.415978">
<ele>320.437</ele>
<time>2019-05-30T17:02:03Z</time>
</trkpt>
<trkpt lat="49.504742" lon="10.415945">
<ele>320.437</ele>
<time>2019-05-30T17:02:04Z</time>
</trkpt>
<trkpt lat="49.504765" lon="10.415911">
<ele>320.437</ele>
<time>2019-05-30T17:02:05Z</time>
</trkpt>
<trkpt lat="49.504784" lon="10.415874">
<ele>320.437</ele>
<time>2019-05-30T17:02:06Z</time>
</trkpt>
<trkpt lat="49.50481" lon="10.415837">
<ele>320.437</ele>
<time>2019-05-30T17:02:07Z</time>
</trkpt>
<trkpt lat="49.504833" lon="10.415804">
<ele>320.731</ele>
<time>2019-05-30T17:02:08Z</time>
</trkpt>
<trkpt lat="49.504856" lon="10.415771">
<ele>320.964</ele>
<time>2019-05-30T17:02:09Z</time>
</trkpt>
<trkpt lat="49.504879" lon="10.415747">
<ele>321.138</ele>
<time>2019-05-30T17:02:10Z</time>
</trkpt>
<trkpt lat="49.504906" lon="10.415722">
<ele>321.267</ele>
<time>2019-05-30T17:02:11Z</time>
</trkpt>
<trkpt lat="49.504921" lon="10.415678">
<ele>321.347</ele>
<time>2019-05-30T17:02:12Z</time>
</trkpt>
<trkpt lat="49.50494" lon="10.415648">
<ele>321.4</ele>
<time>2019-05-30T17:02:13Z</time>
</trkpt>
<trkpt lat="49.504963" lon="10.415619">
<ele>321.432</ele>
<time>2019-05-30T17:02:14Z</time>
</trkpt>
<trkpt lat="49.504978" lon="10.415586">
<ele>321.456</ele>
<time>2019-05-30T17:02:15Z</time>
</trkpt>
<trkpt lat="49.504993" lon="10.415542">
<ele>321.456</ele>
<time>2019-05-30T17:02:16Z</time>
</trkpt>
<trkpt lat="49.505009" lon="10.41551">
<ele>321.456</ele>
<time>2019-05-30T17:02:17Z</time>
</trkpt>
<trkpt lat="49.505028" lon="10.415475">
<ele>321.456</ele>
<time>2019-05-30T17:02:18Z</time>
</trkpt>
<trkpt lat="49.505039" lon="10.41544">
<ele>321.456</ele>
<time>2019-05-30T17:02:19Z</time>
</trkpt>
<trkpt lat="49.505054" lon="10.4154">
<ele>321.456</ele>
<time>2019-05-30T17:02:20Z</time>
</trkpt>
<trkpt lat="49.50507" lon="10.41537">
<ele>321.456</ele>
<time>2019-05-30T17:02:21Z</time>
</trkpt>
<trkpt lat="49.505081" lon="10.415328">
<ele>321.456</ele>
<time>2019-05-30T17:02:22Z</time>
</trkpt>
<trkpt lat="49.505093" lon="10.415284">
<ele>321.709</ele>
<time>2019-05-30T17:02:23Z</time>
</trkpt>
<trkpt lat="49.5051" lon="10.415243">
<ele>321.91</ele>
<time>2019-05-30T17:02:24Z</time>
</trkpt>
<trkpt lat="49.505116" lon="10.415209">
<ele>322.053</ele>
<time>2019-05-30T17:02:25Z</time>
</trkpt>
<trkpt lat="49.505131" lon="10.415174">
<ele>322.202</ele>
<time>2019-05-30T17:02:26Z</time>
</trkpt>
<trkpt lat="49.50515" lon="10.415132">
<ele>322.316</ele>
<time>2019-05-30T17:02:27Z</time>
</trkpt>
<trkpt lat="49.505169" lon="10.415087">
<ele>322.399</ele>
<time>2019-05-30T17:02:28Z</time>
</trkpt>
<trkpt lat="49.505188" lon="10.415045">
<ele>322.453</ele>
<time>2019-05-30T17:02:29Z</time>
</trkpt>
<trkpt lat="49.505203" lon="10.415006">
<ele>322.475</ele>
<time>2019-05-30T17:02:30Z</time>
</trkpt>
<trkpt lat="49.505219" lon="10.414966">
<ele>322.475</ele>
<time>2019-05-30T17:02:31Z</time>
</trkpt>
<trkpt lat="49.50523" lon="10.414926">
<ele>322.475</ele>
<time>2019-05-30T17:02:32Z</time>
</trkpt>
<trkpt lat="49.505238" lon="10.414888">
<ele>322.475</ele>
<time>2019-05-30T17:02:33Z</time>
</trkpt>
<trkpt lat="49.505241" lon="10.41485">
<ele>322.475</ele>
<time>2019-05-30T17:02:34Z</time>
</trkpt>
<trkpt lat="49.505238" lon="10.414815">
<ele>322.475</ele>
<time>2019-05-30T17:02:35Z</time>
</trkpt>
<trkpt lat="49.505222" lon="10.414771">
<ele>322.475</ele>
<time>2019-05-30T17:02:36Z</time>
</trkpt>
<trkpt lat="49.505207" lon="10.414733">
<ele>322.475</ele>
<time>2019-05-30T17:02:37Z</time>
</trkpt>
<trkpt lat="49.505188" lon="10.414701">
<ele>322.475</ele>
<time>2019-05-30T17:02:38Z</time>
</trkpt>
<trkpt lat="49.505165" lon="10.414666">
<ele>322.759</ele>
<time>2019-05-30T17:02:39Z</time>
</trkpt>
<trkpt lat="49.50515" lon="10.414626">
<ele>322.988</ele>
<time>2019-05-30T17:02:40Z</time>
</trkpt>
<trkpt lat="49.505127" lon="10.41459">
<ele>323.161</ele>
<time>2019-05-30T17:02:41Z</time>
</trkpt>
<trkpt lat="49.5051" lon="10.414557">
<ele>323.283</ele>
<time>2019-05-30T17:02:42Z</time>
</trkpt>
<trkpt lat="49.505077" lon="10.414521">
<ele>323.365</ele>
<time>2019-05-30T17:02:43Z</time>
</trkpt>
<trkpt lat="49.505051" lon="10.41449">
<ele>323.42</ele>
<time>2019-05-30T17:02:44Z</time>
</trkpt>
<trkpt lat="49.505032" lon="10.414461">
<ele>323.467</ele>
<time>2019-05-30T17:02:45Z</time>
</trkpt>
<trkpt lat="49.505013" lon="10.414429">
<ele>323.494</ele>
<time>2019-05-30T17:02:46Z</time>
</trkpt>
<trkpt lat="49.505001" lon="10.414392">
<ele>323.494</ele>
<time>2019-05-30T17:02:47Z</time>
</trkpt>
<trkpt lat="49.504974" lon="10.414353">
<ele>323.494</ele>
<time>2019-05-30T17:02:48Z</time>
</trkpt>
<trkpt lat="49.504955" lon="10.414325">
<ele>323.494</ele>
<time>2019-05-30T17:02:49Z</time>
</trkpt>
<trkpt lat="49.504936" lon="10.414291">
<ele>323.494</ele>
<time>2019-05-30T17:02:50Z</time>
</trkpt>
<trkpt lat="49.504921" lon="10.414258">
<ele>323.494</ele>
<time>2019-05-30T17:02:51Z</time>
</trkpt>
<trkpt lat="49.504898" lon="10.414228">
<ele>323.751</ele>
<time>2019-05-30T17:02:52Z</time>
</trkpt>
<trkpt lat="49.504879" lon="10.414199">
<ele>323.957</ele>
<time>2019-05-30T17:02:53Z</time>
</trkpt>
<trkpt lat="49.50486" lon="10.414169">
<ele>324.118</ele>
<time>2019-05-30T17:02:54Z</time>
</trkpt>
<trkpt lat="49.504837" lon="10.41414">
<ele>324.226</ele>
<time>2019-05-30T17:02:55Z</time>
</trkpt>
<trkpt lat="49.504814" lon="10.414106">
<ele>324.34</ele>
<time>2019-05-30T17:02:56Z</time>
</trkpt>
<trkpt lat="49.504787" lon="10.41408">
<ele>324.433</ele>
<time>2019-05-30T17:02:57Z</time>
</trkpt>
<trkpt lat="49.504757" lon="10.414066">
<ele>324.488</ele>
<time>2019-05-30T17:02:58Z</time>
</trkpt>
<trkpt lat="49.504734" lon="10.414048">
<ele>324.513</ele>
<time>2019-05-30T17:02:59Z</time>
</trkpt>
<trkpt lat="49.504704" lon="10.414027">
<ele>324.513</ele>
<time>2019-05-30T17:03:00Z</time>
</trkpt>
<trkpt lat="49.504677" lon="10.414006">
<ele>324.513</ele>
<time>2019-05-30T17:03:01Z</time>
</trkpt>
<trkpt lat="49.504658" lon="10.41398">
<ele>324.513</ele>
<time>2019-05-30T17:03:02Z</time>
</trkpt>
<trkpt lat="49.504642" lon="10.413948">
<ele>324.513</ele>
<time>2019-05-30T17:03:03Z</time>
</trkpt>
<trkpt lat="49.504631" lon="10.413917">
<ele>324.513</ele>
<time>2019-05-30T17:03:04Z</time>
</trkpt>
<trkpt lat="49.504623" lon="10.41388">
<ele>324.513</ele>
<time>2019-05-30T17:03:05Z</time>
</trkpt>
<trkpt lat="49.504627" lon="10.413834">
<ele>324.513</ele>
<time>2019-05-30T17:03:06Z</time>
</trkpt>
<trkpt lat="49.504642" lon="10.413782">
<ele>324.513</ele>
<time>2019-05-30T17:03:07Z</time>
</trkpt>
<trkpt lat="49.504658" lon="10.413733">
<ele>324.513</ele>
<time>2019-05-30T17:03:08Z</time>
</trkpt>
<trkpt lat="49.504677" lon="10.413685">
<ele>324.513</ele>
<time>2019-05-30T17:03:09Z</time>
</trkpt>
<trkpt lat="49.504688" lon="10.413637">
<ele>324.513</ele>
<time>2019-05-30T17:03:10Z</time>
</trkpt>
<trkpt lat="49.504707" lon="10.413593">
<ele>324.513</ele>
<time>2019-05-30T17:03:11Z</time>
</trkpt>
<trkpt lat="49.504723" lon="10.413551">
<ele>324.513</ele>
<time>2019-05-30T17:03:12Z</time>
</trkpt>
<trkpt lat="49.504738" lon="10.413511">
<ele>324.513</ele>
<time>2019-05-30T17:03:13Z</time>
</trkpt>
<trkpt lat="49.504753" lon="10.413474">
<ele>324.513</ele>
<time>2019-05-30T17:03:14Z</time>
</trkpt>
<trkpt lat="49.504772" lon="10.413437">
<ele>324.513</ele>
<time>2019-05-30T17:03:15Z</time>
</trkpt>
<trkpt lat="49.504787" lon="10.413401">
<ele>324.513</ele>
<time>2019-05-30T17:03:16Z</time>
</trkpt>
<trkpt lat="49.504807" lon="10.413367">
<ele>324.513</ele>
<time>2019-05-30T17:03:17Z</time>
</trkpt>
<trkpt lat="49.504826" lon="10.413337">
<ele>324.513</ele>
<time>2019-05-30T17:03:18Z</time>
</trkpt>
<trkpt lat="49.504837" lon="10.413303">
<ele>324.513</ele>
<time>2019-05-30T17:03:19Z</time>
</trkpt>
<trkpt lat="49.504848" lon="10.413268">
<ele>324.513</ele>
<time>2019-05-30T17:03:20Z</time>
</trkpt>
<trkpt lat="49.50486" lon="10.413239">
<ele>324.513</ele>
<time>2019-05-30T17:03:21Z</time>
</trkpt>
<trkpt lat="49.504868" lon="10.413203">
<ele>324.513</ele>
<time>2019-05-30T17:03:22Z</time>
</trkpt>
<trkpt lat="49.504875" lon="10.413178">
<ele>324.513</ele>
<time>2019-05-30T17:03:23Z</time>
</trkpt>
<trkpt lat="49.504883" lon="10.41316">
<ele>324.513</ele>
<time>2019-05-30T17:03:24Z</time>
</trkpt>
<trkpt lat="49.50489" lon="10.413141">
<ele>324.513</ele>
<time>2019-05-30T17:03:25Z</time>
</trkpt>
<trkpt lat="49.504898" lon="10.413126">
<ele>324.513</ele>
<time>2019-05-30T17:03:26Z</time>
</trkpt>
<trkpt lat="49.504902" lon="10.41312">
<ele>324.513</ele>
<time>2019-05-30T17:03:27Z</time>
</trkpt>
<trkpt lat="49.504906" lon="10.413118">
<ele>324.513</ele>
<time>2019-05-30T17:03:28Z</time>
</trkpt>
<trkpt lat="49.504906" lon="10.413116">
<ele>324.513</ele>
<time>2019-05-30T17:03:29Z</time>
</trkpt>
<trkpt lat="49.504917" lon="10.413095">
<ele>324.513</ele>
<time>2019-05-30T17:03:31Z</time>
</trkpt>
<trkpt lat="49.504936" lon="10.413078">
<ele>324.513</ele>
<time>2019-05-30T17:03:32Z</time>
</trkpt>
<trkpt lat="49.504955" lon="10.413054">
<ele>324.513</ele>
<time>2019-05-30T17:03:33Z</time>
</trkpt>
<trkpt lat="49.504971" lon="10.413025">
<ele>324.513</ele>
<time>2019-05-30T17:03:34Z</time>
</trkpt>
<trkpt lat="49.50499" lon="10.412993">
<ele>324.513</ele>
<time>2019-05-30T17:03:35Z</time>
</trkpt>
<trkpt lat="49.505013" lon="10.412958">
<ele>324.513</ele>
<time>2019-05-30T17:03:36Z</time>
</trkpt>
<trkpt lat="49.505035" lon="10.412921">
<ele>324.513</ele>
<time>2019-05-30T17:03:37Z</time>
</trkpt>
<trkpt lat="49.50507" lon="10.412889">
<ele>324.513</ele>
<time>2019-05-30T17:03:38Z</time>
</trkpt>
<trkpt lat="49.5051" lon="10.412855">
<ele>324.513</ele>
<time>2019-05-30T17:03:39Z</time>
</trkpt>
<trkpt lat="49.505131" lon="10.412815">
<ele>324.513</ele>
<time>2019-05-30T17:03:40Z</time>
</trkpt>
<trkpt lat="49.505165" lon="10.412775">
<ele>324.513</ele>
<time>2019-05-30T17:03:41Z</time>
</trkpt>
<trkpt lat="49.505196" lon="10.412735">
<ele>324.513</ele>
<time>2019-05-30T17:03:42Z</time>
</trkpt>
<trkpt lat="49.50523" lon="10.412702">
<ele>324.261</ele>
<time>2019-05-30T17:03:43Z</time>
</trkpt>
<trkpt lat="49.50526" lon="10.412668">
<ele>324.071</ele>
<time>2019-05-30T17:03:44Z</time>
</trkpt>
<trkpt lat="49.505295" lon="10.412632">
<ele>323.929</ele>
<time>2019-05-30T17:03:45Z</time>
</trkpt>
<trkpt lat="49.505318" lon="10.412601">
<ele>323.835</ele>
<time>2019-05-30T17:03:46Z</time>
</trkpt>
<trkpt lat="49.505348" lon="10.412567">
<ele>323.729</ele>
<time>2019-05-30T17:03:47Z</time>
</trkpt>
<trkpt lat="49.505375" lon="10.412538">
<ele>323.653</ele>
<time>2019-05-30T17:03:48Z</time>
</trkpt>
<trkpt lat="49.505398" lon="10.412513">
<ele>323.603</ele>
<time>2019-05-30T17:03:49Z</time>
</trkpt>
<trkpt lat="49.505424" lon="10.41249">
<ele>323.579</ele>
<time>2019-05-30T17:03:50Z</time>
</trkpt>
<trkpt lat="49.505444" lon="10.412468">
<ele>323.579</ele>
<time>2019-05-30T17:03:51Z</time>
</trkpt>
<trkpt lat="49.505459" lon="10.412452">
<ele>323.579</ele>
<time>2019-05-30T17:03:52Z</time>
</trkpt>
<trkpt lat="49.505482" lon="10.412435">
<ele>323.579</ele>
<time>2019-05-30T17:03:53Z</time>
</trkpt>
<trkpt lat="49.505505" lon="10.412412">
<ele>323.579</ele>
<time>2019-05-30T17:03:54Z</time>
</trkpt>
<trkpt lat="49.505524" lon="10.412376">
<ele>323.579</ele>
<time>2019-05-30T17:03:55Z</time>
</trkpt>
<trkpt lat="49.505539" lon="10.412333">
<ele>323.579</ele>
<time>2019-05-30T17:03:56Z</time>
</trkpt>
<trkpt lat="49.505547" lon="10.412287">
<ele>323.579</ele>
<time>2019-05-30T17:03:57Z</time>
</trkpt>
<trkpt lat="49.505547" lon="10.412235">
<ele>323.579</ele>
<time>2019-05-30T17:03:58Z</time>
</trkpt>
<trkpt lat="49.505539" lon="10.41218">
<ele>323.579</ele>
<time>2019-05-30T17:03:59Z</time>
</trkpt>
<trkpt lat="49.505535" lon="10.412116">
<ele>323.579</ele>
<time>2019-05-30T17:04:00Z</time>
</trkpt>
<trkpt lat="49.505527" lon="10.412051">
<ele>323.579</ele>
<time>2019-05-30T17:04:01Z</time>
</trkpt>
<trkpt lat="49.50552" lon="10.411986">
<ele>323.579</ele>
<time>2019-05-30T17:04:02Z</time>
</trkpt>
<trkpt lat="49.505512" lon="10.411925">
<ele>323.579</ele>
<time>2019-05-30T17:04:03Z</time>
</trkpt>
<trkpt lat="49.505512" lon="10.411867">
<ele>323.579</ele>
<time>2019-05-30T17:04:04Z</time>
</trkpt>
<trkpt lat="49.505505" lon="10.41181">
<ele>323.579</ele>
<time>2019-05-30T17:04:05Z</time>
</trkpt>
<trkpt lat="49.505505" lon="10.411752">
<ele>323.579</ele>
<time>2019-05-30T17:04:06Z</time>
</trkpt>
<trkpt lat="49.505512" lon="10.411698">
<ele>323.579</ele>
<time>2019-05-30T17:04:07Z</time>
</trkpt>
<trkpt lat="49.505516" lon="10.411633">
<ele>323.851</ele>
<time>2019-05-30T17:04:08Z</time>
</trkpt>
<trkpt lat="49.50552" lon="10.411567">
<ele>324.066</ele>
<time>2019-05-30T17:04:09Z</time>
</trkpt>
<trkpt lat="49.505524" lon="10.411502">
<ele>324.233</ele>
<time>2019-05-30T17:04:10Z</time>
</trkpt>
<trkpt lat="49.505524" lon="10.411438">
<ele>324.353</ele>
<time>2019-05-30T17:04:11Z</time>
</trkpt>
<trkpt lat="49.505524" lon="10.411377">
<ele>324.437</ele>
<time>2019-05-30T17:04:12Z</time>
</trkpt>
<trkpt lat="49.505527" lon="10.411314">
<ele>324.486</ele>
<time>2019-05-30T17:04:13Z</time>
</trkpt>
<trkpt lat="49.505535" lon="10.411248">
<ele>324.508</ele>
<time>2019-05-30T17:04:14Z</time>
</trkpt>
<trkpt lat="49.505539" lon="10.411183">
<ele>324.513</ele>
<time>2019-05-30T17:04:15Z</time>
</trkpt>
<trkpt lat="49.505543" lon="10.411117">
<ele>324.513</ele>
<time>2019-05-30T17:04:16Z</time>
</trkpt>
<trkpt lat="49.505554" lon="10.411054">
<ele>324.513</ele>
<time>2019-05-30T17:04:17Z</time>
</trkpt>
<trkpt lat="49.505562" lon="10.410992">
<ele>324.513</ele>
<time>2019-05-30T17:04:18Z</time>
</trkpt>
<trkpt lat="49.505577" lon="10.410933">
<ele>324.513</ele>
<time>2019-05-30T17:04:19Z</time>
</trkpt>
<trkpt lat="49.505589" lon="10.410873">
<ele>324.513</ele>
<time>2019-05-30T17:04:20Z</time>
</trkpt>
<trkpt lat="49.5056" lon="10.410818">
<ele>324.513</ele>
<time>2019-05-30T17:04:21Z</time>
</trkpt>
<trkpt lat="49.505615" lon="10.410767">
<ele>324.578</ele>
<time>2019-05-30T17:04:22Z</time>
</trkpt>
<trkpt lat="49.505627" lon="10.410713">
<ele>324.629</ele>
<time>2019-05-30T17:04:23Z</time>
</trkpt>
<trkpt lat="49.505642" lon="10.41066">
<ele>324.67</ele>
<time>2019-05-30T17:04:24Z</time>
</trkpt>
<trkpt lat="49.505657" lon="10.410605">
<ele>324.701</ele>
<time>2019-05-30T17:04:25Z</time>
</trkpt>
<trkpt lat="49.505676" lon="10.410549">
<ele>324.723</ele>
<time>2019-05-30T17:04:26Z</time>
</trkpt>
<trkpt lat="49.505692" lon="10.410495">
<ele>324.746</ele>
<time>2019-05-30T17:04:27Z</time>
</trkpt>
<trkpt lat="49.505711" lon="10.41044">
<ele>324.76</ele>
<time>2019-05-30T17:04:28Z</time>
</trkpt>
<trkpt lat="49.505726" lon="10.410386">
<ele>324.767</ele>
<time>2019-05-30T17:04:29Z</time>
</trkpt>
<trkpt lat="49.505749" lon="10.410334">
<ele>324.767</ele>
<time>2019-05-30T17:04:30Z</time>
</trkpt>
<trkpt lat="49.505768" lon="10.410283">
<ele>324.767</ele>
<time>2019-05-30T17:04:31Z</time>
</trkpt>
<trkpt lat="49.505787" lon="10.410235">
<ele>324.99</ele>
<time>2019-05-30T17:04:32Z</time>
</trkpt>
<trkpt lat="49.505806" lon="10.410185">
<ele>325.166</ele>
<time>2019-05-30T17:04:33Z</time>
</trkpt>
<trkpt lat="49.505829" lon="10.410136">
<ele>325.297</ele>
<time>2019-05-30T17:04:34Z</time>
</trkpt>
<trkpt lat="49.505848" lon="10.41009">
<ele>325.401</ele>
<time>2019-05-30T17:04:35Z</time>
</trkpt>
<trkpt lat="49.505875" lon="10.410042">
<ele>325.472</ele>
<time>2019-05-30T17:04:36Z</time>
</trkpt>
<trkpt lat="49.505898" lon="10.41">
<ele>325.546</ele>
<time>2019-05-30T17:04:37Z</time>
</trkpt>
<trkpt lat="49.505924" lon="10.409955">
<ele>325.594</ele>
<time>2019-05-30T17:04:38Z</time>
</trkpt>
<trkpt lat="49.505947" lon="10.409906">
<ele>325.617</ele>
<time>2019-05-30T17:04:39Z</time>
</trkpt>
<trkpt lat="49.50597" lon="10.409855">
<ele>325.617</ele>
<time>2019-05-30T17:04:40Z</time>
</trkpt>
<trkpt lat="49.505993" lon="10.409808">
<ele>325.617</ele>
<time>2019-05-30T17:04:41Z</time>
</trkpt>
<trkpt lat="49.506012" lon="10.409759">
<ele>325.617</ele>
<time>2019-05-30T17:04:42Z</time>
</trkpt>
<trkpt lat="49.506042" lon="10.40971">
<ele>325.617</ele>
<time>2019-05-30T17:04:43Z</time>
</trkpt>
<trkpt lat="49.506069" lon="10.409665">
<ele>325.617</ele>
<time>2019-05-30T17:04:44Z</time>
</trkpt>
<trkpt lat="49.506092" lon="10.409611">
<ele>325.617</ele>
<time>2019-05-30T17:04:45Z</time>
</trkpt>
<trkpt lat="49.506111" lon="10.409547">
<ele>325.617</ele>
<time>2019-05-30T17:04:46Z</time>
</trkpt>
<trkpt lat="49.506138" lon="10.409485">
<ele>325.617</ele>
<time>2019-05-30T17:04:47Z</time>
</trkpt>
<trkpt lat="49.506161" lon="10.409425">
<ele>325.617</ele>
<time>2019-05-30T17:04:48Z</time>
</trkpt>
<trkpt lat="49.506195" lon="10.409367">
<ele>325.617</ele>
<time>2019-05-30T17:04:49Z</time>
</trkpt>
<trkpt lat="49.506226" lon="10.409307">
<ele>325.617</ele>
<time>2019-05-30T17:04:50Z</time>
</trkpt>
<trkpt lat="49.506252" lon="10.409245">
<ele>325.617</ele>
<time>2019-05-30T17:04:51Z</time>
</trkpt>
<trkpt lat="49.506275" lon="10.40919">
<ele>325.617</ele>
<time>2019-05-30T17:04:52Z</time>
</trkpt>
<trkpt lat="49.506306" lon="10.40914">
<ele>325.617</ele>
<time>2019-05-30T17:04:53Z</time>
</trkpt>
<trkpt lat="49.506336" lon="10.40909">
<ele>325.617</ele>
<time>2019-05-30T17:04:54Z</time>
</trkpt>
<trkpt lat="49.506367" lon="10.40904">
<ele>325.617</ele>
<time>2019-05-30T17:04:55Z</time>
</trkpt>
<trkpt lat="49.506397" lon="10.408988">
<ele>325.617</ele>
<time>2019-05-30T17:04:56Z</time>
</trkpt>
<trkpt lat="49.506424" lon="10.408936">
<ele>325.617</ele>
<time>2019-05-30T17:04:57Z</time>
</trkpt>
<trkpt lat="49.506454" lon="10.408886">
<ele>325.617</ele>
<time>2019-05-30T17:04:58Z</time>
</trkpt>
<trkpt lat="49.506485" lon="10.408842">
<ele>325.617</ele>
<time>2019-05-30T17:04:59Z</time>
</trkpt>
<trkpt lat="49.506516" lon="10.40879">
<ele>325.617</ele>
<time>2019-05-30T17:05:00Z</time>
</trkpt>
<trkpt lat="49.506546" lon="10.408735">
<ele>325.617</ele>
<time>2019-05-30T17:05:01Z</time>
</trkpt>
<trkpt lat="49.506577" lon="10.408685">
<ele>325.617</ele>
<time>2019-05-30T17:05:02Z</time>
</trkpt>
<trkpt lat="49.506611" lon="10.408642">
<ele>325.617</ele>
<time>2019-05-30T17:05:03Z</time>
</trkpt>
<trkpt lat="49.506641" lon="10.408599">
<ele>325.617</ele>
<time>2019-05-30T17:05:04Z</time>
</trkpt>
<trkpt lat="49.506672" lon="10.408555">
<ele>325.617</ele>
<time>2019-05-30T17:05:05Z</time>
</trkpt>
<trkpt lat="49.506702" lon="10.408504">
<ele>325.617</ele>
<time>2019-05-30T17:05:06Z</time>
</trkpt>
<trkpt lat="49.506741" lon="10.408455">
<ele>325.617</ele>
<time>2019-05-30T17:05:07Z</time>
</trkpt>
<trkpt lat="49.506771" lon="10.408401">
<ele>325.617</ele>
<time>2019-05-30T17:05:08Z</time>
</trkpt>
<trkpt lat="49.506798" lon="10.40835">
<ele>325.617</ele>
<time>2019-05-30T17:05:09Z</time>
</trkpt>
<trkpt lat="49.506832" lon="10.408295">
<ele>325.617</ele>
<time>2019-05-30T17:05:10Z</time>
</trkpt>
<trkpt lat="49.506859" lon="10.40824">
<ele>325.617</ele>
<time>2019-05-30T17:05:11Z</time>
</trkpt>
<trkpt lat="49.506889" lon="10.408186">
<ele>325.617</ele>
<time>2019-05-30T17:05:12Z</time>
</trkpt>
<trkpt lat="49.506912" lon="10.408134">
<ele>325.617</ele>
<time>2019-05-30T17:05:13Z</time>
</trkpt>
<trkpt lat="49.506943" lon="10.408079">
<ele>325.617</ele>
<time>2019-05-30T17:05:14Z</time>
</trkpt>
<trkpt lat="49.506973" lon="10.408031">
<ele>325.617</ele>
<time>2019-05-30T17:05:15Z</time>
</trkpt>
<trkpt lat="49.507008" lon="10.407974">
<ele>325.617</ele>
<time>2019-05-30T17:05:16Z</time>
</trkpt>
<trkpt lat="49.507034" lon="10.40792">
<ele>325.617</ele>
<time>2019-05-30T17:05:17Z</time>
</trkpt>
<trkpt lat="49.507065" lon="10.407867">
<ele>325.617</ele>
<time>2019-05-30T17:05:18Z</time>
</trkpt>
<trkpt lat="49.507095" lon="10.407813">
<ele>325.617</ele>
<time>2019-05-30T17:05:19Z</time>
</trkpt>
<trkpt lat="49.507126" lon="10.407761">
<ele>325.617</ele>
<time>2019-05-30T17:05:20Z</time>
</trkpt>
<trkpt lat="49.50716" lon="10.407703">
<ele>325.617</ele>
<time>2019-05-30T17:05:21Z</time>
</trkpt>
<trkpt lat="49.507191" lon="10.407652">
<ele>325.867</ele>
<time>2019-05-30T17:05:22Z</time>
</trkpt>
<trkpt lat="49.507225" lon="10.407597">
<ele>326.058</ele>
<time>2019-05-30T17:05:23Z</time>
</trkpt>
<trkpt lat="49.507252" lon="10.407541">
<ele>326.205</ele>
<time>2019-05-30T17:05:24Z</time>
</trkpt>
<trkpt lat="49.507286" lon="10.407488">
<ele>326.321</ele>
<time>2019-05-30T17:05:25Z</time>
</trkpt>
<trkpt lat="49.507317" lon="10.407436">
<ele>326.398</ele>
<time>2019-05-30T17:05:26Z</time>
</trkpt>
<trkpt lat="49.507347" lon="10.407383">
<ele>326.476</ele>
<time>2019-05-30T17:05:27Z</time>
</trkpt>
<trkpt lat="49.507381" lon="10.40733">
<ele>326.527</ele>
<time>2019-05-30T17:05:28Z</time>
</trkpt>
<trkpt lat="49.507408" lon="10.407277">
<ele>326.551</ele>
<time>2019-05-30T17:05:29Z</time>
</trkpt>
<trkpt lat="49.507442" lon="10.407224">
<ele>326.551</ele>
<time>2019-05-30T17:05:30Z</time>
</trkpt>
<trkpt lat="49.507473" lon="10.407174">
<ele>326.551</ele>
<time>2019-05-30T17:05:31Z</time>
</trkpt>
<trkpt lat="49.507507" lon="10.407122">
<ele>326.551</ele>
<time>2019-05-30T17:05:32Z</time>
</trkpt>
<trkpt lat="49.507542" lon="10.407069">
<ele>326.551</ele>
<time>2019-05-30T17:05:33Z</time>
</trkpt>
<trkpt lat="49.507576" lon="10.407017">
<ele>326.551</ele>
<time>2019-05-30T17:05:34Z</time>
</trkpt>
<trkpt lat="49.50761" lon="10.406962">
<ele>326.551</ele>
<time>2019-05-30T17:05:35Z</time>
</trkpt>
<trkpt lat="49.507645" lon="10.406908">
<ele>326.551</ele>
<time>2019-05-30T17:05:36Z</time>
</trkpt>
<trkpt lat="49.507675" lon="10.406856">
<ele>326.551</ele>
<time>2019-05-30T17:05:37Z</time>
</trkpt>
<trkpt lat="49.507706" lon="10.406801">
<ele>326.551</ele>
<time>2019-05-30T17:05:38Z</time>
</trkpt>
<trkpt lat="49.50774" lon="10.406751">
<ele>326.551</ele>
<time>2019-05-30T17:05:39Z</time>
</trkpt>
<trkpt lat="49.507771" lon="10.4067">
<ele>326.811</ele>
<time>2019-05-30T17:05:40Z</time>
</trkpt>
<trkpt lat="49.507805" lon="10.406651">
<ele>327.01</ele>
<time>2019-05-30T17:05:41Z</time>
</trkpt>
<trkpt lat="49.507832" lon="10.4066">
<ele>327.163</ele>
<time>2019-05-30T17:05:42Z</time>
</trkpt>
<trkpt lat="49.507862" lon="10.406549">
<ele>327.28</ele>
<time>2019-05-30T17:05:43Z</time>
</trkpt>
<trkpt lat="49.507893" lon="10.406504">
<ele>327.362</ele>
<time>2019-05-30T17:05:44Z</time>
</trkpt>
<trkpt lat="49.507927" lon="10.406466">
<ele>327.417</ele>
<time>2019-05-30T17:05:45Z</time>
</trkpt>
<trkpt lat="49.507961" lon="10.406435">
<ele>327.459</ele>
<time>2019-05-30T17:05:46Z</time>
</trkpt>
<trkpt lat="49.507996" lon="10.406405">
<ele>327.486</ele>
<time>2019-05-30T17:05:47Z</time>
</trkpt>
<trkpt lat="49.508026" lon="10.406368">
<ele>327.73</ele>
<time>2019-05-30T17:05:48Z</time>
</trkpt>
<trkpt lat="49.508057" lon="10.406328">
<ele>327.923</ele>
<time>2019-05-30T17:05:49Z</time>
</trkpt>
<trkpt lat="49.508087" lon="10.406288">
<ele>328.072</ele>
<time>2019-05-30T17:05:50Z</time>
</trkpt>
<trkpt lat="49.508118" lon="10.406252">
<ele>328.186</ele>
<time>2019-05-30T17:05:51Z</time>
</trkpt>
<trkpt lat="49.508148" lon="10.406208">
<ele>328.264</ele>
<time>2019-05-30T17:05:52Z</time>
</trkpt>
<trkpt lat="49.508167" lon="10.40617">
<ele>328.309</ele>
<time>2019-05-30T17:05:53Z</time>
</trkpt>
<trkpt lat="49.508198" lon="10.406135">
<ele>328.335</ele>
<time>2019-05-30T17:05:54Z</time>
</trkpt>
<trkpt lat="49.508228" lon="10.406096">
<ele>328.335</ele>
<time>2019-05-30T17:05:55Z</time>
</trkpt>
<trkpt lat="49.508247" lon="10.406065">
<ele>328.335</ele>
<time>2019-05-30T17:05:56Z</time>
</trkpt>
<trkpt lat="49.50827" lon="10.406032">
<ele>328.335</ele>
<time>2019-05-30T17:05:57Z</time>
</trkpt>
<trkpt lat="49.508293" lon="10.406003">
<ele>328.335</ele>
<time>2019-05-30T17:05:58Z</time>
</trkpt>
<trkpt lat="49.508308" lon="10.405973">
<ele>328.335</ele>
<time>2019-05-30T17:05:59Z</time>
</trkpt>
<trkpt lat="49.508331" lon="10.405947">
<ele>328.335</ele>
<time>2019-05-30T17:06:00Z</time>
</trkpt>
<trkpt lat="49.508358" lon="10.405928">
<ele>328.335</ele>
<time>2019-05-30T17:06:01Z</time>
</trkpt>
<trkpt lat="49.508377" lon="10.405927">
<ele>328.586</ele>
<time>2019-05-30T17:06:02Z</time>
</trkpt>
<trkpt lat="49.508404" lon="10.405936">
<ele>328.79</ele>
<time>2019-05-30T17:06:03Z</time>
</trkpt>
<trkpt lat="49.508427" lon="10.405953">
<ele>328.959</ele>
<time>2019-05-30T17:06:04Z</time>
</trkpt>
<trkpt lat="49.50845" lon="10.405976">
<ele>329.086</ele>
<time>2019-05-30T17:06:05Z</time>
</trkpt>
<trkpt lat="49.508461" lon="10.40601">
<ele>329.18</ele>
<time>2019-05-30T17:06:06Z</time>
</trkpt>
<trkpt lat="49.508472" lon="10.406052">
<ele>329.268</ele>
<time>2019-05-30T17:06:07Z</time>
</trkpt>
<trkpt lat="49.50848" lon="10.406098">
<ele>329.122</ele>
<time>2019-05-30T17:06:08Z</time>
</trkpt>
<trkpt lat="49.508488" lon="10.406152">
<ele>328.973</ele>
<time>2019-05-30T17:06:09Z</time>
</trkpt>
<trkpt lat="49.508492" lon="10.406208">
<ele>328.899</ele>
<time>2019-05-30T17:06:10Z</time>
</trkpt>
<trkpt lat="49.508503" lon="10.406267">
<ele>328.758</ele>
<time>2019-05-30T17:06:11Z</time>
</trkpt>
<trkpt lat="49.508518" lon="10.406325">
<ele>328.652</ele>
<time>2019-05-30T17:06:12Z</time>
</trkpt>
<trkpt lat="49.50853" lon="10.40638">
<ele>328.584</ele>
<time>2019-05-30T17:06:13Z</time>
</trkpt>
<trkpt lat="49.508545" lon="10.406432">
<ele>328.54</ele>
<time>2019-05-30T17:06:14Z</time>
</trkpt>
<trkpt lat="49.508556" lon="10.40648">
<ele>328.521</ele>
<time>2019-05-30T17:06:15Z</time>
</trkpt>
<trkpt lat="49.508575" lon="10.40652">
<ele>328.505</ele>
<time>2019-05-30T17:06:16Z</time>
</trkpt>
<trkpt lat="49.508587" lon="10.406564">
<ele>328.505</ele>
<time>2019-05-30T17:06:17Z</time>
</trkpt>
<trkpt lat="49.508602" lon="10.406612">
<ele>328.505</ele>
<time>2019-05-30T17:06:18Z</time>
</trkpt>
<trkpt lat="49.508614" lon="10.406649">
<ele>328.505</ele>
<time>2019-05-30T17:06:19Z</time>
</trkpt>
<trkpt lat="49.508625" lon="10.406684">
<ele>328.238</ele>
<time>2019-05-30T17:06:20Z</time>
</trkpt>
<trkpt lat="49.508636" lon="10.406717">
<ele>328.026</ele>
<time>2019-05-30T17:06:21Z</time>
</trkpt>
<trkpt lat="49.508648" lon="10.406745">
<ele>327.857</ele>
<time>2019-05-30T17:06:22Z</time>
</trkpt>
<trkpt lat="49.508656" lon="10.406787">
<ele>327.726</ele>
<time>2019-05-30T17:06:23Z</time>
</trkpt>
<trkpt lat="49.508671" lon="10.406818">
<ele>327.627</ele>
<time>2019-05-30T17:06:24Z</time>
</trkpt>
<trkpt lat="49.508686" lon="10.40684">
<ele>327.57</ele>
<time>2019-05-30T17:06:25Z</time>
</trkpt>
<trkpt lat="49.508698" lon="10.406858">
<ele>327.521</ele>
<time>2019-05-30T17:06:26Z</time>
</trkpt>
<trkpt lat="49.508713" lon="10.406872">
<ele>327.486</ele>
<time>2019-05-30T17:06:27Z</time>
</trkpt>
<trkpt lat="49.508717" lon="10.40688">
<ele>327.486</ele>
<time>2019-05-30T17:06:28Z</time>
</trkpt>
<trkpt lat="49.508717" lon="10.40688">
<ele>327.486</ele>
</trkpt>
</trkseg>
</trk>
</gpx>